<?xml version='1.0' encoding='UTF-8'?><gpx version="1.1" creator="JPX - https://github.com/jenetics/jpx" xmlns="http://www.topografix.com/GPX/1/1"><trk><trkseg><trkpt lat="45.89613455104381" lon="13.381285849711617"><ele>25.999999999999996</ele><time>2026-04-22T15:25:11.999Z</time></trkpt><trkpt lat="45.896059493157914" lon="13.381281732615365"><ele>26.0</ele><time>2026-04-22T15:25:13.999Z</time></trkpt><trkpt lat="45.89597260450706" lon="13.381307617550545"><ele>26.0</ele><time>2026-04-22T15:25:15.999Z</time></trkpt><trkpt lat="45.8959062432454" lon="13.38134201809446"><ele>26.0</ele><time>2026-04-22T15:25:17.999Z</time></trkpt><trkpt lat="45.89586324392681" lon="13.38145106002855"><ele>25.999999999999996</ele><time>2026-04-22T15:25:20.999Z</time></trkpt><trkpt lat="45.8958469988668" lon="13.38156392430475"><ele>26.0</ele><time>2026-04-22T15:25:22.999Z</time></trkpt><trkpt lat="45.895825283308845" lon="13.381666618853204"><ele>25.999999999999996</ele><time>2026-04-22T15:25:24.999Z</time></trkpt><trkpt lat="45.89580461790144" lon="13.381776188936575"><ele>26.0</ele><time>2026-04-22T15:25:26.999Z</time></trkpt><trkpt lat="45.89578300544084" lon="13.381880105651392"><ele>26.0</ele><time>2026-04-22T15:25:28.999Z</time></trkpt><trkpt lat="45.895766518165345" lon="13.38198827876859"><ele>26.0</ele><time>2026-04-22T15:25:30.999Z</time></trkpt><trkpt lat="45.895794585174286" lon="13.382097557794138"><ele>25.999999999999996</ele><time>2026-04-22T15:25:34.999Z</time></trkpt><trkpt lat="45.89586572329195" lon="13.382107664834363"><ele>26.0</ele><time>2026-04-22T15:25:35.999Z</time></trkpt><trkpt lat="45.8959692764522" lon="13.382050830075679"><ele>26.0</ele><time>2026-04-22T15:25:36.999Z</time></trkpt><trkpt lat="45.89612000934946" lon="13.381964081926991"><ele>26.0</ele><time>2026-04-22T15:25:37.999Z</time></trkpt><trkpt lat="45.8963047227081" lon="13.381872033678587"><ele>26.0</ele><time>2026-04-22T15:25:38.999Z</time></trkpt><trkpt lat="45.89651593977901" lon="13.381769210075257"><ele>26.0</ele><time>2026-04-22T15:25:39.999Z</time></trkpt><trkpt lat="45.89674883346399" lon="13.381667691109309"><ele>26.0</ele><time>2026-04-22T15:25:40.999Z</time></trkpt><trkpt lat="45.8969847352887" lon="13.381561819612633"><ele>26.0</ele><time>2026-04-22T15:25:41.999Z</time></trkpt><trkpt lat="45.89721586994563" lon="13.38145915509696"><ele>26.0</ele><time>2026-04-22T15:25:42.999Z</time></trkpt><trkpt lat="45.897444703394854" lon="13.381362643952233"><ele>26.0</ele><time>2026-04-22T15:25:43.999Z</time></trkpt><trkpt lat="45.897671344309096" lon="13.381271386484707"><ele>26.0</ele><time>2026-04-22T15:25:44.999Z</time></trkpt><trkpt lat="45.89789204891745" lon="13.38118038479824"><ele>26.0</ele><time>2026-04-22T15:25:45.999Z</time></trkpt><trkpt lat="45.89809343190146" lon="13.381101393449446"><ele>26.0</ele><time>2026-04-22T15:25:46.999Z</time></trkpt><trkpt lat="45.89827110510922" lon="13.381029707638678"><ele>26.0</ele><time>2026-04-22T15:25:47.999Z</time></trkpt><trkpt lat="45.89843291762487" lon="13.38096553641493"><ele>25.333333333333332</ele><time>2026-04-22T15:25:48.999Z</time></trkpt><trkpt lat="45.898584343611695" lon="13.38090547670198"><ele>24.666666666666664</ele><time>2026-04-22T15:25:49.999Z</time></trkpt><trkpt lat="45.89872989340832" lon="13.380850334100705"><ele>24.0</ele><time>2026-04-22T15:25:50.999Z</time></trkpt><trkpt lat="45.89886925790973" lon="13.380799747085774"><ele>24.0</ele><time>2026-04-22T15:25:51.999Z</time></trkpt><trkpt lat="45.89901152558632" lon="13.380748763222618"><ele>24.0</ele><time>2026-04-22T15:25:52.999Z</time></trkpt><trkpt lat="45.8991525414389" lon="13.380703037335147"><ele>24.0</ele><time>2026-04-22T15:25:53.999Z</time></trkpt><trkpt lat="45.89929335860641" lon="13.38066325186923"><ele>24.0</ele><time>2026-04-22T15:25:54.999Z</time></trkpt><trkpt lat="45.899435334434656" lon="13.380625949152199"><ele>24.666666666666664</ele><time>2026-04-22T15:25:55.999Z</time></trkpt><trkpt lat="45.89958444091436" lon="13.380589938803247"><ele>25.333333333333332</ele><time>2026-04-22T15:25:56.999Z</time></trkpt><trkpt lat="45.89974274906985" lon="13.380557378956295"><ele>26.0</ele><time>2026-04-22T15:25:57.999Z</time></trkpt><trkpt lat="45.89990547810209" lon="13.380526437648134"><ele>26.0</ele><time>2026-04-22T15:25:58.999Z</time></trkpt><trkpt lat="45.90006981747934" lon="13.380495449478474"><ele>26.0</ele><time>2026-04-22T15:25:59.999Z</time></trkpt><trkpt lat="45.90023913983462" lon="13.380470437805196"><ele>26.0</ele><time>2026-04-22T15:26:00.999Z</time></trkpt><trkpt lat="45.90041097431799" lon="13.38044858108141"><ele>26.0</ele><time>2026-04-22T15:26:01.999Z</time></trkpt><trkpt lat="45.90057761628914" lon="13.380428663615037"><ele>26.0</ele><time>2026-04-22T15:26:02.999Z</time></trkpt><trkpt lat="45.900737427804614" lon="13.380405644954456"><ele>26.0</ele><time>2026-04-22T15:26:03.999Z</time></trkpt><trkpt lat="45.90089106552343" lon="13.380384362199411"><ele>25.666666666666664</ele><time>2026-04-22T15:26:04.999Z</time></trkpt><trkpt lat="45.90104317748047" lon="13.380366461978277"><ele>25.333333333333336</ele><time>2026-04-22T15:26:05.999Z</time></trkpt><trkpt lat="45.90119044062082" lon="13.380347384104459"><ele>25.0</ele><time>2026-04-22T15:26:06.999Z</time></trkpt><trkpt lat="45.901340291488374" lon="13.380323784644924"><ele>25.0</ele><time>2026-04-22T15:26:07.999Z</time></trkpt><trkpt lat="45.90149589850251" lon="13.38029748592927"><ele>25.0</ele><time>2026-04-22T15:26:08.999Z</time></trkpt><trkpt lat="45.90165997163443" lon="13.380272509266035"><ele>25.0</ele><time>2026-04-22T15:26:09.999Z</time></trkpt><trkpt lat="45.90182347217911" lon="13.380245707828035"><ele>25.333333333333336</ele><time>2026-04-22T15:26:10.999Z</time></trkpt><trkpt lat="45.901995192590604" lon="13.380213427652206"><ele>25.666666666666664</ele><time>2026-04-22T15:26:11.999Z</time></trkpt><trkpt lat="45.9021889615048" lon="13.380155011136637"><ele>26.0</ele><time>2026-04-22T15:26:12.999Z</time></trkpt><trkpt lat="45.902445903802885" lon="13.380107756389581"><ele>26.5</ele><time>2026-04-22T15:26:13.999Z</time></trkpt><trkpt lat="45.90273837870451" lon="13.380024394701872"><ele>27.0</ele><time>2026-04-22T15:26:14.999Z</time></trkpt><trkpt lat="45.903049973555845" lon="13.379969189349138"><ele>27.0</ele><time>2026-04-22T15:26:15.999Z</time></trkpt><trkpt lat="45.90336899469688" lon="13.379878873077866"><ele>27.0</ele><time>2026-04-22T15:26:16.999Z</time></trkpt><trkpt lat="45.9037284267144" lon="13.379800857658937"><ele>27.0</ele><time>2026-04-22T15:26:17.999Z</time></trkpt><trkpt lat="45.9040791398122" lon="13.379726575169139"><ele>27.0</ele><time>2026-04-22T15:26:18.999Z</time></trkpt><trkpt lat="45.90444151478939" lon="13.379650075986612"><ele>26.5</ele><time>2026-04-22T15:26:19.999Z</time></trkpt><trkpt lat="45.904797724662224" lon="13.379613450874249"><ele>26.0</ele><time>2026-04-22T15:26:20.999Z</time></trkpt><trkpt lat="45.90514639437773" lon="13.379547408791892"><ele>27.0</ele><time>2026-04-22T15:26:21.999Z</time></trkpt><trkpt lat="45.9054930308452" lon="13.37951172277637"><ele>28.0</ele><time>2026-04-22T15:26:22.999Z</time></trkpt><trkpt lat="45.90582824763981" lon="13.37947311097083"><ele>28.5</ele><time>2026-04-22T15:26:23.999Z</time></trkpt><trkpt lat="45.906145678621435" lon="13.379434341839149"><ele>29.0</ele><time>2026-04-22T15:26:24.999Z</time></trkpt><trkpt lat="45.90646890544966" lon="13.379395070438317"><ele>29.0</ele><time>2026-04-22T15:26:25.999Z</time></trkpt><trkpt lat="45.90676962554189" lon="13.37935044672511"><ele>29.0</ele><time>2026-04-22T15:26:26.999Z</time></trkpt><trkpt lat="45.9070631943671" lon="13.37928223783424"><ele>29.0</ele><time>2026-04-22T15:26:27.999Z</time></trkpt><trkpt lat="45.90733885349796" lon="13.379172319747724"><ele>29.0</ele><time>2026-04-22T15:26:28.999Z</time></trkpt><trkpt lat="45.90759920491229" lon="13.379062393515987"><ele>29.0</ele><time>2026-04-22T15:26:29.999Z</time></trkpt><trkpt lat="45.9078581855645" lon="13.378955510151236"><ele>29.0</ele><time>2026-04-22T15:26:30.999Z</time></trkpt><trkpt lat="45.908086501721364" lon="13.378873456057484"><ele>29.0</ele><time>2026-04-22T15:26:31.999Z</time></trkpt><trkpt lat="45.90830290604395" lon="13.378832867832728"><ele>29.0</ele><time>2026-04-22T15:26:32.999Z</time></trkpt><trkpt lat="45.90851098320213" lon="13.378793114242425"><ele>29.0</ele><time>2026-04-22T15:26:33.999Z</time></trkpt><trkpt lat="45.90871125245169" lon="13.378760641304407"><ele>29.0</ele><time>2026-04-22T15:26:34.999Z</time></trkpt><trkpt lat="45.9089053249046" lon="13.378709988245085"><ele>29.0</ele><time>2026-04-22T15:26:35.999Z</time></trkpt><trkpt lat="45.909095839090575" lon="13.378691688798215"><ele>29.0</ele><time>2026-04-22T15:26:36.999Z</time></trkpt><trkpt lat="45.909281577635184" lon="13.378671822207108"><ele>28.666666666666664</ele><time>2026-04-22T15:26:37.999Z</time></trkpt><trkpt lat="45.90946478430855" lon="13.378658633427419"><ele>28.333333333333336</ele><time>2026-04-22T15:26:38.999Z</time></trkpt><trkpt lat="45.90966742352669" lon="13.378656401824818"><ele>28.0</ele><time>2026-04-22T15:26:39.999Z</time></trkpt><trkpt lat="45.90987587438246" lon="13.378661734929155"><ele>28.0</ele><time>2026-04-22T15:26:40.999Z</time></trkpt><trkpt lat="45.910074900153006" lon="13.37867205917096"><ele>28.0</ele><time>2026-04-22T15:26:41.999Z</time></trkpt><trkpt lat="45.91026477460034" lon="13.378687795059875"><ele>28.0</ele><time>2026-04-22T15:26:42.999Z</time></trkpt><trkpt lat="45.91044628050975" lon="13.378711664957903"><ele>28.666666666666668</ele><time>2026-04-22T15:26:43.999Z</time></trkpt><trkpt lat="45.91061527664869" lon="13.378729348740391"><ele>29.333333333333336</ele><time>2026-04-22T15:26:44.999Z</time></trkpt><trkpt lat="45.910783485363034" lon="13.378735128094274"><ele>30.0</ele><time>2026-04-22T15:26:45.999Z</time></trkpt><trkpt lat="45.91094578003201" lon="13.378717312344133"><ele>30.333333333333336</ele><time>2026-04-22T15:26:46.999Z</time></trkpt><trkpt lat="45.91110275181245" lon="13.378667168455868"><ele>30.666666666666668</ele><time>2026-04-22T15:26:48Z</time></trkpt><trkpt lat="45.911259349965825" lon="13.378598707544246"><ele>31.0</ele><time>2026-04-22T15:26:49Z</time></trkpt><trkpt lat="45.911411630212356" lon="13.378522768038945"><ele>31.0</ele><time>2026-04-22T15:26:50Z</time></trkpt><trkpt lat="45.91155860457993" lon="13.37843535719232"><ele>31.0</ele><time>2026-04-22T15:26:51Z</time></trkpt><trkpt lat="45.91170030518949" lon="13.37832458339997"><ele>31.0</ele><time>2026-04-22T15:26:52Z</time></trkpt><trkpt lat="45.91183683488728" lon="13.378200702690684"><ele>31.0</ele><time>2026-04-22T15:26:53Z</time></trkpt><trkpt lat="45.911968497070525" lon="13.378061236841715"><ele>31.0</ele><time>2026-04-22T15:26:54Z</time></trkpt><trkpt lat="45.91209656503742" lon="13.377919250653061"><ele>31.0</ele><time>2026-04-22T15:26:55Z</time></trkpt><trkpt lat="45.91222586419611" lon="13.377783693887373"><ele>31.333333333333336</ele><time>2026-04-22T15:26:56Z</time></trkpt><trkpt lat="45.91235031034949" lon="13.377650876934943"><ele>31.666666666666664</ele><time>2026-04-22T15:26:57Z</time></trkpt><trkpt lat="45.9124751569911" lon="13.377523142079648"><ele>32.0</ele><time>2026-04-22T15:26:58Z</time></trkpt><trkpt lat="45.912596410780544" lon="13.377397956604216"><ele>32.25</ele><time>2026-04-22T15:26:59Z</time></trkpt><trkpt lat="45.91270802809079" lon="13.377282688538337"><ele>32.5</ele><time>2026-04-22T15:27:00Z</time></trkpt><trkpt lat="45.91281170353045" lon="13.377171956650717"><ele>32.75</ele><time>2026-04-22T15:27:01Z</time></trkpt><trkpt lat="45.91291671124455" lon="13.377066412007592"><ele>33.0</ele><time>2026-04-22T15:27:02Z</time></trkpt><trkpt lat="45.913019559251914" lon="13.376972037722476"><ele>33.0</ele><time>2026-04-22T15:27:03Z</time></trkpt><trkpt lat="45.91313368102006" lon="13.376898985151913"><ele>33.0</ele><time>2026-04-22T15:27:04Z</time></trkpt><trkpt lat="45.91325528610895" lon="13.37684458205548"><ele>33.0</ele><time>2026-04-22T15:27:05Z</time></trkpt><trkpt lat="45.913391248382744" lon="13.376808515766594"><ele>33.0</ele><time>2026-04-22T15:27:06Z</time></trkpt><trkpt lat="45.91354056937271" lon="13.376760554961486"><ele>33.0</ele><time>2026-04-22T15:27:07Z</time></trkpt><trkpt lat="45.913710279173486" lon="13.376686976809694"><ele>33.0</ele><time>2026-04-22T15:27:08Z</time></trkpt><trkpt lat="45.913879398282766" lon="13.376614372135597"><ele>33.0</ele><time>2026-04-22T15:27:09Z</time></trkpt><trkpt lat="45.9140235198478" lon="13.376547713543268"><ele>33.0</ele><time>2026-04-22T15:27:10Z</time></trkpt><trkpt lat="45.914169911865415" lon="13.376491535765396"><ele>33.0</ele><time>2026-04-22T15:27:11Z</time></trkpt><trkpt lat="45.91431973805115" lon="13.376442515100894"><ele>33.0</ele><time>2026-04-22T15:27:12Z</time></trkpt><trkpt lat="45.914477343375474" lon="13.376413338614457"><ele>33.0</ele><time>2026-04-22T15:27:13Z</time></trkpt><trkpt lat="45.91462942280627" lon="13.376387016845884"><ele>33.0</ele><time>2026-04-22T15:27:14Z</time></trkpt><trkpt lat="45.91478204749683" lon="13.37635954444422"><ele>33.0</ele><time>2026-04-22T15:27:15Z</time></trkpt><trkpt lat="45.9149346635494" lon="13.376330821258119"><ele>33.333333333333336</ele><time>2026-04-22T15:27:16Z</time></trkpt><trkpt lat="45.91508958640545" lon="13.376304121063255"><ele>33.66666666666667</ele><time>2026-04-22T15:27:17Z</time></trkpt><trkpt lat="45.915246009128104" lon="13.376274003906595"><ele>34.0</ele><time>2026-04-22T15:27:18Z</time></trkpt><trkpt lat="45.9154048018345" lon="13.37624635795152"><ele>34.0</ele><time>2026-04-22T15:27:19Z</time></trkpt><trkpt lat="45.915562101732725" lon="13.376222839059478"><ele>34.0</ele><time>2026-04-22T15:27:20Z</time></trkpt><trkpt lat="45.9157093670305" lon="13.37620551809217"><ele>34.0</ele><time>2026-04-22T15:27:20.999Z</time></trkpt><trkpt lat="45.915852879546954" lon="13.376189871134113"><ele>33.66666666666667</ele><time>2026-04-22T15:27:21.999Z</time></trkpt><trkpt lat="45.916008691160265" lon="13.376182926015467"><ele>33.333333333333336</ele><time>2026-04-22T15:27:22.999Z</time></trkpt><trkpt lat="45.91618173452994" lon="13.376194820333824"><ele>33.0</ele><time>2026-04-22T15:27:23.999Z</time></trkpt><trkpt lat="45.916351058722135" lon="13.376199192920248"><ele>33.0</ele><time>2026-04-22T15:27:24.999Z</time></trkpt><trkpt lat="45.91651327621494" lon="13.376194527349266"><ele>33.0</ele><time>2026-04-22T15:27:25.999Z</time></trkpt><trkpt lat="45.916677283612415" lon="13.376183132926059"><ele>33.0</ele><time>2026-04-22T15:27:26.999Z</time></trkpt><trkpt lat="45.916842396731525" lon="13.376162283286924"><ele>32.0</ele><time>2026-04-22T15:27:27.999Z</time></trkpt><trkpt lat="45.917008403079805" lon="13.37613083662733"><ele>31.0</ele><time>2026-04-22T15:27:28.999Z</time></trkpt><trkpt lat="45.91717935361023" lon="13.376097595188796"><ele>30.0</ele><time>2026-04-22T15:27:29.999Z</time></trkpt><trkpt lat="45.91735138340551" lon="13.376065732582747"><ele>30.0</ele><time>2026-04-22T15:27:30.999Z</time></trkpt><trkpt lat="45.91752338152004" lon="13.376036390887949"><ele>30.0</ele><time>2026-04-22T15:27:31.999Z</time></trkpt><trkpt lat="45.91770303588836" lon="13.376001539415435"><ele>30.0</ele><time>2026-04-22T15:27:32.999Z</time></trkpt><trkpt lat="45.91789063015117" lon="13.375963332533741"><ele>30.666666666666664</ele><time>2026-04-22T15:27:33.999Z</time></trkpt><trkpt lat="45.918084009293054" lon="13.375924588051658"><ele>31.333333333333332</ele><time>2026-04-22T15:27:34.999Z</time></trkpt><trkpt lat="45.918273868432394" lon="13.37588873761449"><ele>32.0</ele><time>2026-04-22T15:27:35.999Z</time></trkpt><trkpt lat="45.91845892642847" lon="13.375857195798744"><ele>32.0</ele><time>2026-04-22T15:27:36.999Z</time></trkpt><trkpt lat="45.91864009239937" lon="13.375806740774909"><ele>32.0</ele><time>2026-04-22T15:27:37.999Z</time></trkpt><trkpt lat="45.918820722817486" lon="13.375717878500266"><ele>32.0</ele><time>2026-04-22T15:27:38.999Z</time></trkpt><trkpt lat="45.91899227486236" lon="13.37560517350241"><ele>31.666666666666664</ele><time>2026-04-22T15:27:39.999Z</time></trkpt><trkpt lat="45.91915393654725" lon="13.375478275432183"><ele>31.333333333333336</ele><time>2026-04-22T15:27:40.999Z</time></trkpt><trkpt lat="45.91930744974286" lon="13.37532281354899"><ele>31.0</ele><time>2026-04-22T15:27:41.999Z</time></trkpt><trkpt lat="45.91946203196151" lon="13.37515917852549"><ele>31.0</ele><time>2026-04-22T15:27:42.999Z</time></trkpt><trkpt lat="45.91961483536399" lon="13.375000753088056"><ele>31.0</ele><time>2026-04-22T15:27:43.999Z</time></trkpt><trkpt lat="45.91976001398962" lon="13.374844517729978"><ele>31.0</ele><time>2026-04-22T15:27:44.999Z</time></trkpt><trkpt lat="45.919902372508616" lon="13.374698580135442"><ele>31.0</ele><time>2026-04-22T15:27:45.999Z</time></trkpt><trkpt lat="45.920040391650936" lon="13.374560692812928"><ele>31.0</ele><time>2026-04-22T15:27:46.999Z</time></trkpt><trkpt lat="45.92017078426556" lon="13.374429111907647"><ele>31.0</ele><time>2026-04-22T15:27:47.999Z</time></trkpt><trkpt lat="45.92029621112222" lon="13.37429799834432"><ele>31.25</ele><time>2026-04-22T15:27:48.999Z</time></trkpt><trkpt lat="45.92041993570478" lon="13.374175760595948"><ele>31.5</ele><time>2026-04-22T15:27:49.999Z</time></trkpt><trkpt lat="45.920546725631304" lon="13.374063657867723"><ele>31.75</ele><time>2026-04-22T15:27:50.999Z</time></trkpt><trkpt lat="45.92065921986414" lon="13.373968418489383"><ele>32.0</ele><time>2026-04-22T15:27:51.999Z</time></trkpt><trkpt lat="45.92075671318669" lon="13.373888181227011"><ele>32.0</ele><time>2026-04-22T15:27:52.999Z</time></trkpt><trkpt lat="45.920844721742135" lon="13.37381555872389"><ele>32.0</ele><time>2026-04-22T15:27:53.999Z</time></trkpt><trkpt lat="45.920927585789656" lon="13.37374607544237"><ele>32.0</ele><time>2026-04-22T15:27:54.999Z</time></trkpt><trkpt lat="45.921002078180365" lon="13.373680378800564"><ele>32.0</ele><time>2026-04-22T15:27:55.999Z</time></trkpt><trkpt lat="45.92106655291064" lon="13.373624230609382"><ele>32.0</ele><time>2026-04-22T15:27:56.999Z</time></trkpt><trkpt lat="45.92115658662483" lon="13.373556334143409"><ele>32.0</ele><time>2026-04-22T15:27:58.999Z</time></trkpt><trkpt lat="45.92123176736191" lon="13.373511546878765"><ele>32.0</ele><time>2026-04-22T15:28:00.999Z</time></trkpt><trkpt lat="45.92133115296702" lon="13.373482406940916"><ele>32.0</ele><time>2026-04-22T15:28:02.999Z</time></trkpt><trkpt lat="45.921470952019206" lon="13.373505728546027"><ele>32.0</ele><time>2026-04-22T15:28:04.999Z</time></trkpt><trkpt lat="45.921565193556106" lon="13.373533026658848"><ele>32.0</ele><time>2026-04-22T15:28:05.999Z</time></trkpt><trkpt lat="45.921675702801" lon="13.373551553064253"><ele>32.0</ele><time>2026-04-22T15:28:06.999Z</time></trkpt><trkpt lat="45.92177692336581" lon="13.373599897201787"><ele>32.0</ele><time>2026-04-22T15:28:07.999Z</time></trkpt><trkpt lat="45.92187384556649" lon="13.373683982084279"><ele>32.0</ele><time>2026-04-22T15:28:08.999Z</time></trkpt><trkpt lat="45.92198325094354" lon="13.373800989288538"><ele>32.0</ele><time>2026-04-22T15:28:09.999Z</time></trkpt><trkpt lat="45.922083886297344" lon="13.373961751556182"><ele>32.0</ele><time>2026-04-22T15:28:10.999Z</time></trkpt><trkpt lat="45.922206319114224" lon="13.374124968342038"><ele>32.0</ele><time>2026-04-22T15:28:11.999Z</time></trkpt><trkpt lat="45.92235962845572" lon="13.374348646183996"><ele>32.0</ele><time>2026-04-22T15:28:12.999Z</time></trkpt><trkpt lat="45.92253272427402" lon="13.374607052388596"><ele>33.0</ele><time>2026-04-22T15:28:13.999Z</time></trkpt><trkpt lat="45.92270980804805" lon="13.374871411970254"><ele>34.0</ele><time>2026-04-22T15:28:14.999Z</time></trkpt><trkpt lat="45.92289051909457" lon="13.37511078350816"><ele>34.0</ele><time>2026-04-22T15:28:15.999Z</time></trkpt><trkpt lat="45.923039582332606" lon="13.37534277366037"><ele>34.0</ele><time>2026-04-22T15:28:16.999Z</time></trkpt><trkpt lat="45.92317235963048" lon="13.375547942861113"><ele>34.0</ele><time>2026-04-22T15:28:17.999Z</time></trkpt><trkpt lat="45.923308765141364" lon="13.37575993357882"><ele>34.66666666666667</ele><time>2026-04-22T15:28:18.999Z</time></trkpt><trkpt lat="45.92344741800245" lon="13.375971766628075"><ele>35.333333333333336</ele><time>2026-04-22T15:28:19.999Z</time></trkpt><trkpt lat="45.923598954403836" lon="13.376192322751056"><ele>36.0</ele><time>2026-04-22T15:28:20.999Z</time></trkpt><trkpt lat="45.92376603669139" lon="13.376453766847709"><ele>36.0</ele><time>2026-04-22T15:28:21.999Z</time></trkpt><trkpt lat="45.923939042500656" lon="13.376740164862735"><ele>36.0</ele><time>2026-04-22T15:28:22.999Z</time></trkpt><trkpt lat="45.924116816382934" lon="13.377020088725555"><ele>34.0</ele><time>2026-04-22T15:28:23.999Z</time></trkpt><trkpt lat="45.9242941757171" lon="13.377288418006035"><ele>32.0</ele><time>2026-04-22T15:28:24.999Z</time></trkpt><trkpt lat="45.92446736463635" lon="13.377551769328635"><ele>32.0</ele><time>2026-04-22T15:28:25.999Z</time></trkpt><trkpt lat="45.92463507736162" lon="13.377811926002112"><ele>32.0</ele><time>2026-04-22T15:28:26.999Z</time></trkpt><trkpt lat="45.92480312778538" lon="13.378069449047844"><ele>32.5</ele><time>2026-04-22T15:28:27.999Z</time></trkpt><trkpt lat="45.924974444574296" lon="13.378334646272748"><ele>33.0</ele><time>2026-04-22T15:28:28.999Z</time></trkpt><trkpt lat="45.92514334817927" lon="13.378592237743762"><ele>33.0</ele><time>2026-04-22T15:28:29.999Z</time></trkpt><trkpt lat="45.92530953722217" lon="13.378839995651903"><ele>33.0</ele><time>2026-04-22T15:28:30.999Z</time></trkpt><trkpt lat="45.92548343475054" lon="13.379094568260818"><ele>34.0</ele><time>2026-04-22T15:28:31.999Z</time></trkpt><trkpt lat="45.92566168095615" lon="13.379370205228543"><ele>35.0</ele><time>2026-04-22T15:28:32.999Z</time></trkpt><trkpt lat="45.925834793863544" lon="13.379646214290094"><ele>34.5</ele><time>2026-04-22T15:28:33.999Z</time></trkpt><trkpt lat="45.926008596451936" lon="13.37991268005975"><ele>34.0</ele><time>2026-04-22T15:28:34.999Z</time></trkpt><trkpt lat="45.92618186314902" lon="13.380174594501502"><ele>34.0</ele><time>2026-04-22T15:28:35.999Z</time></trkpt><trkpt lat="45.92635398209986" lon="13.380434649262554"><ele>34.0</ele><time>2026-04-22T15:28:36.999Z</time></trkpt><trkpt lat="45.92652024814624" lon="13.380692522819913"><ele>34.333333333333336</ele><time>2026-04-22T15:28:37.999Z</time></trkpt><trkpt lat="45.92667165729151" lon="13.380933302044713"><ele>34.666666666666664</ele><time>2026-04-22T15:28:38.999Z</time></trkpt><trkpt lat="45.92680844533346" lon="13.381148169868597"><ele>35.0</ele><time>2026-04-22T15:28:39.999Z</time></trkpt><trkpt lat="45.926934194096745" lon="13.38134377081428"><ele>34.75</ele><time>2026-04-22T15:28:40.999Z</time></trkpt><trkpt lat="45.92704633354756" lon="13.381517230518703"><ele>34.5</ele><time>2026-04-22T15:28:41.999Z</time></trkpt><trkpt lat="45.92714521343689" lon="13.38166580868521"><ele>34.25</ele><time>2026-04-22T15:28:42.999Z</time></trkpt><trkpt lat="45.9272324620469" lon="13.381802400102902"><ele>34.0</ele><time>2026-04-22T15:28:43.999Z</time></trkpt><trkpt lat="45.92731594045919" lon="13.38193298253429"><ele>34.0</ele><time>2026-04-22T15:28:44.999Z</time></trkpt><trkpt lat="45.92740200683611" lon="13.38207210071519"><ele>34.0</ele><time>2026-04-22T15:28:45.999Z</time></trkpt><trkpt lat="45.9274875902785" lon="13.38221314201339"><ele>34.0</ele><time>2026-04-22T15:28:46.999Z</time></trkpt><trkpt lat="45.92756521552538" lon="13.382339089135845"><ele>34.0</ele><time>2026-04-22T15:28:47.999Z</time></trkpt><trkpt lat="45.9276336529555" lon="13.382455774471445"><ele>34.16666666666667</ele><time>2026-04-22T15:28:48.999Z</time></trkpt><trkpt lat="45.927698261774786" lon="13.382563901716951"><ele>34.333333333333336</ele><time>2026-04-22T15:28:49.999Z</time></trkpt><trkpt lat="45.92774628712418" lon="13.382646715176705"><ele>34.5</ele><time>2026-04-22T15:28:50.999Z</time></trkpt><trkpt lat="45.927814846906436" lon="13.382796739926896"><ele>34.666666666666664</ele><time>2026-04-22T15:28:53Z</time></trkpt><trkpt lat="45.927844252428514" lon="13.382890314352636"><ele>34.83333333333333</ele><time>2026-04-22T15:28:54Z</time></trkpt><trkpt lat="45.9278574979912" lon="13.382989281818274"><ele>35.0</ele><time>2026-04-22T15:28:55Z</time></trkpt><trkpt lat="45.92786096882127" lon="13.38310799920637"><ele>35.25</ele><time>2026-04-22T15:28:56Z</time></trkpt><trkpt lat="45.927878165588496" lon="13.383244965665824"><ele>35.5</ele><time>2026-04-22T15:28:57Z</time></trkpt><trkpt lat="45.92794851001646" lon="13.383385383952657"><ele>35.75</ele><time>2026-04-22T15:28:58Z</time></trkpt><trkpt lat="45.92806675722713" lon="13.383511324789488"><ele>36.0</ele><time>2026-04-22T15:28:59Z</time></trkpt><trkpt lat="45.92818834647817" lon="13.383636630087357"><ele>36.0</ele><time>2026-04-22T15:29:00Z</time></trkpt><trkpt lat="45.92827677353047" lon="13.383755658851275"><ele>36.0</ele><time>2026-04-22T15:29:01Z</time></trkpt><trkpt lat="45.928356736581236" lon="13.383877396600079"><ele>36.0</ele><time>2026-04-22T15:29:02Z</time></trkpt><trkpt lat="45.9284520701047" lon="13.384023098417474"><ele>36.0</ele><time>2026-04-22T15:29:03Z</time></trkpt><trkpt lat="45.928554543036775" lon="13.384178963665255"><ele>36.0</ele><time>2026-04-22T15:29:04Z</time></trkpt><trkpt lat="45.92865255571677" lon="13.384384024932798"><ele>36.0</ele><time>2026-04-22T15:29:05Z</time></trkpt><trkpt lat="45.928762863259294" lon="13.384595594045354"><ele>36.0</ele><time>2026-04-22T15:29:06Z</time></trkpt><trkpt lat="45.92888772336355" lon="13.38482071587467"><ele>36.0</ele><time>2026-04-22T15:29:07Z</time></trkpt><trkpt lat="45.929003166618195" lon="13.385063862574619"><ele>36.0</ele><time>2026-04-22T15:29:08Z</time></trkpt><trkpt lat="45.929119520454186" lon="13.385302504345436"><ele>36.0</ele><time>2026-04-22T15:29:09Z</time></trkpt><trkpt lat="45.92923400671934" lon="13.385535149714979"><ele>36.333333333333336</ele><time>2026-04-22T15:29:10Z</time></trkpt><trkpt lat="45.92934760147927" lon="13.385763514548438"><ele>36.66666666666667</ele><time>2026-04-22T15:29:11Z</time></trkpt><trkpt lat="45.92945938086507" lon="13.385993059108046"><ele>37.0</ele><time>2026-04-22T15:29:12Z</time></trkpt><trkpt lat="45.92957197959916" lon="13.38621920523805"><ele>36.333333333333336</ele><time>2026-04-22T15:29:13Z</time></trkpt><trkpt lat="45.929684169357635" lon="13.386443346637781"><ele>35.666666666666664</ele><time>2026-04-22T15:29:14Z</time></trkpt><trkpt lat="45.92979578315413" lon="13.386666195311324"><ele>35.0</ele><time>2026-04-22T15:29:15Z</time></trkpt><trkpt lat="45.9299083148594" lon="13.386886030000678"><ele>35.0</ele><time>2026-04-22T15:29:16Z</time></trkpt><trkpt lat="45.930018070803584" lon="13.38710695851356"><ele>35.0</ele><time>2026-04-22T15:29:17Z</time></trkpt><trkpt lat="45.93012854732476" lon="13.387328664354648"><ele>35.0</ele><time>2026-04-22T15:29:18Z</time></trkpt><trkpt lat="45.93023908492563" lon="13.387550152804675"><ele>35.33333333333333</ele><time>2026-04-22T15:29:19Z</time></trkpt><trkpt lat="45.93035149520567" lon="13.387772721608002"><ele>35.666666666666664</ele><time>2026-04-22T15:29:20Z</time></trkpt><trkpt lat="45.930472983781776" lon="13.38798566761455"><ele>36.0</ele><time>2026-04-22T15:29:21Z</time></trkpt><trkpt lat="45.93061097138983" lon="13.388177677328594"><ele>36.333333333333336</ele><time>2026-04-22T15:29:22Z</time></trkpt><trkpt lat="45.93076796486306" lon="13.38834411602216"><ele>36.66666666666667</ele><time>2026-04-22T15:29:23Z</time></trkpt><trkpt lat="45.93094104563994" lon="13.38848308576073"><ele>37.0</ele><time>2026-04-22T15:29:24Z</time></trkpt><trkpt lat="45.93112714699271" lon="13.388596122819008"><ele>37.0</ele><time>2026-04-22T15:29:25Z</time></trkpt><trkpt lat="45.931318909593024" lon="13.388702969290172"><ele>37.0</ele><time>2026-04-22T15:29:25.999Z</time></trkpt><trkpt lat="45.931511384176744" lon="13.388816100419204"><ele>37.0</ele><time>2026-04-22T15:29:26.999Z</time></trkpt><trkpt lat="45.93170467126335" lon="13.388932605864902"><ele>37.0</ele><time>2026-04-22T15:29:27.999Z</time></trkpt><trkpt lat="45.93190176570316" lon="13.389047676916451"><ele>37.0</ele><time>2026-04-22T15:29:28.999Z</time></trkpt><trkpt lat="45.93210574011389" lon="13.389166813799326"><ele>37.0</ele><time>2026-04-22T15:29:29.999Z</time></trkpt><trkpt lat="45.93231271847311" lon="13.389292523063686"><ele>37.0</ele><time>2026-04-22T15:29:30.999Z</time></trkpt><trkpt lat="45.93252376129912" lon="13.38941734635082"><ele>37.0</ele><time>2026-04-22T15:29:31.999Z</time></trkpt><trkpt lat="45.9327342253772" lon="13.38953921273146"><ele>37.0</ele><time>2026-04-22T15:29:32.999Z</time></trkpt><trkpt lat="45.93294466865103" lon="13.389657853513926"><ele>37.0</ele><time>2026-04-22T15:29:33.999Z</time></trkpt><trkpt lat="45.933155030148576" lon="13.389761512547722"><ele>37.0</ele><time>2026-04-22T15:29:34.999Z</time></trkpt><trkpt lat="45.93337169331455" lon="13.389847118570689"><ele>36.5</ele><time>2026-04-22T15:29:35.999Z</time></trkpt><trkpt lat="45.93359189069214" lon="13.389919603890315"><ele>36.0</ele><time>2026-04-22T15:29:36.999Z</time></trkpt><trkpt lat="45.93381478818141" lon="13.389981844272997"><ele>36.0</ele><time>2026-04-22T15:29:37.999Z</time></trkpt><trkpt lat="45.93403880680268" lon="13.390038852534506"><ele>36.0</ele><time>2026-04-22T15:29:38.999Z</time></trkpt><trkpt lat="45.934265666230964" lon="13.39009876523917"><ele>37.0</ele><time>2026-04-22T15:29:39.999Z</time></trkpt><trkpt lat="45.93449322630423" lon="13.390157953929645"><ele>38.0</ele><time>2026-04-22T15:29:40.999Z</time></trkpt><trkpt lat="45.93472136929944" lon="13.39021778550057"><ele>38.0</ele><time>2026-04-22T15:29:41.999Z</time></trkpt><trkpt lat="45.93494949639434" lon="13.39027832069407"><ele>38.0</ele><time>2026-04-22T15:29:42.999Z</time></trkpt><trkpt lat="45.93517570520815" lon="13.390336127135107"><ele>38.5</ele><time>2026-04-22T15:29:43.999Z</time></trkpt><trkpt lat="45.93540285943662" lon="13.390394725595161"><ele>39.0</ele><time>2026-04-22T15:29:44.999Z</time></trkpt><trkpt lat="45.93562914187211" lon="13.39045158930387"><ele>38.5</ele><time>2026-04-22T15:29:45.999Z</time></trkpt><trkpt lat="45.93585316635897" lon="13.390508349361388"><ele>38.0</ele><time>2026-04-22T15:29:46.999Z</time></trkpt><trkpt lat="45.93607508286306" lon="13.390563561406891"><ele>38.33333333333333</ele><time>2026-04-22T15:29:47.999Z</time></trkpt><trkpt lat="45.93629402138548" lon="13.390619944066298"><ele>38.666666666666664</ele><time>2026-04-22T15:29:48.999Z</time></trkpt><trkpt lat="45.93651112994044" lon="13.390674970560157"><ele>39.0</ele><time>2026-04-22T15:29:49.999Z</time></trkpt><trkpt lat="45.93672968771661" lon="13.3907306536509"><ele>39.0</ele><time>2026-04-22T15:29:50.999Z</time></trkpt><trkpt lat="45.93694847656073" lon="13.390786880342088"><ele>39.0</ele><time>2026-04-22T15:29:51.999Z</time></trkpt><trkpt lat="45.937167510637906" lon="13.39083918606983"><ele>39.0</ele><time>2026-04-22T15:29:52.999Z</time></trkpt><trkpt lat="45.93738335776526" lon="13.390894483463418"><ele>40.0</ele><time>2026-04-22T15:29:53.999Z</time></trkpt><trkpt lat="45.937600626203704" lon="13.390948153818652"><ele>41.0</ele><time>2026-04-22T15:29:54.999Z</time></trkpt><trkpt lat="45.93781801859423" lon="13.391003071413703"><ele>42.0</ele><time>2026-04-22T15:29:55.999Z</time></trkpt><trkpt lat="45.938035498758914" lon="13.391059142945299"><ele>42.0</ele><time>2026-04-22T15:29:56.999Z</time></trkpt><trkpt lat="45.93825298896089" lon="13.391114877550336"><ele>42.0</ele><time>2026-04-22T15:29:57.999Z</time></trkpt><trkpt lat="45.938468226445856" lon="13.391169024045825"><ele>42.0</ele><time>2026-04-22T15:29:58.999Z</time></trkpt><trkpt lat="45.938682720248714" lon="13.391224229222734"><ele>41.666666666666664</ele><time>2026-04-22T15:29:59.999Z</time></trkpt><trkpt lat="45.93889842813965" lon="13.391277187376321"><ele>41.33333333333333</ele><time>2026-04-22T15:30:00.999Z</time></trkpt><trkpt lat="45.93911179585507" lon="13.391331365060706"><ele>41.0</ele><time>2026-04-22T15:30:01.999Z</time></trkpt><trkpt lat="45.93932400296259" lon="13.391383756125329"><ele>41.0</ele><time>2026-04-22T15:30:02.999Z</time></trkpt><trkpt lat="45.93952317800133" lon="13.391432373331558"><ele>41.0</ele><time>2026-04-22T15:30:03.999Z</time></trkpt><trkpt lat="45.9397053641272" lon="13.391478495873793"><ele>41.0</ele><time>2026-04-22T15:30:04.999Z</time></trkpt><trkpt lat="45.939880012370516" lon="13.391526172007444"><ele>41.33333333333333</ele><time>2026-04-22T15:30:05.999Z</time></trkpt><trkpt lat="45.940056751082835" lon="13.39157880583842"><ele>41.666666666666664</ele><time>2026-04-22T15:30:06.999Z</time></trkpt><trkpt lat="45.94023408561731" lon="13.391633642834256"><ele>42.0</ele><time>2026-04-22T15:30:07.999Z</time></trkpt><trkpt lat="45.940410615659594" lon="13.391691489949261"><ele>42.0</ele><time>2026-04-22T15:30:08.999Z</time></trkpt><trkpt lat="45.94058417929408" lon="13.39176206561584"><ele>42.0</ele><time>2026-04-22T15:30:09.999Z</time></trkpt><trkpt lat="45.94075589295923" lon="13.39184453365808"><ele>42.0</ele><time>2026-04-22T15:30:10.999Z</time></trkpt><trkpt lat="45.94093009072189" lon="13.391929339260955"><ele>42.333333333333336</ele><time>2026-04-22T15:30:11.999Z</time></trkpt><trkpt lat="45.94110933836896" lon="13.392019197687631"><ele>42.66666666666667</ele><time>2026-04-22T15:30:12.999Z</time></trkpt><trkpt lat="45.94128917683924" lon="13.392116599544508"><ele>43.0</ele><time>2026-04-22T15:30:13.999Z</time></trkpt><trkpt lat="45.94146780043113" lon="13.39221893998985"><ele>43.333333333333336</ele><time>2026-04-22T15:30:14.999Z</time></trkpt><trkpt lat="45.94164425735017" lon="13.392319962453985"><ele>43.666666666666664</ele><time>2026-04-22T15:30:15.999Z</time></trkpt><trkpt lat="45.94182102824029" lon="13.392418855062807"><ele>44.0</ele><time>2026-04-22T15:30:16.999Z</time></trkpt><trkpt lat="45.941994798922174" lon="13.392518525323096"><ele>44.33333333333333</ele><time>2026-04-22T15:30:17.999Z</time></trkpt><trkpt lat="45.94216571240082" lon="13.392616871516713"><ele>44.666666666666664</ele><time>2026-04-22T15:30:18.999Z</time></trkpt><trkpt lat="45.94233886647992" lon="13.392713487696643"><ele>45.0</ele><time>2026-04-22T15:30:19.999Z</time></trkpt><trkpt lat="45.94251118573632" lon="13.39281002779803"><ele>45.0</ele><time>2026-04-22T15:30:20.999Z</time></trkpt><trkpt lat="45.94268215481324" lon="13.392905303485252"><ele>45.0</ele><time>2026-04-22T15:30:21.999Z</time></trkpt><trkpt lat="45.942850008139956" lon="13.393004566414215"><ele>45.0</ele><time>2026-04-22T15:30:22.999Z</time></trkpt><trkpt lat="45.94301529298595" lon="13.393104135340328"><ele>44.666666666666664</ele><time>2026-04-22T15:30:23.999Z</time></trkpt><trkpt lat="45.94317953269422" lon="13.39320133451931"><ele>44.33333333333333</ele><time>2026-04-22T15:30:24.999Z</time></trkpt><trkpt lat="45.94334348738148" lon="13.393294362370222"><ele>44.0</ele><time>2026-04-22T15:30:25.999Z</time></trkpt><trkpt lat="45.943510656705804" lon="13.393387192694965"><ele>44.0</ele><time>2026-04-22T15:30:26.999Z</time></trkpt><trkpt lat="45.94367839501314" lon="13.393483152962967"><ele>44.0</ele><time>2026-04-22T15:30:27.999Z</time></trkpt><trkpt lat="45.943844134222694" lon="13.393576714521203"><ele>44.0</ele><time>2026-04-22T15:30:28.999Z</time></trkpt><trkpt lat="45.944004183953176" lon="13.393668437521907"><ele>44.0</ele><time>2026-04-22T15:30:29.999Z</time></trkpt><trkpt lat="45.94416060592973" lon="13.393762846324375"><ele>44.0</ele><time>2026-04-22T15:30:30.999Z</time></trkpt><trkpt lat="45.94431550454229" lon="13.393854516839014"><ele>44.0</ele><time>2026-04-22T15:30:31.999Z</time></trkpt><trkpt lat="45.94446818597042" lon="13.393941032950504"><ele>44.0</ele><time>2026-04-22T15:30:32.999Z</time></trkpt><trkpt lat="45.94461872920848" lon="13.394027696524843"><ele>44.0</ele><time>2026-04-22T15:30:33.999Z</time></trkpt><trkpt lat="45.944770295321035" lon="13.39411045557987"><ele>44.0</ele><time>2026-04-22T15:30:34.999Z</time></trkpt><trkpt lat="45.944925540440664" lon="13.39419158570088"><ele>44.666666666666664</ele><time>2026-04-22T15:30:35.999Z</time></trkpt><trkpt lat="45.94508222537161" lon="13.394275946814863"><ele>45.333333333333336</ele><time>2026-04-22T15:30:36.999Z</time></trkpt><trkpt lat="45.945241820744826" lon="13.394362936440169"><ele>46.0</ele><time>2026-04-22T15:30:37.999Z</time></trkpt><trkpt lat="45.94540322915622" lon="13.394447867348564"><ele>46.0</ele><time>2026-04-22T15:30:38.999Z</time></trkpt><trkpt lat="45.945567373818776" lon="13.394520803985891"><ele>46.0</ele><time>2026-04-22T15:30:39.999Z</time></trkpt><trkpt lat="45.94573861878953" lon="13.39457618795125"><ele>46.0</ele><time>2026-04-22T15:30:40.999Z</time></trkpt><trkpt lat="45.94591388715513" lon="13.394618896831693"><ele>46.0</ele><time>2026-04-22T15:30:41.999Z</time></trkpt><trkpt lat="45.94609241598022" lon="13.394648317840314"><ele>46.0</ele><time>2026-04-22T15:30:42.999Z</time></trkpt><trkpt lat="45.94627666751796" lon="13.394676445333713"><ele>46.0</ele><time>2026-04-22T15:30:43.999Z</time></trkpt><trkpt lat="45.94646475932884" lon="13.39470518641452"><ele>46.0</ele><time>2026-04-22T15:30:44.999Z</time></trkpt><trkpt lat="45.94665291004852" lon="13.394735575316501"><ele>46.0</ele><time>2026-04-22T15:30:45.999Z</time></trkpt><trkpt lat="45.94683919550551" lon="13.394765368954376"><ele>46.0</ele><time>2026-04-22T15:30:46.999Z</time></trkpt><trkpt lat="45.94702506625609" lon="13.394795738660967"><ele>46.0</ele><time>2026-04-22T15:30:47.999Z</time></trkpt><trkpt lat="45.94721000246064" lon="13.394829338943033"><ele>46.0</ele><time>2026-04-22T15:30:48.999Z</time></trkpt><trkpt lat="45.94739079499696" lon="13.394860568278395"><ele>46.0</ele><time>2026-04-22T15:30:49.999Z</time></trkpt><trkpt lat="45.947569258678264" lon="13.394887907961131"><ele>46.0</ele><time>2026-04-22T15:30:50.999Z</time></trkpt><trkpt lat="45.94774386121808" lon="13.394914885974954"><ele>46.0</ele><time>2026-04-22T15:30:51.999Z</time></trkpt><trkpt lat="45.94791798986087" lon="13.394940251813013"><ele>46.0</ele><time>2026-04-22T15:30:52.999Z</time></trkpt><trkpt lat="45.948095546552096" lon="13.394960808317675"><ele>46.0</ele><time>2026-04-22T15:30:53.999Z</time></trkpt><trkpt lat="45.948275127678066" lon="13.394971721554448"><ele>46.0</ele><time>2026-04-22T15:30:54.999Z</time></trkpt><trkpt lat="45.94845633205292" lon="13.394965909800186"><ele>46.0</ele><time>2026-04-22T15:30:55.999Z</time></trkpt><trkpt lat="45.94863596579101" lon="13.394949517188273"><ele>45.66666666666667</ele><time>2026-04-22T15:30:56.999Z</time></trkpt><trkpt lat="45.948815351344436" lon="13.39492447348477"><ele>45.333333333333336</ele><time>2026-04-22T15:30:57.999Z</time></trkpt><trkpt lat="45.94899412031749" lon="13.394894606405625"><ele>45.0</ele><time>2026-04-22T15:30:59Z</time></trkpt><trkpt lat="45.949173488041765" lon="13.394861886073468"><ele>45.333333333333336</ele><time>2026-04-22T15:31:00Z</time></trkpt><trkpt lat="45.94935447474802" lon="13.39483022021575"><ele>45.66666666666667</ele><time>2026-04-22T15:31:01Z</time></trkpt><trkpt lat="45.949533929054965" lon="13.394799553250147"><ele>46.0</ele><time>2026-04-22T15:31:02Z</time></trkpt><trkpt lat="45.94971261867959" lon="13.394767677701942"><ele>46.0</ele><time>2026-04-22T15:31:03Z</time></trkpt><trkpt lat="45.949893708648794" lon="13.394739143440376"><ele>46.0</ele><time>2026-04-22T15:31:04Z</time></trkpt><trkpt lat="45.95007275304865" lon="13.39470770466111"><ele>46.0</ele><time>2026-04-22T15:31:05Z</time></trkpt><trkpt lat="45.95025086568033" lon="13.394675843382194"><ele>46.0</ele><time>2026-04-22T15:31:06Z</time></trkpt><trkpt lat="45.950427733850034" lon="13.39464471815258"><ele>46.0</ele><time>2026-04-22T15:31:07Z</time></trkpt><trkpt lat="45.950605162312684" lon="13.394612815144155"><ele>46.0</ele><time>2026-04-22T15:31:08Z</time></trkpt><trkpt lat="45.950783621124714" lon="13.394577924029957"><ele>46.333333333333336</ele><time>2026-04-22T15:31:09Z</time></trkpt><trkpt lat="45.95096450825827" lon="13.394543758798346"><ele>46.666666666666664</ele><time>2026-04-22T15:31:10Z</time></trkpt><trkpt lat="45.951149357915725" lon="13.394510117535248"><ele>47.0</ele><time>2026-04-22T15:31:11Z</time></trkpt><trkpt lat="45.95133700621366" lon="13.394477358216461"><ele>47.0</ele><time>2026-04-22T15:31:12Z</time></trkpt><trkpt lat="45.95152822872924" lon="13.394444644270589"><ele>47.0</ele><time>2026-04-22T15:31:13Z</time></trkpt><trkpt lat="45.9517237095483" lon="13.394410753592837"><ele>47.0</ele><time>2026-04-22T15:31:14Z</time></trkpt><trkpt lat="45.95192038144127" lon="13.39437668096968"><ele>47.666666666666664</ele><time>2026-04-22T15:31:15Z</time></trkpt><trkpt lat="45.95211283954476" lon="13.394343433589583"><ele>48.33333333333333</ele><time>2026-04-22T15:31:16Z</time></trkpt><trkpt lat="45.95229705699819" lon="13.394312755443615"><ele>49.0</ele><time>2026-04-22T15:31:17Z</time></trkpt><trkpt lat="45.95247394766939" lon="13.39428869661852"><ele>47.666666666666664</ele><time>2026-04-22T15:31:18Z</time></trkpt><trkpt lat="45.95264984991613" lon="13.394276475623265"><ele>46.33333333333333</ele><time>2026-04-22T15:31:19Z</time></trkpt><trkpt lat="45.95282465863251" lon="13.394279835197036"><ele>45.0</ele><time>2026-04-22T15:31:20Z</time></trkpt><trkpt lat="45.95299585208359" lon="13.394303428723386"><ele>45.0</ele><time>2026-04-22T15:31:21Z</time></trkpt><trkpt lat="45.95316608258287" lon="13.394349694023617"><ele>45.0</ele><time>2026-04-22T15:31:22Z</time></trkpt><trkpt lat="45.953340265948626" lon="13.394398831314614"><ele>45.0</ele><time>2026-04-22T15:31:23Z</time></trkpt><trkpt lat="45.95351510792171" lon="13.394452782341384"><ele>46.33333333333333</ele><time>2026-04-22T15:31:24Z</time></trkpt><trkpt lat="45.95369032428929" lon="13.394514354270433"><ele>47.666666666666664</ele><time>2026-04-22T15:31:25Z</time></trkpt><trkpt lat="45.95386485617378" lon="13.394574917617852"><ele>49.0</ele><time>2026-04-22T15:31:26Z</time></trkpt><trkpt lat="45.954039268250725" lon="13.394632997705138"><ele>49.0</ele><time>2026-04-22T15:31:27Z</time></trkpt><trkpt lat="45.95420886406364" lon="13.394687297388518"><ele>49.0</ele><time>2026-04-22T15:31:28Z</time></trkpt><trkpt lat="45.95437443242481" lon="13.394743330543728"><ele>49.0</ele><time>2026-04-22T15:31:28.999Z</time></trkpt><trkpt lat="45.954531198209004" lon="13.394798247559546"><ele>49.0</ele><time>2026-04-22T15:31:29.999Z</time></trkpt><trkpt lat="45.95468431184112" lon="13.394868520534722"><ele>49.0</ele><time>2026-04-22T15:31:30.999Z</time></trkpt><trkpt lat="45.954839797852024" lon="13.394937647450918"><ele>49.0</ele><time>2026-04-22T15:31:31.999Z</time></trkpt><trkpt lat="45.955002261469254" lon="13.394984781651"><ele>49.666666666666664</ele><time>2026-04-22T15:31:32.999Z</time></trkpt><trkpt lat="45.955171643275015" lon="13.395036579302507"><ele>50.33333333333333</ele><time>2026-04-22T15:31:33.999Z</time></trkpt><trkpt lat="45.955348437058866" lon="13.395092158432961"><ele>51.0</ele><time>2026-04-22T15:31:34.999Z</time></trkpt><trkpt lat="45.95552497719001" lon="13.395154408623636"><ele>51.0</ele><time>2026-04-22T15:31:35.999Z</time></trkpt><trkpt lat="45.95569873899773" lon="13.395214331252772"><ele>51.0</ele><time>2026-04-22T15:31:36.999Z</time></trkpt><trkpt lat="45.955870442127434" lon="13.395269440455671"><ele>51.0</ele><time>2026-04-22T15:31:37.999Z</time></trkpt><trkpt lat="45.95604035350778" lon="13.39532368219223"><ele>50.33333333333333</ele><time>2026-04-22T15:31:38.999Z</time></trkpt><trkpt lat="45.95620864796033" lon="13.39537291561919"><ele>49.666666666666664</ele><time>2026-04-22T15:31:39.999Z</time></trkpt><trkpt lat="45.95637630504987" lon="13.395416857528502"><ele>49.0</ele><time>2026-04-22T15:31:40.999Z</time></trkpt><trkpt lat="45.9565449599458" lon="13.395464125120293"><ele>49.666666666666664</ele><time>2026-04-22T15:31:41.999Z</time></trkpt><trkpt lat="45.95671210919861" lon="13.395514814558254"><ele>50.33333333333333</ele><time>2026-04-22T15:31:42.999Z</time></trkpt><trkpt lat="45.95687840298564" lon="13.395566840571647"><ele>51.0</ele><time>2026-04-22T15:31:43.999Z</time></trkpt><trkpt lat="45.9570459896514" lon="13.395623874438089"><ele>51.0</ele><time>2026-04-22T15:31:44.999Z</time></trkpt><trkpt lat="45.957214857698794" lon="13.395679450927744"><ele>51.0</ele><time>2026-04-22T15:31:45.999Z</time></trkpt><trkpt lat="45.957383542256025" lon="13.395737817568074"><ele>51.0</ele><time>2026-04-22T15:31:46.999Z</time></trkpt><trkpt lat="45.95755268726561" lon="13.39579412641079"><ele>51.66666666666667</ele><time>2026-04-22T15:31:47.999Z</time></trkpt><trkpt lat="45.95772232527342" lon="13.395845793739818"><ele>52.333333333333336</ele><time>2026-04-22T15:31:48.999Z</time></trkpt><trkpt lat="45.95789231676597" lon="13.39590050697139"><ele>53.0</ele><time>2026-04-22T15:31:49.999Z</time></trkpt><trkpt lat="45.95807223651592" lon="13.395956516041228"><ele>53.0</ele><time>2026-04-22T15:31:50.999Z</time></trkpt><trkpt lat="45.95826528483936" lon="13.396014704440125"><ele>53.0</ele><time>2026-04-22T15:31:51.999Z</time></trkpt><trkpt lat="45.9584660209588" lon="13.396079619625601"><ele>53.0</ele><time>2026-04-22T15:31:52.999Z</time></trkpt><trkpt lat="45.958677983529995" lon="13.396138117670242"><ele>52.0</ele><time>2026-04-22T15:31:53.999Z</time></trkpt><trkpt lat="45.95889621949862" lon="13.396232287164857"><ele>51.0</ele><time>2026-04-22T15:31:54.999Z</time></trkpt><trkpt lat="45.95912591193678" lon="13.396306242229068"><ele>49.5</ele><time>2026-04-22T15:31:55.999Z</time></trkpt><trkpt lat="45.95936071837049" lon="13.396376968005404"><ele>48.0</ele><time>2026-04-22T15:31:56.999Z</time></trkpt><trkpt lat="45.95960200370352" lon="13.396446627682527"><ele>48.0</ele><time>2026-04-22T15:31:57.999Z</time></trkpt><trkpt lat="45.95984622724777" lon="13.396512746315585"><ele>48.0</ele><time>2026-04-22T15:31:58.999Z</time></trkpt><trkpt lat="45.960088903238116" lon="13.396577783271526"><ele>49.0</ele><time>2026-04-22T15:31:59.999Z</time></trkpt><trkpt lat="45.96033636703379" lon="13.39662066282022"><ele>50.0</ele><time>2026-04-22T15:32:00.999Z</time></trkpt><trkpt lat="45.96057805959046" lon="13.396701948979862"><ele>50.0</ele><time>2026-04-22T15:32:01.999Z</time></trkpt><trkpt lat="45.9608218689671" lon="13.396776718995206"><ele>50.0</ele><time>2026-04-22T15:32:02.999Z</time></trkpt><trkpt lat="45.96106766300711" lon="13.39684234024577"><ele>51.5</ele><time>2026-04-22T15:32:03.999Z</time></trkpt><trkpt lat="45.961314345972504" lon="13.396907846517916"><ele>53.0</ele><time>2026-04-22T15:32:04.999Z</time></trkpt><trkpt lat="45.96156062313927" lon="13.396974153435561"><ele>53.5</ele><time>2026-04-22T15:32:05.999Z</time></trkpt><trkpt lat="45.96180535382951" lon="13.397041314812473"><ele>54.0</ele><time>2026-04-22T15:32:06.999Z</time></trkpt><trkpt lat="45.96204933880544" lon="13.397108375452847"><ele>54.5</ele><time>2026-04-22T15:32:07.999Z</time></trkpt><trkpt lat="45.96229088374508" lon="13.397176340650727"><ele>55.0</ele><time>2026-04-22T15:32:08.999Z</time></trkpt><trkpt lat="45.96252962080185" lon="13.397243009417972"><ele>54.5</ele><time>2026-04-22T15:32:09.999Z</time></trkpt><trkpt lat="45.962764390400814" lon="13.397312646175685"><ele>54.0</ele><time>2026-04-22T15:32:10.999Z</time></trkpt><trkpt lat="45.962994960497525" lon="13.397388597796995"><ele>54.0</ele><time>2026-04-22T15:32:11.999Z</time></trkpt><trkpt lat="45.9632213758554" lon="13.397474126639175"><ele>54.0</ele><time>2026-04-22T15:32:12.999Z</time></trkpt><trkpt lat="45.96344438157928" lon="13.397569387915118"><ele>54.5</ele><time>2026-04-22T15:32:13.999Z</time></trkpt><trkpt lat="45.96366358337943" lon="13.397672791925286"><ele>55.0</ele><time>2026-04-22T15:32:14.999Z</time></trkpt><trkpt lat="45.963878906396964" lon="13.397774211954431"><ele>55.0</ele><time>2026-04-22T15:32:15.999Z</time></trkpt><trkpt lat="45.96408948043905" lon="13.397867340334429"><ele>55.0</ele><time>2026-04-22T15:32:16.999Z</time></trkpt><trkpt lat="45.96429274530809" lon="13.397962008266898"><ele>55.0</ele><time>2026-04-22T15:32:17.999Z</time></trkpt><trkpt lat="45.964491459421076" lon="13.39805156725866"><ele>55.0</ele><time>2026-04-22T15:32:18.999Z</time></trkpt><trkpt lat="45.9646857886192" lon="13.398135128694292"><ele>55.0</ele><time>2026-04-22T15:32:19.999Z</time></trkpt><trkpt lat="45.96487813509927" lon="13.398209742949522"><ele>55.0</ele><time>2026-04-22T15:32:20.999Z</time></trkpt><trkpt lat="45.96506954884413" lon="13.398270185270496"><ele>55.33333333333333</ele><time>2026-04-22T15:32:21.999Z</time></trkpt><trkpt lat="45.96526121593889" lon="13.398316705963332"><ele>55.66666666666667</ele><time>2026-04-22T15:32:22.999Z</time></trkpt><trkpt lat="45.965451898448144" lon="13.398350816365799"><ele>56.0</ele><time>2026-04-22T15:32:23.999Z</time></trkpt><trkpt lat="45.965643514161435" lon="13.39837525088427"><ele>56.0</ele><time>2026-04-22T15:32:24.999Z</time></trkpt><trkpt lat="45.96583925747195" lon="13.398396273630157"><ele>56.0</ele><time>2026-04-22T15:32:25.999Z</time></trkpt><trkpt lat="45.96603226630067" lon="13.39841473467096"><ele>56.0</ele><time>2026-04-22T15:32:26.999Z</time></trkpt><trkpt lat="45.96622623667184" lon="13.398437085482216"><ele>55.66666666666667</ele><time>2026-04-22T15:32:27.999Z</time></trkpt><trkpt lat="45.966417341077936" lon="13.398459811272451"><ele>55.33333333333333</ele><time>2026-04-22T15:32:28.999Z</time></trkpt><trkpt lat="45.96660893482876" lon="13.398483632830322"><ele>55.0</ele><time>2026-04-22T15:32:29.999Z</time></trkpt><trkpt lat="45.966799150334616" lon="13.398499401144209"><ele>55.666666666666664</ele><time>2026-04-22T15:32:30.999Z</time></trkpt><trkpt lat="45.96698675790412" lon="13.39850515502008"><ele>56.33333333333333</ele><time>2026-04-22T15:32:31.999Z</time></trkpt><trkpt lat="45.96717361561323" lon="13.398491183376198"><ele>57.0</ele><time>2026-04-22T15:32:32.999Z</time></trkpt><trkpt lat="45.96735408580122" lon="13.39846434008462"><ele>57.33333333333333</ele><time>2026-04-22T15:32:33.999Z</time></trkpt><trkpt lat="45.96753113318248" lon="13.398428382250748"><ele>57.666666666666664</ele><time>2026-04-22T15:32:34.999Z</time></trkpt><trkpt lat="45.96770304933964" lon="13.3983860125672"><ele>58.0</ele><time>2026-04-22T15:32:35.999Z</time></trkpt><trkpt lat="45.96787337441194" lon="13.39834184735202"><ele>58.0</ele><time>2026-04-22T15:32:36.999Z</time></trkpt><trkpt lat="45.968040822918596" lon="13.398299568122091"><ele>58.0</ele><time>2026-04-22T15:32:37.999Z</time></trkpt><trkpt lat="45.96820657386168" lon="13.398257372902913"><ele>58.0</ele><time>2026-04-22T15:32:38.999Z</time></trkpt><trkpt lat="45.96837321463509" lon="13.398223320359271"><ele>58.0</ele><time>2026-04-22T15:32:39.999Z</time></trkpt><trkpt lat="45.96853780410676" lon="13.398183839138186"><ele>58.0</ele><time>2026-04-22T15:32:40.999Z</time></trkpt><trkpt lat="45.96870233448659" lon="13.398143351984476"><ele>58.0</ele><time>2026-04-22T15:32:41.999Z</time></trkpt><trkpt lat="45.968862127301456" lon="13.398105880570933"><ele>58.0</ele><time>2026-04-22T15:32:42.999Z</time></trkpt><trkpt lat="45.96902130279495" lon="13.3980673399122"><ele>58.0</ele><time>2026-04-22T15:32:43.999Z</time></trkpt><trkpt lat="45.96917861968995" lon="13.398031240335344"><ele>58.0</ele><time>2026-04-22T15:32:44.999Z</time></trkpt><trkpt lat="45.96932278303725" lon="13.397998959376059"><ele>58.4</ele><time>2026-04-22T15:32:45.999Z</time></trkpt><trkpt lat="45.96945093749211" lon="13.397963247764899"><ele>58.8</ele><time>2026-04-22T15:32:46.999Z</time></trkpt><trkpt lat="45.969559661552886" lon="13.39793423014922"><ele>59.2</ele><time>2026-04-22T15:32:47.999Z</time></trkpt><trkpt lat="45.96964087386882" lon="13.397910899019452"><ele>59.6</ele><time>2026-04-22T15:32:48.999Z</time></trkpt><trkpt lat="45.9697085324622" lon="13.397889888470365"><ele>60.0</ele><time>2026-04-22T15:32:49.999Z</time></trkpt><trkpt lat="45.96980151796893" lon="13.397855588306983"><ele>60.0</ele><time>2026-04-22T15:32:51.999Z</time></trkpt><trkpt lat="45.96993971420367" lon="13.397832002995424"><ele>60.0</ele><time>2026-04-22T15:32:53.999Z</time></trkpt><trkpt lat="45.97003862197384" lon="13.397825079922237"><ele>60.0</ele><time>2026-04-22T15:32:54.999Z</time></trkpt><trkpt lat="45.970162643209584" lon="13.397803650691571"><ele>60.0</ele><time>2026-04-22T15:32:55.999Z</time></trkpt><trkpt lat="45.970319120997075" lon="13.397788563945367"><ele>60.0</ele><time>2026-04-22T15:32:56.999Z</time></trkpt><trkpt lat="45.970500401200425" lon="13.397777390335431"><ele>60.0</ele><time>2026-04-22T15:32:57.999Z</time></trkpt><trkpt lat="45.97070230207992" lon="13.397762185696392"><ele>60.0</ele><time>2026-04-22T15:32:58.999Z</time></trkpt><trkpt lat="45.97091467452077" lon="13.397739562165931"><ele>60.33333333333333</ele><time>2026-04-22T15:32:59.999Z</time></trkpt><trkpt lat="45.97111620055091" lon="13.397721765129086"><ele>60.666666666666664</ele><time>2026-04-22T15:33:00.999Z</time></trkpt><trkpt lat="45.97130844903035" lon="13.397708244745974"><ele>61.0</ele><time>2026-04-22T15:33:01.999Z</time></trkpt><trkpt lat="45.97149404555316" lon="13.397709232815627"><ele>61.0</ele><time>2026-04-22T15:33:02.999Z</time></trkpt><trkpt lat="45.97167028689434" lon="13.3976836480643"><ele>61.0</ele><time>2026-04-22T15:33:03.999Z</time></trkpt><trkpt lat="45.971827776070924" lon="13.39767004898861"><ele>61.0</ele><time>2026-04-22T15:33:05Z</time></trkpt><trkpt lat="45.97197067489635" lon="13.397658098695635"><ele>61.0</ele><time>2026-04-22T15:33:06Z</time></trkpt><trkpt lat="45.972096836918105" lon="13.397649879050391"><ele>60.99999999999999</ele><time>2026-04-22T15:33:07Z</time></trkpt><trkpt lat="45.97221074593916" lon="13.397659513063509"><ele>60.99999999999999</ele><time>2026-04-22T15:33:08Z</time></trkpt><trkpt lat="45.972304414911434" lon="13.39769301928698"><ele>61.0</ele><time>2026-04-22T15:33:09Z</time></trkpt><trkpt lat="45.97237978592225" lon="13.397729412759995"><ele>61.0</ele><time>2026-04-22T15:33:10Z</time></trkpt><trkpt lat="45.972448599713964" lon="13.397775104577738"><ele>61.199999999999996</ele><time>2026-04-22T15:33:11Z</time></trkpt><trkpt lat="45.97252857983418" lon="13.397876986211715"><ele>61.39999999999999</ele><time>2026-04-22T15:33:12Z</time></trkpt><trkpt lat="45.9726139831699" lon="13.397973407349081"><ele>61.6</ele><time>2026-04-22T15:33:13Z</time></trkpt><trkpt lat="45.97270994903562" lon="13.397989811084459"><ele>61.8</ele><time>2026-04-22T15:33:14Z</time></trkpt><trkpt lat="45.972799617800156" lon="13.3979355239589"><ele>62.0</ele><time>2026-04-22T15:33:15Z</time></trkpt><trkpt lat="45.972866287513305" lon="13.397816717894957"><ele>62.0</ele><time>2026-04-22T15:33:16Z</time></trkpt><trkpt lat="45.972922550972115" lon="13.397660877710138"><ele>62.0</ele><time>2026-04-22T15:33:17Z</time></trkpt><trkpt lat="45.9730074140505" lon="13.397522601119187"><ele>62.0</ele><time>2026-04-22T15:33:18Z</time></trkpt><trkpt lat="45.973103637430945" lon="13.397396466056184"><ele>62.0</ele><time>2026-04-22T15:33:19Z</time></trkpt><trkpt lat="45.973184835281984" lon="13.397259929414187"><ele>62.0</ele><time>2026-04-22T15:33:20Z</time></trkpt><trkpt lat="45.973258498699415" lon="13.397115691762034"><ele>62.0</ele><time>2026-04-22T15:33:21Z</time></trkpt><trkpt lat="45.97333102010301" lon="13.39697605303752"><ele>62.0</ele><time>2026-04-22T15:33:22Z</time></trkpt><trkpt lat="45.97340034406365" lon="13.39684232201051"><ele>62.0</ele><time>2026-04-22T15:33:23Z</time></trkpt><trkpt lat="45.973469077340766" lon="13.39671821865503"><ele>62.0</ele><time>2026-04-22T15:33:24Z</time></trkpt><trkpt lat="45.973538430682446" lon="13.396592886664765"><ele>62.0</ele><time>2026-04-22T15:33:25Z</time></trkpt><trkpt lat="45.97360472251114" lon="13.396459555911237"><ele>62.0</ele><time>2026-04-22T15:33:26Z</time></trkpt><trkpt lat="45.97367549460275" lon="13.396318445145058"><ele>62.0</ele><time>2026-04-22T15:33:27Z</time></trkpt><trkpt lat="45.9737493140713" lon="13.396178772164859"><ele>62.25</ele><time>2026-04-22T15:33:28Z</time></trkpt><trkpt lat="45.97382264620901" lon="13.396037239089122"><ele>62.5</ele><time>2026-04-22T15:33:29Z</time></trkpt><trkpt lat="45.97389521896242" lon="13.395904031902596"><ele>62.75</ele><time>2026-04-22T15:33:30Z</time></trkpt><trkpt lat="45.97396339734625" lon="13.395771240593348"><ele>63.0</ele><time>2026-04-22T15:33:30.999Z</time></trkpt><trkpt lat="45.97403435291791" lon="13.395639340752663"><ele>63.0</ele><time>2026-04-22T15:33:31.999Z</time></trkpt><trkpt lat="45.9741115356141" lon="13.395502100788903"><ele>63.0</ele><time>2026-04-22T15:33:32.999Z</time></trkpt><trkpt lat="45.97418768025997" lon="13.395362355104115"><ele>63.0</ele><time>2026-04-22T15:33:33.999Z</time></trkpt><trkpt lat="45.97425864340154" lon="13.395230572146945"><ele>63.0</ele><time>2026-04-22T15:33:34.999Z</time></trkpt><trkpt lat="45.974322759135354" lon="13.395110235514998"><ele>62.8</ele><time>2026-04-22T15:33:35.999Z</time></trkpt><trkpt lat="45.9743844148233" lon="13.3949961468638"><ele>62.599999999999994</ele><time>2026-04-22T15:33:36.999Z</time></trkpt><trkpt lat="45.97444582616319" lon="13.39488459393074"><ele>62.400000000000006</ele><time>2026-04-22T15:33:37.999Z</time></trkpt><trkpt lat="45.97450698610797" lon="13.394773173010977"><ele>62.2</ele><time>2026-04-22T15:33:38.999Z</time></trkpt><trkpt lat="45.97456443021377" lon="13.394664457694667"><ele>62.0</ele><time>2026-04-22T15:33:39.999Z</time></trkpt><trkpt lat="45.974621171873274" lon="13.394561886621286"><ele>62.0</ele><time>2026-04-22T15:33:40.999Z</time></trkpt><trkpt lat="45.97467586214944" lon="13.39446118509621"><ele>62.0</ele><time>2026-04-22T15:33:41.999Z</time></trkpt><trkpt lat="45.974732192906046" lon="13.394362342961111"><ele>62.0</ele><time>2026-04-22T15:33:42.999Z</time></trkpt><trkpt lat="45.97478084095099" lon="13.394279156193845"><ele>62.0</ele><time>2026-04-22T15:33:43.999Z</time></trkpt><trkpt lat="45.974856457358925" lon="13.394156941410916"><ele>62.0</ele><time>2026-04-22T15:33:45.999Z</time></trkpt><trkpt lat="45.97494143334663" lon="13.394065942274134"><ele>62.16666666666667</ele><time>2026-04-22T15:33:47.999Z</time></trkpt><trkpt lat="45.97505146960747" lon="13.393976813101014"><ele>62.333333333333336</ele><time>2026-04-22T15:33:49.999Z</time></trkpt><trkpt lat="45.975093115208324" lon="13.393902338096906"><ele>62.5</ele><time>2026-04-22T15:33:50.999Z</time></trkpt><trkpt lat="45.97512036086221" lon="13.393806845723292"><ele>62.66666666666667</ele><time>2026-04-22T15:33:51.999Z</time></trkpt><trkpt lat="45.975143378326074" lon="13.393695340449137"><ele>62.833333333333336</ele><time>2026-04-22T15:33:52.999Z</time></trkpt><trkpt lat="45.97517764480571" lon="13.393575051501735"><ele>63.0</ele><time>2026-04-22T15:33:53.999Z</time></trkpt><trkpt lat="45.97522695490815" lon="13.39343689517619"><ele>63.0</ele><time>2026-04-22T15:33:54.999Z</time></trkpt><trkpt lat="45.97528889209579" lon="13.393294874929522"><ele>63.0</ele><time>2026-04-22T15:33:55.999Z</time></trkpt><trkpt lat="45.975358818022784" lon="13.393155013122394"><ele>63.0</ele><time>2026-04-22T15:33:56.999Z</time></trkpt><trkpt lat="45.97543851511599" lon="13.39300845425801"><ele>63.0</ele><time>2026-04-22T15:33:57.999Z</time></trkpt><trkpt lat="45.97551785015965" lon="13.392862559292091"><ele>62.75</ele><time>2026-04-22T15:33:58.999Z</time></trkpt><trkpt lat="45.975595018018275" lon="13.392720100105933"><ele>62.5</ele><time>2026-04-22T15:33:59.999Z</time></trkpt><trkpt lat="45.97567359350554" lon="13.392571008107678"><ele>62.25</ele><time>2026-04-22T15:34:00.999Z</time></trkpt><trkpt lat="45.97576090411632" lon="13.392414131025843"><ele>62.0</ele><time>2026-04-22T15:34:01.999Z</time></trkpt><trkpt lat="45.97584883018971" lon="13.392248002778857"><ele>61.5</ele><time>2026-04-22T15:34:02.999Z</time></trkpt><trkpt lat="45.97593796761389" lon="13.39208282626767"><ele>61.0</ele><time>2026-04-22T15:34:03.999Z</time></trkpt><trkpt lat="45.97602672138232" lon="13.391916351476981"><ele>60.5</ele><time>2026-04-22T15:34:04.999Z</time></trkpt><trkpt lat="45.976118457534845" lon="13.391749346835729"><ele>60.0</ele><time>2026-04-22T15:34:05.999Z</time></trkpt><trkpt lat="45.97621065309769" lon="13.391575435773255"><ele>60.0</ele><time>2026-04-22T15:34:06.999Z</time></trkpt><trkpt lat="45.97630578115119" lon="13.391397852830362"><ele>60.0</ele><time>2026-04-22T15:34:07.999Z</time></trkpt><trkpt lat="45.97640362062273" lon="13.39121321619022"><ele>60.0</ele><time>2026-04-22T15:34:08.999Z</time></trkpt><trkpt lat="45.97651200035666" lon="13.391027948567144"><ele>59.66666666666667</ele><time>2026-04-22T15:34:09.999Z</time></trkpt><trkpt lat="45.97661287762384" lon="13.390829954707169"><ele>59.333333333333336</ele><time>2026-04-22T15:34:10.999Z</time></trkpt><trkpt lat="45.97671793911161" lon="13.390637081330922"><ele>59.0</ele><time>2026-04-22T15:34:11.999Z</time></trkpt><trkpt lat="45.976825175946935" lon="13.390449655166877"><ele>57.66666666666667</ele><time>2026-04-22T15:34:12.999Z</time></trkpt><trkpt lat="45.97691957369556" lon="13.390241892231394"><ele>56.33333333333333</ele><time>2026-04-22T15:34:13.999Z</time></trkpt><trkpt lat="45.977026113795226" lon="13.390041865293817"><ele>55.0</ele><time>2026-04-22T15:34:14.999Z</time></trkpt><trkpt lat="45.9771334159121" lon="13.389837555470855"><ele>54.0</ele><time>2026-04-22T15:34:15.999Z</time></trkpt><trkpt lat="45.97724094670665" lon="13.389635035052995"><ele>53.0</ele><time>2026-04-22T15:34:16.999Z</time></trkpt><trkpt lat="45.977348458627134" lon="13.389433439227911"><ele>52.0</ele><time>2026-04-22T15:34:17.999Z</time></trkpt><trkpt lat="45.977459276133644" lon="13.389231886281832"><ele>53.0</ele><time>2026-04-22T15:34:18.999Z</time></trkpt><trkpt lat="45.977569581409405" lon="13.38902810551795"><ele>54.0</ele><time>2026-04-22T15:34:19.999Z</time></trkpt><trkpt lat="45.97767976588952" lon="13.388823126594321"><ele>55.0</ele><time>2026-04-22T15:34:20.999Z</time></trkpt><trkpt lat="45.97778975321973" lon="13.388614723713243"><ele>55.0</ele><time>2026-04-22T15:34:21.999Z</time></trkpt><trkpt lat="45.97790048274866" lon="13.388405712221608"><ele>55.0</ele><time>2026-04-22T15:34:22.999Z</time></trkpt><trkpt lat="45.978013216424486" lon="13.388190195017867"><ele>55.0</ele><time>2026-04-22T15:34:23.999Z</time></trkpt><trkpt lat="45.978129639342036" lon="13.387972856315576"><ele>55.0</ele><time>2026-04-22T15:34:24.999Z</time></trkpt><trkpt lat="45.978247064093594" lon="13.387754493818058"><ele>55.0</ele><time>2026-04-22T15:34:25.999Z</time></trkpt><trkpt lat="45.97836539133399" lon="13.387535073236847"><ele>55.0</ele><time>2026-04-22T15:34:26.999Z</time></trkpt><trkpt lat="45.978482944213376" lon="13.38731335344843"><ele>55.33333333333333</ele><time>2026-04-22T15:34:27.999Z</time></trkpt><trkpt lat="45.978600995416755" lon="13.387091822869733"><ele>55.66666666666667</ele><time>2026-04-22T15:34:28.999Z</time></trkpt><trkpt lat="45.97872105681792" lon="13.386868211582083"><ele>56.0</ele><time>2026-04-22T15:34:29.999Z</time></trkpt><trkpt lat="45.978840776742395" lon="13.386644460315901"><ele>56.0</ele><time>2026-04-22T15:34:30.999Z</time></trkpt><trkpt lat="45.97896093076906" lon="13.386420373059199"><ele>56.0</ele><time>2026-04-22T15:34:31.999Z</time></trkpt><trkpt lat="45.979079996555164" lon="13.386199238517989"><ele>56.0</ele><time>2026-04-22T15:34:32.999Z</time></trkpt><trkpt lat="45.97919831141528" lon="13.385978978784095"><ele>56.333333333333336</ele><time>2026-04-22T15:34:33.999Z</time></trkpt><trkpt lat="45.97931211671846" lon="13.38576220619"><ele>56.66666666666667</ele><time>2026-04-22T15:34:34.999Z</time></trkpt><trkpt lat="45.979424134615584" lon="13.385549822420485"><ele>57.0</ele><time>2026-04-22T15:34:35.999Z</time></trkpt><trkpt lat="45.97953773829339" lon="13.385340191208835"><ele>57.0</ele><time>2026-04-22T15:34:36.999Z</time></trkpt><trkpt lat="45.979651252238114" lon="13.38512696930722"><ele>57.0</ele><time>2026-04-22T15:34:37.999Z</time></trkpt><trkpt lat="45.97976532813393" lon="13.384912963599417"><ele>57.0</ele><time>2026-04-22T15:34:38.999Z</time></trkpt><trkpt lat="45.97988103406641" lon="13.384702326165456"><ele>57.66666666666667</ele><time>2026-04-22T15:34:39.999Z</time></trkpt><trkpt lat="45.9799941029928" lon="13.384491856826003"><ele>58.333333333333336</ele><time>2026-04-22T15:34:40.999Z</time></trkpt><trkpt lat="45.980106851000535" lon="13.384277561171086"><ele>59.0</ele><time>2026-04-22T15:34:41.999Z</time></trkpt><trkpt lat="45.98021898651827" lon="13.384064759373002"><ele>59.0</ele><time>2026-04-22T15:34:42.999Z</time></trkpt><trkpt lat="45.98032859389958" lon="13.383857871775009"><ele>59.0</ele><time>2026-04-22T15:34:43.999Z</time></trkpt><trkpt lat="45.98043884110169" lon="13.38365037954481"><ele>59.0</ele><time>2026-04-22T15:34:44.999Z</time></trkpt><trkpt lat="45.98054865394989" lon="13.38344435471637"><ele>58.0</ele><time>2026-04-22T15:34:45.999Z</time></trkpt><trkpt lat="45.98065795584539" lon="13.383238174646499"><ele>57.0</ele><time>2026-04-22T15:34:46.999Z</time></trkpt><trkpt lat="45.980766384885186" lon="13.383038374644133"><ele>56.0</ele><time>2026-04-22T15:34:47.999Z</time></trkpt><trkpt lat="45.98087401723556" lon="13.382840677444147"><ele>56.0</ele><time>2026-04-22T15:34:48.999Z</time></trkpt><trkpt lat="45.98097667634372" lon="13.382648774626118"><ele>56.0</ele><time>2026-04-22T15:34:49.999Z</time></trkpt><trkpt lat="45.981068555475865" lon="13.382473420555671"><ele>56.0</ele><time>2026-04-22T15:34:50.999Z</time></trkpt><trkpt lat="45.98115167431462" lon="13.382315417794034"><ele>56.0</ele><time>2026-04-22T15:34:51.999Z</time></trkpt><trkpt lat="45.98123356340719" lon="13.382167689600035"><ele>56.0</ele><time>2026-04-22T15:34:52.999Z</time></trkpt><trkpt lat="45.981309307818954" lon="13.382040122623456"><ele>56.0</ele><time>2026-04-22T15:34:53.999Z</time></trkpt><trkpt lat="45.98138333567232" lon="13.38192004749471"><ele>56.0</ele><time>2026-04-22T15:34:54.999Z</time></trkpt><trkpt lat="45.98144984208805" lon="13.381806292695789"><ele>56.00000000000001</ele><time>2026-04-22T15:34:55.999Z</time></trkpt><trkpt lat="45.98150602449603" lon="13.381697814575537"><ele>56.0</ele><time>2026-04-22T15:34:56.999Z</time></trkpt><trkpt lat="45.981556672801226" lon="13.381604352157462"><ele>56.0</ele><time>2026-04-22T15:34:57.999Z</time></trkpt><trkpt lat="45.981605965377966" lon="13.381526811616693"><ele>56.0</ele><time>2026-04-22T15:34:58.999Z</time></trkpt><trkpt lat="45.98165915320373" lon="13.381471135939252"><ele>56.00000000000001</ele><time>2026-04-22T15:34:59.999Z</time></trkpt><trkpt lat="45.981726687375335" lon="13.38142060294277"><ele>56.0</ele><time>2026-04-22T15:35:00.999Z</time></trkpt><trkpt lat="45.981829566886766" lon="13.38139481462081"><ele>56.0</ele><time>2026-04-22T15:35:01.999Z</time></trkpt><trkpt lat="45.98196082630367" lon="13.381405392680055"><ele>56.0</ele><time>2026-04-22T15:35:02.999Z</time></trkpt><trkpt lat="45.98210273790167" lon="13.381377843174437"><ele>56.0</ele><time>2026-04-22T15:35:03.999Z</time></trkpt><trkpt lat="45.98223229164376" lon="13.381281944176518"><ele>56.0</ele><time>2026-04-22T15:35:04.999Z</time></trkpt><trkpt lat="45.98232839434733" lon="13.38113812659998"><ele>56.0</ele><time>2026-04-22T15:35:05.999Z</time></trkpt><trkpt lat="45.98239403499061" lon="13.380954354137884"><ele>56.0</ele><time>2026-04-22T15:35:06.999Z</time></trkpt><trkpt lat="45.98242376121514" lon="13.380744689600705"><ele>56.0</ele><time>2026-04-22T15:35:07.999Z</time></trkpt><trkpt lat="45.982410269709064" lon="13.380532553155462"><ele>56.0</ele><time>2026-04-22T15:35:08.999Z</time></trkpt><trkpt lat="45.98238873251387" lon="13.380351798506052"><ele>56.333333333333336</ele><time>2026-04-22T15:35:09.999Z</time></trkpt><trkpt lat="45.98240591977146" lon="13.380153778040825"><ele>56.66666666666667</ele><time>2026-04-22T15:35:11Z</time></trkpt><trkpt lat="45.98245519361461" lon="13.379948950920385"><ele>57.0</ele><time>2026-04-22T15:35:12Z</time></trkpt><trkpt lat="45.98254159157454" lon="13.379754569210531"><ele>58.0</ele><time>2026-04-22T15:35:13Z</time></trkpt><trkpt lat="45.98263634790456" lon="13.379557082511784"><ele>59.0</ele><time>2026-04-22T15:35:14Z</time></trkpt><trkpt lat="45.982737144010045" lon="13.379359763279568"><ele>60.0</ele><time>2026-04-22T15:35:15Z</time></trkpt><trkpt lat="45.98284613048669" lon="13.379155604234992"><ele>60.0</ele><time>2026-04-22T15:35:16Z</time></trkpt><trkpt lat="45.98295883942067" lon="13.378947456868026"><ele>60.0</ele><time>2026-04-22T15:35:17Z</time></trkpt><trkpt lat="45.983073251833915" lon="13.378733636679875"><ele>60.0</ele><time>2026-04-22T15:35:18Z</time></trkpt><trkpt lat="45.98318689774216" lon="13.378519130502617"><ele>60.0</ele><time>2026-04-22T15:35:19Z</time></trkpt><trkpt lat="45.98329980359217" lon="13.378304354063971"><ele>60.0</ele><time>2026-04-22T15:35:20Z</time></trkpt><trkpt lat="45.98341185335636" lon="13.378091756020595"><ele>60.0</ele><time>2026-04-22T15:35:21Z</time></trkpt><trkpt lat="45.98352554780092" lon="13.377884129908551"><ele>60.0</ele><time>2026-04-22T15:35:22Z</time></trkpt><trkpt lat="45.98363977872827" lon="13.37767875518807"><ele>60.0</ele><time>2026-04-22T15:35:23Z</time></trkpt><trkpt lat="45.98375068402362" lon="13.377473496694284"><ele>60.0</ele><time>2026-04-22T15:35:24Z</time></trkpt><trkpt lat="45.98385826021787" lon="13.377266669261852"><ele>60.0</ele><time>2026-04-22T15:35:25Z</time></trkpt><trkpt lat="45.983964965855115" lon="13.377067324475764"><ele>60.0</ele><time>2026-04-22T15:35:26Z</time></trkpt><trkpt lat="45.984070740698" lon="13.37687129190176"><ele>60.0</ele><time>2026-04-22T15:35:27Z</time></trkpt><trkpt lat="45.98417747678182" lon="13.376671950991973"><ele>60.0</ele><time>2026-04-22T15:35:28Z</time></trkpt><trkpt lat="45.98428412179847" lon="13.376472918716356"><ele>60.0</ele><time>2026-04-22T15:35:29Z</time></trkpt><trkpt lat="45.98439046843668" lon="13.37627514233374"><ele>60.0</ele><time>2026-04-22T15:35:30Z</time></trkpt><trkpt lat="45.984496597475214" lon="13.376074818192732"><ele>60.0</ele><time>2026-04-22T15:35:31Z</time></trkpt><trkpt lat="45.98460481330274" lon="13.375872393790234"><ele>60.0</ele><time>2026-04-22T15:35:32Z</time></trkpt><trkpt lat="45.98471652928792" lon="13.375671998439092"><ele>60.0</ele><time>2026-04-22T15:35:33Z</time></trkpt><trkpt lat="45.9848289351617" lon="13.37547620226675"><ele>60.0</ele><time>2026-04-22T15:35:34Z</time></trkpt><trkpt lat="45.984935415691304" lon="13.375272655507962"><ele>60.0</ele><time>2026-04-22T15:35:34.999Z</time></trkpt><trkpt lat="45.98504461914014" lon="13.375072056566715"><ele>60.0</ele><time>2026-04-22T15:35:35.999Z</time></trkpt><trkpt lat="45.985154779973094" lon="13.374874416397976"><ele>61.33333333333333</ele><time>2026-04-22T15:35:36.999Z</time></trkpt><trkpt lat="45.98526077051535" lon="13.374671524174094"><ele>62.666666666666664</ele><time>2026-04-22T15:35:37.999Z</time></trkpt><trkpt lat="45.98536337720544" lon="13.37447119838165"><ele>64.0</ele><time>2026-04-22T15:35:38.999Z</time></trkpt><trkpt lat="45.98546542557922" lon="13.374273765738762"><ele>64.0</ele><time>2026-04-22T15:35:39.999Z</time></trkpt><trkpt lat="45.98557000587964" lon="13.374076227735772"><ele>64.0</ele><time>2026-04-22T15:35:40.999Z</time></trkpt><trkpt lat="45.98567536005552" lon="13.37388183429181"><ele>64.0</ele><time>2026-04-22T15:35:41.999Z</time></trkpt><trkpt lat="45.985776839762764" lon="13.373692228896664"><ele>64.25</ele><time>2026-04-22T15:35:42.999Z</time></trkpt><trkpt lat="45.98586901821205" lon="13.37351955593739"><ele>64.5</ele><time>2026-04-22T15:35:43.999Z</time></trkpt><trkpt lat="45.9859547532203" lon="13.373364449231259"><ele>64.75</ele><time>2026-04-22T15:35:44.999Z</time></trkpt><trkpt lat="45.986027545257215" lon="13.373231519404788"><ele>65.0</ele><time>2026-04-22T15:35:45.999Z</time></trkpt><trkpt lat="45.986096052951666" lon="13.373115091692931"><ele>65.2</ele><time>2026-04-22T15:35:46.999Z</time></trkpt><trkpt lat="45.986157693409524" lon="13.37301209840086"><ele>65.4</ele><time>2026-04-22T15:35:47.999Z</time></trkpt><trkpt lat="45.986231937468034" lon="13.372911051679786"><ele>65.6</ele><time>2026-04-22T15:35:48.999Z</time></trkpt><trkpt lat="45.986313180638845" lon="13.372810112756877"><ele>65.8</ele><time>2026-04-22T15:35:49.999Z</time></trkpt><trkpt lat="45.98639453902789" lon="13.37271040967372"><ele>66.0</ele><time>2026-04-22T15:35:50.999Z</time></trkpt><trkpt lat="45.98644968413418" lon="13.372585144939023"><ele>66.0</ele><time>2026-04-22T15:35:51.999Z</time></trkpt><trkpt lat="45.98648894279621" lon="13.372433939891957"><ele>66.0</ele><time>2026-04-22T15:35:52.999Z</time></trkpt><trkpt lat="45.98653733768406" lon="13.372290226750584"><ele>66.0</ele><time>2026-04-22T15:35:53.999Z</time></trkpt><trkpt lat="45.98659862662347" lon="13.372152222655668"><ele>66.0</ele><time>2026-04-22T15:35:54.999Z</time></trkpt><trkpt lat="45.98666278867277" lon="13.3720102237411"><ele>65.5</ele><time>2026-04-22T15:35:55.999Z</time></trkpt><trkpt lat="45.986733528505845" lon="13.371869387723649"><ele>65.0</ele><time>2026-04-22T15:35:56.999Z</time></trkpt><trkpt lat="45.986810624400505" lon="13.371720071755774"><ele>64.5</ele><time>2026-04-22T15:35:57.999Z</time></trkpt><trkpt lat="45.986893125957174" lon="13.371560538196547"><ele>64.0</ele><time>2026-04-22T15:35:58.999Z</time></trkpt><trkpt lat="45.98698127360534" lon="13.371397801365443"><ele>64.25</ele><time>2026-04-22T15:35:59.999Z</time></trkpt><trkpt lat="45.98707054266397" lon="13.371229365751406"><ele>64.5</ele><time>2026-04-22T15:36:00.999Z</time></trkpt><trkpt lat="45.98715557770839" lon="13.371061250417789"><ele>64.75</ele><time>2026-04-22T15:36:01.999Z</time></trkpt><trkpt lat="45.98724239809074" lon="13.370900014684086"><ele>65.0</ele><time>2026-04-22T15:36:02.999Z</time></trkpt><trkpt lat="45.98732858520527" lon="13.370742369980135"><ele>65.0</ele><time>2026-04-22T15:36:03.999Z</time></trkpt><trkpt lat="45.98741279899837" lon="13.370585963667374"><ele>65.0</ele><time>2026-04-22T15:36:04.999Z</time></trkpt><trkpt lat="45.98749738215187" lon="13.370424814721758"><ele>65.0</ele><time>2026-04-22T15:36:05.999Z</time></trkpt><trkpt lat="45.987585149616145" lon="13.370262881594662"><ele>65.0</ele><time>2026-04-22T15:36:06.999Z</time></trkpt><trkpt lat="45.98767271225267" lon="13.370100338706843"><ele>64.75</ele><time>2026-04-22T15:36:07.999Z</time></trkpt><trkpt lat="45.98775905053429" lon="13.369937852933012"><ele>64.5</ele><time>2026-04-22T15:36:08.999Z</time></trkpt><trkpt lat="45.98784530632119" lon="13.369778102063261"><ele>64.25</ele><time>2026-04-22T15:36:09.999Z</time></trkpt><trkpt lat="45.98793236037604" lon="13.369618395168676"><ele>64.0</ele><time>2026-04-22T15:36:10.999Z</time></trkpt><trkpt lat="45.98801589309668" lon="13.369458779672165"><ele>63.75</ele><time>2026-04-22T15:36:11.999Z</time></trkpt><trkpt lat="45.988100411174806" lon="13.369303029222843"><ele>63.5</ele><time>2026-04-22T15:36:12.999Z</time></trkpt><trkpt lat="45.98818550847813" lon="13.369146393635946"><ele>63.25</ele><time>2026-04-22T15:36:13.999Z</time></trkpt><trkpt lat="45.988269931854454" lon="13.368988501668147"><ele>63.0</ele><time>2026-04-22T15:36:14.999Z</time></trkpt><trkpt lat="45.98835531561517" lon="13.368833477661958"><ele>63.0</ele><time>2026-04-22T15:36:15.999Z</time></trkpt><trkpt lat="45.98844036869442" lon="13.368678017948154"><ele>63.0</ele><time>2026-04-22T15:36:16.999Z</time></trkpt><trkpt lat="45.988525187125234" lon="13.3685244245716"><ele>63.0</ele><time>2026-04-22T15:36:17.999Z</time></trkpt><trkpt lat="45.98860686660235" lon="13.368371620805187"><ele>63.0</ele><time>2026-04-22T15:36:18.999Z</time></trkpt><trkpt lat="45.98868866281067" lon="13.368219385393013"><ele>63.0</ele><time>2026-04-22T15:36:19.999Z</time></trkpt><trkpt lat="45.98877004147449" lon="13.368069620887207"><ele>63.0</ele><time>2026-04-22T15:36:20.999Z</time></trkpt><trkpt lat="45.98884907119682" lon="13.367919336687365"><ele>63.0</ele><time>2026-04-22T15:36:21.999Z</time></trkpt><trkpt lat="45.98892835484341" lon="13.367770593203385"><ele>63.0</ele><time>2026-04-22T15:36:22.999Z</time></trkpt><trkpt lat="45.989007347719394" lon="13.367622493488296"><ele>62.75</ele><time>2026-04-22T15:36:23.999Z</time></trkpt><trkpt lat="45.98908575179905" lon="13.367473454830234"><ele>62.5</ele><time>2026-04-22T15:36:24.999Z</time></trkpt><trkpt lat="45.989165020813225" lon="13.367325361273021"><ele>62.25</ele><time>2026-04-22T15:36:25.999Z</time></trkpt><trkpt lat="45.989243130784644" lon="13.367178039329534"><ele>62.0</ele><time>2026-04-22T15:36:26.999Z</time></trkpt><trkpt lat="45.98932252327716" lon="13.367028913999299"><ele>62.0</ele><time>2026-04-22T15:36:27.999Z</time></trkpt><trkpt lat="45.98940298769722" lon="13.366879261120472"><ele>62.0</ele><time>2026-04-22T15:36:28.999Z</time></trkpt><trkpt lat="45.98948039257225" lon="13.366737225963803"><ele>62.0</ele><time>2026-04-22T15:36:29.999Z</time></trkpt><trkpt lat="45.9895497454589" lon="13.36661080778723"><ele>62.0</ele><time>2026-04-22T15:36:30.999Z</time></trkpt><trkpt lat="45.98960826081273" lon="13.366512637462808"><ele>62.00000000000001</ele><time>2026-04-22T15:36:31.999Z</time></trkpt><trkpt lat="45.989679636801405" lon="13.36643816617842"><ele>62.0</ele><time>2026-04-22T15:36:32.999Z</time></trkpt><trkpt lat="45.98976441249652" lon="13.36638303032454"><ele>62.0</ele><time>2026-04-22T15:36:33.999Z</time></trkpt><trkpt lat="45.989855339169374" lon="13.366349340125895"><ele>62.0</ele><time>2026-04-22T15:36:34.999Z</time></trkpt><trkpt lat="45.98991540197207" lon="13.366272171357696"><ele>62.00000000000001</ele><time>2026-04-22T15:36:35.999Z</time></trkpt><trkpt lat="45.98994528852114" lon="13.366153385173108"><ele>62.0</ele><time>2026-04-22T15:36:36.999Z</time></trkpt><trkpt lat="45.989950163346926" lon="13.366020738584712"><ele>61.75</ele><time>2026-04-22T15:36:37.999Z</time></trkpt><trkpt lat="45.98992037184422" lon="13.36590127373422"><ele>61.5</ele><time>2026-04-22T15:36:38.999Z</time></trkpt><trkpt lat="45.99000994034502" lon="13.36574069744107"><ele>61.25</ele><time>2026-04-22T15:36:39.999Z</time></trkpt><trkpt lat="45.99007560033126" lon="13.3656013889045"><ele>61.0</ele><time>2026-04-22T15:36:40.999Z</time></trkpt><trkpt lat="45.990153712378024" lon="13.365472264708517"><ele>61.5</ele><time>2026-04-22T15:36:41.999Z</time></trkpt><trkpt lat="45.9902297118344" lon="13.365332966064276"><ele>62.0</ele><time>2026-04-22T15:36:42.999Z</time></trkpt><trkpt lat="45.99031208990641" lon="13.36518319252892"><ele>62.5</ele><time>2026-04-22T15:36:43.999Z</time></trkpt><trkpt lat="45.990396340498684" lon="13.365021942419972"><ele>63.0</ele><time>2026-04-22T15:36:44.999Z</time></trkpt><trkpt lat="45.99048369205802" lon="13.364856542062562"><ele>63.0</ele><time>2026-04-22T15:36:45.999Z</time></trkpt><trkpt lat="45.99057058786534" lon="13.36469764248772"><ele>63.0</ele><time>2026-04-22T15:36:46.999Z</time></trkpt><trkpt lat="45.99065302723397" lon="13.364544687196076"><ele>63.0</ele><time>2026-04-22T15:36:47.999Z</time></trkpt><trkpt lat="45.99073902799621" lon="13.364389211517244"><ele>63.0</ele><time>2026-04-22T15:36:48.999Z</time></trkpt><trkpt lat="45.990825926017564" lon="13.364226119384277"><ele>63.0</ele><time>2026-04-22T15:36:49.999Z</time></trkpt><trkpt lat="45.99091303388967" lon="13.364065288954796"><ele>63.0</ele><time>2026-04-22T15:36:50.999Z</time></trkpt><trkpt lat="45.99100569497891" lon="13.363890303306885"><ele>63.0</ele><time>2026-04-22T15:36:51.999Z</time></trkpt><trkpt lat="45.99110278162146" lon="13.36370365580635"><ele>63.0</ele><time>2026-04-22T15:36:52.999Z</time></trkpt><trkpt lat="45.99120547270837" lon="13.363511395218259"><ele>63.0</ele><time>2026-04-22T15:36:53.999Z</time></trkpt><trkpt lat="45.99131311602545" lon="13.363310040844263"><ele>63.0</ele><time>2026-04-22T15:36:54.999Z</time></trkpt><trkpt lat="45.9914239535506" lon="13.363103037652046"><ele>63.0</ele><time>2026-04-22T15:36:55.999Z</time></trkpt><trkpt lat="45.99153446180666" lon="13.362893169087155"><ele>63.0</ele><time>2026-04-22T15:36:56.999Z</time></trkpt><trkpt lat="45.991644717520074" lon="13.362686808276868"><ele>63.0</ele><time>2026-04-22T15:36:57.999Z</time></trkpt><trkpt lat="45.99175418365096" lon="13.362482006340441"><ele>63.0</ele><time>2026-04-22T15:36:58.999Z</time></trkpt><trkpt lat="45.99185897487809" lon="13.362279510946657"><ele>63.0</ele><time>2026-04-22T15:36:59.999Z</time></trkpt><trkpt lat="45.991962290461004" lon="13.3620830151568"><ele>63.0</ele><time>2026-04-22T15:37:00.999Z</time></trkpt><trkpt lat="45.99206574080225" lon="13.361890796595512"><ele>63.0</ele><time>2026-04-22T15:37:01.999Z</time></trkpt><trkpt lat="45.99216881074397" lon="13.361700730762106"><ele>63.0</ele><time>2026-04-22T15:37:02.999Z</time></trkpt><trkpt lat="45.992270458332555" lon="13.361511034103186"><ele>63.0</ele><time>2026-04-22T15:37:03.999Z</time></trkpt><trkpt lat="45.99237060965364" lon="13.36132408361536"><ele>63.66666666666667</ele><time>2026-04-22T15:37:04.999Z</time></trkpt><trkpt lat="45.99246994508717" lon="13.361138944834293"><ele>64.33333333333334</ele><time>2026-04-22T15:37:05.999Z</time></trkpt><trkpt lat="45.99256830517166" lon="13.360956933789238"><ele>65.0</ele><time>2026-04-22T15:37:06.999Z</time></trkpt><trkpt lat="45.99266415532095" lon="13.36077780843324"><ele>65.0</ele><time>2026-04-22T15:37:07.999Z</time></trkpt><trkpt lat="45.99275799380053" lon="13.36059961759963"><ele>65.0</ele><time>2026-04-22T15:37:08.999Z</time></trkpt><trkpt lat="45.99285013770117" lon="13.360425770449536"><ele>65.0</ele><time>2026-04-22T15:37:09.999Z</time></trkpt><trkpt lat="45.99294660870441" lon="13.360243183118254"><ele>65.33333333333334</ele><time>2026-04-22T15:37:10.999Z</time></trkpt><trkpt lat="45.99304854236263" lon="13.360060252814495"><ele>65.66666666666667</ele><time>2026-04-22T15:37:11.999Z</time></trkpt><trkpt lat="45.99315122233631" lon="13.359869316629114"><ele>66.0</ele><time>2026-04-22T15:37:12.999Z</time></trkpt><trkpt lat="45.99325602066412" lon="13.359677038946376"><ele>66.33333333333333</ele><time>2026-04-22T15:37:13.999Z</time></trkpt><trkpt lat="45.99336082191514" lon="13.359482647797197"><ele>66.66666666666666</ele><time>2026-04-22T15:37:14.999Z</time></trkpt><trkpt lat="45.993465744955536" lon="13.359285455624104"><ele>67.0</ele><time>2026-04-22T15:37:15.999Z</time></trkpt><trkpt lat="45.9935707109108" lon="13.359086422434679"><ele>67.0</ele><time>2026-04-22T15:37:17Z</time></trkpt><trkpt lat="45.993678350815614" lon="13.35888852136318"><ele>67.0</ele><time>2026-04-22T15:37:18Z</time></trkpt><trkpt lat="45.993783826743844" lon="13.358685398144111"><ele>67.0</ele><time>2026-04-22T15:37:19Z</time></trkpt><trkpt lat="45.99389045260055" lon="13.358481750444533"><ele>66.33333333333333</ele><time>2026-04-22T15:37:20Z</time></trkpt><trkpt lat="45.99399844384249" lon="13.358277581950384"><ele>65.66666666666667</ele><time>2026-04-22T15:37:21Z</time></trkpt><trkpt lat="45.99410687173024" lon="13.358072689023606"><ele>65.0</ele><time>2026-04-22T15:37:22Z</time></trkpt><trkpt lat="45.994217424187035" lon="13.357867969468359"><ele>63.333333333333336</ele><time>2026-04-22T15:37:23Z</time></trkpt><trkpt lat="45.99432928193845" lon="13.357661362305018"><ele>61.66666666666667</ele><time>2026-04-22T15:37:24Z</time></trkpt><trkpt lat="45.99444284390958" lon="13.357450031125428"><ele>60.0</ele><time>2026-04-22T15:37:25Z</time></trkpt><trkpt lat="45.99455741258418" lon="13.357235219232034"><ele>60.66666666666667</ele><time>2026-04-22T15:37:26Z</time></trkpt><trkpt lat="45.994673021721944" lon="13.357021399832266"><ele>61.333333333333336</ele><time>2026-04-22T15:37:27Z</time></trkpt><trkpt lat="45.99478951235979" lon="13.35680723474658"><ele>62.0</ele><time>2026-04-22T15:37:28Z</time></trkpt><trkpt lat="45.99490581853089" lon="13.356591652031605"><ele>62.333333333333336</ele><time>2026-04-22T15:37:29Z</time></trkpt><trkpt lat="45.995021314598816" lon="13.356376945436285"><ele>62.66666666666667</ele><time>2026-04-22T15:37:30Z</time></trkpt><trkpt lat="45.99513550800078" lon="13.356163111354185"><ele>63.0</ele><time>2026-04-22T15:37:31Z</time></trkpt><trkpt lat="45.9952487747803" lon="13.355954423999709"><ele>62.33333333333333</ele><time>2026-04-22T15:37:32Z</time></trkpt><trkpt lat="45.995361971273645" lon="13.355747892755039"><ele>61.666666666666664</ele><time>2026-04-22T15:37:33Z</time></trkpt><trkpt lat="45.99547493321247" lon="13.355540660568716"><ele>61.0</ele><time>2026-04-22T15:37:34Z</time></trkpt><trkpt lat="45.99558819440814" lon="13.355335611725948"><ele>61.0</ele><time>2026-04-22T15:37:35Z</time></trkpt><trkpt lat="45.9957001074234" lon="13.355126679680367"><ele>61.0</ele><time>2026-04-22T15:37:36Z</time></trkpt><trkpt lat="45.99581368108938" lon="13.354915863488767"><ele>61.0</ele><time>2026-04-22T15:37:37Z</time></trkpt><trkpt lat="45.995928548900515" lon="13.354700878257782"><ele>59.666666666666664</ele><time>2026-04-22T15:37:38Z</time></trkpt><trkpt lat="45.996045982830836" lon="13.354483599741739"><ele>58.33333333333333</ele><time>2026-04-22T15:37:38.999Z</time></trkpt><trkpt lat="45.996162325511825" lon="13.354264162867672"><ele>57.0</ele><time>2026-04-22T15:37:39.999Z</time></trkpt><trkpt lat="45.996279221340025" lon="13.354041187306398"><ele>58.66666666666667</ele><time>2026-04-22T15:37:40.999Z</time></trkpt><trkpt lat="45.99639598116639" lon="13.353815036790989"><ele>60.333333333333336</ele><time>2026-04-22T15:37:41.999Z</time></trkpt><trkpt lat="45.99651275550502" lon="13.353592153777774"><ele>62.0</ele><time>2026-04-22T15:37:42.999Z</time></trkpt><trkpt lat="45.99662847670265" lon="13.353370533649722"><ele>62.333333333333336</ele><time>2026-04-22T15:37:43.999Z</time></trkpt><trkpt lat="45.996742589831456" lon="13.353155310243489"><ele>62.66666666666667</ele><time>2026-04-22T15:37:44.999Z</time></trkpt><trkpt lat="45.99685343746653" lon="13.35294230118014"><ele>63.0</ele><time>2026-04-22T15:37:45.999Z</time></trkpt><trkpt lat="45.99696137998465" lon="13.352738690537274"><ele>63.0</ele><time>2026-04-22T15:37:46.999Z</time></trkpt><trkpt lat="45.997066617715504" lon="13.35253512382346"><ele>63.0</ele><time>2026-04-22T15:37:47.999Z</time></trkpt><trkpt lat="45.99718200747781" lon="13.352316762092071"><ele>63.0</ele><time>2026-04-22T15:37:48.999Z</time></trkpt><trkpt lat="45.997297419901436" lon="13.352083203397214"><ele>62.66666666666667</ele><time>2026-04-22T15:37:49.999Z</time></trkpt><trkpt lat="45.99743529359539" lon="13.351849701511757"><ele>62.333333333333336</ele><time>2026-04-22T15:37:50.999Z</time></trkpt><trkpt lat="45.99757295714919" lon="13.35159297675008"><ele>62.0</ele><time>2026-04-22T15:37:51.999Z</time></trkpt><trkpt lat="45.997717204765905" lon="13.351323143416717"><ele>61.5</ele><time>2026-04-22T15:37:52.999Z</time></trkpt><trkpt lat="45.99785682464643" lon="13.351035545227772"><ele>61.0</ele><time>2026-04-22T15:37:53.999Z</time></trkpt><trkpt lat="45.998011238767155" lon="13.350749675743918"><ele>61.0</ele><time>2026-04-22T15:37:54.999Z</time></trkpt><trkpt lat="45.99816554269059" lon="13.350454890182611"><ele>61.0</ele><time>2026-04-22T15:37:55.999Z</time></trkpt><trkpt lat="45.99832537231146" lon="13.350148668187918"><ele>61.0</ele><time>2026-04-22T15:37:56.999Z</time></trkpt><trkpt lat="45.998503553176555" lon="13.349851617526724"><ele>61.0</ele><time>2026-04-22T15:37:57.999Z</time></trkpt><trkpt lat="45.998660634332666" lon="13.34952486806179"><ele>62.5</ele><time>2026-04-22T15:37:58.999Z</time></trkpt><trkpt lat="45.99883764720485" lon="13.34921639857499"><ele>64.0</ele><time>2026-04-22T15:37:59.999Z</time></trkpt><trkpt lat="45.999011403226405" lon="13.348910535327812"><ele>64.5</ele><time>2026-04-22T15:38:00.999Z</time></trkpt><trkpt lat="45.9991767113196" lon="13.348603930783312"><ele>65.0</ele><time>2026-04-22T15:38:01.999Z</time></trkpt><trkpt lat="45.99933855364255" lon="13.348301922654972"><ele>65.0</ele><time>2026-04-22T15:38:02.999Z</time></trkpt><trkpt lat="45.99949773698131" lon="13.348005575138288"><ele>65.0</ele><time>2026-04-22T15:38:03.999Z</time></trkpt><trkpt lat="45.99965374160364" lon="13.347716985330065"><ele>65.0</ele><time>2026-04-22T15:38:04.999Z</time></trkpt><trkpt lat="45.99980834349761" lon="13.347432734538812"><ele>65.0</ele><time>2026-04-22T15:38:05.999Z</time></trkpt><trkpt lat="45.99995988668113" lon="13.347151069938759"><ele>64.5</ele><time>2026-04-22T15:38:06.999Z</time></trkpt><trkpt lat="46.000108306433845" lon="13.346873972201484"><ele>64.0</ele><time>2026-04-22T15:38:07.999Z</time></trkpt><trkpt lat="46.00025509842425" lon="13.34659939007652"><ele>63.5</ele><time>2026-04-22T15:38:08.999Z</time></trkpt><trkpt lat="46.000399298137616" lon="13.346327786844972"><ele>63.0</ele><time>2026-04-22T15:38:09.999Z</time></trkpt><trkpt lat="46.00054063040576" lon="13.346060821620357"><ele>63.0</ele><time>2026-04-22T15:38:10.999Z</time></trkpt><trkpt lat="46.0006817788448" lon="13.345798493571996"><ele>63.0</ele><time>2026-04-22T15:38:11.999Z</time></trkpt><trkpt lat="46.00081936213515" lon="13.345540544606157"><ele>63.0</ele><time>2026-04-22T15:38:12.999Z</time></trkpt><trkpt lat="46.00095698083282" lon="13.345279819184329"><ele>63.0</ele><time>2026-04-22T15:38:13.999Z</time></trkpt><trkpt lat="46.00109386849159" lon="13.34502197192155"><ele>63.0</ele><time>2026-04-22T15:38:14.999Z</time></trkpt><trkpt lat="46.001230212179166" lon="13.34476535462987"><ele>63.0</ele><time>2026-04-22T15:38:15.999Z</time></trkpt><trkpt lat="46.0013660093485" lon="13.344508649879957"><ele>63.0</ele><time>2026-04-22T15:38:16.999Z</time></trkpt><trkpt lat="46.001502178965694" lon="13.344251595801081"><ele>62.66666666666667</ele><time>2026-04-22T15:38:17.999Z</time></trkpt><trkpt lat="46.001638960844595" lon="13.34399657048679"><ele>62.333333333333336</ele><time>2026-04-22T15:38:18.999Z</time></trkpt><trkpt lat="46.00177479458191" lon="13.343742902378024"><ele>62.0</ele><time>2026-04-22T15:38:19.999Z</time></trkpt><trkpt lat="46.001909819914815" lon="13.343490507844887"><ele>62.66666666666667</ele><time>2026-04-22T15:38:20.999Z</time></trkpt><trkpt lat="46.002044241329806" lon="13.343240380357456"><ele>63.33333333333333</ele><time>2026-04-22T15:38:21.999Z</time></trkpt><trkpt lat="46.002176290372496" lon="13.342992423682082"><ele>64.0</ele><time>2026-04-22T15:38:22.999Z</time></trkpt><trkpt lat="46.0023110054961" lon="13.34274237582082"><ele>64.66666666666666</ele><time>2026-04-22T15:38:23.999Z</time></trkpt><trkpt lat="46.00244001048382" lon="13.342493367964671"><ele>65.33333333333333</ele><time>2026-04-22T15:38:24.999Z</time></trkpt><trkpt lat="46.00257013908804" lon="13.342246463249943"><ele>66.0</ele><time>2026-04-22T15:38:25.999Z</time></trkpt><trkpt lat="46.00269956687607" lon="13.342001335780319"><ele>66.0</ele><time>2026-04-22T15:38:26.999Z</time></trkpt><trkpt lat="46.00282987233983" lon="13.34175962456769"><ele>66.0</ele><time>2026-04-22T15:38:27.999Z</time></trkpt><trkpt lat="46.0029574021816" lon="13.341521132965262"><ele>66.0</ele><time>2026-04-22T15:38:28.999Z</time></trkpt><trkpt lat="46.003084210695924" lon="13.341285342793755"><ele>65.66666666666667</ele><time>2026-04-22T15:38:29.999Z</time></trkpt><trkpt lat="46.00321054121079" lon="13.341059206969017"><ele>65.33333333333334</ele><time>2026-04-22T15:38:30.999Z</time></trkpt><trkpt lat="46.00333302178557" lon="13.340834883721717"><ele>65.0</ele><time>2026-04-22T15:38:31.999Z</time></trkpt><trkpt lat="46.0034532985704" lon="13.34060611625212"><ele>66.33333333333334</ele><time>2026-04-22T15:38:32.999Z</time></trkpt><trkpt lat="46.00357417272669" lon="13.34038017318527"><ele>67.66666666666667</ele><time>2026-04-22T15:38:33.999Z</time></trkpt><trkpt lat="46.00369362698367" lon="13.34015557114426"><ele>69.0</ele><time>2026-04-22T15:38:34.999Z</time></trkpt><trkpt lat="46.003813653359096" lon="13.339934287941363"><ele>68.33333333333333</ele><time>2026-04-22T15:38:35.999Z</time></trkpt><trkpt lat="46.0039314896905" lon="13.339713535490597"><ele>67.66666666666666</ele><time>2026-04-22T15:38:36.999Z</time></trkpt><trkpt lat="46.004047279010514" lon="13.339487226331283"><ele>67.0</ele><time>2026-04-22T15:38:37.999Z</time></trkpt><trkpt lat="46.00416220267042" lon="13.339265478727823"><ele>67.0</ele><time>2026-04-22T15:38:38.999Z</time></trkpt><trkpt lat="46.00427802161608" lon="13.339050229332031"><ele>67.0</ele><time>2026-04-22T15:38:39.999Z</time></trkpt><trkpt lat="46.00439356225945" lon="13.338839958693077"><ele>67.0</ele><time>2026-04-22T15:38:40.999Z</time></trkpt><trkpt lat="46.00450639035922" lon="13.338627590608112"><ele>66.66666666666666</ele><time>2026-04-22T15:38:41.999Z</time></trkpt><trkpt lat="46.00461801938977" lon="13.338416963746308"><ele>66.33333333333333</ele><time>2026-04-22T15:38:42.999Z</time></trkpt><trkpt lat="46.00472854652639" lon="13.33820867936494"><ele>66.0</ele><time>2026-04-22T15:38:43.999Z</time></trkpt><trkpt lat="46.004838221761" lon="13.338002965307101"><ele>66.0</ele><time>2026-04-22T15:38:44.999Z</time></trkpt><trkpt lat="46.00494549798542" lon="13.337796054855112"><ele>66.0</ele><time>2026-04-22T15:38:45.999Z</time></trkpt><trkpt lat="46.005052166847925" lon="13.337584257200954"><ele>66.0</ele><time>2026-04-22T15:38:46.999Z</time></trkpt><trkpt lat="46.00516220044322" lon="13.33737137132438"><ele>66.66666666666667</ele><time>2026-04-22T15:38:47.999Z</time></trkpt><trkpt lat="46.005277397467765" lon="13.337162493597212"><ele>67.33333333333334</ele><time>2026-04-22T15:38:48.999Z</time></trkpt><trkpt lat="46.00539648635723" lon="13.33695549443791"><ele>68.0</ele><time>2026-04-22T15:38:49.999Z</time></trkpt><trkpt lat="46.00551475997395" lon="13.336742392529676"><ele>68.0</ele><time>2026-04-22T15:38:50.999Z</time></trkpt><trkpt lat="46.00563082875487" lon="13.336523648951047"><ele>68.0</ele><time>2026-04-22T15:38:51.999Z</time></trkpt><trkpt lat="46.0057453556449" lon="13.336300566068116"><ele>68.0</ele><time>2026-04-22T15:38:52.999Z</time></trkpt><trkpt lat="46.00586130930594" lon="13.336076410125765"><ele>68.0</ele><time>2026-04-22T15:38:53.999Z</time></trkpt><trkpt lat="46.00597824285933" lon="13.33585336119948"><ele>68.0</ele><time>2026-04-22T15:38:54.999Z</time></trkpt><trkpt lat="46.00609633777355" lon="13.335631100410971"><ele>68.0</ele><time>2026-04-22T15:38:55.999Z</time></trkpt><trkpt lat="46.00621419816976" lon="13.335410744026444"><ele>68.0</ele><time>2026-04-22T15:38:56.999Z</time></trkpt><trkpt lat="46.006328259186766" lon="13.335195212271731"><ele>68.0</ele><time>2026-04-22T15:38:57.999Z</time></trkpt><trkpt lat="46.00643636516313" lon="13.33499415295286"><ele>68.0</ele><time>2026-04-22T15:38:58.999Z</time></trkpt><trkpt lat="46.0065343004139" lon="13.33480691183699"><ele>68.0</ele><time>2026-04-22T15:38:59.999Z</time></trkpt><trkpt lat="46.00662670338088" lon="13.334629336870641"><ele>68.0</ele><time>2026-04-22T15:39:00.999Z</time></trkpt><trkpt lat="46.00671477021741" lon="13.334462024345884"><ele>68.0</ele><time>2026-04-22T15:39:01.999Z</time></trkpt><trkpt lat="46.00679996126944" lon="13.334304907718291"><ele>68.0</ele><time>2026-04-22T15:39:02.999Z</time></trkpt><trkpt lat="46.00688376038908" lon="13.334150211991975"><ele>68.0</ele><time>2026-04-22T15:39:03.999Z</time></trkpt><trkpt lat="46.006964888337706" lon="13.333999077382844"><ele>68.0</ele><time>2026-04-22T15:39:04.999Z</time></trkpt><trkpt lat="46.00704511497328" lon="13.333847507825048"><ele>68.0</ele><time>2026-04-22T15:39:05.999Z</time></trkpt><trkpt lat="46.007125767785205" lon="13.333691818305175"><ele>68.0</ele><time>2026-04-22T15:39:06.999Z</time></trkpt><trkpt lat="46.007208074945034" lon="13.333534823923932"><ele>68.25</ele><time>2026-04-22T15:39:07.999Z</time></trkpt><trkpt lat="46.00729133710462" lon="13.333378622709398"><ele>68.5</ele><time>2026-04-22T15:39:08.999Z</time></trkpt><trkpt lat="46.00737652619887" lon="13.33321931541343"><ele>68.75</ele><time>2026-04-22T15:39:09.999Z</time></trkpt><trkpt lat="46.00746242541057" lon="13.333056162473998"><ele>69.0</ele><time>2026-04-22T15:39:10.999Z</time></trkpt><trkpt lat="46.00754992928065" lon="13.332891365262887"><ele>69.0</ele><time>2026-04-22T15:39:11.999Z</time></trkpt><trkpt lat="46.007640930660024" lon="13.33272250680213"><ele>69.0</ele><time>2026-04-22T15:39:12.999Z</time></trkpt><trkpt lat="46.00773347529158" lon="13.332551873341865"><ele>69.0</ele><time>2026-04-22T15:39:13.999Z</time></trkpt><trkpt lat="46.00782528075427" lon="13.332379373380656"><ele>69.0</ele><time>2026-04-22T15:39:14.999Z</time></trkpt><trkpt lat="46.00791693584025" lon="13.332204415580273"><ele>69.0</ele><time>2026-04-22T15:39:15.999Z</time></trkpt><trkpt lat="46.00800732142492" lon="13.33203183776073"><ele>69.0</ele><time>2026-04-22T15:39:16.999Z</time></trkpt><trkpt lat="46.00809867542145" lon="13.331864050617432"><ele>69.0</ele><time>2026-04-22T15:39:17.999Z</time></trkpt><trkpt lat="46.00818933150331" lon="13.331697194835375"><ele>69.0</ele><time>2026-04-22T15:39:18.999Z</time></trkpt><trkpt lat="46.00827678760071" lon="13.33153138207277"><ele>69.0</ele><time>2026-04-22T15:39:19.999Z</time></trkpt><trkpt lat="46.00836207854239" lon="13.331365988224729"><ele>69.0</ele><time>2026-04-22T15:39:20.999Z</time></trkpt><trkpt lat="46.008444991859065" lon="13.331208253073543"><ele>69.0</ele><time>2026-04-22T15:39:21.999Z</time></trkpt><trkpt lat="46.00852487207072" lon="13.331056855643686"><ele>69.0</ele><time>2026-04-22T15:39:23Z</time></trkpt><trkpt lat="46.008602438850694" lon="13.330911663559812"><ele>69.0</ele><time>2026-04-22T15:39:24Z</time></trkpt><trkpt lat="46.00868159999047" lon="13.330768403416604"><ele>69.0</ele><time>2026-04-22T15:39:25Z</time></trkpt><trkpt lat="46.00875945452899" lon="13.330626778543142"><ele>69.0</ele><time>2026-04-22T15:39:26.001Z</time></trkpt><trkpt lat="46.00883219102459" lon="13.33049310824971"><ele>69.0</ele><time>2026-04-22T15:39:27.001Z</time></trkpt><trkpt lat="46.0089001970821" lon="13.3303697608575"><ele>69.0</ele><time>2026-04-22T15:39:28.001Z</time></trkpt><trkpt lat="46.00896449860456" lon="13.330253512746536"><ele>69.0</ele><time>2026-04-22T15:39:29.001Z</time></trkpt><trkpt lat="46.00902569718411" lon="13.330136779786748"><ele>69.0</ele><time>2026-04-22T15:39:30.001Z</time></trkpt><trkpt lat="46.00908788092413" lon="13.33001961811479"><ele>69.0</ele><time>2026-04-22T15:39:31.001Z</time></trkpt><trkpt lat="46.00914858479609" lon="13.329895437017635"><ele>69.0</ele><time>2026-04-22T15:39:32.001Z</time></trkpt><trkpt lat="46.00921616938202" lon="13.329768907034463"><ele>69.0</ele><time>2026-04-22T15:39:33.001Z</time></trkpt><trkpt lat="46.00928629545417" lon="13.329644628181018"><ele>69.0</ele><time>2026-04-22T15:39:34.001Z</time></trkpt><trkpt lat="46.009355681319775" lon="13.329535194251495"><ele>69.0</ele><time>2026-04-22T15:39:35.001Z</time></trkpt><trkpt lat="46.00941388667014" lon="13.329447586395222"><ele>69.2</ele><time>2026-04-22T15:39:36.001Z</time></trkpt><trkpt lat="46.00951089094286" lon="13.329341002327602"><ele>69.4</ele><time>2026-04-22T15:39:38.001Z</time></trkpt><trkpt lat="46.00960799168303" lon="13.329289392242787"><ele>69.6</ele><time>2026-04-22T15:39:40.001Z</time></trkpt><trkpt lat="46.00972601528584" lon="13.32927104155018"><ele>69.8</ele><time>2026-04-22T15:39:42Z</time></trkpt><trkpt lat="46.00979239675502" lon="13.329207146381814"><ele>70.0</ele><time>2026-04-22T15:39:43Z</time></trkpt><trkpt lat="46.00985839416235" lon="13.329131316031466"><ele>70.0</ele><time>2026-04-22T15:39:44Z</time></trkpt><trkpt lat="46.009856533239045" lon="13.3289743615404"><ele>70.0</ele><time>2026-04-22T15:39:45Z</time></trkpt><trkpt lat="46.009849066243945" lon="13.328841323310648"><ele>70.0</ele><time>2026-04-22T15:39:46Z</time></trkpt><trkpt lat="46.00984658796474" lon="13.328699361405782"><ele>70.0</ele><time>2026-04-22T15:39:47Z</time></trkpt><trkpt lat="46.00987556025566" lon="13.328555640349231"><ele>70.0</ele><time>2026-04-22T15:39:48Z</time></trkpt><trkpt lat="46.00992942941932" lon="13.32841987141579"><ele>70.25</ele><time>2026-04-22T15:39:49Z</time></trkpt><trkpt lat="46.01000456963048" lon="13.328275078437084"><ele>70.5</ele><time>2026-04-22T15:39:50Z</time></trkpt><trkpt lat="46.01008939785313" lon="13.32811976186754"><ele>70.75</ele><time>2026-04-22T15:39:51Z</time></trkpt><trkpt lat="46.0101757910721" lon="13.327953707022049"><ele>71.0</ele><time>2026-04-22T15:39:52Z</time></trkpt><trkpt lat="46.01026590038995" lon="13.327787002352323"><ele>71.0</ele><time>2026-04-22T15:39:53Z</time></trkpt><trkpt lat="46.01035435828286" lon="13.327618686997441"><ele>71.0</ele><time>2026-04-22T15:39:54Z</time></trkpt><trkpt lat="46.0104477697198" lon="13.327446982364291"><ele>71.0</ele><time>2026-04-22T15:39:55Z</time></trkpt><trkpt lat="46.01054180247064" lon="13.327270155608577"><ele>71.0</ele><time>2026-04-22T15:39:56Z</time></trkpt><trkpt lat="46.01063860787601" lon="13.327087812008937"><ele>71.0</ele><time>2026-04-22T15:39:57Z</time></trkpt><trkpt lat="46.010739764227296" lon="13.326898492924224"><ele>71.0</ele><time>2026-04-22T15:39:58Z</time></trkpt><trkpt lat="46.01084071090621" lon="13.32670992983433"><ele>70.66666666666667</ele><time>2026-04-22T15:39:59Z</time></trkpt><trkpt lat="46.010940902366016" lon="13.326521256711558"><ele>70.33333333333333</ele><time>2026-04-22T15:40:00Z</time></trkpt><trkpt lat="46.011041143626805" lon="13.326334030251957"><ele>70.0</ele><time>2026-04-22T15:40:01Z</time></trkpt><trkpt lat="46.01114189534619" lon="13.326146387217182"><ele>70.0</ele><time>2026-04-22T15:40:02Z</time></trkpt><trkpt lat="46.01124509409179" lon="13.325955396337543"><ele>70.0</ele><time>2026-04-22T15:40:03Z</time></trkpt><trkpt lat="46.01134614559475" lon="13.325763172587697"><ele>70.0</ele><time>2026-04-22T15:40:04Z</time></trkpt><trkpt lat="46.0114477249092" lon="13.325570270484143"><ele>70.0</ele><time>2026-04-22T15:40:05Z</time></trkpt><trkpt lat="46.01155044147751" lon="13.325380597847484"><ele>70.0</ele><time>2026-04-22T15:40:06Z</time></trkpt><trkpt lat="46.011651655151375" lon="13.325190903992175"><ele>70.0</ele><time>2026-04-22T15:40:07Z</time></trkpt><trkpt lat="46.011755753630105" lon="13.324996661684507"><ele>70.0</ele><time>2026-04-22T15:40:08Z</time></trkpt><trkpt lat="46.011861716333236" lon="13.324798862350839"><ele>70.0</ele><time>2026-04-22T15:40:09Z</time></trkpt><trkpt lat="46.01196601356945" lon="13.324599477326682"><ele>70.0</ele><time>2026-04-22T15:40:10Z</time></trkpt><trkpt lat="46.01206643694539" lon="13.324408432069227"><ele>70.0</ele><time>2026-04-22T15:40:11Z</time></trkpt><trkpt lat="46.01216665062114" lon="13.324229601662815"><ele>70.0</ele><time>2026-04-22T15:40:12Z</time></trkpt><trkpt lat="46.01226109075509" lon="13.324052068475332"><ele>70.0</ele><time>2026-04-22T15:40:13Z</time></trkpt><trkpt lat="46.01235151329849" lon="13.323874897847565"><ele>70.25</ele><time>2026-04-22T15:40:14Z</time></trkpt><trkpt lat="46.01244216466329" lon="13.323701742615684"><ele>70.5</ele><time>2026-04-22T15:40:15Z</time></trkpt><trkpt lat="46.012532402563686" lon="13.323536522159689"><ele>70.75</ele><time>2026-04-22T15:40:16Z</time></trkpt><trkpt lat="46.012620785999275" lon="13.323369435957627"><ele>71.0</ele><time>2026-04-22T15:40:17Z</time></trkpt><trkpt lat="46.01270854415129" lon="13.32320093531414"><ele>71.25</ele><time>2026-04-22T15:40:18Z</time></trkpt><trkpt lat="46.012797292518314" lon="13.323033589469892"><ele>71.5</ele><time>2026-04-22T15:40:19Z</time></trkpt><trkpt lat="46.01288796297619" lon="13.322863360608013"><ele>71.75</ele><time>2026-04-22T15:40:20Z</time></trkpt><trkpt lat="46.01297795825925" lon="13.32269633711583"><ele>72.0</ele><time>2026-04-22T15:40:21Z</time></trkpt><trkpt lat="46.013060974661485" lon="13.322539865705938"><ele>72.0</ele><time>2026-04-22T15:40:22Z</time></trkpt><trkpt lat="46.013136307991736" lon="13.322396198834982"><ele>72.0</ele><time>2026-04-22T15:40:23Z</time></trkpt><trkpt lat="46.01318998178707" lon="13.32229160168078"><ele>72.0</ele><time>2026-04-22T15:40:24Z</time></trkpt><trkpt lat="46.01323156233455" lon="13.322214667827668"><ele>72.0</ele><time>2026-04-22T15:40:25Z</time></trkpt><trkpt lat="46.01327111590259" lon="13.322141749773209"><ele>72.0</ele><time>2026-04-22T15:40:26Z</time></trkpt><trkpt lat="46.01333664799741" lon="13.32201716694394"><ele>72.2</ele><time>2026-04-22T15:40:28Z</time></trkpt><trkpt lat="46.01340187338837" lon="13.321899267089597"><ele>72.4</ele><time>2026-04-22T15:40:30Z</time></trkpt><trkpt lat="46.01345594929709" lon="13.321797291655574"><ele>72.6</ele><time>2026-04-22T15:40:32Z</time></trkpt><trkpt lat="46.01350803860649" lon="13.321698292097873"><ele>72.8</ele><time>2026-04-22T15:40:34Z</time></trkpt><trkpt lat="46.01356998170159" lon="13.321586769431727"><ele>73.0</ele><time>2026-04-22T15:40:36Z</time></trkpt><trkpt lat="46.0136467967178" lon="13.321437589996982"><ele>72.8</ele><time>2026-04-22T15:40:38Z</time></trkpt><trkpt lat="46.013700999185104" lon="13.321334422489198"><ele>72.6</ele><time>2026-04-22T15:40:39Z</time></trkpt><trkpt lat="46.01376902079983" lon="13.321207724745353"><ele>72.4</ele><time>2026-04-22T15:40:40Z</time></trkpt><trkpt lat="46.013844237792746" lon="13.321079438591738"><ele>72.2</ele><time>2026-04-22T15:40:41Z</time></trkpt><trkpt lat="46.0139185416128" lon="13.320978238935295"><ele>72.0</ele><time>2026-04-22T15:40:42Z</time></trkpt><trkpt lat="46.013981779365615" lon="13.320899035003821"><ele>72.0</ele><time>2026-04-22T15:40:43Z</time></trkpt><trkpt lat="46.014041063131806" lon="13.32082841489658"><ele>72.0</ele><time>2026-04-22T15:40:44Z</time></trkpt><trkpt lat="46.01411727446197" lon="13.320779480019388"><ele>72.0</ele><time>2026-04-22T15:40:45Z</time></trkpt><trkpt lat="46.01419594059193" lon="13.320742581647934"><ele>72.0</ele><time>2026-04-22T15:40:46Z</time></trkpt><trkpt lat="46.01425990343349" lon="13.320692867942578"><ele>72.0</ele><time>2026-04-22T15:40:47Z</time></trkpt><trkpt lat="46.01430438302546" lon="13.320615508537637"><ele>72.0</ele><time>2026-04-22T15:40:48Z</time></trkpt><trkpt lat="46.01432589622026" lon="13.32051644957225"><ele>71.83333333333333</ele><time>2026-04-22T15:40:49Z</time></trkpt><trkpt lat="46.01433087304954" lon="13.32040406319243"><ele>71.66666666666667</ele><time>2026-04-22T15:40:50Z</time></trkpt><trkpt lat="46.01433707163799" lon="13.320289380124985"><ele>71.5</ele><time>2026-04-22T15:40:51Z</time></trkpt><trkpt lat="46.014356189750686" lon="13.32017650109234"><ele>71.33333333333334</ele><time>2026-04-22T15:40:52Z</time></trkpt><trkpt lat="46.014393714906305" lon="13.320074862765576"><ele>71.16666666666667</ele><time>2026-04-22T15:40:53Z</time></trkpt><trkpt lat="46.014438988861606" lon="13.319978703571014"><ele>71.0</ele><time>2026-04-22T15:40:54Z</time></trkpt><trkpt lat="46.01448685496917" lon="13.319883459328194"><ele>71.0</ele><time>2026-04-22T15:40:55Z</time></trkpt><trkpt lat="46.0145372846102" lon="13.319781680704375"><ele>71.0</ele><time>2026-04-22T15:40:56Z</time></trkpt><trkpt lat="46.01458709862184" lon="13.319675313146407"><ele>71.0</ele><time>2026-04-22T15:40:57Z</time></trkpt><trkpt lat="46.01464258341737" lon="13.31957154977744"><ele>71.0</ele><time>2026-04-22T15:40:58Z</time></trkpt><trkpt lat="46.01469945071774" lon="13.319465470213679"><ele>71.0</ele><time>2026-04-22T15:40:59Z</time></trkpt><trkpt lat="46.01475606286873" lon="13.319354705056671"><ele>70.75</ele><time>2026-04-22T15:41:00Z</time></trkpt><trkpt lat="46.01482179752672" lon="13.319226127887578"><ele>70.5</ele><time>2026-04-22T15:41:01Z</time></trkpt><trkpt lat="46.014918426254944" lon="13.319074090061227"><ele>70.25</ele><time>2026-04-22T15:41:02Z</time></trkpt><trkpt lat="46.01502270346933" lon="13.318879632657557"><ele>70.0</ele><time>2026-04-22T15:41:03Z</time></trkpt><trkpt lat="46.01511997561844" lon="13.318676101442339"><ele>70.75</ele><time>2026-04-22T15:41:04Z</time></trkpt><trkpt lat="46.01520149428703" lon="13.318505098141909"><ele>71.5</ele><time>2026-04-22T15:41:05Z</time></trkpt><trkpt lat="46.01527733265421" lon="13.318343702465771"><ele>72.25</ele><time>2026-04-22T15:41:06Z</time></trkpt><trkpt lat="46.01534791769012" lon="13.31818137134636"><ele>73.0</ele><time>2026-04-22T15:41:07Z</time></trkpt><trkpt lat="46.01541387022588" lon="13.318008686745664"><ele>73.0</ele><time>2026-04-22T15:41:08Z</time></trkpt><trkpt lat="46.01548075590888" lon="13.317818412964732"><ele>73.0</ele><time>2026-04-22T15:41:09Z</time></trkpt><trkpt lat="46.015549816863334" lon="13.317620513401886"><ele>73.0</ele><time>2026-04-22T15:41:10Z</time></trkpt><trkpt lat="46.01561154593975" lon="13.317420103438463"><ele>72.75</ele><time>2026-04-22T15:41:11Z</time></trkpt><trkpt lat="46.01566561625601" lon="13.317222780060407"><ele>72.5</ele><time>2026-04-22T15:41:12Z</time></trkpt><trkpt lat="46.01571648431836" lon="13.317024698149806"><ele>72.25</ele><time>2026-04-22T15:41:13Z</time></trkpt><trkpt lat="46.01576401458154" lon="13.31682523263844"><ele>72.0</ele><time>2026-04-22T15:41:14Z</time></trkpt><trkpt lat="46.015804580278164" lon="13.316620711730325"><ele>72.0</ele><time>2026-04-22T15:41:15Z</time></trkpt><trkpt lat="46.015836654102394" lon="13.316429590403263"><ele>72.0</ele><time>2026-04-22T15:41:16Z</time></trkpt><trkpt lat="46.01586331697372" lon="13.31624650360084"><ele>72.0</ele><time>2026-04-22T15:41:17Z</time></trkpt><trkpt lat="46.01588869315242" lon="13.316059139524082"><ele>72.0</ele><time>2026-04-22T15:41:18Z</time></trkpt><trkpt lat="46.01591949388586" lon="13.315853691613029"><ele>73.0</ele><time>2026-04-22T15:41:19Z</time></trkpt><trkpt lat="46.01595688948401" lon="13.315600537629475"><ele>74.0</ele><time>2026-04-22T15:41:20Z</time></trkpt><trkpt lat="46.01600054962175" lon="13.31532163204238"><ele>75.0</ele><time>2026-04-22T15:41:21Z</time></trkpt><trkpt lat="46.01604370501863" lon="13.31504174438257"><ele>75.66666666666667</ele><time>2026-04-22T15:41:22Z</time></trkpt><trkpt lat="46.01608320611892" lon="13.31476883698284"><ele>76.33333333333334</ele><time>2026-04-22T15:41:23Z</time></trkpt><trkpt lat="46.016119316568044" lon="13.31451241837502"><ele>77.0</ele><time>2026-04-22T15:41:24Z</time></trkpt><trkpt lat="46.0161542954687" lon="13.314280891583262"><ele>77.0</ele><time>2026-04-22T15:41:25Z</time></trkpt><trkpt lat="46.016186792466215" lon="13.314064062840107"><ele>77.0</ele><time>2026-04-22T15:41:26Z</time></trkpt><trkpt lat="46.01621668321511" lon="13.313862627485042"><ele>77.0</ele><time>2026-04-22T15:41:26.999Z</time></trkpt><trkpt lat="46.01624472073782" lon="13.313668079825883"><ele>77.0</ele><time>2026-04-22T15:41:27.999Z</time></trkpt><trkpt lat="46.016274735580744" lon="13.31347466165551"><ele>76.0</ele><time>2026-04-22T15:41:29.001Z</time></trkpt><trkpt lat="46.016301901217126" lon="13.313295462430032"><ele>75.0</ele><time>2026-04-22T15:41:30.001Z</time></trkpt><trkpt lat="46.016327756054594" lon="13.31312300194892"><ele>74.0</ele><time>2026-04-22T15:41:31.001Z</time></trkpt><trkpt lat="46.01635335329127" lon="13.312954314739464"><ele>73.0</ele><time>2026-04-22T15:41:32.001Z</time></trkpt><trkpt lat="46.01637664301121" lon="13.312799147164544"><ele>72.5</ele><time>2026-04-22T15:41:33.001Z</time></trkpt><trkpt lat="46.01640020787248" lon="13.312634773638342"><ele>72.0</ele><time>2026-04-22T15:41:34.001Z</time></trkpt><trkpt lat="46.01642335726414" lon="13.312460866532076"><ele>71.5</ele><time>2026-04-22T15:41:35.001Z</time></trkpt><trkpt lat="46.01644881868326" lon="13.312276726422311"><ele>71.0</ele><time>2026-04-22T15:41:36.001Z</time></trkpt><trkpt lat="46.01647740513119" lon="13.31207760458707"><ele>70.8</ele><time>2026-04-22T15:41:37.001Z</time></trkpt><trkpt lat="46.01650578728745" lon="13.31190629554312"><ele>70.6</ele><time>2026-04-22T15:41:38.001Z</time></trkpt><trkpt lat="46.01653105180992" lon="13.311755475341243"><ele>70.4</ele><time>2026-04-22T15:41:39.001Z</time></trkpt><trkpt lat="46.01655261395091" lon="13.31161623138124"><ele>70.2</ele><time>2026-04-22T15:41:40.001Z</time></trkpt><trkpt lat="46.016573262077245" lon="13.311476078916751"><ele>70.0</ele><time>2026-04-22T15:41:41.001Z</time></trkpt><trkpt lat="46.01658940494202" lon="13.311363678061653"><ele>69.8</ele><time>2026-04-22T15:41:42.001Z</time></trkpt><trkpt lat="46.01660492967769" lon="13.311256938488631"><ele>69.6</ele><time>2026-04-22T15:41:43.001Z</time></trkpt><trkpt lat="46.016624359390946" lon="13.311119859638248"><ele>69.4</ele><time>2026-04-22T15:41:44.001Z</time></trkpt><trkpt lat="46.01664819554158" lon="13.310946302109492"><ele>69.2</ele><time>2026-04-22T15:41:45Z</time></trkpt><trkpt lat="46.016677568772145" lon="13.310759924678925"><ele>69.0</ele><time>2026-04-22T15:41:46Z</time></trkpt><trkpt lat="46.0167051478071" lon="13.310609416379252"><ele>70.2</ele><time>2026-04-22T15:41:47Z</time></trkpt><trkpt lat="46.01672910431292" lon="13.310465213409806"><ele>71.4</ele><time>2026-04-22T15:41:48Z</time></trkpt><trkpt lat="46.01675256318608" lon="13.310316674680339"><ele>72.6</ele><time>2026-04-22T15:41:49Z</time></trkpt><trkpt lat="46.016776639571525" lon="13.31016685994615"><ele>73.8</ele><time>2026-04-22T15:41:50Z</time></trkpt><trkpt lat="46.01680238160715" lon="13.310003049841114"><ele>75.0</ele><time>2026-04-22T15:41:51Z</time></trkpt><trkpt lat="46.016828861293604" lon="13.309824957754193"><ele>74.75</ele><time>2026-04-22T15:41:52Z</time></trkpt><trkpt lat="46.016856802722266" lon="13.309640802692924"><ele>74.5</ele><time>2026-04-22T15:41:53Z</time></trkpt><trkpt lat="46.016881397359754" lon="13.309455441306456"><ele>74.25</ele><time>2026-04-22T15:41:54Z</time></trkpt><trkpt lat="46.016905622232194" lon="13.30927631748725"><ele>74.0</ele><time>2026-04-22T15:41:55Z</time></trkpt><trkpt lat="46.01693011449218" lon="13.309103315349416"><ele>74.0</ele><time>2026-04-22T15:41:56Z</time></trkpt><trkpt lat="46.01695413701377" lon="13.3089358224571"><ele>74.0</ele><time>2026-04-22T15:41:57Z</time></trkpt><trkpt lat="46.0169786664132" lon="13.308768457337449"><ele>74.0</ele><time>2026-04-22T15:41:58Z</time></trkpt><trkpt lat="46.0170030743031" lon="13.308596519802732"><ele>74.0</ele><time>2026-04-22T15:41:59Z</time></trkpt><trkpt lat="46.01703061060953" lon="13.308414727512456"><ele>74.0</ele><time>2026-04-22T15:42:00Z</time></trkpt><trkpt lat="46.01705827242745" lon="13.30822527068353"><ele>74.0</ele><time>2026-04-22T15:42:01Z</time></trkpt><trkpt lat="46.01708629397871" lon="13.308033309483122"><ele>74.0</ele><time>2026-04-22T15:42:02Z</time></trkpt><trkpt lat="46.01711374493024" lon="13.307818955767129"><ele>74.0</ele><time>2026-04-22T15:42:03Z</time></trkpt><trkpt lat="46.01716938340719" lon="13.307531586695843"><ele>74.0</ele><time>2026-04-22T15:42:04Z</time></trkpt><trkpt lat="46.01719747088811" lon="13.307290155461882"><ele>74.0</ele><time>2026-04-22T15:42:05Z</time></trkpt><trkpt lat="46.017227989606766" lon="13.307086425174251"><ele>74.0</ele><time>2026-04-22T15:42:06Z</time></trkpt><trkpt lat="46.01725219146834" lon="13.306919404132717"><ele>74.0</ele><time>2026-04-22T15:42:07Z</time></trkpt><trkpt lat="46.01727284710907" lon="13.306775101136967"><ele>74.2</ele><time>2026-04-22T15:42:08Z</time></trkpt><trkpt lat="46.01729349757081" lon="13.306632420648794"><ele>74.4</ele><time>2026-04-22T15:42:09Z</time></trkpt><trkpt lat="46.017317949490014" lon="13.306468551925231"><ele>74.6</ele><time>2026-04-22T15:42:10Z</time></trkpt><trkpt lat="46.017335331885825" lon="13.306325532759551"><ele>74.8</ele><time>2026-04-22T15:42:11Z</time></trkpt><trkpt lat="46.017349390515335" lon="13.306207668719138"><ele>75.0</ele><time>2026-04-22T15:42:12Z</time></trkpt><trkpt lat="46.01736424872556" lon="13.306094838838339"><ele>75.0</ele><time>2026-04-22T15:42:13Z</time></trkpt><trkpt lat="46.01737861357208" lon="13.305979008948201"><ele>75.0</ele><time>2026-04-22T15:42:14Z</time></trkpt><trkpt lat="46.01739842965055" lon="13.305853840786668"><ele>75.0</ele><time>2026-04-22T15:42:15Z</time></trkpt><trkpt lat="46.01742105335021" lon="13.305695660951354"><ele>75.0</ele><time>2026-04-22T15:42:16Z</time></trkpt><trkpt lat="46.017448688037646" lon="13.305508332467365"><ele>75.0</ele><time>2026-04-22T15:42:17Z</time></trkpt><trkpt lat="46.017483660784755" lon="13.305300480923188"><ele>74.75</ele><time>2026-04-22T15:42:18Z</time></trkpt><trkpt lat="46.01752156996725" lon="13.305081410498182"><ele>74.5</ele><time>2026-04-22T15:42:19Z</time></trkpt><trkpt lat="46.017561516664934" lon="13.304875468394883"><ele>74.25</ele><time>2026-04-22T15:42:20Z</time></trkpt><trkpt lat="46.017598255905064" lon="13.30470037554978"><ele>74.0</ele><time>2026-04-22T15:42:21Z</time></trkpt><trkpt lat="46.017626889501145" lon="13.304552591529959"><ele>74.0</ele><time>2026-04-22T15:42:22Z</time></trkpt><trkpt lat="46.017650459107294" lon="13.304428942904476"><ele>74.0</ele><time>2026-04-22T15:42:23Z</time></trkpt><trkpt lat="46.01769001931564" lon="13.304327975204346"><ele>74.0</ele><time>2026-04-22T15:42:24Z</time></trkpt><trkpt lat="46.017751141888915" lon="13.30424959492483"><ele>74.0</ele><time>2026-04-22T15:42:25Z</time></trkpt><trkpt lat="46.017821328958576" lon="13.304170043095963"><ele>74.0</ele><time>2026-04-22T15:42:26Z</time></trkpt><trkpt lat="46.01786388382652" lon="13.304078294235888"><ele>74.0</ele><time>2026-04-22T15:42:27Z</time></trkpt><trkpt lat="46.01789058568769" lon="13.30396485190795"><ele>73.8</ele><time>2026-04-22T15:42:28Z</time></trkpt><trkpt lat="46.017885657056006" lon="13.303840282925535"><ele>73.60000000000001</ele><time>2026-04-22T15:42:29Z</time></trkpt><trkpt lat="46.01784496431094" lon="13.303710172049694"><ele>73.4</ele><time>2026-04-22T15:42:30Z</time></trkpt><trkpt lat="46.01780953919899" lon="13.303568764586593"><ele>73.2</ele><time>2026-04-22T15:42:31Z</time></trkpt><trkpt lat="46.0177957410304" lon="13.303407815166464"><ele>73.0</ele><time>2026-04-22T15:42:32Z</time></trkpt><trkpt lat="46.017806951546234" lon="13.303239244348175"><ele>73.6</ele><time>2026-04-22T15:42:33Z</time></trkpt><trkpt lat="46.01782983174221" lon="13.303069700316026"><ele>74.19999999999999</ele><time>2026-04-22T15:42:34Z</time></trkpt><trkpt lat="46.01784840153685" lon="13.302921918865554"><ele>74.8</ele><time>2026-04-22T15:42:35Z</time></trkpt><trkpt lat="46.01786866283407" lon="13.302779487898855"><ele>75.39999999999999</ele><time>2026-04-22T15:42:36Z</time></trkpt><trkpt lat="46.01789121136103" lon="13.302630940301816"><ele>76.0</ele><time>2026-04-22T15:42:37Z</time></trkpt><trkpt lat="46.017914588489894" lon="13.30246956856118"><ele>76.0</ele><time>2026-04-22T15:42:38Z</time></trkpt><trkpt lat="46.01794108745462" lon="13.3022980299454"><ele>76.0</ele><time>2026-04-22T15:42:39Z</time></trkpt><trkpt lat="46.017970084984434" lon="13.302118552005146"><ele>76.0</ele><time>2026-04-22T15:42:40Z</time></trkpt><trkpt lat="46.01799639634399" lon="13.301933530303588"><ele>76.0</ele><time>2026-04-22T15:42:41Z</time></trkpt><trkpt lat="46.018022558349216" lon="13.301752594376053"><ele>76.0</ele><time>2026-04-22T15:42:42Z</time></trkpt><trkpt lat="46.018050569376825" lon="13.301573752393994"><ele>76.0</ele><time>2026-04-22T15:42:43Z</time></trkpt><trkpt lat="46.01807715511369" lon="13.301394680967304"><ele>76.0</ele><time>2026-04-22T15:42:44Z</time></trkpt><trkpt lat="46.0181037739942" lon="13.301211659621957"><ele>76.0</ele><time>2026-04-22T15:42:45Z</time></trkpt><trkpt lat="46.018131856374865" lon="13.301029749908544"><ele>75.5</ele><time>2026-04-22T15:42:46Z</time></trkpt><trkpt lat="46.01816055472364" lon="13.300847284990525"><ele>75.0</ele><time>2026-04-22T15:42:47Z</time></trkpt><trkpt lat="46.01818607485414" lon="13.300662832409216"><ele>74.5</ele><time>2026-04-22T15:42:48Z</time></trkpt><trkpt lat="46.01821355344658" lon="13.300475678339152"><ele>74.0</ele><time>2026-04-22T15:42:49Z</time></trkpt><trkpt lat="46.018243053746176" lon="13.300288251527311"><ele>73.75</ele><time>2026-04-22T15:42:50Z</time></trkpt><trkpt lat="46.01827042220274" lon="13.300099443545113"><ele>73.5</ele><time>2026-04-22T15:42:51Z</time></trkpt><trkpt lat="46.01829783820601" lon="13.299906491342435"><ele>73.25</ele><time>2026-04-22T15:42:52Z</time></trkpt><trkpt lat="46.018328116344215" lon="13.299701075634474"><ele>73.0</ele><time>2026-04-22T15:42:53Z</time></trkpt><trkpt lat="46.01835515073245" lon="13.299499048660635"><ele>74.0</ele><time>2026-04-22T15:42:54Z</time></trkpt><trkpt lat="46.0183824790168" lon="13.299299046489338"><ele>75.0</ele><time>2026-04-22T15:42:55Z</time></trkpt><trkpt lat="46.01841107849616" lon="13.299104377284273"><ele>76.0</ele><time>2026-04-22T15:42:56Z</time></trkpt><trkpt lat="46.01843859865404" lon="13.298911665687175"><ele>77.0</ele><time>2026-04-22T15:42:57Z</time></trkpt><trkpt lat="46.0184634485426" lon="13.298717950860908"><ele>77.0</ele><time>2026-04-22T15:42:58Z</time></trkpt><trkpt lat="46.01848776217762" lon="13.298521174836011"><ele>77.0</ele><time>2026-04-22T15:42:59Z</time></trkpt><trkpt lat="46.018512195118944" lon="13.2983154670251"><ele>77.0</ele><time>2026-04-22T15:43:00Z</time></trkpt><trkpt lat="46.01853661855038" lon="13.298102331228252"><ele>77.0</ele><time>2026-04-22T15:43:01Z</time></trkpt><trkpt lat="46.018561340586054" lon="13.297883968886879"><ele>77.25</ele><time>2026-04-22T15:43:02Z</time></trkpt><trkpt lat="46.01858205569821" lon="13.29767188669045"><ele>77.5</ele><time>2026-04-22T15:43:03Z</time></trkpt><trkpt lat="46.018601073142165" lon="13.297461130834867"><ele>77.75</ele><time>2026-04-22T15:43:04Z</time></trkpt><trkpt lat="46.01862131971716" lon="13.297247694397837"><ele>78.0</ele><time>2026-04-22T15:43:05Z</time></trkpt><trkpt lat="46.0186402137423" lon="13.297041782103722"><ele>77.25</ele><time>2026-04-22T15:43:06Z</time></trkpt><trkpt lat="46.01865730125906" lon="13.296847659403335"><ele>76.5</ele><time>2026-04-22T15:43:07Z</time></trkpt><trkpt lat="46.018674907102444" lon="13.29665444045176"><ele>75.75</ele><time>2026-04-22T15:43:08Z</time></trkpt><trkpt lat="46.018692855671006" lon="13.296463107063598"><ele>75.0</ele><time>2026-04-22T15:43:09Z</time></trkpt><trkpt lat="46.01871183487774" lon="13.296275060191467"><ele>74.75</ele><time>2026-04-22T15:43:10Z</time></trkpt><trkpt lat="46.01872886545026" lon="13.29609173303782"><ele>74.5</ele><time>2026-04-22T15:43:11Z</time></trkpt><trkpt lat="46.01874384757017" lon="13.295915534763113"><ele>74.25</ele><time>2026-04-22T15:43:12Z</time></trkpt><trkpt lat="46.01876001468877" lon="13.295749106459043"><ele>74.0</ele><time>2026-04-22T15:43:13Z</time></trkpt><trkpt lat="46.018774321862786" lon="13.295590485174838"><ele>74.0</ele><time>2026-04-22T15:43:14Z</time></trkpt><trkpt lat="46.01878848914261" lon="13.295447374661375"><ele>74.0</ele><time>2026-04-22T15:43:15Z</time></trkpt><trkpt lat="46.01880182370739" lon="13.295304266355153"><ele>74.0</ele><time>2026-04-22T15:43:16Z</time></trkpt><trkpt lat="46.01881271310945" lon="13.295149605046733"><ele>74.0</ele><time>2026-04-22T15:43:17Z</time></trkpt><trkpt lat="46.01882811586092" lon="13.294987447597892"><ele>74.0</ele><time>2026-04-22T15:43:18Z</time></trkpt><trkpt lat="46.01884285254751" lon="13.294816735309587"><ele>74.75</ele><time>2026-04-22T15:43:19Z</time></trkpt><trkpt lat="46.018859742108276" lon="13.294649331749927"><ele>75.5</ele><time>2026-04-22T15:43:20Z</time></trkpt><trkpt lat="46.01887574179727" lon="13.294479214972778"><ele>76.25</ele><time>2026-04-22T15:43:21Z</time></trkpt><trkpt lat="46.0188911151563" lon="13.294303356022692"><ele>77.0</ele><time>2026-04-22T15:43:22Z</time></trkpt><trkpt lat="46.01890786146056" lon="13.294129662003176"><ele>77.0</ele><time>2026-04-22T15:43:23Z</time></trkpt><trkpt lat="46.018923395319554" lon="13.29395870452505"><ele>77.0</ele><time>2026-04-22T15:43:24Z</time></trkpt><trkpt lat="46.018938271376896" lon="13.293791575205518"><ele>77.0</ele><time>2026-04-22T15:43:24.999Z</time></trkpt><trkpt lat="46.018952423862736" lon="13.293626847146603"><ele>77.0</ele><time>2026-04-22T15:43:25.999Z</time></trkpt><trkpt lat="46.01896673356291" lon="13.29346470570616"><ele>77.0</ele><time>2026-04-22T15:43:26.999Z</time></trkpt><trkpt lat="46.01898271624897" lon="13.293304907210212"><ele>77.0</ele><time>2026-04-22T15:43:27.999Z</time></trkpt><trkpt lat="46.01899699064703" lon="13.293154108033908"><ele>77.0</ele><time>2026-04-22T15:43:28.999Z</time></trkpt><trkpt lat="46.01900908645766" lon="13.293013118393377"><ele>77.0</ele><time>2026-04-22T15:43:29.999Z</time></trkpt><trkpt lat="46.01902064298705" lon="13.292876009447875"><ele>77.0</ele><time>2026-04-22T15:43:30.999Z</time></trkpt><trkpt lat="46.019033225423556" lon="13.292740292519927"><ele>77.0</ele><time>2026-04-22T15:43:31.999Z</time></trkpt><trkpt lat="46.01904664747428" lon="13.292606376046848"><ele>77.0</ele><time>2026-04-22T15:43:32.999Z</time></trkpt><trkpt lat="46.01905732236161" lon="13.292484209913631"><ele>77.0</ele><time>2026-04-22T15:43:33.999Z</time></trkpt><trkpt lat="46.01906784605808" lon="13.292365153882766"><ele>77.0</ele><time>2026-04-22T15:43:35Z</time></trkpt><trkpt lat="46.019078165638994" lon="13.292243662923049"><ele>77.0</ele><time>2026-04-22T15:43:36Z</time></trkpt><trkpt lat="46.019088115237224" lon="13.29212400976394"><ele>77.0</ele><time>2026-04-22T15:43:37Z</time></trkpt><trkpt lat="46.019097553147176" lon="13.29200827957828"><ele>77.0</ele><time>2026-04-22T15:43:38Z</time></trkpt><trkpt lat="46.01910844703272" lon="13.291891237088338"><ele>77.0</ele><time>2026-04-22T15:43:39Z</time></trkpt><trkpt lat="46.01911962500962" lon="13.29177450416234"><ele>77.0</ele><time>2026-04-22T15:43:40Z</time></trkpt><trkpt lat="46.0191300529253" lon="13.29165947723225"><ele>77.0</ele><time>2026-04-22T15:43:41Z</time></trkpt><trkpt lat="46.0191393222032" lon="13.291550048447824"><ele>77.0</ele><time>2026-04-22T15:43:42Z</time></trkpt><trkpt lat="46.01914928171293" lon="13.291440935786238"><ele>77.0</ele><time>2026-04-22T15:43:43Z</time></trkpt><trkpt lat="46.019158683027236" lon="13.291335885011065"><ele>77.16666666666667</ele><time>2026-04-22T15:43:44Z</time></trkpt><trkpt lat="46.019165326186815" lon="13.291241144401223"><ele>77.33333333333334</ele><time>2026-04-22T15:43:45Z</time></trkpt><trkpt lat="46.019180545501044" lon="13.291082163317043"><ele>77.5</ele><time>2026-04-22T15:43:47Z</time></trkpt><trkpt lat="46.01918921450207" lon="13.29099097036362"><ele>77.66666666666667</ele><time>2026-04-22T15:43:48Z</time></trkpt><trkpt lat="46.01920248685546" lon="13.29088487641537"><ele>77.83333333333333</ele><time>2026-04-22T15:43:49Z</time></trkpt><trkpt lat="46.01921053849836" lon="13.290750088379028"><ele>78.0</ele><time>2026-04-22T15:43:50Z</time></trkpt><trkpt lat="46.019225818969566" lon="13.290589359548267"><ele>78.25</ele><time>2026-04-22T15:43:51Z</time></trkpt><trkpt lat="46.01924346944063" lon="13.290413234587888"><ele>78.5</ele><time>2026-04-22T15:43:52Z</time></trkpt><trkpt lat="46.01925724258255" lon="13.290234884854184"><ele>78.75</ele><time>2026-04-22T15:43:53Z</time></trkpt><trkpt lat="46.019272384606644" lon="13.290048532501455"><ele>79.0</ele><time>2026-04-22T15:43:54Z</time></trkpt><trkpt lat="46.01929077722804" lon="13.289853913216527"><ele>78.5</ele><time>2026-04-22T15:43:55Z</time></trkpt><trkpt lat="46.01931010506193" lon="13.289652493112522"><ele>78.0</ele><time>2026-04-22T15:43:56Z</time></trkpt><trkpt lat="46.019328583526104" lon="13.289445759058523"><ele>77.5</ele><time>2026-04-22T15:43:57Z</time></trkpt><trkpt lat="46.019348098119934" lon="13.289235615533688"><ele>77.0</ele><time>2026-04-22T15:43:58Z</time></trkpt><trkpt lat="46.01936816455295" lon="13.289023353856871"><ele>77.5</ele><time>2026-04-22T15:43:59Z</time></trkpt><trkpt lat="46.019386393919156" lon="13.288816270225324"><ele>78.0</ele><time>2026-04-22T15:44:00Z</time></trkpt><trkpt lat="46.01940561530197" lon="13.28861405961867"><ele>78.5</ele><time>2026-04-22T15:44:01Z</time></trkpt><trkpt lat="46.01942367169313" lon="13.288414639375391"><ele>79.0</ele><time>2026-04-22T15:44:02Z</time></trkpt><trkpt lat="46.019439986172145" lon="13.288217972209528"><ele>78.75</ele><time>2026-04-22T15:44:03Z</time></trkpt><trkpt lat="46.01945737418832" lon="13.288027594622852"><ele>78.5</ele><time>2026-04-22T15:44:04Z</time></trkpt><trkpt lat="46.019477045302374" lon="13.287841329623904"><ele>78.25</ele><time>2026-04-22T15:44:05Z</time></trkpt><trkpt lat="46.01949442746851" lon="13.287657194207922"><ele>78.0</ele><time>2026-04-22T15:44:06Z</time></trkpt><trkpt lat="46.01951195901628" lon="13.287474791236908"><ele>78.0</ele><time>2026-04-22T15:44:07Z</time></trkpt><trkpt lat="46.019532262398926" lon="13.287300258094897"><ele>78.0</ele><time>2026-04-22T15:44:08Z</time></trkpt><trkpt lat="46.0195509852751" lon="13.287132246621882"><ele>78.0</ele><time>2026-04-22T15:44:09Z</time></trkpt><trkpt lat="46.01957045360157" lon="13.286966668409278"><ele>78.0</ele><time>2026-04-22T15:44:10Z</time></trkpt><trkpt lat="46.01959215567358" lon="13.286807209778717"><ele>78.0</ele><time>2026-04-22T15:44:11Z</time></trkpt><trkpt lat="46.01961467285866" lon="13.286665662195372"><ele>78.0</ele><time>2026-04-22T15:44:12Z</time></trkpt><trkpt lat="46.01963381865485" lon="13.28654608517357"><ele>78.0</ele><time>2026-04-22T15:44:13Z</time></trkpt><trkpt lat="46.01964888985708" lon="13.286447917159125"><ele>78.0</ele><time>2026-04-22T15:44:14Z</time></trkpt><trkpt lat="46.01967657047047" lon="13.286294447308192"><ele>78.0</ele><time>2026-04-22T15:44:16Z</time></trkpt><trkpt lat="46.019706609492886" lon="13.286143929527219"><ele>78.0</ele><time>2026-04-22T15:44:18Z</time></trkpt><trkpt lat="46.019738843602234" lon="13.285986410089807"><ele>78.0</ele><time>2026-04-22T15:44:20Z</time></trkpt><trkpt lat="46.0197813425678" lon="13.285896963094503"><ele>78.0</ele><time>2026-04-22T15:44:23Z</time></trkpt><trkpt lat="46.01984936602773" lon="13.285814675615763"><ele>78.0</ele><time>2026-04-22T15:44:25Z</time></trkpt><trkpt lat="46.01990918706382" lon="13.285751456451182"><ele>78.0</ele><time>2026-04-22T15:44:26Z</time></trkpt><trkpt lat="46.01996098192369" lon="13.285660836663117"><ele>78.0</ele><time>2026-04-22T15:44:27Z</time></trkpt><trkpt lat="46.01998411038021" lon="13.28555459331977"><ele>77.83333333333333</ele><time>2026-04-22T15:44:28Z</time></trkpt><trkpt lat="46.01998513568199" lon="13.285447309211138"><ele>77.66666666666667</ele><time>2026-04-22T15:44:29Z</time></trkpt><trkpt lat="46.019949073086195" lon="13.28534335751746"><ele>77.5</ele><time>2026-04-22T15:44:30Z</time></trkpt><trkpt lat="46.01990415872431" lon="13.285229701032216"><ele>77.33333333333334</ele><time>2026-04-22T15:44:31Z</time></trkpt><trkpt lat="46.01987268977236" lon="13.285123306532505"><ele>77.16666666666667</ele><time>2026-04-22T15:44:32Z</time></trkpt><trkpt lat="46.019847112632114" lon="13.284995553277085"><ele>77.0</ele><time>2026-04-22T15:44:33Z</time></trkpt><trkpt lat="46.019828392573935" lon="13.28485287681933"><ele>77.75</ele><time>2026-04-22T15:44:34Z</time></trkpt><trkpt lat="46.01981608455316" lon="13.284692040004787"><ele>78.5</ele><time>2026-04-22T15:44:35Z</time></trkpt><trkpt lat="46.01981444112861" lon="13.28451303969414"><ele>79.25</ele><time>2026-04-22T15:44:36Z</time></trkpt><trkpt lat="46.01982102513971" lon="13.284348924849763"><ele>80.0</ele><time>2026-04-22T15:44:37Z</time></trkpt><trkpt lat="46.01982978520804" lon="13.28417464031371"><ele>80.0</ele><time>2026-04-22T15:44:38Z</time></trkpt><trkpt lat="46.01984622554377" lon="13.284003373384154"><ele>80.0</ele><time>2026-04-22T15:44:39Z</time></trkpt><trkpt lat="46.019858846771655" lon="13.283864500410901"><ele>80.0</ele><time>2026-04-22T15:44:40Z</time></trkpt><trkpt lat="46.019881565895325" lon="13.283754364742691"><ele>80.0</ele><time>2026-04-22T15:44:41Z</time></trkpt><trkpt lat="46.0198972725959" lon="13.28363336124971"><ele>80.0</ele><time>2026-04-22T15:44:43Z</time></trkpt><trkpt lat="46.020025580551675" lon="13.283654801441568"><ele>80.0</ele><time>2026-04-22T15:44:44Z</time></trkpt><trkpt lat="46.02007970081038" lon="13.283747857874351"><ele>80.0</ele><time>2026-04-22T15:44:46Z</time></trkpt><trkpt lat="46.02013524157487" lon="13.283879562695857"><ele>80.0</ele><time>2026-04-22T15:44:48Z</time></trkpt><trkpt lat="46.020125764450235" lon="13.283994573826735"><ele>80.0</ele><time>2026-04-22T15:44:50Z</time></trkpt><trkpt lat="46.0201158289265" lon="13.284115147667803"><ele>80.0</ele><time>2026-04-22T15:44:52Z</time></trkpt><trkpt lat="46.02010596474395" lon="13.284257191712843"><ele>80.0</ele><time>2026-04-22T15:44:54Z</time></trkpt><trkpt lat="46.02010011380101" lon="13.284375530684198"><ele>80.0</ele><time>2026-04-22T15:44:56Z</time></trkpt><trkpt lat="46.0201405378819" lon="13.284465029149022"><ele>80.0</ele><time>2026-04-22T15:48:10Z</time></trkpt><trkpt lat="46.02008356813442" lon="13.284530724283655"><ele>80.0</ele><time>2026-04-22T15:48:13Z</time></trkpt><trkpt lat="46.020028188006584" lon="13.284425980851058"><ele>80.0</ele><time>2026-04-22T15:48:15Z</time></trkpt><trkpt lat="46.02006042811327" lon="13.284300299009857"><ele>80.0</ele><time>2026-04-22T15:48:17Z</time></trkpt><trkpt lat="46.020087484163135" lon="13.284157274166398"><ele>80.0</ele><time>2026-04-22T15:48:19Z</time></trkpt><trkpt lat="46.02010740962296" lon="13.284020022991337"><ele>80.0</ele><time>2026-04-22T15:48:21Z</time></trkpt><trkpt lat="46.02011314403282" lon="13.283908585581077"><ele>80.0</ele><time>2026-04-22T15:48:23Z</time></trkpt><trkpt lat="46.02011351302373" lon="13.283793382973707"><ele>80.0</ele><time>2026-04-22T15:48:25Z</time></trkpt><trkpt lat="46.02008823723481" lon="13.283660567274108"><ele>80.0</ele><time>2026-04-22T15:48:27Z</time></trkpt><trkpt lat="46.02000711661614" lon="13.28358023644878"><ele>80.0</ele><time>2026-04-22T15:48:29Z</time></trkpt><trkpt lat="46.019923698119385" lon="13.283512748143874"><ele>80.0</ele><time>2026-04-22T15:48:43Z</time></trkpt><trkpt lat="46.01989416242376" lon="13.283310724058445"><ele>80.0</ele><time>2026-04-22T15:48:45Z</time></trkpt><trkpt lat="46.01991511296009" lon="13.283140661008767"><ele>80.0</ele><time>2026-04-22T15:48:46Z</time></trkpt><trkpt lat="46.01993523297578" lon="13.282938364253363"><ele>80.0</ele><time>2026-04-22T15:48:47Z</time></trkpt><trkpt lat="46.01995325160904" lon="13.282715108654104"><ele>80.0</ele><time>2026-04-22T15:48:48Z</time></trkpt><trkpt lat="46.0199725630096" lon="13.282499865815986"><ele>80.0</ele><time>2026-04-22T15:48:49Z</time></trkpt><trkpt lat="46.01998947107247" lon="13.282293822853386"><ele>80.0</ele><time>2026-04-22T15:48:50Z</time></trkpt><trkpt lat="46.02000838050279" lon="13.28208985389408"><ele>80.0</ele><time>2026-04-22T15:48:51Z</time></trkpt><trkpt lat="46.02002663278626" lon="13.281885927139895"><ele>80.0</ele><time>2026-04-22T15:48:52Z</time></trkpt><trkpt lat="46.02004544478567" lon="13.281680558032255"><ele>80.0</ele><time>2026-04-22T15:48:53Z</time></trkpt><trkpt lat="46.020061880025274" lon="13.281477868580554"><ele>80.0</ele><time>2026-04-22T15:48:54Z</time></trkpt><trkpt lat="46.02007667108661" lon="13.281279879477626"><ele>80.0</ele><time>2026-04-22T15:48:55Z</time></trkpt><trkpt lat="46.020092483929254" lon="13.281087726266312"><ele>79.75</ele><time>2026-04-22T15:48:56Z</time></trkpt><trkpt lat="46.02011300107996" lon="13.28088435476603"><ele>79.5</ele><time>2026-04-22T15:48:57Z</time></trkpt><trkpt lat="46.02013573645998" lon="13.280673374446677"><ele>79.25</ele><time>2026-04-22T15:48:58Z</time></trkpt><trkpt lat="46.02016335991627" lon="13.280462590631421"><ele>79.0</ele><time>2026-04-22T15:48:59Z</time></trkpt><trkpt lat="46.02019718123901" lon="13.280254582564089"><ele>79.0</ele><time>2026-04-22T15:49:00Z</time></trkpt><trkpt lat="46.02022648621457" lon="13.280052623165636"><ele>79.0</ele><time>2026-04-22T15:49:01Z</time></trkpt><trkpt lat="46.02025200845727" lon="13.279859994678317"><ele>79.0</ele><time>2026-04-22T15:49:02Z</time></trkpt><trkpt lat="46.02027573464552" lon="13.279676141517395"><ele>79.0</ele><time>2026-04-22T15:49:03Z</time></trkpt><trkpt lat="46.02030094275286" lon="13.279483490975146"><ele>79.0</ele><time>2026-04-22T15:49:04Z</time></trkpt><trkpt lat="46.02032098457349" lon="13.27927950114783"><ele>79.0</ele><time>2026-04-22T15:49:05Z</time></trkpt><trkpt lat="46.02033736190421" lon="13.27909321124786"><ele>79.0</ele><time>2026-04-22T15:49:06Z</time></trkpt><trkpt lat="46.020351239983896" lon="13.278931486942907"><ele>79.0</ele><time>2026-04-22T15:49:07Z</time></trkpt><trkpt lat="46.02036525653924" lon="13.278780029528837"><ele>79.4</ele><time>2026-04-22T15:49:08Z</time></trkpt><trkpt lat="46.020383322602946" lon="13.278645271373515"><ele>79.80000000000001</ele><time>2026-04-22T15:49:09Z</time></trkpt><trkpt lat="46.020412388617196" lon="13.278520996324799"><ele>80.19999999999999</ele><time>2026-04-22T15:49:10Z</time></trkpt><trkpt lat="46.020467553903316" lon="13.278421263480375"><ele>80.6</ele><time>2026-04-22T15:49:11Z</time></trkpt><trkpt lat="46.0205410905105" lon="13.278348634404436"><ele>81.0</ele><time>2026-04-22T15:49:12Z</time></trkpt><trkpt lat="46.02062863256861" lon="13.278295042787509"><ele>81.0</ele><time>2026-04-22T15:49:13Z</time></trkpt><trkpt lat="46.02070614618768" lon="13.278209538873003"><ele>81.0</ele><time>2026-04-22T15:49:14Z</time></trkpt><trkpt lat="46.02079193466234" lon="13.278137188325918"><ele>81.0</ele><time>2026-04-22T15:49:15Z</time></trkpt><trkpt lat="46.02088729003015" lon="13.278087005546782"><ele>81.0</ele><time>2026-04-22T15:49:16Z</time></trkpt><trkpt lat="46.020962459968736" lon="13.278016001714793"><ele>81.0</ele><time>2026-04-22T15:49:17Z</time></trkpt><trkpt lat="46.02102975724087" lon="13.277974758726414"><ele>80.83333333333333</ele><time>2026-04-22T15:49:18Z</time></trkpt><trkpt lat="46.02110961390565" lon="13.277940382624918"><ele>80.66666666666667</ele><time>2026-04-22T15:49:20Z</time></trkpt><trkpt lat="46.02118020166469" lon="13.278020068932648"><ele>80.5</ele><time>2026-04-22T15:49:21Z</time></trkpt><trkpt lat="46.02124200159213" lon="13.278061125799082"><ele>80.33333333333334</ele><time>2026-04-22T15:49:22Z</time></trkpt><trkpt lat="46.02130705304052" lon="13.278079843187271"><ele>80.16666666666667</ele><time>2026-04-22T15:49:23Z</time></trkpt><trkpt lat="46.0213776826653" lon="13.278070020294345"><ele>80.0</ele><time>2026-04-22T15:49:24Z</time></trkpt><trkpt lat="46.02144991472355" lon="13.278022691867601"><ele>80.0</ele><time>2026-04-22T15:49:25Z</time></trkpt><trkpt lat="46.021511983866375" lon="13.277935437186505"><ele>80.0</ele><time>2026-04-22T15:49:26Z</time></trkpt><trkpt lat="46.02156375002016" lon="13.277815830761497"><ele>80.0</ele><time>2026-04-22T15:49:27Z</time></trkpt><trkpt lat="46.02162710075751" lon="13.277721710150498"><ele>80.0</ele><time>2026-04-22T15:49:28Z</time></trkpt><trkpt lat="46.02170501407224" lon="13.277662056359931"><ele>80.0</ele><time>2026-04-22T15:49:29Z</time></trkpt><trkpt lat="46.0217799754945" lon="13.27761313952134"><ele>80.0</ele><time>2026-04-22T15:49:30Z</time></trkpt><trkpt lat="46.021854368652086" lon="13.27756747193957"><ele>80.0</ele><time>2026-04-22T15:49:31Z</time></trkpt><trkpt lat="46.02193393315126" lon="13.27752440413532"><ele>80.0</ele><time>2026-04-22T15:49:32Z</time></trkpt><trkpt lat="46.022011452037184" lon="13.277478210284213"><ele>80.0</ele><time>2026-04-22T15:49:33Z</time></trkpt><trkpt lat="46.02207373654026" lon="13.277421613655108"><ele>80.0</ele><time>2026-04-22T15:49:34Z</time></trkpt><trkpt lat="46.02212163343115" lon="13.277344856415553"><ele>80.0</ele><time>2026-04-22T15:49:34.999Z</time></trkpt><trkpt lat="46.02213994871716" lon="13.277235205347585"><ele>80.0</ele><time>2026-04-22T15:49:35.999Z</time></trkpt><trkpt lat="46.02213276534772" lon="13.277112750131765"><ele>80.0</ele><time>2026-04-22T15:49:36.999Z</time></trkpt><trkpt lat="46.02211474308007" lon="13.276987307277134"><ele>80.0</ele><time>2026-04-22T15:49:37.999Z</time></trkpt><trkpt lat="46.02207697277238" lon="13.276875776374643"><ele>80.0</ele><time>2026-04-22T15:49:38.999Z</time></trkpt><trkpt lat="46.02202141053269" lon="13.276730667813258"><ele>80.0</ele><time>2026-04-22T15:49:40.999Z</time></trkpt><trkpt lat="46.021986653920074" lon="13.276589118437487"><ele>80.0</ele><time>2026-04-22T15:49:42.999Z</time></trkpt><trkpt lat="46.02210952715677" lon="13.276420599006116"><ele>80.5</ele><time>2026-04-22T15:49:44.999Z</time></trkpt><trkpt lat="46.02219957330716" lon="13.27636121917346"><ele>81.0</ele><time>2026-04-22T15:49:45.999Z</time></trkpt><trkpt lat="46.0223005752224" lon="13.276281041494464"><ele>81.5</ele><time>2026-04-22T15:49:46.999Z</time></trkpt><trkpt lat="46.022420707542764" lon="13.276195879949015"><ele>82.0</ele><time>2026-04-22T15:49:47.999Z</time></trkpt><trkpt lat="46.022537534470246" lon="13.276115235614984"><ele>82.0</ele><time>2026-04-22T15:49:48.999Z</time></trkpt><trkpt lat="46.02266121156844" lon="13.276028476830191"><ele>82.0</ele><time>2026-04-22T15:49:49.999Z</time></trkpt><trkpt lat="46.02279695168057" lon="13.275928620382476"><ele>82.0</ele><time>2026-04-22T15:49:50.999Z</time></trkpt><trkpt lat="46.02292406457253" lon="13.275834068216877"><ele>82.0</ele><time>2026-04-22T15:49:51.999Z</time></trkpt><trkpt lat="46.02307470912532" lon="13.275731702596596"><ele>82.0</ele><time>2026-04-22T15:49:53Z</time></trkpt><trkpt lat="46.02323289446954" lon="13.275621281832855"><ele>82.0</ele><time>2026-04-22T15:49:54Z</time></trkpt><trkpt lat="46.02336354218655" lon="13.275530092487585"><ele>82.0</ele><time>2026-04-22T15:49:55Z</time></trkpt><trkpt lat="46.023483284750064" lon="13.27544686321608"><ele>82.39999999999999</ele><time>2026-04-22T15:49:56Z</time></trkpt><trkpt lat="46.02359086693038" lon="13.275374094183762"><ele>82.8</ele><time>2026-04-22T15:49:57Z</time></trkpt><trkpt lat="46.02369548649273" lon="13.275302333219733"><ele>83.2</ele><time>2026-04-22T15:49:58Z</time></trkpt><trkpt lat="46.02378175199357" lon="13.275242643735952"><ele>83.6</ele><time>2026-04-22T15:49:59Z</time></trkpt><trkpt lat="46.02386005613379" lon="13.275187475473054"><ele>84.0</ele><time>2026-04-22T15:50:00Z</time></trkpt><trkpt lat="46.02392737434239" lon="13.27514105576957"><ele>84.0</ele><time>2026-04-22T15:50:01Z</time></trkpt><trkpt lat="46.02399408669272" lon="13.275105450423936"><ele>84.0</ele><time>2026-04-22T15:50:02Z</time></trkpt><trkpt lat="46.02406275935469" lon="13.275095441227586"><ele>84.0</ele><time>2026-04-22T15:50:03Z</time></trkpt><trkpt lat="46.024128555105364" lon="13.275131649862649"><ele>84.0</ele><time>2026-04-22T15:50:05Z</time></trkpt><trkpt lat="46.02419711807479" lon="13.275191648300478"><ele>84.0</ele><time>2026-04-22T15:50:10Z</time></trkpt><trkpt lat="46.02424981183857" lon="13.275244074245562"><ele>84.0</ele><time>2026-04-22T15:50:11Z</time></trkpt><trkpt lat="46.02426647959711" lon="13.27546128902267"><ele>84.33333333333333</ele><time>2026-04-22T15:50:12Z</time></trkpt><trkpt lat="46.02431156896534" lon="13.275661721675753"><ele>84.66666666666666</ele><time>2026-04-22T15:50:13Z</time></trkpt><trkpt lat="46.024365730229356" lon="13.275874382759472"><ele>85.0</ele><time>2026-04-22T15:50:14Z</time></trkpt><trkpt lat="46.024418385622" lon="13.276076539053332"><ele>85.0</ele><time>2026-04-22T15:50:15Z</time></trkpt><trkpt lat="46.024466475066575" lon="13.27626301438306"><ele>85.0</ele><time>2026-04-22T15:50:16Z</time></trkpt><trkpt lat="46.02451226436156" lon="13.276441158443728"><ele>85.0</ele><time>2026-04-22T15:50:17Z</time></trkpt><trkpt lat="46.02456152015061" lon="13.27661927117304"><ele>85.0</ele><time>2026-04-22T15:50:18Z</time></trkpt><trkpt lat="46.02461583390166" lon="13.276801906288226"><ele>85.0</ele><time>2026-04-22T15:50:19Z</time></trkpt><trkpt lat="46.02467614365898" lon="13.276995732317515"><ele>85.0</ele><time>2026-04-22T15:50:20Z</time></trkpt><trkpt lat="46.024736222590896" lon="13.277189764140058"><ele>85.0</ele><time>2026-04-22T15:50:21Z</time></trkpt><trkpt lat="46.02479797800091" lon="13.277391089645727"><ele>85.0</ele><time>2026-04-22T15:50:22Z</time></trkpt><trkpt lat="46.02485963634444" lon="13.27759375270161"><ele>85.25</ele><time>2026-04-22T15:50:23Z</time></trkpt><trkpt lat="46.0249177286003" lon="13.277789531923567"><ele>85.5</ele><time>2026-04-22T15:50:24Z</time></trkpt><trkpt lat="46.02497683982391" lon="13.277980904120708"><ele>85.75</ele><time>2026-04-22T15:50:25Z</time></trkpt><trkpt lat="46.02504349192539" lon="13.27816910989578"><ele>86.0</ele><time>2026-04-22T15:50:26Z</time></trkpt><trkpt lat="46.025117221608106" lon="13.278354376297777"><ele>86.0</ele><time>2026-04-22T15:50:27Z</time></trkpt><trkpt lat="46.02519992783357" lon="13.278534544830467"><ele>86.0</ele><time>2026-04-22T15:50:28Z</time></trkpt><trkpt lat="46.02529119510729" lon="13.278713790007293"><ele>86.0</ele><time>2026-04-22T15:50:29Z</time></trkpt><trkpt lat="46.02539016579348" lon="13.2788917122356"><ele>86.66666666666667</ele><time>2026-04-22T15:50:30Z</time></trkpt><trkpt lat="46.02549932416817" lon="13.27907305220667"><ele>87.33333333333333</ele><time>2026-04-22T15:50:31Z</time></trkpt><trkpt lat="46.025620552241456" lon="13.279253284571533"><ele>88.0</ele><time>2026-04-22T15:50:32Z</time></trkpt><trkpt lat="46.02575794618621" lon="13.279444896386321"><ele>85.5</ele><time>2026-04-22T15:50:33Z</time></trkpt><trkpt lat="46.025907895329176" lon="13.279696009279082"><ele>83.0</ele><time>2026-04-22T15:50:34Z</time></trkpt><trkpt lat="46.02605273587057" lon="13.279941311981707"><ele>83.0</ele><time>2026-04-22T15:50:35Z</time></trkpt><trkpt lat="46.02618205619925" lon="13.280134221470217"><ele>83.0</ele><time>2026-04-22T15:50:36Z</time></trkpt><trkpt lat="46.02628893550069" lon="13.28032025362232"><ele>83.0</ele><time>2026-04-22T15:50:37Z</time></trkpt><trkpt lat="46.02639425958895" lon="13.28050713328632"><ele>83.66666666666667</ele><time>2026-04-22T15:50:38Z</time></trkpt><trkpt lat="46.02649708252093" lon="13.280698501042833"><ele>84.33333333333333</ele><time>2026-04-22T15:50:39Z</time></trkpt><trkpt lat="46.02660962885538" lon="13.280914969125456"><ele>85.0</ele><time>2026-04-22T15:50:40Z</time></trkpt><trkpt lat="46.02672486715042" lon="13.281130823205485"><ele>85.33333333333333</ele><time>2026-04-22T15:50:41Z</time></trkpt><trkpt lat="46.0268447065422" lon="13.281331706647181"><ele>85.66666666666667</ele><time>2026-04-22T15:50:42Z</time></trkpt><trkpt lat="46.026975800426456" lon="13.281517710441308"><ele>86.0</ele><time>2026-04-22T15:50:43Z</time></trkpt><trkpt lat="46.027117064838535" lon="13.281691020166855"><ele>86.0</ele><time>2026-04-22T15:50:44Z</time></trkpt><trkpt lat="46.02728092217441" lon="13.28185071656683"><ele>86.0</ele><time>2026-04-22T15:50:45Z</time></trkpt><trkpt lat="46.027463825928905" lon="13.281996659398592"><ele>86.0</ele><time>2026-04-22T15:50:46Z</time></trkpt><trkpt lat="46.02766663162525" lon="13.282153985896562"><ele>86.0</ele><time>2026-04-22T15:50:47Z</time></trkpt><trkpt lat="46.027882382166844" lon="13.28234214053541"><ele>86.0</ele><time>2026-04-22T15:50:48Z</time></trkpt><trkpt lat="46.028087238975786" lon="13.282542896229588"><ele>86.0</ele><time>2026-04-22T15:50:49Z</time></trkpt><trkpt lat="46.02827481946551" lon="13.282718324048005"><ele>86.0</ele><time>2026-04-22T15:50:50Z</time></trkpt><trkpt lat="46.028466458638796" lon="13.282894479820508"><ele>86.5</ele><time>2026-04-22T15:50:51Z</time></trkpt><trkpt lat="46.02865837935784" lon="13.283066466446458"><ele>87.0</ele><time>2026-04-22T15:50:52Z</time></trkpt><trkpt lat="46.028851674205534" lon="13.283240792393158"><ele>87.0</ele><time>2026-04-22T15:50:53Z</time></trkpt><trkpt lat="46.02904297014506" lon="13.28341363142852"><ele>87.0</ele><time>2026-04-22T15:50:54Z</time></trkpt><trkpt lat="46.02923159036661" lon="13.283586181044438"><ele>87.0</ele><time>2026-04-22T15:50:55Z</time></trkpt><trkpt lat="46.02941953450608" lon="13.283755702474576"><ele>86.0</ele><time>2026-04-22T15:50:56Z</time></trkpt><trkpt lat="46.02961059712645" lon="13.283930896395638"><ele>85.0</ele><time>2026-04-22T15:50:57Z</time></trkpt><trkpt lat="46.029800692005935" lon="13.284104596122951"><ele>86.33333333333333</ele><time>2026-04-22T15:50:58Z</time></trkpt><trkpt lat="46.02998993153989" lon="13.284273319441068"><ele>87.66666666666667</ele><time>2026-04-22T15:50:59Z</time></trkpt><trkpt lat="46.030176281435104" lon="13.284438115203173"><ele>89.0</ele><time>2026-04-22T15:51:00Z</time></trkpt><trkpt lat="46.03035958155442" lon="13.284604978738109"><ele>88.66666666666667</ele><time>2026-04-22T15:51:01Z</time></trkpt><trkpt lat="46.030541718736664" lon="13.28477369887155"><ele>88.33333333333333</ele><time>2026-04-22T15:51:02Z</time></trkpt><trkpt lat="46.03072511424447" lon="13.284940805234628"><ele>88.0</ele><time>2026-04-22T15:51:03Z</time></trkpt><trkpt lat="46.03091335356768" lon="13.2851087141778"><ele>88.0</ele><time>2026-04-22T15:51:04Z</time></trkpt><trkpt lat="46.031103713210136" lon="13.285278539828163"><ele>88.0</ele><time>2026-04-22T15:51:05Z</time></trkpt><trkpt lat="46.0312886570363" lon="13.285442689919508"><ele>88.0</ele><time>2026-04-22T15:51:06Z</time></trkpt><trkpt lat="46.03146868841416" lon="13.285604404587376"><ele>88.0</ele><time>2026-04-22T15:51:07Z</time></trkpt><trkpt lat="46.03164432302508" lon="13.285761076793252"><ele>88.0</ele><time>2026-04-22T15:51:08Z</time></trkpt><trkpt lat="46.03181540753636" lon="13.285918070653334"><ele>88.0</ele><time>2026-04-22T15:51:09Z</time></trkpt><trkpt lat="46.03198012983348" lon="13.286080705865006"><ele>88.0</ele><time>2026-04-22T15:51:10Z</time></trkpt><trkpt lat="46.032137883452506" lon="13.286257195059413"><ele>88.0</ele><time>2026-04-22T15:51:11Z</time></trkpt><trkpt lat="46.03228784706715" lon="13.286464094662229"><ele>88.0</ele><time>2026-04-22T15:51:12Z</time></trkpt><trkpt lat="46.03243853351927" lon="13.286694171123644"><ele>87.66666666666666</ele><time>2026-04-22T15:51:13Z</time></trkpt><trkpt lat="46.03259640681232" lon="13.286925811531148"><ele>87.33333333333333</ele><time>2026-04-22T15:51:14Z</time></trkpt><trkpt lat="46.03275044049804" lon="13.287152905836235"><ele>87.0</ele><time>2026-04-22T15:51:15Z</time></trkpt><trkpt lat="46.03290347643616" lon="13.287376189985789"><ele>86.66666666666667</ele><time>2026-04-22T15:51:16Z</time></trkpt><trkpt lat="46.03305482925612" lon="13.287596966039155"><ele>86.33333333333334</ele><time>2026-04-22T15:51:17Z</time></trkpt><trkpt lat="46.03320693499697" lon="13.287814966411592"><ele>86.0</ele><time>2026-04-22T15:51:18Z</time></trkpt><trkpt lat="46.033351571606715" lon="13.288022069405626"><ele>86.66666666666667</ele><time>2026-04-22T15:51:19Z</time></trkpt><trkpt lat="46.03349286858863" lon="13.288219690721899"><ele>87.33333333333333</ele><time>2026-04-22T15:51:20Z</time></trkpt><trkpt lat="46.033626554949606" lon="13.288415250187066"><ele>88.0</ele><time>2026-04-22T15:51:21Z</time></trkpt><trkpt lat="46.03376114351221" lon="13.288617225578308"><ele>88.0</ele><time>2026-04-22T15:51:22Z</time></trkpt><trkpt lat="46.03390000560327" lon="13.288821720347483"><ele>88.0</ele><time>2026-04-22T15:51:23Z</time></trkpt><trkpt lat="46.03404423335295" lon="13.289028392952117"><ele>88.0</ele><time>2026-04-22T15:51:24Z</time></trkpt><trkpt lat="46.03419370080195" lon="13.289244235570488"><ele>88.0</ele><time>2026-04-22T15:51:25Z</time></trkpt><trkpt lat="46.03434468103851" lon="13.289461817771134"><ele>88.0</ele><time>2026-04-22T15:51:26Z</time></trkpt><trkpt lat="46.03449610025893" lon="13.289680103227955"><ele>88.0</ele><time>2026-04-22T15:51:27Z</time></trkpt><trkpt lat="46.034645461444235" lon="13.289896510656185"><ele>88.0</ele><time>2026-04-22T15:51:28Z</time></trkpt><trkpt lat="46.03479300001419" lon="13.290110703874213"><ele>88.0</ele><time>2026-04-22T15:51:29Z</time></trkpt><trkpt lat="46.0349366949584" lon="13.290321982280654"><ele>88.0</ele><time>2026-04-22T15:51:30Z</time></trkpt><trkpt lat="46.03507550327806" lon="13.29052832925411"><ele>88.0</ele><time>2026-04-22T15:51:31Z</time></trkpt><trkpt lat="46.03521237822428" lon="13.290728956468751"><ele>88.0</ele><time>2026-04-22T15:51:32Z</time></trkpt><trkpt lat="46.03534629929081" lon="13.290924836574844"><ele>88.0</ele><time>2026-04-22T15:51:33Z</time></trkpt><trkpt lat="46.035478301040314" lon="13.291117262891463"><ele>88.0</ele><time>2026-04-22T15:51:34Z</time></trkpt><trkpt lat="46.03560955383482" lon="13.29130988308888"><ele>88.0</ele><time>2026-04-22T15:51:35Z</time></trkpt><trkpt lat="46.03573657307012" lon="13.291493970980072"><ele>88.0</ele><time>2026-04-22T15:51:36Z</time></trkpt><trkpt lat="46.03585259964039" lon="13.291660461458196"><ele>88.5</ele><time>2026-04-22T15:51:37Z</time></trkpt><trkpt lat="46.03595879645591" lon="13.291814543915997"><ele>89.0</ele><time>2026-04-22T15:51:38Z</time></trkpt><trkpt lat="46.03606599250168" lon="13.29197187110714"><ele>89.5</ele><time>2026-04-22T15:51:38.999Z</time></trkpt><trkpt lat="46.03616700400874" lon="13.29212220708219"><ele>90.0</ele><time>2026-04-22T15:51:39.999Z</time></trkpt><trkpt lat="46.03626022116306" lon="13.292255604142202"><ele>90.0</ele><time>2026-04-22T15:51:40.999Z</time></trkpt><trkpt lat="46.03634638272942" lon="13.292377759694237"><ele>90.0</ele><time>2026-04-22T15:51:41.999Z</time></trkpt><trkpt lat="46.0364224505138" lon="13.292489985777038"><ele>90.0</ele><time>2026-04-22T15:51:42.999Z</time></trkpt><trkpt lat="46.03649425708374" lon="13.292596812998692"><ele>90.0</ele><time>2026-04-22T15:51:43.999Z</time></trkpt><trkpt lat="46.03657467494433" lon="13.29271504684201"><ele>90.0</ele><time>2026-04-22T15:51:44.999Z</time></trkpt><trkpt lat="46.03664167353115" lon="13.292844913913829"><ele>90.0</ele><time>2026-04-22T15:51:45.999Z</time></trkpt><trkpt lat="46.036694419062144" lon="13.292959018777864"><ele>90.0</ele><time>2026-04-22T15:51:46.999Z</time></trkpt><trkpt lat="46.036656933293344" lon="13.293162860505447"><ele>90.0</ele><time>2026-04-22T15:51:47.999Z</time></trkpt><trkpt lat="46.036651912567066" lon="13.293321469333232"><ele>90.0</ele><time>2026-04-22T15:51:48.999Z</time></trkpt><trkpt lat="46.03667628523087" lon="13.293469478606006"><ele>89.8</ele><time>2026-04-22T15:51:49.999Z</time></trkpt><trkpt lat="46.036723896927946" lon="13.293596770080594"><ele>89.6</ele><time>2026-04-22T15:51:50.999Z</time></trkpt><trkpt lat="46.03679908094545" lon="13.293690733145372"><ele>89.4</ele><time>2026-04-22T15:51:51.999Z</time></trkpt><trkpt lat="46.036893177732935" lon="13.293753281232606"><ele>89.2</ele><time>2026-04-22T15:51:52.999Z</time></trkpt><trkpt lat="46.03701631512812" lon="13.293775842782466"><ele>89.0</ele><time>2026-04-22T15:51:53.999Z</time></trkpt><trkpt lat="46.037148547272665" lon="13.293761922974852"><ele>89.0</ele><time>2026-04-22T15:51:54.999Z</time></trkpt><trkpt lat="46.03727913457993" lon="13.293866452528164"><ele>89.0</ele><time>2026-04-22T15:51:55.999Z</time></trkpt><trkpt lat="46.037387059752" lon="13.293983564579221"><ele>89.0</ele><time>2026-04-22T15:51:56.999Z</time></trkpt><trkpt lat="46.037475283527975" lon="13.294146817728022"><ele>89.0</ele><time>2026-04-22T15:51:58Z</time></trkpt><trkpt lat="46.03756293347388" lon="13.294324215693315"><ele>88.66666666666667</ele><time>2026-04-22T15:51:59Z</time></trkpt><trkpt lat="46.03765574066119" lon="13.294504379004321"><ele>88.33333333333333</ele><time>2026-04-22T15:52:00Z</time></trkpt><trkpt lat="46.037747975842066" lon="13.294688565797019"><ele>88.0</ele><time>2026-04-22T15:52:01Z</time></trkpt><trkpt lat="46.037840806247544" lon="13.294879674654663"><ele>87.66666666666666</ele><time>2026-04-22T15:52:02Z</time></trkpt><trkpt lat="46.037930190279376" lon="13.29507522875709"><ele>87.33333333333333</ele><time>2026-04-22T15:52:03Z</time></trkpt><trkpt lat="46.03801841467624" lon="13.295275788724949"><ele>87.0</ele><time>2026-04-22T15:52:04Z</time></trkpt><trkpt lat="46.038103816243684" lon="13.295478552214133"><ele>87.33333333333333</ele><time>2026-04-22T15:52:05Z</time></trkpt><trkpt lat="46.038188364939806" lon="13.295681081164968"><ele>87.66666666666666</ele><time>2026-04-22T15:52:06Z</time></trkpt><trkpt lat="46.03827741121754" lon="13.295885288581726"><ele>88.0</ele><time>2026-04-22T15:52:07Z</time></trkpt><trkpt lat="46.038366899174335" lon="13.296093068621461"><ele>88.66666666666666</ele><time>2026-04-22T15:52:08Z</time></trkpt><trkpt lat="46.03845633172654" lon="13.296302632570226"><ele>89.33333333333333</ele><time>2026-04-22T15:52:09Z</time></trkpt><trkpt lat="46.03854673749145" lon="13.296511882236837"><ele>90.0</ele><time>2026-04-22T15:52:10Z</time></trkpt><trkpt lat="46.038639739910714" lon="13.29672192946494"><ele>90.33333333333333</ele><time>2026-04-22T15:52:11Z</time></trkpt><trkpt lat="46.03873224109135" lon="13.296935981362632"><ele>90.66666666666666</ele><time>2026-04-22T15:52:12Z</time></trkpt><trkpt lat="46.03882356848616" lon="13.297151593093488"><ele>91.0</ele><time>2026-04-22T15:52:13Z</time></trkpt><trkpt lat="46.03890964361151" lon="13.297349855262173"><ele>91.0</ele><time>2026-04-22T15:52:14Z</time></trkpt><trkpt lat="46.03899330758741" lon="13.297547744700301"><ele>91.0</ele><time>2026-04-22T15:52:15Z</time></trkpt><trkpt lat="46.03907123262195" lon="13.297738314365558"><ele>91.0</ele><time>2026-04-22T15:52:16Z</time></trkpt><trkpt lat="46.039141805336705" lon="13.297925591427939"><ele>90.33333333333333</ele><time>2026-04-22T15:52:17Z</time></trkpt><trkpt lat="46.03920698708841" lon="13.298123524371576"><ele>89.66666666666667</ele><time>2026-04-22T15:52:18Z</time></trkpt><trkpt lat="46.0392670589001" lon="13.298323183195556"><ele>89.0</ele><time>2026-04-22T15:52:19Z</time></trkpt><trkpt lat="46.039333480639506" lon="13.2985162008958"><ele>89.0</ele><time>2026-04-22T15:52:20Z</time></trkpt><trkpt lat="46.03939554738636" lon="13.298708086197745"><ele>89.0</ele><time>2026-04-22T15:52:21Z</time></trkpt><trkpt lat="46.03945582084567" lon="13.298896563537356"><ele>89.0</ele><time>2026-04-22T15:52:22Z</time></trkpt><trkpt lat="46.03951755525984" lon="13.29908282404269"><ele>89.0</ele><time>2026-04-22T15:52:23Z</time></trkpt><trkpt lat="46.03957062305502" lon="13.299271893093465"><ele>88.5</ele><time>2026-04-22T15:52:24Z</time></trkpt><trkpt lat="46.03961066802622" lon="13.29946627214493"><ele>88.0</ele><time>2026-04-22T15:52:25Z</time></trkpt><trkpt lat="46.039643168098564" lon="13.299664156113922"><ele>87.5</ele><time>2026-04-22T15:52:26Z</time></trkpt><trkpt lat="46.03967214350312" lon="13.299866946639758"><ele>87.0</ele><time>2026-04-22T15:52:27Z</time></trkpt><trkpt lat="46.03970144352874" lon="13.30007066204309"><ele>87.0</ele><time>2026-04-22T15:52:28Z</time></trkpt><trkpt lat="46.03973063479305" lon="13.300274712817904"><ele>87.0</ele><time>2026-04-22T15:52:29Z</time></trkpt><trkpt lat="46.03976076838036" lon="13.30047973155264"><ele>87.0</ele><time>2026-04-22T15:52:30Z</time></trkpt><trkpt lat="46.03979064730453" lon="13.300684020297245"><ele>87.0</ele><time>2026-04-22T15:52:31Z</time></trkpt><trkpt lat="46.0398205783124" lon="13.300887439905098"><ele>87.25</ele><time>2026-04-22T15:52:32Z</time></trkpt><trkpt lat="46.03985171043039" lon="13.3010924281208"><ele>87.5</ele><time>2026-04-22T15:52:33Z</time></trkpt><trkpt lat="46.03988143222732" lon="13.301297402328137"><ele>87.75</ele><time>2026-04-22T15:52:34Z</time></trkpt><trkpt lat="46.039911032654295" lon="13.301499052011884"><ele>88.0</ele><time>2026-04-22T15:52:35Z</time></trkpt><trkpt lat="46.03994036157596" lon="13.301699179036182"><ele>87.75</ele><time>2026-04-22T15:52:36Z</time></trkpt><trkpt lat="46.03996794754965" lon="13.301899575331879"><ele>87.5</ele><time>2026-04-22T15:52:37Z</time></trkpt><trkpt lat="46.03999506935285" lon="13.302100621918367"><ele>87.25</ele><time>2026-04-22T15:52:38Z</time></trkpt><trkpt lat="46.04002394168831" lon="13.302297784876595"><ele>87.0</ele><time>2026-04-22T15:52:39Z</time></trkpt><trkpt lat="46.040051893944444" lon="13.302491035817987"><ele>87.0</ele><time>2026-04-22T15:52:40Z</time></trkpt><trkpt lat="46.040079033352164" lon="13.302682051093845"><ele>87.0</ele><time>2026-04-22T15:52:41Z</time></trkpt><trkpt lat="46.040108788048414" lon="13.302869481347583"><ele>87.0</ele><time>2026-04-22T15:52:42Z</time></trkpt><trkpt lat="46.04013576405092" lon="13.303052730138262"><ele>87.0</ele><time>2026-04-22T15:52:43Z</time></trkpt><trkpt lat="46.0401612080088" lon="13.303228880282097"><ele>87.0</ele><time>2026-04-22T15:52:44Z</time></trkpt><trkpt lat="46.04018570588867" lon="13.303401663795428"><ele>87.0</ele><time>2026-04-22T15:52:45Z</time></trkpt><trkpt lat="46.04021002622001" lon="13.303573063698511"><ele>87.0</ele><time>2026-04-22T15:52:46Z</time></trkpt><trkpt lat="46.04023301000641" lon="13.303746703837366"><ele>87.0</ele><time>2026-04-22T15:52:47Z</time></trkpt><trkpt lat="46.040252528254236" lon="13.303925021774948"><ele>87.0</ele><time>2026-04-22T15:52:48Z</time></trkpt><trkpt lat="46.04026996254858" lon="13.304110619848437"><ele>87.0</ele><time>2026-04-22T15:52:49Z</time></trkpt><trkpt lat="46.040289268556954" lon="13.304301984476197"><ele>87.0</ele><time>2026-04-22T15:52:50Z</time></trkpt><trkpt lat="46.040306268817915" lon="13.304493716241383"><ele>87.0</ele><time>2026-04-22T15:52:51Z</time></trkpt><trkpt lat="46.04032243114544" lon="13.304682873875366"><ele>87.0</ele><time>2026-04-22T15:52:52Z</time></trkpt><trkpt lat="46.040339795593646" lon="13.304867651811977"><ele>87.0</ele><time>2026-04-22T15:52:53Z</time></trkpt><trkpt lat="46.04035603401826" lon="13.305040738096771"><ele>87.0</ele><time>2026-04-22T15:52:54Z</time></trkpt><trkpt lat="46.04037225913883" lon="13.305201261804967"><ele>87.0</ele><time>2026-04-22T15:52:55Z</time></trkpt><trkpt lat="46.04038544238362" lon="13.30536212470531"><ele>87.0</ele><time>2026-04-22T15:52:56Z</time></trkpt><trkpt lat="46.040395932770586" lon="13.305484165158926"><ele>87.0</ele><time>2026-04-22T15:52:57Z</time></trkpt><trkpt lat="46.04040962058647" lon="13.30562139622538"><ele>87.0</ele><time>2026-04-22T15:52:58Z</time></trkpt><trkpt lat="46.04042123303276" lon="13.30576467956631"><ele>87.0</ele><time>2026-04-22T15:52:59Z</time></trkpt><trkpt lat="46.04043181304509" lon="13.305897480405337"><ele>87.0</ele><time>2026-04-22T15:53:00Z</time></trkpt><trkpt lat="46.040434989915184" lon="13.306018266491602"><ele>87.0</ele><time>2026-04-22T15:53:01Z</time></trkpt><trkpt lat="46.04042739301556" lon="13.306133058486497"><ele>87.0</ele><time>2026-04-22T15:53:02Z</time></trkpt><trkpt lat="46.040416325619304" lon="13.306254111423755"><ele>87.0</ele><time>2026-04-22T15:53:03Z</time></trkpt><trkpt lat="46.040425498716985" lon="13.306383982383979"><ele>87.0</ele><time>2026-04-22T15:53:04Z</time></trkpt><trkpt lat="46.04046271064554" lon="13.306518700974008"><ele>87.0</ele><time>2026-04-22T15:53:05Z</time></trkpt><trkpt lat="46.040522572051934" lon="13.30667657629806"><ele>87.25</ele><time>2026-04-22T15:53:06Z</time></trkpt><trkpt lat="46.04057375071051" lon="13.306839019643453"><ele>87.5</ele><time>2026-04-22T15:53:07Z</time></trkpt><trkpt lat="46.04061607715989" lon="13.30699812576774"><ele>87.75</ele><time>2026-04-22T15:53:08Z</time></trkpt><trkpt lat="46.040660926070665" lon="13.307155890991503"><ele>88.0</ele><time>2026-04-22T15:53:09Z</time></trkpt><trkpt lat="46.0407041591538" lon="13.307319471075072"><ele>88.0</ele><time>2026-04-22T15:53:10Z</time></trkpt><trkpt lat="46.0407479074727" lon="13.307488935836231"><ele>88.0</ele><time>2026-04-22T15:53:11Z</time></trkpt><trkpt lat="46.040794320886036" lon="13.307667066582113"><ele>88.0</ele><time>2026-04-22T15:53:12Z</time></trkpt><trkpt lat="46.04083770894295" lon="13.30785108750553"><ele>88.0</ele><time>2026-04-22T15:53:13Z</time></trkpt><trkpt lat="46.040882261687216" lon="13.308037306542039"><ele>88.25</ele><time>2026-04-22T15:53:14Z</time></trkpt><trkpt lat="46.04092691112894" lon="13.30821725845935"><ele>88.5</ele><time>2026-04-22T15:53:15Z</time></trkpt><trkpt lat="46.04096820304064" lon="13.30839007120936"><ele>88.75</ele><time>2026-04-22T15:53:16Z</time></trkpt><trkpt lat="46.041011261591855" lon="13.308563942345"><ele>89.0</ele><time>2026-04-22T15:53:17Z</time></trkpt><trkpt lat="46.041062385261704" lon="13.308745720695086"><ele>88.75</ele><time>2026-04-22T15:53:18Z</time></trkpt><trkpt lat="46.04112297756426" lon="13.308936883766343"><ele>88.5</ele><time>2026-04-22T15:53:19Z</time></trkpt><trkpt lat="46.04119720837425" lon="13.309125819332309"><ele>88.25</ele><time>2026-04-22T15:53:20Z</time></trkpt><trkpt lat="46.04127451991037" lon="13.309296490533573"><ele>88.0</ele><time>2026-04-22T15:53:21Z</time></trkpt><trkpt lat="46.041364033027186" lon="13.309460790197248"><ele>88.0</ele><time>2026-04-22T15:53:22Z</time></trkpt><trkpt lat="46.041461767925696" lon="13.309611746510726"><ele>88.0</ele><time>2026-04-22T15:53:23Z</time></trkpt><trkpt lat="46.04156332107175" lon="13.309746335750594"><ele>88.0</ele><time>2026-04-22T15:53:24Z</time></trkpt><trkpt lat="46.04167075924098" lon="13.309876196351235"><ele>88.0</ele><time>2026-04-22T15:53:25Z</time></trkpt><trkpt lat="46.041786374535306" lon="13.310001167528583"><ele>87.75</ele><time>2026-04-22T15:53:26Z</time></trkpt><trkpt lat="46.04191200324374" lon="13.310113667832407"><ele>87.5</ele><time>2026-04-22T15:53:27Z</time></trkpt><trkpt lat="46.04204263005932" lon="13.310208581211365"><ele>87.25</ele><time>2026-04-22T15:53:28Z</time></trkpt><trkpt lat="46.042179528491054" lon="13.310288616883133"><ele>87.0</ele><time>2026-04-22T15:53:29Z</time></trkpt><trkpt lat="46.04231797992875" lon="13.310368714523197"><ele>87.0</ele><time>2026-04-22T15:53:30Z</time></trkpt><trkpt lat="46.04245886598703" lon="13.310450598421884"><ele>87.0</ele><time>2026-04-22T15:53:31Z</time></trkpt><trkpt lat="46.042599129732814" lon="13.310529461545418"><ele>87.0</ele><time>2026-04-22T15:53:32Z</time></trkpt><trkpt lat="46.04273496904172" lon="13.310609196902409"><ele>87.0</ele><time>2026-04-22T15:53:33Z</time></trkpt><trkpt lat="46.042869535233734" lon="13.310688225601938"><ele>86.75</ele><time>2026-04-22T15:53:34Z</time></trkpt><trkpt lat="46.04300174545311" lon="13.310766000040289"><ele>86.5</ele><time>2026-04-22T15:53:35Z</time></trkpt><trkpt lat="46.04313379464743" lon="13.310843602898926"><ele>86.25</ele><time>2026-04-22T15:53:36Z</time></trkpt><trkpt lat="46.04326763004708" lon="13.310921066686403"><ele>86.0</ele><time>2026-04-22T15:53:37Z</time></trkpt><trkpt lat="46.04338703814887" lon="13.310989215802616"><ele>86.0</ele><time>2026-04-22T15:53:38Z</time></trkpt><trkpt lat="46.04349838598933" lon="13.311059798006042"><ele>86.0</ele><time>2026-04-22T15:53:39Z</time></trkpt><trkpt lat="46.043620189869735" lon="13.311133755496698"><ele>86.0</ele><time>2026-04-22T15:53:40Z</time></trkpt><trkpt lat="46.04374222270238" lon="13.311205867276891"><ele>86.0</ele><time>2026-04-22T15:53:40.999Z</time></trkpt><trkpt lat="46.0438499757866" lon="13.311270352798601"><ele>86.0</ele><time>2026-04-22T15:53:41.999Z</time></trkpt><trkpt lat="46.043957957193506" lon="13.311334816913398"><ele>86.0</ele><time>2026-04-22T15:53:42.999Z</time></trkpt><trkpt lat="46.0440638287994" lon="13.311404344230752"><ele>86.0</ele><time>2026-04-22T15:53:43.999Z</time></trkpt><trkpt lat="46.04416197760425" lon="13.311492824502865"><ele>86.0</ele><time>2026-04-22T15:53:44.999Z</time></trkpt><trkpt lat="46.04425044759376" lon="13.311599944842756"><ele>86.5</ele><time>2026-04-22T15:53:45.999Z</time></trkpt><trkpt lat="46.04432286306564" lon="13.31173250326612"><ele>87.0</ele><time>2026-04-22T15:53:46.999Z</time></trkpt><trkpt lat="46.04438836636839" lon="13.311876070019332"><ele>87.5</ele><time>2026-04-22T15:53:47.999Z</time></trkpt><trkpt lat="46.04445404803182" lon="13.312026537131754"><ele>88.0</ele><time>2026-04-22T15:53:48.999Z</time></trkpt><trkpt lat="46.04455993046392" lon="13.312104299519316"><ele>87.5</ele><time>2026-04-22T15:53:49.999Z</time></trkpt><trkpt lat="46.04459349419818" lon="13.312329656230581"><ele>87.0</ele><time>2026-04-22T15:53:50.999Z</time></trkpt><trkpt lat="46.044666383496875" lon="13.312483358331958"><ele>86.5</ele><time>2026-04-22T15:53:51.999Z</time></trkpt><trkpt lat="46.04473493487995" lon="13.312634755283655"><ele>86.0</ele><time>2026-04-22T15:53:52.999Z</time></trkpt><trkpt lat="46.044784719244134" lon="13.312798716456426"><ele>86.0</ele><time>2026-04-22T15:53:53.999Z</time></trkpt><trkpt lat="46.04480966174399" lon="13.312971704107204"><ele>86.0</ele><time>2026-04-22T15:53:54.999Z</time></trkpt><trkpt lat="46.04481477585991" lon="13.31314984281451"><ele>86.0</ele><time>2026-04-22T15:53:55.999Z</time></trkpt><trkpt lat="46.04478932494244" lon="13.313337310900033"><ele>86.0</ele><time>2026-04-22T15:53:56.999Z</time></trkpt><trkpt lat="46.0447518213946" lon="13.313526497868601"><ele>86.25</ele><time>2026-04-22T15:53:57.999Z</time></trkpt><trkpt lat="46.04471697756907" lon="13.31372117089492"><ele>86.5</ele><time>2026-04-22T15:53:58.999Z</time></trkpt><trkpt lat="46.04467372992769" lon="13.313913158664972"><ele>86.75</ele><time>2026-04-22T15:53:59.999Z</time></trkpt><trkpt lat="46.04463009047266" lon="13.314103423361722"><ele>87.0</ele><time>2026-04-22T15:54:00.999Z</time></trkpt><trkpt lat="46.044569778823046" lon="13.314292580867757"><ele>87.0</ele><time>2026-04-22T15:54:01.999Z</time></trkpt><trkpt lat="46.04450937257512" lon="13.314501808930714"><ele>87.0</ele><time>2026-04-22T15:54:02.999Z</time></trkpt><trkpt lat="46.044418752849886" lon="13.314706392604176"><ele>87.0</ele><time>2026-04-22T15:54:04Z</time></trkpt><trkpt lat="46.04433007331572" lon="13.31492787987145"><ele>87.0</ele><time>2026-04-22T15:54:05Z</time></trkpt><trkpt lat="46.04424925173389" lon="13.3151383160331"><ele>87.0</ele><time>2026-04-22T15:54:06Z</time></trkpt><trkpt lat="46.044181578360515" lon="13.315351712780435"><ele>87.0</ele><time>2026-04-22T15:54:07Z</time></trkpt><trkpt lat="46.04412952471723" lon="13.315582287360575"><ele>87.33333333333333</ele><time>2026-04-22T15:54:08Z</time></trkpt><trkpt lat="46.04408163464448" lon="13.315831231756917"><ele>87.66666666666666</ele><time>2026-04-22T15:54:09Z</time></trkpt><trkpt lat="46.04401863178699" lon="13.316063455710673"><ele>88.0</ele><time>2026-04-22T15:54:10Z</time></trkpt><trkpt lat="46.04397009826909" lon="13.316290514117197"><ele>87.66666666666666</ele><time>2026-04-22T15:54:11Z</time></trkpt><trkpt lat="46.04392372344494" lon="13.316507473221742"><ele>87.33333333333333</ele><time>2026-04-22T15:54:12Z</time></trkpt><trkpt lat="46.04389557446298" lon="13.316722003084838"><ele>87.0</ele><time>2026-04-22T15:54:13Z</time></trkpt><trkpt lat="46.0438518909381" lon="13.316930767617594"><ele>87.0</ele><time>2026-04-22T15:54:14Z</time></trkpt><trkpt lat="46.043811374426234" lon="13.31713944920325"><ele>87.0</ele><time>2026-04-22T15:54:15Z</time></trkpt><trkpt lat="46.04377037392154" lon="13.317342617099062"><ele>87.0</ele><time>2026-04-22T15:54:16Z</time></trkpt><trkpt lat="46.04372988107196" lon="13.317525785835516"><ele>87.0</ele><time>2026-04-22T15:54:17Z</time></trkpt><trkpt lat="46.04368734567278" lon="13.31769581807935"><ele>87.0</ele><time>2026-04-22T15:54:18Z</time></trkpt><trkpt lat="46.04363995299361" lon="13.317855621493495"><ele>87.0</ele><time>2026-04-22T15:54:19Z</time></trkpt><trkpt lat="46.043564690265036" lon="13.31799397279156"><ele>87.0</ele><time>2026-04-22T15:54:20Z</time></trkpt><trkpt lat="46.043486784767495" lon="13.318124956066413"><ele>87.0</ele><time>2026-04-22T15:54:21Z</time></trkpt><trkpt lat="46.04338921483142" lon="13.3182128513255"><ele>87.0</ele><time>2026-04-22T15:54:22Z</time></trkpt><trkpt lat="46.043274833818046" lon="13.318307647345367"><ele>87.0</ele><time>2026-04-22T15:54:23Z</time></trkpt><trkpt lat="46.04315861387225" lon="13.318409505847585"><ele>87.0</ele><time>2026-04-22T15:54:24Z</time></trkpt><trkpt lat="46.043053697124506" lon="13.318533560943647"><ele>87.0</ele><time>2026-04-22T15:54:25Z</time></trkpt><trkpt lat="46.042961453776705" lon="13.318672813146671"><ele>87.0</ele><time>2026-04-22T15:54:26Z</time></trkpt><trkpt lat="46.04286789265175" lon="13.31881487620389"><ele>87.0</ele><time>2026-04-22T15:54:27Z</time></trkpt><trkpt lat="46.042778936005774" lon="13.31894792439421"><ele>87.0</ele><time>2026-04-22T15:54:28Z</time></trkpt><trkpt lat="46.04268913590717" lon="13.319084069370422"><ele>87.0</ele><time>2026-04-22T15:54:29Z</time></trkpt><trkpt lat="46.04259946362323" lon="13.319223961484122"><ele>86.5</ele><time>2026-04-22T15:54:30Z</time></trkpt><trkpt lat="46.04251628408298" lon="13.319360447018203"><ele>86.0</ele><time>2026-04-22T15:54:31Z</time></trkpt><trkpt lat="46.042443132014235" lon="13.319493480261968"><ele>85.5</ele><time>2026-04-22T15:54:32Z</time></trkpt><trkpt lat="46.0423915879959" lon="13.319663430260988"><ele>85.0</ele><time>2026-04-22T15:54:33Z</time></trkpt><trkpt lat="46.04241127701888" lon="13.319871413192558"><ele>84.75</ele><time>2026-04-22T15:54:34Z</time></trkpt><trkpt lat="46.04243407651723" lon="13.320069780307046"><ele>84.5</ele><time>2026-04-22T15:54:35Z</time></trkpt><trkpt lat="46.04245339614361" lon="13.32026918594753"><ele>84.25</ele><time>2026-04-22T15:54:36Z</time></trkpt><trkpt lat="46.042472439152874" lon="13.320471607736453"><ele>84.0</ele><time>2026-04-22T15:54:37Z</time></trkpt><trkpt lat="46.04249079826378" lon="13.320675536263478"><ele>84.0</ele><time>2026-04-22T15:54:38Z</time></trkpt><trkpt lat="46.04250932861057" lon="13.320876887915965"><ele>84.0</ele><time>2026-04-22T15:54:39Z</time></trkpt><trkpt lat="46.04253520406089" lon="13.321081607874705"><ele>84.0</ele><time>2026-04-22T15:54:40Z</time></trkpt><trkpt lat="46.042573101555554" lon="13.32128888039895"><ele>84.0</ele><time>2026-04-22T15:54:41Z</time></trkpt><trkpt lat="46.042641643611326" lon="13.321491797710946"><ele>83.0</ele><time>2026-04-22T15:54:42Z</time></trkpt><trkpt lat="46.04273919025184" lon="13.32169577911769"><ele>82.0</ele><time>2026-04-22T15:54:43Z</time></trkpt><trkpt lat="46.042846126106866" lon="13.321905001933244"><ele>81.0</ele><time>2026-04-22T15:54:44Z</time></trkpt><trkpt lat="46.042937271609446" lon="13.322108883661976"><ele>81.33333333333333</ele><time>2026-04-22T15:54:45Z</time></trkpt><trkpt lat="46.04302518521002" lon="13.32230260616936"><ele>81.66666666666666</ele><time>2026-04-22T15:54:46Z</time></trkpt><trkpt lat="46.043113128563114" lon="13.32248509112231"><ele>82.0</ele><time>2026-04-22T15:54:47Z</time></trkpt><trkpt lat="46.043196115847" lon="13.322665911635566"><ele>82.0</ele><time>2026-04-22T15:54:48Z</time></trkpt><trkpt lat="46.043275497114145" lon="13.322847825171488"><ele>82.0</ele><time>2026-04-22T15:54:49Z</time></trkpt><trkpt lat="46.04335336555518" lon="13.32301681382087"><ele>82.0</ele><time>2026-04-22T15:54:50Z</time></trkpt><trkpt lat="46.043422782360174" lon="13.323164195085365"><ele>82.0</ele><time>2026-04-22T15:54:51Z</time></trkpt><trkpt lat="46.0434798501845" lon="13.323299699057868"><ele>82.19999999999999</ele><time>2026-04-22T15:54:52Z</time></trkpt><trkpt lat="46.043530380439655" lon="13.323439039169635"><ele>82.4</ele><time>2026-04-22T15:54:53Z</time></trkpt><trkpt lat="46.04356046190413" lon="13.323579164854992"><ele>82.6</ele><time>2026-04-22T15:54:54Z</time></trkpt><trkpt lat="46.04356781373803" lon="13.323717159356997"><ele>82.80000000000001</ele><time>2026-04-22T15:54:55Z</time></trkpt><trkpt lat="46.04356541220174" lon="13.32385396693611"><ele>83.0</ele><time>2026-04-22T15:54:56Z</time></trkpt><trkpt lat="46.04356342717926" lon="13.323989949071649"><ele>83.2</ele><time>2026-04-22T15:54:57Z</time></trkpt><trkpt lat="46.04357314349296" lon="13.324114684883972"><ele>83.4</ele><time>2026-04-22T15:54:58Z</time></trkpt><trkpt lat="46.043597002197224" lon="13.324227635470095"><ele>83.60000000000001</ele><time>2026-04-22T15:54:59Z</time></trkpt><trkpt lat="46.04364198604065" lon="13.324341656841971"><ele>83.80000000000001</ele><time>2026-04-22T15:55:00Z</time></trkpt><trkpt lat="46.04370152101316" lon="13.324462583744504"><ele>84.0</ele><time>2026-04-22T15:55:01Z</time></trkpt><trkpt lat="46.04376090194385" lon="13.324588800698594"><ele>84.0</ele><time>2026-04-22T15:55:02Z</time></trkpt><trkpt lat="46.04382047761191" lon="13.3247134262142"><ele>84.0</ele><time>2026-04-22T15:55:03Z</time></trkpt><trkpt lat="46.04388075760793" lon="13.32484318939699"><ele>84.0</ele><time>2026-04-22T15:55:04Z</time></trkpt><trkpt lat="46.04394516875109" lon="13.324982476528803"><ele>84.0</ele><time>2026-04-22T15:55:05Z</time></trkpt><trkpt lat="46.04401109730965" lon="13.325124959962357"><ele>84.0</ele><time>2026-04-22T15:55:06Z</time></trkpt><trkpt lat="46.04407086448968" lon="13.325276474843914"><ele>84.0</ele><time>2026-04-22T15:55:07Z</time></trkpt><trkpt lat="46.044111500826375" lon="13.325439216897978"><ele>84.0</ele><time>2026-04-22T15:55:08Z</time></trkpt><trkpt lat="46.04413153046204" lon="13.325619837883945"><ele>84.0</ele><time>2026-04-22T15:55:09Z</time></trkpt><trkpt lat="46.04413388720926" lon="13.325827356408013"><ele>84.0</ele><time>2026-04-22T15:55:10Z</time></trkpt><trkpt lat="46.04412925098388" lon="13.326054595157727"><ele>84.0</ele><time>2026-04-22T15:55:11Z</time></trkpt><trkpt lat="46.044122372909655" lon="13.326289954874099"><ele>84.0</ele><time>2026-04-22T15:55:12Z</time></trkpt><trkpt lat="46.0441166446666" lon="13.32651546915516"><ele>84.0</ele><time>2026-04-22T15:55:13Z</time></trkpt><trkpt lat="46.04410915786051" lon="13.326735758968837"><ele>84.33333333333333</ele><time>2026-04-22T15:55:14Z</time></trkpt><trkpt lat="46.04410056355453" lon="13.326954945823363"><ele>84.66666666666666</ele><time>2026-04-22T15:55:15Z</time></trkpt><trkpt lat="46.04409214151525" lon="13.327177505645734"><ele>85.0</ele><time>2026-04-22T15:55:16Z</time></trkpt><trkpt lat="46.044085033064604" lon="13.327401240109591"><ele>85.0</ele><time>2026-04-22T15:55:17Z</time></trkpt><trkpt lat="46.044077514024686" lon="13.32763946341711"><ele>85.0</ele><time>2026-04-22T15:55:18Z</time></trkpt><trkpt lat="46.044072317831244" lon="13.327883875678246"><ele>85.0</ele><time>2026-04-22T15:55:19Z</time></trkpt><trkpt lat="46.044063555121696" lon="13.328128974085743"><ele>85.33333333333333</ele><time>2026-04-22T15:55:20Z</time></trkpt><trkpt lat="46.04405138761028" lon="13.328381562608039"><ele>85.66666666666667</ele><time>2026-04-22T15:55:21Z</time></trkpt><trkpt lat="46.04404093497571" lon="13.328644479392656"><ele>86.0</ele><time>2026-04-22T15:55:22Z</time></trkpt><trkpt lat="46.04403138517983" lon="13.328911464475237"><ele>87.0</ele><time>2026-04-22T15:55:23Z</time></trkpt><trkpt lat="46.04402249377182" lon="13.329168803168184"><ele>88.0</ele><time>2026-04-22T15:55:24Z</time></trkpt><trkpt lat="46.044013751672544" lon="13.32942624542781"><ele>89.0</ele><time>2026-04-22T15:55:25Z</time></trkpt><trkpt lat="46.04400262730108" lon="13.329683739514877"><ele>89.33333333333334</ele><time>2026-04-22T15:55:26Z</time></trkpt><trkpt lat="46.043991008519605" lon="13.32993285243033"><ele>89.66666666666667</ele><time>2026-04-22T15:55:27Z</time></trkpt><trkpt lat="46.043980905681636" lon="13.330170145644871"><ele>90.0</ele><time>2026-04-22T15:55:28Z</time></trkpt><trkpt lat="46.04397242761905" lon="13.330400710223715"><ele>89.75</ele><time>2026-04-22T15:55:29Z</time></trkpt><trkpt lat="46.043965707689104" lon="13.330623124772465"><ele>89.5</ele><time>2026-04-22T15:55:30Z</time></trkpt><trkpt lat="46.04395884409696" lon="13.330839253725077"><ele>89.25</ele><time>2026-04-22T15:55:31Z</time></trkpt><trkpt lat="46.043952131225126" lon="13.331045726011942"><ele>89.0</ele><time>2026-04-22T15:55:32Z</time></trkpt><trkpt lat="46.04394699772682" lon="13.331249912993087"><ele>89.0</ele><time>2026-04-22T15:55:33Z</time></trkpt><trkpt lat="46.04394238853369" lon="13.331449810689513"><ele>89.0</ele><time>2026-04-22T15:55:34Z</time></trkpt><trkpt lat="46.043935828597455" lon="13.331646474420726"><ele>89.0</ele><time>2026-04-22T15:55:35Z</time></trkpt><trkpt lat="46.04392576682246" lon="13.331838434400101"><ele>89.0</ele><time>2026-04-22T15:55:36Z</time></trkpt><trkpt lat="46.043916423215734" lon="13.332011199467473"><ele>89.0</ele><time>2026-04-22T15:55:37Z</time></trkpt><trkpt lat="46.04391116363005" lon="13.332165261170069"><ele>89.0</ele><time>2026-04-22T15:55:38Z</time></trkpt><trkpt lat="46.043907623750684" lon="13.332309638256893"><ele>89.0</ele><time>2026-04-22T15:55:39Z</time></trkpt><trkpt lat="46.043903485043074" lon="13.332437968381518"><ele>89.0</ele><time>2026-04-22T15:55:40Z</time></trkpt><trkpt lat="46.043899841162805" lon="13.332564185406133"><ele>89.0</ele><time>2026-04-22T15:55:41Z</time></trkpt><trkpt lat="46.04389804689632" lon="13.332694756036732"><ele>89.0</ele><time>2026-04-22T15:55:42Z</time></trkpt><trkpt lat="46.04389124735199" lon="13.33281931472292"><ele>89.0</ele><time>2026-04-22T15:55:43Z</time></trkpt><trkpt lat="46.04388269377818" lon="13.332963739656693"><ele>89.0</ele><time>2026-04-22T15:55:45Z</time></trkpt><trkpt lat="46.04386652619602" lon="13.333071110056137"><ele>89.0</ele><time>2026-04-22T15:55:47.999Z</time></trkpt><trkpt lat="46.04394033141008" lon="13.333177069316497"><ele>89.0</ele><time>2026-04-22T15:55:49.999Z</time></trkpt><trkpt lat="46.04403943861603" lon="13.333191629222757"><ele>89.0</ele><time>2026-04-22T15:55:50.999Z</time></trkpt><trkpt lat="46.04415325777756" lon="13.33320812426501"><ele>89.0</ele><time>2026-04-22T15:55:51.999Z</time></trkpt><trkpt lat="46.04427886980362" lon="13.333236072209802"><ele>89.0</ele><time>2026-04-22T15:55:52.999Z</time></trkpt><trkpt lat="46.04440198656059" lon="13.33326360901087"><ele>89.0</ele><time>2026-04-22T15:55:53.999Z</time></trkpt><trkpt lat="46.04453947057373" lon="13.333294544133825"><ele>89.0</ele><time>2026-04-22T15:55:54.999Z</time></trkpt><trkpt lat="46.04468094500705" lon="13.33332331077287"><ele>89.0</ele><time>2026-04-22T15:55:55.999Z</time></trkpt><trkpt lat="46.04482985333092" lon="13.333353688943427"><ele>89.0</ele><time>2026-04-22T15:55:56.999Z</time></trkpt><trkpt lat="46.04497603772208" lon="13.333384407463766"><ele>89.0</ele><time>2026-04-22T15:55:57.999Z</time></trkpt><trkpt lat="46.04511641861242" lon="13.333416157193794"><ele>90.33333333333334</ele><time>2026-04-22T15:55:58.999Z</time></trkpt><trkpt lat="46.04525776392747" lon="13.333451004670927"><ele>91.66666666666667</ele><time>2026-04-22T15:55:59.999Z</time></trkpt><trkpt lat="46.0454074708255" lon="13.333483415917412"><ele>93.0</ele><time>2026-04-22T15:56:00.999Z</time></trkpt><trkpt lat="46.04556247737979" lon="13.333515059488757"><ele>93.0</ele><time>2026-04-22T15:56:01.999Z</time></trkpt><trkpt lat="46.04572236877072" lon="13.33354701564919"><ele>93.0</ele><time>2026-04-22T15:56:02.999Z</time></trkpt><trkpt lat="46.04588446179793" lon="13.33358082845405"><ele>93.0</ele><time>2026-04-22T15:56:03.999Z</time></trkpt><trkpt lat="46.04604653357658" lon="13.333610312869107"><ele>91.66666666666667</ele><time>2026-04-22T15:56:04.999Z</time></trkpt><trkpt lat="46.04620998388985" lon="13.333634629761765"><ele>90.33333333333334</ele><time>2026-04-22T15:56:05.999Z</time></trkpt><trkpt lat="46.04637620497885" lon="13.33366071610293"><ele>89.0</ele><time>2026-04-22T15:56:06.999Z</time></trkpt><trkpt lat="46.04654965248918" lon="13.33369059904359"><ele>88.66666666666667</ele><time>2026-04-22T15:56:07.999Z</time></trkpt><trkpt lat="46.04672685332779" lon="13.333717139445268"><ele>88.33333333333333</ele><time>2026-04-22T15:56:09Z</time></trkpt><trkpt lat="46.0468988242943" lon="13.333741524408545"><ele>88.0</ele><time>2026-04-22T15:56:10Z</time></trkpt><trkpt lat="46.04706585987642" lon="13.333766162657286"><ele>88.0</ele><time>2026-04-22T15:56:11Z</time></trkpt><trkpt lat="46.047231803521264" lon="13.333793065785219"><ele>88.0</ele><time>2026-04-22T15:56:12Z</time></trkpt><trkpt lat="46.04740428464866" lon="13.33382154824006"><ele>88.0</ele><time>2026-04-22T15:56:13Z</time></trkpt><trkpt lat="46.04758295442639" lon="13.333849108995484"><ele>88.66666666666666</ele><time>2026-04-22T15:56:14Z</time></trkpt><trkpt lat="46.04776257870154" lon="13.333869230564515"><ele>89.33333333333333</ele><time>2026-04-22T15:56:15Z</time></trkpt><trkpt lat="46.04794492159455" lon="13.333874844939498"><ele>90.0</ele><time>2026-04-22T15:56:16Z</time></trkpt><trkpt lat="46.04812722234046" lon="13.333872078401924"><ele>90.66666666666667</ele><time>2026-04-22T15:56:17Z</time></trkpt><trkpt lat="46.04830939671951" lon="13.333855300755864"><ele>91.33333333333334</ele><time>2026-04-22T15:56:18Z</time></trkpt><trkpt lat="46.048490348727825" lon="13.333832842396982"><ele>92.0</ele><time>2026-04-22T15:56:19Z</time></trkpt><trkpt lat="46.04867127956276" lon="13.333803899417834"><ele>92.0</ele><time>2026-04-22T15:56:20Z</time></trkpt><trkpt lat="46.04885236031582" lon="13.333757337019648"><ele>92.0</ele><time>2026-04-22T15:56:21Z</time></trkpt><trkpt lat="46.04903313882703" lon="13.33369979726435"><ele>92.0</ele><time>2026-04-22T15:56:22Z</time></trkpt><trkpt lat="46.04921683366757" lon="13.333634458522742"><ele>91.66666666666667</ele><time>2026-04-22T15:56:23Z</time></trkpt><trkpt lat="46.04940518003724" lon="13.333568047609013"><ele>91.33333333333333</ele><time>2026-04-22T15:56:24Z</time></trkpt><trkpt lat="46.04959841399346" lon="13.333502903010828"><ele>91.0</ele><time>2026-04-22T15:56:25Z</time></trkpt><trkpt lat="46.049793434479184" lon="13.333435941227329"><ele>90.66666666666666</ele><time>2026-04-22T15:56:26Z</time></trkpt><trkpt lat="46.04998485318283" lon="13.333377689787772"><ele>90.33333333333333</ele><time>2026-04-22T15:56:27Z</time></trkpt><trkpt lat="46.05017434624764" lon="13.333330705627231"><ele>90.0</ele><time>2026-04-22T15:56:28Z</time></trkpt><trkpt lat="46.05036301425171" lon="13.333311256735316"><ele>90.0</ele><time>2026-04-22T15:56:29Z</time></trkpt><trkpt lat="46.05055643009436" lon="13.333312924787933"><ele>90.0</ele><time>2026-04-22T15:56:30Z</time></trkpt><trkpt lat="46.05074810570461" lon="13.33335352699848"><ele>90.0</ele><time>2026-04-22T15:56:31Z</time></trkpt><trkpt lat="46.05093968122874" lon="13.333419292284987"><ele>90.0</ele><time>2026-04-22T15:56:32Z</time></trkpt><trkpt lat="46.05114154490691" lon="13.333492696501695"><ele>90.0</ele><time>2026-04-22T15:56:33Z</time></trkpt><trkpt lat="46.05135178489183" lon="13.33356237142746"><ele>90.0</ele><time>2026-04-22T15:56:34Z</time></trkpt><trkpt lat="46.05155927046266" lon="13.333636650294595"><ele>90.33333333333333</ele><time>2026-04-22T15:56:35Z</time></trkpt><trkpt lat="46.051760673957816" lon="13.333706954040832"><ele>90.66666666666666</ele><time>2026-04-22T15:56:36Z</time></trkpt><trkpt lat="46.0519571521765" lon="13.333774045206608"><ele>91.0</ele><time>2026-04-22T15:56:37Z</time></trkpt><trkpt lat="46.0521543287968" lon="13.333838968370642"><ele>91.33333333333333</ele><time>2026-04-22T15:56:38Z</time></trkpt><trkpt lat="46.052344488288355" lon="13.33390246652835"><ele>91.66666666666667</ele><time>2026-04-22T15:56:39Z</time></trkpt><trkpt lat="46.052532172589785" lon="13.333966720302325"><ele>92.0</ele><time>2026-04-22T15:56:40Z</time></trkpt><trkpt lat="46.052715582981946" lon="13.33403192349625"><ele>92.0</ele><time>2026-04-22T15:56:41Z</time></trkpt><trkpt lat="46.05290029737313" lon="13.33409725636226"><ele>92.0</ele><time>2026-04-22T15:56:42Z</time></trkpt><trkpt lat="46.053087355049165" lon="13.334164387085636"><ele>92.0</ele><time>2026-04-22T15:56:43Z</time></trkpt><trkpt lat="46.0532709888347" lon="13.334246869009535"><ele>92.66666666666667</ele><time>2026-04-22T15:56:44Z</time></trkpt><trkpt lat="46.053448986171766" lon="13.33437301147935"><ele>93.33333333333333</ele><time>2026-04-22T15:56:45Z</time></trkpt><trkpt lat="46.05362759670025" lon="13.3345220145857"><ele>94.0</ele><time>2026-04-22T15:56:46Z</time></trkpt><trkpt lat="46.05379895458264" lon="13.334660652037929"><ele>94.0</ele><time>2026-04-22T15:56:47Z</time></trkpt><trkpt lat="46.05396479176846" lon="13.334796327450746"><ele>94.0</ele><time>2026-04-22T15:56:48Z</time></trkpt><trkpt lat="46.05412776665491" lon="13.334934080591399"><ele>94.0</ele><time>2026-04-22T15:56:49Z</time></trkpt><trkpt lat="46.054286216377946" lon="13.33506970967484"><ele>94.0</ele><time>2026-04-22T15:56:50Z</time></trkpt><trkpt lat="46.054450028225475" lon="13.335207330823982"><ele>94.0</ele><time>2026-04-22T15:56:51Z</time></trkpt><trkpt lat="46.0546186208532" lon="13.335348756765367"><ele>94.0</ele><time>2026-04-22T15:56:52Z</time></trkpt><trkpt lat="46.05478788160388" lon="13.335492493572879"><ele>94.0</ele><time>2026-04-22T15:56:53Z</time></trkpt><trkpt lat="46.054956139728006" lon="13.335632512465462"><ele>94.0</ele><time>2026-04-22T15:56:54Z</time></trkpt><trkpt lat="46.05512645200756" lon="13.33577205064102"><ele>94.0</ele><time>2026-04-22T15:56:55Z</time></trkpt><trkpt lat="46.055295435693445" lon="13.335912226613473"><ele>94.0</ele><time>2026-04-22T15:56:56Z</time></trkpt><trkpt lat="46.05546478949669" lon="13.336049752425023"><ele>94.0</ele><time>2026-04-22T15:56:57Z</time></trkpt><trkpt lat="46.055634283389054" lon="13.336189652834095"><ele>94.0</ele><time>2026-04-22T15:56:58Z</time></trkpt><trkpt lat="46.055804173571005" lon="13.336330595194525"><ele>93.66666666666666</ele><time>2026-04-22T15:56:59Z</time></trkpt><trkpt lat="46.05597476639983" lon="13.336468514404197"><ele>93.33333333333333</ele><time>2026-04-22T15:57:00Z</time></trkpt><trkpt lat="46.05614727840051" lon="13.336607811103898"><ele>93.0</ele><time>2026-04-22T15:57:01Z</time></trkpt><trkpt lat="46.05631847859468" lon="13.336750611691782"><ele>93.0</ele><time>2026-04-22T15:57:02Z</time></trkpt><trkpt lat="46.05648723437349" lon="13.336895267763605"><ele>93.0</ele><time>2026-04-22T15:57:03Z</time></trkpt><trkpt lat="46.05665573553397" lon="13.337039428424879"><ele>93.0</ele><time>2026-04-22T15:57:04Z</time></trkpt><trkpt lat="46.05682957399512" lon="13.337181840919387"><ele>93.66666666666667</ele><time>2026-04-22T15:57:05Z</time></trkpt><trkpt lat="46.05700526287574" lon="13.337327165029325"><ele>94.33333333333334</ele><time>2026-04-22T15:57:06Z</time></trkpt><trkpt lat="46.057182491332036" lon="13.337474513006859"><ele>95.0</ele><time>2026-04-22T15:57:07Z</time></trkpt><trkpt lat="46.05736078745123" lon="13.337621158477994"><ele>95.0</ele><time>2026-04-22T15:57:08Z</time></trkpt><trkpt lat="46.05754039983173" lon="13.337768183994177"><ele>95.0</ele><time>2026-04-22T15:57:09Z</time></trkpt><trkpt lat="46.057720548832" lon="13.33791583063203"><ele>95.0</ele><time>2026-04-22T15:57:10Z</time></trkpt><trkpt lat="46.057898719648136" lon="13.338065829689109"><ele>95.0</ele><time>2026-04-22T15:57:11Z</time></trkpt><trkpt lat="46.05807241565161" lon="13.338211050310605"><ele>95.0</ele><time>2026-04-22T15:57:12Z</time></trkpt><trkpt lat="46.058241144019334" lon="13.338354865107206"><ele>95.0</ele><time>2026-04-22T15:57:13Z</time></trkpt><trkpt lat="46.05840596361052" lon="13.338491906135308"><ele>94.66666666666667</ele><time>2026-04-22T15:57:14Z</time></trkpt><trkpt lat="46.05857186679788" lon="13.338630246281577"><ele>94.33333333333333</ele><time>2026-04-22T15:57:15Z</time></trkpt><trkpt lat="46.05873671217169" lon="13.338767766973884"><ele>94.0</ele><time>2026-04-22T15:57:16Z</time></trkpt><trkpt lat="46.05890495860823" lon="13.33890632035016"><ele>94.33333333333333</ele><time>2026-04-22T15:57:17Z</time></trkpt><trkpt lat="46.059073675775366" lon="13.339043978514065"><ele>94.66666666666667</ele><time>2026-04-22T15:57:18Z</time></trkpt><trkpt lat="46.059244869832064" lon="13.339174697620303"><ele>95.0</ele><time>2026-04-22T15:57:19Z</time></trkpt><trkpt lat="46.059419699840674" lon="13.33929597679325"><ele>95.0</ele><time>2026-04-22T15:57:20Z</time></trkpt><trkpt lat="46.05959868565655" lon="13.339405016419791"><ele>95.0</ele><time>2026-04-22T15:57:21Z</time></trkpt><trkpt lat="46.05977891412128" lon="13.33950235467395"><ele>95.0</ele><time>2026-04-22T15:57:22Z</time></trkpt><trkpt lat="46.059959051306365" lon="13.339591559551325"><ele>94.66666666666667</ele><time>2026-04-22T15:57:23Z</time></trkpt><trkpt lat="46.060138104386915" lon="13.339679888038159"><ele>94.33333333333333</ele><time>2026-04-22T15:57:24Z</time></trkpt><trkpt lat="46.06031515964954" lon="13.339771153157706"><ele>94.0</ele><time>2026-04-22T15:57:25Z</time></trkpt><trkpt lat="46.06049054490349" lon="13.339863265033035"><ele>94.0</ele><time>2026-04-22T15:57:26Z</time></trkpt><trkpt lat="46.06066597579545" lon="13.339956683428609"><ele>94.0</ele><time>2026-04-22T15:57:27Z</time></trkpt><trkpt lat="46.06084070401504" lon="13.340048729168045"><ele>94.0</ele><time>2026-04-22T15:57:28Z</time></trkpt><trkpt lat="46.06101646616045" lon="13.340134760155683"><ele>94.0</ele><time>2026-04-22T15:57:29Z</time></trkpt><trkpt lat="46.06119173442476" lon="13.340220057106917"><ele>94.0</ele><time>2026-04-22T15:57:30Z</time></trkpt><trkpt lat="46.06135878221155" lon="13.3403088332678"><ele>94.0</ele><time>2026-04-22T15:57:31Z</time></trkpt><trkpt lat="46.061515045393" lon="13.340405532095712"><ele>95.0</ele><time>2026-04-22T15:57:32Z</time></trkpt><trkpt lat="46.061654359762244" lon="13.340525939224325"><ele>96.0</ele><time>2026-04-22T15:57:33Z</time></trkpt><trkpt lat="46.06177062853233" lon="13.340672362022136"><ele>97.0</ele><time>2026-04-22T15:57:34Z</time></trkpt><trkpt lat="46.061858365812135" lon="13.340835749844016"><ele>97.0</ele><time>2026-04-22T15:57:35Z</time></trkpt><trkpt lat="46.06193374855235" lon="13.341021163597986"><ele>97.0</ele><time>2026-04-22T15:57:36Z</time></trkpt><trkpt lat="46.062011745972285" lon="13.34121184526291"><ele>97.0</ele><time>2026-04-22T15:57:37Z</time></trkpt><trkpt lat="46.062094294732944" lon="13.341399680004065"><ele>97.0</ele><time>2026-04-22T15:57:38Z</time></trkpt><trkpt lat="46.0621766233993" lon="13.341587813231836"><ele>97.0</ele><time>2026-04-22T15:57:39Z</time></trkpt><trkpt lat="46.062257472388175" lon="13.341767066346344"><ele>97.0</ele><time>2026-04-22T15:57:40Z</time></trkpt><trkpt lat="46.0623319964288" lon="13.341940945008536"><ele>97.0</ele><time>2026-04-22T15:57:41Z</time></trkpt><trkpt lat="46.06240221339817" lon="13.342108441677391"><ele>96.5</ele><time>2026-04-22T15:57:42Z</time></trkpt><trkpt lat="46.06247277545669" lon="13.342272347996905"><ele>96.0</ele><time>2026-04-22T15:57:43Z</time></trkpt><trkpt lat="46.06255315222451" lon="13.342427925493055"><ele>95.5</ele><time>2026-04-22T15:57:44Z</time></trkpt><trkpt lat="46.06264909955061" lon="13.342558994857006"><ele>95.0</ele><time>2026-04-22T15:57:45Z</time></trkpt><trkpt lat="46.06276374541016" lon="13.342653992653245"><ele>95.0</ele><time>2026-04-22T15:57:46Z</time></trkpt><trkpt lat="46.06289239962373" lon="13.342715533246377"><ele>95.0</ele><time>2026-04-22T15:57:47Z</time></trkpt><trkpt lat="46.06302185090156" lon="13.342761377497638"><ele>95.0</ele><time>2026-04-22T15:57:47.999Z</time></trkpt><trkpt lat="46.063151814601454" lon="13.342809686591268"><ele>95.0</ele><time>2026-04-22T15:57:48.999Z</time></trkpt><trkpt lat="46.06328713906727" lon="13.342870945325934"><ele>95.5</ele><time>2026-04-22T15:57:49.999Z</time></trkpt><trkpt lat="46.06342511971064" lon="13.34293480162137"><ele>96.0</ele><time>2026-04-22T15:57:50.999Z</time></trkpt><trkpt lat="46.063556383328425" lon="13.342987577531689"><ele>96.5</ele><time>2026-04-22T15:57:51.999Z</time></trkpt><trkpt lat="46.06367037504352" lon="13.343023282105987"><ele>97.0</ele><time>2026-04-22T15:57:52.999Z</time></trkpt><trkpt lat="46.0637777144775" lon="13.343061490685566"><ele>97.19999999999999</ele><time>2026-04-22T15:57:53.999Z</time></trkpt><trkpt lat="46.063877225821706" lon="13.343075603767502"><ele>97.4</ele><time>2026-04-22T15:57:54.999Z</time></trkpt><trkpt lat="46.0639702132445" lon="13.343085399605707"><ele>97.6</ele><time>2026-04-22T15:57:55.999Z</time></trkpt><trkpt lat="46.06405736057949" lon="13.343091081147255"><ele>97.80000000000001</ele><time>2026-04-22T15:57:56.999Z</time></trkpt><trkpt lat="46.064135042381025" lon="13.343094813547744"><ele>98.0</ele><time>2026-04-22T15:57:57.999Z</time></trkpt><trkpt lat="46.06422893239782" lon="13.34310060579681"><ele>98.25</ele><time>2026-04-22T15:57:58.999Z</time></trkpt><trkpt lat="46.06433956924969" lon="13.343120359078457"><ele>98.5</ele><time>2026-04-22T15:57:59.999Z</time></trkpt><trkpt lat="46.064473842862576" lon="13.343185501812982"><ele>98.75</ele><time>2026-04-22T15:58:00.999Z</time></trkpt><trkpt lat="46.064620015531275" lon="13.343248711630295"><ele>99.0</ele><time>2026-04-22T15:58:01.999Z</time></trkpt><trkpt lat="46.06475980782724" lon="13.343283431778103"><ele>99.0</ele><time>2026-04-22T15:58:02.999Z</time></trkpt><trkpt lat="46.06492117486171" lon="13.343303877782592"><ele>99.0</ele><time>2026-04-22T15:58:03.999Z</time></trkpt><trkpt lat="46.0650613167168" lon="13.34331972324963"><ele>99.0</ele><time>2026-04-22T15:58:04.999Z</time></trkpt><trkpt lat="46.065176694632314" lon="13.343365256076241"><ele>99.0</ele><time>2026-04-22T15:58:05.999Z</time></trkpt><trkpt lat="46.06527888349841" lon="13.343368109414245"><ele>99.16666666666667</ele><time>2026-04-22T15:58:06.999Z</time></trkpt><trkpt lat="46.0653561035776" lon="13.343397918782864"><ele>99.33333333333334</ele><time>2026-04-22T15:58:07.999Z</time></trkpt><trkpt lat="46.06543107613851" lon="13.343415616845048"><ele>99.5</ele><time>2026-04-22T15:58:08.999Z</time></trkpt><trkpt lat="46.065511308750274" lon="13.343441565878328"><ele>99.66666666666667</ele><time>2026-04-22T15:58:09.999Z</time></trkpt><trkpt lat="46.065591186275135" lon="13.34347822360745"><ele>99.83333333333334</ele><time>2026-04-22T15:58:10.999Z</time></trkpt><trkpt lat="46.065669679763744" lon="13.343518211592713"><ele>100.0</ele><time>2026-04-22T15:58:11.999Z</time></trkpt><trkpt lat="46.065748493754725" lon="13.343570776965416"><ele>100.2</ele><time>2026-04-22T15:58:12.999Z</time></trkpt><trkpt lat="46.0658322242726" lon="13.343628417419401"><ele>100.4</ele><time>2026-04-22T15:58:14Z</time></trkpt><trkpt lat="46.065913520192176" lon="13.343687321426426"><ele>100.6</ele><time>2026-04-22T15:58:15Z</time></trkpt><trkpt lat="46.065985373" lon="13.343763078936663"><ele>100.8</ele><time>2026-04-22T15:58:16Z</time></trkpt><trkpt lat="46.066062814506374" lon="13.343831847146133"><ele>101.0</ele><time>2026-04-22T15:58:17Z</time></trkpt><trkpt lat="46.066154080102436" lon="13.343885665616813"><ele>101.25</ele><time>2026-04-22T15:58:18Z</time></trkpt><trkpt lat="46.066255059368515" lon="13.343930134071083"><ele>101.5</ele><time>2026-04-22T15:58:19Z</time></trkpt><trkpt lat="46.066365275441576" lon="13.34398587508335"><ele>101.75</ele><time>2026-04-22T15:58:20Z</time></trkpt><trkpt lat="46.06648821358682" lon="13.344023581154888"><ele>102.0</ele><time>2026-04-22T15:58:21Z</time></trkpt><trkpt lat="46.066616642218804" lon="13.344045758526418"><ele>102.0</ele><time>2026-04-22T15:58:22Z</time></trkpt><trkpt lat="46.06674239966098" lon="13.344057758215513"><ele>102.0</ele><time>2026-04-22T15:58:23Z</time></trkpt><trkpt lat="46.06686814890787" lon="13.344063757648028"><ele>102.0</ele><time>2026-04-22T15:58:24Z</time></trkpt><trkpt lat="46.06698675885574" lon="13.344057693031449"><ele>102.0</ele><time>2026-04-22T15:58:25Z</time></trkpt><trkpt lat="46.06708790058349" lon="13.34404949378124"><ele>102.0</ele><time>2026-04-22T15:58:26Z</time></trkpt><trkpt lat="46.06718650180944" lon="13.344046075072665"><ele>102.0</ele><time>2026-04-22T15:58:27Z</time></trkpt><trkpt lat="46.067296911272415" lon="13.344039608900212"><ele>102.0</ele><time>2026-04-22T15:58:28Z</time></trkpt><trkpt lat="46.06741894640583" lon="13.344051397981465"><ele>102.0</ele><time>2026-04-22T15:58:29Z</time></trkpt><trkpt lat="46.06753860434031" lon="13.344078495829374"><ele>102.0</ele><time>2026-04-22T15:58:30Z</time></trkpt><trkpt lat="46.06766475775264" lon="13.344102004118115"><ele>102.0</ele><time>2026-04-22T15:58:31Z</time></trkpt><trkpt lat="46.067801554320155" lon="13.34411786417293"><ele>102.0</ele><time>2026-04-22T15:58:32Z</time></trkpt><trkpt lat="46.06793009443135" lon="13.344134847100957"><ele>102.0</ele><time>2026-04-22T15:58:33Z</time></trkpt><trkpt lat="46.068053567290455" lon="13.344168131416227"><ele>102.0</ele><time>2026-04-22T15:58:34Z</time></trkpt><trkpt lat="46.06817763058786" lon="13.344204429829146"><ele>102.0</ele><time>2026-04-22T15:58:35Z</time></trkpt><trkpt lat="46.06830810603932" lon="13.344248426901181"><ele>102.0</ele><time>2026-04-22T15:58:36Z</time></trkpt><trkpt lat="46.068428609535744" lon="13.34429287274996"><ele>102.0</ele><time>2026-04-22T15:58:37Z</time></trkpt><trkpt lat="46.06854538508037" lon="13.344336343704475"><ele>101.66666666666666</ele><time>2026-04-22T15:58:38Z</time></trkpt><trkpt lat="46.06868063319014" lon="13.344385231544129"><ele>101.33333333333333</ele><time>2026-04-22T15:58:39Z</time></trkpt><trkpt lat="46.068836111541756" lon="13.34443983997991"><ele>101.0</ele><time>2026-04-22T15:58:40Z</time></trkpt><trkpt lat="46.06898554345439" lon="13.34449819015503"><ele>101.0</ele><time>2026-04-22T15:58:41Z</time></trkpt><trkpt lat="46.06911214019539" lon="13.344546472319307"><ele>101.0</ele><time>2026-04-22T15:58:42Z</time></trkpt><trkpt lat="46.069234554945325" lon="13.344592708569609"><ele>101.0</ele><time>2026-04-22T15:58:43Z</time></trkpt><trkpt lat="46.06936143555002" lon="13.344633677856802"><ele>101.0</ele><time>2026-04-22T15:58:44Z</time></trkpt><trkpt lat="46.06950007003814" lon="13.344653264682343"><ele>101.0</ele><time>2026-04-22T15:58:45Z</time></trkpt><trkpt lat="46.06965040283106" lon="13.344651205075063"><ele>101.0</ele><time>2026-04-22T15:58:46Z</time></trkpt><trkpt lat="46.06980869234652" lon="13.344639849648505"><ele>101.0</ele><time>2026-04-22T15:58:47Z</time></trkpt><trkpt lat="46.06993791803619" lon="13.344637384255547"><ele>101.0</ele><time>2026-04-22T15:58:48Z</time></trkpt><trkpt lat="46.0700755835493" lon="13.3446435246306"><ele>101.0</ele><time>2026-04-22T15:58:49Z</time></trkpt><trkpt lat="46.0702212133779" lon="13.34466813189469"><ele>101.0</ele><time>2026-04-22T15:58:50Z</time></trkpt><trkpt lat="46.070373506955406" lon="13.344703997448837"><ele>101.0</ele><time>2026-04-22T15:58:51Z</time></trkpt><trkpt lat="46.07052784271629" lon="13.344742870129044"><ele>101.0</ele><time>2026-04-22T15:58:52Z</time></trkpt><trkpt lat="46.070657461239406" lon="13.344775234400402"><ele>101.0</ele><time>2026-04-22T15:58:53Z</time></trkpt><trkpt lat="46.07076850190611" lon="13.34480054360895"><ele>101.0</ele><time>2026-04-22T15:58:54Z</time></trkpt><trkpt lat="46.07087262525835" lon="13.344821404471018"><ele>101.0</ele><time>2026-04-22T15:58:55Z</time></trkpt><trkpt lat="46.070975635375696" lon="13.344844051624552"><ele>100.99999999999999</ele><time>2026-04-22T15:58:56Z</time></trkpt><trkpt lat="46.07106898497621" lon="13.344891379530079"><ele>101.0</ele><time>2026-04-22T15:58:57Z</time></trkpt><trkpt lat="46.07114012179463" lon="13.344972681646484"><ele>101.0</ele><time>2026-04-22T15:58:58Z</time></trkpt><trkpt lat="46.071177690267994" lon="13.345082267599457"><ele>101.0</ele><time>2026-04-22T15:58:59Z</time></trkpt><trkpt lat="46.071195492544135" lon="13.345186796390609"><ele>100.99999999999999</ele><time>2026-04-22T15:59:00Z</time></trkpt><trkpt lat="46.07121256010045" lon="13.345276026749044"><ele>101.0</ele><time>2026-04-22T15:59:01Z</time></trkpt><trkpt lat="46.071281766407985" lon="13.345419219919473"><ele>101.0</ele><time>2026-04-22T15:59:03Z</time></trkpt><trkpt lat="46.07135249344829" lon="13.345448953216906"><ele>101.0</ele><time>2026-04-22T15:59:04Z</time></trkpt><trkpt lat="46.07144190539166" lon="13.345456255952623"><ele>101.0</ele><time>2026-04-22T15:59:05Z</time></trkpt><trkpt lat="46.07155330759322" lon="13.345483159163607"><ele>101.0</ele><time>2026-04-22T15:59:06Z</time></trkpt><trkpt lat="46.07168793976718" lon="13.34550917391036"><ele>101.0</ele><time>2026-04-22T15:59:07Z</time></trkpt><trkpt lat="46.07182471421509" lon="13.345544506919245"><ele>102.0</ele><time>2026-04-22T15:59:08Z</time></trkpt><trkpt lat="46.07196468101222" lon="13.345585337982303"><ele>103.0</ele><time>2026-04-22T15:59:09Z</time></trkpt><trkpt lat="46.07210905098581" lon="13.345621384103396"><ele>104.0</ele><time>2026-04-22T15:59:10Z</time></trkpt><trkpt lat="46.072257164426226" lon="13.345661064627356"><ele>105.0</ele><time>2026-04-22T15:59:11Z</time></trkpt><trkpt lat="46.072410389460295" lon="13.345714075790536"><ele>104.33333333333334</ele><time>2026-04-22T15:59:12Z</time></trkpt><trkpt lat="46.072577460847874" lon="13.345776185422134"><ele>103.66666666666667</ele><time>2026-04-22T15:59:13Z</time></trkpt><trkpt lat="46.07275812161781" lon="13.345835338277658"><ele>103.0</ele><time>2026-04-22T15:59:14Z</time></trkpt><trkpt lat="46.07295297062619" lon="13.345892502007965"><ele>103.0</ele><time>2026-04-22T15:59:15Z</time></trkpt><trkpt lat="46.073146456615206" lon="13.345947857361153"><ele>103.0</ele><time>2026-04-22T15:59:16Z</time></trkpt><trkpt lat="46.073340548413846" lon="13.346001070032353"><ele>103.0</ele><time>2026-04-22T15:59:17Z</time></trkpt><trkpt lat="46.07352782892859" lon="13.346076114755551"><ele>102.66666666666667</ele><time>2026-04-22T15:59:18Z</time></trkpt><trkpt lat="46.073718603506336" lon="13.3461093035093"><ele>102.33333333333334</ele><time>2026-04-22T15:59:19Z</time></trkpt><trkpt lat="46.07389762179432" lon="13.34620634722259"><ele>102.0</ele><time>2026-04-22T15:59:20Z</time></trkpt><trkpt lat="46.07408498904357" lon="13.346269809186387"><ele>101.33333333333334</ele><time>2026-04-22T15:59:21Z</time></trkpt><trkpt lat="46.07426943734686" lon="13.346359255883772"><ele>100.66666666666667</ele><time>2026-04-22T15:59:22Z</time></trkpt><trkpt lat="46.074452463742894" lon="13.34644053673143"><ele>100.0</ele><time>2026-04-22T15:59:23Z</time></trkpt><trkpt lat="46.07463097285067" lon="13.346521818754859"><ele>100.0</ele><time>2026-04-22T15:59:24Z</time></trkpt><trkpt lat="46.07480191499411" lon="13.346599372866605"><ele>100.0</ele><time>2026-04-22T15:59:25Z</time></trkpt><trkpt lat="46.07497045510338" lon="13.346673649039523"><ele>100.0</ele><time>2026-04-22T15:59:26Z</time></trkpt><trkpt lat="46.075134667792305" lon="13.346749218239216"><ele>100.33333333333334</ele><time>2026-04-22T15:59:27Z</time></trkpt><trkpt lat="46.07529804175587" lon="13.346842023439864"><ele>100.66666666666666</ele><time>2026-04-22T15:59:28Z</time></trkpt><trkpt lat="46.07545664400658" lon="13.346952920506371"><ele>101.0</ele><time>2026-04-22T15:59:29Z</time></trkpt><trkpt lat="46.075614709462435" lon="13.347084693631048"><ele>101.33333333333333</ele><time>2026-04-22T15:59:30Z</time></trkpt><trkpt lat="46.07577512771573" lon="13.347220645927704"><ele>101.66666666666666</ele><time>2026-04-22T15:59:31Z</time></trkpt><trkpt lat="46.07592336768345" lon="13.347380314942706"><ele>102.0</ele><time>2026-04-22T15:59:32Z</time></trkpt><trkpt lat="46.076078280095324" lon="13.3475303497404"><ele>102.0</ele><time>2026-04-22T15:59:33Z</time></trkpt><trkpt lat="46.07624503555612" lon="13.347664697614448"><ele>102.0</ele><time>2026-04-22T15:59:34Z</time></trkpt><trkpt lat="46.07640414077579" lon="13.347825065014675"><ele>102.0</ele><time>2026-04-22T15:59:35Z</time></trkpt><trkpt lat="46.07657076860418" lon="13.347988675793207"><ele>102.0</ele><time>2026-04-22T15:59:36Z</time></trkpt><trkpt lat="46.076744473220984" lon="13.348160930297036"><ele>102.0</ele><time>2026-04-22T15:59:37Z</time></trkpt><trkpt lat="46.07691897224541" lon="13.348361488052326"><ele>102.0</ele><time>2026-04-22T15:59:38Z</time></trkpt><trkpt lat="46.07711146183564" lon="13.348553056028743"><ele>102.0</ele><time>2026-04-22T15:59:39Z</time></trkpt><trkpt lat="46.077302393720636" lon="13.348742492820692"><ele>102.0</ele><time>2026-04-22T15:59:40Z</time></trkpt><trkpt lat="46.077489980876585" lon="13.348928612640378"><ele>102.0</ele><time>2026-04-22T15:59:41Z</time></trkpt><trkpt lat="46.07767630507138" lon="13.349113477360309"><ele>102.0</ele><time>2026-04-22T15:59:42Z</time></trkpt><trkpt lat="46.07786193905582" lon="13.349298006745052"><ele>102.0</ele><time>2026-04-22T15:59:43Z</time></trkpt><trkpt lat="46.078044084093975" lon="13.349480290006017"><ele>102.0</ele><time>2026-04-22T15:59:44Z</time></trkpt><trkpt lat="46.078217575084125" lon="13.349653921658645"><ele>102.0</ele><time>2026-04-22T15:59:45Z</time></trkpt><trkpt lat="46.07838506321759" lon="13.349823204116612"><ele>102.66666666666666</ele><time>2026-04-22T15:59:46Z</time></trkpt><trkpt lat="46.07854790209246" lon="13.349989212960862"><ele>103.33333333333333</ele><time>2026-04-22T15:59:47Z</time></trkpt><trkpt lat="46.078708871719044" lon="13.350155690405128"><ele>104.0</ele><time>2026-04-22T15:59:48Z</time></trkpt><trkpt lat="46.07887126477987" lon="13.350323640170341"><ele>104.0</ele><time>2026-04-22T15:59:49Z</time></trkpt><trkpt lat="46.079040892914634" lon="13.350469625074945"><ele>104.0</ele><time>2026-04-22T15:59:50Z</time></trkpt><trkpt lat="46.079203961109336" lon="13.350629191006634"><ele>104.0</ele><time>2026-04-22T15:59:51Z</time></trkpt><trkpt lat="46.07936692683619" lon="13.350791172767437"><ele>104.33333333333333</ele><time>2026-04-22T15:59:51.999Z</time></trkpt><trkpt lat="46.079558265523666" lon="13.35088135685138"><ele>104.66666666666666</ele><time>2026-04-22T15:59:52.999Z</time></trkpt><trkpt lat="46.079752368173594" lon="13.350908767368706"><ele>105.0</ele><time>2026-04-22T15:59:53.999Z</time></trkpt><trkpt lat="46.07994225539694" lon="13.350943181314152"><ele>105.0</ele><time>2026-04-22T15:59:54.999Z</time></trkpt><trkpt lat="46.08013697504775" lon="13.350974966544506"><ele>105.0</ele><time>2026-04-22T15:59:55.999Z</time></trkpt><trkpt lat="46.08033202687222" lon="13.35102074290546"><ele>105.0</ele><time>2026-04-22T15:59:56.999Z</time></trkpt><trkpt lat="46.080526021682324" lon="13.351087558959607"><ele>105.0</ele><time>2026-04-22T15:59:57.999Z</time></trkpt><trkpt lat="46.08071773257506" lon="13.351183145991746"><ele>105.0</ele><time>2026-04-22T15:59:58.999Z</time></trkpt><trkpt lat="46.08090378138163" lon="13.351284407887968"><ele>105.0</ele><time>2026-04-22T15:59:59.999Z</time></trkpt><trkpt lat="46.08108947450353" lon="13.351388140553265"><ele>105.0</ele><time>2026-04-22T16:00:00.999Z</time></trkpt><trkpt lat="46.081283421813566" lon="13.351515141247152"><ele>105.0</ele><time>2026-04-22T16:00:01.999Z</time></trkpt><trkpt lat="46.08148176314249" lon="13.351664767309654"><ele>105.0</ele><time>2026-04-22T16:00:02.999Z</time></trkpt><trkpt lat="46.081669071364914" lon="13.351818366244938"><ele>105.0</ele><time>2026-04-22T16:00:03.999Z</time></trkpt><trkpt lat="46.08185199315549" lon="13.351971110945508"><ele>105.0</ele><time>2026-04-22T16:00:04.999Z</time></trkpt><trkpt lat="46.082027922552406" lon="13.352130147602931"><ele>105.0</ele><time>2026-04-22T16:00:05.999Z</time></trkpt><trkpt lat="46.08220483975196" lon="13.35229201079254"><ele>105.0</ele><time>2026-04-22T16:00:06.999Z</time></trkpt><trkpt lat="46.082372816894804" lon="13.352474021680115"><ele>105.0</ele><time>2026-04-22T16:00:07.999Z</time></trkpt><trkpt lat="46.082549999592395" lon="13.352609090628185"><ele>105.0</ele><time>2026-04-22T16:00:08.999Z</time></trkpt><trkpt lat="46.08270284935436" lon="13.352778200019976"><ele>104.66666666666666</ele><time>2026-04-22T16:00:09.999Z</time></trkpt><trkpt lat="46.08285668648433" lon="13.352975614844095"><ele>104.33333333333333</ele><time>2026-04-22T16:00:10.999Z</time></trkpt><trkpt lat="46.083009699217826" lon="13.35319204967086"><ele>104.0</ele><time>2026-04-22T16:00:11.999Z</time></trkpt><trkpt lat="46.083157346797506" lon="13.35342884336772"><ele>104.0</ele><time>2026-04-22T16:00:12.999Z</time></trkpt><trkpt lat="46.083302415448024" lon="13.353671571290155"><ele>104.0</ele><time>2026-04-22T16:00:13.999Z</time></trkpt><trkpt lat="46.08344292637938" lon="13.35389887593049"><ele>104.0</ele><time>2026-04-22T16:00:14.999Z</time></trkpt><trkpt lat="46.0835638749023" lon="13.35413918776867"><ele>104.66666666666666</ele><time>2026-04-22T16:00:15.999Z</time></trkpt><trkpt lat="46.08370522677197" lon="13.35434568442267"><ele>105.33333333333334</ele><time>2026-04-22T16:00:16.999Z</time></trkpt><trkpt lat="46.08383733951432" lon="13.354569046694417"><ele>106.0</ele><time>2026-04-22T16:00:17.999Z</time></trkpt><trkpt lat="46.083969550290355" lon="13.354785400799813"><ele>106.0</ele><time>2026-04-22T16:00:18.999Z</time></trkpt><trkpt lat="46.08408606609429" lon="13.354978413952502"><ele>106.0</ele><time>2026-04-22T16:00:20Z</time></trkpt><trkpt lat="46.084187353294205" lon="13.355164891627382"><ele>106.0</ele><time>2026-04-22T16:00:21Z</time></trkpt><trkpt lat="46.08426557848948" lon="13.35536169986323"><ele>106.0</ele><time>2026-04-22T16:00:22Z</time></trkpt><trkpt lat="46.08432590039107" lon="13.355562460025931"><ele>106.0</ele><time>2026-04-22T16:00:23Z</time></trkpt><trkpt lat="46.08436286307593" lon="13.35577659593485"><ele>106.0</ele><time>2026-04-22T16:00:24Z</time></trkpt><trkpt lat="46.08435825655563" lon="13.355989698869523"><ele>106.0</ele><time>2026-04-22T16:00:25Z</time></trkpt><trkpt lat="46.08436651812183" lon="13.356192149897105"><ele>106.0</ele><time>2026-04-22T16:00:26Z</time></trkpt><trkpt lat="46.08435622925651" lon="13.356373695942384"><ele>106.0</ele><time>2026-04-22T16:00:27Z</time></trkpt><trkpt lat="46.084348832616676" lon="13.35653121356544"><ele>106.0</ele><time>2026-04-22T16:00:28Z</time></trkpt><trkpt lat="46.084343886107504" lon="13.356675253064136"><ele>106.16666666666667</ele><time>2026-04-22T16:00:29Z</time></trkpt><trkpt lat="46.0843408129815" lon="13.356795931505692"><ele>106.33333333333334</ele><time>2026-04-22T16:00:30Z</time></trkpt><trkpt lat="46.0843452172783" lon="13.356899958350963"><ele>106.5</ele><time>2026-04-22T16:00:31Z</time></trkpt><trkpt lat="46.08437446905483" lon="13.35698432345207"><ele>106.66666666666666</ele><time>2026-04-22T16:00:32Z</time></trkpt><trkpt lat="46.084433716090665" lon="13.357039418042087"><ele>106.83333333333333</ele><time>2026-04-22T16:00:33Z</time></trkpt><trkpt lat="46.08450696567366" lon="13.357052178730335"><ele>107.0</ele><time>2026-04-22T16:00:34Z</time></trkpt><trkpt lat="46.084595699790235" lon="13.357052568231394"><ele>107.0</ele><time>2026-04-22T16:00:35Z</time></trkpt><trkpt lat="46.084705589016615" lon="13.357074673983517"><ele>107.0</ele><time>2026-04-22T16:00:36Z</time></trkpt><trkpt lat="46.08483783193474" lon="13.357086164378304"><ele>107.0</ele><time>2026-04-22T16:00:37Z</time></trkpt><trkpt lat="46.08497520177572" lon="13.357100103586735"><ele>107.0</ele><time>2026-04-22T16:00:38Z</time></trkpt><trkpt lat="46.0851563947364" lon="13.357129734932432"><ele>107.0</ele><time>2026-04-22T16:00:39Z</time></trkpt><trkpt lat="46.08533638187498" lon="13.35715780727656"><ele>107.0</ele><time>2026-04-22T16:00:40Z</time></trkpt><trkpt lat="46.08548990412946" lon="13.357173115845685"><ele>107.0</ele><time>2026-04-22T16:00:41Z</time></trkpt><trkpt lat="46.08562136913356" lon="13.357177446506096"><ele>107.0</ele><time>2026-04-22T16:00:42Z</time></trkpt><trkpt lat="46.085746266091974" lon="13.35719811160023"><ele>106.99999999999999</ele><time>2026-04-22T16:00:43Z</time></trkpt><trkpt lat="46.08585541791747" lon="13.357230178819115"><ele>106.99999999999999</ele><time>2026-04-22T16:00:44Z</time></trkpt><trkpt lat="46.08595262268558" lon="13.357280156231964"><ele>107.0</ele><time>2026-04-22T16:00:45Z</time></trkpt><trkpt lat="46.086038482463614" lon="13.357358673948088"><ele>107.0</ele><time>2026-04-22T16:00:46Z</time></trkpt><trkpt lat="46.08610819404678" lon="13.357464325518725"><ele>107.39999999999999</ele><time>2026-04-22T16:00:47Z</time></trkpt><trkpt lat="46.08615388550286" lon="13.357590855623453"><ele>107.79999999999998</ele><time>2026-04-22T16:00:48Z</time></trkpt><trkpt lat="46.08617090931118" lon="13.357729544842625"><ele>108.2</ele><time>2026-04-22T16:00:49Z</time></trkpt><trkpt lat="46.08617243311071" lon="13.357893495486806"><ele>108.6</ele><time>2026-04-22T16:00:50Z</time></trkpt><trkpt lat="46.086146802947944" lon="13.358067440081987"><ele>109.0</ele><time>2026-04-22T16:00:51Z</time></trkpt><trkpt lat="46.086112037704446" lon="13.358257809511183"><ele>109.0</ele><time>2026-04-22T16:00:52Z</time></trkpt><trkpt lat="46.08608867592726" lon="13.358453863396724"><ele>109.0</ele><time>2026-04-22T16:00:53Z</time></trkpt><trkpt lat="46.08606006920021" lon="13.358657872629355"><ele>109.0</ele><time>2026-04-22T16:00:54Z</time></trkpt><trkpt lat="46.086028654684505" lon="13.3588726857993"><ele>109.0</ele><time>2026-04-22T16:00:55Z</time></trkpt><trkpt lat="46.08599291752224" lon="13.359103855536192"><ele>109.0</ele><time>2026-04-22T16:00:56Z</time></trkpt><trkpt lat="46.08595346551352" lon="13.359359171015994"><ele>109.0</ele><time>2026-04-22T16:00:57Z</time></trkpt><trkpt lat="46.085912630840305" lon="13.359628402733925"><ele>109.0</ele><time>2026-04-22T16:00:58Z</time></trkpt><trkpt lat="46.085875085894266" lon="13.359880953951652"><ele>109.0</ele><time>2026-04-22T16:00:59Z</time></trkpt><trkpt lat="46.08583687088101" lon="13.360147787536599"><ele>109.0</ele><time>2026-04-22T16:01:00Z</time></trkpt><trkpt lat="46.08580612571551" lon="13.360422224663688"><ele>109.0</ele><time>2026-04-22T16:01:01Z</time></trkpt><trkpt lat="46.0857838037644" lon="13.360689119792081"><ele>108.66666666666667</ele><time>2026-04-22T16:01:02Z</time></trkpt><trkpt lat="46.085773033856604" lon="13.360950292115561"><ele>108.33333333333334</ele><time>2026-04-22T16:01:03Z</time></trkpt><trkpt lat="46.08576825134594" lon="13.361208450726087"><ele>108.0</ele><time>2026-04-22T16:01:04Z</time></trkpt><trkpt lat="46.08576590372001" lon="13.361467233993164"><ele>108.0</ele><time>2026-04-22T16:01:05Z</time></trkpt><trkpt lat="46.08576400458024" lon="13.361716440562965"><ele>108.0</ele><time>2026-04-22T16:01:06Z</time></trkpt><trkpt lat="46.08576362399806" lon="13.361958618875986"><ele>108.0</ele><time>2026-04-22T16:01:07Z</time></trkpt><trkpt lat="46.0857610077966" lon="13.362200589805983"><ele>108.33333333333334</ele><time>2026-04-22T16:01:08Z</time></trkpt><trkpt lat="46.08575919492487" lon="13.362447448801625"><ele>108.66666666666667</ele><time>2026-04-22T16:01:09Z</time></trkpt><trkpt lat="46.08575860981353" lon="13.36269889835131"><ele>109.0</ele><time>2026-04-22T16:01:10Z</time></trkpt><trkpt lat="46.08575633292532" lon="13.362953247176781"><ele>110.0</ele><time>2026-04-22T16:01:11Z</time></trkpt><trkpt lat="46.08575355277863" lon="13.363207041562083"><ele>111.0</ele><time>2026-04-22T16:01:12Z</time></trkpt><trkpt lat="46.08575223161196" lon="13.363457354777244"><ele>112.0</ele><time>2026-04-22T16:01:13Z</time></trkpt><trkpt lat="46.085750188436485" lon="13.363709624094065"><ele>112.0</ele><time>2026-04-22T16:01:14Z</time></trkpt><trkpt lat="46.085746160911675" lon="13.363960303696118"><ele>112.0</ele><time>2026-04-22T16:01:15Z</time></trkpt><trkpt lat="46.08574183699236" lon="13.364208839632607"><ele>112.0</ele><time>2026-04-22T16:01:16Z</time></trkpt><trkpt lat="46.08573517498634" lon="13.364461968798238"><ele>111.33333333333334</ele><time>2026-04-22T16:01:17Z</time></trkpt><trkpt lat="46.08572600578739" lon="13.364719913439762"><ele>110.66666666666666</ele><time>2026-04-22T16:01:18Z</time></trkpt><trkpt lat="46.085713094449495" lon="13.36497546030986"><ele>110.0</ele><time>2026-04-22T16:01:19Z</time></trkpt><trkpt lat="46.0857016137667" lon="13.365218612168523"><ele>110.0</ele><time>2026-04-22T16:01:20Z</time></trkpt><trkpt lat="46.08569284912168" lon="13.36542155675494"><ele>110.0</ele><time>2026-04-22T16:01:21Z</time></trkpt><trkpt lat="46.08568600488646" lon="13.365604630297133"><ele>110.0</ele><time>2026-04-22T16:01:22Z</time></trkpt><trkpt lat="46.08568217702063" lon="13.365783103753555"><ele>110.0</ele><time>2026-04-22T16:01:23Z</time></trkpt><trkpt lat="46.08567565183307" lon="13.365964116823084"><ele>110.4</ele><time>2026-04-22T16:01:24Z</time></trkpt><trkpt lat="46.08566981475549" lon="13.366112148888496"><ele>110.8</ele><time>2026-04-22T16:01:25Z</time></trkpt><trkpt lat="46.085664912577926" lon="13.36625507206874"><ele>111.19999999999999</ele><time>2026-04-22T16:01:26Z</time></trkpt><trkpt lat="46.08565883835372" lon="13.366396315550224"><ele>111.6</ele><time>2026-04-22T16:01:27Z</time></trkpt><trkpt lat="46.0856528466277" lon="13.366510380137631"><ele>112.0</ele><time>2026-04-22T16:01:28Z</time></trkpt><trkpt lat="46.08564399490077" lon="13.366652296152942"><ele>112.0</ele><time>2026-04-22T16:01:30Z</time></trkpt><trkpt lat="46.08561891403223" lon="13.366762831787375"><ele>111.99999999999999</ele><time>2026-04-22T16:01:32Z</time></trkpt><trkpt lat="46.085768173789425" lon="13.366840105897406"><ele>111.99999999999999</ele><time>2026-04-22T16:01:35Z</time></trkpt><trkpt lat="46.085845403132744" lon="13.36683117850086"><ele>112.0</ele><time>2026-04-22T16:01:36Z</time></trkpt><trkpt lat="46.08593978575183" lon="13.36684896605417"><ele>112.0</ele><time>2026-04-22T16:01:37Z</time></trkpt><trkpt lat="46.086052804667595" lon="13.36686174718157"><ele>112.25</ele><time>2026-04-22T16:01:38Z</time></trkpt><trkpt lat="46.08618921559603" lon="13.366873822749264"><ele>112.5</ele><time>2026-04-22T16:01:39Z</time></trkpt><trkpt lat="46.0863234139033" lon="13.36689091823188"><ele>112.75</ele><time>2026-04-22T16:01:40Z</time></trkpt><trkpt lat="46.086463983887924" lon="13.366905219986517"><ele>113.0</ele><time>2026-04-22T16:01:41Z</time></trkpt><trkpt lat="46.08660960050616" lon="13.366922802459362"><ele>112.5</ele><time>2026-04-22T16:01:42Z</time></trkpt><trkpt lat="46.08675133068292" lon="13.366940357061173"><ele>112.0</ele><time>2026-04-22T16:01:43Z</time></trkpt><trkpt lat="46.086893478757496" lon="13.366952309581903"><ele>111.5</ele><time>2026-04-22T16:01:44Z</time></trkpt><trkpt lat="46.08703517019046" lon="13.366966407126215"><ele>111.0</ele><time>2026-04-22T16:01:45Z</time></trkpt><trkpt lat="46.08717234813071" lon="13.366984870140856"><ele>111.0</ele><time>2026-04-22T16:01:46Z</time></trkpt><trkpt lat="46.08730776970326" lon="13.366999483919908"><ele>111.0</ele><time>2026-04-22T16:01:47Z</time></trkpt><trkpt lat="46.087444483863884" lon="13.367010165785908"><ele>111.0</ele><time>2026-04-22T16:01:48Z</time></trkpt><trkpt lat="46.08759192109233" lon="13.36702737831913"><ele>111.0</ele><time>2026-04-22T16:01:49Z</time></trkpt><trkpt lat="46.08774679136757" lon="13.367045788083828"><ele>111.25</ele><time>2026-04-22T16:01:50Z</time></trkpt><trkpt lat="46.08788330793241" lon="13.367058846446026"><ele>111.5</ele><time>2026-04-22T16:01:51Z</time></trkpt><trkpt lat="46.08801607448773" lon="13.36707087591328"><ele>111.75</ele><time>2026-04-22T16:01:52Z</time></trkpt><trkpt lat="46.088149537249386" lon="13.367086389985797"><ele>112.0</ele><time>2026-04-22T16:01:53Z</time></trkpt><trkpt lat="46.08826840043925" lon="13.36710030962211"><ele>112.0</ele><time>2026-04-22T16:01:54Z</time></trkpt><trkpt lat="46.08837106393594" lon="13.367113433132857"><ele>111.99999999999999</ele><time>2026-04-22T16:01:55Z</time></trkpt><trkpt lat="46.08847088932479" lon="13.367124501668663"><ele>111.99999999999999</ele><time>2026-04-22T16:01:55.999Z</time></trkpt><trkpt lat="46.088572774913175" lon="13.367139014305678"><ele>112.0</ele><time>2026-04-22T16:01:56.999Z</time></trkpt><trkpt lat="46.08869285235261" lon="13.367156329210479"><ele>112.0</ele><time>2026-04-22T16:01:57.999Z</time></trkpt><trkpt lat="46.08883160711362" lon="13.367182892890277"><ele>111.66666666666667</ele><time>2026-04-22T16:01:58.999Z</time></trkpt><trkpt lat="46.088986902509156" lon="13.367239640019765"><ele>111.33333333333334</ele><time>2026-04-22T16:01:59.999Z</time></trkpt><trkpt lat="46.08914997069706" lon="13.367312971622477"><ele>111.0</ele><time>2026-04-22T16:02:00.999Z</time></trkpt><trkpt lat="46.08932482255697" lon="13.367383139611094"><ele>111.33333333333334</ele><time>2026-04-22T16:02:01.999Z</time></trkpt><trkpt lat="46.08949978363129" lon="13.367458714885727"><ele>111.66666666666667</ele><time>2026-04-22T16:02:02.999Z</time></trkpt><trkpt lat="46.089719150106355" lon="13.367551014436106"><ele>112.0</ele><time>2026-04-22T16:02:03.999Z</time></trkpt><trkpt lat="46.0899520242546" lon="13.367663339588198"><ele>112.0</ele><time>2026-04-22T16:02:04.999Z</time></trkpt><trkpt lat="46.09016310972529" lon="13.367752333754858"><ele>112.0</ele><time>2026-04-22T16:02:05.999Z</time></trkpt><trkpt lat="46.09035580607526" lon="13.36783267547109"><ele>112.0</ele><time>2026-04-22T16:02:06.999Z</time></trkpt><trkpt lat="46.090532727153864" lon="13.367907784640597"><ele>112.0</ele><time>2026-04-22T16:02:07.999Z</time></trkpt><trkpt lat="46.09068870985663" lon="13.367972895464135"><ele>112.0</ele><time>2026-04-22T16:02:08.999Z</time></trkpt><trkpt lat="46.090829177896744" lon="13.368033931994951"><ele>112.0</ele><time>2026-04-22T16:02:09.999Z</time></trkpt><trkpt lat="46.09095857797346" lon="13.368086203462976"><ele>112.0</ele><time>2026-04-22T16:02:10.999Z</time></trkpt><trkpt lat="46.09108687851071" lon="13.368140126576364"><ele>112.0</ele><time>2026-04-22T16:02:11.999Z</time></trkpt><trkpt lat="46.09121142512532" lon="13.368197756494242"><ele>112.0</ele><time>2026-04-22T16:02:12.999Z</time></trkpt><trkpt lat="46.09133267133078" lon="13.368255841741854"><ele>112.0</ele><time>2026-04-22T16:02:13.999Z</time></trkpt><trkpt lat="46.091453897500095" lon="13.368310952009612"><ele>112.0</ele><time>2026-04-22T16:02:14.999Z</time></trkpt><trkpt lat="46.091579814943216" lon="13.368370895452024"><ele>112.75</ele><time>2026-04-22T16:02:15.999Z</time></trkpt><trkpt lat="46.09171252839709" lon="13.36843547746508"><ele>113.5</ele><time>2026-04-22T16:02:16.999Z</time></trkpt><trkpt lat="46.09184644135659" lon="13.368491994634557"><ele>114.25</ele><time>2026-04-22T16:02:17.999Z</time></trkpt><trkpt lat="46.091965226155956" lon="13.368531808033207"><ele>115.0</ele><time>2026-04-22T16:02:18.999Z</time></trkpt><trkpt lat="46.09208037983269" lon="13.368552988981882"><ele>115.0</ele><time>2026-04-22T16:02:19.999Z</time></trkpt><trkpt lat="46.09219551728973" lon="13.368565111886358"><ele>115.0</ele><time>2026-04-22T16:02:20.999Z</time></trkpt><trkpt lat="46.09230956124385" lon="13.368575632350801"><ele>115.0</ele><time>2026-04-22T16:02:21.999Z</time></trkpt><trkpt lat="46.09241201937689" lon="13.368593136042644"><ele>115.0</ele><time>2026-04-22T16:02:22.999Z</time></trkpt><trkpt lat="46.09251159153732" lon="13.368615984209853"><ele>115.0</ele><time>2026-04-22T16:02:23.999Z</time></trkpt><trkpt lat="46.092616512966025" lon="13.36863776173023"><ele>114.5</ele><time>2026-04-22T16:02:24.999Z</time></trkpt><trkpt lat="46.09272244805517" lon="13.368664170709092"><ele>114.0</ele><time>2026-04-22T16:02:26Z</time></trkpt><trkpt lat="46.09283027588295" lon="13.368688135095393"><ele>113.5</ele><time>2026-04-22T16:02:27Z</time></trkpt><trkpt lat="46.09294392495332" lon="13.3687130828086"><ele>113.0</ele><time>2026-04-22T16:02:28Z</time></trkpt><trkpt lat="46.09306293915596" lon="13.368739177204864"><ele>113.0</ele><time>2026-04-22T16:02:29Z</time></trkpt><trkpt lat="46.09318386756969" lon="13.368758810236509"><ele>113.0</ele><time>2026-04-22T16:02:30Z</time></trkpt><trkpt lat="46.09330096949224" lon="13.368774773912765"><ele>113.0</ele><time>2026-04-22T16:02:31Z</time></trkpt><trkpt lat="46.09340911242007" lon="13.368792697102046"><ele>113.0</ele><time>2026-04-22T16:02:32Z</time></trkpt><trkpt lat="46.093510458157105" lon="13.368811432924288"><ele>112.80000000000001</ele><time>2026-04-22T16:02:33Z</time></trkpt><trkpt lat="46.09360360162249" lon="13.368836841227232"><ele>112.60000000000001</ele><time>2026-04-22T16:02:34Z</time></trkpt><trkpt lat="46.09369580762745" lon="13.368879601868192"><ele>112.39999999999999</ele><time>2026-04-22T16:02:35Z</time></trkpt><trkpt lat="46.09378360709368" lon="13.368945066607104"><ele>112.19999999999999</ele><time>2026-04-22T16:02:36Z</time></trkpt><trkpt lat="46.09385328811" lon="13.369024076826788"><ele>112.0</ele><time>2026-04-22T16:02:37Z</time></trkpt><trkpt lat="46.09390371949184" lon="13.36910557249004"><ele>112.39999999999999</ele><time>2026-04-22T16:02:38Z</time></trkpt><trkpt lat="46.093941763917634" lon="13.36920083186205"><ele>112.79999999999998</ele><time>2026-04-22T16:02:39Z</time></trkpt><trkpt lat="46.09397104655808" lon="13.369315992278946"><ele>113.2</ele><time>2026-04-22T16:02:40Z</time></trkpt><trkpt lat="46.09398705415202" lon="13.369471010286627"><ele>113.6</ele><time>2026-04-22T16:02:41Z</time></trkpt><trkpt lat="46.093995788625456" lon="13.369644704940368"><ele>114.0</ele><time>2026-04-22T16:02:42Z</time></trkpt><trkpt lat="46.0939765644187" lon="13.369820213008271"><ele>114.0</ele><time>2026-04-22T16:02:43Z</time></trkpt><trkpt lat="46.09397999394657" lon="13.369997785765811"><ele>114.0</ele><time>2026-04-22T16:02:44Z</time></trkpt><trkpt lat="46.09396035622466" lon="13.370167332502877"><ele>114.0</ele><time>2026-04-22T16:02:45Z</time></trkpt><trkpt lat="46.093939607621266" lon="13.370335045104019"><ele>114.0</ele><time>2026-04-22T16:02:46Z</time></trkpt><trkpt lat="46.093914250224984" lon="13.370500862873696"><ele>113.75</ele><time>2026-04-22T16:02:47Z</time></trkpt><trkpt lat="46.093889834660466" lon="13.370673799977608"><ele>113.5</ele><time>2026-04-22T16:02:48Z</time></trkpt><trkpt lat="46.093864856409354" lon="13.370851263742965"><ele>113.25</ele><time>2026-04-22T16:02:49Z</time></trkpt><trkpt lat="46.09384012591275" lon="13.371024767865107"><ele>113.0</ele><time>2026-04-22T16:02:50Z</time></trkpt><trkpt lat="46.093816249838355" lon="13.371190823793421"><ele>113.0</ele><time>2026-04-22T16:02:51Z</time></trkpt><trkpt lat="46.09379567975464" lon="13.3713549005385"><ele>113.00000000000001</ele><time>2026-04-22T16:02:52Z</time></trkpt><trkpt lat="46.09377684532684" lon="13.371493225887342"><ele>113.00000000000001</ele><time>2026-04-22T16:02:53Z</time></trkpt><trkpt lat="46.093761794409616" lon="13.371602012853467"><ele>113.0</ele><time>2026-04-22T16:02:54Z</time></trkpt><trkpt lat="46.093738189118476" lon="13.371721643625168"><ele>113.0</ele><time>2026-04-22T16:02:56Z</time></trkpt><trkpt lat="46.09387838353434" lon="13.371736814019323"><ele>113.4</ele><time>2026-04-22T16:02:58Z</time></trkpt><trkpt lat="46.09394406498347" lon="13.37169526653194"><ele>113.80000000000001</ele><time>2026-04-22T16:02:59Z</time></trkpt><trkpt lat="46.09402253430925" lon="13.371681335392967"><ele>114.2</ele><time>2026-04-22T16:03:00Z</time></trkpt><trkpt lat="46.094109091998845" lon="13.371633507903063"><ele>114.6</ele><time>2026-04-22T16:03:01Z</time></trkpt><trkpt lat="46.094192592109074" lon="13.371534558949904"><ele>115.0</ele><time>2026-04-22T16:03:02Z</time></trkpt><trkpt lat="46.09428099975584" lon="13.371409278990294"><ele>114.75</ele><time>2026-04-22T16:03:03Z</time></trkpt><trkpt lat="46.09437417028748" lon="13.371256867348094"><ele>114.5</ele><time>2026-04-22T16:03:04Z</time></trkpt><trkpt lat="46.094469256897774" lon="13.371099965070224"><ele>114.25</ele><time>2026-04-22T16:03:05Z</time></trkpt><trkpt lat="46.09456691998474" lon="13.370941158426312"><ele>114.0</ele><time>2026-04-22T16:03:06Z</time></trkpt><trkpt lat="46.09466497074398" lon="13.37077786047102"><ele>114.0</ele><time>2026-04-22T16:03:07Z</time></trkpt><trkpt lat="46.09476802012631" lon="13.370610384574881"><ele>114.0</ele><time>2026-04-22T16:03:08Z</time></trkpt><trkpt lat="46.09487900743261" lon="13.37045180804732"><ele>114.0</ele><time>2026-04-22T16:03:09Z</time></trkpt><trkpt lat="46.09498960793108" lon="13.370270894621228"><ele>113.33333333333334</ele><time>2026-04-22T16:03:10Z</time></trkpt><trkpt lat="46.09510573297164" lon="13.370096017921432"><ele>112.66666666666667</ele><time>2026-04-22T16:03:11Z</time></trkpt><trkpt lat="46.09522004080989" lon="13.369948576500667"><ele>112.0</ele><time>2026-04-22T16:03:12Z</time></trkpt><trkpt lat="46.09534393234808" lon="13.369781238147477"><ele>111.66666666666667</ele><time>2026-04-22T16:03:13Z</time></trkpt><trkpt lat="46.095485020068715" lon="13.369593342309983"><ele>111.33333333333334</ele><time>2026-04-22T16:03:14Z</time></trkpt><trkpt lat="46.09562580453424" lon="13.369399498683073"><ele>111.0</ele><time>2026-04-22T16:03:15Z</time></trkpt><trkpt lat="46.09577226705166" lon="13.369184225052354"><ele>111.0</ele><time>2026-04-22T16:03:16Z</time></trkpt><trkpt lat="46.095903747310096" lon="13.368967605311097"><ele>111.0</ele><time>2026-04-22T16:03:17Z</time></trkpt><trkpt lat="46.09603667812547" lon="13.368742989574969"><ele>111.0</ele><time>2026-04-22T16:03:18Z</time></trkpt><trkpt lat="46.09615946691766" lon="13.368520907996912"><ele>111.0</ele><time>2026-04-22T16:03:19Z</time></trkpt><trkpt lat="46.096267376501146" lon="13.36831168438052"><ele>111.0</ele><time>2026-04-22T16:03:20Z</time></trkpt><trkpt lat="46.096379736302" lon="13.36810121875441"><ele>111.0</ele><time>2026-04-22T16:03:21Z</time></trkpt><trkpt lat="46.09649353199104" lon="13.367892731064847"><ele>111.33333333333334</ele><time>2026-04-22T16:03:22Z</time></trkpt><trkpt lat="46.09660555302557" lon="13.367682032425815"><ele>111.66666666666667</ele><time>2026-04-22T16:03:23Z</time></trkpt><trkpt lat="46.096719758294476" lon="13.36746915016106"><ele>112.0</ele><time>2026-04-22T16:03:24Z</time></trkpt><trkpt lat="46.09683486466057" lon="13.367247649828874"><ele>112.0</ele><time>2026-04-22T16:03:25Z</time></trkpt><trkpt lat="46.09695125703117" lon="13.367023502843274"><ele>112.0</ele><time>2026-04-22T16:03:26Z</time></trkpt><trkpt lat="46.097064181222095" lon="13.366816664606636"><ele>112.0</ele><time>2026-04-22T16:03:27Z</time></trkpt><trkpt lat="46.097163836731355" lon="13.366632801809816"><ele>112.0</ele><time>2026-04-22T16:03:28Z</time></trkpt><trkpt lat="46.09726007718002" lon="13.366457246070306"><ele>112.0</ele><time>2026-04-22T16:03:29Z</time></trkpt><trkpt lat="46.09735716396892" lon="13.366280427751628"><ele>112.0</ele><time>2026-04-22T16:03:30Z</time></trkpt><trkpt lat="46.09745258153486" lon="13.36610576626694"><ele>112.0</ele><time>2026-04-22T16:03:31Z</time></trkpt><trkpt lat="46.09754251254048" lon="13.365927607093504"><ele>112.0</ele><time>2026-04-22T16:03:32Z</time></trkpt><trkpt lat="46.09762609336572" lon="13.365717447921734"><ele>112.0</ele><time>2026-04-22T16:03:33Z</time></trkpt><trkpt lat="46.097698471178575" lon="13.36548903783792"><ele>111.66666666666667</ele><time>2026-04-22T16:03:34Z</time></trkpt><trkpt lat="46.097767941167255" lon="13.365266158933887"><ele>111.33333333333334</ele><time>2026-04-22T16:03:35Z</time></trkpt><trkpt lat="46.09783901419215" lon="13.36505171753504"><ele>111.0</ele><time>2026-04-22T16:03:36Z</time></trkpt><trkpt lat="46.09791011235428" lon="13.36484373014693"><ele>110.66666666666666</ele><time>2026-04-22T16:03:37Z</time></trkpt><trkpt lat="46.09797962207196" lon="13.364640542034088"><ele>110.33333333333333</ele><time>2026-04-22T16:03:38Z</time></trkpt><trkpt lat="46.098046878077014" lon="13.364437929132572"><ele>110.0</ele><time>2026-04-22T16:03:39Z</time></trkpt><trkpt lat="46.0981126554883" lon="13.364226379220877"><ele>110.0</ele><time>2026-04-22T16:03:40Z</time></trkpt><trkpt lat="46.09818491159872" lon="13.364003789567914"><ele>110.0</ele><time>2026-04-22T16:03:41Z</time></trkpt><trkpt lat="46.09826964379503" lon="13.363754334791022"><ele>110.0</ele><time>2026-04-22T16:03:42Z</time></trkpt><trkpt lat="46.098361626742374" lon="13.363482805843164"><ele>110.33333333333333</ele><time>2026-04-22T16:03:43Z</time></trkpt><trkpt lat="46.09843780644668" lon="13.36325645235738"><ele>110.66666666666666</ele><time>2026-04-22T16:03:44Z</time></trkpt><trkpt lat="46.098511704883194" lon="13.363039613776444"><ele>111.0</ele><time>2026-04-22T16:03:45Z</time></trkpt><trkpt lat="46.09858653482922" lon="13.362814944752248"><ele>111.33333333333334</ele><time>2026-04-22T16:03:46Z</time></trkpt><trkpt lat="46.09866461014415" lon="13.362586126652888"><ele>111.66666666666667</ele><time>2026-04-22T16:03:47Z</time></trkpt><trkpt lat="46.09874408535742" lon="13.36235855690922"><ele>112.0</ele><time>2026-04-22T16:03:48Z</time></trkpt><trkpt lat="46.0988226793497" lon="13.362134420906187"><ele>111.33333333333334</ele><time>2026-04-22T16:03:49Z</time></trkpt><trkpt lat="46.0989185743853" lon="13.36192951407066"><ele>110.66666666666666</ele><time>2026-04-22T16:03:50Z</time></trkpt><trkpt lat="46.09902731214766" lon="13.361741206573978"><ele>110.0</ele><time>2026-04-22T16:03:51Z</time></trkpt><trkpt lat="46.099154810972976" lon="13.361574107990558"><ele>110.0</ele><time>2026-04-22T16:03:52Z</time></trkpt><trkpt lat="46.09929421578051" lon="13.36141094651876"><ele>110.0</ele><time>2026-04-22T16:03:53Z</time></trkpt><trkpt lat="46.09943738120273" lon="13.361234912993796"><ele>110.0</ele><time>2026-04-22T16:03:54Z</time></trkpt><trkpt lat="46.09958375846381" lon="13.36105206490047"><ele>109.33333333333333</ele><time>2026-04-22T16:03:55Z</time></trkpt><trkpt lat="46.0997334864119" lon="13.360867409816034"><ele>108.66666666666666</ele><time>2026-04-22T16:03:56Z</time></trkpt><trkpt lat="46.09988986119854" lon="13.36066534530026"><ele>108.0</ele><time>2026-04-22T16:03:57Z</time></trkpt><trkpt lat="46.10004690837197" lon="13.360462107091418"><ele>108.0</ele><time>2026-04-22T16:03:58Z</time></trkpt><trkpt lat="46.10020770372371" lon="13.360249678654954"><ele>108.0</ele><time>2026-04-22T16:03:58.999Z</time></trkpt><trkpt lat="46.10037989753486" lon="13.360023074922772"><ele>108.0</ele><time>2026-04-22T16:03:59.999Z</time></trkpt><trkpt lat="46.100582229883386" lon="13.35972569968457"><ele>108.0</ele><time>2026-04-22T16:04:00.999Z</time></trkpt><trkpt lat="46.10076110161558" lon="13.359454181268953"><ele>108.0</ele><time>2026-04-22T16:04:01.999Z</time></trkpt><trkpt lat="46.10090962725068" lon="13.359208587109684"><ele>108.0</ele><time>2026-04-22T16:04:02.999Z</time></trkpt><trkpt lat="46.101033105312744" lon="13.358973886678765"><ele>108.0</ele><time>2026-04-22T16:04:03.999Z</time></trkpt><trkpt lat="46.101149645878515" lon="13.358703859517197"><ele>108.0</ele><time>2026-04-22T16:04:04.999Z</time></trkpt><trkpt lat="46.101260115172884" lon="13.358454714847138"><ele>108.0</ele><time>2026-04-22T16:04:05.999Z</time></trkpt><trkpt lat="46.10137660278737" lon="13.358248709193067"><ele>108.0</ele><time>2026-04-22T16:04:06.999Z</time></trkpt><trkpt lat="46.10151815044332" lon="13.358073124053512"><ele>107.66666666666666</ele><time>2026-04-22T16:04:07.999Z</time></trkpt><trkpt lat="46.10167415742248" lon="13.357934121046023"><ele>107.33333333333333</ele><time>2026-04-22T16:04:08.999Z</time></trkpt><trkpt lat="46.10182585576421" lon="13.357801833852744"><ele>107.0</ele><time>2026-04-22T16:04:09.999Z</time></trkpt><trkpt lat="46.10197426283454" lon="13.357650361893358"><ele>107.0</ele><time>2026-04-22T16:04:10.999Z</time></trkpt><trkpt lat="46.10211950917215" lon="13.357458128874184"><ele>107.0</ele><time>2026-04-22T16:04:11.999Z</time></trkpt><trkpt lat="46.10224508134372" lon="13.357237539272896"><ele>107.0</ele><time>2026-04-22T16:04:12.999Z</time></trkpt><trkpt lat="46.10235174160912" lon="13.357016889850659"><ele>108.0</ele><time>2026-04-22T16:04:13.999Z</time></trkpt><trkpt lat="46.102465227799804" lon="13.356803856151345"><ele>109.0</ele><time>2026-04-22T16:04:14.999Z</time></trkpt><trkpt lat="46.10258301493298" lon="13.35658217314273"><ele>110.0</ele><time>2026-04-22T16:04:15.999Z</time></trkpt><trkpt lat="46.10268363607238" lon="13.356374831883802"><ele>110.33333333333333</ele><time>2026-04-22T16:04:16.999Z</time></trkpt><trkpt lat="46.10278143314637" lon="13.35618620162687"><ele>110.66666666666666</ele><time>2026-04-22T16:04:17.999Z</time></trkpt><trkpt lat="46.10288203657469" lon="13.356013880113945"><ele>111.0</ele><time>2026-04-22T16:04:18.999Z</time></trkpt><trkpt lat="46.10299604330964" lon="13.3558547233398"><ele>111.0</ele><time>2026-04-22T16:04:19.999Z</time></trkpt><trkpt lat="46.103126481819565" lon="13.355730794082254"><ele>111.0</ele><time>2026-04-22T16:04:20.999Z</time></trkpt><trkpt lat="46.103280540100265" lon="13.355625469388054"><ele>111.0</ele><time>2026-04-22T16:04:21.999Z</time></trkpt><trkpt lat="46.10343656952272" lon="13.35555340201449"><ele>110.66666666666666</ele><time>2026-04-22T16:04:22.999Z</time></trkpt><trkpt lat="46.103609605607566" lon="13.355528303134967"><ele>110.33333333333333</ele><time>2026-04-22T16:04:23.999Z</time></trkpt><trkpt lat="46.103797293625604" lon="13.355541166602816"><ele>110.0</ele><time>2026-04-22T16:04:24.999Z</time></trkpt><trkpt lat="46.10399528766938" lon="13.35556913889182"><ele>110.66666666666666</ele><time>2026-04-22T16:04:25.999Z</time></trkpt><trkpt lat="46.10419811275077" lon="13.35560052281202"><ele>111.33333333333334</ele><time>2026-04-22T16:04:26.999Z</time></trkpt><trkpt lat="46.104389804106006" lon="13.35562643144184"><ele>112.0</ele><time>2026-04-22T16:04:27.999Z</time></trkpt><trkpt lat="46.104580211213374" lon="13.35565154667687"><ele>112.0</ele><time>2026-04-22T16:04:28.999Z</time></trkpt><trkpt lat="46.10478435505604" lon="13.355682142956065"><ele>112.0</ele><time>2026-04-22T16:04:29.999Z</time></trkpt><trkpt lat="46.10499862054878" lon="13.355714199260568"><ele>112.0</ele><time>2026-04-22T16:04:30.999Z</time></trkpt><trkpt lat="46.10522520175922" lon="13.355740469363125"><ele>112.0</ele><time>2026-04-22T16:04:32Z</time></trkpt><trkpt lat="46.10546300992708" lon="13.355764886972274"><ele>112.0</ele><time>2026-04-22T16:04:33Z</time></trkpt><trkpt lat="46.105706022453646" lon="13.355797318213407"><ele>112.0</ele><time>2026-04-22T16:04:34Z</time></trkpt><trkpt lat="46.1059445348821" lon="13.355831441751372"><ele>112.0</ele><time>2026-04-22T16:04:35Z</time></trkpt><trkpt lat="46.1061706019858" lon="13.35586051508491"><ele>112.0</ele><time>2026-04-22T16:04:36Z</time></trkpt><trkpt lat="46.106392795483224" lon="13.355892913472106"><ele>112.0</ele><time>2026-04-22T16:04:37Z</time></trkpt><trkpt lat="46.106618894504415" lon="13.355926504597955"><ele>112.5</ele><time>2026-04-22T16:04:38Z</time></trkpt><trkpt lat="46.106848344745615" lon="13.35595777951053"><ele>113.0</ele><time>2026-04-22T16:04:39Z</time></trkpt><trkpt lat="46.10707318903293" lon="13.35598858114922"><ele>113.0</ele><time>2026-04-22T16:04:40Z</time></trkpt><trkpt lat="46.1072919308904" lon="13.356017078492656"><ele>113.0</ele><time>2026-04-22T16:04:41Z</time></trkpt><trkpt lat="46.107509001431524" lon="13.356049214948953"><ele>113.0</ele><time>2026-04-22T16:04:42Z</time></trkpt><trkpt lat="46.10773503980835" lon="13.3560803845104"><ele>112.66666666666666</ele><time>2026-04-22T16:04:43Z</time></trkpt><trkpt lat="46.10794300655736" lon="13.356107830402067"><ele>112.33333333333334</ele><time>2026-04-22T16:04:44Z</time></trkpt><trkpt lat="46.10814795529666" lon="13.356134094894632"><ele>112.0</ele><time>2026-04-22T16:04:45Z</time></trkpt><trkpt lat="46.10834705218427" lon="13.356164565805091"><ele>112.0</ele><time>2026-04-22T16:04:46Z</time></trkpt><trkpt lat="46.108527020493334" lon="13.356190592824984"><ele>112.0</ele><time>2026-04-22T16:04:47Z</time></trkpt><trkpt lat="46.108687177673694" lon="13.356213127421162"><ele>112.0</ele><time>2026-04-22T16:04:48Z</time></trkpt><trkpt lat="46.108849276481614" lon="13.356237736530085"><ele>112.0</ele><time>2026-04-22T16:04:49Z</time></trkpt><trkpt lat="46.109002573828285" lon="13.35626118009543"><ele>112.0</ele><time>2026-04-22T16:04:50Z</time></trkpt><trkpt lat="46.10913960095911" lon="13.356277294030622"><ele>112.0</ele><time>2026-04-22T16:04:51Z</time></trkpt><trkpt lat="46.109270869741366" lon="13.356293485419457"><ele>112.0</ele><time>2026-04-22T16:04:52Z</time></trkpt><trkpt lat="46.10940004174727" lon="13.356296894919826"><ele>112.25</ele><time>2026-04-22T16:04:53Z</time></trkpt><trkpt lat="46.10953067909876" lon="13.35626984055321"><ele>112.5</ele><time>2026-04-22T16:04:54Z</time></trkpt><trkpt lat="46.10965859866192" lon="13.356209484884847"><ele>112.75</ele><time>2026-04-22T16:04:55Z</time></trkpt><trkpt lat="46.10977814807838" lon="13.356123803479335"><ele>113.0</ele><time>2026-04-22T16:04:56Z</time></trkpt><trkpt lat="46.10988959015861" lon="13.35600783335469"><ele>113.33333333333333</ele><time>2026-04-22T16:04:57Z</time></trkpt><trkpt lat="46.109989871404764" lon="13.355861632264327"><ele>113.66666666666666</ele><time>2026-04-22T16:04:58Z</time></trkpt><trkpt lat="46.11007214634107" lon="13.355674010921181"><ele>114.0</ele><time>2026-04-22T16:04:59Z</time></trkpt><trkpt lat="46.110153335066016" lon="13.355468942942917"><ele>114.0</ele><time>2026-04-22T16:05:00Z</time></trkpt><trkpt lat="46.11023740005011" lon="13.355263033137039"><ele>114.0</ele><time>2026-04-22T16:05:01Z</time></trkpt><trkpt lat="46.110325259240305" lon="13.355051476579462"><ele>114.0</ele><time>2026-04-22T16:05:02Z</time></trkpt><trkpt lat="46.11041619800288" lon="13.354831284145131"><ele>113.66666666666666</ele><time>2026-04-22T16:05:03Z</time></trkpt><trkpt lat="46.11050260686049" lon="13.354615446854464"><ele>113.33333333333333</ele><time>2026-04-22T16:05:04Z</time></trkpt><trkpt lat="46.11058715864378" lon="13.354404602129264"><ele>113.0</ele><time>2026-04-22T16:05:05Z</time></trkpt><trkpt lat="46.1106704745177" lon="13.354201329040865"><ele>113.33333333333333</ele><time>2026-04-22T16:05:06Z</time></trkpt><trkpt lat="46.11075601510091" lon="13.353995255460305"><ele>113.66666666666666</ele><time>2026-04-22T16:05:07Z</time></trkpt><trkpt lat="46.11084111245672" lon="13.353786360636166"><ele>114.0</ele><time>2026-04-22T16:05:08Z</time></trkpt><trkpt lat="46.110927085229584" lon="13.353577118818583"><ele>114.0</ele><time>2026-04-22T16:05:09Z</time></trkpt><trkpt lat="46.11101094452816" lon="13.353369857933203"><ele>114.0</ele><time>2026-04-22T16:05:10Z</time></trkpt><trkpt lat="46.111092133378925" lon="13.353178480830998"><ele>114.0</ele><time>2026-04-22T16:05:11Z</time></trkpt><trkpt lat="46.11116807091682" lon="13.352997057229807"><ele>114.25</ele><time>2026-04-22T16:05:12Z</time></trkpt><trkpt lat="46.11123743780811" lon="13.3528299140283"><ele>114.5</ele><time>2026-04-22T16:05:13Z</time></trkpt><trkpt lat="46.11129983530425" lon="13.352681552723178"><ele>114.75</ele><time>2026-04-22T16:05:14Z</time></trkpt><trkpt lat="46.11136405449019" lon="13.352531699882194"><ele>115.0</ele><time>2026-04-22T16:05:15Z</time></trkpt><trkpt lat="46.111425339089436" lon="13.352390785865941"><ele>115.0</ele><time>2026-04-22T16:05:16Z</time></trkpt><trkpt lat="46.111485664462286" lon="13.35226878654054"><ele>115.0</ele><time>2026-04-22T16:05:17Z</time></trkpt><trkpt lat="46.11156541899369" lon="13.352159997438074"><ele>115.0</ele><time>2026-04-22T16:05:18Z</time></trkpt><trkpt lat="46.11166103407559" lon="13.352092715254528"><ele>115.0</ele><time>2026-04-22T16:05:19Z</time></trkpt><trkpt lat="46.11175106876725" lon="13.352036675165778"><ele>115.0</ele><time>2026-04-22T16:05:20Z</time></trkpt><trkpt lat="46.11182421087135" lon="13.351982532941877"><ele>115.00000000000001</ele><time>2026-04-22T16:05:21Z</time></trkpt><trkpt lat="46.11188192621504" lon="13.351942480777334"><ele>115.0</ele><time>2026-04-22T16:05:22Z</time></trkpt><trkpt lat="46.11195348278826" lon="13.351903575987684"><ele>115.0</ele><time>2026-04-22T16:05:24Z</time></trkpt><trkpt lat="46.11202036782068" lon="13.35191418371335"><ele>115.0</ele><time>2026-04-22T16:05:27Z</time></trkpt><trkpt lat="46.112061658513866" lon="13.35201351469346"><ele>115.00000000000001</ele><time>2026-04-22T16:05:28Z</time></trkpt><trkpt lat="46.112082124566506" lon="13.352117672328012"><ele>115.0</ele><time>2026-04-22T16:05:29Z</time></trkpt><trkpt lat="46.1121139705901" lon="13.352240699025215"><ele>115.0</ele><time>2026-04-22T16:05:30Z</time></trkpt><trkpt lat="46.112163096876415" lon="13.352394424912182"><ele>115.0</ele><time>2026-04-22T16:05:31Z</time></trkpt><trkpt lat="46.1122197472881" lon="13.352608344860322"><ele>115.0</ele><time>2026-04-22T16:05:32Z</time></trkpt><trkpt lat="46.11225264425848" lon="13.352809418524448"><ele>115.0</ele><time>2026-04-22T16:05:33Z</time></trkpt><trkpt lat="46.112271292713515" lon="13.353004463129325"><ele>115.0</ele><time>2026-04-22T16:05:34Z</time></trkpt><trkpt lat="46.112279823062785" lon="13.353230380727034"><ele>115.0</ele><time>2026-04-22T16:05:35Z</time></trkpt><trkpt lat="46.11228512021208" lon="13.353473100472966"><ele>115.0</ele><time>2026-04-22T16:05:36Z</time></trkpt><trkpt lat="46.11229086733504" lon="13.353714442360529"><ele>114.66666666666667</ele><time>2026-04-22T16:05:37Z</time></trkpt><trkpt lat="46.11230166899997" lon="13.353947400284058"><ele>114.33333333333334</ele><time>2026-04-22T16:05:38Z</time></trkpt><trkpt lat="46.112324609727885" lon="13.354165769684464"><ele>114.0</ele><time>2026-04-22T16:05:39Z</time></trkpt><trkpt lat="46.112369778377946" lon="13.354383956054075"><ele>114.66666666666666</ele><time>2026-04-22T16:05:40Z</time></trkpt><trkpt lat="46.112434713736725" lon="13.354593907304062"><ele>115.33333333333333</ele><time>2026-04-22T16:05:41Z</time></trkpt><trkpt lat="46.112499594452224" lon="13.354801945420679"><ele>116.0</ele><time>2026-04-22T16:05:42Z</time></trkpt><trkpt lat="46.11255298013603" lon="13.355019029052935"><ele>116.0</ele><time>2026-04-22T16:05:43Z</time></trkpt><trkpt lat="46.11257949218796" lon="13.355257940669802"><ele>116.0</ele><time>2026-04-22T16:05:44Z</time></trkpt><trkpt lat="46.112576677297234" lon="13.35550786166469"><ele>116.0</ele><time>2026-04-22T16:05:45Z</time></trkpt><trkpt lat="46.11255128074006" lon="13.355753935917729"><ele>116.0</ele><time>2026-04-22T16:05:46Z</time></trkpt><trkpt lat="46.11251478326532" lon="13.356006630806359"><ele>116.0</ele><time>2026-04-22T16:05:47Z</time></trkpt><trkpt lat="46.112482852036315" lon="13.35626435867829"><ele>116.0</ele><time>2026-04-22T16:05:48Z</time></trkpt><trkpt lat="46.112449745121644" lon="13.356520579027611"><ele>116.0</ele><time>2026-04-22T16:05:49Z</time></trkpt><trkpt lat="46.11241833497066" lon="13.356765553169724"><ele>116.0</ele><time>2026-04-22T16:05:50Z</time></trkpt><trkpt lat="46.112389327523964" lon="13.35698083738725"><ele>116.0</ele><time>2026-04-22T16:05:51Z</time></trkpt><trkpt lat="46.11236152860542" lon="13.357186011343424"><ele>115.75</ele><time>2026-04-22T16:05:52Z</time></trkpt><trkpt lat="46.1123327563458" lon="13.357393808450958"><ele>115.5</ele><time>2026-04-22T16:05:53Z</time></trkpt><trkpt lat="46.11230630027049" lon="13.357580976070986"><ele>115.25</ele><time>2026-04-22T16:05:54Z</time></trkpt><trkpt lat="46.112283720191215" lon="13.357760969455171"><ele>115.0</ele><time>2026-04-22T16:05:55Z</time></trkpt><trkpt lat="46.11226421654859" lon="13.357921924927648"><ele>114.75</ele><time>2026-04-22T16:05:56Z</time></trkpt><trkpt lat="46.1122545634384" lon="13.358087769441656"><ele>114.5</ele><time>2026-04-22T16:05:57Z</time></trkpt><trkpt lat="46.11227081921204" lon="13.358249012895417"><ele>114.25</ele><time>2026-04-22T16:05:58Z</time></trkpt><trkpt lat="46.112333919327945" lon="13.358397419989132"><ele>114.0</ele><time>2026-04-22T16:05:59Z</time></trkpt><trkpt lat="46.112426892563676" lon="13.35853610618705"><ele>114.33333333333334</ele><time>2026-04-22T16:06:00Z</time></trkpt><trkpt lat="46.11254712009555" lon="13.358667290933818"><ele>114.66666666666667</ele><time>2026-04-22T16:06:01Z</time></trkpt><trkpt lat="46.112670516496024" lon="13.35881149024468"><ele>115.0</ele><time>2026-04-22T16:06:02Z</time></trkpt><trkpt lat="46.11279453532722" lon="13.358949256463719"><ele>115.0</ele><time>2026-04-22T16:06:02.999Z</time></trkpt><trkpt lat="46.11292457264161" lon="13.359100610232158"><ele>115.0</ele><time>2026-04-22T16:06:03.999Z</time></trkpt><trkpt lat="46.11305946271185" lon="13.359252415253918"><ele>115.0</ele><time>2026-04-22T16:06:04.999Z</time></trkpt><trkpt lat="46.11319000680975" lon="13.35940068323374"><ele>115.5</ele><time>2026-04-22T16:06:05.999Z</time></trkpt><trkpt lat="46.11329592319206" lon="13.359548439733075"><ele>116.0</ele><time>2026-04-22T16:06:06.999Z</time></trkpt><trkpt lat="46.11337970842556" lon="13.359704341598233"><ele>116.5</ele><time>2026-04-22T16:06:07.999Z</time></trkpt><trkpt lat="46.113443542317604" lon="13.359889341877214"><ele>117.0</ele><time>2026-04-22T16:06:08.999Z</time></trkpt><trkpt lat="46.113493500711805" lon="13.360089344801274"><ele>117.0</ele><time>2026-04-22T16:06:09.999Z</time></trkpt><trkpt lat="46.11353936115389" lon="13.36025216319707"><ele>116.99999999999999</ele><time>2026-04-22T16:06:10.999Z</time></trkpt><trkpt lat="46.11359453534188" lon="13.36039095982266"><ele>116.99999999999999</ele><time>2026-04-22T16:06:11.999Z</time></trkpt><trkpt lat="46.113676213180476" lon="13.360481035922668"><ele>117.0</ele><time>2026-04-22T16:06:12.999Z</time></trkpt><trkpt lat="46.113780591988025" lon="13.36051564924613"><ele>117.0</ele><time>2026-04-22T16:06:13.999Z</time></trkpt><trkpt lat="46.11389540382253" lon="13.360505424183158"><ele>117.0</ele><time>2026-04-22T16:06:14.999Z</time></trkpt><trkpt lat="46.11402523351417" lon="13.360469909016567"><ele>117.0</ele><time>2026-04-22T16:06:15.999Z</time></trkpt><trkpt lat="46.11416347680006" lon="13.360433841705744"><ele>117.0</ele><time>2026-04-22T16:06:16.999Z</time></trkpt><trkpt lat="46.1143086130691" lon="13.360391629680896"><ele>117.0</ele><time>2026-04-22T16:06:17.999Z</time></trkpt><trkpt lat="46.11445742455453" lon="13.360349646839609"><ele>117.33333333333334</ele><time>2026-04-22T16:06:18.999Z</time></trkpt><trkpt lat="46.11460727090572" lon="13.360301938101205"><ele>117.66666666666667</ele><time>2026-04-22T16:06:19.999Z</time></trkpt><trkpt lat="46.11475448547012" lon="13.360217491104464"><ele>118.0</ele><time>2026-04-22T16:06:20.999Z</time></trkpt><trkpt lat="46.11490081737802" lon="13.36007950462751"><ele>117.0</ele><time>2026-04-22T16:06:21.999Z</time></trkpt><trkpt lat="46.115040709649286" lon="13.359920185190512"><ele>116.0</ele><time>2026-04-22T16:06:22.999Z</time></trkpt><trkpt lat="46.11517662893315" lon="13.359785110884898"><ele>115.0</ele><time>2026-04-22T16:06:23.999Z</time></trkpt><trkpt lat="46.1153257550499" lon="13.359694010989376"><ele>115.0</ele><time>2026-04-22T16:06:24.999Z</time></trkpt><trkpt lat="46.11549544624369" lon="13.359636421170626"><ele>115.0</ele><time>2026-04-22T16:06:25.999Z</time></trkpt><trkpt lat="46.11567720634617" lon="13.35962376721039"><ele>115.0</ele><time>2026-04-22T16:06:26.999Z</time></trkpt><trkpt lat="46.115867686935125" lon="13.359651891064154"><ele>115.66666666666667</ele><time>2026-04-22T16:06:27.999Z</time></trkpt><trkpt lat="46.11606780558918" lon="13.359688481080726"><ele>116.33333333333334</ele><time>2026-04-22T16:06:28.999Z</time></trkpt><trkpt lat="46.11627958600127" lon="13.359717482283125"><ele>117.0</ele><time>2026-04-22T16:06:29.999Z</time></trkpt><trkpt lat="46.116505451327555" lon="13.359756362329064"><ele>116.0</ele><time>2026-04-22T16:06:30.999Z</time></trkpt><trkpt lat="46.11674221849847" lon="13.359797440123403"><ele>115.0</ele><time>2026-04-22T16:06:31.999Z</time></trkpt><trkpt lat="46.11698988981247" lon="13.359837137477479"><ele>115.0</ele><time>2026-04-22T16:06:32.999Z</time></trkpt><trkpt lat="46.117250405405684" lon="13.35988121867262"><ele>115.0</ele><time>2026-04-22T16:06:33.999Z</time></trkpt><trkpt lat="46.11751648114008" lon="13.359926110237938"><ele>116.5</ele><time>2026-04-22T16:06:34.999Z</time></trkpt><trkpt lat="46.117782198230174" lon="13.359969488604188"><ele>118.0</ele><time>2026-04-22T16:06:35.999Z</time></trkpt><trkpt lat="46.11804130098365" lon="13.36000806749096"><ele>118.5</ele><time>2026-04-22T16:06:36.999Z</time></trkpt><trkpt lat="46.118295034960795" lon="13.360049232868992"><ele>119.0</ele><time>2026-04-22T16:06:38Z</time></trkpt><trkpt lat="46.11854812960449" lon="13.36009116223016"><ele>119.0</ele><time>2026-04-22T16:06:39Z</time></trkpt><trkpt lat="46.118801090044364" lon="13.360131866475216"><ele>119.0</ele><time>2026-04-22T16:06:40Z</time></trkpt><trkpt lat="46.119055310426" lon="13.360172224332512"><ele>118.5</ele><time>2026-04-22T16:06:41Z</time></trkpt><trkpt lat="46.11931099798683" lon="13.360214168384923"><ele>118.0</ele><time>2026-04-22T16:06:42Z</time></trkpt><trkpt lat="46.119569233439314" lon="13.360257507731848"><ele>118.0</ele><time>2026-04-22T16:06:43Z</time></trkpt><trkpt lat="46.11983127590419" lon="13.360300627638603"><ele>118.0</ele><time>2026-04-22T16:06:44Z</time></trkpt><trkpt lat="46.12010335539737" lon="13.360344138430968"><ele>118.5</ele><time>2026-04-22T16:06:45Z</time></trkpt><trkpt lat="46.12037475652079" lon="13.36038824680726"><ele>119.0</ele><time>2026-04-22T16:06:46Z</time></trkpt><trkpt lat="46.12062767779398" lon="13.360427170807359"><ele>120.0</ele><time>2026-04-22T16:06:47Z</time></trkpt><trkpt lat="46.12087382740735" lon="13.360464660367654"><ele>121.0</ele><time>2026-04-22T16:06:48Z</time></trkpt><trkpt lat="46.12112000219823" lon="13.360507674792304"><ele>121.5</ele><time>2026-04-22T16:06:49Z</time></trkpt><trkpt lat="46.1213612275502" lon="13.360546602612759"><ele>122.0</ele><time>2026-04-22T16:06:50Z</time></trkpt><trkpt lat="46.12159480374977" lon="13.360584873331629"><ele>122.0</ele><time>2026-04-22T16:06:51Z</time></trkpt><trkpt lat="46.12182305612652" lon="13.360623257148522"><ele>122.0</ele><time>2026-04-22T16:06:52Z</time></trkpt><trkpt lat="46.122049580484486" lon="13.360661874151297"><ele>122.0</ele><time>2026-04-22T16:06:53Z</time></trkpt><trkpt lat="46.122277434575665" lon="13.360702783430423"><ele>122.0</ele><time>2026-04-22T16:06:54Z</time></trkpt><trkpt lat="46.12250512645097" lon="13.360741257085238"><ele>121.0</ele><time>2026-04-22T16:06:55Z</time></trkpt><trkpt lat="46.12273198789404" lon="13.360778437763335"><ele>120.0</ele><time>2026-04-22T16:06:56Z</time></trkpt><trkpt lat="46.12295767286225" lon="13.36081370010415"><ele>120.0</ele><time>2026-04-22T16:06:57Z</time></trkpt><trkpt lat="46.12317725779036" lon="13.360849255224807"><ele>120.0</ele><time>2026-04-22T16:06:58Z</time></trkpt><trkpt lat="46.12339817311784" lon="13.360883416047484"><ele>120.0</ele><time>2026-04-22T16:06:59Z</time></trkpt><trkpt lat="46.123619935169785" lon="13.360915681808649"><ele>120.5</ele><time>2026-04-22T16:07:00Z</time></trkpt><trkpt lat="46.12384750985144" lon="13.360956434875664"><ele>121.0</ele><time>2026-04-22T16:07:01Z</time></trkpt><trkpt lat="46.12407605489298" lon="13.360995170520175"><ele>121.66666666666667</ele><time>2026-04-22T16:07:02Z</time></trkpt><trkpt lat="46.12429746745691" lon="13.361031101785686"><ele>122.33333333333334</ele><time>2026-04-22T16:07:03Z</time></trkpt><trkpt lat="46.12451202328344" lon="13.361066053464471"><ele>123.0</ele><time>2026-04-22T16:07:04Z</time></trkpt><trkpt lat="46.12472094844568" lon="13.36110091010446"><ele>123.0</ele><time>2026-04-22T16:07:05Z</time></trkpt><trkpt lat="46.124927676307216" lon="13.36113452488989"><ele>123.0</ele><time>2026-04-22T16:07:06Z</time></trkpt><trkpt lat="46.12513308223992" lon="13.361167108472022"><ele>123.0</ele><time>2026-04-22T16:07:07Z</time></trkpt><trkpt lat="46.12534016754248" lon="13.361200198234773"><ele>123.0</ele><time>2026-04-22T16:07:08Z</time></trkpt><trkpt lat="46.125548494033424" lon="13.361234169596697"><ele>123.0</ele><time>2026-04-22T16:07:09Z</time></trkpt><trkpt lat="46.125745816340796" lon="13.36126442607729"><ele>123.0</ele><time>2026-04-22T16:07:10Z</time></trkpt><trkpt lat="46.1259337497517" lon="13.36129367587375"><ele>123.33333333333334</ele><time>2026-04-22T16:07:11Z</time></trkpt><trkpt lat="46.12610918303062" lon="13.36132165082056"><ele>123.66666666666667</ele><time>2026-04-22T16:07:12Z</time></trkpt><trkpt lat="46.12628167540772" lon="13.361348836471068"><ele>124.0</ele><time>2026-04-22T16:07:13Z</time></trkpt><trkpt lat="46.12645733054671" lon="13.361375958735627"><ele>125.0</ele><time>2026-04-22T16:07:14Z</time></trkpt><trkpt lat="46.12662031107771" lon="13.361401303979768"><ele>126.0</ele><time>2026-04-22T16:07:15Z</time></trkpt><trkpt lat="46.12678896513475" lon="13.361430050407643"><ele>127.0</ele><time>2026-04-22T16:07:16Z</time></trkpt><trkpt lat="46.126949604820005" lon="13.361458618755456"><ele>127.0</ele><time>2026-04-22T16:07:17Z</time></trkpt><trkpt lat="46.12709350175138" lon="13.361481029779428"><ele>127.0</ele><time>2026-04-22T16:07:18Z</time></trkpt><trkpt lat="46.127243186062614" lon="13.361505596203717"><ele>127.0</ele><time>2026-04-22T16:07:19Z</time></trkpt><trkpt lat="46.12738641484409" lon="13.361528323570917"><ele>127.0</ele><time>2026-04-22T16:07:20Z</time></trkpt><trkpt lat="46.12751389093562" lon="13.361549760434464"><ele>127.75</ele><time>2026-04-22T16:07:21Z</time></trkpt><trkpt lat="46.12763164446896" lon="13.361570626053178"><ele>128.5</ele><time>2026-04-22T16:07:22Z</time></trkpt><trkpt lat="46.12773894862439" lon="13.36158966503486"><ele>129.25</ele><time>2026-04-22T16:07:23Z</time></trkpt><trkpt lat="46.1278472692808" lon="13.361611001987468"><ele>130.0</ele><time>2026-04-22T16:07:24Z</time></trkpt><trkpt lat="46.127961760107624" lon="13.361628155836064"><ele>130.0</ele><time>2026-04-22T16:07:25Z</time></trkpt><trkpt lat="46.12806706984159" lon="13.361648973972294"><ele>130.0</ele><time>2026-04-22T16:07:26Z</time></trkpt><trkpt lat="46.12816154304475" lon="13.361671136733207"><ele>130.0</ele><time>2026-04-22T16:07:27Z</time></trkpt><trkpt lat="46.12824825330053" lon="13.361691013514918"><ele>130.0</ele><time>2026-04-22T16:07:28Z</time></trkpt><trkpt lat="46.12832349557554" lon="13.361703458893947"><ele>130.0</ele><time>2026-04-22T16:07:29Z</time></trkpt><trkpt lat="46.128435174579565" lon="13.361725549962236"><ele>130.2</ele><time>2026-04-22T16:07:31Z</time></trkpt><trkpt lat="46.12850062474683" lon="13.361740107905527"><ele>130.4</ele><time>2026-04-22T16:07:41Z</time></trkpt><trkpt lat="46.128581998262995" lon="13.361666022592143"><ele>130.6</ele><time>2026-04-22T16:07:44Z</time></trkpt><trkpt lat="46.128593216541034" lon="13.361530689918485"><ele>130.8</ele><time>2026-04-22T16:07:45Z</time></trkpt><trkpt lat="46.128592958658786" lon="13.36136581567893"><ele>131.0</ele><time>2026-04-22T16:07:46Z</time></trkpt><trkpt lat="46.12860228113332" lon="13.361187016889232"><ele>131.0</ele><time>2026-04-22T16:07:47Z</time></trkpt><trkpt lat="46.12861129508821" lon="13.361040653927992"><ele>131.0</ele><time>2026-04-22T16:07:48Z</time></trkpt><trkpt lat="46.128621316160164" lon="13.36086134873319"><ele>131.0</ele><time>2026-04-22T16:07:49Z</time></trkpt><trkpt lat="46.12862895273616" lon="13.36066816984225"><ele>131.0</ele><time>2026-04-22T16:07:50Z</time></trkpt><trkpt lat="46.12864171812236" lon="13.360473151328556"><ele>130.66666666666666</ele><time>2026-04-22T16:07:51Z</time></trkpt><trkpt lat="46.12865488892241" lon="13.360272203642888"><ele>130.33333333333334</ele><time>2026-04-22T16:07:52Z</time></trkpt><trkpt lat="46.1286671962146" lon="13.360056695909286"><ele>130.0</ele><time>2026-04-22T16:07:53Z</time></trkpt><trkpt lat="46.128678096490496" lon="13.359825141561386"><ele>129.0</ele><time>2026-04-22T16:07:54Z</time></trkpt><trkpt lat="46.12869173496327" lon="13.359584991257549"><ele>128.0</ele><time>2026-04-22T16:07:55Z</time></trkpt><trkpt lat="46.12870807166463" lon="13.359357476710242"><ele>127.0</ele><time>2026-04-22T16:07:56Z</time></trkpt><trkpt lat="46.12873901080844" lon="13.359128563118071"><ele>127.0</ele><time>2026-04-22T16:07:57Z</time></trkpt><trkpt lat="46.12878626159908" lon="13.358893131484018"><ele>127.0</ele><time>2026-04-22T16:07:58Z</time></trkpt><trkpt lat="46.12884806028401" lon="13.358659640048751"><ele>127.0</ele><time>2026-04-22T16:07:59Z</time></trkpt><trkpt lat="46.128926795117934" lon="13.358416991783443"><ele>127.33333333333334</ele><time>2026-04-22T16:08:00Z</time></trkpt><trkpt lat="46.12900900932372" lon="13.358168797795226"><ele>127.66666666666666</ele><time>2026-04-22T16:08:01Z</time></trkpt><trkpt lat="46.12909605675857" lon="13.357912207894115"><ele>128.0</ele><time>2026-04-22T16:08:02Z</time></trkpt><trkpt lat="46.12917977107362" lon="13.357662464489039"><ele>128.66666666666666</ele><time>2026-04-22T16:08:03Z</time></trkpt><trkpt lat="46.12925523180318" lon="13.357434516728931"><ele>129.33333333333334</ele><time>2026-04-22T16:08:03.999Z</time></trkpt><trkpt lat="46.1293325671284" lon="13.357210462339252"><ele>130.0</ele><time>2026-04-22T16:08:04.999Z</time></trkpt><trkpt lat="46.12940857706455" lon="13.356990148263108"><ele>130.0</ele><time>2026-04-22T16:08:05.999Z</time></trkpt><trkpt lat="46.129485685178196" lon="13.356765003683059"><ele>130.0</ele><time>2026-04-22T16:08:06.999Z</time></trkpt><trkpt lat="46.12956320648424" lon="13.35653871890101"><ele>130.0</ele><time>2026-04-22T16:08:07.999Z</time></trkpt><trkpt lat="46.12963583383119" lon="13.356321859479742"><ele>131.0</ele><time>2026-04-22T16:08:08.999Z</time></trkpt><trkpt lat="46.12970981247366" lon="13.356110947049798"><ele>132.0</ele><time>2026-04-22T16:08:09.999Z</time></trkpt><trkpt lat="46.12979019665668" lon="13.355907362008734"><ele>133.0</ele><time>2026-04-22T16:08:10.999Z</time></trkpt><trkpt lat="46.12987739260677" lon="13.35570439181924"><ele>133.66666666666669</ele><time>2026-04-22T16:08:11.999Z</time></trkpt><trkpt lat="46.12997268873019" lon="13.355507760828853"><ele>134.33333333333334</ele><time>2026-04-22T16:08:12.999Z</time></trkpt><trkpt lat="46.1300774098088" lon="13.355313039590405"><ele>135.0</ele><time>2026-04-22T16:08:13.999Z</time></trkpt><trkpt lat="46.13018460107183" lon="13.355121738988297"><ele>135.0</ele><time>2026-04-22T16:08:14.999Z</time></trkpt><trkpt lat="46.13029231487959" lon="13.354930481052254"><ele>135.0</ele><time>2026-04-22T16:08:15.999Z</time></trkpt><trkpt lat="46.130392579869316" lon="13.35473227117062"><ele>135.0</ele><time>2026-04-22T16:08:16.999Z</time></trkpt><trkpt lat="46.13048967298338" lon="13.354524680485282"><ele>134.33333333333334</ele><time>2026-04-22T16:08:17.999Z</time></trkpt><trkpt lat="46.13057419354097" lon="13.354301714288233"><ele>133.66666666666669</ele><time>2026-04-22T16:08:18.999Z</time></trkpt><trkpt lat="46.1306508738342" lon="13.354067520511569"><ele>133.0</ele><time>2026-04-22T16:08:19.999Z</time></trkpt><trkpt lat="46.13072994383688" lon="13.353822814378844"><ele>134.33333333333334</ele><time>2026-04-22T16:08:20.999Z</time></trkpt><trkpt lat="46.13081235469711" lon="13.353586693957284"><ele>135.66666666666666</ele><time>2026-04-22T16:08:21.999Z</time></trkpt><trkpt lat="46.13089400799339" lon="13.353349164596844"><ele>137.0</ele><time>2026-04-22T16:08:22.999Z</time></trkpt><trkpt lat="46.130974567070744" lon="13.353113966631387"><ele>136.33333333333331</ele><time>2026-04-22T16:08:23.999Z</time></trkpt><trkpt lat="46.13105632710304" lon="13.352886127183547"><ele>135.66666666666666</ele><time>2026-04-22T16:08:24.999Z</time></trkpt><trkpt lat="46.13115125162804" lon="13.35267534340712"><ele>135.0</ele><time>2026-04-22T16:08:25.999Z</time></trkpt><trkpt lat="46.131263697017964" lon="13.352494762914322"><ele>135.0</ele><time>2026-04-22T16:08:26.999Z</time></trkpt><trkpt lat="46.131385548417285" lon="13.352342484751189"><ele>135.0</ele><time>2026-04-22T16:08:27.999Z</time></trkpt><trkpt lat="46.13151674727145" lon="13.35220917413088"><ele>135.0</ele><time>2026-04-22T16:08:28.999Z</time></trkpt><trkpt lat="46.1316514729383" lon="13.352069301641727"><ele>135.33333333333334</ele><time>2026-04-22T16:08:29.999Z</time></trkpt><trkpt lat="46.13178523089403" lon="13.35192908463718"><ele>135.66666666666669</ele><time>2026-04-22T16:08:30.999Z</time></trkpt><trkpt lat="46.131914421937644" lon="13.351792149575218"><ele>136.0</ele><time>2026-04-22T16:08:31.999Z</time></trkpt><trkpt lat="46.132042494321304" lon="13.351653666759281"><ele>136.0</ele><time>2026-04-22T16:08:32.999Z</time></trkpt><trkpt lat="46.13217723428054" lon="13.351517429164131"><ele>136.0</ele><time>2026-04-22T16:08:33.999Z</time></trkpt><trkpt lat="46.13231814268541" lon="13.351379473782695"><ele>136.0</ele><time>2026-04-22T16:08:34.999Z</time></trkpt><trkpt lat="46.13246595185725" lon="13.35123543602142"><ele>135.66666666666669</ele><time>2026-04-22T16:08:35.999Z</time></trkpt><trkpt lat="46.13262824118634" lon="13.351116225004487"><ele>135.33333333333334</ele><time>2026-04-22T16:08:36.999Z</time></trkpt><trkpt lat="46.132797720535414" lon="13.35103442594087"><ele>135.0</ele><time>2026-04-22T16:08:37.999Z</time></trkpt><trkpt lat="46.13296152161668" lon="13.350982223916859"><ele>135.0</ele><time>2026-04-22T16:08:38.999Z</time></trkpt><trkpt lat="46.13312491461522" lon="13.350950056090419"><ele>135.0</ele><time>2026-04-22T16:08:39.999Z</time></trkpt><trkpt lat="46.133290470917125" lon="13.3509049496372"><ele>135.0</ele><time>2026-04-22T16:08:40.999Z</time></trkpt><trkpt lat="46.13345705892351" lon="13.350861635574141"><ele>135.66666666666666</ele><time>2026-04-22T16:08:41.999Z</time></trkpt><trkpt lat="46.13362479908478" lon="13.350821793776824"><ele>136.33333333333331</ele><time>2026-04-22T16:08:42.999Z</time></trkpt><trkpt lat="46.13379573288831" lon="13.350779141580666"><ele>137.0</ele><time>2026-04-22T16:08:44Z</time></trkpt><trkpt lat="46.133967164495054" lon="13.350735057131963"><ele>136.66666666666666</ele><time>2026-04-22T16:08:45Z</time></trkpt><trkpt lat="46.13413851370074" lon="13.350694890400034"><ele>136.33333333333334</ele><time>2026-04-22T16:08:46Z</time></trkpt><trkpt lat="46.1343087388219" lon="13.350651346678355"><ele>136.0</ele><time>2026-04-22T16:08:47Z</time></trkpt><trkpt lat="46.13447619998176" lon="13.350609683160778"><ele>136.0</ele><time>2026-04-22T16:08:48Z</time></trkpt><trkpt lat="46.13463005099104" lon="13.350577287642963"><ele>136.0</ele><time>2026-04-22T16:08:49Z</time></trkpt><trkpt lat="46.134793209819634" lon="13.35056465114131"><ele>136.0</ele><time>2026-04-22T16:08:50Z</time></trkpt><trkpt lat="46.13496722252857" lon="13.350586320624949"><ele>138.33333333333334</ele><time>2026-04-22T16:08:51Z</time></trkpt><trkpt lat="46.13514506862231" lon="13.350627864491917"><ele>140.66666666666666</ele><time>2026-04-22T16:08:52Z</time></trkpt><trkpt lat="46.135318939273844" lon="13.350677661016793"><ele>143.0</ele><time>2026-04-22T16:08:53Z</time></trkpt><trkpt lat="46.13548356325974" lon="13.35072796548734"><ele>143.0</ele><time>2026-04-22T16:08:54Z</time></trkpt><trkpt lat="46.135646974520775" lon="13.350784677584002"><ele>143.0</ele><time>2026-04-22T16:08:55Z</time></trkpt><trkpt lat="46.13581453046975" lon="13.350838125353025"><ele>143.0</ele><time>2026-04-22T16:08:56Z</time></trkpt><trkpt lat="46.135985524904385" lon="13.350883419956034"><ele>142.33333333333331</ele><time>2026-04-22T16:08:57Z</time></trkpt><trkpt lat="46.13615887988471" lon="13.350918156024308"><ele>141.66666666666666</ele><time>2026-04-22T16:08:58Z</time></trkpt><trkpt lat="46.1363358925712" lon="13.35092577424943"><ele>141.0</ele><time>2026-04-22T16:08:59Z</time></trkpt><trkpt lat="46.13651346894397" lon="13.350911385816566"><ele>140.66666666666666</ele><time>2026-04-22T16:09:00Z</time></trkpt><trkpt lat="46.13668663898705" lon="13.350880587977905"><ele>140.33333333333331</ele><time>2026-04-22T16:09:01Z</time></trkpt><trkpt lat="46.136857429950524" lon="13.350852520051427"><ele>140.0</ele><time>2026-04-22T16:09:02Z</time></trkpt><trkpt lat="46.137032434527555" lon="13.350829686314894"><ele>140.0</ele><time>2026-04-22T16:09:03Z</time></trkpt><trkpt lat="46.137212971047155" lon="13.350802236785553"><ele>140.0</ele><time>2026-04-22T16:09:04Z</time></trkpt><trkpt lat="46.13739191145622" lon="13.35077111859957"><ele>140.0</ele><time>2026-04-22T16:09:05Z</time></trkpt><trkpt lat="46.137568874450565" lon="13.350741870240366"><ele>140.66666666666666</ele><time>2026-04-22T16:09:06Z</time></trkpt><trkpt lat="46.13774399022054" lon="13.350712531013416"><ele>141.33333333333334</ele><time>2026-04-22T16:09:07Z</time></trkpt><trkpt lat="46.13791580283755" lon="13.350683455679526"><ele>142.0</ele><time>2026-04-22T16:09:08Z</time></trkpt><trkpt lat="46.13808301578018" lon="13.350655783632076"><ele>142.0</ele><time>2026-04-22T16:09:09Z</time></trkpt><trkpt lat="46.13824995845914" lon="13.350627593115426"><ele>142.0</ele><time>2026-04-22T16:09:10Z</time></trkpt><trkpt lat="46.13842336705329" lon="13.350594817097395"><ele>142.0</ele><time>2026-04-22T16:09:11Z</time></trkpt><trkpt lat="46.138594892842036" lon="13.35056454581948"><ele>141.33333333333334</ele><time>2026-04-22T16:09:12Z</time></trkpt><trkpt lat="46.138756216782205" lon="13.35054056584118"><ele>140.66666666666666</ele><time>2026-04-22T16:09:13Z</time></trkpt><trkpt lat="46.13891280725763" lon="13.350503524710655"><ele>140.0</ele><time>2026-04-22T16:09:14Z</time></trkpt><trkpt lat="46.139062064189524" lon="13.350430500068253"><ele>140.0</ele><time>2026-04-22T16:09:15Z</time></trkpt><trkpt lat="46.139202798499355" lon="13.350319814705271"><ele>140.0</ele><time>2026-04-22T16:09:16Z</time></trkpt><trkpt lat="46.13933433892563" lon="13.35019716561891"><ele>140.0</ele><time>2026-04-22T16:09:17Z</time></trkpt><trkpt lat="46.13945643469436" lon="13.350057425885554"><ele>140.0</ele><time>2026-04-22T16:09:18Z</time></trkpt><trkpt lat="46.13957432815303" lon="13.349896521144888"><ele>140.0</ele><time>2026-04-22T16:09:19Z</time></trkpt><trkpt lat="46.139699684395445" lon="13.349739120627698"><ele>140.0</ele><time>2026-04-22T16:09:20Z</time></trkpt><trkpt lat="46.13982607795676" lon="13.349579947630641"><ele>141.66666666666666</ele><time>2026-04-22T16:09:21Z</time></trkpt><trkpt lat="46.139948201347444" lon="13.34941774068025"><ele>143.33333333333334</ele><time>2026-04-22T16:09:22Z</time></trkpt><trkpt lat="46.140070817477024" lon="13.349262278564469"><ele>145.0</ele><time>2026-04-22T16:09:23Z</time></trkpt><trkpt lat="46.140177491421" lon="13.349120602122282"><ele>145.0</ele><time>2026-04-22T16:09:24Z</time></trkpt><trkpt lat="46.140276457387245" lon="13.348994466576913"><ele>145.0</ele><time>2026-04-22T16:09:25Z</time></trkpt><trkpt lat="46.14040695209461" lon="13.348871491342756"><ele>145.0</ele><time>2026-04-22T16:09:26Z</time></trkpt><trkpt lat="46.14056063996204" lon="13.348779903857096"><ele>144.66666666666669</ele><time>2026-04-22T16:09:27Z</time></trkpt><trkpt lat="46.14071455686078" lon="13.348723800158236"><ele>144.33333333333334</ele><time>2026-04-22T16:09:28Z</time></trkpt><trkpt lat="46.140868971832795" lon="13.348696841045589"><ele>144.0</ele><time>2026-04-22T16:09:29Z</time></trkpt><trkpt lat="46.14102130382256" lon="13.348678929402155"><ele>144.66666666666666</ele><time>2026-04-22T16:09:30Z</time></trkpt><trkpt lat="46.14116738168512" lon="13.348651459463452"><ele>145.33333333333331</ele><time>2026-04-22T16:09:31Z</time></trkpt><trkpt lat="46.141308305756034" lon="13.348594423231027"><ele>146.0</ele><time>2026-04-22T16:09:32Z</time></trkpt><trkpt lat="46.141450904117626" lon="13.34848620537031"><ele>146.0</ele><time>2026-04-22T16:09:33Z</time></trkpt><trkpt lat="46.141593915822284" lon="13.348372241745022"><ele>146.0</ele><time>2026-04-22T16:09:34Z</time></trkpt><trkpt lat="46.14173192813631" lon="13.348256092932916"><ele>146.0</ele><time>2026-04-22T16:09:35Z</time></trkpt><trkpt lat="46.141865188609586" lon="13.348129180763493"><ele>147.0</ele><time>2026-04-22T16:09:36Z</time></trkpt><trkpt lat="46.142001875655644" lon="13.348008536853081"><ele>148.0</ele><time>2026-04-22T16:09:37Z</time></trkpt><trkpt lat="46.142140080608364" lon="13.347888298447344"><ele>149.0</ele><time>2026-04-22T16:09:38Z</time></trkpt><trkpt lat="46.14228146769971" lon="13.347761960321982"><ele>149.33333333333331</ele><time>2026-04-22T16:09:39Z</time></trkpt><trkpt lat="46.14242310209898" lon="13.347632081037387"><ele>149.66666666666666</ele><time>2026-04-22T16:09:40Z</time></trkpt><trkpt lat="46.14256852181254" lon="13.347504776864913"><ele>150.0</ele><time>2026-04-22T16:09:41Z</time></trkpt><trkpt lat="46.142714171190775" lon="13.347384670516742"><ele>150.0</ele><time>2026-04-22T16:09:42Z</time></trkpt><trkpt lat="46.1428685622244" lon="13.347286072823266"><ele>150.0</ele><time>2026-04-22T16:09:43Z</time></trkpt><trkpt lat="46.143039120461545" lon="13.347220753387646"><ele>150.0</ele><time>2026-04-22T16:09:44Z</time></trkpt><trkpt lat="46.14322077252858" lon="13.347199114924276"><ele>149.33333333333334</ele><time>2026-04-22T16:09:45Z</time></trkpt><trkpt lat="46.14339727850318" lon="13.347196933870736"><ele>148.66666666666669</ele><time>2026-04-22T16:09:46Z</time></trkpt><trkpt lat="46.14356803806853" lon="13.347200373298646"><ele>148.0</ele><time>2026-04-22T16:09:47Z</time></trkpt><trkpt lat="46.14373490228255" lon="13.347200613060753"><ele>148.0</ele><time>2026-04-22T16:09:48Z</time></trkpt><trkpt lat="46.14390004981193" lon="13.347205272092872"><ele>148.0</ele><time>2026-04-22T16:09:49Z</time></trkpt><trkpt lat="46.14406818628354" lon="13.34721067754305"><ele>148.0</ele><time>2026-04-22T16:09:50Z</time></trkpt><trkpt lat="46.14424530723514" lon="13.347212120685116"><ele>149.33333333333334</ele><time>2026-04-22T16:09:51Z</time></trkpt><trkpt lat="46.14442831528932" lon="13.34721741103936"><ele>150.66666666666666</ele><time>2026-04-22T16:09:52Z</time></trkpt><trkpt lat="46.14461771984977" lon="13.347222696470586"><ele>152.0</ele><time>2026-04-22T16:09:53Z</time></trkpt><trkpt lat="46.14481177042914" lon="13.347226427800981"><ele>152.66666666666666</ele><time>2026-04-22T16:09:54Z</time></trkpt><trkpt lat="46.14500479800349" lon="13.347228585177087"><ele>153.33333333333334</ele><time>2026-04-22T16:09:55Z</time></trkpt><trkpt lat="46.14519269545455" lon="13.347228082419468"><ele>154.0</ele><time>2026-04-22T16:09:56Z</time></trkpt><trkpt lat="46.14538154357797" lon="13.347230315631935"><ele>154.0</ele><time>2026-04-22T16:09:57Z</time></trkpt><trkpt lat="46.14556515272404" lon="13.347242842137971"><ele>154.0</ele><time>2026-04-22T16:09:58Z</time></trkpt><trkpt lat="46.14574666314667" lon="13.347263966773468"><ele>154.0</ele><time>2026-04-22T16:09:59Z</time></trkpt><trkpt lat="46.145924916706605" lon="13.347291184140998"><ele>154.0</ele><time>2026-04-22T16:10:00Z</time></trkpt><trkpt lat="46.14610042578247" lon="13.34732129356729"><ele>154.0</ele><time>2026-04-22T16:10:01Z</time></trkpt><trkpt lat="46.1462760706703" lon="13.347346724719545"><ele>154.0</ele><time>2026-04-22T16:10:02Z</time></trkpt><trkpt lat="46.14645275013632" lon="13.347372041017206"><ele>155.0</ele><time>2026-04-22T16:10:03Z</time></trkpt><trkpt lat="46.14662941378707" lon="13.347398420741063"><ele>156.0</ele><time>2026-04-22T16:10:04Z</time></trkpt><trkpt lat="46.14680592122651" lon="13.347422931294458"><ele>157.0</ele><time>2026-04-22T16:10:05Z</time></trkpt><trkpt lat="46.14698216230058" lon="13.347449899393173"><ele>157.0</ele><time>2026-04-22T16:10:06Z</time></trkpt><trkpt lat="46.14715595052917" lon="13.347478694033603"><ele>157.0</ele><time>2026-04-22T16:10:06.999Z</time></trkpt><trkpt lat="46.14732994705438" lon="13.347502993064134"><ele>157.0</ele><time>2026-04-22T16:10:07.999Z</time></trkpt><trkpt lat="46.147506835681035" lon="13.347517461408248"><ele>158.0</ele><time>2026-04-22T16:10:08.999Z</time></trkpt><trkpt lat="46.14768469297196" lon="13.347515317437287"><ele>159.0</ele><time>2026-04-22T16:10:09.999Z</time></trkpt><trkpt lat="46.14786594994264" lon="13.3474999189407"><ele>160.0</ele><time>2026-04-22T16:10:10.999Z</time></trkpt><trkpt lat="46.14804536130766" lon="13.347477420125077"><ele>160.66666666666669</ele><time>2026-04-22T16:10:11.999Z</time></trkpt><trkpt lat="46.14821849153743" lon="13.347444386501213"><ele>161.33333333333334</ele><time>2026-04-22T16:10:12.999Z</time></trkpt><trkpt lat="46.1483845951772" lon="13.347399400746989"><ele>162.0</ele><time>2026-04-22T16:10:13.999Z</time></trkpt><trkpt lat="46.1485448299873" lon="13.347336563342733"><ele>162.0</ele><time>2026-04-22T16:10:14.999Z</time></trkpt><trkpt lat="46.148695446081675" lon="13.347273999624475"><ele>162.0</ele><time>2026-04-22T16:10:15.999Z</time></trkpt><trkpt lat="46.148832710387126" lon="13.347227762188378"><ele>162.0</ele><time>2026-04-22T16:10:16.999Z</time></trkpt><trkpt lat="46.148971410540874" lon="13.347180213152997"><ele>162.0</ele><time>2026-04-22T16:10:17.999Z</time></trkpt><trkpt lat="46.14910747697757" lon="13.347135698210227"><ele>162.0</ele><time>2026-04-22T16:10:18.999Z</time></trkpt><trkpt lat="46.14923200687821" lon="13.34710565327002"><ele>162.0</ele><time>2026-04-22T16:10:19.999Z</time></trkpt><trkpt lat="46.149361190401045" lon="13.34709956491453"><ele>162.0</ele><time>2026-04-22T16:10:20.999Z</time></trkpt><trkpt lat="46.14949577005867" lon="13.347117917929792"><ele>162.0</ele><time>2026-04-22T16:10:21.999Z</time></trkpt><trkpt lat="46.14963400967146" lon="13.347176307413879"><ele>162.33333333333334</ele><time>2026-04-22T16:10:22.999Z</time></trkpt><trkpt lat="46.14977418888177" lon="13.34726650405335"><ele>162.66666666666669</ele><time>2026-04-22T16:10:23.999Z</time></trkpt><trkpt lat="46.14991297707008" lon="13.347380531224301"><ele>163.0</ele><time>2026-04-22T16:10:24.999Z</time></trkpt><trkpt lat="46.15004531266923" lon="13.347485218004406"><ele>163.0</ele><time>2026-04-22T16:10:25.999Z</time></trkpt><trkpt lat="46.15017220365036" lon="13.347585993069185"><ele>163.0</ele><time>2026-04-22T16:10:26.999Z</time></trkpt><trkpt lat="46.15028968161788" lon="13.347682652284725"><ele>163.0</ele><time>2026-04-22T16:10:27.999Z</time></trkpt><trkpt lat="46.150406318461286" lon="13.34777823764347"><ele>163.0</ele><time>2026-04-22T16:10:28.999Z</time></trkpt><trkpt lat="46.15052223757535" lon="13.347869724071366"><ele>163.0</ele><time>2026-04-22T16:10:29.999Z</time></trkpt><trkpt lat="46.15063428355127" lon="13.347961581455886"><ele>163.0</ele><time>2026-04-22T16:10:30.999Z</time></trkpt><trkpt lat="46.15073120558272" lon="13.348047474583238"><ele>163.0</ele><time>2026-04-22T16:10:31.999Z</time></trkpt><trkpt lat="46.15082008528856" lon="13.348123038308996"><ele>163.0</ele><time>2026-04-22T16:10:32.999Z</time></trkpt><trkpt lat="46.150894192206984" lon="13.34818562195181"><ele>163.0</ele><time>2026-04-22T16:10:33.999Z</time></trkpt><trkpt lat="46.15095954994942" lon="13.348236412674481"><ele>163.0</ele><time>2026-04-22T16:10:34.999Z</time></trkpt><trkpt lat="46.15107129345327" lon="13.34822766474055"><ele>163.0</ele><time>2026-04-22T16:10:36.999Z</time></trkpt><trkpt lat="46.15112252820514" lon="13.348160196639276"><ele>163.0</ele><time>2026-04-22T16:10:37.999Z</time></trkpt><trkpt lat="46.15117471908719" lon="13.348065773772849"><ele>163.0</ele><time>2026-04-22T16:10:38.999Z</time></trkpt><trkpt lat="46.15125022156888" lon="13.347981839308405"><ele>163.0</ele><time>2026-04-22T16:10:39.999Z</time></trkpt><trkpt lat="46.15131650553659" lon="13.347932012185087"><ele>163.0</ele><time>2026-04-22T16:10:40.999Z</time></trkpt><trkpt lat="46.151418142359034" lon="13.347914025702247"><ele>163.0</ele><time>2026-04-22T16:10:41.999Z</time></trkpt><trkpt lat="46.15153768962028" lon="13.347926449801905"><ele>163.0</ele><time>2026-04-22T16:10:42.999Z</time></trkpt><trkpt lat="46.15164143381148" lon="13.347954205597032"><ele>163.0</ele><time>2026-04-22T16:10:43.999Z</time></trkpt><trkpt lat="46.15172853342273" lon="13.347966027479407"><ele>163.0</ele><time>2026-04-22T16:10:44.999Z</time></trkpt><trkpt lat="46.15180426507755" lon="13.347928073906148"><ele>163.0</ele><time>2026-04-22T16:10:45.999Z</time></trkpt><trkpt lat="46.15186026671633" lon="13.34783059035183"><ele>163.60000000000002</ele><time>2026-04-22T16:10:46.999Z</time></trkpt><trkpt lat="46.15190376435848" lon="13.347699800835736"><ele>164.20000000000002</ele><time>2026-04-22T16:10:47.999Z</time></trkpt><trkpt lat="46.151951113021994" lon="13.347576308019459"><ele>164.8</ele><time>2026-04-22T16:10:48.999Z</time></trkpt><trkpt lat="46.15201145857057" lon="13.34746672017781"><ele>165.4</ele><time>2026-04-22T16:10:50Z</time></trkpt><trkpt lat="46.152071571031875" lon="13.347353812728022"><ele>166.0</ele><time>2026-04-22T16:10:51Z</time></trkpt><trkpt lat="46.15213240283541" lon="13.347240176584725"><ele>166.20000000000002</ele><time>2026-04-22T16:10:52Z</time></trkpt><trkpt lat="46.152184262378555" lon="13.347117398211703"><ele>166.4</ele><time>2026-04-22T16:10:53Z</time></trkpt><trkpt lat="46.15221908723817" lon="13.346976879182709"><ele>166.6</ele><time>2026-04-22T16:10:54Z</time></trkpt><trkpt lat="46.15224039804431" lon="13.346823412041145"><ele>166.8</ele><time>2026-04-22T16:10:55Z</time></trkpt><trkpt lat="46.15226025463101" lon="13.346679418937768"><ele>167.0</ele><time>2026-04-22T16:10:56Z</time></trkpt><trkpt lat="46.15228605545002" lon="13.346561919017029"><ele>167.0</ele><time>2026-04-22T16:10:57Z</time></trkpt><trkpt lat="46.15230692806988" lon="13.346450198682637"><ele>167.0</ele><time>2026-04-22T16:10:58Z</time></trkpt><trkpt lat="46.152324897071104" lon="13.34633852423064"><ele>167.0</ele><time>2026-04-22T16:10:59Z</time></trkpt><trkpt lat="46.152344183833556" lon="13.346244644591346"><ele>167.0</ele><time>2026-04-22T16:11:00Z</time></trkpt><trkpt lat="46.1523828170932" lon="13.34609465140844"><ele>167.0</ele><time>2026-04-22T16:11:02Z</time></trkpt><trkpt lat="46.152443123537545" lon="13.346029115009785"><ele>167.0</ele><time>2026-04-22T16:11:04Z</time></trkpt><trkpt lat="46.152544802513084" lon="13.34610032013204"><ele>167.57142857142856</ele><time>2026-04-22T16:11:06Z</time></trkpt><trkpt lat="46.152608009969704" lon="13.34614208525311"><ele>168.14285714285714</ele><time>2026-04-22T16:11:07Z</time></trkpt><trkpt lat="46.15267663500403" lon="13.346179470536304"><ele>168.71428571428572</ele><time>2026-04-22T16:11:08Z</time></trkpt><trkpt lat="46.15274206968153" lon="13.34623553748102"><ele>169.28571428571428</ele><time>2026-04-22T16:11:09Z</time></trkpt><trkpt lat="46.152804137028916" lon="13.346290085494665"><ele>169.85714285714286</ele><time>2026-04-22T16:11:10Z</time></trkpt><trkpt lat="46.152860135169" lon="13.346339864567272"><ele>170.42857142857142</ele><time>2026-04-22T16:11:11Z</time></trkpt><trkpt lat="46.15291585661303" lon="13.346416802947925"><ele>171.0</ele><time>2026-04-22T16:11:12Z</time></trkpt><trkpt lat="46.15298149477909" lon="13.346560626253417"><ele>171.0</ele><time>2026-04-22T16:11:13Z</time></trkpt><trkpt lat="46.15305204021534" lon="13.34674127959201"><ele>171.0</ele><time>2026-04-22T16:11:14Z</time></trkpt><trkpt lat="46.153110085634076" lon="13.346890957389991"><ele>171.0</ele><time>2026-04-22T16:11:15Z</time></trkpt><trkpt lat="46.15317091188587" lon="13.347027728434494"><ele>171.0</ele><time>2026-04-22T16:11:16Z</time></trkpt><trkpt lat="46.15323774471073" lon="13.347165211655788"><ele>171.5</ele><time>2026-04-22T16:11:17Z</time></trkpt><trkpt lat="46.15331124325928" lon="13.34730176487724"><ele>172.0</ele><time>2026-04-22T16:11:18Z</time></trkpt><trkpt lat="46.15339135593834" lon="13.347427071154987"><ele>172.5</ele><time>2026-04-22T16:11:19Z</time></trkpt><trkpt lat="46.153476404487876" lon="13.347550157808904"><ele>173.0</ele><time>2026-04-22T16:11:20Z</time></trkpt><trkpt lat="46.15357304272363" lon="13.347660896207286"><ele>173.0</ele><time>2026-04-22T16:11:21Z</time></trkpt><trkpt lat="46.153691951299294" lon="13.34776377495523"><ele>173.0</ele><time>2026-04-22T16:11:22Z</time></trkpt><trkpt lat="46.153812506878815" lon="13.347855868422108"><ele>173.0</ele><time>2026-04-22T16:11:23Z</time></trkpt><trkpt lat="46.153927016415636" lon="13.34793489717762"><ele>173.0</ele><time>2026-04-22T16:11:24Z</time></trkpt><trkpt lat="46.15405467455381" lon="13.348019787779046"><ele>173.8</ele><time>2026-04-22T16:11:25Z</time></trkpt><trkpt lat="46.15415952347417" lon="13.348092779062542"><ele>174.60000000000002</ele><time>2026-04-22T16:11:26Z</time></trkpt><trkpt lat="46.15425421100818" lon="13.348154783355252"><ele>175.39999999999998</ele><time>2026-04-22T16:11:27Z</time></trkpt><trkpt lat="46.15433284573238" lon="13.348215208564387"><ele>176.2</ele><time>2026-04-22T16:11:28Z</time></trkpt><trkpt lat="46.15443051596599" lon="13.348281821487934"><ele>177.0</ele><time>2026-04-22T16:11:29Z</time></trkpt><trkpt lat="46.15456299663357" lon="13.348371932850029"><ele>177.0</ele><time>2026-04-22T16:11:30Z</time></trkpt><trkpt lat="46.15471586926503" lon="13.348476906440654"><ele>177.0</ele><time>2026-04-22T16:11:31Z</time></trkpt><trkpt lat="46.15485375754449" lon="13.348602895529359"><ele>177.0</ele><time>2026-04-22T16:11:32Z</time></trkpt><trkpt lat="46.15497473809442" lon="13.348759646466634"><ele>177.75</ele><time>2026-04-22T16:11:33Z</time></trkpt><trkpt lat="46.155084313701266" lon="13.34889655678911"><ele>178.5</ele><time>2026-04-22T16:11:34Z</time></trkpt><trkpt lat="46.15518606335883" lon="13.34902930176542"><ele>179.25</ele><time>2026-04-22T16:11:35Z</time></trkpt><trkpt lat="46.15531467484724" lon="13.349123625991028"><ele>180.0</ele><time>2026-04-22T16:11:36Z</time></trkpt><trkpt lat="46.15547717323649" lon="13.349208712115415"><ele>180.0</ele><time>2026-04-22T16:11:37Z</time></trkpt><trkpt lat="46.15564014763002" lon="13.34930405597721"><ele>180.0</ele><time>2026-04-22T16:11:38Z</time></trkpt><trkpt lat="46.1557818235515" lon="13.34940360731737"><ele>180.0</ele><time>2026-04-22T16:11:39Z</time></trkpt><trkpt lat="46.15590888192487" lon="13.349514354194808"><ele>179.75</ele><time>2026-04-22T16:11:40Z</time></trkpt><trkpt lat="46.15602868333296" lon="13.349636183834647"><ele>179.5</ele><time>2026-04-22T16:11:41Z</time></trkpt><trkpt lat="46.156129958235816" lon="13.349788137005488"><ele>179.25</ele><time>2026-04-22T16:11:42Z</time></trkpt><trkpt lat="46.15621680442454" lon="13.349954636779495"><ele>179.0</ele><time>2026-04-22T16:11:43Z</time></trkpt><trkpt lat="46.15629120306975" lon="13.35010847997004"><ele>179.0</ele><time>2026-04-22T16:11:44Z</time></trkpt><trkpt lat="46.15635891469318" lon="13.350227098806522"><ele>179.0</ele><time>2026-04-22T16:11:45Z</time></trkpt><trkpt lat="46.156410994328894" lon="13.350324583506104"><ele>179.0</ele><time>2026-04-22T16:11:46Z</time></trkpt><trkpt lat="46.15645744768517" lon="13.35042562423927"><ele>179.0</ele><time>2026-04-22T16:11:47Z</time></trkpt><trkpt lat="46.15650593181391" lon="13.35050250682286"><ele>179.0</ele><time>2026-04-22T16:11:48Z</time></trkpt><trkpt lat="46.15657216722811" lon="13.350544582291004"><ele>179.0</ele><time>2026-04-22T16:11:49Z</time></trkpt><trkpt lat="46.156652008416" lon="13.350560023573856"><ele>179.79999999999998</ele><time>2026-04-22T16:11:50Z</time></trkpt><trkpt lat="46.156727433495846" lon="13.350600313377427"><ele>180.6</ele><time>2026-04-22T16:11:51Z</time></trkpt><trkpt lat="46.15680891311155" lon="13.350655092461333"><ele>181.4</ele><time>2026-04-22T16:11:52Z</time></trkpt><trkpt lat="46.156916066712405" lon="13.35069923183986"><ele>182.2</ele><time>2026-04-22T16:11:53Z</time></trkpt><trkpt lat="46.15703387383369" lon="13.35076789196656"><ele>183.0</ele><time>2026-04-22T16:11:54Z</time></trkpt><trkpt lat="46.15716234806927" lon="13.350848356332186"><ele>183.0</ele><time>2026-04-22T16:11:55Z</time></trkpt><trkpt lat="46.15728444901077" lon="13.350927052609148"><ele>183.0</ele><time>2026-04-22T16:11:56Z</time></trkpt><trkpt lat="46.1573993419448" lon="13.351021774234587"><ele>183.0</ele><time>2026-04-22T16:11:57Z</time></trkpt><trkpt lat="46.15751331393521" lon="13.351144485059988"><ele>183.0</ele><time>2026-04-22T16:11:58Z</time></trkpt><trkpt lat="46.15763292456459" lon="13.351308955843352"><ele>184.66666666666666</ele><time>2026-04-22T16:11:59Z</time></trkpt><trkpt lat="46.15776764013746" lon="13.351486106923108"><ele>186.33333333333331</ele><time>2026-04-22T16:12:00Z</time></trkpt><trkpt lat="46.15791229197521" lon="13.351695357985525"><ele>188.0</ele><time>2026-04-22T16:12:01Z</time></trkpt><trkpt lat="46.15803080029884" lon="13.351863820975232"><ele>188.0</ele><time>2026-04-22T16:12:02Z</time></trkpt><trkpt lat="46.158134915407345" lon="13.351999307802974"><ele>188.0</ele><time>2026-04-22T16:12:03Z</time></trkpt><trkpt lat="46.15824642363834" lon="13.352151985268039"><ele>188.0</ele><time>2026-04-22T16:12:04Z</time></trkpt><trkpt lat="46.15835419809999" lon="13.352300468714084"><ele>188.0</ele><time>2026-04-22T16:12:05Z</time></trkpt><trkpt lat="46.158458615622976" lon="13.352444645298538"><ele>187.66666666666666</ele><time>2026-04-22T16:12:06Z</time></trkpt><trkpt lat="46.15856122754817" lon="13.352591447739675"><ele>187.33333333333334</ele><time>2026-04-22T16:12:07Z</time></trkpt><trkpt lat="46.15867331603937" lon="13.35273004674603"><ele>187.0</ele><time>2026-04-22T16:12:08Z</time></trkpt><trkpt lat="46.1588054460004" lon="13.352858928237703"><ele>187.0</ele><time>2026-04-22T16:12:09Z</time></trkpt><trkpt lat="46.15896194988876" lon="13.35297024401874"><ele>187.0</ele><time>2026-04-22T16:12:09.999Z</time></trkpt><trkpt lat="46.15913369918444" lon="13.353090392411556"><ele>187.0</ele><time>2026-04-22T16:12:10.999Z</time></trkpt><trkpt lat="46.15929604207138" lon="13.353207068941492"><ele>188.66666666666669</ele><time>2026-04-22T16:12:11.999Z</time></trkpt><trkpt lat="46.159461798703475" lon="13.353325247664797"><ele>190.33333333333334</ele><time>2026-04-22T16:12:12.999Z</time></trkpt><trkpt lat="46.159629448297814" lon="13.353440164970788"><ele>192.0</ele><time>2026-04-22T16:12:13.999Z</time></trkpt><trkpt lat="46.15978837224673" lon="13.353560119972144"><ele>193.0</ele><time>2026-04-22T16:12:14.999Z</time></trkpt><trkpt lat="46.15992484625395" lon="13.3536935050019"><ele>194.0</ele><time>2026-04-22T16:12:15.999Z</time></trkpt><trkpt lat="46.16004724228734" lon="13.353858099469521"><ele>195.0</ele><time>2026-04-22T16:12:16.999Z</time></trkpt><trkpt lat="46.16016391849548" lon="13.35405108845722"><ele>195.0</ele><time>2026-04-22T16:12:17.999Z</time></trkpt><trkpt lat="46.160287988416435" lon="13.354247199585581"><ele>195.0</ele><time>2026-04-22T16:12:18.999Z</time></trkpt><trkpt lat="46.1604069665163" lon="13.354432091817394"><ele>195.0</ele><time>2026-04-22T16:12:19.999Z</time></trkpt><trkpt lat="46.160520805589755" lon="13.354610765822953"><ele>194.0</ele><time>2026-04-22T16:12:20.999Z</time></trkpt><trkpt lat="46.16063672490545" lon="13.354786893654214"><ele>193.0</ele><time>2026-04-22T16:12:21.999Z</time></trkpt><trkpt lat="46.16075349969441" lon="13.354963790543959"><ele>192.0</ele><time>2026-04-22T16:12:22.999Z</time></trkpt><trkpt lat="46.16087689917882" lon="13.355134684904272"><ele>193.0</ele><time>2026-04-22T16:12:23.999Z</time></trkpt><trkpt lat="46.16100158669107" lon="13.355283042238502"><ele>194.0</ele><time>2026-04-22T16:12:24.999Z</time></trkpt><trkpt lat="46.16111769452104" lon="13.35542437343898"><ele>195.0</ele><time>2026-04-22T16:12:25.999Z</time></trkpt><trkpt lat="46.161238471259765" lon="13.355602615493424"><ele>195.0</ele><time>2026-04-22T16:12:26.999Z</time></trkpt><trkpt lat="46.16136096271605" lon="13.355803397816233"><ele>195.0</ele><time>2026-04-22T16:12:27.999Z</time></trkpt><trkpt lat="46.161469682491024" lon="13.355999787981355"><ele>195.0</ele><time>2026-04-22T16:12:28.999Z</time></trkpt><trkpt lat="46.16156493709129" lon="13.356170082430923"><ele>197.66666666666669</ele><time>2026-04-22T16:12:29.999Z</time></trkpt><trkpt lat="46.161670974877396" lon="13.356324760110304"><ele>200.33333333333334</ele><time>2026-04-22T16:12:30.999Z</time></trkpt><trkpt lat="46.16179716472566" lon="13.356476712577846"><ele>203.0</ele><time>2026-04-22T16:12:31.999Z</time></trkpt><trkpt lat="46.16193962561417" lon="13.356609921369914"><ele>203.0</ele><time>2026-04-22T16:12:32.999Z</time></trkpt><trkpt lat="46.162066433808064" lon="13.356719813972113"><ele>203.0</ele><time>2026-04-22T16:12:33.999Z</time></trkpt><trkpt lat="46.16217577657831" lon="13.356822945763312"><ele>203.0</ele><time>2026-04-22T16:12:34.999Z</time></trkpt><trkpt lat="46.162261701600706" lon="13.35690565342634"><ele>203.0</ele><time>2026-04-22T16:12:35.999Z</time></trkpt><trkpt lat="46.16233009177713" lon="13.356976989473045"><ele>202.5</ele><time>2026-04-22T16:12:36.999Z</time></trkpt><trkpt lat="46.162397964231296" lon="13.357049278799343"><ele>202.0</ele><time>2026-04-22T16:12:37.999Z</time></trkpt><trkpt lat="46.16249004601113" lon="13.357156999721862"><ele>201.5</ele><time>2026-04-22T16:12:38.999Z</time></trkpt><trkpt lat="46.162604065866205" lon="13.357287567023583"><ele>201.0</ele><time>2026-04-22T16:12:39.999Z</time></trkpt><trkpt lat="46.162732984093154" lon="13.35742536937851"><ele>201.0</ele><time>2026-04-22T16:12:40.999Z</time></trkpt><trkpt lat="46.16283512860688" lon="13.357531767667801"><ele>201.0</ele><time>2026-04-22T16:12:41.999Z</time></trkpt><trkpt lat="46.162930053049124" lon="13.35762247615319"><ele>201.0</ele><time>2026-04-22T16:12:42.999Z</time></trkpt><trkpt lat="46.16301321070993" lon="13.357703810947445"><ele>201.0</ele><time>2026-04-22T16:12:43.999Z</time></trkpt><trkpt lat="46.16310612009038" lon="13.357786946171098"><ele>206.33333333333331</ele><time>2026-04-22T16:12:44.999Z</time></trkpt><trkpt lat="46.16327809973733" lon="13.357685071566111"><ele>211.66666666666666</ele><time>2026-04-22T16:12:45.999Z</time></trkpt><trkpt lat="46.163424187175664" lon="13.357632777714953"><ele>217.0</ele><time>2026-04-22T16:12:46.999Z</time></trkpt><trkpt lat="46.16359611788105" lon="13.357603622130961"><ele>217.0</ele><time>2026-04-22T16:12:47.999Z</time></trkpt><trkpt lat="46.163780964619484" lon="13.357535532234666"><ele>217.0</ele><time>2026-04-22T16:12:48.999Z</time></trkpt><trkpt lat="46.16395723237858" lon="13.357548364483579"><ele>217.0</ele><time>2026-04-22T16:12:49.999Z</time></trkpt><trkpt lat="46.16412165904677" lon="13.357542169139089"><ele>218.33333333333331</ele><time>2026-04-22T16:12:50.999Z</time></trkpt><trkpt lat="46.164283792338644" lon="13.357509044622487"><ele>219.66666666666669</ele><time>2026-04-22T16:12:51.999Z</time></trkpt><trkpt lat="46.16444818351595" lon="13.357513249913927"><ele>221.0</ele><time>2026-04-22T16:12:52.999Z</time></trkpt><trkpt lat="46.16461504546223" lon="13.35753315962253"><ele>221.0</ele><time>2026-04-22T16:12:53.999Z</time></trkpt><trkpt lat="46.164784278881676" lon="13.357570542879186"><ele>221.0</ele><time>2026-04-22T16:12:54.999Z</time></trkpt><trkpt lat="46.16495856712598" lon="13.357620404430845"><ele>221.0</ele><time>2026-04-22T16:12:56Z</time></trkpt><trkpt lat="46.16512616074129" lon="13.357605501207876"><ele>221.75</ele><time>2026-04-22T16:12:57Z</time></trkpt><trkpt lat="46.16527513694617" lon="13.357636231311508"><ele>222.5</ele><time>2026-04-22T16:12:58Z</time></trkpt><trkpt lat="46.16540287167655" lon="13.35763060969793"><ele>223.25</ele><time>2026-04-22T16:12:59Z</time></trkpt><trkpt lat="46.165529637813584" lon="13.35768460442708"><ele>224.0</ele><time>2026-04-22T16:13:00Z</time></trkpt><trkpt lat="46.16565770429785" lon="13.357775047323349"><ele>223.25</ele><time>2026-04-22T16:13:01Z</time></trkpt><trkpt lat="46.165763254373736" lon="13.357873125990455"><ele>222.5</ele><time>2026-04-22T16:13:02Z</time></trkpt><trkpt lat="46.165866174355536" lon="13.357967034521623"><ele>221.75</ele><time>2026-04-22T16:13:03Z</time></trkpt><trkpt lat="46.165966070505185" lon="13.358058754329848"><ele>221.0</ele><time>2026-04-22T16:13:04Z</time></trkpt><trkpt lat="46.1660615419968" lon="13.358152623304838"><ele>221.0</ele><time>2026-04-22T16:13:05Z</time></trkpt><trkpt lat="46.166165467243566" lon="13.358224042086977"><ele>221.0</ele><time>2026-04-22T16:13:06Z</time></trkpt><trkpt lat="46.16628228996872" lon="13.358256279741548"><ele>221.0</ele><time>2026-04-22T16:13:07Z</time></trkpt><trkpt lat="46.16641974938426" lon="13.358247514565166"><ele>221.0</ele><time>2026-04-22T16:13:08Z</time></trkpt><trkpt lat="46.166565220888025" lon="13.358239316265655"><ele>225.0</ele><time>2026-04-22T16:13:09Z</time></trkpt><trkpt lat="46.16669849175076" lon="13.35825112951042"><ele>229.0</ele><time>2026-04-22T16:13:10Z</time></trkpt><trkpt lat="46.166833849820144" lon="13.35826459899106"><ele>233.0</ele><time>2026-04-22T16:13:11Z</time></trkpt><trkpt lat="46.16696919856675" lon="13.358296714264366"><ele>237.0</ele><time>2026-04-22T16:13:12Z</time></trkpt><trkpt lat="46.16710714242501" lon="13.358355332484287"><ele>237.0</ele><time>2026-04-22T16:13:13Z</time></trkpt><trkpt lat="46.167260933363124" lon="13.358432855073923"><ele>237.0</ele><time>2026-04-22T16:13:14Z</time></trkpt><trkpt lat="46.1674078401731" lon="13.358508676462225"><ele>237.0</ele><time>2026-04-22T16:13:15Z</time></trkpt><trkpt lat="46.16753678473265" lon="13.358576494881904"><ele>243.0</ele><time>2026-04-22T16:13:16Z</time></trkpt><trkpt lat="46.16765957531459" lon="13.358637667450376"><ele>249.0</ele><time>2026-04-22T16:13:17Z</time></trkpt><trkpt lat="46.16779378584864" lon="13.358666223610378"><ele>255.0</ele><time>2026-04-22T16:13:18Z</time></trkpt><trkpt lat="46.167928605690115" lon="13.358650773430943"><ele>261.0</ele><time>2026-04-22T16:13:19Z</time></trkpt><trkpt lat="46.16802753670778" lon="13.358625868493966"><ele>261.0</ele><time>2026-04-22T16:13:20Z</time></trkpt><trkpt lat="46.16810911524152" lon="13.358596122498248"><ele>261.0</ele><time>2026-04-22T16:13:21Z</time></trkpt><trkpt lat="46.16818303356135" lon="13.358595071093049"><ele>261.0</ele><time>2026-04-22T16:13:22Z</time></trkpt><trkpt lat="46.168253180713705" lon="13.358631946403284"><ele>261.0</ele><time>2026-04-22T16:13:23Z</time></trkpt><trkpt lat="46.16830114784525" lon="13.358715402478303"><ele>261.0</ele><time>2026-04-22T16:13:24Z</time></trkpt><trkpt lat="46.1683325408933" lon="13.358850040746004"><ele>261.0</ele><time>2026-04-22T16:13:25Z</time></trkpt><trkpt lat="46.1683329456319" lon="13.359013655247917"><ele>259.0</ele><time>2026-04-22T16:13:26Z</time></trkpt><trkpt lat="46.16832573771815" lon="13.359175945552842"><ele>257.0</ele><time>2026-04-22T16:13:27Z</time></trkpt><trkpt lat="46.168354800386325" lon="13.359308527393186"><ele>255.00000000000003</ele><time>2026-04-22T16:13:28Z</time></trkpt><trkpt lat="46.168414276540425" lon="13.359439685943089"><ele>253.0</ele><time>2026-04-22T16:13:29Z</time></trkpt><trkpt lat="46.168518495403035" lon="13.359535215122856"><ele>251.0</ele><time>2026-04-22T16:13:30Z</time></trkpt><trkpt lat="46.16863080044301" lon="13.359622297610201"><ele>251.00000000000003</ele><time>2026-04-22T16:13:31Z</time></trkpt><trkpt lat="46.168739664566985" lon="13.359689365767755"><ele>251.0</ele><time>2026-04-22T16:13:32Z</time></trkpt><trkpt lat="46.168838388531" lon="13.359712526992752"><ele>251.0</ele><time>2026-04-22T16:13:33Z</time></trkpt><trkpt lat="46.168911845538794" lon="13.359710751714394"><ele>251.0</ele><time>2026-04-22T16:13:34Z</time></trkpt><trkpt lat="46.16897604863282" lon="13.359712254802213"><ele>251.00000000000003</ele><time>2026-04-22T16:13:35Z</time></trkpt><trkpt lat="46.16904168318428" lon="13.359687937085324"><ele>251.0</ele><time>2026-04-22T16:13:36Z</time></trkpt><trkpt lat="46.16910228955373" lon="13.359631413778466"><ele>254.83333333333334</ele><time>2026-04-22T16:13:37Z</time></trkpt><trkpt lat="46.16915462310407" lon="13.359542619439488"><ele>258.6666666666667</ele><time>2026-04-22T16:13:38Z</time></trkpt><trkpt lat="46.16921914583603" lon="13.359433359063235"><ele>262.5</ele><time>2026-04-22T16:13:39Z</time></trkpt><trkpt lat="46.16925308005134" lon="13.35933397585836"><ele>266.3333333333333</ele><time>2026-04-22T16:13:40Z</time></trkpt><trkpt lat="46.16931491392773" lon="13.359287195414346"><ele>270.16666666666663</ele><time>2026-04-22T16:13:41Z</time></trkpt><trkpt lat="46.16938563929169" lon="13.35928859984073"><ele>274.0</ele><time>2026-04-22T16:13:42Z</time></trkpt><trkpt lat="46.16945468518054" lon="13.359356531884586"><ele>274.0</ele><time>2026-04-22T16:13:43Z</time></trkpt><trkpt lat="46.169471878480564" lon="13.359490636704997"><ele>274.0</ele><time>2026-04-22T16:13:44Z</time></trkpt><trkpt lat="46.16951634912508" lon="13.359581106413502"><ele>274.0</ele><time>2026-04-22T16:13:45Z</time></trkpt><trkpt lat="46.169585831077626" lon="13.35963396954618"><ele>274.0</ele><time>2026-04-22T16:13:46Z</time></trkpt><trkpt lat="46.169685503256694" lon="13.359627272816294"><ele>274.0</ele><time>2026-04-22T16:13:47Z</time></trkpt><trkpt lat="46.16979189478376" lon="13.359562672962449"><ele>275.0</ele><time>2026-04-22T16:13:48Z</time></trkpt><trkpt lat="46.16990317149002" lon="13.359490929622103"><ele>276.0</ele><time>2026-04-22T16:13:49Z</time></trkpt><trkpt lat="46.17001392268215" lon="13.359427337048151"><ele>277.0</ele><time>2026-04-22T16:13:50Z</time></trkpt><trkpt lat="46.17012596857186" lon="13.359360680209795"><ele>278.0</ele><time>2026-04-22T16:13:51Z</time></trkpt><trkpt lat="46.17024275651092" lon="13.359298105167905"><ele>278.0</ele><time>2026-04-22T16:13:52Z</time></trkpt><trkpt lat="46.1703616319533" lon="13.359238901462057"><ele>278.0</ele><time>2026-04-22T16:13:53Z</time></trkpt><trkpt lat="46.170487129728315" lon="13.359163201680717"><ele>278.0</ele><time>2026-04-22T16:13:54Z</time></trkpt><trkpt lat="46.170614732560274" lon="13.359077011259412"><ele>278.0</ele><time>2026-04-22T16:13:55Z</time></trkpt><trkpt lat="46.1707334103559" lon="13.358967414128115"><ele>283.25</ele><time>2026-04-22T16:13:56Z</time></trkpt><trkpt lat="46.170841745681706" lon="13.35883745357537"><ele>288.5</ele><time>2026-04-22T16:13:57Z</time></trkpt><trkpt lat="46.17095386357735" lon="13.358692015543367"><ele>293.75</ele><time>2026-04-22T16:13:58Z</time></trkpt><trkpt lat="46.17106923251814" lon="13.358550935985932"><ele>299.0</ele><time>2026-04-22T16:13:59Z</time></trkpt><trkpt lat="46.17117581960992" lon="13.358428256271186"><ele>299.0</ele><time>2026-04-22T16:14:00Z</time></trkpt><trkpt lat="46.17125568220411" lon="13.358327451365119"><ele>299.0</ele><time>2026-04-22T16:14:01Z</time></trkpt><trkpt lat="46.17132750435334" lon="13.3582388660355"><ele>299.0</ele><time>2026-04-22T16:14:02Z</time></trkpt><trkpt lat="46.17139526278543" lon="13.358181588934515"><ele>299.0</ele><time>2026-04-22T16:14:03Z</time></trkpt><trkpt lat="46.17146356927137" lon="13.35817650162935"><ele>299.0</ele><time>2026-04-22T16:14:04Z</time></trkpt><trkpt lat="46.171523186464576" lon="13.358206754538577"><ele>299.0</ele><time>2026-04-22T16:14:05Z</time></trkpt><trkpt lat="46.17158792581165" lon="13.358250669554463"><ele>299.0</ele><time>2026-04-22T16:14:07Z</time></trkpt><trkpt lat="46.171525856338356" lon="13.358559396017494"><ele>299.0</ele><time>2026-04-22T16:14:08Z</time></trkpt><trkpt lat="46.17145071273163" lon="13.358763325058112"><ele>299.0</ele><time>2026-04-22T16:14:09Z</time></trkpt><trkpt lat="46.171364726814296" lon="13.358949506795952"><ele>295.25</ele><time>2026-04-22T16:14:10Z</time></trkpt><trkpt lat="46.17127988171293" lon="13.359131211188117"><ele>291.5</ele><time>2026-04-22T16:14:11Z</time></trkpt><trkpt lat="46.1711991271165" lon="13.359293482530113"><ele>287.75</ele><time>2026-04-22T16:14:12Z</time></trkpt><trkpt lat="46.171125467838806" lon="13.359417722917023"><ele>284.0</ele><time>2026-04-22T16:14:13Z</time></trkpt><trkpt lat="46.17105690941049" lon="13.359525829573931"><ele>284.0</ele><time>2026-04-22T16:14:13.999Z</time></trkpt><trkpt lat="46.17100519460666" lon="13.359635561780262"><ele>284.0</ele><time>2026-04-22T16:14:14.999Z</time></trkpt><trkpt lat="46.170980841344935" lon="13.359775339940859"><ele>284.0</ele><time>2026-04-22T16:14:15.999Z</time></trkpt><trkpt lat="46.17098946245603" lon="13.359936199219819"><ele>284.0</ele><time>2026-04-22T16:14:16.999Z</time></trkpt><trkpt lat="46.170989442797996" lon="13.360083055226697"><ele>284.0</ele><time>2026-04-22T16:14:17.999Z</time></trkpt><trkpt lat="46.170938228424944" lon="13.360209156778309"><ele>283.0</ele><time>2026-04-22T16:14:18.999Z</time></trkpt><trkpt lat="46.170867752268805" lon="13.360304549157743"><ele>282.0</ele><time>2026-04-22T16:14:19.999Z</time></trkpt><trkpt lat="46.17079228304654" lon="13.360407335187652"><ele>281.0</ele><time>2026-04-22T16:14:20.999Z</time></trkpt><trkpt lat="46.17070428098182" lon="13.360544102428833"><ele>280.0</ele><time>2026-04-22T16:14:21.999Z</time></trkpt><trkpt lat="46.17061242848362" lon="13.36071275507137"><ele>280.0</ele><time>2026-04-22T16:14:22.999Z</time></trkpt><trkpt lat="46.17052363368466" lon="13.360854896847652"><ele>280.0</ele><time>2026-04-22T16:14:23.999Z</time></trkpt><trkpt lat="46.170421237861106" lon="13.360989778631339"><ele>280.0</ele><time>2026-04-22T16:14:24.999Z</time></trkpt><trkpt lat="46.1702991957085" lon="13.361132506742958"><ele>280.0</ele><time>2026-04-22T16:14:25.999Z</time></trkpt><trkpt lat="46.17017492876823" lon="13.361272484817079"><ele>284.75</ele><time>2026-04-22T16:14:26.999Z</time></trkpt><trkpt lat="46.17005335009567" lon="13.361418232401306"><ele>289.5</ele><time>2026-04-22T16:14:27.999Z</time></trkpt><trkpt lat="46.16994201520178" lon="13.361555110017877"><ele>294.25</ele><time>2026-04-22T16:14:28.999Z</time></trkpt><trkpt lat="46.16984183083339" lon="13.361677355796338"><ele>299.0</ele><time>2026-04-22T16:14:29.999Z</time></trkpt><trkpt lat="46.169761695875394" lon="13.361807571361194"><ele>291.0</ele><time>2026-04-22T16:14:30.999Z</time></trkpt><trkpt lat="46.16971028171892" lon="13.36195193994462"><ele>283.0</ele><time>2026-04-22T16:14:31.999Z</time></trkpt><trkpt lat="46.16968606900991" lon="13.362110695106596"><ele>275.0</ele><time>2026-04-22T16:14:32.999Z</time></trkpt><trkpt lat="46.16968795064768" lon="13.362274499558849"><ele>267.0</ele><time>2026-04-22T16:14:33.999Z</time></trkpt><trkpt lat="46.16971544846802" lon="13.362451257981578"><ele>267.0</ele><time>2026-04-22T16:14:34.999Z</time></trkpt><trkpt lat="46.169767608447835" lon="13.362624223659822"><ele>267.0</ele><time>2026-04-22T16:14:35.999Z</time></trkpt><trkpt lat="46.169825932122684" lon="13.362777519395753"><ele>267.0</ele><time>2026-04-22T16:14:36.999Z</time></trkpt><trkpt lat="46.169896874599765" lon="13.362901806683753"><ele>267.0</ele><time>2026-04-22T16:14:37.999Z</time></trkpt><trkpt lat="46.169971070895066" lon="13.362987130655048"><ele>272.2</ele><time>2026-04-22T16:14:38.999Z</time></trkpt><trkpt lat="46.17007116054757" lon="13.363033435943931"><ele>277.4</ele><time>2026-04-22T16:14:39.999Z</time></trkpt><trkpt lat="46.170176173453044" lon="13.363045958139468"><ele>282.6</ele><time>2026-04-22T16:14:40.999Z</time></trkpt><trkpt lat="46.17027959658683" lon="13.363008697863481"><ele>287.8</ele><time>2026-04-22T16:14:41.999Z</time></trkpt><trkpt lat="46.17037275957435" lon="13.362907886425827"><ele>293.0</ele><time>2026-04-22T16:14:42.999Z</time></trkpt><trkpt lat="46.17045641191952" lon="13.362777561331962"><ele>295.75</ele><time>2026-04-22T16:14:43.999Z</time></trkpt><trkpt lat="46.170540417128876" lon="13.36263608268972"><ele>298.5</ele><time>2026-04-22T16:14:44.999Z</time></trkpt><trkpt lat="46.17061736792762" lon="13.362479183944677"><ele>301.25</ele><time>2026-04-22T16:14:45.999Z</time></trkpt><trkpt lat="46.17069126033247" lon="13.362338338420738"><ele>304.0</ele><time>2026-04-22T16:14:46.999Z</time></trkpt><trkpt lat="46.17073771010275" lon="13.362214839269534"><ele>306.0</ele><time>2026-04-22T16:14:47.999Z</time></trkpt><trkpt lat="46.17078079878563" lon="13.362079451794967"><ele>308.0</ele><time>2026-04-22T16:14:48.999Z</time></trkpt><trkpt lat="46.17086445776018" lon="13.361980237077866"><ele>310.0</ele><time>2026-04-22T16:14:49.999Z</time></trkpt><trkpt lat="46.170992760228586" lon="13.36193474799929"><ele>312.0</ele><time>2026-04-22T16:14:50.999Z</time></trkpt><trkpt lat="46.17113695712497" lon="13.361860597278996"><ele>312.0</ele><time>2026-04-22T16:14:51.999Z</time></trkpt><trkpt lat="46.17126674476786" lon="13.361813030274488"><ele>312.0</ele><time>2026-04-22T16:14:52.999Z</time></trkpt><trkpt lat="46.171381542517594" lon="13.36176772948887"><ele>312.0</ele><time>2026-04-22T16:14:53.999Z</time></trkpt><trkpt lat="46.17149725280941" lon="13.361734857719417"><ele>312.0</ele><time>2026-04-22T16:14:54.999Z</time></trkpt><trkpt lat="46.17163319057754" lon="13.361743951523849"><ele>316.6666666666667</ele><time>2026-04-22T16:14:55.999Z</time></trkpt><trkpt lat="46.17177808965352" lon="13.361776603653164"><ele>321.33333333333337</ele><time>2026-04-22T16:14:56.999Z</time></trkpt><trkpt lat="46.17193976448352" lon="13.36178462373727"><ele>326.0</ele><time>2026-04-22T16:14:57.999Z</time></trkpt><trkpt lat="46.172122779536075" lon="13.361770937717726"><ele>326.0</ele><time>2026-04-22T16:14:58.999Z</time></trkpt><trkpt lat="46.17230695093346" lon="13.361785009493984"><ele>326.0</ele><time>2026-04-22T16:14:59.999Z</time></trkpt><trkpt lat="46.172479651072884" lon="13.36179836876648"><ele>326.0</ele><time>2026-04-22T16:15:00.999Z</time></trkpt><trkpt lat="46.17265486630655" lon="13.361804787853885"><ele>329.6666666666667</ele><time>2026-04-22T16:15:02Z</time></trkpt><trkpt lat="46.17282603614519" lon="13.361815953870822"><ele>333.3333333333333</ele><time>2026-04-22T16:15:03Z</time></trkpt><trkpt lat="46.17298029739953" lon="13.361818545396853"><ele>337.0</ele><time>2026-04-22T16:15:04Z</time></trkpt><trkpt lat="46.17314170764371" lon="13.361797059500496"><ele>340.0</ele><time>2026-04-22T16:15:05Z</time></trkpt><trkpt lat="46.17330172861343" lon="13.361754413178629"><ele>343.0</ele><time>2026-04-22T16:15:06Z</time></trkpt><trkpt lat="46.17346529490273" lon="13.36167893126659"><ele>346.0</ele><time>2026-04-22T16:15:07Z</time></trkpt><trkpt lat="46.17363899155048" lon="13.361603333814033"><ele>346.0</ele><time>2026-04-22T16:15:08Z</time></trkpt><trkpt lat="46.173804008219705" lon="13.361539018559068"><ele>346.0</ele><time>2026-04-22T16:15:09Z</time></trkpt><trkpt lat="46.17396463296571" lon="13.361493255296226"><ele>346.0</ele><time>2026-04-22T16:15:10Z</time></trkpt><trkpt lat="46.17412561450897" lon="13.36144824443545"><ele>346.75</ele><time>2026-04-22T16:15:11Z</time></trkpt><trkpt lat="46.17427457837989" lon="13.361426128750914"><ele>347.5</ele><time>2026-04-22T16:15:12Z</time></trkpt><trkpt lat="46.17439523237084" lon="13.361436735057799"><ele>348.25</ele><time>2026-04-22T16:15:13Z</time></trkpt><trkpt lat="46.174497133563534" lon="13.36144805190412"><ele>349.0</ele><time>2026-04-22T16:15:14Z</time></trkpt><trkpt lat="46.17457501627614" lon="13.36146411027042"><ele>349.0</ele><time>2026-04-22T16:15:15Z</time></trkpt><trkpt lat="46.17464094972791" lon="13.361509606586143"><ele>349.0</ele><time>2026-04-22T16:15:16Z</time></trkpt><trkpt lat="46.174691541704775" lon="13.361580203302335"><ele>349.0</ele><time>2026-04-22T16:15:17Z</time></trkpt><trkpt lat="46.17470136942034" lon="13.361702152342701"><ele>349.0</ele><time>2026-04-22T16:15:18Z</time></trkpt><trkpt lat="46.17470385744917" lon="13.361852961084214"><ele>349.0</ele><time>2026-04-22T16:15:19Z</time></trkpt><trkpt lat="46.17466783614742" lon="13.36201981432399"><ele>348.5</ele><time>2026-04-22T16:15:20Z</time></trkpt><trkpt lat="46.17464589259525" lon="13.362208608319742"><ele>348.0</ele><time>2026-04-22T16:15:21Z</time></trkpt><trkpt lat="46.17461870867342" lon="13.362371971966116"><ele>347.5</ele><time>2026-04-22T16:15:22Z</time></trkpt><trkpt lat="46.17457243517789" lon="13.362546277347144"><ele>347.0</ele><time>2026-04-22T16:15:23Z</time></trkpt><trkpt lat="46.174548219890816" lon="13.362748359288092"><ele>347.0</ele><time>2026-04-22T16:15:24Z</time></trkpt><trkpt lat="46.17447984167857" lon="13.362946781425894"><ele>347.0</ele><time>2026-04-22T16:15:25Z</time></trkpt><trkpt lat="46.174397075144824" lon="13.363131618175991"><ele>347.0</ele><time>2026-04-22T16:15:26Z</time></trkpt><trkpt lat="46.17428169437494" lon="13.363306152306873"><ele>349.0</ele><time>2026-04-22T16:15:27Z</time></trkpt><trkpt lat="46.174188411842955" lon="13.363471303758885"><ele>351.0</ele><time>2026-04-22T16:15:28Z</time></trkpt><trkpt lat="46.17412265558177" lon="13.363615927450713"><ele>353.0</ele><time>2026-04-22T16:15:29Z</time></trkpt><trkpt lat="46.174057525198194" lon="13.363718500420026"><ele>355.0</ele><time>2026-04-22T16:15:30Z</time></trkpt><trkpt lat="46.17400563237132" lon="13.363819039878607"><ele>353.2</ele><time>2026-04-22T16:15:31Z</time></trkpt><trkpt lat="46.17397104410397" lon="13.363917214055443"><ele>351.4</ele><time>2026-04-22T16:15:32Z</time></trkpt><trkpt lat="46.173972564253326" lon="13.364016131464297"><ele>349.6</ele><time>2026-04-22T16:15:33Z</time></trkpt><trkpt lat="46.17401790135633" lon="13.36411299115944"><ele>347.8</ele><time>2026-04-22T16:15:34Z</time></trkpt><trkpt lat="46.174108769761006" lon="13.364200875641968"><ele>346.0</ele><time>2026-04-22T16:15:35Z</time></trkpt><trkpt lat="46.17422650061449" lon="13.364332812855016"><ele>350.16666666666663</ele><time>2026-04-22T16:15:36Z</time></trkpt><trkpt lat="46.17432608197079" lon="13.364432721614197"><ele>354.3333333333333</ele><time>2026-04-22T16:15:37Z</time></trkpt><trkpt lat="46.17438209224647" lon="13.364520081639823"><ele>358.5</ele><time>2026-04-22T16:15:38Z</time></trkpt><trkpt lat="46.174412039382574" lon="13.364618595597834"><ele>362.6666666666667</ele><time>2026-04-22T16:15:39Z</time></trkpt><trkpt lat="46.17442199749341" lon="13.36471389323087"><ele>366.83333333333337</ele><time>2026-04-22T16:15:40Z</time></trkpt><trkpt lat="46.17438666985522" lon="13.3648127251378"><ele>371.0</ele><time>2026-04-22T16:15:41Z</time></trkpt><trkpt lat="46.17432027727945" lon="13.364879867773444"><ele>370.4</ele><time>2026-04-22T16:15:42Z</time></trkpt><trkpt lat="46.17422719186207" lon="13.364869593329198"><ele>369.8</ele><time>2026-04-22T16:15:43Z</time></trkpt><trkpt lat="46.174124843803575" lon="13.364805174045713"><ele>369.2</ele><time>2026-04-22T16:15:44Z</time></trkpt><trkpt lat="46.174039422563474" lon="13.364762936145837"><ele>368.59999999999997</ele><time>2026-04-22T16:15:45Z</time></trkpt><trkpt lat="46.17396252705485" lon="13.364765239842596"><ele>368.0</ele><time>2026-04-22T16:15:46Z</time></trkpt><trkpt lat="46.17387734463441" lon="13.36481818407027"><ele>368.0</ele><time>2026-04-22T16:15:47Z</time></trkpt><trkpt lat="46.17379072176331" lon="13.3649187092006"><ele>368.0</ele><time>2026-04-22T16:15:48Z</time></trkpt><trkpt lat="46.17369298290375" lon="13.365020355435348"><ele>368.0</ele><time>2026-04-22T16:15:49Z</time></trkpt><trkpt lat="46.173575770555125" lon="13.365131320989814"><ele>368.0</ele><time>2026-04-22T16:15:50Z</time></trkpt><trkpt lat="46.173487495385444" lon="13.36530422387771"><ele>368.0</ele><time>2026-04-22T16:15:51Z</time></trkpt><trkpt lat="46.17338154464491" lon="13.365421527978025"><ele>368.0</ele><time>2026-04-22T16:15:52Z</time></trkpt><trkpt lat="46.173272283353214" lon="13.3655019839722"><ele>368.0</ele><time>2026-04-22T16:15:53Z</time></trkpt><trkpt lat="46.173180521357104" lon="13.365556817152623"><ele>368.0</ele><time>2026-04-22T16:15:54Z</time></trkpt><trkpt lat="46.173111149316576" lon="13.365616689048112"><ele>368.0</ele><time>2026-04-22T16:15:55Z</time></trkpt><trkpt lat="46.17306857395152" lon="13.365690205232704"><ele>368.0</ele><time>2026-04-22T16:15:56Z</time></trkpt><trkpt lat="46.17306204030245" lon="13.36579109321658"><ele>368.0</ele><time>2026-04-22T16:15:57Z</time></trkpt><trkpt lat="46.17310189711674" lon="13.365881358547137"><ele>368.0</ele><time>2026-04-22T16:15:58Z</time></trkpt><trkpt lat="46.173189970018825" lon="13.365924979110394"><ele>368.0</ele><time>2026-04-22T16:15:59Z</time></trkpt><trkpt lat="46.173287527045126" lon="13.36592506006117"><ele>368.0</ele><time>2026-04-22T16:16:00Z</time></trkpt><trkpt lat="46.17336096963758" lon="13.365948888412126"><ele>368.0</ele><time>2026-04-22T16:16:01Z</time></trkpt><trkpt lat="46.173415619914266" lon="13.366024621124717"><ele>371.4</ele><time>2026-04-22T16:16:02Z</time></trkpt><trkpt lat="46.173443469170465" lon="13.366135916182358"><ele>374.79999999999995</ele><time>2026-04-22T16:16:03Z</time></trkpt><trkpt lat="46.173435835379614" lon="13.366279001439905"><ele>378.2</ele><time>2026-04-22T16:16:04Z</time></trkpt><trkpt lat="46.173397165928336" lon="13.366391179782978"><ele>381.6</ele><time>2026-04-22T16:16:05Z</time></trkpt><trkpt lat="46.173338197310926" lon="13.36650365925584"><ele>385.0</ele><time>2026-04-22T16:16:06Z</time></trkpt><trkpt lat="46.1732769084418" lon="13.366642843667549"><ele>388.0</ele><time>2026-04-22T16:16:07Z</time></trkpt><trkpt lat="46.1732097713516" lon="13.366810221709317"><ele>391.0</ele><time>2026-04-22T16:16:08Z</time></trkpt><trkpt lat="46.173156183700016" lon="13.366969521488361"><ele>394.0</ele><time>2026-04-22T16:16:09Z</time></trkpt><trkpt lat="46.17311166901131" lon="13.367151574048002"><ele>397.0</ele><time>2026-04-22T16:16:10Z</time></trkpt><trkpt lat="46.17308452341292" lon="13.367356795614436"><ele>385.33333333333337</ele><time>2026-04-22T16:16:11Z</time></trkpt><trkpt lat="46.17306087439289" lon="13.36758624786131"><ele>373.6666666666667</ele><time>2026-04-22T16:16:12Z</time></trkpt><trkpt lat="46.17303133999517" lon="13.36782433838089"><ele>362.0</ele><time>2026-04-22T16:16:13Z</time></trkpt><trkpt lat="46.17300298926029" lon="13.368033312110366"><ele>362.0</ele><time>2026-04-22T16:16:14Z</time></trkpt><trkpt lat="46.17298384694422" lon="13.36822204152381"><ele>362.0</ele><time>2026-04-22T16:16:14.999Z</time></trkpt><trkpt lat="46.17298061861172" lon="13.368396722889802"><ele>362.0</ele><time>2026-04-22T16:16:15.999Z</time></trkpt><trkpt lat="46.172993941178554" lon="13.368548420462778"><ele>362.0</ele><time>2026-04-22T16:16:16.999Z</time></trkpt><trkpt lat="46.173027448875764" lon="13.368688717935918"><ele>362.0</ele><time>2026-04-22T16:16:17.999Z</time></trkpt><trkpt lat="46.17308323791022" lon="13.368804362450133"><ele>362.0</ele><time>2026-04-22T16:16:18.999Z</time></trkpt><trkpt lat="46.17316000284581" lon="13.368881802203457"><ele>362.0</ele><time>2026-04-22T16:16:19.999Z</time></trkpt><trkpt lat="46.17324370335176" lon="13.368936540821068"><ele>362.0</ele><time>2026-04-22T16:16:20.999Z</time></trkpt><trkpt lat="46.17331651193698" lon="13.369010399249975"><ele>362.0</ele><time>2026-04-22T16:16:21.999Z</time></trkpt><trkpt lat="46.17339932526079" lon="13.369064911669296"><ele>370.40000000000003</ele><time>2026-04-22T16:16:22.999Z</time></trkpt><trkpt lat="46.173486002747474" lon="13.36909498156552"><ele>378.8</ele><time>2026-04-22T16:16:23.999Z</time></trkpt><trkpt lat="46.17359032664853" lon="13.369122780156355"><ele>387.2</ele><time>2026-04-22T16:16:24.999Z</time></trkpt><trkpt lat="46.17370750574231" lon="13.369181812343337"><ele>395.6</ele><time>2026-04-22T16:16:25.999Z</time></trkpt><trkpt lat="46.17381151377679" lon="13.369199594743495"><ele>404.0</ele><time>2026-04-22T16:16:26.999Z</time></trkpt><trkpt lat="46.17391810432838" lon="13.369233547034147"><ele>404.0</ele><time>2026-04-22T16:16:27.999Z</time></trkpt><trkpt lat="46.17402142540888" lon="13.36926620249511"><ele>404.0</ele><time>2026-04-22T16:16:28.999Z</time></trkpt><trkpt lat="46.17410668639602" lon="13.369302517812924"><ele>404.0</ele><time>2026-04-22T16:16:29.999Z</time></trkpt><trkpt lat="46.17417674191277" lon="13.369381666823395"><ele>404.0</ele><time>2026-04-22T16:16:30.999Z</time></trkpt><trkpt lat="46.17423357283344" lon="13.369504402385862"><ele>404.0</ele><time>2026-04-22T16:16:31.999Z</time></trkpt><trkpt lat="46.174291707579016" lon="13.369640743933743"><ele>406.0</ele><time>2026-04-22T16:16:32.999Z</time></trkpt><trkpt lat="46.17434388498285" lon="13.36976999897781"><ele>408.0</ele><time>2026-04-22T16:16:33.999Z</time></trkpt><trkpt lat="46.17439264874473" lon="13.369894971914494"><ele>410.0</ele><time>2026-04-22T16:16:34.999Z</time></trkpt><trkpt lat="46.174437309957504" lon="13.370017768131698"><ele>412.0</ele><time>2026-04-22T16:16:35.999Z</time></trkpt><trkpt lat="46.174463763584654" lon="13.370135921760117"><ele>414.0</ele><time>2026-04-22T16:16:36.999Z</time></trkpt><trkpt lat="46.17446784884467" lon="13.370252502982298"><ele>414.0</ele><time>2026-04-22T16:16:37.999Z</time></trkpt><trkpt lat="46.17445228698441" lon="13.370368800708109"><ele>414.0</ele><time>2026-04-22T16:16:38.999Z</time></trkpt><trkpt lat="46.174432910768545" lon="13.370484447970378"><ele>414.0</ele><time>2026-04-22T16:16:39.999Z</time></trkpt><trkpt lat="46.17443707826159" lon="13.370595842198675"><ele>414.0</ele><time>2026-04-22T16:16:40.999Z</time></trkpt><trkpt lat="46.17446558398594" lon="13.370699107234014"><ele>414.0</ele><time>2026-04-22T16:16:41.999Z</time></trkpt><trkpt lat="46.17450924719337" lon="13.370842998040501"><ele>414.0</ele><time>2026-04-22T16:16:43.999Z</time></trkpt><trkpt lat="46.17454842991032" lon="13.370997169894254"><ele>413.79999999999995</ele><time>2026-04-22T16:16:45.999Z</time></trkpt><trkpt lat="46.17460594527291" lon="13.371145037982924"><ele>413.59999999999997</ele><time>2026-04-22T16:16:47.999Z</time></trkpt><trkpt lat="46.17465866914194" lon="13.371200023710403"><ele>413.4</ele><time>2026-04-22T16:16:48.999Z</time></trkpt><trkpt lat="46.17473430432668" lon="13.371278843783186"><ele>413.2</ele><time>2026-04-22T16:16:50.999Z</time></trkpt><trkpt lat="46.17480222776266" lon="13.371390314028046"><ele>413.0</ele><time>2026-04-22T16:16:52.999Z</time></trkpt><trkpt lat="46.174791972614926" lon="13.371564910394843"><ele>413.0</ele><time>2026-04-22T16:16:54.999Z</time></trkpt><trkpt lat="46.17477231533321" lon="13.371667759935233"><ele>413.0</ele><time>2026-04-22T16:16:55.999Z</time></trkpt><trkpt lat="46.17474733880069" lon="13.371787873107872"><ele>413.0</ele><time>2026-04-22T16:16:56.999Z</time></trkpt><trkpt lat="46.17470139733442" lon="13.37191344311659"><ele>413.0</ele><time>2026-04-22T16:16:57.999Z</time></trkpt><trkpt lat="46.174639576615505" lon="13.372037927279273"><ele>413.0</ele><time>2026-04-22T16:16:58.999Z</time></trkpt><trkpt lat="46.17457395803276" lon="13.372142003106745"><ele>414.4</ele><time>2026-04-22T16:16:59.999Z</time></trkpt><trkpt lat="46.17453050231571" lon="13.372253624460049"><ele>415.79999999999995</ele><time>2026-04-22T16:17:00.999Z</time></trkpt><trkpt lat="46.174512897624126" lon="13.372383065958884"><ele>417.2</ele><time>2026-04-22T16:17:01.999Z</time></trkpt><trkpt lat="46.174525635340885" lon="13.372537114907177"><ele>418.6</ele><time>2026-04-22T16:17:02.999Z</time></trkpt><trkpt lat="46.17455324169104" lon="13.372714396204048"><ele>420.0</ele><time>2026-04-22T16:17:03.999Z</time></trkpt><trkpt lat="46.17458623941066" lon="13.372880758706206"><ele>420.5</ele><time>2026-04-22T16:17:04.999Z</time></trkpt><trkpt lat="46.17461371855678" lon="13.373038042139841"><ele>421.0</ele><time>2026-04-22T16:17:05.999Z</time></trkpt><trkpt lat="46.17464379396372" lon="13.373152860383012"><ele>421.5</ele><time>2026-04-22T16:17:06.999Z</time></trkpt><trkpt lat="46.174658715837104" lon="13.373258330532035"><ele>422.0</ele><time>2026-04-22T16:17:08Z</time></trkpt><trkpt lat="46.17462324013241" lon="13.37337592609365"><ele>422.5</ele><time>2026-04-22T16:17:09Z</time></trkpt><trkpt lat="46.17456697897074" lon="13.373463555526207"><ele>423.0</ele><time>2026-04-22T16:17:10Z</time></trkpt><trkpt lat="46.1745233406918" lon="13.373554625804134"><ele>423.0</ele><time>2026-04-22T16:17:11Z</time></trkpt><trkpt lat="46.17450079577761" lon="13.37366770979539"><ele>423.0</ele><time>2026-04-22T16:17:12Z</time></trkpt><trkpt lat="46.17449856261047" lon="13.37379836104641"><ele>423.0</ele><time>2026-04-22T16:17:13Z</time></trkpt><trkpt lat="46.1745144457033" lon="13.37392342219152"><ele>423.0</ele><time>2026-04-22T16:17:14Z</time></trkpt><trkpt lat="46.174549004485" lon="13.374033782820614"><ele>423.0</ele><time>2026-04-22T16:17:15Z</time></trkpt><trkpt lat="46.17458924299777" lon="13.374148867377027"><ele>423.0</ele><time>2026-04-22T16:17:16Z</time></trkpt><trkpt lat="46.17462267817505" lon="13.37425731148857"><ele>424.3333333333333</ele><time>2026-04-22T16:17:17Z</time></trkpt><trkpt lat="46.17464452060556" lon="13.374343887425063"><ele>425.66666666666663</ele><time>2026-04-22T16:17:18Z</time></trkpt><trkpt lat="46.17464314035889" lon="13.374440079349739"><ele>427.0</ele><time>2026-04-22T16:17:19Z</time></trkpt><trkpt lat="46.17464547904403" lon="13.37453328068919"><ele>428.3333333333333</ele><time>2026-04-22T16:17:20Z</time></trkpt><trkpt lat="46.17465927131187" lon="13.374710210604304"><ele>429.66666666666663</ele><time>2026-04-22T16:17:22Z</time></trkpt><trkpt lat="46.17467087214119" lon="13.374805750376595"><ele>431.0</ele><time>2026-04-22T16:17:23Z</time></trkpt><trkpt lat="46.17470882561286" lon="13.374891358586174"><ele>430.99999999999994</ele><time>2026-04-22T16:17:24Z</time></trkpt><trkpt lat="46.17476313366919" lon="13.374952198669511"><ele>431.0</ele><time>2026-04-22T16:17:25Z</time></trkpt><trkpt lat="46.174848921070975" lon="13.37492697762767"><ele>431.0</ele><time>2026-04-22T16:17:26Z</time></trkpt><trkpt lat="46.17494064922014" lon="13.374923132957756"><ele>431.0</ele><time>2026-04-22T16:17:27Z</time></trkpt><trkpt lat="46.175020696190856" lon="13.374894451423295"><ele>430.99999999999994</ele><time>2026-04-22T16:17:28Z</time></trkpt><trkpt lat="46.175126970648925" lon="13.374969348833083"><ele>431.0</ele><time>2026-04-22T16:17:30Z</time></trkpt><trkpt lat="46.175191791196596" lon="13.374993572154922"><ele>435.4</ele><time>2026-04-22T16:17:31Z</time></trkpt><trkpt lat="46.17533604251524" lon="13.374952070334631"><ele>439.8</ele><time>2026-04-22T16:17:33Z</time></trkpt><trkpt lat="46.17542200808277" lon="13.374887832305394"><ele>444.19999999999993</ele><time>2026-04-22T16:17:34Z</time></trkpt><trkpt lat="46.175494113395565" lon="13.374838807226784"><ele>448.59999999999997</ele><time>2026-04-22T16:17:35Z</time></trkpt><trkpt lat="46.17557026414723" lon="13.374870147526348"><ele>453.0</ele><time>2026-04-22T16:17:36Z</time></trkpt><trkpt lat="46.17564830013371" lon="13.374934767087451"><ele>456.2</ele><time>2026-04-22T16:17:37Z</time></trkpt><trkpt lat="46.17574425497975" lon="13.374992002084095"><ele>459.4</ele><time>2026-04-22T16:17:38Z</time></trkpt><trkpt lat="46.175858959243556" lon="13.375023817683982"><ele>462.59999999999997</ele><time>2026-04-22T16:17:39Z</time></trkpt><trkpt lat="46.17596373244621" lon="13.375010064948784"><ele>465.79999999999995</ele><time>2026-04-22T16:17:40Z</time></trkpt><trkpt lat="46.17606285256785" lon="13.375019239843606"><ele>469.0</ele><time>2026-04-22T16:17:41Z</time></trkpt><trkpt lat="46.17614901976186" lon="13.374998745485772"><ele>469.00000000000006</ele><time>2026-04-22T16:17:42Z</time></trkpt><trkpt lat="46.176219893492835" lon="13.375030548833097"><ele>469.0</ele><time>2026-04-22T16:17:43Z</time></trkpt><trkpt lat="46.176274114853065" lon="13.375115456821613"><ele>469.0</ele><time>2026-04-22T16:17:44Z</time></trkpt><trkpt lat="46.176339376236086" lon="13.375186407028417"><ele>469.0</ele><time>2026-04-22T16:17:45Z</time></trkpt><trkpt lat="46.17640785373052" lon="13.375268564545241"><ele>469.00000000000006</ele><time>2026-04-22T16:17:46Z</time></trkpt><trkpt lat="46.17647840681842" lon="13.375367543014098"><ele>469.0</ele><time>2026-04-22T16:17:47Z</time></trkpt><trkpt lat="46.17655327946148" lon="13.37547192956015"><ele>469.2857142857143</ele><time>2026-04-22T16:17:48Z</time></trkpt><trkpt lat="46.17660076245558" lon="13.37556015558587"><ele>469.57142857142856</ele><time>2026-04-22T16:17:49Z</time></trkpt><trkpt lat="46.17663564698019" lon="13.375650401255305"><ele>469.8571428571429</ele><time>2026-04-22T16:17:50Z</time></trkpt><trkpt lat="46.1766605198498" lon="13.375754334180497"><ele>470.14285714285717</ele><time>2026-04-22T16:17:51Z</time></trkpt><trkpt lat="46.176629188049276" lon="13.375870303759307"><ele>470.42857142857144</ele><time>2026-04-22T16:17:52Z</time></trkpt><trkpt lat="46.17660324120517" lon="13.37596483015788"><ele>470.7142857142858</ele><time>2026-04-22T16:17:53Z</time></trkpt><trkpt lat="46.1766067921803" lon="13.37606051040844"><ele>471.00000000000006</ele><time>2026-04-22T16:17:54Z</time></trkpt><trkpt lat="46.17665903645484" lon="13.376155486243663"><ele>471.0</ele><time>2026-04-22T16:17:55Z</time></trkpt><trkpt lat="46.17674610945717" lon="13.376250692948416"><ele>471.0</ele><time>2026-04-22T16:17:56Z</time></trkpt><trkpt lat="46.17683042565983" lon="13.376356415477545"><ele>471.0</ele><time>2026-04-22T16:17:57Z</time></trkpt><trkpt lat="46.17688921506307" lon="13.376464510005462"><ele>471.0</ele><time>2026-04-22T16:17:58Z</time></trkpt><trkpt lat="46.176931856846394" lon="13.376595452233236"><ele>471.0</ele><time>2026-04-22T16:17:59Z</time></trkpt><trkpt lat="46.17697445409688" lon="13.37672929450318"><ele>471.5</ele><time>2026-04-22T16:18:00Z</time></trkpt><trkpt lat="46.17705890173715" lon="13.376844610518992"><ele>472.0</ele><time>2026-04-22T16:18:01Z</time></trkpt><trkpt lat="46.177163427152514" lon="13.376941337529788"><ele>472.5</ele><time>2026-04-22T16:18:02Z</time></trkpt><trkpt lat="46.17726690866931" lon="13.377021186458432"><ele>473.0</ele><time>2026-04-22T16:18:03Z</time></trkpt><trkpt lat="46.17737970054573" lon="13.377090646464081"><ele>479.2</ele><time>2026-04-22T16:18:04Z</time></trkpt><trkpt lat="46.177481091331536" lon="13.377140414693029"><ele>485.4</ele><time>2026-04-22T16:18:05Z</time></trkpt><trkpt lat="46.17756485184398" lon="13.37717655268403"><ele>491.59999999999997</ele><time>2026-04-22T16:18:06Z</time></trkpt><trkpt lat="46.17763305306705" lon="13.377211717167334"><ele>497.79999999999995</ele><time>2026-04-22T16:18:07Z</time></trkpt><trkpt lat="46.17768918023731" lon="13.37726525766126"><ele>504.0</ele><time>2026-04-22T16:18:08Z</time></trkpt><trkpt lat="46.17773307673945" lon="13.377421096708035"><ele>504.0</ele><time>2026-04-22T16:18:10Z</time></trkpt><trkpt lat="46.17767441885522" lon="13.377502810827842"><ele>504.0</ele><time>2026-04-22T16:18:11Z</time></trkpt><trkpt lat="46.1775892446044" lon="13.377643228561492"><ele>504.0</ele><time>2026-04-22T16:18:12Z</time></trkpt><trkpt lat="46.177487487781704" lon="13.377735054812636"><ele>504.0</ele><time>2026-04-22T16:18:13Z</time></trkpt><trkpt lat="46.17739000030296" lon="13.377790961873435"><ele>504.0</ele><time>2026-04-22T16:18:14Z</time></trkpt><trkpt lat="46.177263435228035" lon="13.377818842677982"><ele>499.0</ele><time>2026-04-22T16:18:15Z</time></trkpt><trkpt lat="46.177130056205776" lon="13.377825018492539"><ele>494.0</ele><time>2026-04-22T16:18:16Z</time></trkpt><trkpt lat="46.17700135448451" lon="13.377845870211658"><ele>489.0</ele><time>2026-04-22T16:18:17Z</time></trkpt><trkpt lat="46.17690662493816" lon="13.377890038933261"><ele>484.0</ele><time>2026-04-22T16:18:18Z</time></trkpt><trkpt lat="46.17682176725831" lon="13.37792972647296"><ele>484.0</ele><time>2026-04-22T16:18:19Z</time></trkpt><trkpt lat="46.17674151280107" lon="13.378009511843382"><ele>484.0</ele><time>2026-04-22T16:18:20Z</time></trkpt><trkpt lat="46.17667607031265" lon="13.378142258623434"><ele>484.0</ele><time>2026-04-22T16:18:21Z</time></trkpt><trkpt lat="46.17661400380395" lon="13.378297593573166"><ele>484.0</ele><time>2026-04-22T16:18:22Z</time></trkpt><trkpt lat="46.17655337313443" lon="13.378423424292777"><ele>484.0</ele><time>2026-04-22T16:18:22.999Z</time></trkpt><trkpt lat="46.1765181226222" lon="13.378533329282613"><ele>484.4</ele><time>2026-04-22T16:18:23.999Z</time></trkpt><trkpt lat="46.176465271230335" lon="13.378611925772464"><ele>484.79999999999995</ele><time>2026-04-22T16:18:24.999Z</time></trkpt><trkpt lat="46.17637536455235" lon="13.378597996022757"><ele>485.20000000000005</ele><time>2026-04-22T16:18:25.999Z</time></trkpt><trkpt lat="46.17626707919416" lon="13.378618222839863"><ele>485.6</ele><time>2026-04-22T16:18:26.999Z</time></trkpt><trkpt lat="46.17615087598064" lon="13.378688628221662"><ele>486.0</ele><time>2026-04-22T16:18:27.999Z</time></trkpt><trkpt lat="46.176055179547" lon="13.378778886294254"><ele>490.20000000000005</ele><time>2026-04-22T16:18:28.999Z</time></trkpt><trkpt lat="46.175968490234865" lon="13.378890903539542"><ele>494.40000000000003</ele><time>2026-04-22T16:18:29.999Z</time></trkpt><trkpt lat="46.175902041995265" lon="13.379003198436958"><ele>498.6</ele><time>2026-04-22T16:18:30.999Z</time></trkpt><trkpt lat="46.17586127172139" lon="13.379128320559929"><ele>502.8</ele><time>2026-04-22T16:18:31.999Z</time></trkpt><trkpt lat="46.17584189759008" lon="13.379285901493821"><ele>507.0</ele><time>2026-04-22T16:18:32.999Z</time></trkpt><trkpt lat="46.17583612844855" lon="13.379470048231047"><ele>507.0</ele><time>2026-04-22T16:18:33.999Z</time></trkpt><trkpt lat="46.17583915941703" lon="13.379668617572023"><ele>507.0</ele><time>2026-04-22T16:18:34.999Z</time></trkpt><trkpt lat="46.175839974762525" lon="13.379864307888093"><ele>507.0</ele><time>2026-04-22T16:18:35.999Z</time></trkpt><trkpt lat="46.175820649639974" lon="13.380022927086879"><ele>507.0</ele><time>2026-04-22T16:18:36.999Z</time></trkpt><trkpt lat="46.17579204216059" lon="13.380145188049868"><ele>505.5</ele><time>2026-04-22T16:18:37.999Z</time></trkpt><trkpt lat="46.17573780245602" lon="13.380238860856583"><ele>504.0</ele><time>2026-04-22T16:18:38.999Z</time></trkpt><trkpt lat="46.175656289611204" lon="13.380288990528935"><ele>502.5</ele><time>2026-04-22T16:18:39.999Z</time></trkpt><trkpt lat="46.175569355522676" lon="13.380304708552305"><ele>501.0</ele><time>2026-04-22T16:18:40.999Z</time></trkpt><trkpt lat="46.17550867828464" lon="13.380413695893242"><ele>499.5</ele><time>2026-04-22T16:18:42.999Z</time></trkpt><trkpt lat="46.17554927991296" lon="13.380521737567001"><ele>498.0</ele><time>2026-04-22T16:18:44.999Z</time></trkpt><trkpt lat="46.17564801908416" lon="13.380564155279636"><ele>501.79999999999995</ele><time>2026-04-22T16:18:45.999Z</time></trkpt><trkpt lat="46.17574150237543" lon="13.380449071572762"><ele>505.59999999999997</ele><time>2026-04-22T16:18:46.999Z</time></trkpt><trkpt lat="46.17582846651115" lon="13.380391279985714"><ele>509.40000000000003</ele><time>2026-04-22T16:18:47.999Z</time></trkpt><trkpt lat="46.17591585113774" lon="13.380334465852847"><ele>513.2</ele><time>2026-04-22T16:18:48.999Z</time></trkpt><trkpt lat="46.1759853813547" lon="13.380182066587887"><ele>517.0</ele><time>2026-04-22T16:18:49.999Z</time></trkpt><trkpt lat="46.17604707568139" lon="13.380006155838954"><ele>517.0</ele><time>2026-04-22T16:18:50.999Z</time></trkpt><trkpt lat="46.17611048877855" lon="13.379839618748177"><ele>517.0</ele><time>2026-04-22T16:18:51.999Z</time></trkpt><trkpt lat="46.17616458896864" lon="13.379717628877884"><ele>517.0</ele><time>2026-04-22T16:18:52.999Z</time></trkpt><trkpt lat="46.176218951948044" lon="13.379610688472738"><ele>517.0</ele><time>2026-04-22T16:18:53.999Z</time></trkpt><trkpt lat="46.17629532708075" lon="13.37951942064197"><ele>517.0</ele><time>2026-04-22T16:18:54.999Z</time></trkpt><trkpt lat="46.17639386617912" lon="13.379504358236481"><ele>515.0</ele><time>2026-04-22T16:18:55.999Z</time></trkpt><trkpt lat="46.17649755801278" lon="13.379501855242914"><ele>513.0</ele><time>2026-04-22T16:18:56.999Z</time></trkpt><trkpt lat="46.176610324817986" lon="13.379518343756118"><ele>511.00000000000006</ele><time>2026-04-22T16:18:57.999Z</time></trkpt><trkpt lat="46.17671146823094" lon="13.379562579983263"><ele>509.0</ele><time>2026-04-22T16:18:58.999Z</time></trkpt><trkpt lat="46.176810611271826" lon="13.379538473580798"><ele>507.0</ele><time>2026-04-22T16:18:59.999Z</time></trkpt><trkpt lat="46.1768888873573" lon="13.379422265496222"><ele>507.40000000000003</ele><time>2026-04-22T16:19:00.999Z</time></trkpt><trkpt lat="46.17695411506292" lon="13.379285932820782"><ele>507.80000000000007</ele><time>2026-04-22T16:19:01.999Z</time></trkpt><trkpt lat="46.177034466758" lon="13.379150848337893"><ele>508.2</ele><time>2026-04-22T16:19:02.999Z</time></trkpt><trkpt lat="46.17708272166774" lon="13.379033733928297"><ele>508.6</ele><time>2026-04-22T16:19:03.999Z</time></trkpt><trkpt lat="46.17713532522423" lon="13.37893598516305"><ele>509.0</ele><time>2026-04-22T16:19:04.999Z</time></trkpt><trkpt lat="46.177169608405634" lon="13.378850093305516"><ele>509.0</ele><time>2026-04-22T16:19:05.999Z</time></trkpt><trkpt lat="46.177228327257104" lon="13.37874713486022"><ele>509.0</ele><time>2026-04-22T16:19:07.999Z</time></trkpt><trkpt lat="46.177298774013366" lon="13.378830493443427"><ele>509.0</ele><time>2026-04-22T16:19:09.999Z</time></trkpt><trkpt lat="46.17724762412474" lon="13.378914166839879"><ele>509.0</ele><time>2026-04-22T16:19:10.999Z</time></trkpt><trkpt lat="46.17719913847837" lon="13.379044464217245"><ele>509.0</ele><time>2026-04-22T16:19:11.999Z</time></trkpt><trkpt lat="46.17715965711742" lon="13.379213832538978"><ele>513.75</ele><time>2026-04-22T16:19:12.999Z</time></trkpt><trkpt lat="46.17712114722254" lon="13.37939345510073"><ele>518.5</ele><time>2026-04-22T16:19:14Z</time></trkpt><trkpt lat="46.177087288587984" lon="13.379557370884472"><ele>523.25</ele><time>2026-04-22T16:19:15Z</time></trkpt><trkpt lat="46.17704268703955" lon="13.37974225457976"><ele>528.0</ele><time>2026-04-22T16:19:16Z</time></trkpt><trkpt lat="46.17700027325483" lon="13.379939825021"><ele>532.25</ele><time>2026-04-22T16:19:17Z</time></trkpt><trkpt lat="46.17695886061986" lon="13.380113006434087"><ele>536.5</ele><time>2026-04-22T16:19:18Z</time></trkpt><trkpt lat="46.17688040918737" lon="13.380231572376573"><ele>540.75</ele><time>2026-04-22T16:19:19Z</time></trkpt><trkpt lat="46.17678872217942" lon="13.380369707610173"><ele>545.0</ele><time>2026-04-22T16:19:20Z</time></trkpt><trkpt lat="46.17670451917552" lon="13.380474733814927"><ele>546.2</ele><time>2026-04-22T16:19:21Z</time></trkpt><trkpt lat="46.17664690177277" lon="13.380565113200877"><ele>547.4</ele><time>2026-04-22T16:19:22Z</time></trkpt><trkpt lat="46.17660206760153" lon="13.380655090266703"><ele>548.6</ele><time>2026-04-22T16:19:23Z</time></trkpt><trkpt lat="46.176583949023914" lon="13.380771281181445"><ele>549.8</ele><time>2026-04-22T16:19:24Z</time></trkpt><trkpt lat="46.17660755600032" lon="13.380918539581042"><ele>551.0</ele><time>2026-04-22T16:19:25Z</time></trkpt><trkpt lat="46.17666083069039" lon="13.381074699517002"><ele>551.0</ele><time>2026-04-22T16:19:26Z</time></trkpt><trkpt lat="46.176716955732445" lon="13.381235716174384"><ele>551.0</ele><time>2026-04-22T16:19:27Z</time></trkpt><trkpt lat="46.17674261786264" lon="13.381381754257996"><ele>551.0</ele><time>2026-04-22T16:19:28Z</time></trkpt><trkpt lat="46.176742861701406" lon="13.381526992845776"><ele>551.0</ele><time>2026-04-22T16:19:29Z</time></trkpt><trkpt lat="46.176675969573594" lon="13.381642748468956"><ele>551.0</ele><time>2026-04-22T16:19:30Z</time></trkpt><trkpt lat="46.17664059793699" lon="13.38181811468088"><ele>551.4</ele><time>2026-04-22T16:19:31Z</time></trkpt><trkpt lat="46.176623638959185" lon="13.381966608865495"><ele>551.8</ele><time>2026-04-22T16:19:32Z</time></trkpt><trkpt lat="46.176616593302825" lon="13.382111946542292"><ele>552.1999999999999</ele><time>2026-04-22T16:19:33Z</time></trkpt><trkpt lat="46.17662062450648" lon="13.382250030094236"><ele>552.6</ele><time>2026-04-22T16:19:34Z</time></trkpt><trkpt lat="46.176655879487825" lon="13.382381173243653"><ele>553.0</ele><time>2026-04-22T16:19:35Z</time></trkpt><trkpt lat="46.17673091538485" lon="13.382512711093952"><ele>553.75</ele><time>2026-04-22T16:19:36Z</time></trkpt><trkpt lat="46.17682086877949" lon="13.382662523880292"><ele>554.5</ele><time>2026-04-22T16:19:37Z</time></trkpt><trkpt lat="46.176897279815" lon="13.38281499080051"><ele>555.25</ele><time>2026-04-22T16:19:38Z</time></trkpt><trkpt lat="46.17696310712302" lon="13.38298866072938"><ele>556.0</ele><time>2026-04-22T16:19:39Z</time></trkpt><trkpt lat="46.17701560741451" lon="13.383154357102681"><ele>555.2</ele><time>2026-04-22T16:19:40Z</time></trkpt><trkpt lat="46.177039740498294" lon="13.383313055375732"><ele>554.4000000000001</ele><time>2026-04-22T16:19:41Z</time></trkpt><trkpt lat="46.17703865593311" lon="13.383480227055129"><ele>553.6</ele><time>2026-04-22T16:19:42Z</time></trkpt><trkpt lat="46.17701586877531" lon="13.38363281435887"><ele>552.8000000000001</ele><time>2026-04-22T16:19:43Z</time></trkpt><trkpt lat="46.17699793676251" lon="13.383775984173413"><ele>552.0</ele><time>2026-04-22T16:19:44Z</time></trkpt><trkpt lat="46.177005285692616" lon="13.383937805332293"><ele>552.0</ele><time>2026-04-22T16:19:45Z</time></trkpt><trkpt lat="46.17703246622375" lon="13.384075310455083"><ele>552.0</ele><time>2026-04-22T16:19:46Z</time></trkpt><trkpt lat="46.177051781732615" lon="13.384187921734284"><ele>552.0</ele><time>2026-04-22T16:19:47Z</time></trkpt><trkpt lat="46.17706873926952" lon="13.384278771846303"><ele>552.0</ele><time>2026-04-22T16:19:48Z</time></trkpt><trkpt lat="46.1771424655504" lon="13.384384677837572"><ele>552.0</ele><time>2026-04-22T16:19:50Z</time></trkpt><trkpt lat="46.17721523542026" lon="13.38426268492567"><ele>552.0</ele><time>2026-04-22T16:19:52Z</time></trkpt><trkpt lat="46.17718867526404" lon="13.384122252833448"><ele>552.0</ele><time>2026-04-22T16:19:53Z</time></trkpt><trkpt lat="46.177133903950605" lon="13.38399631375869"><ele>552.0</ele><time>2026-04-22T16:19:54Z</time></trkpt><trkpt lat="46.17711943950544" lon="13.383872915448615"><ele>552.0</ele><time>2026-04-22T16:19:55Z</time></trkpt><trkpt lat="46.177151664955545" lon="13.383733703284824"><ele>552.0</ele><time>2026-04-22T16:19:56Z</time></trkpt><trkpt lat="46.17720609006703" lon="13.383571250367957"><ele>551.5</ele><time>2026-04-22T16:19:57Z</time></trkpt><trkpt lat="46.177251033297196" lon="13.383418102602416"><ele>551.0</ele><time>2026-04-22T16:19:58Z</time></trkpt><trkpt lat="46.17728533359599" lon="13.383276722943698"><ele>550.5</ele><time>2026-04-22T16:19:59Z</time></trkpt><trkpt lat="46.177284242603136" lon="13.383118392465546"><ele>550.0</ele><time>2026-04-22T16:20:00Z</time></trkpt><trkpt lat="46.177251281209394" lon="13.38293814606387"><ele>551.2</ele><time>2026-04-22T16:20:01Z</time></trkpt><trkpt lat="46.17720255394276" lon="13.38274017965743"><ele>552.4</ele><time>2026-04-22T16:20:02Z</time></trkpt><trkpt lat="46.17716719199853" lon="13.382583156657688"><ele>553.6</ele><time>2026-04-22T16:20:03Z</time></trkpt><trkpt lat="46.17715086657572" lon="13.382468686593954"><ele>554.8</ele><time>2026-04-22T16:20:04Z</time></trkpt><trkpt lat="46.17715982161826" lon="13.382368825257466"><ele>556.0</ele><time>2026-04-22T16:20:05Z</time></trkpt><trkpt lat="46.177204979230815" lon="13.382252743012142"><ele>555.4</ele><time>2026-04-22T16:20:06Z</time></trkpt><trkpt lat="46.17727677230168" lon="13.382123278230614"><ele>554.8</ele><time>2026-04-22T16:20:07Z</time></trkpt><trkpt lat="46.17733480861158" lon="13.381985600506816"><ele>554.1999999999999</ele><time>2026-04-22T16:20:08Z</time></trkpt><trkpt lat="46.17734998330147" lon="13.381865849326742"><ele>553.6</ele><time>2026-04-22T16:20:09Z</time></trkpt><trkpt lat="46.177317449828415" lon="13.381728528216529"><ele>553.0</ele><time>2026-04-22T16:20:10Z</time></trkpt><trkpt lat="46.17728252641868" lon="13.381594315405708"><ele>553.0</ele><time>2026-04-22T16:20:11Z</time></trkpt><trkpt lat="46.177278282925876" lon="13.381496867637441"><ele>553.0</ele><time>2026-04-22T16:20:12Z</time></trkpt><trkpt lat="46.177305362051264" lon="13.381405524293804"><ele>553.0</ele><time>2026-04-22T16:20:13Z</time></trkpt><trkpt lat="46.177378913588086" lon="13.38134083752225"><ele>553.0</ele><time>2026-04-22T16:20:14Z</time></trkpt><trkpt lat="46.17745131893114" lon="13.381234299177937"><ele>553.0</ele><time>2026-04-22T16:20:15Z</time></trkpt><trkpt lat="46.17753748028183" lon="13.381121778106523"><ele>553.0</ele><time>2026-04-22T16:20:16Z</time></trkpt><trkpt lat="46.17762347493479" lon="13.381005240878766"><ele>560.75</ele><time>2026-04-22T16:20:17Z</time></trkpt><trkpt lat="46.17770588780878" lon="13.380907910801984"><ele>568.5</ele><time>2026-04-22T16:20:18Z</time></trkpt><trkpt lat="46.177792189374685" lon="13.380826896091762"><ele>576.25</ele><time>2026-04-22T16:20:19Z</time></trkpt><trkpt lat="46.17789590008084" lon="13.380744716821374"><ele>584.0</ele><time>2026-04-22T16:20:20Z</time></trkpt><trkpt lat="46.17800311179181" lon="13.380657993807535"><ele>584.0</ele><time>2026-04-22T16:20:21Z</time></trkpt><trkpt lat="46.17810861718596" lon="13.380559558567711"><ele>584.0</ele><time>2026-04-22T16:20:22Z</time></trkpt><trkpt lat="46.17820601673048" lon="13.38044211751014"><ele>584.0</ele><time>2026-04-22T16:20:23Z</time></trkpt><trkpt lat="46.17828140971885" lon="13.380323963073911"><ele>584.0</ele><time>2026-04-22T16:20:24Z</time></trkpt><trkpt lat="46.17834160974184" lon="13.380238487402403"><ele>584.0</ele><time>2026-04-22T16:20:25Z</time></trkpt><trkpt lat="46.17843017020519" lon="13.38020000525305"><ele>584.0</ele><time>2026-04-22T16:20:26.999Z</time></trkpt><trkpt lat="46.17845436909632" lon="13.380325691867972"><ele>584.0</ele><time>2026-04-22T16:20:28.999Z</time></trkpt><trkpt lat="46.178381833554134" lon="13.380365823435138"><ele>584.0</ele><time>2026-04-22T16:20:29.999Z</time></trkpt><trkpt lat="46.17830192670622" lon="13.380457261563159"><ele>584.0</ele><time>2026-04-22T16:20:30.999Z</time></trkpt><trkpt lat="46.17821275115382" lon="13.380591421716248"><ele>584.0</ele><time>2026-04-22T16:20:31.999Z</time></trkpt><trkpt lat="46.17813090843966" lon="13.38075113950363"><ele>584.0</ele><time>2026-04-22T16:20:32.999Z</time></trkpt><trkpt lat="46.17806592468697" lon="13.38091116167271"><ele>584.0</ele><time>2026-04-22T16:20:33.999Z</time></trkpt><trkpt lat="46.17796939128977" lon="13.38106815707515"><ele>584.0</ele><time>2026-04-22T16:20:34.999Z</time></trkpt><trkpt lat="46.1778678816648" lon="13.381163416733017"><ele>584.0</ele><time>2026-04-22T16:20:35.999Z</time></trkpt><trkpt lat="46.17780353765563" lon="13.381276869742443"><ele>586.5</ele><time>2026-04-22T16:20:36.999Z</time></trkpt><trkpt lat="46.17774571374182" lon="13.381412258405417"><ele>589.0</ele><time>2026-04-22T16:20:37.999Z</time></trkpt><trkpt lat="46.17771433822948" lon="13.381576333073605"><ele>591.5</ele><time>2026-04-22T16:20:38.999Z</time></trkpt><trkpt lat="46.17771462336307" lon="13.38173998496868"><ele>594.0</ele><time>2026-04-22T16:20:39.999Z</time></trkpt><trkpt lat="46.17774054758315" lon="13.38192538644257"><ele>594.0</ele><time>2026-04-22T16:20:40.999Z</time></trkpt><trkpt lat="46.177760896296235" lon="13.38212425033495"><ele>594.0</ele><time>2026-04-22T16:20:41.999Z</time></trkpt><trkpt lat="46.17774649088058" lon="13.382299532396898"><ele>594.0</ele><time>2026-04-22T16:20:42.999Z</time></trkpt><trkpt lat="46.17772857794396" lon="13.382447642217768"><ele>594.0</ele><time>2026-04-22T16:20:43.999Z</time></trkpt><trkpt lat="46.17773118542269" lon="13.38258519891916"><ele>594.75</ele><time>2026-04-22T16:20:44.999Z</time></trkpt><trkpt lat="46.17776739990653" lon="13.382721680017623"><ele>595.5</ele><time>2026-04-22T16:20:45.999Z</time></trkpt><trkpt lat="46.177839534946926" lon="13.382861088757364"><ele>596.25</ele><time>2026-04-22T16:20:46.999Z</time></trkpt><trkpt lat="46.17791793267402" lon="13.383025346309616"><ele>597.0</ele><time>2026-04-22T16:20:47.999Z</time></trkpt><trkpt lat="46.177983618299635" lon="13.383233468759085"><ele>597.0</ele><time>2026-04-22T16:20:48.999Z</time></trkpt><trkpt lat="46.17804620482749" lon="13.383464154921187"><ele>597.0</ele><time>2026-04-22T16:20:49.999Z</time></trkpt><trkpt lat="46.17810218961355" lon="13.383676888555408"><ele>597.0</ele><time>2026-04-22T16:20:50.999Z</time></trkpt><trkpt lat="46.178151947876046" lon="13.38386676636262"><ele>609.6666666666666</ele><time>2026-04-22T16:20:51.999Z</time></trkpt><trkpt lat="46.17820864780478" lon="13.384055188919561"><ele>622.3333333333333</ele><time>2026-04-22T16:20:52.999Z</time></trkpt><trkpt lat="46.178299453556" lon="13.384250829308073"><ele>635.0</ele><time>2026-04-22T16:20:53.999Z</time></trkpt><trkpt lat="46.17839325888214" lon="13.384473059562284"><ele>635.0</ele><time>2026-04-22T16:20:54.999Z</time></trkpt><trkpt lat="46.17845916205076" lon="13.384678339872229"><ele>635.0</ele><time>2026-04-22T16:20:55.999Z</time></trkpt><trkpt lat="46.17850546434252" lon="13.384881596636706"><ele>635.0</ele><time>2026-04-22T16:20:56.999Z</time></trkpt><trkpt lat="46.17854388194282" lon="13.38511140013426"><ele>635.0</ele><time>2026-04-22T16:20:57.999Z</time></trkpt><trkpt lat="46.178573841470694" lon="13.385321571408612"><ele>635.0</ele><time>2026-04-22T16:20:58.999Z</time></trkpt><trkpt lat="46.178592421377395" lon="13.38551023675362"><ele>635.0</ele><time>2026-04-22T16:20:59.999Z</time></trkpt><trkpt lat="46.17859413342941" lon="13.385724727960923"><ele>635.0</ele><time>2026-04-22T16:21:00.999Z</time></trkpt><trkpt lat="46.178574180689644" lon="13.385905314232959"><ele>635.0</ele><time>2026-04-22T16:21:01.999Z</time></trkpt><trkpt lat="46.178570175562086" lon="13.386058796588662"><ele>635.0</ele><time>2026-04-22T16:21:02.999Z</time></trkpt><trkpt lat="46.178575276397694" lon="13.386226225251974"><ele>635.0</ele><time>2026-04-22T16:21:03.999Z</time></trkpt><trkpt lat="46.178537200666064" lon="13.38637160531267"><ele>635.0</ele><time>2026-04-22T16:21:04.999Z</time></trkpt><trkpt lat="46.17848286491491" lon="13.386489978741844"><ele>635.0</ele><time>2026-04-22T16:21:05.999Z</time></trkpt><trkpt lat="46.17840468604223" lon="13.386593705679045"><ele>637.0</ele><time>2026-04-22T16:21:06.999Z</time></trkpt><trkpt lat="46.17832373921535" lon="13.38664617610171"><ele>639.0</ele><time>2026-04-22T16:21:07.999Z</time></trkpt><trkpt lat="46.17826652498839" lon="13.386697795077476"><ele>641.0</ele><time>2026-04-22T16:21:08.999Z</time></trkpt><trkpt lat="46.17821735822873" lon="13.386844191420149"><ele>643.0</ele><time>2026-04-22T16:21:10.999Z</time></trkpt><trkpt lat="46.178259836722845" lon="13.386919887325906"><ele>645.0</ele><time>2026-04-22T16:21:11.999Z</time></trkpt><trkpt lat="46.17833964892269" lon="13.386887217501597"><ele>647.0</ele><time>2026-04-22T16:21:12.999Z</time></trkpt><trkpt lat="46.1783961502477" lon="13.386780340190464"><ele>647.0</ele><time>2026-04-22T16:21:13.999Z</time></trkpt><trkpt lat="46.178464831617156" lon="13.386646247274005"><ele>647.0</ele><time>2026-04-22T16:21:14.999Z</time></trkpt><trkpt lat="46.17857394144583" lon="13.386551930878728"><ele>647.0</ele><time>2026-04-22T16:21:15.999Z</time></trkpt><trkpt lat="46.17866579963496" lon="13.386442055739899"><ele>647.0</ele><time>2026-04-22T16:21:16.999Z</time></trkpt><trkpt lat="46.17873430592709" lon="13.386287635822878"><ele>644.0</ele><time>2026-04-22T16:21:17.999Z</time></trkpt><trkpt lat="46.17877292972603" lon="13.386111674068921"><ele>641.0</ele><time>2026-04-22T16:21:18.999Z</time></trkpt><trkpt lat="46.178794143037145" lon="13.385927158809677"><ele>638.0</ele><time>2026-04-22T16:21:20Z</time></trkpt><trkpt lat="46.178821227225676" lon="13.385720953782757"><ele>635.0</ele><time>2026-04-22T16:21:21Z</time></trkpt><trkpt lat="46.178858110777995" lon="13.38549861931183"><ele>634.0</ele><time>2026-04-22T16:21:22Z</time></trkpt><trkpt lat="46.17888361551939" lon="13.385284207251274"><ele>633.0</ele><time>2026-04-22T16:21:23Z</time></trkpt><trkpt lat="46.17888829731959" lon="13.385076781252312"><ele>632.0</ele><time>2026-04-22T16:21:24Z</time></trkpt><trkpt lat="46.17889063040271" lon="13.384905125778433"><ele>631.0</ele><time>2026-04-22T16:21:25Z</time></trkpt><trkpt lat="46.178893460809846" lon="13.384762377936436"><ele>631.8</ele><time>2026-04-22T16:21:26Z</time></trkpt><trkpt lat="46.17887494385565" lon="13.384606734746805"><ele>632.6</ele><time>2026-04-22T16:21:27Z</time></trkpt><trkpt lat="46.178821826824645" lon="13.384447564319396"><ele>633.4</ele><time>2026-04-22T16:21:28Z</time></trkpt><trkpt lat="46.178776715060025" lon="13.384319246987078"><ele>634.2</ele><time>2026-04-22T16:21:29Z</time></trkpt><trkpt lat="46.17874447922751" lon="13.38420791112467"><ele>635.0</ele><time>2026-04-22T16:21:30Z</time></trkpt><trkpt lat="46.1787295648617" lon="13.3841097261097"><ele>635.0</ele><time>2026-04-22T16:21:31Z</time></trkpt><trkpt lat="46.178736089736134" lon="13.38399943887596"><ele>635.0</ele><time>2026-04-22T16:21:32Z</time></trkpt><trkpt lat="46.178765340297076" lon="13.38388336369129"><ele>635.0</ele><time>2026-04-22T16:21:33Z</time></trkpt><trkpt lat="46.17880591674351" lon="13.383760574940858"><ele>635.0</ele><time>2026-04-22T16:21:34Z</time></trkpt><trkpt lat="46.17884834533374" lon="13.3836272773043"><ele>635.0</ele><time>2026-04-22T16:21:35Z</time></trkpt><trkpt lat="46.17889069216144" lon="13.383497126071102"><ele>635.6666666666666</ele><time>2026-04-22T16:21:36Z</time></trkpt><trkpt lat="46.17893765408189" lon="13.383367996582532"><ele>636.3333333333333</ele><time>2026-04-22T16:21:37Z</time></trkpt><trkpt lat="46.17897507123222" lon="13.383251012484452"><ele>637.0</ele><time>2026-04-22T16:21:38Z</time></trkpt><trkpt lat="46.17901729629065" lon="13.383140013248058"><ele>637.6666666666666</ele><time>2026-04-22T16:21:39Z</time></trkpt><trkpt lat="46.17906579064473" lon="13.383040193199815"><ele>638.3333333333334</ele><time>2026-04-22T16:21:40Z</time></trkpt><trkpt lat="46.179123042215345" lon="13.382966049492795"><ele>639.0</ele><time>2026-04-22T16:21:41Z</time></trkpt><trkpt lat="46.179185624827234" lon="13.382922427689062"><ele>642.8333333333334</ele><time>2026-04-22T16:21:42Z</time></trkpt><trkpt lat="46.17926335645164" lon="13.382915813506804"><ele>646.6666666666666</ele><time>2026-04-22T16:21:43Z</time></trkpt><trkpt lat="46.17933772664608" lon="13.38294557093732"><ele>650.5</ele><time>2026-04-22T16:21:44Z</time></trkpt><trkpt lat="46.17941177572444" lon="13.382989328631965"><ele>654.3333333333333</ele><time>2026-04-22T16:21:45Z</time></trkpt><trkpt lat="46.179485776150045" lon="13.383045669354338"><ele>658.1666666666666</ele><time>2026-04-22T16:21:46Z</time></trkpt><trkpt lat="46.17954421758159" lon="13.383100412565378"><ele>662.0</ele><time>2026-04-22T16:21:47Z</time></trkpt><trkpt lat="46.17957834203284" lon="13.383176899017991"><ele>662.6666666666666</ele><time>2026-04-22T16:21:48Z</time></trkpt><trkpt lat="46.17957997219569" lon="13.38327659316542"><ele>663.3333333333333</ele><time>2026-04-22T16:21:49Z</time></trkpt><trkpt lat="46.17955395316188" lon="13.383387022732496"><ele>664.0</ele><time>2026-04-22T16:21:50Z</time></trkpt><trkpt lat="46.17952281492513" lon="13.383505803453565"><ele>664.6666666666666</ele><time>2026-04-22T16:21:51Z</time></trkpt><trkpt lat="46.179482431067335" lon="13.383627781705995"><ele>665.3333333333334</ele><time>2026-04-22T16:21:52Z</time></trkpt><trkpt lat="46.17945166718132" lon="13.38374328302265"><ele>666.0</ele><time>2026-04-22T16:21:53Z</time></trkpt><trkpt lat="46.17943646137021" lon="13.383860243203973"><ele>668.1999999999999</ele><time>2026-04-22T16:21:54Z</time></trkpt><trkpt lat="46.17943171844161" lon="13.38398629148372"><ele>670.4</ele><time>2026-04-22T16:21:55Z</time></trkpt><trkpt lat="46.1794199837018" lon="13.384138146315188"><ele>672.6</ele><time>2026-04-22T16:21:56Z</time></trkpt><trkpt lat="46.17940441304474" lon="13.384305408535146"><ele>674.8</ele><time>2026-04-22T16:21:57Z</time></trkpt><trkpt lat="46.17938997545174" lon="13.38448456007714"><ele>677.0</ele><time>2026-04-22T16:21:58Z</time></trkpt><trkpt lat="46.17936967105127" lon="13.384654890552627"><ele>675.25</ele><time>2026-04-22T16:21:59Z</time></trkpt><trkpt lat="46.17936624833459" lon="13.384823849677899"><ele>673.5</ele><time>2026-04-22T16:22:00Z</time></trkpt><trkpt lat="46.179374470949966" lon="13.385015973376545"><ele>671.75</ele><time>2026-04-22T16:22:01Z</time></trkpt><trkpt lat="46.1793816393801" lon="13.385217826851887"><ele>670.0</ele><time>2026-04-22T16:22:02Z</time></trkpt><trkpt lat="46.17939723151125" lon="13.385413810872219"><ele>670.25</ele><time>2026-04-22T16:22:03Z</time></trkpt><trkpt lat="46.17941764053797" lon="13.38560790935913"><ele>670.5</ele><time>2026-04-22T16:22:04Z</time></trkpt><trkpt lat="46.179441265800705" lon="13.385808674825165"><ele>670.75</ele><time>2026-04-22T16:22:05Z</time></trkpt><trkpt lat="46.179468534461684" lon="13.386014702106245"><ele>671.0</ele><time>2026-04-22T16:22:06Z</time></trkpt><trkpt lat="46.179497072989705" lon="13.386238801977754"><ele>672.0</ele><time>2026-04-22T16:22:07Z</time></trkpt><trkpt lat="46.179526064015626" lon="13.38646401640825"><ele>673.0</ele><time>2026-04-22T16:22:08Z</time></trkpt><trkpt lat="46.179551156196915" lon="13.386636185213971"><ele>674.0</ele><time>2026-04-22T16:22:09Z</time></trkpt><trkpt lat="46.179559333036366" lon="13.386791658470512"><ele>675.0</ele><time>2026-04-22T16:22:10Z</time></trkpt><trkpt lat="46.17953948747564" lon="13.386921495686115"><ele>675.0</ele><time>2026-04-22T16:22:11Z</time></trkpt><trkpt lat="46.179493721195" lon="13.387017409463802"><ele>675.0</ele><time>2026-04-22T16:22:12Z</time></trkpt><trkpt lat="46.179432249735825" lon="13.387101582903522"><ele>675.0</ele><time>2026-04-22T16:22:13Z</time></trkpt><trkpt lat="46.17943180678252" lon="13.387253324144819"><ele>675.0</ele><time>2026-04-22T16:22:15Z</time></trkpt><trkpt lat="46.17955687828659" lon="13.38725997578048"><ele>675.0</ele><time>2026-04-22T16:22:17Z</time></trkpt><trkpt lat="46.17960815735729" lon="13.387095426097284"><ele>675.0</ele><time>2026-04-22T16:22:18Z</time></trkpt><trkpt lat="46.179661625899044" lon="13.386952393483204"><ele>675.0</ele><time>2026-04-22T16:22:19Z</time></trkpt><trkpt lat="46.17971428598317" lon="13.386801480507858"><ele>675.0</ele><time>2026-04-22T16:22:20Z</time></trkpt><trkpt lat="46.1797011136378" lon="13.38660848491444"><ele>675.0</ele><time>2026-04-22T16:22:21Z</time></trkpt><trkpt lat="46.17969333847431" lon="13.386424493686011"><ele>674.2</ele><time>2026-04-22T16:22:22Z</time></trkpt><trkpt lat="46.179708347442464" lon="13.386240721721661"><ele>673.4</ele><time>2026-04-22T16:22:23Z</time></trkpt><trkpt lat="46.17970504201115" lon="13.3860531909542"><ele>672.5999999999999</ele><time>2026-04-22T16:22:24Z</time></trkpt><trkpt lat="46.179697401259666" lon="13.3859097904642"><ele>671.8</ele><time>2026-04-22T16:22:25Z</time></trkpt><trkpt lat="46.179706445121475" lon="13.385785808692376"><ele>671.0</ele><time>2026-04-22T16:22:26Z</time></trkpt><trkpt lat="46.17970214162183" lon="13.38568849311863"><ele>671.0</ele><time>2026-04-22T16:22:27Z</time></trkpt><trkpt lat="46.179744845754286" lon="13.385584634769753"><ele>671.0</ele><time>2026-04-22T16:22:28.999Z</time></trkpt><trkpt lat="46.17980910831263" lon="13.385677451907233"><ele>671.0</ele><time>2026-04-22T16:22:30.999Z</time></trkpt><trkpt lat="46.17980848980211" lon="13.385793424128027"><ele>671.0</ele><time>2026-04-22T16:22:31.999Z</time></trkpt><trkpt lat="46.17980026476107" lon="13.385935437679274"><ele>671.0</ele><time>2026-04-22T16:22:32.999Z</time></trkpt><trkpt lat="46.17979970368529" lon="13.386105573988052"><ele>671.0</ele><time>2026-04-22T16:22:33.999Z</time></trkpt><trkpt lat="46.17980728765815" lon="13.38630982243815"><ele>671.0</ele><time>2026-04-22T16:22:34.999Z</time></trkpt><trkpt lat="46.17983257136418" lon="13.38649363812418"><ele>671.0</ele><time>2026-04-22T16:22:35.999Z</time></trkpt><trkpt lat="46.17985444548156" lon="13.386697055448886"><ele>671.0</ele><time>2026-04-22T16:22:36.999Z</time></trkpt><trkpt lat="46.179864354968736" lon="13.386892499996314"><ele>680.0</ele><time>2026-04-22T16:22:37.999Z</time></trkpt><trkpt lat="46.17987318031376" lon="13.387076351203579"><ele>689.0</ele><time>2026-04-22T16:22:38.999Z</time></trkpt><trkpt lat="46.17990302421878" lon="13.387245990883276"><ele>698.0</ele><time>2026-04-22T16:22:39.999Z</time></trkpt><trkpt lat="46.179951670853825" lon="13.387378703254246"><ele>707.0</ele><time>2026-04-22T16:22:40.999Z</time></trkpt><trkpt lat="46.18001762864583" lon="13.387492214735754"><ele>707.0</ele><time>2026-04-22T16:22:41.999Z</time></trkpt><trkpt lat="46.180104907910454" lon="13.387587322835767"><ele>707.0</ele><time>2026-04-22T16:22:42.999Z</time></trkpt><trkpt lat="46.18019860800732" lon="13.38766824246428"><ele>707.0</ele><time>2026-04-22T16:22:43.999Z</time></trkpt><trkpt lat="46.180268564377336" lon="13.38774525819516"><ele>707.0</ele><time>2026-04-22T16:22:44.999Z</time></trkpt><trkpt lat="46.18032011030773" lon="13.387839363636413"><ele>707.0</ele><time>2026-04-22T16:22:45.999Z</time></trkpt><trkpt lat="46.180334854464455" lon="13.387960374755329"><ele>706.6</ele><time>2026-04-22T16:22:46.999Z</time></trkpt><trkpt lat="46.180310129660384" lon="13.388081253131212"><ele>706.2</ele><time>2026-04-22T16:22:47.999Z</time></trkpt><trkpt lat="46.180268961180914" lon="13.388201642736117"><ele>705.8</ele><time>2026-04-22T16:22:48.999Z</time></trkpt><trkpt lat="46.180240972357346" lon="13.38832721673296"><ele>705.4</ele><time>2026-04-22T16:22:49.999Z</time></trkpt><trkpt lat="46.18023081811928" lon="13.38846549577153"><ele>705.0</ele><time>2026-04-22T16:22:50.999Z</time></trkpt><trkpt lat="46.180242967954506" lon="13.388630919859942"><ele>705.0</ele><time>2026-04-22T16:22:51.999Z</time></trkpt><trkpt lat="46.18025184925924" lon="13.388812358887952"><ele>705.0</ele><time>2026-04-22T16:22:52.999Z</time></trkpt><trkpt lat="46.18026617474318" lon="13.388991200286112"><ele>705.0</ele><time>2026-04-22T16:22:53.999Z</time></trkpt><trkpt lat="46.1802827590797" lon="13.389159957032438"><ele>705.0</ele><time>2026-04-22T16:22:54.999Z</time></trkpt><trkpt lat="46.18029739388827" lon="13.389322978665767"><ele>707.0</ele><time>2026-04-22T16:22:55.999Z</time></trkpt><trkpt lat="46.18031974080146" lon="13.389486643924407"><ele>709.0</ele><time>2026-04-22T16:22:56.999Z</time></trkpt><trkpt lat="46.18036312230949" lon="13.38964993211486"><ele>711.0</ele><time>2026-04-22T16:22:57.999Z</time></trkpt><trkpt lat="46.1804238672016" lon="13.389820596609834"><ele>713.0</ele><time>2026-04-22T16:22:58.999Z</time></trkpt><trkpt lat="46.180475738733016" lon="13.389988891990445"><ele>714.1666666666666</ele><time>2026-04-22T16:22:59.999Z</time></trkpt><trkpt lat="46.18049938820494" lon="13.390146029862025"><ele>715.3333333333333</ele><time>2026-04-22T16:23:00.999Z</time></trkpt><trkpt lat="46.180514854610934" lon="13.390281024848793"><ele>716.5</ele><time>2026-04-22T16:23:01.999Z</time></trkpt><trkpt lat="46.18052809773458" lon="13.390391691572146"><ele>717.6666666666666</ele><time>2026-04-22T16:23:02.999Z</time></trkpt><trkpt lat="46.18055561943045" lon="13.390483711197414"><ele>718.8333333333334</ele><time>2026-04-22T16:23:03.999Z</time></trkpt><trkpt lat="46.180606578800536" lon="13.390537170865466"><ele>720.0</ele><time>2026-04-22T16:23:04.999Z</time></trkpt><trkpt lat="46.180723635008896" lon="13.39045618894162"><ele>724.5</ele><time>2026-04-22T16:23:06.999Z</time></trkpt><trkpt lat="46.18077175144341" lon="13.39032452325429"><ele>729.0</ele><time>2026-04-22T16:23:07.999Z</time></trkpt><trkpt lat="46.18084334454074" lon="13.390181681130597"><ele>733.5</ele><time>2026-04-22T16:23:08.999Z</time></trkpt><trkpt lat="46.18092084305436" lon="13.390047232837349"><ele>738.0</ele><time>2026-04-22T16:23:09.999Z</time></trkpt><trkpt lat="46.18095111506497" lon="13.38987020335382"><ele>738.0</ele><time>2026-04-22T16:23:10.999Z</time></trkpt><trkpt lat="46.18090751610947" lon="13.38967951956306"><ele>738.0</ele><time>2026-04-22T16:23:11.999Z</time></trkpt><trkpt lat="46.180935261801835" lon="13.389507199444324"><ele>738.0</ele><time>2026-04-22T16:23:12.999Z</time></trkpt><trkpt lat="46.18092557953643" lon="13.389353496818655"><ele>738.0</ele><time>2026-04-22T16:23:13.999Z</time></trkpt><trkpt lat="46.18090638626061" lon="13.38922898476511"><ele>738.8</ele><time>2026-04-22T16:23:14.999Z</time></trkpt><trkpt lat="46.18089589136061" lon="13.389113430719226"><ele>739.5999999999999</ele><time>2026-04-22T16:23:15.999Z</time></trkpt><trkpt lat="46.18089547298082" lon="13.389019122965312"><ele>740.4000000000001</ele><time>2026-04-22T16:23:16.999Z</time></trkpt><trkpt lat="46.18093943223923" lon="13.388890168743407"><ele>741.2</ele><time>2026-04-22T16:23:18.999Z</time></trkpt><trkpt lat="46.18104886951033" lon="13.389034670507204"><ele>742.0</ele><time>2026-04-22T16:23:20.999Z</time></trkpt><trkpt lat="46.181118018491155" lon="13.389174739756964"><ele>742.0</ele><time>2026-04-22T16:23:21.999Z</time></trkpt><trkpt lat="46.18119801912933" lon="13.389304728461745"><ele>742.0</ele><time>2026-04-22T16:23:22.999Z</time></trkpt><trkpt lat="46.18126654845923" lon="13.38946552161009"><ele>742.0</ele><time>2026-04-22T16:23:23.999Z</time></trkpt><trkpt lat="46.18133721441994" lon="13.389643436225287"><ele>742.0</ele><time>2026-04-22T16:23:24.999Z</time></trkpt><trkpt lat="46.18140570857372" lon="13.389819223447638"><ele>741.0</ele><time>2026-04-22T16:23:26Z</time></trkpt><trkpt lat="46.18146443026499" lon="13.389978133742439"><ele>740.0</ele><time>2026-04-22T16:23:27Z</time></trkpt><trkpt lat="46.18152008361635" lon="13.390136292173278"><ele>739.0</ele><time>2026-04-22T16:23:28Z</time></trkpt><trkpt lat="46.18160981276276" lon="13.390282119595193"><ele>738.0</ele><time>2026-04-22T16:23:29Z</time></trkpt><trkpt lat="46.18172168097772" lon="13.390413044265612"><ele>742.6666666666666</ele><time>2026-04-22T16:23:30Z</time></trkpt><trkpt lat="46.18178852811013" lon="13.390529896782905"><ele>747.3333333333334</ele><time>2026-04-22T16:23:31Z</time></trkpt><trkpt lat="46.18182761654275" lon="13.390608028731886"><ele>752.0</ele><time>2026-04-22T16:23:32Z</time></trkpt><trkpt lat="46.18182588696144" lon="13.39072861590381"><ele>756.6666666666667</ele><time>2026-04-22T16:23:33Z</time></trkpt><trkpt lat="46.18179408711249" lon="13.390860066734016"><ele>761.3333333333334</ele><time>2026-04-22T16:23:34Z</time></trkpt><trkpt lat="46.18176016131974" lon="13.390973344541115"><ele>766.0</ele><time>2026-04-22T16:23:35Z</time></trkpt><trkpt lat="46.18173894178962" lon="13.391074406013788"><ele>766.0</ele><time>2026-04-22T16:23:36Z</time></trkpt><trkpt lat="46.181702661969936" lon="13.391181312273629"><ele>766.0</ele><time>2026-04-22T16:23:37Z</time></trkpt><trkpt lat="46.18165360879263" lon="13.391285420351833"><ele>766.0</ele><time>2026-04-22T16:23:38Z</time></trkpt><trkpt lat="46.18160613286765" lon="13.391384025438734"><ele>766.0</ele><time>2026-04-22T16:23:39Z</time></trkpt><trkpt lat="46.18156989878586" lon="13.3914741911147"><ele>766.0</ele><time>2026-04-22T16:23:40Z</time></trkpt><trkpt lat="46.1815455574136" lon="13.391564800024636"><ele>766.0</ele><time>2026-04-22T16:23:41Z</time></trkpt><trkpt lat="46.18155182710282" lon="13.391664822877098"><ele>767.8</ele><time>2026-04-22T16:23:42Z</time></trkpt><trkpt lat="46.18157709357436" lon="13.391778029652999"><ele>769.5999999999999</ele><time>2026-04-22T16:23:43Z</time></trkpt><trkpt lat="46.18158225126818" lon="13.39191537267037"><ele>771.4</ele><time>2026-04-22T16:23:44Z</time></trkpt><trkpt lat="46.181562350195115" lon="13.392077165545643"><ele>773.2</ele><time>2026-04-22T16:23:45Z</time></trkpt><trkpt lat="46.181539612254554" lon="13.392223464730517"><ele>775.0</ele><time>2026-04-22T16:23:46Z</time></trkpt><trkpt lat="46.181517754451576" lon="13.392350758448957"><ele>775.4999999999999</ele><time>2026-04-22T16:23:47Z</time></trkpt><trkpt lat="46.18149339947767" lon="13.392464650930288"><ele>776.0</ele><time>2026-04-22T16:23:48Z</time></trkpt><trkpt lat="46.1814647411615" lon="13.392584824768502"><ele>776.5</ele><time>2026-04-22T16:23:49Z</time></trkpt><trkpt lat="46.18144476293076" lon="13.39269982551049"><ele>777.0</ele><time>2026-04-22T16:23:50Z</time></trkpt><trkpt lat="46.1814277620343" lon="13.392810317722226"><ele>777.4999999999999</ele><time>2026-04-22T16:23:51Z</time></trkpt><trkpt lat="46.181389095007255" lon="13.392960222133803"><ele>778.0</ele><time>2026-04-22T16:23:53Z</time></trkpt><trkpt lat="46.18136071164408" lon="13.393092265970171"><ele>778.0</ele><time>2026-04-22T16:23:55Z</time></trkpt><trkpt lat="46.181398851723536" lon="13.393218237876553"><ele>778.0</ele><time>2026-04-22T16:23:57Z</time></trkpt><trkpt lat="46.18152426847324" lon="13.393048165755"><ele>778.0</ele><time>2026-04-22T16:23:59Z</time></trkpt><trkpt lat="46.18155003106324" lon="13.392933114704201"><ele>778.0</ele><time>2026-04-22T16:24:00Z</time></trkpt><trkpt lat="46.18160282576142" lon="13.392802675962125"><ele>779.75</ele><time>2026-04-22T16:24:01Z</time></trkpt><trkpt lat="46.181670231032946" lon="13.392647493151761"><ele>781.5</ele><time>2026-04-22T16:24:02Z</time></trkpt><trkpt lat="46.18173460063812" lon="13.392495463941698"><ele>783.25</ele><time>2026-04-22T16:24:03Z</time></trkpt><trkpt lat="46.18180549341629" lon="13.392364928878822"><ele>785.0</ele><time>2026-04-22T16:24:04Z</time></trkpt><trkpt lat="46.18188755031013" lon="13.392232595542083"><ele>782.5</ele><time>2026-04-22T16:24:05Z</time></trkpt><trkpt lat="46.18197107475246" lon="13.392107605680012"><ele>780.0</ele><time>2026-04-22T16:24:06Z</time></trkpt><trkpt lat="46.18206763791851" lon="13.391992869227442"><ele>777.5</ele><time>2026-04-22T16:24:07Z</time></trkpt><trkpt lat="46.18215391926218" lon="13.391839327444576"><ele>775.0</ele><time>2026-04-22T16:24:08Z</time></trkpt><trkpt lat="46.182246520250956" lon="13.391683569759744"><ele>775.0</ele><time>2026-04-22T16:24:09Z</time></trkpt><trkpt lat="46.18233691744135" lon="13.391521073638312"><ele>775.0</ele><time>2026-04-22T16:24:10Z</time></trkpt><trkpt lat="46.18241406633672" lon="13.39137640147439"><ele>775.0</ele><time>2026-04-22T16:24:11Z</time></trkpt><trkpt lat="46.18249569643164" lon="13.3912335460397"><ele>775.0</ele><time>2026-04-22T16:24:12Z</time></trkpt><trkpt lat="46.18259546063332" lon="13.391103506147674"><ele>780.25</ele><time>2026-04-22T16:24:13Z</time></trkpt><trkpt lat="46.18269748567248" lon="13.390983692146749"><ele>785.5</ele><time>2026-04-22T16:24:14Z</time></trkpt><trkpt lat="46.18279446770829" lon="13.39086785880302"><ele>790.75</ele><time>2026-04-22T16:24:15Z</time></trkpt><trkpt lat="46.18287938004646" lon="13.390743938448702"><ele>796.0</ele><time>2026-04-22T16:24:16Z</time></trkpt><trkpt lat="46.182946875338466" lon="13.390603078651784"><ele>795.75</ele><time>2026-04-22T16:24:17Z</time></trkpt><trkpt lat="46.18299434442059" lon="13.390435301669587"><ele>795.5</ele><time>2026-04-22T16:24:18Z</time></trkpt><trkpt lat="46.18305443867322" lon="13.390267080355198"><ele>795.25</ele><time>2026-04-22T16:24:19Z</time></trkpt><trkpt lat="46.18308681268492" lon="13.39009554796517"><ele>795.0</ele><time>2026-04-22T16:24:20Z</time></trkpt><trkpt lat="46.18315784455528" lon="13.389946079798971"><ele>801.25</ele><time>2026-04-22T16:24:21Z</time></trkpt><trkpt lat="46.183245654194174" lon="13.389804121105833"><ele>807.5</ele><time>2026-04-22T16:24:22Z</time></trkpt><trkpt lat="46.183314691062535" lon="13.389638557037307"><ele>813.75</ele><time>2026-04-22T16:24:23Z</time></trkpt><trkpt lat="46.183358908034556" lon="13.389466902824104"><ele>820.0</ele><time>2026-04-22T16:24:24Z</time></trkpt><trkpt lat="46.183385369672955" lon="13.389299137831307"><ele>820.0</ele><time>2026-04-22T16:24:25Z</time></trkpt><trkpt lat="46.18340616764525" lon="13.38912537567307"><ele>820.0</ele><time>2026-04-22T16:24:26Z</time></trkpt><trkpt lat="46.18342820630322" lon="13.388945256681088"><ele>820.0</ele><time>2026-04-22T16:24:27Z</time></trkpt><trkpt lat="46.18343608333609" lon="13.38876502328627"><ele>820.0</ele><time>2026-04-22T16:24:28Z</time></trkpt><trkpt lat="46.1834305359328" lon="13.388592434313468"><ele>821.25</ele><time>2026-04-22T16:24:29Z</time></trkpt><trkpt lat="46.18343283395327" lon="13.388419088394476"><ele>822.5</ele><time>2026-04-22T16:24:30Z</time></trkpt><trkpt lat="46.18343308895427" lon="13.388235378719896"><ele>823.75</ele><time>2026-04-22T16:24:31Z</time></trkpt><trkpt lat="46.18343293767882" lon="13.388036739353076"><ele>825.0</ele><time>2026-04-22T16:24:32Z</time></trkpt><trkpt lat="46.183438048114226" lon="13.387822304431483"><ele>826.75</ele><time>2026-04-22T16:24:33Z</time></trkpt><trkpt lat="46.183438049589185" lon="13.38760550817779"><ele>828.5</ele><time>2026-04-22T16:24:34Z</time></trkpt><trkpt lat="46.18341746586354" lon="13.387395361451887"><ele>830.25</ele><time>2026-04-22T16:24:34.999Z</time></trkpt><trkpt lat="46.18338683694054" lon="13.387182079225953"><ele>832.0</ele><time>2026-04-22T16:24:35.999Z</time></trkpt><trkpt lat="46.18335330988501" lon="13.386967086640444"><ele>833.0</ele><time>2026-04-22T16:24:36.999Z</time></trkpt><trkpt lat="46.18333619050625" lon="13.386789976249172"><ele>834.0</ele><time>2026-04-22T16:24:37.999Z</time></trkpt><trkpt lat="46.18332858769997" lon="13.386648079568323"><ele>835.0</ele><time>2026-04-22T16:24:38.999Z</time></trkpt><trkpt lat="46.18330446313848" lon="13.386506565218514"><ele>836.0</ele><time>2026-04-22T16:24:39.999Z</time></trkpt><trkpt lat="46.18328050935765" lon="13.386382319538734"><ele>837.0</ele><time>2026-04-22T16:24:40.999Z</time></trkpt><trkpt lat="46.1832787782602" lon="13.386285532759914"><ele>837.6666666666666</ele><time>2026-04-22T16:24:41.999Z</time></trkpt><trkpt lat="46.183286287901595" lon="13.386188012002608"><ele>838.3333333333333</ele><time>2026-04-22T16:24:42.999Z</time></trkpt><trkpt lat="46.18331592812615" lon="13.386098596798854"><ele>839.0</ele><time>2026-04-22T16:24:43.999Z</time></trkpt><trkpt lat="46.183375289150774" lon="13.386025421598"><ele>839.6666666666666</ele><time>2026-04-22T16:24:44.999Z</time></trkpt><trkpt lat="46.183463231440314" lon="13.385974492576223"><ele>840.3333333333333</ele><time>2026-04-22T16:24:45.999Z</time></trkpt><trkpt lat="46.18357384303103" lon="13.38592511578418"><ele>841.0</ele><time>2026-04-22T16:24:46.999Z</time></trkpt><trkpt lat="46.18365254652026" lon="13.385846275399398"><ele>841.0</ele><time>2026-04-22T16:24:47.999Z</time></trkpt><trkpt lat="46.18370695936729" lon="13.38575998790929"><ele>841.0</ele><time>2026-04-22T16:24:48.999Z</time></trkpt><trkpt lat="46.183746504616174" lon="13.38565432444678"><ele>841.0</ele><time>2026-04-22T16:24:49.999Z</time></trkpt><trkpt lat="46.183752664983736" lon="13.385514610703014"><ele>841.0</ele><time>2026-04-22T16:24:50.999Z</time></trkpt><trkpt lat="46.18374056205841" lon="13.385364742126853"><ele>841.0</ele><time>2026-04-22T16:24:51.999Z</time></trkpt><trkpt lat="46.183725085573755" lon="13.385225255825024"><ele>840.75</ele><time>2026-04-22T16:24:52.999Z</time></trkpt><trkpt lat="46.183723850190304" lon="13.385078418419202"><ele>840.5</ele><time>2026-04-22T16:24:53.999Z</time></trkpt><trkpt lat="46.18374301309031" lon="13.384916705406722"><ele>840.25</ele><time>2026-04-22T16:24:54.999Z</time></trkpt><trkpt lat="46.183783375766964" lon="13.384756434565077"><ele>840.0</ele><time>2026-04-22T16:24:55.999Z</time></trkpt><trkpt lat="46.18380776929177" lon="13.384577598376223"><ele>839.75</ele><time>2026-04-22T16:24:56.999Z</time></trkpt><trkpt lat="46.183800341539815" lon="13.384378183181546"><ele>839.5</ele><time>2026-04-22T16:24:57.999Z</time></trkpt><trkpt lat="46.183779845312465" lon="13.384162472595253"><ele>839.25</ele><time>2026-04-22T16:24:58.999Z</time></trkpt><trkpt lat="46.18376098629097" lon="13.383941170387258"><ele>839.0</ele><time>2026-04-22T16:24:59.999Z</time></trkpt><trkpt lat="46.18374254516942" lon="13.38374513191865"><ele>839.0</ele><time>2026-04-22T16:25:00.999Z</time></trkpt><trkpt lat="46.18371917196282" lon="13.383580799835986"><ele>839.0</ele><time>2026-04-22T16:25:01.999Z</time></trkpt><trkpt lat="46.183696965616264" lon="13.383445274972548"><ele>839.0</ele><time>2026-04-22T16:25:02.999Z</time></trkpt><trkpt lat="46.18370314258382" lon="13.383316407487344"><ele>839.0</ele><time>2026-04-22T16:25:03.999Z</time></trkpt><trkpt lat="46.183733685710116" lon="13.383188365663017"><ele>839.0</ele><time>2026-04-22T16:25:04.999Z</time></trkpt><trkpt lat="46.18374811843112" lon="13.383062034502256"><ele>840.0</ele><time>2026-04-22T16:25:05.999Z</time></trkpt><trkpt lat="46.18372647276863" lon="13.382926345254734"><ele>841.0</ele><time>2026-04-22T16:25:06.999Z</time></trkpt><trkpt lat="46.183688463524355" lon="13.382769326703222"><ele>842.0</ele><time>2026-04-22T16:25:07.999Z</time></trkpt><trkpt lat="46.18365956330466" lon="13.382616517885195"><ele>843.0</ele><time>2026-04-22T16:25:08.999Z</time></trkpt><trkpt lat="46.183650461546875" lon="13.382489397885113"><ele>844.0</ele><time>2026-04-22T16:25:09.999Z</time></trkpt><trkpt lat="46.183652342231184" lon="13.382358892134443"><ele>843.9999999999999</ele><time>2026-04-22T16:25:10.999Z</time></trkpt><trkpt lat="46.18366366451136" lon="13.382245850005253"><ele>844.0</ele><time>2026-04-22T16:25:11.999Z</time></trkpt><trkpt lat="46.1836765197687" lon="13.382139380595442"><ele>844.0</ele><time>2026-04-22T16:25:12.999Z</time></trkpt><trkpt lat="46.18370134378106" lon="13.38203362554907"><ele>844.0</ele><time>2026-04-22T16:25:13.999Z</time></trkpt><trkpt lat="46.183749386602855" lon="13.381941607132092"><ele>843.9999999999999</ele><time>2026-04-22T16:25:14.999Z</time></trkpt><trkpt lat="46.183830591775234" lon="13.381864268408181"><ele>844.0</ele><time>2026-04-22T16:25:15.999Z</time></trkpt><trkpt lat="46.18391358718453" lon="13.381776650899164"><ele>844.0</ele><time>2026-04-22T16:25:16.999Z</time></trkpt><trkpt lat="46.183994485737784" lon="13.381678199468421"><ele>844.0</ele><time>2026-04-22T16:25:17.999Z</time></trkpt><trkpt lat="46.1840617147179" lon="13.381581561727403"><ele>844.0</ele><time>2026-04-22T16:25:18.999Z</time></trkpt><trkpt lat="46.18411467905748" lon="13.381453558273632"><ele>844.0</ele><time>2026-04-22T16:25:19.999Z</time></trkpt><trkpt lat="46.18416425449393" lon="13.381320958268699"><ele>844.0</ele><time>2026-04-22T16:25:20.999Z</time></trkpt><trkpt lat="46.184213378108694" lon="13.381201251829312"><ele>849.4000000000001</ele><time>2026-04-22T16:25:21.999Z</time></trkpt><trkpt lat="46.18427716521088" lon="13.381113502895781"><ele>854.8</ele><time>2026-04-22T16:25:22.999Z</time></trkpt><trkpt lat="46.184327572105005" lon="13.381019188421552"><ele>860.1999999999999</ele><time>2026-04-22T16:25:23.999Z</time></trkpt><trkpt lat="46.18426232941033" lon="13.380814397664949"><ele>865.5999999999999</ele><time>2026-04-22T16:25:24.999Z</time></trkpt><trkpt lat="46.184299368054155" lon="13.380706337611825"><ele>871.0</ele><time>2026-04-22T16:25:25.999Z</time></trkpt><trkpt lat="46.18436318360784" lon="13.380610139662776"><ele>871.0</ele><time>2026-04-22T16:25:26.999Z</time></trkpt><trkpt lat="46.184441643944936" lon="13.380522858456832"><ele>870.9999999999999</ele><time>2026-04-22T16:25:27.999Z</time></trkpt><trkpt lat="46.18450227024464" lon="13.380426420339138"><ele>870.9999999999999</ele><time>2026-04-22T16:25:28.999Z</time></trkpt><trkpt lat="46.18453858263129" lon="13.380297608709572"><ele>871.0</ele><time>2026-04-22T16:25:29.999Z</time></trkpt><trkpt lat="46.184554774733954" lon="13.380137332058592"><ele>871.0</ele><time>2026-04-22T16:25:30.999Z</time></trkpt><trkpt lat="46.18456432899094" lon="13.37996873776413"><ele>870.1999999999999</ele><time>2026-04-22T16:25:32Z</time></trkpt><trkpt lat="46.184564113271385" lon="13.379831640446428"><ele>869.3999999999999</ele><time>2026-04-22T16:25:33Z</time></trkpt><trkpt lat="46.18456243604229" lon="13.379691810277182"><ele>868.6</ele><time>2026-04-22T16:25:34Z</time></trkpt><trkpt lat="46.184572570445695" lon="13.379534048304363"><ele>867.8</ele><time>2026-04-22T16:25:35Z</time></trkpt><trkpt lat="46.1845947713451" lon="13.379365155731335"><ele>867.0</ele><time>2026-04-22T16:25:36Z</time></trkpt><trkpt lat="46.184625867319475" lon="13.379191399749224"><ele>867.0</ele><time>2026-04-22T16:25:37Z</time></trkpt><trkpt lat="46.18465306817516" lon="13.379027029310889"><ele>867.0</ele><time>2026-04-22T16:25:38Z</time></trkpt><trkpt lat="46.18467941795319" lon="13.378896851762024"><ele>867.0</ele><time>2026-04-22T16:25:39Z</time></trkpt><trkpt lat="46.18471603819729" lon="13.378778483190604"><ele>867.0</ele><time>2026-04-22T16:25:40Z</time></trkpt><trkpt lat="46.18477117803088" lon="13.378686035272487"><ele>867.0</ele><time>2026-04-22T16:25:41Z</time></trkpt><trkpt lat="46.18484451596988" lon="13.378628436697955"><ele>871.3333333333334</ele><time>2026-04-22T16:25:42Z</time></trkpt><trkpt lat="46.18492420530216" lon="13.378578008205713"><ele>875.6666666666667</ele><time>2026-04-22T16:25:43Z</time></trkpt><trkpt lat="46.184989361666396" lon="13.378513698481308"><ele>880.0</ele><time>2026-04-22T16:25:44Z</time></trkpt><trkpt lat="46.185030305351155" lon="13.378441292126842"><ele>884.3333333333334</ele><time>2026-04-22T16:25:45Z</time></trkpt><trkpt lat="46.185051784072215" lon="13.378343496618294"><ele>888.6666666666667</ele><time>2026-04-22T16:25:46Z</time></trkpt><trkpt lat="46.18503746916604" lon="13.378230070942006"><ele>893.0</ele><time>2026-04-22T16:25:47Z</time></trkpt><trkpt lat="46.185012564283824" lon="13.378113293954536"><ele>894.4</ele><time>2026-04-22T16:25:48Z</time></trkpt><trkpt lat="46.18502105159675" lon="13.37798497266339"><ele>895.8</ele><time>2026-04-22T16:25:49Z</time></trkpt><trkpt lat="46.185052136174875" lon="13.377845079237462"><ele>897.2</ele><time>2026-04-22T16:25:50Z</time></trkpt><trkpt lat="46.18505019248053" lon="13.377715236694142"><ele>898.6</ele><time>2026-04-22T16:25:51Z</time></trkpt><trkpt lat="46.18501549793748" lon="13.37760094547125"><ele>900.0</ele><time>2026-04-22T16:25:52Z</time></trkpt><trkpt lat="46.18495259069575" lon="13.377515237215974"><ele>900.0</ele><time>2026-04-22T16:25:53Z</time></trkpt><trkpt lat="46.184862023398935" lon="13.377438561196806"><ele>900.0</ele><time>2026-04-22T16:25:54Z</time></trkpt><trkpt lat="46.184773199710754" lon="13.37735852271111"><ele>900.0</ele><time>2026-04-22T16:25:55Z</time></trkpt><trkpt lat="46.18469221998486" lon="13.377260579710406"><ele>900.0</ele><time>2026-04-22T16:25:56Z</time></trkpt><trkpt lat="46.18462589528114" lon="13.37715417799036"><ele>900.0</ele><time>2026-04-22T16:25:57Z</time></trkpt><trkpt lat="46.184565798376745" lon="13.376995713693516"><ele>898.6</ele><time>2026-04-22T16:25:58Z</time></trkpt><trkpt lat="46.18451066226167" lon="13.37683686689389"><ele>897.2</ele><time>2026-04-22T16:25:59Z</time></trkpt><trkpt lat="46.184452115746936" lon="13.376706057317179"><ele>895.8</ele><time>2026-04-22T16:26:00Z</time></trkpt><trkpt lat="46.184396373342295" lon="13.376609012365087"><ele>894.4</ele><time>2026-04-22T16:26:01Z</time></trkpt><trkpt lat="46.184344957628234" lon="13.376512333543822"><ele>893.0</ele><time>2026-04-22T16:26:02Z</time></trkpt><trkpt lat="46.184325991967974" lon="13.376352225492393"><ele>893.0</ele><time>2026-04-22T16:26:04Z</time></trkpt><trkpt lat="46.1843666676836" lon="13.376255661036204"><ele>893.0</ele><time>2026-04-22T16:26:05Z</time></trkpt><trkpt lat="46.184444976025915" lon="13.376150647748233"><ele>893.0</ele><time>2026-04-22T16:26:06Z</time></trkpt><trkpt lat="46.184536021000234" lon="13.37602324579236"><ele>893.0</ele><time>2026-04-22T16:26:07Z</time></trkpt><trkpt lat="46.18462846765026" lon="13.375907064194527"><ele>893.0</ele><time>2026-04-22T16:26:08Z</time></trkpt><trkpt lat="46.184716795304716" lon="13.375809301002983"><ele>893.0</ele><time>2026-04-22T16:26:09Z</time></trkpt><trkpt lat="46.184804062092375" lon="13.375694971591676"><ele>893.0</ele><time>2026-04-22T16:26:10Z</time></trkpt><trkpt lat="46.1848853135433" lon="13.375561866896982"><ele>893.0</ele><time>2026-04-22T16:26:11Z</time></trkpt><trkpt lat="46.18495410186178" lon="13.375393819543387"><ele>893.0</ele><time>2026-04-22T16:26:12Z</time></trkpt><trkpt lat="46.185005126451934" lon="13.375186752105309"><ele>894.0</ele><time>2026-04-22T16:26:13Z</time></trkpt><trkpt lat="46.18504885097355" lon="13.375000343543242"><ele>895.0</ele><time>2026-04-22T16:26:14Z</time></trkpt><trkpt lat="46.185086183960856" lon="13.374846394733591"><ele>896.0</ele><time>2026-04-22T16:26:15Z</time></trkpt><trkpt lat="46.18513804609147" lon="13.374697733568201"><ele>897.0</ele><time>2026-04-22T16:26:16Z</time></trkpt><trkpt lat="46.18521535347903" lon="13.374553502942431"><ele>897.0</ele><time>2026-04-22T16:26:17Z</time></trkpt><trkpt lat="46.18529679737126" lon="13.37439687038505"><ele>897.0</ele><time>2026-04-22T16:26:18Z</time></trkpt><trkpt lat="46.18536472394648" lon="13.374201907563037"><ele>897.0</ele><time>2026-04-22T16:26:19Z</time></trkpt><trkpt lat="46.185439253614526" lon="13.373993983682777"><ele>897.0</ele><time>2026-04-22T16:26:20Z</time></trkpt><trkpt lat="46.18551580539025" lon="13.373811700389338"><ele>895.25</ele><time>2026-04-22T16:26:21Z</time></trkpt><trkpt lat="46.185591892005775" lon="13.373673397665932"><ele>893.5</ele><time>2026-04-22T16:26:22Z</time></trkpt><trkpt lat="46.185654771900396" lon="13.37351618376757"><ele>891.75</ele><time>2026-04-22T16:26:23Z</time></trkpt><trkpt lat="46.18569969857544" lon="13.373305216948612"><ele>890.0</ele><time>2026-04-22T16:26:24Z</time></trkpt><trkpt lat="46.185747800787325" lon="13.373076602997976"><ele>896.75</ele><time>2026-04-22T16:26:25Z</time></trkpt><trkpt lat="46.185807180785474" lon="13.37287367379808"><ele>903.5</ele><time>2026-04-22T16:26:26Z</time></trkpt><trkpt lat="46.185859706501724" lon="13.372689515520454"><ele>910.25</ele><time>2026-04-22T16:26:27Z</time></trkpt><trkpt lat="46.185906740062066" lon="13.372537397226363"><ele>917.0</ele><time>2026-04-22T16:26:28Z</time></trkpt><trkpt lat="46.18595079099583" lon="13.372406473952893"><ele>917.0</ele><time>2026-04-22T16:26:29Z</time></trkpt><trkpt lat="46.185980576339894" lon="13.372268155698409"><ele>917.0</ele><time>2026-04-22T16:26:30Z</time></trkpt><trkpt lat="46.1859869942491" lon="13.372089725701928"><ele>917.0</ele><time>2026-04-22T16:26:31Z</time></trkpt><trkpt lat="46.185979182792174" lon="13.3719117421747"><ele>917.0</ele><time>2026-04-22T16:26:32Z</time></trkpt><trkpt lat="46.18596499453085" lon="13.371743541828135"><ele>915.6</ele><time>2026-04-22T16:26:33Z</time></trkpt><trkpt lat="46.18593109482298" lon="13.371597568738887"><ele>914.2</ele><time>2026-04-22T16:26:34Z</time></trkpt><trkpt lat="46.18589398782328" lon="13.37147638275182"><ele>912.8</ele><time>2026-04-22T16:26:35Z</time></trkpt><trkpt lat="46.18587407021952" lon="13.371352441854482"><ele>911.4</ele><time>2026-04-22T16:26:36Z</time></trkpt><trkpt lat="46.18588130400575" lon="13.371212898401973"><ele>910.0</ele><time>2026-04-22T16:26:37Z</time></trkpt><trkpt lat="46.18590694523111" lon="13.371055299015623"><ele>909.25</ele><time>2026-04-22T16:26:37.999Z</time></trkpt><trkpt lat="46.185919228901994" lon="13.370877480178612"><ele>908.5</ele><time>2026-04-22T16:26:38.999Z</time></trkpt><trkpt lat="46.18592276349263" lon="13.370689306252446"><ele>907.75</ele><time>2026-04-22T16:26:39.999Z</time></trkpt><trkpt lat="46.18592160858881" lon="13.370508657839643"><ele>907.0</ele><time>2026-04-22T16:26:40.999Z</time></trkpt><trkpt lat="46.18589356515304" lon="13.370317822890629"><ele>908.6</ele><time>2026-04-22T16:26:41.999Z</time></trkpt><trkpt lat="46.18583927805142" lon="13.370142602813155"><ele>910.2</ele><time>2026-04-22T16:26:42.999Z</time></trkpt><trkpt lat="46.185792121019794" lon="13.370010212042612"><ele>911.8</ele><time>2026-04-22T16:26:43.999Z</time></trkpt><trkpt lat="46.185774167939286" lon="13.369875368061953"><ele>913.4</ele><time>2026-04-22T16:26:44.999Z</time></trkpt><trkpt lat="46.18578916956447" lon="13.369708075627413"><ele>915.0</ele><time>2026-04-22T16:26:45.999Z</time></trkpt><trkpt lat="46.18582682188416" lon="13.369520281953722"><ele>915.0</ele><time>2026-04-22T16:26:46.999Z</time></trkpt><trkpt lat="46.18585438296911" lon="13.369357619844514"><ele>915.0</ele><time>2026-04-22T16:26:47.999Z</time></trkpt><trkpt lat="46.185871655829544" lon="13.369195923147313"><ele>915.0</ele><time>2026-04-22T16:26:48.999Z</time></trkpt><trkpt lat="46.185860484233025" lon="13.369023440925028"><ele>915.0</ele><time>2026-04-22T16:26:49.999Z</time></trkpt><trkpt lat="46.185833087502346" lon="13.368832800953566"><ele>914.6</ele><time>2026-04-22T16:26:50.999Z</time></trkpt><trkpt lat="46.185799214210846" lon="13.36863349483708"><ele>914.2</ele><time>2026-04-22T16:26:51.999Z</time></trkpt><trkpt lat="46.185764478407414" lon="13.368471697554817"><ele>913.8</ele><time>2026-04-22T16:26:52.999Z</time></trkpt><trkpt lat="46.18573824080728" lon="13.368337751501299"><ele>913.4</ele><time>2026-04-22T16:26:53.999Z</time></trkpt><trkpt lat="46.18573414436223" lon="13.368218598825251"><ele>913.0</ele><time>2026-04-22T16:26:54.999Z</time></trkpt><trkpt lat="46.18576452569132" lon="13.368097133401463"><ele>910.75</ele><time>2026-04-22T16:26:55.999Z</time></trkpt><trkpt lat="46.185828634850004" lon="13.367978625333803"><ele>908.5</ele><time>2026-04-22T16:26:56.999Z</time></trkpt><trkpt lat="46.1859167001456" lon="13.367861352926372"><ele>906.25</ele><time>2026-04-22T16:26:57.999Z</time></trkpt><trkpt lat="46.18600118975463" lon="13.367743254578208"><ele>904.0</ele><time>2026-04-22T16:26:58.999Z</time></trkpt><trkpt lat="46.186078723812855" lon="13.367622141634687"><ele>904.0</ele><time>2026-04-22T16:26:59.999Z</time></trkpt><trkpt lat="46.18616166318946" lon="13.367498525302393"><ele>904.0</ele><time>2026-04-22T16:27:00.999Z</time></trkpt><trkpt lat="46.18625716219418" lon="13.367370440518103"><ele>904.0</ele><time>2026-04-22T16:27:01.999Z</time></trkpt><trkpt lat="46.186356063141375" lon="13.367230726897354"><ele>904.0</ele><time>2026-04-22T16:27:02.999Z</time></trkpt><trkpt lat="46.18644288456177" lon="13.36708263564948"><ele>900.5</ele><time>2026-04-22T16:27:03.999Z</time></trkpt><trkpt lat="46.18650648599178" lon="13.366926530192282"><ele>897.0</ele><time>2026-04-22T16:27:04.999Z</time></trkpt><trkpt lat="46.18656551541767" lon="13.366745907271362"><ele>893.5</ele><time>2026-04-22T16:27:05.999Z</time></trkpt><trkpt lat="46.1866319916803" lon="13.366569240257451"><ele>890.0</ele><time>2026-04-22T16:27:06.999Z</time></trkpt><trkpt lat="46.1867081123244" lon="13.366432386539596"><ele>894.0</ele><time>2026-04-22T16:27:07.999Z</time></trkpt><trkpt lat="46.18678450740983" lon="13.366318035903955"><ele>898.0</ele><time>2026-04-22T16:27:08.999Z</time></trkpt><trkpt lat="46.18684511662798" lon="13.366191240006494"><ele>902.0</ele><time>2026-04-22T16:27:09.999Z</time></trkpt><trkpt lat="46.18688698410115" lon="13.366045445205774"><ele>906.0</ele><time>2026-04-22T16:27:10.999Z</time></trkpt><trkpt lat="46.18691032350846" lon="13.365901251367026"><ele>910.0</ele><time>2026-04-22T16:27:11.999Z</time></trkpt><trkpt lat="46.186908781573024" lon="13.36576334961611"><ele>910.0</ele><time>2026-04-22T16:27:12.999Z</time></trkpt><trkpt lat="46.186881130604434" lon="13.365633160970097"><ele>910.0</ele><time>2026-04-22T16:27:13.999Z</time></trkpt><trkpt lat="46.18683235100489" lon="13.365509623778964"><ele>910.0</ele><time>2026-04-22T16:27:14.999Z</time></trkpt><trkpt lat="46.186767296677246" lon="13.365392626827813"><ele>910.0</ele><time>2026-04-22T16:27:15.999Z</time></trkpt><trkpt lat="46.18670595378034" lon="13.365294530322812"><ele>910.0</ele><time>2026-04-22T16:27:16.999Z</time></trkpt><trkpt lat="46.18666235234965" lon="13.365200093335845"><ele>910.0</ele><time>2026-04-22T16:27:17.999Z</time></trkpt><trkpt lat="46.18663591137412" lon="13.365095714655645"><ele>910.0</ele><time>2026-04-22T16:27:18.999Z</time></trkpt><trkpt lat="46.18664113569941" lon="13.364972457834169"><ele>910.0</ele><time>2026-04-22T16:27:19.999Z</time></trkpt><trkpt lat="46.186664229584416" lon="13.36484321663748"><ele>910.0</ele><time>2026-04-22T16:27:20.999Z</time></trkpt><trkpt lat="46.186683197428955" lon="13.36470191134274"><ele>910.0</ele><time>2026-04-22T16:27:21.999Z</time></trkpt><trkpt lat="46.18669907701043" lon="13.364564332632302"><ele>908.2</ele><time>2026-04-22T16:27:22.999Z</time></trkpt><trkpt lat="46.18672637724192" lon="13.364431956393778"><ele>906.4</ele><time>2026-04-22T16:27:23.999Z</time></trkpt><trkpt lat="46.18678141845927" lon="13.364335487703412"><ele>904.5999999999999</ele><time>2026-04-22T16:27:24.999Z</time></trkpt><trkpt lat="46.186859837556334" lon="13.3642654087815"><ele>902.8</ele><time>2026-04-22T16:27:25.999Z</time></trkpt><trkpt lat="46.186954759774785" lon="13.364216260175677"><ele>901.0</ele><time>2026-04-22T16:27:26.999Z</time></trkpt><trkpt lat="46.18704426302784" lon="13.364164890244638"><ele>900.9999999999999</ele><time>2026-04-22T16:27:27.999Z</time></trkpt><trkpt lat="46.18712262667462" lon="13.364115370292723"><ele>901.0</ele><time>2026-04-22T16:27:28.999Z</time></trkpt><trkpt lat="46.187199601277264" lon="13.364058074778999"><ele>901.0</ele><time>2026-04-22T16:27:29.999Z</time></trkpt><trkpt lat="46.18726758403693" lon="13.3639926285676"><ele>901.0</ele><time>2026-04-22T16:27:30.999Z</time></trkpt><trkpt lat="46.187321460205375" lon="13.363926011225583"><ele>900.9999999999999</ele><time>2026-04-22T16:27:31.999Z</time></trkpt><trkpt lat="46.187360997243054" lon="13.363840811242156"><ele>901.0</ele><time>2026-04-22T16:27:32.999Z</time></trkpt><trkpt lat="46.1873788116908" lon="13.363725067235961"><ele>902.4</ele><time>2026-04-22T16:27:33.999Z</time></trkpt><trkpt lat="46.18738965420742" lon="13.363595537743354"><ele>903.8</ele><time>2026-04-22T16:27:34.999Z</time></trkpt><trkpt lat="46.18742005774669" lon="13.363465639529686"><ele>905.1999999999999</ele><time>2026-04-22T16:27:35.999Z</time></trkpt><trkpt lat="46.18746844681985" lon="13.36334897855924"><ele>906.5999999999999</ele><time>2026-04-22T16:27:36.999Z</time></trkpt><trkpt lat="46.18753694582415" lon="13.363244860593673"><ele>908.0</ele><time>2026-04-22T16:27:38Z</time></trkpt><trkpt lat="46.18762333094334" lon="13.363147042861431"><ele>908.0</ele><time>2026-04-22T16:27:39Z</time></trkpt><trkpt lat="46.1877193686497" lon="13.363047988621455"><ele>908.0</ele><time>2026-04-22T16:27:40Z</time></trkpt><trkpt lat="46.187823071535405" lon="13.362962175003245"><ele>908.0</ele><time>2026-04-22T16:27:41Z</time></trkpt><trkpt lat="46.18791316346984" lon="13.362888594887012"><ele>908.0</ele><time>2026-04-22T16:27:42Z</time></trkpt><trkpt lat="46.18799768718581" lon="13.362817426939957"><ele>908.0</ele><time>2026-04-22T16:27:43Z</time></trkpt><trkpt lat="46.18809502691465" lon="13.362773072797141"><ele>905.4</ele><time>2026-04-22T16:27:44Z</time></trkpt><trkpt lat="46.18819653951298" lon="13.362755336271377"><ele>902.8</ele><time>2026-04-22T16:27:45Z</time></trkpt><trkpt lat="46.188296405068094" lon="13.362756973242945"><ele>900.2</ele><time>2026-04-22T16:27:46Z</time></trkpt><trkpt lat="46.18839156676248" lon="13.36275506302114"><ele>897.6</ele><time>2026-04-22T16:27:47Z</time></trkpt><trkpt lat="46.1884710015445" lon="13.362694353999304"><ele>895.0</ele><time>2026-04-22T16:27:48Z</time></trkpt><trkpt lat="46.18854696729484" lon="13.362594164068287"><ele>895.0</ele><time>2026-04-22T16:27:49Z</time></trkpt><trkpt lat="46.188623977246664" lon="13.362485771413533"><ele>895.0</ele><time>2026-04-22T16:27:50Z</time></trkpt><trkpt lat="46.188706700600875" lon="13.362394606285452"><ele>895.0</ele><time>2026-04-22T16:27:51Z</time></trkpt><trkpt lat="46.188782623842044" lon="13.362299111832758"><ele>895.0</ele><time>2026-04-22T16:27:52Z</time></trkpt><trkpt lat="46.18885756323336" lon="13.362201436238019"><ele>895.0</ele><time>2026-04-22T16:27:53Z</time></trkpt><trkpt lat="46.18893384221826" lon="13.36211706651356"><ele>892.6666666666666</ele><time>2026-04-22T16:27:54Z</time></trkpt><trkpt lat="46.189012028389044" lon="13.362053667363186"><ele>890.3333333333333</ele><time>2026-04-22T16:27:55Z</time></trkpt><trkpt lat="46.18907986790707" lon="13.362015939176821"><ele>888.0</ele><time>2026-04-22T16:27:56Z</time></trkpt><trkpt lat="46.189166320794016" lon="13.36192818603018"><ele>885.6666666666667</ele><time>2026-04-22T16:27:58Z</time></trkpt><trkpt lat="46.18916171729883" lon="13.361836695333698"><ele>883.3333333333334</ele><time>2026-04-22T16:27:59Z</time></trkpt><trkpt lat="46.18910354945488" lon="13.361759132951516"><ele>881.0</ele><time>2026-04-22T16:28:00Z</time></trkpt><trkpt lat="46.18903349927289" lon="13.361741073242142"><ele>879.8</ele><time>2026-04-22T16:28:01Z</time></trkpt><trkpt lat="46.18896161447682" lon="13.36176225485386"><ele>878.5999999999999</ele><time>2026-04-22T16:28:02Z</time></trkpt><trkpt lat="46.18888408182066" lon="13.361806325263911"><ele>877.4</ele><time>2026-04-22T16:28:03Z</time></trkpt><trkpt lat="46.18879874958642" lon="13.361851847996498"><ele>876.2</ele><time>2026-04-22T16:28:04Z</time></trkpt><trkpt lat="46.18870042326036" lon="13.361901139343384"><ele>875.0</ele><time>2026-04-22T16:28:05Z</time></trkpt><trkpt lat="46.188601207642634" lon="13.361944250081557"><ele>875.0</ele><time>2026-04-22T16:28:06Z</time></trkpt><trkpt lat="46.188507780543894" lon="13.361954431672949"><ele>875.0</ele><time>2026-04-22T16:28:07Z</time></trkpt><trkpt lat="46.18841814707319" lon="13.361918302088972"><ele>875.0</ele><time>2026-04-22T16:28:08Z</time></trkpt><trkpt lat="46.18833574719987" lon="13.361841656676322"><ele>875.0</ele><time>2026-04-22T16:28:09Z</time></trkpt><trkpt lat="46.18824694121292" lon="13.361781274114428"><ele>875.0</ele><time>2026-04-22T16:28:10Z</time></trkpt><trkpt lat="46.188152230317826" lon="13.36177054374778"><ele>873.4</ele><time>2026-04-22T16:28:11Z</time></trkpt><trkpt lat="46.188050647924946" lon="13.361797843745993"><ele>871.8</ele><time>2026-04-22T16:28:12Z</time></trkpt><trkpt lat="46.187953316792445" lon="13.361826416928851"><ele>870.2</ele><time>2026-04-22T16:28:13Z</time></trkpt><trkpt lat="46.18785869062646" lon="13.361862086458867"><ele>868.6</ele><time>2026-04-22T16:28:14Z</time></trkpt><trkpt lat="46.18776678655559" lon="13.361890702313525"><ele>867.0</ele><time>2026-04-22T16:28:15Z</time></trkpt><trkpt lat="46.187674698324294" lon="13.361877464140713"><ele>867.0</ele><time>2026-04-22T16:28:16Z</time></trkpt><trkpt lat="46.18759090605732" lon="13.361820265535172"><ele>867.0</ele><time>2026-04-22T16:28:17Z</time></trkpt><trkpt lat="46.187526821651915" lon="13.361753230355331"><ele>867.0</ele><time>2026-04-22T16:28:18Z</time></trkpt><trkpt lat="46.187481262144516" lon="13.361671266039371"><ele>867.0</ele><time>2026-04-22T16:28:19Z</time></trkpt><trkpt lat="46.18747410042749" lon="13.361576572393187"><ele>867.0</ele><time>2026-04-22T16:28:20Z</time></trkpt><trkpt lat="46.18750095534484" lon="13.361487700186922"><ele>867.0</ele><time>2026-04-22T16:28:21Z</time></trkpt><trkpt lat="46.18756562780892" lon="13.361428001246223"><ele>867.0</ele><time>2026-04-22T16:28:22Z</time></trkpt><trkpt lat="46.18764726444182" lon="13.361394058845676"><ele>867.0</ele><time>2026-04-22T16:28:23Z</time></trkpt><trkpt lat="46.18772439257095" lon="13.36134200408365"><ele>867.0</ele><time>2026-04-22T16:28:24Z</time></trkpt><trkpt lat="46.18778656988262" lon="13.361278228822487"><ele>867.0</ele><time>2026-04-22T16:28:25Z</time></trkpt><trkpt lat="46.18784206127514" lon="13.361210675631037"><ele>867.0</ele><time>2026-04-22T16:28:26Z</time></trkpt><trkpt lat="46.187906011989696" lon="13.361053619714745"><ele>867.0</ele><time>2026-04-22T16:28:28Z</time></trkpt><trkpt lat="46.187850082370325" lon="13.360954519258247"><ele>864.5</ele><time>2026-04-22T16:28:29Z</time></trkpt><trkpt lat="46.18778267082259" lon="13.360902859719477"><ele>862.0</ele><time>2026-04-22T16:28:30Z</time></trkpt><trkpt lat="46.18770436401918" lon="13.360897727654802"><ele>859.5</ele><time>2026-04-22T16:28:31Z</time></trkpt><trkpt lat="46.187615788244706" lon="13.360917166665688"><ele>857.0</ele><time>2026-04-22T16:28:32Z</time></trkpt><trkpt lat="46.187519995063404" lon="13.36091686557336"><ele>854.5</ele><time>2026-04-22T16:28:33Z</time></trkpt><trkpt lat="46.18741820496792" lon="13.36090732985572"><ele>852.0</ele><time>2026-04-22T16:28:34Z</time></trkpt><trkpt lat="46.18731351578734" lon="13.360930080889615"><ele>849.2</ele><time>2026-04-22T16:28:34.999Z</time></trkpt><trkpt lat="46.18721466460941" lon="13.360975387341854"><ele>846.4000000000001</ele><time>2026-04-22T16:28:35.999Z</time></trkpt><trkpt lat="46.187111880464236" lon="13.360990243052266"><ele>843.5999999999999</ele><time>2026-04-22T16:28:36.999Z</time></trkpt><trkpt lat="46.18700517640841" lon="13.360923645841046"><ele>840.8</ele><time>2026-04-22T16:28:37.999Z</time></trkpt><trkpt lat="46.186918417734354" lon="13.360905493532098"><ele>838.0</ele><time>2026-04-22T16:28:38.999Z</time></trkpt><trkpt lat="46.186853484394234" lon="13.360857483797869"><ele>837.9999999999999</ele><time>2026-04-22T16:28:39.999Z</time></trkpt><trkpt lat="46.18681179852427" lon="13.36077828058953"><ele>838.0</ele><time>2026-04-22T16:28:40.999Z</time></trkpt><trkpt lat="46.186814622251745" lon="13.360655999717721"><ele>838.0</ele><time>2026-04-22T16:28:41.999Z</time></trkpt><trkpt lat="46.18683980484611" lon="13.360536188892471"><ele>838.0</ele><time>2026-04-22T16:28:42.999Z</time></trkpt><trkpt lat="46.18685840005351" lon="13.360419892472349"><ele>837.9999999999999</ele><time>2026-04-22T16:28:43.999Z</time></trkpt><trkpt lat="46.18686586242407" lon="13.36031350760769"><ele>838.0</ele><time>2026-04-22T16:28:44.999Z</time></trkpt><trkpt lat="46.18683513592499" lon="13.360197804420867"><ele>837.25</ele><time>2026-04-22T16:28:45.999Z</time></trkpt><trkpt lat="46.18680683649231" lon="13.360064093772937"><ele>836.5</ele><time>2026-04-22T16:28:46.999Z</time></trkpt><trkpt lat="46.18676437740577" lon="13.359913540051283"><ele>835.75</ele><time>2026-04-22T16:28:47.999Z</time></trkpt><trkpt lat="46.186735173379326" lon="13.359736122203737"><ele>835.0</ele><time>2026-04-22T16:28:48.999Z</time></trkpt><trkpt lat="46.18667999268236" lon="13.359556758788909"><ele>832.3333333333333</ele><time>2026-04-22T16:28:49.999Z</time></trkpt><trkpt lat="46.18663944421734" lon="13.359346916301515"><ele>829.6666666666667</ele><time>2026-04-22T16:28:50.999Z</time></trkpt><trkpt lat="46.18659625382012" lon="13.359129178957064"><ele>827.0</ele><time>2026-04-22T16:28:51.999Z</time></trkpt><trkpt lat="46.186558403666524" lon="13.358911905426087"><ele>825.5</ele><time>2026-04-22T16:28:52.999Z</time></trkpt><trkpt lat="46.18652816566387" lon="13.358718992905327"><ele>824.0</ele><time>2026-04-22T16:28:53.999Z</time></trkpt><trkpt lat="46.18649999637413" lon="13.358541373840584"><ele>822.5</ele><time>2026-04-22T16:28:54.999Z</time></trkpt><trkpt lat="46.18646959258634" lon="13.358369620190627"><ele>821.0</ele><time>2026-04-22T16:28:55.999Z</time></trkpt><trkpt lat="46.186434032789236" lon="13.358194653482105"><ele>817.75</ele><time>2026-04-22T16:28:56.999Z</time></trkpt><trkpt lat="46.18638724707797" lon="13.35802767184562"><ele>814.5</ele><time>2026-04-22T16:28:57.999Z</time></trkpt><trkpt lat="46.1863333534419" lon="13.357870739510933"><ele>811.25</ele><time>2026-04-22T16:28:58.999Z</time></trkpt><trkpt lat="46.18626493522254" lon="13.35772865485689"><ele>808.0</ele><time>2026-04-22T16:28:59.999Z</time></trkpt><trkpt lat="46.186184502155996" lon="13.357593426937798"><ele>808.0</ele><time>2026-04-22T16:29:00.999Z</time></trkpt><trkpt lat="46.18610834319659" lon="13.357448437149925"><ele>808.0</ele><time>2026-04-22T16:29:01.999Z</time></trkpt><trkpt lat="46.18603029750991" lon="13.35730533806656"><ele>808.0</ele><time>2026-04-22T16:29:02.999Z</time></trkpt><trkpt lat="46.18594480838216" lon="13.35718203173292"><ele>808.0</ele><time>2026-04-22T16:29:03.999Z</time></trkpt><trkpt lat="46.18587053854693" lon="13.357053527020462"><ele>807.25</ele><time>2026-04-22T16:29:04.999Z</time></trkpt><trkpt lat="46.18581780843446" lon="13.356890814305235"><ele>806.5</ele><time>2026-04-22T16:29:05.999Z</time></trkpt><trkpt lat="46.18578305921621" lon="13.356704083286603"><ele>805.75</ele><time>2026-04-22T16:29:06.999Z</time></trkpt><trkpt lat="46.185759197314" lon="13.356527298250098"><ele>805.0</ele><time>2026-04-22T16:29:07.999Z</time></trkpt><trkpt lat="46.18572369032856" lon="13.35637104327291"><ele>805.8333333333333</ele><time>2026-04-22T16:29:08.999Z</time></trkpt><trkpt lat="46.18568298946306" lon="13.35625012742766"><ele>806.6666666666666</ele><time>2026-04-22T16:29:09.999Z</time></trkpt><trkpt lat="46.18563388003454" lon="13.356150769383873"><ele>807.5</ele><time>2026-04-22T16:29:10.999Z</time></trkpt><trkpt lat="46.18556716564425" lon="13.35608066841439"><ele>808.3333333333333</ele><time>2026-04-22T16:29:11.999Z</time></trkpt><trkpt lat="46.185489699274505" lon="13.356059233843215"><ele>809.1666666666666</ele><time>2026-04-22T16:29:12.999Z</time></trkpt><trkpt lat="46.18540714622356" lon="13.356039137877339"><ele>810.0</ele><time>2026-04-22T16:29:13.999Z</time></trkpt><trkpt lat="46.18533832722716" lon="13.355979851263877"><ele>810.0</ele><time>2026-04-22T16:29:14.999Z</time></trkpt><trkpt lat="46.18530363314925" lon="13.355872677151948"><ele>810.0</ele><time>2026-04-22T16:29:15.999Z</time></trkpt><trkpt lat="46.185263605160735" lon="13.355754280570945"><ele>810.0</ele><time>2026-04-22T16:29:16.999Z</time></trkpt><trkpt lat="46.185248417738634" lon="13.355612735958573"><ele>810.0</ele><time>2026-04-22T16:29:17.999Z</time></trkpt><trkpt lat="46.18523592290044" lon="13.355483853193123"><ele>810.0</ele><time>2026-04-22T16:29:18.999Z</time></trkpt><trkpt lat="46.185219229412226" lon="13.35536172839105"><ele>810.0</ele><time>2026-04-22T16:29:19.999Z</time></trkpt><trkpt lat="46.185188920021155" lon="13.355248475524167"><ele>808.0</ele><time>2026-04-22T16:29:20.999Z</time></trkpt><trkpt lat="46.18513719445742" lon="13.355150326248564"><ele>806.0</ele><time>2026-04-22T16:29:21.999Z</time></trkpt><trkpt lat="46.185050140728926" lon="13.35506130235466"><ele>804.0</ele><time>2026-04-22T16:29:22.999Z</time></trkpt><trkpt lat="46.184952100093206" lon="13.354969482528253"><ele>802.0</ele><time>2026-04-22T16:29:23.999Z</time></trkpt><trkpt lat="46.184861355818896" lon="13.354857170342592"><ele>800.0</ele><time>2026-04-22T16:29:24.999Z</time></trkpt><trkpt lat="46.18479256898188" lon="13.354729707937633"><ele>797.8</ele><time>2026-04-22T16:29:25.999Z</time></trkpt><trkpt lat="46.18474105993066" lon="13.35459919562792"><ele>795.6</ele><time>2026-04-22T16:29:26.999Z</time></trkpt><trkpt lat="46.18470200389705" lon="13.354463115967343"><ele>793.4000000000001</ele><time>2026-04-22T16:29:27.999Z</time></trkpt><trkpt lat="46.18467565019403" lon="13.354310089505898"><ele>791.2</ele><time>2026-04-22T16:29:28.999Z</time></trkpt><trkpt lat="46.184662642686106" lon="13.354149391671008"><ele>789.0</ele><time>2026-04-22T16:29:29.999Z</time></trkpt><trkpt lat="46.184645290602184" lon="13.353995188005124"><ele>786.0</ele><time>2026-04-22T16:29:30.999Z</time></trkpt><trkpt lat="46.184621006477265" lon="13.353851301035927"><ele>783.0</ele><time>2026-04-22T16:29:31.999Z</time></trkpt><trkpt lat="46.18461133975682" lon="13.353712249279242"><ele>780.0</ele><time>2026-04-22T16:29:32.999Z</time></trkpt><trkpt lat="46.1846070400523" lon="13.353570145834594"><ele>777.0</ele><time>2026-04-22T16:29:33.999Z</time></trkpt><trkpt lat="46.18460929111284" lon="13.353430188149913"><ele>774.0</ele><time>2026-04-22T16:29:34.999Z</time></trkpt><trkpt lat="46.18461443058493" lon="13.353295138293934"><ele>774.0</ele><time>2026-04-22T16:29:35.999Z</time></trkpt><trkpt lat="46.18461864407555" lon="13.353179740448669"><ele>774.0</ele><time>2026-04-22T16:29:36.999Z</time></trkpt><trkpt lat="46.18459456078019" lon="13.35306849372637"><ele>774.0</ele><time>2026-04-22T16:29:37.999Z</time></trkpt><trkpt lat="46.184539601794924" lon="13.352965502657684"><ele>774.0</ele><time>2026-04-22T16:29:38.999Z</time></trkpt><trkpt lat="46.1844536421355" lon="13.352875351011077"><ele>774.0</ele><time>2026-04-22T16:29:39.999Z</time></trkpt><trkpt lat="46.18435259327358" lon="13.352800961039147"><ele>774.0</ele><time>2026-04-22T16:29:40.999Z</time></trkpt><trkpt lat="46.18424281662744" lon="13.352720111000238"><ele>774.0</ele><time>2026-04-22T16:29:41.999Z</time></trkpt><trkpt lat="46.18413460525007" lon="13.35263443179676"><ele>774.0</ele><time>2026-04-22T16:29:43Z</time></trkpt><trkpt lat="46.18403797059059" lon="13.352547949919094"><ele>774.0</ele><time>2026-04-22T16:29:44Z</time></trkpt><trkpt lat="46.18395414908768" lon="13.352455902202605"><ele>772.8571428571429</ele><time>2026-04-22T16:29:45Z</time></trkpt><trkpt lat="46.1838898227971" lon="13.35238658867839"><ele>771.7142857142858</ele><time>2026-04-22T16:29:46Z</time></trkpt><trkpt lat="46.18384654872526" lon="13.352309134631184"><ele>770.5714285714286</ele><time>2026-04-22T16:29:47Z</time></trkpt><trkpt lat="46.18383452881047" lon="13.352217388132251"><ele>769.4285714285714</ele><time>2026-04-22T16:29:48Z</time></trkpt><trkpt lat="46.183843699971945" lon="13.352119279973147"><ele>768.2857142857142</ele><time>2026-04-22T16:29:49Z</time></trkpt><trkpt lat="46.183829006249" lon="13.352018318866262"><ele>767.1428571428571</ele><time>2026-04-22T16:29:50Z</time></trkpt><trkpt lat="46.18376861915369" lon="13.351919510818327"><ele>766.0</ele><time>2026-04-22T16:29:51Z</time></trkpt><trkpt lat="46.18369312178773" lon="13.3518479226126"><ele>766.0</ele><time>2026-04-22T16:29:52Z</time></trkpt><trkpt lat="46.183604120946846" lon="13.351809827917737"><ele>766.0</ele><time>2026-04-22T16:29:53Z</time></trkpt><trkpt lat="46.183512778509886" lon="13.351794744109572"><ele>766.0</ele><time>2026-04-22T16:29:54Z</time></trkpt><trkpt lat="46.183424789695266" lon="13.35178291706709"><ele>766.0</ele><time>2026-04-22T16:29:55Z</time></trkpt><trkpt lat="46.183338811727225" lon="13.35176023194592"><ele>766.0</ele><time>2026-04-22T16:29:56Z</time></trkpt><trkpt lat="46.18325555042548" lon="13.351736340953446"><ele>766.0</ele><time>2026-04-22T16:29:57Z</time></trkpt><trkpt lat="46.18317493871108" lon="13.351712989787332"><ele>766.0</ele><time>2026-04-22T16:29:58Z</time></trkpt><trkpt lat="46.18310291362211" lon="13.351671813408018"><ele>766.0</ele><time>2026-04-22T16:29:59Z</time></trkpt><trkpt lat="46.18304502464627" lon="13.351591769346792"><ele>766.0</ele><time>2026-04-22T16:30:00Z</time></trkpt><trkpt lat="46.18302229587631" lon="13.351483153618375"><ele>766.0</ele><time>2026-04-22T16:30:01Z</time></trkpt><trkpt lat="46.1830412701174" lon="13.351378020415417"><ele>766.0</ele><time>2026-04-22T16:30:02Z</time></trkpt><trkpt lat="46.18310163693571" lon="13.351278474026198"><ele>766.0</ele><time>2026-04-22T16:30:03Z</time></trkpt><trkpt lat="46.1831811403398" lon="13.351182894357569"><ele>766.0</ele><time>2026-04-22T16:30:04Z</time></trkpt><trkpt lat="46.183263708449225" lon="13.351075386715332"><ele>766.0</ele><time>2026-04-22T16:30:05Z</time></trkpt><trkpt lat="46.183343127599095" lon="13.350959030181324"><ele>766.0</ele><time>2026-04-22T16:30:06Z</time></trkpt><trkpt lat="46.18341414499959" lon="13.35084443799496"><ele>766.0</ele><time>2026-04-22T16:30:07Z</time></trkpt><trkpt lat="46.18348129877318" lon="13.350739046780557"><ele>766.0</ele><time>2026-04-22T16:30:08Z</time></trkpt><trkpt lat="46.18355248874553" lon="13.350669572717258"><ele>766.0</ele><time>2026-04-22T16:30:09Z</time></trkpt><trkpt lat="46.18362347540628" lon="13.350627518904378"><ele>766.0</ele><time>2026-04-22T16:30:10Z</time></trkpt><trkpt lat="46.1836893611362" lon="13.350570100220386"><ele>766.0</ele><time>2026-04-22T16:30:12Z</time></trkpt><trkpt lat="46.18367265365869" lon="13.350438189329825"><ele>766.0</ele><time>2026-04-22T16:30:14Z</time></trkpt><trkpt lat="46.18358000563381" lon="13.350433654710839"><ele>766.0</ele><time>2026-04-22T16:30:15Z</time></trkpt><trkpt lat="46.18349988277056" lon="13.350448904636597"><ele>766.0</ele><time>2026-04-22T16:30:16Z</time></trkpt><trkpt lat="46.18340726000397" lon="13.35045136972472"><ele>760.0</ele><time>2026-04-22T16:30:17Z</time></trkpt><trkpt lat="46.18329968859612" lon="13.350457042477391"><ele>754.0</ele><time>2026-04-22T16:30:18Z</time></trkpt><trkpt lat="46.1831875041098" lon="13.350479258534866"><ele>748.0</ele><time>2026-04-22T16:30:19Z</time></trkpt><trkpt lat="46.183077488262064" lon="13.350523495392194"><ele>742.0</ele><time>2026-04-22T16:30:20Z</time></trkpt><trkpt lat="46.18295737454869" lon="13.350589116655053"><ele>742.0</ele><time>2026-04-22T16:30:21Z</time></trkpt><trkpt lat="46.18282579804196" lon="13.350670441639512"><ele>742.0</ele><time>2026-04-22T16:30:22Z</time></trkpt><trkpt lat="46.182687669318746" lon="13.350764194726226"><ele>742.0</ele><time>2026-04-22T16:30:23Z</time></trkpt><trkpt lat="46.18256198104441" lon="13.350851278468364"><ele>742.0</ele><time>2026-04-22T16:30:24Z</time></trkpt><trkpt lat="46.18244629926504" lon="13.350933887000622"><ele>735.0</ele><time>2026-04-22T16:30:25Z</time></trkpt><trkpt lat="46.18234270014103" lon="13.351023677409895"><ele>728.0</ele><time>2026-04-22T16:30:26Z</time></trkpt><trkpt lat="46.18223884320768" lon="13.351113084592088"><ele>721.0</ele><time>2026-04-22T16:30:27Z</time></trkpt><trkpt lat="46.18213613523617" lon="13.351202577927415"><ele>714.0</ele><time>2026-04-22T16:30:28Z</time></trkpt><trkpt lat="46.18205547476179" lon="13.351305361564213"><ele>714.1666666666666</ele><time>2026-04-22T16:30:29Z</time></trkpt><trkpt lat="46.18199313020245" lon="13.351414051345866"><ele>714.3333333333334</ele><time>2026-04-22T16:30:30Z</time></trkpt><trkpt lat="46.1819385562144" lon="13.351523019970568"><ele>714.5</ele><time>2026-04-22T16:30:31Z</time></trkpt><trkpt lat="46.18189762675822" lon="13.351596075526652"><ele>714.6666666666667</ele><time>2026-04-22T16:30:32Z</time></trkpt><trkpt lat="46.181812415897994" lon="13.351634079608203"><ele>714.8333333333334</ele><time>2026-04-22T16:30:34Z</time></trkpt><trkpt lat="46.181790333947944" lon="13.351504269803993"><ele>715.0</ele><time>2026-04-22T16:30:36Z</time></trkpt><trkpt lat="46.18188447032103" lon="13.351432947202154"><ele>714.8</ele><time>2026-04-22T16:30:37Z</time></trkpt><trkpt lat="46.181923899546796" lon="13.351311475635352"><ele>714.6</ele><time>2026-04-22T16:30:38Z</time></trkpt><trkpt lat="46.18196204975873" lon="13.351178931987844"><ele>714.4000000000001</ele><time>2026-04-22T16:30:39Z</time></trkpt><trkpt lat="46.18197944738888" lon="13.351045506508015"><ele>714.2</ele><time>2026-04-22T16:30:40Z</time></trkpt><trkpt lat="46.18198201705475" lon="13.350925320464976"><ele>714.0</ele><time>2026-04-22T16:30:41Z</time></trkpt><trkpt lat="46.18195094413041" lon="13.350810721142443"><ele>714.0</ele><time>2026-04-22T16:30:42Z</time></trkpt><trkpt lat="46.18190141617244" lon="13.350710061919077"><ele>714.0</ele><time>2026-04-22T16:30:43Z</time></trkpt><trkpt lat="46.18184665391473" lon="13.350608908053058"><ele>714.0</ele><time>2026-04-22T16:30:43.999Z</time></trkpt><trkpt lat="46.18181375686562" lon="13.350486559097165"><ele>714.0</ele><time>2026-04-22T16:30:44.999Z</time></trkpt><trkpt lat="46.18181284273354" lon="13.35035545365658"><ele>714.0</ele><time>2026-04-22T16:30:45.999Z</time></trkpt><trkpt lat="46.181830848723315" lon="13.350233003319403"><ele>714.0</ele><time>2026-04-22T16:30:46.999Z</time></trkpt><trkpt lat="46.181860636882796" lon="13.350116229444279"><ele>712.8000000000001</ele><time>2026-04-22T16:30:47.999Z</time></trkpt><trkpt lat="46.181816339229755" lon="13.349987605624305"><ele>711.6</ele><time>2026-04-22T16:30:48.999Z</time></trkpt><trkpt lat="46.18177548935267" lon="13.349864186591558"><ele>710.4</ele><time>2026-04-22T16:30:49.999Z</time></trkpt><trkpt lat="46.181731001103024" lon="13.349741591003712"><ele>709.2</ele><time>2026-04-22T16:30:50.999Z</time></trkpt><trkpt lat="46.18167289217242" lon="13.349623088856815"><ele>708.0</ele><time>2026-04-22T16:30:51.999Z</time></trkpt><trkpt lat="46.18160021087107" lon="13.349506475847072"><ele>705.0</ele><time>2026-04-22T16:30:52.999Z</time></trkpt><trkpt lat="46.181516271274226" lon="13.349388002977822"><ele>702.0</ele><time>2026-04-22T16:30:53.999Z</time></trkpt><trkpt lat="46.181427844479906" lon="13.349265127502628"><ele>699.0</ele><time>2026-04-22T16:30:54.999Z</time></trkpt><trkpt lat="46.181341018872" lon="13.349155136705347"><ele>696.0</ele><time>2026-04-22T16:30:55.999Z</time></trkpt><trkpt lat="46.18125639892649" lon="13.349055896804062"><ele>694.8</ele><time>2026-04-22T16:30:56.999Z</time></trkpt><trkpt lat="46.18116412537689" lon="13.348958488592244"><ele>693.5999999999999</ele><time>2026-04-22T16:30:57.999Z</time></trkpt><trkpt lat="46.18107125981795" lon="13.34887068269608"><ele>692.4</ele><time>2026-04-22T16:30:58.999Z</time></trkpt><trkpt lat="46.18098761891286" lon="13.348795735470912"><ele>691.2</ele><time>2026-04-22T16:30:59.999Z</time></trkpt><trkpt lat="46.18090759462377" lon="13.348716729853168"><ele>690.0</ele><time>2026-04-22T16:31:00.999Z</time></trkpt><trkpt lat="46.180832598798" lon="13.34863118750038"><ele>689.2</ele><time>2026-04-22T16:31:01.999Z</time></trkpt><trkpt lat="46.18077186043038" lon="13.348529642262612"><ele>688.4</ele><time>2026-04-22T16:31:02.999Z</time></trkpt><trkpt lat="46.1807531170136" lon="13.348398133211951"><ele>687.5999999999999</ele><time>2026-04-22T16:31:03.999Z</time></trkpt><trkpt lat="46.18078010438883" lon="13.348269356129903"><ele>686.8</ele><time>2026-04-22T16:31:04.999Z</time></trkpt><trkpt lat="46.18083278086426" lon="13.34814346578546"><ele>686.0</ele><time>2026-04-22T16:31:05.999Z</time></trkpt><trkpt lat="46.180895007082405" lon="13.348021365206462"><ele>684.8</ele><time>2026-04-22T16:31:06.999Z</time></trkpt><trkpt lat="46.18095302359701" lon="13.34790407314452"><ele>683.5999999999999</ele><time>2026-04-22T16:31:07.999Z</time></trkpt><trkpt lat="46.18101201312135" lon="13.347804282587886"><ele>682.4</ele><time>2026-04-22T16:31:08.999Z</time></trkpt><trkpt lat="46.18108650544885" lon="13.34774035464696"><ele>681.2</ele><time>2026-04-22T16:31:09.999Z</time></trkpt><trkpt lat="46.18117640470559" lon="13.347730910376512"><ele>680.0</ele><time>2026-04-22T16:31:10.999Z</time></trkpt><trkpt lat="46.18126350337378" lon="13.347790027842338"><ele>680.0</ele><time>2026-04-22T16:31:11.999Z</time></trkpt><trkpt lat="46.181355350615995" lon="13.347839232585414"><ele>680.0</ele><time>2026-04-22T16:31:12.999Z</time></trkpt><trkpt lat="46.1814366291507" lon="13.347907355337552"><ele>680.0</ele><time>2026-04-22T16:31:13.999Z</time></trkpt><trkpt lat="46.18151721458483" lon="13.347962397090093"><ele>680.0</ele><time>2026-04-22T16:31:14.999Z</time></trkpt><trkpt lat="46.18160715179883" lon="13.348017694534422"><ele>680.0</ele><time>2026-04-22T16:31:15.999Z</time></trkpt><trkpt lat="46.18169395059218" lon="13.348074310281662"><ele>681.3333333333333</ele><time>2026-04-22T16:31:16.999Z</time></trkpt><trkpt lat="46.181769703736364" lon="13.348140525811258"><ele>682.6666666666666</ele><time>2026-04-22T16:31:17.999Z</time></trkpt><trkpt lat="46.181823554656084" lon="13.348236458423344"><ele>684.0</ele><time>2026-04-22T16:31:18.999Z</time></trkpt><trkpt lat="46.18185546314555" lon="13.34834414664142"><ele>685.3333333333334</ele><time>2026-04-22T16:31:19.999Z</time></trkpt><trkpt lat="46.181875633740184" lon="13.34843584242855"><ele>686.6666666666667</ele><time>2026-04-22T16:31:20.999Z</time></trkpt><trkpt lat="46.18193502512813" lon="13.348523384338163"><ele>688.0</ele><time>2026-04-22T16:31:22.999Z</time></trkpt><trkpt lat="46.18200710553294" lon="13.348461684910177"><ele>688.0</ele><time>2026-04-22T16:31:24.999Z</time></trkpt><trkpt lat="46.18201040930325" lon="13.34836547191209"><ele>688.0</ele><time>2026-04-22T16:31:25.999Z</time></trkpt><trkpt lat="46.18197391581046" lon="13.34825392525391"><ele>688.0</ele><time>2026-04-22T16:31:26.999Z</time></trkpt><trkpt lat="46.18192941627521" lon="13.348126079154973"><ele>688.0</ele><time>2026-04-22T16:31:27.999Z</time></trkpt><trkpt lat="46.18186418686745" lon="13.347965149110482"><ele>688.0</ele><time>2026-04-22T16:31:28.999Z</time></trkpt><trkpt lat="46.18178262896848" lon="13.347789830856637"><ele>684.0</ele><time>2026-04-22T16:31:29.999Z</time></trkpt><trkpt lat="46.181705298181384" lon="13.347616533942805"><ele>680.0</ele><time>2026-04-22T16:31:30.999Z</time></trkpt><trkpt lat="46.181629531606816" lon="13.34742663129284"><ele>676.0</ele><time>2026-04-22T16:31:31.999Z</time></trkpt><trkpt lat="46.18154272180873" lon="13.347222585858091"><ele>673.25</ele><time>2026-04-22T16:31:32.999Z</time></trkpt><trkpt lat="46.18145397147095" lon="13.347023506955518"><ele>670.5</ele><time>2026-04-22T16:31:33.999Z</time></trkpt><trkpt lat="46.18137308616717" lon="13.346849446562192"><ele>667.75</ele><time>2026-04-22T16:31:34.999Z</time></trkpt><trkpt lat="46.181304551784564" lon="13.34670032194065"><ele>665.0</ele><time>2026-04-22T16:31:35.999Z</time></trkpt><trkpt lat="46.181237646001655" lon="13.34657722428754"><ele>665.0</ele><time>2026-04-22T16:31:36.999Z</time></trkpt><trkpt lat="46.181159345769984" lon="13.346479569912189"><ele>665.0</ele><time>2026-04-22T16:31:37.999Z</time></trkpt><trkpt lat="46.18107047273438" lon="13.346402452230427"><ele>665.0</ele><time>2026-04-22T16:31:38.999Z</time></trkpt><trkpt lat="46.180974967331736" lon="13.346354452882464"><ele>665.0</ele><time>2026-04-22T16:31:39.999Z</time></trkpt><trkpt lat="46.18088087020875" lon="13.346327749287287"><ele>665.0</ele><time>2026-04-22T16:31:40.999Z</time></trkpt><trkpt lat="46.18080594245803" lon="13.346332085900594"><ele>660.0</ele><time>2026-04-22T16:31:41.999Z</time></trkpt><trkpt lat="46.18072633216588" lon="13.346292768469892"><ele>655.0</ele><time>2026-04-22T16:31:43.999Z</time></trkpt><trkpt lat="46.180763710389456" lon="13.34618993567534"><ele>650.0</ele><time>2026-04-22T16:31:45.999Z</time></trkpt><trkpt lat="46.18087723952146" lon="13.346161415599768"><ele>645.0</ele><time>2026-04-22T16:31:47.999Z</time></trkpt><trkpt lat="46.18095775925711" lon="13.346158965746525"><ele>640.0</ele><time>2026-04-22T16:31:49Z</time></trkpt><trkpt lat="46.1810571683756" lon="13.346135048479871"><ele>640.0</ele><time>2026-04-22T16:31:50Z</time></trkpt><trkpt lat="46.18115346347929" lon="13.346140483442243"><ele>640.0</ele><time>2026-04-22T16:31:51Z</time></trkpt><trkpt lat="46.181239915638514" lon="13.346171003429928"><ele>640.0</ele><time>2026-04-22T16:31:52Z</time></trkpt><trkpt lat="46.18132596110847" lon="13.34622378363147"><ele>640.0</ele><time>2026-04-22T16:31:53Z</time></trkpt><trkpt lat="46.18140771087849" lon="13.34629972385632"><ele>640.0</ele><time>2026-04-22T16:31:54Z</time></trkpt><trkpt lat="46.18147548093379" lon="13.346399717304449"><ele>641.8</ele><time>2026-04-22T16:31:55Z</time></trkpt><trkpt lat="46.18153478679243" lon="13.346499427114829"><ele>643.6</ele><time>2026-04-22T16:31:56Z</time></trkpt><trkpt lat="46.18158817925443" lon="13.3465652571134"><ele>645.4000000000001</ele><time>2026-04-22T16:31:57Z</time></trkpt><trkpt lat="46.18170592075762" lon="13.346576759323984"><ele>647.2</ele><time>2026-04-22T16:31:59Z</time></trkpt><trkpt lat="46.18177248379777" lon="13.346508503118118"><ele>649.0</ele><time>2026-04-22T16:32:00Z</time></trkpt><trkpt lat="46.18179603492293" lon="13.346342862344988"><ele>649.0</ele><time>2026-04-22T16:32:01Z</time></trkpt><trkpt lat="46.18184025120782" lon="13.346172952000748"><ele>649.0</ele><time>2026-04-22T16:32:02Z</time></trkpt><trkpt lat="46.181892103165225" lon="13.345988104084288"><ele>649.0</ele><time>2026-04-22T16:32:03Z</time></trkpt><trkpt lat="46.181937943392455" lon="13.345814965824992"><ele>649.0</ele><time>2026-04-22T16:32:04Z</time></trkpt><trkpt lat="46.18198437827331" lon="13.34566318854"><ele>645.0</ele><time>2026-04-22T16:32:05Z</time></trkpt><trkpt lat="46.18202882916426" lon="13.345519642626211"><ele>641.0</ele><time>2026-04-22T16:32:06Z</time></trkpt><trkpt lat="46.18206434223179" lon="13.345387103422926"><ele>637.0</ele><time>2026-04-22T16:32:07Z</time></trkpt><trkpt lat="46.1820865857811" lon="13.345257333581113"><ele>633.0</ele><time>2026-04-22T16:32:08Z</time></trkpt><trkpt lat="46.18209644331091" lon="13.3451151466484"><ele>629.0</ele><time>2026-04-22T16:32:09Z</time></trkpt><trkpt lat="46.1820406215122" lon="13.34496448009362"><ele>629.0</ele><time>2026-04-22T16:32:10Z</time></trkpt><trkpt lat="46.18199214517391" lon="13.344807444027284"><ele>629.0</ele><time>2026-04-22T16:32:11Z</time></trkpt><trkpt lat="46.18197917435694" lon="13.34465147721302"><ele>629.0</ele><time>2026-04-22T16:32:12Z</time></trkpt><trkpt lat="46.181985419081165" lon="13.344487554811403"><ele>629.0</ele><time>2026-04-22T16:32:13Z</time></trkpt><trkpt lat="46.18199632954636" lon="13.344340563238891"><ele>629.0</ele><time>2026-04-22T16:32:14Z</time></trkpt><trkpt lat="46.18201367522897" lon="13.344208554767304"><ele>625.6</ele><time>2026-04-22T16:32:15Z</time></trkpt><trkpt lat="46.18204288502702" lon="13.344088127325977"><ele>622.2</ele><time>2026-04-22T16:32:16Z</time></trkpt><trkpt lat="46.18208728580669" lon="13.343987086205084"><ele>618.8000000000001</ele><time>2026-04-22T16:32:17Z</time></trkpt><trkpt lat="46.182152544022514" lon="13.343882792507705"><ele>615.4</ele><time>2026-04-22T16:32:18Z</time></trkpt><trkpt lat="46.18221884836952" lon="13.343755268166436"><ele>612.0</ele><time>2026-04-22T16:32:19Z</time></trkpt><trkpt lat="46.18227370219715" lon="13.343600124252688"><ele>607.8000000000001</ele><time>2026-04-22T16:32:20Z</time></trkpt><trkpt lat="46.182335252216994" lon="13.343451781992439"><ele>603.6</ele><time>2026-04-22T16:32:21Z</time></trkpt><trkpt lat="46.182403185139925" lon="13.343333745246046"><ele>599.4000000000001</ele><time>2026-04-22T16:32:22Z</time></trkpt><trkpt lat="46.182463273836895" lon="13.34320749470673"><ele>595.2</ele><time>2026-04-22T16:32:23Z</time></trkpt><trkpt lat="46.1825032284804" lon="13.343048476116492"><ele>591.0</ele><time>2026-04-22T16:32:24Z</time></trkpt><trkpt lat="46.18252115531113" lon="13.34287353652689"><ele>599.4</ele><time>2026-04-22T16:32:25Z</time></trkpt><trkpt lat="46.18253003398526" lon="13.342702016548241"><ele>607.8</ele><time>2026-04-22T16:32:26Z</time></trkpt><trkpt lat="46.18253941779631" lon="13.342542412258588"><ele>616.1999999999999</ele><time>2026-04-22T16:32:27Z</time></trkpt><trkpt lat="46.18253688702614" lon="13.342387897085864"><ele>624.6</ele><time>2026-04-22T16:32:28Z</time></trkpt><trkpt lat="46.18251406835371" lon="13.342232297783807"><ele>633.0</ele><time>2026-04-22T16:32:29Z</time></trkpt><trkpt lat="46.182470199931885" lon="13.342076105897043"><ele>633.0</ele><time>2026-04-22T16:32:30Z</time></trkpt><trkpt lat="46.18244612370374" lon="13.341934122633758"><ele>633.0</ele><time>2026-04-22T16:32:31Z</time></trkpt><trkpt lat="46.18244118760422" lon="13.341804674416808"><ele>633.0</ele><time>2026-04-22T16:32:32Z</time></trkpt><trkpt lat="46.18243400968008" lon="13.341671234796044"><ele>633.0</ele><time>2026-04-22T16:32:33Z</time></trkpt><trkpt lat="46.1824075768273" lon="13.34152956520274"><ele>633.0</ele><time>2026-04-22T16:32:34Z</time></trkpt><trkpt lat="46.182345923753076" lon="13.341375377840299"><ele>633.0</ele><time>2026-04-22T16:32:35Z</time></trkpt><trkpt lat="46.182276670976925" lon="13.341224886619724"><ele>633.0</ele><time>2026-04-22T16:32:36Z</time></trkpt><trkpt lat="46.1822230779868" lon="13.341082161201543"><ele>633.0</ele><time>2026-04-22T16:32:37Z</time></trkpt><trkpt lat="46.18216831032285" lon="13.340923505856026"><ele>633.0</ele><time>2026-04-22T16:32:38Z</time></trkpt><trkpt lat="46.18208186391875" lon="13.340761802678466"><ele>632.6666666666666</ele><time>2026-04-22T16:32:39Z</time></trkpt><trkpt lat="46.18196180575301" lon="13.340618400832684"><ele>632.3333333333333</ele><time>2026-04-22T16:32:40Z</time></trkpt><trkpt lat="46.18184329408853" lon="13.340475559922252"><ele>632.0</ele><time>2026-04-22T16:32:41Z</time></trkpt><trkpt lat="46.1817275919536" lon="13.340335982163683"><ele>632.0</ele><time>2026-04-22T16:32:42Z</time></trkpt><trkpt lat="46.18160897422734" lon="13.34020953541943"><ele>632.0</ele><time>2026-04-22T16:32:43Z</time></trkpt><trkpt lat="46.18149811096432" lon="13.34011704320811"><ele>632.0</ele><time>2026-04-22T16:32:44Z</time></trkpt><trkpt lat="46.18139375420189" lon="13.340047821230474"><ele>632.0</ele><time>2026-04-22T16:32:45Z</time></trkpt><trkpt lat="46.18130983599321" lon="13.339942053322295"><ele>625.4</ele><time>2026-04-22T16:32:46Z</time></trkpt><trkpt lat="46.1812260888024" lon="13.339809479568636"><ele>618.8000000000001</ele><time>2026-04-22T16:32:47Z</time></trkpt><trkpt lat="46.181152479440094" lon="13.339698522698887"><ele>612.2</ele><time>2026-04-22T16:32:48Z</time></trkpt><trkpt lat="46.18108255718887" lon="13.339597900674862"><ele>605.6</ele><time>2026-04-22T16:32:49Z</time></trkpt><trkpt lat="46.18101587781467" lon="13.339500152492915"><ele>599.0</ele><time>2026-04-22T16:32:49.999Z</time></trkpt><trkpt lat="46.18095326084828" lon="13.339417972289946"><ele>599.0</ele><time>2026-04-22T16:32:50.999Z</time></trkpt><trkpt lat="46.1809073743256" lon="13.339318164124185"><ele>599.0</ele><time>2026-04-22T16:32:51.999Z</time></trkpt><trkpt lat="46.180883761961084" lon="13.339171822306621"><ele>599.0</ele><time>2026-04-22T16:32:52.999Z</time></trkpt><trkpt lat="46.18088354146686" lon="13.338991792054331"><ele>599.0</ele><time>2026-04-22T16:32:53.999Z</time></trkpt><trkpt lat="46.1808810315657" lon="13.338828780467908"><ele>599.0</ele><time>2026-04-22T16:32:54.999Z</time></trkpt><trkpt lat="46.180875358790715" lon="13.338675935313914"><ele>599.0</ele><time>2026-04-22T16:32:55.999Z</time></trkpt><trkpt lat="46.180867253785195" lon="13.338520100060125"><ele>599.0</ele><time>2026-04-22T16:32:56.999Z</time></trkpt><trkpt lat="46.18086396728746" lon="13.338372006110214"><ele>599.0</ele><time>2026-04-22T16:32:57.999Z</time></trkpt><trkpt lat="46.180864423262555" lon="13.338228483920531"><ele>599.0</ele><time>2026-04-22T16:32:58.999Z</time></trkpt><trkpt lat="46.18087747446222" lon="13.338091947395965"><ele>599.0</ele><time>2026-04-22T16:32:59.999Z</time></trkpt><trkpt lat="46.18091216333079" lon="13.337968260617505"><ele>598.2</ele><time>2026-04-22T16:33:00.999Z</time></trkpt><trkpt lat="46.18095709522303" lon="13.337849551506611"><ele>597.4</ele><time>2026-04-22T16:33:01.999Z</time></trkpt><trkpt lat="46.18098510559453" lon="13.33772657167972"><ele>596.6</ele><time>2026-04-22T16:33:02.999Z</time></trkpt><trkpt lat="46.180985258396575" lon="13.337591832123733"><ele>595.8</ele><time>2026-04-22T16:33:03.999Z</time></trkpt><trkpt lat="46.18094832404193" lon="13.337428709396766"><ele>595.0</ele><time>2026-04-22T16:33:04.999Z</time></trkpt><trkpt lat="46.18088959690168" lon="13.337238274390437"><ele>594.0</ele><time>2026-04-22T16:33:05.999Z</time></trkpt><trkpt lat="46.18083626961884" lon="13.337072199129608"><ele>593.0</ele><time>2026-04-22T16:33:06.999Z</time></trkpt><trkpt lat="46.18079320295389" lon="13.336924242101617"><ele>592.0</ele><time>2026-04-22T16:33:07.999Z</time></trkpt><trkpt lat="46.180710980006886" lon="13.336833354261863"><ele>591.0</ele><time>2026-04-22T16:33:08.999Z</time></trkpt><trkpt lat="46.18067068596068" lon="13.336727549886337"><ele>590.0</ele><time>2026-04-22T16:33:09.999Z</time></trkpt><trkpt lat="46.18064734464639" lon="13.33661355259331"><ele>588.5</ele><time>2026-04-22T16:33:10.999Z</time></trkpt><trkpt lat="46.180654766579735" lon="13.336479569785118"><ele>587.0</ele><time>2026-04-22T16:33:11.999Z</time></trkpt><trkpt lat="46.18067467757376" lon="13.336325305602488"><ele>585.5</ele><time>2026-04-22T16:33:12.999Z</time></trkpt><trkpt lat="46.18069065566621" lon="13.336208721238268"><ele>584.0</ele><time>2026-04-22T16:33:13.999Z</time></trkpt><trkpt lat="46.180715686391075" lon="13.33610705245208"><ele>582.5</ele><time>2026-04-22T16:33:14.999Z</time></trkpt><trkpt lat="46.18075755955618" lon="13.33600596615073"><ele>581.0</ele><time>2026-04-22T16:33:15.999Z</time></trkpt><trkpt lat="46.18082830443748" lon="13.335909491010845"><ele>581.0</ele><time>2026-04-22T16:33:16.999Z</time></trkpt><trkpt lat="46.18089193105535" lon="13.335800251228008"><ele>581.0</ele><time>2026-04-22T16:33:17.999Z</time></trkpt><trkpt lat="46.18092708353371" lon="13.335660787218666"><ele>581.0</ele><time>2026-04-22T16:33:18.999Z</time></trkpt><trkpt lat="46.180942066687564" lon="13.335519171541492"><ele>581.0</ele><time>2026-04-22T16:33:19.999Z</time></trkpt><trkpt lat="46.1809636555645" lon="13.335389193748641"><ele>581.0</ele><time>2026-04-22T16:33:20.999Z</time></trkpt><trkpt lat="46.181015179072986" lon="13.33526907809234"><ele>576.5</ele><time>2026-04-22T16:33:21.999Z</time></trkpt><trkpt lat="46.18109009415317" lon="13.335157005823104"><ele>572.0</ele><time>2026-04-22T16:33:22.999Z</time></trkpt><trkpt lat="46.181166088192235" lon="13.33502613872185"><ele>567.5</ele><time>2026-04-22T16:33:23.999Z</time></trkpt><trkpt lat="46.181238136498564" lon="13.33487215339984"><ele>563.0</ele><time>2026-04-22T16:33:24.999Z</time></trkpt><trkpt lat="46.18130447170545" lon="13.334697932666325"><ele>567.0</ele><time>2026-04-22T16:33:25.999Z</time></trkpt><trkpt lat="46.18137106600232" lon="13.334511355796257"><ele>571.0</ele><time>2026-04-22T16:33:26.999Z</time></trkpt><trkpt lat="46.18144596323789" lon="13.334351096904106"><ele>575.0</ele><time>2026-04-22T16:33:27.999Z</time></trkpt><trkpt lat="46.18151998910558" lon="13.334194475819693"><ele>579.0</ele><time>2026-04-22T16:33:28.999Z</time></trkpt><trkpt lat="46.18158032142198" lon="13.334021777486397"><ele>573.75</ele><time>2026-04-22T16:33:29.999Z</time></trkpt><trkpt lat="46.18162673699645" lon="13.333846516687453"><ele>568.5</ele><time>2026-04-22T16:33:30.999Z</time></trkpt><trkpt lat="46.18166578010766" lon="13.33368305105969"><ele>563.25</ele><time>2026-04-22T16:33:31.999Z</time></trkpt><trkpt lat="46.1816952096444" lon="13.333504015960747"><ele>558.0</ele><time>2026-04-22T16:33:32.999Z</time></trkpt><trkpt lat="46.18171042424297" lon="13.33330991100705"><ele>558.0</ele><time>2026-04-22T16:33:33.999Z</time></trkpt><trkpt lat="46.18173113084903" lon="13.33311475261553"><ele>558.0</ele><time>2026-04-22T16:33:34.999Z</time></trkpt><trkpt lat="46.181753211932204" lon="13.332925802932314"><ele>558.0</ele><time>2026-04-22T16:33:35.999Z</time></trkpt><trkpt lat="46.18176372926928" lon="13.33273635703523"><ele>558.0</ele><time>2026-04-22T16:33:36.999Z</time></trkpt><trkpt lat="46.18176603577075" lon="13.332556119461342"><ele>555.0</ele><time>2026-04-22T16:33:37.999Z</time></trkpt><trkpt lat="46.1817788084677" lon="13.332376359991462"><ele>552.0</ele><time>2026-04-22T16:33:38.999Z</time></trkpt><trkpt lat="46.18180327194841" lon="13.332207906554123"><ele>549.0</ele><time>2026-04-22T16:33:39.999Z</time></trkpt><trkpt lat="46.18181376803295" lon="13.332046807506057"><ele>546.0</ele><time>2026-04-22T16:33:40.999Z</time></trkpt><trkpt lat="46.181800301950375" lon="13.331886001249455"><ele>545.8</ele><time>2026-04-22T16:33:41.999Z</time></trkpt><trkpt lat="46.18175411780381" lon="13.331727687890416"><ele>545.6</ele><time>2026-04-22T16:33:42.999Z</time></trkpt><trkpt lat="46.181694060608024" lon="13.331584338985788"><ele>545.4</ele><time>2026-04-22T16:33:43.999Z</time></trkpt><trkpt lat="46.18165537260765" lon="13.331447235635324"><ele>545.2</ele><time>2026-04-22T16:33:44.999Z</time></trkpt><trkpt lat="46.18164160529353" lon="13.331306941126636"><ele>545.0</ele><time>2026-04-22T16:33:45.999Z</time></trkpt><trkpt lat="46.1816554129788" lon="13.331115586543769"><ele>544.5</ele><time>2026-04-22T16:33:46.999Z</time></trkpt><trkpt lat="46.18166138833857" lon="13.330894012664906"><ele>544.0</ele><time>2026-04-22T16:33:47.999Z</time></trkpt><trkpt lat="46.18166025291286" lon="13.330687427191773"><ele>543.5</ele><time>2026-04-22T16:33:48.999Z</time></trkpt><trkpt lat="46.181649779062155" lon="13.330504652041697"><ele>543.0</ele><time>2026-04-22T16:33:49.999Z</time></trkpt><trkpt lat="46.181636712821" lon="13.330326757164901"><ele>541.6</ele><time>2026-04-22T16:33:50.999Z</time></trkpt><trkpt lat="46.18164355252989" lon="13.330161963844859"><ele>540.1999999999999</ele><time>2026-04-22T16:33:51.999Z</time></trkpt><trkpt lat="46.18166435948155" lon="13.330015627854822"><ele>538.8</ele><time>2026-04-22T16:33:52.999Z</time></trkpt><trkpt lat="46.1816774834039" lon="13.329884893966602"><ele>537.4</ele><time>2026-04-22T16:33:53.999Z</time></trkpt><trkpt lat="46.181653784543506" lon="13.329759186436974"><ele>536.0</ele><time>2026-04-22T16:33:55Z</time></trkpt><trkpt lat="46.18159087810342" lon="13.329662815652483"><ele>531.0</ele><time>2026-04-22T16:33:56Z</time></trkpt><trkpt lat="46.18151089446889" lon="13.329595159897519"><ele>526.0</ele><time>2026-04-22T16:33:57Z</time></trkpt><trkpt lat="46.1814431790834" lon="13.329534739784622"><ele>521.0</ele><time>2026-04-22T16:33:58Z</time></trkpt><trkpt lat="46.18139142721772" lon="13.32946481588867"><ele>516.0</ele><time>2026-04-22T16:33:59Z</time></trkpt><trkpt lat="46.18128702558866" lon="13.329393515103797"><ele>510.99999999999994</ele><time>2026-04-22T16:34:01Z</time></trkpt><trkpt lat="46.18122759202219" lon="13.329448015248731"><ele>506.0</ele><time>2026-04-22T16:34:02Z</time></trkpt><trkpt lat="46.18122000638475" lon="13.329618099249478"><ele>505.99999999999994</ele><time>2026-04-22T16:34:04Z</time></trkpt><trkpt lat="46.18128122664842" lon="13.329701859134834"><ele>506.0</ele><time>2026-04-22T16:34:05Z</time></trkpt><trkpt lat="46.18135858458998" lon="13.32976784046545"><ele>506.0</ele><time>2026-04-22T16:34:06Z</time></trkpt><trkpt lat="46.18141977082623" lon="13.329823625154875"><ele>506.0</ele><time>2026-04-22T16:34:07Z</time></trkpt><trkpt lat="46.18146001267218" lon="13.329926752723944"><ele>505.99999999999994</ele><time>2026-04-22T16:34:09Z</time></trkpt><trkpt lat="46.1813653939277" lon="13.32996926894466"><ele>506.0</ele><time>2026-04-22T16:34:11Z</time></trkpt><trkpt lat="46.181288180047105" lon="13.329885652757042"><ele>506.0</ele><time>2026-04-22T16:34:12Z</time></trkpt><trkpt lat="46.18119009889935" lon="13.329806733565748"><ele>506.0</ele><time>2026-04-22T16:34:13Z</time></trkpt><trkpt lat="46.18107129037471" lon="13.32978280848303"><ele>506.0</ele><time>2026-04-22T16:34:14Z</time></trkpt><trkpt lat="46.180962334070266" lon="13.329791205898756"><ele>506.0</ele><time>2026-04-22T16:34:15Z</time></trkpt><trkpt lat="46.18086345813344" lon="13.329763861143224"><ele>506.0</ele><time>2026-04-22T16:34:16Z</time></trkpt><trkpt lat="46.1807619279528" lon="13.329690485710898"><ele>499.8</ele><time>2026-04-22T16:34:17Z</time></trkpt><trkpt lat="46.180670202122286" lon="13.329570716290657"><ele>493.6</ele><time>2026-04-22T16:34:18Z</time></trkpt><trkpt lat="46.180591944754894" lon="13.329441134776644"><ele>487.4</ele><time>2026-04-22T16:34:19Z</time></trkpt><trkpt lat="46.18052964183091" lon="13.329318678474191"><ele>481.2</ele><time>2026-04-22T16:34:20Z</time></trkpt><trkpt lat="46.18048813678338" lon="13.329223068864884"><ele>475.0</ele><time>2026-04-22T16:34:21Z</time></trkpt><trkpt lat="46.1804888908959" lon="13.329043967220782"><ele>475.0</ele><time>2026-04-22T16:34:23Z</time></trkpt><trkpt lat="46.1805502487715" lon="13.328976296167331"><ele>475.0</ele><time>2026-04-22T16:34:24Z</time></trkpt><trkpt lat="46.18063989974929" lon="13.328957465314563"><ele>475.0</ele><time>2026-04-22T16:34:25Z</time></trkpt><trkpt lat="46.18073640500374" lon="13.328942117706942"><ele>475.0</ele><time>2026-04-22T16:34:26Z</time></trkpt><trkpt lat="46.180841550349236" lon="13.328860275193021"><ele>475.0</ele><time>2026-04-22T16:34:27Z</time></trkpt><trkpt lat="46.180954757969666" lon="13.328746948625081"><ele>476.25</ele><time>2026-04-22T16:34:28Z</time></trkpt><trkpt lat="46.18107646552144" lon="13.328642015062714"><ele>477.5</ele><time>2026-04-22T16:34:29Z</time></trkpt><trkpt lat="46.18119407575591" lon="13.328525683655018"><ele>478.75</ele><time>2026-04-22T16:34:30Z</time></trkpt><trkpt lat="46.18130287855366" lon="13.328400505239088"><ele>480.0</ele><time>2026-04-22T16:34:31Z</time></trkpt><trkpt lat="46.18140271335061" lon="13.32829344264551"><ele>480.0</ele><time>2026-04-22T16:34:32Z</time></trkpt><trkpt lat="46.18150710041277" lon="13.328210352032343"><ele>480.0</ele><time>2026-04-22T16:34:33Z</time></trkpt><trkpt lat="46.18162147760988" lon="13.328137710642194"><ele>480.0</ele><time>2026-04-22T16:34:34Z</time></trkpt><trkpt lat="46.181732658938145" lon="13.32804848903658"><ele>480.0</ele><time>2026-04-22T16:34:35Z</time></trkpt><trkpt lat="46.18183754625926" lon="13.327911172519219"><ele>476.25</ele><time>2026-04-22T16:34:36Z</time></trkpt><trkpt lat="46.181968024419085" lon="13.327786702004566"><ele>472.5</ele><time>2026-04-22T16:34:37Z</time></trkpt><trkpt lat="46.18207581151817" lon="13.327662039061968"><ele>468.75</ele><time>2026-04-22T16:34:38Z</time></trkpt><trkpt lat="46.18216519209621" lon="13.327549280284146"><ele>465.0</ele><time>2026-04-22T16:34:39Z</time></trkpt><trkpt lat="46.182236357658255" lon="13.327445660131229"><ele>465.0</ele><time>2026-04-22T16:34:40Z</time></trkpt><trkpt lat="46.18230328939704" lon="13.327377930901159"><ele>465.0</ele><time>2026-04-22T16:34:41Z</time></trkpt><trkpt lat="46.1823796308342" lon="13.32732602979524"><ele>465.0</ele><time>2026-04-22T16:34:42Z</time></trkpt><trkpt lat="46.18248634257089" lon="13.327369283364158"><ele>465.0</ele><time>2026-04-22T16:34:43Z</time></trkpt><trkpt lat="46.18261990124341" lon="13.327381690956976"><ele>465.0</ele><time>2026-04-22T16:34:44Z</time></trkpt><trkpt lat="46.1827566534406" lon="13.327380089797204"><ele>468.8</ele><time>2026-04-22T16:34:45Z</time></trkpt><trkpt lat="46.18288388399001" lon="13.327356332082465"><ele>472.6</ele><time>2026-04-22T16:34:46Z</time></trkpt><trkpt lat="46.18299461210784" lon="13.327344424811114"><ele>476.4</ele><time>2026-04-22T16:34:47Z</time></trkpt><trkpt lat="46.183096120428615" lon="13.327342679369862"><ele>480.2</ele><time>2026-04-22T16:34:48Z</time></trkpt><trkpt lat="46.18319664121942" lon="13.327378162016542"><ele>484.0</ele><time>2026-04-22T16:34:49Z</time></trkpt><trkpt lat="46.18328587845242" lon="13.327424777971721"><ele>484.6</ele><time>2026-04-22T16:34:50Z</time></trkpt><trkpt lat="46.183373948730576" lon="13.327416077299853"><ele>485.2</ele><time>2026-04-22T16:34:51Z</time></trkpt><trkpt lat="46.183463959548924" lon="13.32733845556317"><ele>485.80000000000007</ele><time>2026-04-22T16:34:52Z</time></trkpt><trkpt lat="46.18355014827964" lon="13.327201804025478"><ele>486.40000000000003</ele><time>2026-04-22T16:34:52.999Z</time></trkpt><trkpt lat="46.183641147995935" lon="13.327086243668813"><ele>487.0</ele><time>2026-04-22T16:34:53.999Z</time></trkpt><trkpt lat="46.18372543567283" lon="13.326998448686403"><ele>480.20000000000005</ele><time>2026-04-22T16:34:54.999Z</time></trkpt><trkpt lat="46.183792349272665" lon="13.326898011348197"><ele>473.40000000000003</ele><time>2026-04-22T16:34:55.999Z</time></trkpt><trkpt lat="46.183840202826794" lon="13.326784913138058"><ele>466.59999999999997</ele><time>2026-04-22T16:34:56.999Z</time></trkpt><trkpt lat="46.18385995154518" lon="13.326649630824752"><ele>459.79999999999995</ele><time>2026-04-22T16:34:57.999Z</time></trkpt><trkpt lat="46.183838780663685" lon="13.326477118478097"><ele>453.0</ele><time>2026-04-22T16:34:58.999Z</time></trkpt><trkpt lat="46.18382341335514" lon="13.3263015369861"><ele>448.75</ele><time>2026-04-22T16:34:59.999Z</time></trkpt><trkpt lat="46.18379170305193" lon="13.326121867828904"><ele>444.5</ele><time>2026-04-22T16:35:00.999Z</time></trkpt><trkpt lat="46.18375815212955" lon="13.325925108861892"><ele>440.25</ele><time>2026-04-22T16:35:01.999Z</time></trkpt><trkpt lat="46.18372667794935" lon="13.325749782421292"><ele>436.0</ele><time>2026-04-22T16:35:02.999Z</time></trkpt><trkpt lat="46.183694020617196" lon="13.325594806388219"><ele>434.1666666666667</ele><time>2026-04-22T16:35:03.999Z</time></trkpt><trkpt lat="46.18366528923361" lon="13.32545371826978"><ele>432.33333333333337</ele><time>2026-04-22T16:35:04.999Z</time></trkpt><trkpt lat="46.183659924676476" lon="13.32531346077426"><ele>430.5</ele><time>2026-04-22T16:35:05.999Z</time></trkpt><trkpt lat="46.18366922491615" lon="13.325188890248947"><ele>428.66666666666663</ele><time>2026-04-22T16:35:06.999Z</time></trkpt><trkpt lat="46.183686899456724" lon="13.325082408110726"><ele>426.8333333333333</ele><time>2026-04-22T16:35:07.999Z</time></trkpt><trkpt lat="46.183712647214186" lon="13.324995550715077"><ele>425.0</ele><time>2026-04-22T16:35:08.999Z</time></trkpt><trkpt lat="46.18369826996807" lon="13.324861229727276"><ele>425.0</ele><time>2026-04-22T16:35:10.999Z</time></trkpt><trkpt lat="46.18363277600073" lon="13.324844832864974"><ele>425.0</ele><time>2026-04-22T16:35:11.999Z</time></trkpt><trkpt lat="46.18356785239199" lon="13.324931349013148"><ele>425.0</ele><time>2026-04-22T16:35:12.999Z</time></trkpt><trkpt lat="46.183577452036076" lon="13.32510040877448"><ele>425.0</ele><time>2026-04-22T16:35:13.999Z</time></trkpt><trkpt lat="46.18355412428822" lon="13.325238596550994"><ele>425.0</ele><time>2026-04-22T16:35:14.999Z</time></trkpt><trkpt lat="46.18353462434651" lon="13.325408914490108"><ele>427.75</ele><time>2026-04-22T16:35:15.999Z</time></trkpt><trkpt lat="46.18352157550707" lon="13.325619811316383"><ele>430.5</ele><time>2026-04-22T16:35:16.999Z</time></trkpt><trkpt lat="46.18349308715704" lon="13.325797115320738"><ele>433.25</ele><time>2026-04-22T16:35:17.999Z</time></trkpt><trkpt lat="46.18348216485777" lon="13.325965313400577"><ele>436.0</ele><time>2026-04-22T16:35:18.999Z</time></trkpt><trkpt lat="46.18348366406304" lon="13.326107864108705"><ele>436.00000000000006</ele><time>2026-04-22T16:35:19.999Z</time></trkpt><trkpt lat="46.18345092671991" lon="13.326219706118097"><ele>436.0</ele><time>2026-04-22T16:35:20.999Z</time></trkpt><trkpt lat="46.18337946336815" lon="13.326303607899417"><ele>436.0</ele><time>2026-04-22T16:35:21.999Z</time></trkpt><trkpt lat="46.1833013960038" lon="13.326337030370517"><ele>436.0</ele><time>2026-04-22T16:35:22.999Z</time></trkpt><trkpt lat="46.18322289339032" lon="13.326365742426118"><ele>436.00000000000006</ele><time>2026-04-22T16:35:24.999Z</time></trkpt><trkpt lat="46.18316171476344" lon="13.326301747529229"><ele>436.0</ele><time>2026-04-22T16:35:25.999Z</time></trkpt><trkpt lat="46.18330874388091" lon="13.326224628961912"><ele>436.0</ele><time>2026-04-22T16:35:26.999Z</time></trkpt><trkpt lat="46.18338507201174" lon="13.326072184633126"><ele>436.0</ele><time>2026-04-22T16:35:28.999Z</time></trkpt><trkpt lat="46.18336549619123" lon="13.325886907625623"><ele>436.0</ele><time>2026-04-22T16:35:30.999Z</time></trkpt><trkpt lat="46.183319805746244" lon="13.325745647192278"><ele>436.0</ele><time>2026-04-22T16:35:31.999Z</time></trkpt><trkpt lat="46.1832904942607" lon="13.325568763572173"><ele>433.25</ele><time>2026-04-22T16:35:32.999Z</time></trkpt><trkpt lat="46.18329107445957" lon="13.325386070815165"><ele>430.5</ele><time>2026-04-22T16:35:33.999Z</time></trkpt><trkpt lat="46.18328660508721" lon="13.325180779667194"><ele>427.75</ele><time>2026-04-22T16:35:34.999Z</time></trkpt><trkpt lat="46.183279304240585" lon="13.32496089179415"><ele>425.0</ele><time>2026-04-22T16:35:35.999Z</time></trkpt><trkpt lat="46.18326925370733" lon="13.324774248411076"><ele>422.3333333333333</ele><time>2026-04-22T16:35:36.999Z</time></trkpt><trkpt lat="46.18326037422511" lon="13.324626391977878"><ele>419.66666666666663</ele><time>2026-04-22T16:35:37.999Z</time></trkpt><trkpt lat="46.18323943346181" lon="13.324498600111049"><ele>417.0</ele><time>2026-04-22T16:35:38.999Z</time></trkpt><trkpt lat="46.18319640164289" lon="13.324394672067704"><ele>414.33333333333337</ele><time>2026-04-22T16:35:39.999Z</time></trkpt><trkpt lat="46.18312675255521" lon="13.324327080826944"><ele>411.6666666666667</ele><time>2026-04-22T16:35:40.999Z</time></trkpt><trkpt lat="46.183050842988855" lon="13.324288873766703"><ele>409.0</ele><time>2026-04-22T16:35:41.999Z</time></trkpt><trkpt lat="46.182998111633026" lon="13.324227109226683"><ele>405.00000000000006</ele><time>2026-04-22T16:35:42.999Z</time></trkpt><trkpt lat="46.18297357706067" lon="13.324131132603322"><ele>401.0</ele><time>2026-04-22T16:35:43.999Z</time></trkpt><trkpt lat="46.182975390747146" lon="13.324017474452825"><ele>397.0</ele><time>2026-04-22T16:35:44.999Z</time></trkpt><trkpt lat="46.182979633688106" lon="13.323925851812307"><ele>393.0</ele><time>2026-04-22T16:35:45.999Z</time></trkpt><trkpt lat="46.183045200854615" lon="13.323789279714063"><ele>389.00000000000006</ele><time>2026-04-22T16:35:47.999Z</time></trkpt><trkpt lat="46.18311606651507" lon="13.323758235360051"><ele>385.0</ele><time>2026-04-22T16:35:48.999Z</time></trkpt><trkpt lat="46.183196907992624" lon="13.32374312265746"><ele>385.0</ele><time>2026-04-22T16:35:49.999Z</time></trkpt><trkpt lat="46.18326423698027" lon="13.323722037282261"><ele>385.0</ele><time>2026-04-22T16:35:50.999Z</time></trkpt><trkpt lat="46.183369211734515" lon="13.323698388133282"><ele>385.0</ele><time>2026-04-22T16:35:52.999Z</time></trkpt><trkpt lat="46.18343102235379" lon="13.323769053978092"><ele>385.0</ele><time>2026-04-22T16:35:53.999Z</time></trkpt><trkpt lat="46.18350816802815" lon="13.323873407819258"><ele>385.0</ele><time>2026-04-22T16:35:54.999Z</time></trkpt><trkpt lat="46.18359142093438" lon="13.323931132995286"><ele>385.0</ele><time>2026-04-22T16:35:55.999Z</time></trkpt><trkpt lat="46.18367252585521" lon="13.323966298013103"><ele>385.0</ele><time>2026-04-22T16:35:56.999Z</time></trkpt><trkpt lat="46.183751439521856" lon="13.323989956936881"><ele>385.0</ele><time>2026-04-22T16:35:57.999Z</time></trkpt><trkpt lat="46.183829003661074" lon="13.323988690644569"><ele>385.0</ele><time>2026-04-22T16:35:58.999Z</time></trkpt><trkpt lat="46.18393275315359" lon="13.323961059429811"><ele>385.0</ele><time>2026-04-22T16:35:59.999Z</time></trkpt><trkpt lat="46.18404108111522" lon="13.323893555429397"><ele>385.0</ele><time>2026-04-22T16:36:01Z</time></trkpt><trkpt lat="46.18414645937496" lon="13.323815952613023"><ele>385.0</ele><time>2026-04-22T16:36:02Z</time></trkpt><trkpt lat="46.18423880332961" lon="13.32372665394492"><ele>385.0</ele><time>2026-04-22T16:36:03Z</time></trkpt><trkpt lat="46.184329601193625" lon="13.323634248564723"><ele>385.0</ele><time>2026-04-22T16:36:04Z</time></trkpt><trkpt lat="46.184405782444664" lon="13.32352340714424"><ele>385.0</ele><time>2026-04-22T16:36:05Z</time></trkpt><trkpt lat="46.18446010614473" lon="13.323395267385918"><ele>385.00000000000006</ele><time>2026-04-22T16:36:06Z</time></trkpt><trkpt lat="46.18450409562747" lon="13.323294725606944"><ele>385.0</ele><time>2026-04-22T16:36:07Z</time></trkpt><trkpt lat="46.18455382046759" lon="13.323229790087531"><ele>385.0</ele><time>2026-04-22T16:36:08Z</time></trkpt><trkpt lat="46.184614605620816" lon="13.32319115255521"><ele>385.0</ele><time>2026-04-22T16:36:09Z</time></trkpt><trkpt lat="46.184702716281464" lon="13.323216468471244"><ele>385.00000000000006</ele><time>2026-04-22T16:36:10Z</time></trkpt><trkpt lat="46.1847858841625" lon="13.323234637476999"><ele>385.0</ele><time>2026-04-22T16:36:11Z</time></trkpt><trkpt lat="46.1848727320522" lon="13.32317951643602"><ele>383.8</ele><time>2026-04-22T16:36:12Z</time></trkpt><trkpt lat="46.18494200875587" lon="13.323049611892518"><ele>382.6</ele><time>2026-04-22T16:36:13Z</time></trkpt><trkpt lat="46.184999432808645" lon="13.322911646534523"><ele>381.4</ele><time>2026-04-22T16:36:14Z</time></trkpt><trkpt lat="46.18505711867292" lon="13.322773551314208"><ele>380.2</ele><time>2026-04-22T16:36:15Z</time></trkpt><trkpt lat="46.185109358244645" lon="13.322653423624327"><ele>379.0</ele><time>2026-04-22T16:36:16Z</time></trkpt><trkpt lat="46.18515877840629" lon="13.32255126017104"><ele>379.0</ele><time>2026-04-22T16:36:17Z</time></trkpt><trkpt lat="46.18523661089833" lon="13.322506077335055"><ele>379.0</ele><time>2026-04-22T16:36:18Z</time></trkpt><trkpt lat="46.18531822582249" lon="13.32243076889391"><ele>379.0</ele><time>2026-04-22T16:36:19Z</time></trkpt><trkpt lat="46.185379990770166" lon="13.322316735880644"><ele>379.0</ele><time>2026-04-22T16:36:20Z</time></trkpt><trkpt lat="46.18539921023722" lon="13.322183362656274"><ele>379.0</ele><time>2026-04-22T16:36:21Z</time></trkpt><trkpt lat="46.185391126788964" lon="13.322038955367791"><ele>375.4</ele><time>2026-04-22T16:36:22Z</time></trkpt><trkpt lat="46.18535416319489" lon="13.321891254996844"><ele>371.79999999999995</ele><time>2026-04-22T16:36:23Z</time></trkpt><trkpt lat="46.18529601002074" lon="13.321784323773254"><ele>368.20000000000005</ele><time>2026-04-22T16:36:24Z</time></trkpt><trkpt lat="46.18526946379357" lon="13.321662419494851"><ele>364.6</ele><time>2026-04-22T16:36:25Z</time></trkpt><trkpt lat="46.18526466512703" lon="13.321535372621534"><ele>361.0</ele><time>2026-04-22T16:36:26Z</time></trkpt><trkpt lat="46.18524381511504" lon="13.321402133804439"><ele>358.20000000000005</ele><time>2026-04-22T16:36:27Z</time></trkpt><trkpt lat="46.18527870868538" lon="13.32126880809476"><ele>355.40000000000003</ele><time>2026-04-22T16:36:28Z</time></trkpt><trkpt lat="46.185263915058464" lon="13.321129031428764"><ele>352.6</ele><time>2026-04-22T16:36:29Z</time></trkpt><trkpt lat="46.185264449813694" lon="13.321001173899495"><ele>349.8</ele><time>2026-04-22T16:36:30Z</time></trkpt><trkpt lat="46.18528060709022" lon="13.320881930273876"><ele>347.0</ele><time>2026-04-22T16:36:31Z</time></trkpt><trkpt lat="46.1853028202185" lon="13.3207650498226"><ele>347.0</ele><time>2026-04-22T16:36:32Z</time></trkpt><trkpt lat="46.185347573499065" lon="13.320678635804441"><ele>347.0</ele><time>2026-04-22T16:36:33Z</time></trkpt><trkpt lat="46.18544581198725" lon="13.320599500628232"><ele>347.0</ele><time>2026-04-22T16:36:35Z</time></trkpt><trkpt lat="46.185531724314515" lon="13.320675418183649"><ele>347.0</ele><time>2026-04-22T16:36:36Z</time></trkpt><trkpt lat="46.185618348491815" lon="13.320702372586352"><ele>347.0</ele><time>2026-04-22T16:36:37Z</time></trkpt><trkpt lat="46.185708818228065" lon="13.320671704007923"><ele>348.20000000000005</ele><time>2026-04-22T16:36:38Z</time></trkpt><trkpt lat="46.18579147015938" lon="13.320591630564934"><ele>349.4</ele><time>2026-04-22T16:36:39Z</time></trkpt><trkpt lat="46.185859190495854" lon="13.320473135339444"><ele>350.6</ele><time>2026-04-22T16:36:40Z</time></trkpt><trkpt lat="46.18592334712348" lon="13.320350333517446"><ele>351.79999999999995</ele><time>2026-04-22T16:36:41Z</time></trkpt><trkpt lat="46.185968212996336" lon="13.320199683774195"><ele>353.0</ele><time>2026-04-22T16:36:42Z</time></trkpt><trkpt lat="46.185987573490344" lon="13.32004498397412"><ele>353.0</ele><time>2026-04-22T16:36:43Z</time></trkpt><trkpt lat="46.186010585460316" lon="13.319909279129972"><ele>353.0</ele><time>2026-04-22T16:36:44Z</time></trkpt><trkpt lat="46.186077937267555" lon="13.319800486987424"><ele>353.0</ele><time>2026-04-22T16:36:45Z</time></trkpt><trkpt lat="46.18618778662351" lon="13.319738904012839"><ele>353.0</ele><time>2026-04-22T16:36:46Z</time></trkpt><trkpt lat="46.18628137069655" lon="13.319655227330118"><ele>353.0</ele><time>2026-04-22T16:36:47Z</time></trkpt><trkpt lat="46.18636122543408" lon="13.319568478006355"><ele>351.4</ele><time>2026-04-22T16:36:48Z</time></trkpt><trkpt lat="46.186431682091765" lon="13.319472305731534"><ele>349.79999999999995</ele><time>2026-04-22T16:36:49Z</time></trkpt><trkpt lat="46.18648816720372" lon="13.319357363081004"><ele>348.2</ele><time>2026-04-22T16:36:50Z</time></trkpt><trkpt lat="46.1865591170357" lon="13.319262027809549"><ele>346.6</ele><time>2026-04-22T16:36:51Z</time></trkpt><trkpt lat="46.1866346783308" lon="13.319172685320538"><ele>345.0</ele><time>2026-04-22T16:36:51.999Z</time></trkpt><trkpt lat="46.18671774817255" lon="13.3190878912121"><ele>345.0</ele><time>2026-04-22T16:36:52.999Z</time></trkpt><trkpt lat="46.18681005240605" lon="13.319003008093489"><ele>345.0</ele><time>2026-04-22T16:36:53.999Z</time></trkpt><trkpt lat="46.18689688094609" lon="13.318904082407501"><ele>345.0</ele><time>2026-04-22T16:36:54.999Z</time></trkpt><trkpt lat="46.1869583838624" lon="13.318817000296088"><ele>345.0</ele><time>2026-04-22T16:36:55.999Z</time></trkpt><trkpt lat="46.18703044438953" lon="13.318688813589228"><ele>345.0</ele><time>2026-04-22T16:36:57.999Z</time></trkpt><trkpt lat="46.18699708429206" lon="13.318496423505698"><ele>345.0</ele><time>2026-04-22T16:36:59.999Z</time></trkpt><trkpt lat="46.186917262441426" lon="13.318424070735412"><ele>345.0</ele><time>2026-04-22T16:37:00.999Z</time></trkpt><trkpt lat="46.186863610659685" lon="13.318323294838839"><ele>345.0</ele><time>2026-04-22T16:37:01.999Z</time></trkpt><trkpt lat="46.18687230925168" lon="13.31820060280434"><ele>345.0</ele><time>2026-04-22T16:37:02.999Z</time></trkpt><trkpt lat="46.1869232950411" lon="13.318074707757788"><ele>345.0</ele><time>2026-04-22T16:37:03.999Z</time></trkpt><trkpt lat="46.186991262289624" lon="13.317931872934894"><ele>347.0</ele><time>2026-04-22T16:37:04.999Z</time></trkpt><trkpt lat="46.1870475993011" lon="13.317759723861899"><ele>349.0</ele><time>2026-04-22T16:37:05.999Z</time></trkpt><trkpt lat="46.18710676463606" lon="13.31760457426293"><ele>351.0</ele><time>2026-04-22T16:37:06.999Z</time></trkpt><trkpt lat="46.187166774014095" lon="13.317466785120912"><ele>353.0</ele><time>2026-04-22T16:37:07.999Z</time></trkpt><trkpt lat="46.18722760983204" lon="13.317322193731515"><ele>351.2</ele><time>2026-04-22T16:37:08.999Z</time></trkpt><trkpt lat="46.18725619328974" lon="13.317174342591718"><ele>349.4</ele><time>2026-04-22T16:37:09.999Z</time></trkpt><trkpt lat="46.187307360893584" lon="13.31706222747695"><ele>347.59999999999997</ele><time>2026-04-22T16:37:10.999Z</time></trkpt><trkpt lat="46.18742916606322" lon="13.316975262138595"><ele>345.79999999999995</ele><time>2026-04-22T16:37:11.999Z</time></trkpt><trkpt lat="46.187515807033996" lon="13.316871207854089"><ele>344.0</ele><time>2026-04-22T16:37:12.999Z</time></trkpt><trkpt lat="46.18761557698955" lon="13.316796147700625"><ele>341.0</ele><time>2026-04-22T16:37:13.999Z</time></trkpt><trkpt lat="46.1877187668983" lon="13.316750010428306"><ele>338.0</ele><time>2026-04-22T16:37:14.999Z</time></trkpt><trkpt lat="46.187817131299134" lon="13.316723008169172"><ele>335.0</ele><time>2026-04-22T16:37:15.999Z</time></trkpt><trkpt lat="46.187914210762116" lon="13.316713172800377"><ele>332.0</ele><time>2026-04-22T16:37:16.999Z</time></trkpt><trkpt lat="46.18800288037847" lon="13.31669629424402"><ele>329.0</ele><time>2026-04-22T16:37:17.999Z</time></trkpt><trkpt lat="46.188062656819426" lon="13.316648268079472"><ele>329.0</ele><time>2026-04-22T16:37:18.999Z</time></trkpt><trkpt lat="46.18812278775957" lon="13.316569787313925"><ele>329.0</ele><time>2026-04-22T16:37:19.999Z</time></trkpt><trkpt lat="46.188200841511076" lon="13.316501520716729"><ele>329.0</ele><time>2026-04-22T16:37:21.999Z</time></trkpt><trkpt lat="46.18825093325599" lon="13.316634246918396"><ele>329.0</ele><time>2026-04-22T16:37:23.999Z</time></trkpt><trkpt lat="46.188174754827045" lon="13.316685190868975"><ele>329.0</ele><time>2026-04-22T16:37:24.999Z</time></trkpt><trkpt lat="46.18811119568427" lon="13.316747878094787"><ele>329.0</ele><time>2026-04-22T16:37:25.999Z</time></trkpt><trkpt lat="46.188023394963004" lon="13.316817125280169"><ele>329.0</ele><time>2026-04-22T16:37:26.999Z</time></trkpt><trkpt lat="46.187902224505876" lon="13.316875598088991"><ele>329.0</ele><time>2026-04-22T16:37:27.999Z</time></trkpt><trkpt lat="46.187796050289585" lon="13.316917452998979"><ele>329.0</ele><time>2026-04-22T16:37:28.999Z</time></trkpt><trkpt lat="46.187705408445844" lon="13.316979255401769"><ele>329.0</ele><time>2026-04-22T16:37:29.999Z</time></trkpt><trkpt lat="46.18763039233598" lon="13.317066337833374"><ele>329.0</ele><time>2026-04-22T16:37:30.999Z</time></trkpt><trkpt lat="46.18757264354555" lon="13.31717440390216"><ele>327.1666666666667</ele><time>2026-04-22T16:37:31.999Z</time></trkpt><trkpt lat="46.18755008850899" lon="13.317314881577323"><ele>325.33333333333337</ele><time>2026-04-22T16:37:32.999Z</time></trkpt><trkpt lat="46.18755424809812" lon="13.317454088356442"><ele>323.5</ele><time>2026-04-22T16:37:33.999Z</time></trkpt><trkpt lat="46.187531695717055" lon="13.317566585859007"><ele>321.6666666666667</ele><time>2026-04-22T16:37:34.999Z</time></trkpt><trkpt lat="46.18751552732655" lon="13.317662377272544"><ele>319.8333333333333</ele><time>2026-04-22T16:37:35.999Z</time></trkpt><trkpt lat="46.187491870046856" lon="13.317789084855953"><ele>318.0</ele><time>2026-04-22T16:37:37.999Z</time></trkpt><trkpt lat="46.187550675996654" lon="13.317841640902346"><ele>318.0</ele><time>2026-04-22T16:37:38.999Z</time></trkpt><trkpt lat="46.18762879917696" lon="13.317805724601836"><ele>318.0</ele><time>2026-04-22T16:37:39.999Z</time></trkpt><trkpt lat="46.18766408916228" lon="13.31765474475543"><ele>318.0</ele><time>2026-04-22T16:37:40.999Z</time></trkpt><trkpt lat="46.18768467690909" lon="13.317516248480842"><ele>318.0</ele><time>2026-04-22T16:37:41.999Z</time></trkpt><trkpt lat="46.18773134249937" lon="13.317394286331249"><ele>318.0</ele><time>2026-04-22T16:37:42.999Z</time></trkpt><trkpt lat="46.1877995024663" lon="13.317305263420577"><ele>318.0</ele><time>2026-04-22T16:37:43.999Z</time></trkpt><trkpt lat="46.18788586640646" lon="13.317268464732482"><ele>318.0</ele><time>2026-04-22T16:37:44.999Z</time></trkpt><trkpt lat="46.187983061725355" lon="13.317282556850158"><ele>318.0</ele><time>2026-04-22T16:37:45.999Z</time></trkpt><trkpt lat="46.188093097167894" lon="13.317313992333577"><ele>318.0</ele><time>2026-04-22T16:37:46.999Z</time></trkpt><trkpt lat="46.188194160198094" lon="13.317364866041691"><ele>318.0</ele><time>2026-04-22T16:37:47.999Z</time></trkpt><trkpt lat="46.18829063054575" lon="13.317393603581761"><ele>313.5</ele><time>2026-04-22T16:37:48.999Z</time></trkpt><trkpt lat="46.18837893070279" lon="13.317423571281113"><ele>309.0</ele><time>2026-04-22T16:37:49.999Z</time></trkpt><trkpt lat="46.188460524357716" lon="13.31744739974254"><ele>304.5</ele><time>2026-04-22T16:37:50.999Z</time></trkpt><trkpt lat="46.188514288026056" lon="13.317525351037105"><ele>300.0</ele><time>2026-04-22T16:37:51.999Z</time></trkpt><trkpt lat="46.18853099475276" lon="13.317628762772655"><ele>295.5</ele><time>2026-04-22T16:37:52.999Z</time></trkpt><trkpt lat="46.18860437406065" lon="13.317709910750777"><ele>291.0</ele><time>2026-04-22T16:37:54.999Z</time></trkpt><trkpt lat="46.18868902171919" lon="13.317603211792392"><ele>291.0</ele><time>2026-04-22T16:37:56.999Z</time></trkpt><trkpt lat="46.18864257209284" lon="13.317457608049452"><ele>291.0</ele><time>2026-04-22T16:37:57.999Z</time></trkpt><trkpt lat="46.18858618432422" lon="13.31734842034082"><ele>291.0</ele><time>2026-04-22T16:37:58.999Z</time></trkpt><trkpt lat="46.18856161670762" lon="13.31724295372894"><ele>291.0</ele><time>2026-04-22T16:37:59.999Z</time></trkpt><trkpt lat="46.18858029285274" lon="13.317137022606062"><ele>291.0</ele><time>2026-04-22T16:38:00.999Z</time></trkpt><trkpt lat="46.18864439014963" lon="13.317040551571417"><ele>295.75</ele><time>2026-04-22T16:38:01.999Z</time></trkpt><trkpt lat="46.18873916796644" lon="13.31692348191096"><ele>300.5</ele><time>2026-04-22T16:38:02.999Z</time></trkpt><trkpt lat="46.18879442380853" lon="13.316787923276282"><ele>305.25</ele><time>2026-04-22T16:38:03.999Z</time></trkpt><trkpt lat="46.188833987896125" lon="13.316615956757547"><ele>310.0</ele><time>2026-04-22T16:38:04.999Z</time></trkpt><trkpt lat="46.18888986439583" lon="13.316480278268802"><ele>312.5</ele><time>2026-04-22T16:38:05.999Z</time></trkpt><trkpt lat="46.18896883661599" lon="13.316377232956336"><ele>315.0</ele><time>2026-04-22T16:38:07Z</time></trkpt><trkpt lat="46.18908042099952" lon="13.31627260036117"><ele>317.5</ele><time>2026-04-22T16:38:08Z</time></trkpt><trkpt lat="46.18920136218588" lon="13.316164501447448"><ele>320.0</ele><time>2026-04-22T16:38:09Z</time></trkpt><trkpt lat="46.189311514278664" lon="13.316057618472943"><ele>312.6</ele><time>2026-04-22T16:38:10Z</time></trkpt><trkpt lat="46.18940987725243" lon="13.315962645722037"><ele>305.2</ele><time>2026-04-22T16:38:11Z</time></trkpt><trkpt lat="46.189497241075976" lon="13.315869611332394"><ele>297.8</ele><time>2026-04-22T16:38:12Z</time></trkpt><trkpt lat="46.189575444494906" lon="13.315792773125875"><ele>290.4</ele><time>2026-04-22T16:38:13Z</time></trkpt><trkpt lat="46.189649466173044" lon="13.315750523110431"><ele>283.0</ele><time>2026-04-22T16:38:14Z</time></trkpt><trkpt lat="46.18972287318903" lon="13.315671940571354"><ele>283.0</ele><time>2026-04-22T16:38:16Z</time></trkpt><trkpt lat="46.18977973692539" lon="13.31575476686855"><ele>283.0</ele><time>2026-04-22T16:38:18Z</time></trkpt><trkpt lat="46.18975140046318" lon="13.315840670685423"><ele>283.0</ele><time>2026-04-22T16:38:19Z</time></trkpt><trkpt lat="46.189645214609406" lon="13.315865787239398"><ele>283.0</ele><time>2026-04-22T16:38:20Z</time></trkpt><trkpt lat="46.1895594073382" lon="13.315954428708912"><ele>283.0</ele><time>2026-04-22T16:38:21Z</time></trkpt><trkpt lat="46.18945249161079" lon="13.31606504851814"><ele>283.0</ele><time>2026-04-22T16:38:22Z</time></trkpt><trkpt lat="46.18936975593535" lon="13.31622625809167"><ele>283.0</ele><time>2026-04-22T16:38:23Z</time></trkpt><trkpt lat="46.189297942076294" lon="13.316377280337509"><ele>283.0</ele><time>2026-04-22T16:38:24Z</time></trkpt><trkpt lat="46.18923587383246" lon="13.31650830937796"><ele>283.0</ele><time>2026-04-22T16:38:25Z</time></trkpt><trkpt lat="46.189181192223806" lon="13.316630103124012"><ele>280.6</ele><time>2026-04-22T16:38:26Z</time></trkpt><trkpt lat="46.18914856297874" lon="13.316802327598385"><ele>278.20000000000005</ele><time>2026-04-22T16:38:27Z</time></trkpt><trkpt lat="46.18914187448674" lon="13.316952353078527"><ele>275.8</ele><time>2026-04-22T16:38:28Z</time></trkpt><trkpt lat="46.18913211065687" lon="13.317062564148024"><ele>273.40000000000003</ele><time>2026-04-22T16:38:29Z</time></trkpt><trkpt lat="46.18913610413189" lon="13.317166133654354"><ele>271.0</ele><time>2026-04-22T16:38:30Z</time></trkpt><trkpt lat="46.189182807820735" lon="13.317269041893258"><ele>269.75</ele><time>2026-04-22T16:38:31Z</time></trkpt><trkpt lat="46.18928560794821" lon="13.31729450751306"><ele>268.5</ele><time>2026-04-22T16:38:32Z</time></trkpt><trkpt lat="46.189398786291235" lon="13.317289725301132"><ele>267.25</ele><time>2026-04-22T16:38:33Z</time></trkpt><trkpt lat="46.189544204347825" lon="13.317312983153892"><ele>266.0</ele><time>2026-04-22T16:38:34Z</time></trkpt><trkpt lat="46.189665275594685" lon="13.317323026625175"><ele>266.0</ele><time>2026-04-22T16:38:35Z</time></trkpt><trkpt lat="46.18977639262858" lon="13.317335156940246"><ele>266.0</ele><time>2026-04-22T16:38:36Z</time></trkpt><trkpt lat="46.18989323303026" lon="13.317343811377288"><ele>266.0</ele><time>2026-04-22T16:38:37Z</time></trkpt><trkpt lat="46.18996946780631" lon="13.317416805169376"><ele>266.0</ele><time>2026-04-22T16:38:38Z</time></trkpt><trkpt lat="46.19002279857095" lon="13.317466716683864"><ele>266.0</ele><time>2026-04-22T16:38:39Z</time></trkpt><trkpt lat="46.1900719312945" lon="13.317604172165918"><ele>266.0</ele><time>2026-04-22T16:38:41Z</time></trkpt><trkpt lat="46.19001220309414" lon="13.317685540397154"><ele>266.0</ele><time>2026-04-22T16:38:42Z</time></trkpt><trkpt lat="46.1899456639545" lon="13.317775911570406"><ele>266.0</ele><time>2026-04-22T16:38:43Z</time></trkpt><trkpt lat="46.189853877784316" lon="13.317904310562371"><ele>266.0</ele><time>2026-04-22T16:38:44Z</time></trkpt><trkpt lat="46.18974975055383" lon="13.31804997344911"><ele>266.0</ele><time>2026-04-22T16:38:45Z</time></trkpt><trkpt lat="46.189641367239126" lon="13.318199127871592"><ele>264.2</ele><time>2026-04-22T16:38:46Z</time></trkpt><trkpt lat="46.18954840302516" lon="13.318322638045794"><ele>262.40000000000003</ele><time>2026-04-22T16:38:47Z</time></trkpt><trkpt lat="46.189471828744885" lon="13.318440962357899"><ele>260.6</ele><time>2026-04-22T16:38:48Z</time></trkpt><trkpt lat="46.1894064093418" lon="13.31848561544326"><ele>258.8</ele><time>2026-04-22T16:38:49Z</time></trkpt><trkpt lat="46.18936025525435" lon="13.318571024259594"><ele>257.0</ele><time>2026-04-22T16:38:50Z</time></trkpt><trkpt lat="46.18934346350659" lon="13.318676749201204"><ele>257.0</ele><time>2026-04-22T16:38:51Z</time></trkpt><trkpt lat="46.189374266731875" lon="13.318784315195684"><ele>257.0</ele><time>2026-04-22T16:38:52Z</time></trkpt><trkpt lat="46.189464266706025" lon="13.318841543641687"><ele>257.0</ele><time>2026-04-22T16:38:53Z</time></trkpt><trkpt lat="46.18956708807682" lon="13.318806372681461"><ele>257.0</ele><time>2026-04-22T16:38:54Z</time></trkpt><trkpt lat="46.18968299077384" lon="13.318773962219119"><ele>257.0</ele><time>2026-04-22T16:38:55Z</time></trkpt><trkpt lat="46.1898244706813" lon="13.318731709796248"><ele>251.33333333333334</ele><time>2026-04-22T16:38:56Z</time></trkpt><trkpt lat="46.19002325774062" lon="13.318682627950432"><ele>245.66666666666669</ele><time>2026-04-22T16:38:57Z</time></trkpt><trkpt lat="46.19022772801847" lon="13.31863069794473"><ele>240.0</ele><time>2026-04-22T16:38:58Z</time></trkpt><trkpt lat="46.19043612841264" lon="13.318574884492882"><ele>240.0</ele><time>2026-04-22T16:38:58.999Z</time></trkpt><trkpt lat="46.19063230971539" lon="13.31855049316304"><ele>240.0</ele><time>2026-04-22T16:38:59.999Z</time></trkpt><trkpt lat="46.190800912995314" lon="13.318480461288978"><ele>240.0</ele><time>2026-04-22T16:39:00.999Z</time></trkpt><trkpt lat="46.19094004429045" lon="13.318446147408899"><ele>238.8</ele><time>2026-04-22T16:39:01.999Z</time></trkpt><trkpt lat="46.19105416460698" lon="13.318422790363092"><ele>237.6</ele><time>2026-04-22T16:39:02.999Z</time></trkpt><trkpt lat="46.19115411236833" lon="13.318423925938482"><ele>236.39999999999998</ele><time>2026-04-22T16:39:03.999Z</time></trkpt><trkpt lat="46.19123945093151" lon="13.318466122145953"><ele>235.2</ele><time>2026-04-22T16:39:04.999Z</time></trkpt><trkpt lat="46.19131653154734" lon="13.318576729928198"><ele>234.0</ele><time>2026-04-22T16:39:05.999Z</time></trkpt><trkpt lat="46.191389800664055" lon="13.318670241059795"><ele>234.0</ele><time>2026-04-22T16:39:06.999Z</time></trkpt><trkpt lat="46.19145411744628" lon="13.318753294846555"><ele>234.0</ele><time>2026-04-22T16:39:07.999Z</time></trkpt><trkpt lat="46.191527498384936" lon="13.318818983708875"><ele>234.0</ele><time>2026-04-22T16:39:08.999Z</time></trkpt><trkpt lat="46.19158087776655" lon="13.3188956410529"><ele>234.0</ele><time>2026-04-22T16:39:09.999Z</time></trkpt><trkpt lat="46.191654112771374" lon="13.318915181346249"><ele>234.0</ele><time>2026-04-22T16:39:10.999Z</time></trkpt><trkpt lat="46.191719843889274" lon="13.318812415800737"><ele>234.0</ele><time>2026-04-22T16:39:11.999Z</time></trkpt><trkpt lat="46.191773395189415" lon="13.31868107315115"><ele>230.0</ele><time>2026-04-22T16:39:12.999Z</time></trkpt><trkpt lat="46.19182996627401" lon="13.31852211738748"><ele>226.0</ele><time>2026-04-22T16:39:13.999Z</time></trkpt><trkpt lat="46.19188825090698" lon="13.318348760018308"><ele>222.0</ele><time>2026-04-22T16:39:14.999Z</time></trkpt><trkpt lat="46.19194368423475" lon="13.318192458494886"><ele>218.0</ele><time>2026-04-22T16:39:15.999Z</time></trkpt><trkpt lat="46.191996226161" lon="13.318043861385904"><ele>218.0</ele><time>2026-04-22T16:39:16.999Z</time></trkpt><trkpt lat="46.192041413335545" lon="13.31789528890457"><ele>218.0</ele><time>2026-04-22T16:39:17.999Z</time></trkpt><trkpt lat="46.192075603603925" lon="13.317743962982972"><ele>218.0</ele><time>2026-04-22T16:39:18.999Z</time></trkpt><trkpt lat="46.192104900001155" lon="13.31759821193378"><ele>218.0</ele><time>2026-04-22T16:39:19.999Z</time></trkpt><trkpt lat="46.192120185211685" lon="13.317468181343552"><ele>218.0</ele><time>2026-04-22T16:39:20.999Z</time></trkpt><trkpt lat="46.19213538320559" lon="13.3173572739582"><ele>217.75</ele><time>2026-04-22T16:39:21.999Z</time></trkpt><trkpt lat="46.19217012143342" lon="13.3172120844267"><ele>217.5</ele><time>2026-04-22T16:39:23.999Z</time></trkpt><trkpt lat="46.192214614221015" lon="13.317022693004924"><ele>217.25</ele><time>2026-04-22T16:39:25.999Z</time></trkpt><trkpt lat="46.19222055562665" lon="13.316880053655563"><ele>217.0</ele><time>2026-04-22T16:39:26.999Z</time></trkpt><trkpt lat="46.19222193425913" lon="13.31670791060432"><ele>217.0</ele><time>2026-04-22T16:39:27.999Z</time></trkpt><trkpt lat="46.19222192128184" lon="13.31651844878285"><ele>217.0</ele><time>2026-04-22T16:39:28.999Z</time></trkpt><trkpt lat="46.19221665537634" lon="13.31633791650589"><ele>217.0</ele><time>2026-04-22T16:39:29.999Z</time></trkpt><trkpt lat="46.19222202917733" lon="13.316157428586582"><ele>217.0</ele><time>2026-04-22T16:39:30.999Z</time></trkpt><trkpt lat="46.19222530993235" lon="13.31597821847132"><ele>217.0</ele><time>2026-04-22T16:39:31.999Z</time></trkpt><trkpt lat="46.19220987899427" lon="13.315790134239421"><ele>217.0</ele><time>2026-04-22T16:39:32.999Z</time></trkpt><trkpt lat="46.19218521534911" lon="13.31559684347796"><ele>217.0</ele><time>2026-04-22T16:39:33.999Z</time></trkpt><trkpt lat="46.192130135355434" lon="13.315389641108007"><ele>217.0</ele><time>2026-04-22T16:39:34.999Z</time></trkpt><trkpt lat="46.19206080195776" lon="13.31516403354498"><ele>216.33333333333331</ele><time>2026-04-22T16:39:35.999Z</time></trkpt><trkpt lat="46.191995712618464" lon="13.314932549642053"><ele>215.66666666666669</ele><time>2026-04-22T16:39:36.999Z</time></trkpt><trkpt lat="46.19194396082096" lon="13.31469537597707"><ele>215.0</ele><time>2026-04-22T16:39:37.999Z</time></trkpt><trkpt lat="46.19190773268363" lon="13.314458984843917"><ele>214.33333333333334</ele><time>2026-04-22T16:39:38.999Z</time></trkpt><trkpt lat="46.19187775894129" lon="13.31420548263238"><ele>213.66666666666669</ele><time>2026-04-22T16:39:39.999Z</time></trkpt><trkpt lat="46.19185571137744" lon="13.313952341254481"><ele>213.0</ele><time>2026-04-22T16:39:40.999Z</time></trkpt><trkpt lat="46.191822260877146" lon="13.313706442420292"><ele>212.33333333333331</ele><time>2026-04-22T16:39:41.999Z</time></trkpt><trkpt lat="46.191785802917614" lon="13.313477792455574"><ele>211.66666666666666</ele><time>2026-04-22T16:39:42.999Z</time></trkpt><trkpt lat="46.191751923134376" lon="13.313271646772675"><ele>211.0</ele><time>2026-04-22T16:39:43.999Z</time></trkpt><trkpt lat="46.191720722498886" lon="13.313064475253604"><ele>211.0</ele><time>2026-04-22T16:39:44.999Z</time></trkpt><trkpt lat="46.19168923720682" lon="13.312857307008839"><ele>211.0</ele><time>2026-04-22T16:39:45.999Z</time></trkpt><trkpt lat="46.19165798113158" lon="13.31264806588291"><ele>211.0</ele><time>2026-04-22T16:39:46.999Z</time></trkpt><trkpt lat="46.19162773453899" lon="13.312440992426115"><ele>211.0</ele><time>2026-04-22T16:39:47.999Z</time></trkpt><trkpt lat="46.191595154612926" lon="13.31223757502872"><ele>210.0</ele><time>2026-04-22T16:39:48.999Z</time></trkpt><trkpt lat="46.19156287380946" lon="13.312034298112094"><ele>209.0</ele><time>2026-04-22T16:39:49.999Z</time></trkpt><trkpt lat="46.191526583047825" lon="13.311828014997346"><ele>208.0</ele><time>2026-04-22T16:39:50.999Z</time></trkpt><trkpt lat="46.19149440896446" lon="13.311619968472145"><ele>207.0</ele><time>2026-04-22T16:39:51.999Z</time></trkpt><trkpt lat="46.191457201199086" lon="13.311415758149542"><ele>206.25</ele><time>2026-04-22T16:39:52.999Z</time></trkpt><trkpt lat="46.19141430826795" lon="13.3112173868045"><ele>205.5</ele><time>2026-04-22T16:39:53.999Z</time></trkpt><trkpt lat="46.19136239190382" lon="13.31102504218927"><ele>204.75</ele><time>2026-04-22T16:39:54.999Z</time></trkpt><trkpt lat="46.19130310628805" lon="13.310843989061159"><ele>204.0</ele><time>2026-04-22T16:39:55.999Z</time></trkpt><trkpt lat="46.19124559009354" lon="13.310662495959232"><ele>203.75</ele><time>2026-04-22T16:39:56.999Z</time></trkpt><trkpt lat="46.191188186966635" lon="13.310481054745702"><ele>203.5</ele><time>2026-04-22T16:39:57.999Z</time></trkpt><trkpt lat="46.19112207089424" lon="13.310304307357987"><ele>203.25</ele><time>2026-04-22T16:39:58.999Z</time></trkpt><trkpt lat="46.19104986201498" lon="13.31013349130742"><ele>203.0</ele><time>2026-04-22T16:39:59.999Z</time></trkpt><trkpt lat="46.190973179859135" lon="13.309965707040933"><ele>203.0</ele><time>2026-04-22T16:40:00.999Z</time></trkpt><trkpt lat="46.19089439756447" lon="13.309798234466458"><ele>203.0</ele><time>2026-04-22T16:40:01.999Z</time></trkpt><trkpt lat="46.19080126563889" lon="13.309630734635814"><ele>203.0</ele><time>2026-04-22T16:40:02.999Z</time></trkpt><trkpt lat="46.19068604844377" lon="13.309452137879285"><ele>202.75</ele><time>2026-04-22T16:40:03.999Z</time></trkpt><trkpt lat="46.19058000754973" lon="13.309286125296182"><ele>202.5</ele><time>2026-04-22T16:40:04.999Z</time></trkpt><trkpt lat="46.19048770199546" lon="13.309143726093135"><ele>202.25</ele><time>2026-04-22T16:40:05.999Z</time></trkpt><trkpt lat="46.19040835925464" lon="13.309008827430137"><ele>202.0</ele><time>2026-04-22T16:40:06.999Z</time></trkpt><trkpt lat="46.19032969359135" lon="13.308884400153195"><ele>201.8</ele><time>2026-04-22T16:40:07.999Z</time></trkpt><trkpt lat="46.19024701487839" lon="13.30876052291285"><ele>201.6</ele><time>2026-04-22T16:40:08.999Z</time></trkpt><trkpt lat="46.19016826635081" lon="13.308644736625789"><ele>201.4</ele><time>2026-04-22T16:40:09.999Z</time></trkpt><trkpt lat="46.19008816781002" lon="13.308551459129246"><ele>201.20000000000002</ele><time>2026-04-22T16:40:10.999Z</time></trkpt><trkpt lat="46.19000171934147" lon="13.308489082626325"><ele>201.0</ele><time>2026-04-22T16:40:11.999Z</time></trkpt><trkpt lat="46.18989248240081" lon="13.30847090975059"><ele>201.0</ele><time>2026-04-22T16:40:13Z</time></trkpt><trkpt lat="46.1897784385808" lon="13.308497573615432"><ele>201.0</ele><time>2026-04-22T16:40:14Z</time></trkpt><trkpt lat="46.189676282473464" lon="13.308538291371487"><ele>201.0</ele><time>2026-04-22T16:40:15Z</time></trkpt><trkpt lat="46.18958197676898" lon="13.308581943174813"><ele>201.0</ele><time>2026-04-22T16:40:16Z</time></trkpt><trkpt lat="46.18948533601198" lon="13.308624065824265"><ele>201.0</ele><time>2026-04-22T16:40:17Z</time></trkpt><trkpt lat="46.18939393641882" lon="13.308639679731973"><ele>201.0</ele><time>2026-04-22T16:40:18Z</time></trkpt><trkpt lat="46.189313974341346" lon="13.308629221680349"><ele>201.0</ele><time>2026-04-22T16:40:19Z</time></trkpt><trkpt lat="46.18923605685031" lon="13.308590780691068"><ele>201.0</ele><time>2026-04-22T16:40:20Z</time></trkpt><trkpt lat="46.18916051024775" lon="13.30851058639901"><ele>201.0</ele><time>2026-04-22T16:40:21Z</time></trkpt><trkpt lat="46.1890956809132" lon="13.308405766884855"><ele>201.0</ele><time>2026-04-22T16:40:22Z</time></trkpt><trkpt lat="46.1890252089291" lon="13.308313550145"><ele>201.0</ele><time>2026-04-22T16:40:23Z</time></trkpt><trkpt lat="46.188942768262564" lon="13.30824123127321"><ele>200.8</ele><time>2026-04-22T16:40:24Z</time></trkpt><trkpt lat="46.18884397561703" lon="13.308169097178759"><ele>200.60000000000002</ele><time>2026-04-22T16:40:25Z</time></trkpt><trkpt lat="46.188752207067544" lon="13.308097343298085"><ele>200.4</ele><time>2026-04-22T16:40:26Z</time></trkpt><trkpt lat="46.18867484529874" lon="13.308021427449091"><ele>200.2</ele><time>2026-04-22T16:40:27Z</time></trkpt><trkpt lat="46.1886006866007" lon="13.307942946334752"><ele>200.0</ele><time>2026-04-22T16:40:28Z</time></trkpt><trkpt lat="46.188532532366644" lon="13.307852995698177"><ele>199.4</ele><time>2026-04-22T16:40:29Z</time></trkpt><trkpt lat="46.188472074516746" lon="13.307755601253469"><ele>198.8</ele><time>2026-04-22T16:40:30Z</time></trkpt><trkpt lat="46.1884054549413" lon="13.307670666986533"><ele>198.2</ele><time>2026-04-22T16:40:31Z</time></trkpt><trkpt lat="46.18832174024864" lon="13.307603052358404"><ele>197.6</ele><time>2026-04-22T16:40:32Z</time></trkpt><trkpt lat="46.18821220061072" lon="13.307556272809265"><ele>197.0</ele><time>2026-04-22T16:40:33Z</time></trkpt><trkpt lat="46.18811400129548" lon="13.307531129432911"><ele>196.66666666666669</ele><time>2026-04-22T16:40:34Z</time></trkpt><trkpt lat="46.188030849184365" lon="13.3075080059076"><ele>196.33333333333334</ele><time>2026-04-22T16:40:35Z</time></trkpt><trkpt lat="46.18795402440892" lon="13.307490988022192"><ele>196.0</ele><time>2026-04-22T16:40:36Z</time></trkpt><trkpt lat="46.18789068794955" lon="13.307473932715514"><ele>195.66666666666669</ele><time>2026-04-22T16:40:37Z</time></trkpt><trkpt lat="46.18780762961057" lon="13.30745554835395"><ele>195.33333333333334</ele><time>2026-04-22T16:40:39Z</time></trkpt><trkpt lat="46.18773893764677" lon="13.30744669697235"><ele>195.0</ele><time>2026-04-22T16:40:41Z</time></trkpt><trkpt lat="46.18763523051278" lon="13.30743854501176"><ele>195.0</ele><time>2026-04-22T16:41:00Z</time></trkpt><trkpt lat="46.18750570577756" lon="13.307425324918947"><ele>195.0</ele><time>2026-04-22T16:41:01.999Z</time></trkpt><trkpt lat="46.187423098462084" lon="13.307422418713003"><ele>195.0</ele><time>2026-04-22T16:41:02.999Z</time></trkpt><trkpt lat="46.18733133580766" lon="13.307417928424831"><ele>195.0</ele><time>2026-04-22T16:41:03.999Z</time></trkpt><trkpt lat="46.187228946296685" lon="13.307411820400896"><ele>195.0</ele><time>2026-04-22T16:41:04.999Z</time></trkpt><trkpt lat="46.1871152372497" lon="13.307399271542149"><ele>194.75</ele><time>2026-04-22T16:41:05.999Z</time></trkpt><trkpt lat="46.1869820719205" lon="13.307393183134677"><ele>194.5</ele><time>2026-04-22T16:41:06.999Z</time></trkpt><trkpt lat="46.18684730615064" lon="13.307385991849353"><ele>194.25</ele><time>2026-04-22T16:41:07.999Z</time></trkpt><trkpt lat="46.18673348918864" lon="13.307376725883245"><ele>194.0</ele><time>2026-04-22T16:41:08.999Z</time></trkpt><trkpt lat="46.186631287641355" lon="13.307368771274316"><ele>194.00000000000003</ele><time>2026-04-22T16:41:09.999Z</time></trkpt><trkpt lat="46.18653663400497" lon="13.307362363458848"><ele>194.0</ele><time>2026-04-22T16:41:10.999Z</time></trkpt><trkpt lat="46.18644967972285" lon="13.307359469464652"><ele>194.0</ele><time>2026-04-22T16:41:11.999Z</time></trkpt><trkpt lat="46.186369432619436" lon="13.307352692884493"><ele>194.0</ele><time>2026-04-22T16:41:12.999Z</time></trkpt><trkpt lat="46.186297667900845" lon="13.307348776998666"><ele>194.00000000000003</ele><time>2026-04-22T16:41:13.999Z</time></trkpt><trkpt lat="46.1862315511722" lon="13.307342481021045"><ele>194.0</ele><time>2026-04-22T16:41:14.999Z</time></trkpt><trkpt lat="46.18614846719212" lon="13.307304937735822"><ele>194.0</ele><time>2026-04-22T16:41:16.999Z</time></trkpt><trkpt lat="46.18627058603818" lon="13.307113681413375"><ele>194.0</ele><time>2026-04-22T16:41:21.999Z</time></trkpt><trkpt lat="46.186332063293584" lon="13.307069431449948"><ele>194.0</ele><time>2026-04-22T16:41:22.999Z</time></trkpt><trkpt lat="46.18640438563727" lon="13.30700733108001"><ele>194.0</ele><time>2026-04-22T16:41:23.999Z</time></trkpt><trkpt lat="46.18649898916011" lon="13.306947138399659"><ele>194.0</ele><time>2026-04-22T16:41:24.999Z</time></trkpt><trkpt lat="46.186605896918714" lon="13.306879419463728"><ele>194.0</ele><time>2026-04-22T16:41:25.999Z</time></trkpt><trkpt lat="46.18671333451094" lon="13.30680830671008"><ele>194.0</ele><time>2026-04-22T16:41:26.999Z</time></trkpt><trkpt lat="46.18682470706041" lon="13.30675125445542"><ele>194.0</ele><time>2026-04-22T16:41:27.999Z</time></trkpt><trkpt lat="46.186938241421174" lon="13.306705652695742"><ele>194.0</ele><time>2026-04-22T16:41:28.999Z</time></trkpt><trkpt lat="46.18705024502655" lon="13.306665468498853"><ele>194.0</ele><time>2026-04-22T16:41:29.999Z</time></trkpt><trkpt lat="46.18716167954565" lon="13.306624621400612"><ele>194.0</ele><time>2026-04-22T16:41:30.999Z</time></trkpt><trkpt lat="46.18727393617435" lon="13.306588800073593"><ele>194.0</ele><time>2026-04-22T16:41:31.999Z</time></trkpt><trkpt lat="46.18738627287154" lon="13.306554806704765"><ele>194.0</ele><time>2026-04-22T16:41:32.999Z</time></trkpt><trkpt lat="46.18749991010941" lon="13.306516217195204"><ele>194.0</ele><time>2026-04-22T16:41:33.999Z</time></trkpt><trkpt lat="46.187609553106334" lon="13.306480423955767"><ele>194.0</ele><time>2026-04-22T16:41:34.999Z</time></trkpt><trkpt lat="46.18771482764521" lon="13.30644689632025"><ele>194.0</ele><time>2026-04-22T16:41:35.999Z</time></trkpt><trkpt lat="46.18781834381517" lon="13.306404115378687"><ele>194.0</ele><time>2026-04-22T16:41:36.999Z</time></trkpt><trkpt lat="46.187921739124924" lon="13.306339983338024"><ele>194.0</ele><time>2026-04-22T16:41:37.999Z</time></trkpt><trkpt lat="46.18802673112627" lon="13.306271913349192"><ele>194.0</ele><time>2026-04-22T16:41:38.999Z</time></trkpt><trkpt lat="46.18812634808998" lon="13.306193830620533"><ele>194.0</ele><time>2026-04-22T16:41:39.999Z</time></trkpt><trkpt lat="46.188222313643365" lon="13.306103019813026"><ele>194.0</ele><time>2026-04-22T16:41:40.999Z</time></trkpt><trkpt lat="46.18832017001798" lon="13.30601259787035"><ele>194.0</ele><time>2026-04-22T16:41:41.999Z</time></trkpt><trkpt lat="46.18842062931346" lon="13.305909575977267"><ele>194.25</ele><time>2026-04-22T16:41:42.999Z</time></trkpt><trkpt lat="46.18851510025971" lon="13.305809167474793"><ele>194.5</ele><time>2026-04-22T16:41:43.999Z</time></trkpt><trkpt lat="46.18861307323528" lon="13.305723709969145"><ele>194.75</ele><time>2026-04-22T16:41:44.999Z</time></trkpt><trkpt lat="46.18871663006121" lon="13.305663527539258"><ele>195.0</ele><time>2026-04-22T16:41:45.999Z</time></trkpt><trkpt lat="46.18882539790897" lon="13.305618538749732"><ele>195.0</ele><time>2026-04-22T16:41:46.999Z</time></trkpt><trkpt lat="46.188938302624734" lon="13.305589256412123"><ele>195.0</ele><time>2026-04-22T16:41:47.999Z</time></trkpt><trkpt lat="46.189056290679055" lon="13.305580276616045"><ele>195.0</ele><time>2026-04-22T16:41:48.999Z</time></trkpt><trkpt lat="46.1891776970724" lon="13.305586704227494"><ele>195.0</ele><time>2026-04-22T16:41:49.999Z</time></trkpt><trkpt lat="46.18929530315444" lon="13.305587392337868"><ele>195.2</ele><time>2026-04-22T16:41:50.999Z</time></trkpt><trkpt lat="46.189404235314704" lon="13.30558107755704"><ele>195.4</ele><time>2026-04-22T16:41:51.999Z</time></trkpt><trkpt lat="46.18950846705753" lon="13.305557319877188"><ele>195.60000000000002</ele><time>2026-04-22T16:41:52.999Z</time></trkpt><trkpt lat="46.18961015112279" lon="13.30551022851919"><ele>195.8</ele><time>2026-04-22T16:41:53.999Z</time></trkpt><trkpt lat="46.18970167044825" lon="13.305418716210452"><ele>196.0</ele><time>2026-04-22T16:41:54.999Z</time></trkpt><trkpt lat="46.18978294996741" lon="13.305282989538082"><ele>196.5</ele><time>2026-04-22T16:41:55.999Z</time></trkpt><trkpt lat="46.189860594478226" lon="13.305113546690173"><ele>197.0</ele><time>2026-04-22T16:41:56.999Z</time></trkpt><trkpt lat="46.18993511951897" lon="13.304943744338509"><ele>197.5</ele><time>2026-04-22T16:41:57.999Z</time></trkpt><trkpt lat="46.19001068038658" lon="13.304796675653279"><ele>198.0</ele><time>2026-04-22T16:41:58.999Z</time></trkpt><trkpt lat="46.19007443137256" lon="13.30467418676918"><ele>197.0</ele><time>2026-04-22T16:41:59.999Z</time></trkpt><trkpt lat="46.19013200984817" lon="13.304562496901545"><ele>196.0</ele><time>2026-04-22T16:42:00.999Z</time></trkpt><trkpt lat="46.1902073444496" lon="13.30443187834431"><ele>195.0</ele><time>2026-04-22T16:42:01.999Z</time></trkpt><trkpt lat="46.19030100058955" lon="13.304287092227197"><ele>194.0</ele><time>2026-04-22T16:42:02.999Z</time></trkpt><trkpt lat="46.1904127510782" lon="13.304142751065617"><ele>194.0</ele><time>2026-04-22T16:42:03.999Z</time></trkpt><trkpt lat="46.19055497004948" lon="13.303996516459069"><ele>194.0</ele><time>2026-04-22T16:42:04.999Z</time></trkpt><trkpt lat="46.190719822479466" lon="13.303847509743393"><ele>194.0</ele><time>2026-04-22T16:42:05.999Z</time></trkpt><trkpt lat="46.19089655161938" lon="13.303715510736103"><ele>194.0</ele><time>2026-04-22T16:42:06.999Z</time></trkpt><trkpt lat="46.19107865534604" lon="13.303595223802233"><ele>194.0</ele><time>2026-04-22T16:42:07.999Z</time></trkpt><trkpt lat="46.19125449540017" lon="13.303486610088047"><ele>194.0</ele><time>2026-04-22T16:42:08.999Z</time></trkpt><trkpt lat="46.191424506482576" lon="13.303371877400982"><ele>194.66666666666669</ele><time>2026-04-22T16:42:09.999Z</time></trkpt><trkpt lat="46.19159000576864" lon="13.303248403083213"><ele>195.33333333333331</ele><time>2026-04-22T16:42:10.999Z</time></trkpt><trkpt lat="46.19175082491336" lon="13.303115758048556"><ele>196.0</ele><time>2026-04-22T16:42:11.999Z</time></trkpt><trkpt lat="46.19190485183993" lon="13.302969568271788"><ele>196.0</ele><time>2026-04-22T16:42:12.999Z</time></trkpt><trkpt lat="46.19205936674319" lon="13.302809594673292"><ele>196.0</ele><time>2026-04-22T16:42:13.999Z</time></trkpt><trkpt lat="46.192217076271334" lon="13.302638926626852"><ele>196.0</ele><time>2026-04-22T16:42:14.999Z</time></trkpt><trkpt lat="46.192379086725296" lon="13.3024567626262"><ele>195.5</ele><time>2026-04-22T16:42:15.999Z</time></trkpt><trkpt lat="46.19255271561962" lon="13.30226448501953"><ele>195.0</ele><time>2026-04-22T16:42:16.999Z</time></trkpt><trkpt lat="46.192738785499" lon="13.302064796491791"><ele>194.66666666666669</ele><time>2026-04-22T16:42:18Z</time></trkpt><trkpt lat="46.192912243233835" lon="13.301873555170298"><ele>194.33333333333334</ele><time>2026-04-22T16:42:19Z</time></trkpt><trkpt lat="46.19308232875503" lon="13.301687832536759"><ele>194.0</ele><time>2026-04-22T16:42:20Z</time></trkpt><trkpt lat="46.193244140931824" lon="13.301515005475613"><ele>195.66666666666669</ele><time>2026-04-22T16:42:21Z</time></trkpt><trkpt lat="46.19340264314354" lon="13.301345945976824"><ele>197.33333333333331</ele><time>2026-04-22T16:42:22Z</time></trkpt><trkpt lat="46.19355460297165" lon="13.301178891197573"><ele>199.0</ele><time>2026-04-22T16:42:23Z</time></trkpt><trkpt lat="46.19370602656765" lon="13.301011435704682"><ele>199.0</ele><time>2026-04-22T16:42:24Z</time></trkpt><trkpt lat="46.19385676842043" lon="13.300846527884673"><ele>199.0</ele><time>2026-04-22T16:42:25Z</time></trkpt><trkpt lat="46.19400212476973" lon="13.30068242657098"><ele>199.0</ele><time>2026-04-22T16:42:26Z</time></trkpt><trkpt lat="46.19413659738366" lon="13.300512155345018"><ele>198.66666666666666</ele><time>2026-04-22T16:42:27Z</time></trkpt><trkpt lat="46.194260169463114" lon="13.300333610059713"><ele>198.33333333333331</ele><time>2026-04-22T16:42:28Z</time></trkpt><trkpt lat="46.19437565037577" lon="13.300139872006818"><ele>198.0</ele><time>2026-04-22T16:42:29Z</time></trkpt><trkpt lat="46.19448898290886" lon="13.299925082012477"><ele>200.66666666666669</ele><time>2026-04-22T16:42:30Z</time></trkpt><trkpt lat="46.19459705427608" lon="13.299682381447857"><ele>203.33333333333334</ele><time>2026-04-22T16:42:31Z</time></trkpt><trkpt lat="46.19470807115413" lon="13.29942434681673"><ele>206.0</ele><time>2026-04-22T16:42:32Z</time></trkpt><trkpt lat="46.19481646100639" lon="13.299173690522139"><ele>205.66666666666669</ele><time>2026-04-22T16:42:33Z</time></trkpt><trkpt lat="46.19491925851853" lon="13.298935446482151"><ele>205.33333333333331</ele><time>2026-04-22T16:42:34Z</time></trkpt><trkpt lat="46.19502172025082" lon="13.298697116093344"><ele>205.0</ele><time>2026-04-22T16:42:35Z</time></trkpt><trkpt lat="46.1951255538388" lon="13.298449421137226"><ele>205.0</ele><time>2026-04-22T16:42:36Z</time></trkpt><trkpt lat="46.19523174809766" lon="13.29819043227964"><ele>205.0</ele><time>2026-04-22T16:42:37Z</time></trkpt><trkpt lat="46.1953407953414" lon="13.297929977709666"><ele>205.0</ele><time>2026-04-22T16:42:38Z</time></trkpt><trkpt lat="46.19544458869016" lon="13.297681193778029"><ele>204.66666666666666</ele><time>2026-04-22T16:42:39Z</time></trkpt><trkpt lat="46.195550025120085" lon="13.297431394950651"><ele>204.33333333333331</ele><time>2026-04-22T16:42:40Z</time></trkpt><trkpt lat="46.19565049893557" lon="13.297171754496556"><ele>204.0</ele><time>2026-04-22T16:42:41Z</time></trkpt><trkpt lat="46.195735027954264" lon="13.296908974013018"><ele>204.0</ele><time>2026-04-22T16:42:42Z</time></trkpt><trkpt lat="46.195797445386" lon="13.29664240573585"><ele>204.0</ele><time>2026-04-22T16:42:43Z</time></trkpt><trkpt lat="46.19584088488649" lon="13.296385180131564"><ele>204.0</ele><time>2026-04-22T16:42:44Z</time></trkpt><trkpt lat="46.1958695063323" lon="13.296140486975261"><ele>205.33333333333331</ele><time>2026-04-22T16:42:45Z</time></trkpt><trkpt lat="46.19588357828411" lon="13.295907045530122"><ele>206.66666666666666</ele><time>2026-04-22T16:42:46Z</time></trkpt><trkpt lat="46.195878757264765" lon="13.295677126442438"><ele>208.0</ele><time>2026-04-22T16:42:47Z</time></trkpt><trkpt lat="46.19587059573807" lon="13.295473171612594"><ele>208.60000000000002</ele><time>2026-04-22T16:42:48Z</time></trkpt><trkpt lat="46.19586665567619" lon="13.295308533990502"><ele>209.20000000000002</ele><time>2026-04-22T16:42:49Z</time></trkpt><trkpt lat="46.195872021704275" lon="13.295145116273336"><ele>209.8</ele><time>2026-04-22T16:42:50Z</time></trkpt><trkpt lat="46.19590010058178" lon="13.294997964508239"><ele>210.4</ele><time>2026-04-22T16:42:51Z</time></trkpt><trkpt lat="46.19595616890278" lon="13.294868013150605"><ele>211.0</ele><time>2026-04-22T16:42:52Z</time></trkpt><trkpt lat="46.19604220177198" lon="13.29475368111161"><ele>211.8</ele><time>2026-04-22T16:42:53Z</time></trkpt><trkpt lat="46.196146664225694" lon="13.294671873723058"><ele>212.60000000000002</ele><time>2026-04-22T16:42:54Z</time></trkpt><trkpt lat="46.19625613195712" lon="13.294652774072711"><ele>213.4</ele><time>2026-04-22T16:42:55Z</time></trkpt><trkpt lat="46.19636190182355" lon="13.294695223067796"><ele>214.2</ele><time>2026-04-22T16:42:56Z</time></trkpt><trkpt lat="46.196459067251" lon="13.294752193501436"><ele>215.0</ele><time>2026-04-22T16:42:57Z</time></trkpt><trkpt lat="46.19655376473095" lon="13.294751891853826"><ele>219.2</ele><time>2026-04-22T16:42:58Z</time></trkpt><trkpt lat="46.196639159119435" lon="13.294693509764128"><ele>223.4</ele><time>2026-04-22T16:42:59Z</time></trkpt><trkpt lat="46.19670078639798" lon="13.294589852723078"><ele>227.60000000000002</ele><time>2026-04-22T16:43:00Z</time></trkpt><trkpt lat="46.196718061607285" lon="13.294444831750022"><ele>231.8</ele><time>2026-04-22T16:43:01Z</time></trkpt><trkpt lat="46.19667939174312" lon="13.294296308984048"><ele>236.0</ele><time>2026-04-22T16:43:02Z</time></trkpt><trkpt lat="46.19660906466763" lon="13.294201880981474"><ele>236.00000000000003</ele><time>2026-04-22T16:43:02.999Z</time></trkpt><trkpt lat="46.196527206690114" lon="13.294149213630165"><ele>236.0</ele><time>2026-04-22T16:43:03.999Z</time></trkpt><trkpt lat="46.19645985885887" lon="13.29407908874759"><ele>236.0</ele><time>2026-04-22T16:43:04.999Z</time></trkpt><trkpt lat="46.19643474155189" lon="13.293958390052497"><ele>236.0</ele><time>2026-04-22T16:43:05.999Z</time></trkpt><trkpt lat="46.196431968207754" lon="13.29382987415198"><ele>236.00000000000003</ele><time>2026-04-22T16:43:06.999Z</time></trkpt><trkpt lat="46.19646856148674" lon="13.29370573763472"><ele>236.0</ele><time>2026-04-22T16:43:07.999Z</time></trkpt><trkpt lat="46.19654552147726" lon="13.293585152552483"><ele>236.20000000000002</ele><time>2026-04-22T16:43:08.999Z</time></trkpt><trkpt lat="46.19660564714335" lon="13.293442113694955"><ele>236.40000000000003</ele><time>2026-04-22T16:43:09.999Z</time></trkpt><trkpt lat="46.19663027465875" lon="13.29328611820148"><ele>236.6</ele><time>2026-04-22T16:43:10.999Z</time></trkpt><trkpt lat="46.1966255401377" lon="13.293136041197966"><ele>236.8</ele><time>2026-04-22T16:43:11.999Z</time></trkpt><trkpt lat="46.19662940964528" lon="13.292997745739973"><ele>237.0</ele><time>2026-04-22T16:43:12.999Z</time></trkpt><trkpt lat="46.19667724459348" lon="13.29286607638139"><ele>234.5</ele><time>2026-04-22T16:43:13.999Z</time></trkpt><trkpt lat="46.19675708587496" lon="13.292749374324773"><ele>232.0</ele><time>2026-04-22T16:43:14.999Z</time></trkpt><trkpt lat="46.196855694457106" lon="13.292679830078113"><ele>229.5</ele><time>2026-04-22T16:43:15.999Z</time></trkpt><trkpt lat="46.19696545599264" lon="13.292654084266946"><ele>227.0</ele><time>2026-04-22T16:43:16.999Z</time></trkpt><trkpt lat="46.1970842712088" lon="13.29264028869394"><ele>227.0</ele><time>2026-04-22T16:43:17.999Z</time></trkpt><trkpt lat="46.19721532031162" lon="13.292641389053317"><ele>227.0</ele><time>2026-04-22T16:43:18.999Z</time></trkpt><trkpt lat="46.19735769902895" lon="13.292653799020462"><ele>227.0</ele><time>2026-04-22T16:43:19.999Z</time></trkpt><trkpt lat="46.19750232068586" lon="13.292672360055503"><ele>227.0</ele><time>2026-04-22T16:43:20.999Z</time></trkpt><trkpt lat="46.197644666656814" lon="13.292688979520541"><ele>231.75</ele><time>2026-04-22T16:43:21.999Z</time></trkpt><trkpt lat="46.19779490096708" lon="13.292701004451942"><ele>236.5</ele><time>2026-04-22T16:43:22.999Z</time></trkpt><trkpt lat="46.197941730798355" lon="13.292733854278618"><ele>241.25</ele><time>2026-04-22T16:43:23.999Z</time></trkpt><trkpt lat="46.19807130913335" lon="13.292792471397412"><ele>246.0</ele><time>2026-04-22T16:43:24.999Z</time></trkpt><trkpt lat="46.19817824483729" lon="13.292866023567774"><ele>249.20000000000002</ele><time>2026-04-22T16:43:25.999Z</time></trkpt><trkpt lat="46.19827295702446" lon="13.292927947284664"><ele>252.40000000000003</ele><time>2026-04-22T16:43:26.999Z</time></trkpt><trkpt lat="46.198368147033584" lon="13.292954937720049"><ele>255.6</ele><time>2026-04-22T16:43:27.999Z</time></trkpt><trkpt lat="46.19845970927675" lon="13.292914163952538"><ele>258.8</ele><time>2026-04-22T16:43:28.999Z</time></trkpt><trkpt lat="46.19853360863597" lon="13.292815817579008"><ele>262.0</ele><time>2026-04-22T16:43:29.999Z</time></trkpt><trkpt lat="46.19857568566267" lon="13.292675708018626"><ele>262.0</ele><time>2026-04-22T16:43:30.999Z</time></trkpt><trkpt lat="46.19857240825146" lon="13.292524802130218"><ele>262.0</ele><time>2026-04-22T16:43:31.999Z</time></trkpt><trkpt lat="46.19850819498924" lon="13.29238778267816"><ele>262.0</ele><time>2026-04-22T16:43:32.999Z</time></trkpt><trkpt lat="46.198400606540844" lon="13.292285290951364"><ele>262.0</ele><time>2026-04-22T16:43:33.999Z</time></trkpt><trkpt lat="46.19827516721402" lon="13.292180124558774"><ele>258.3333333333333</ele><time>2026-04-22T16:43:34.999Z</time></trkpt><trkpt lat="46.198154275556995" lon="13.292066377751292"><ele>254.66666666666669</ele><time>2026-04-22T16:43:35.999Z</time></trkpt><trkpt lat="46.198029470616945" lon="13.291948958488733"><ele>251.0</ele><time>2026-04-22T16:43:36.999Z</time></trkpt><trkpt lat="46.19789484128123" lon="13.29182693726094"><ele>251.0</ele><time>2026-04-22T16:43:37.999Z</time></trkpt><trkpt lat="46.19775923625317" lon="13.291703306062153"><ele>251.0</ele><time>2026-04-22T16:43:38.999Z</time></trkpt><trkpt lat="46.19763638486876" lon="13.291589865052273"><ele>251.0</ele><time>2026-04-22T16:43:39.999Z</time></trkpt><trkpt lat="46.197536610288005" lon="13.291482745474523"><ele>251.0</ele><time>2026-04-22T16:43:40.999Z</time></trkpt><trkpt lat="46.197455487381404" lon="13.291333787915034"><ele>249.75</ele><time>2026-04-22T16:43:41.999Z</time></trkpt><trkpt lat="46.197398515310105" lon="13.291132290726257"><ele>248.5</ele><time>2026-04-22T16:43:42.999Z</time></trkpt><trkpt lat="46.197341685989635" lon="13.290941271079161"><ele>247.25</ele><time>2026-04-22T16:43:43.999Z</time></trkpt><trkpt lat="46.197242751617665" lon="13.290775744461058"><ele>246.0</ele><time>2026-04-22T16:43:44.999Z</time></trkpt><trkpt lat="46.19711875323154" lon="13.290643765656137"><ele>249.0</ele><time>2026-04-22T16:43:45.999Z</time></trkpt><trkpt lat="46.197016006814934" lon="13.290551053131153"><ele>252.0</ele><time>2026-04-22T16:43:46.999Z</time></trkpt><trkpt lat="46.19692862729647" lon="13.29042831906363"><ele>255.0</ele><time>2026-04-22T16:43:47.999Z</time></trkpt><trkpt lat="46.196875628122925" lon="13.290289228354354"><ele>258.0</ele><time>2026-04-22T16:43:48.999Z</time></trkpt><trkpt lat="46.19685740404162" lon="13.29013265510235"><ele>258.0</ele><time>2026-04-22T16:43:49.999Z</time></trkpt><trkpt lat="46.19687536553395" lon="13.289970654870995"><ele>258.0</ele><time>2026-04-22T16:43:50.999Z</time></trkpt><trkpt lat="46.19692587883571" lon="13.289830138144499"><ele>258.0</ele><time>2026-04-22T16:43:51.999Z</time></trkpt><trkpt lat="46.19700542479936" lon="13.289701543138575"><ele>258.0</ele><time>2026-04-22T16:43:52.999Z</time></trkpt><trkpt lat="46.19710203699896" lon="13.289561478714662"><ele>261.0</ele><time>2026-04-22T16:43:53.999Z</time></trkpt><trkpt lat="46.197196527347444" lon="13.289423009183976"><ele>264.0</ele><time>2026-04-22T16:43:54.999Z</time></trkpt><trkpt lat="46.19727851438185" lon="13.289301020344288"><ele>267.0</ele><time>2026-04-22T16:43:55.999Z</time></trkpt><trkpt lat="46.197358222945596" lon="13.289178978503246"><ele>270.0</ele><time>2026-04-22T16:43:56.999Z</time></trkpt><trkpt lat="46.1974412318516" lon="13.28906756281583"><ele>270.0</ele><time>2026-04-22T16:43:57.999Z</time></trkpt><trkpt lat="46.197539276494524" lon="13.288988363672926"><ele>270.0</ele><time>2026-04-22T16:43:58.999Z</time></trkpt><trkpt lat="46.19766400969282" lon="13.288924267522845"><ele>270.0</ele><time>2026-04-22T16:43:59.999Z</time></trkpt><trkpt lat="46.197799399563095" lon="13.288912146473017"><ele>270.0</ele><time>2026-04-22T16:44:00.999Z</time></trkpt><trkpt lat="46.19793796225047" lon="13.288940447080112"><ele>270.0</ele><time>2026-04-22T16:44:01.999Z</time></trkpt><trkpt lat="46.198060335375516" lon="13.28896682558379"><ele>270.0</ele><time>2026-04-22T16:44:02.999Z</time></trkpt><trkpt lat="46.198159863729224" lon="13.28897738488355"><ele>270.0</ele><time>2026-04-22T16:44:03.999Z</time></trkpt><trkpt lat="46.19826163490626" lon="13.289020393410166"><ele>270.0</ele><time>2026-04-22T16:44:04.999Z</time></trkpt><trkpt lat="46.19834576269971" lon="13.289093009448143"><ele>270.0</ele><time>2026-04-22T16:44:05.999Z</time></trkpt><trkpt lat="46.19840426874194" lon="13.289204815218122"><ele>271.0</ele><time>2026-04-22T16:44:06.999Z</time></trkpt><trkpt lat="46.19843519627955" lon="13.28934823546324"><ele>272.0</ele><time>2026-04-22T16:44:07.999Z</time></trkpt><trkpt lat="46.19844884900938" lon="13.289504750348728"><ele>273.0</ele><time>2026-04-22T16:44:08.999Z</time></trkpt><trkpt lat="46.198478706156436" lon="13.28963115696828"><ele>274.0</ele><time>2026-04-22T16:44:09.999Z</time></trkpt><trkpt lat="46.19853619728261" lon="13.289722589439966"><ele>275.0</ele><time>2026-04-22T16:44:10.999Z</time></trkpt><trkpt lat="46.1986206353739" lon="13.28978263512759"><ele>275.0</ele><time>2026-04-22T16:44:11.999Z</time></trkpt><trkpt lat="46.19871934569632" lon="13.289787272959098"><ele>275.0</ele><time>2026-04-22T16:44:12.999Z</time></trkpt><trkpt lat="46.19881327397923" lon="13.289738608827424"><ele>275.0</ele><time>2026-04-22T16:44:13.999Z</time></trkpt><trkpt lat="46.19889382848733" lon="13.289641864519645"><ele>275.0</ele><time>2026-04-22T16:44:14.999Z</time></trkpt><trkpt lat="46.198963282011846" lon="13.28950822442763"><ele>275.0</ele><time>2026-04-22T16:44:15.999Z</time></trkpt><trkpt lat="46.19904041859273" lon="13.289360836384933"><ele>268.75</ele><time>2026-04-22T16:44:16.999Z</time></trkpt><trkpt lat="46.1991289997945" lon="13.289214559003772"><ele>262.5</ele><time>2026-04-22T16:44:17.999Z</time></trkpt><trkpt lat="46.19919987296549" lon="13.289075030520042"><ele>256.25</ele><time>2026-04-22T16:44:18.999Z</time></trkpt><trkpt lat="46.199255627908386" lon="13.288939679788475"><ele>250.0</ele><time>2026-04-22T16:44:19.999Z</time></trkpt><trkpt lat="46.199304047416724" lon="13.288808379478228"><ele>246.5</ele><time>2026-04-22T16:44:20.999Z</time></trkpt><trkpt lat="46.19937346559078" lon="13.288690745731259"><ele>243.0</ele><time>2026-04-22T16:44:21.999Z</time></trkpt><trkpt lat="46.19946697263462" lon="13.288589730227496"><ele>239.5</ele><time>2026-04-22T16:44:22.999Z</time></trkpt><trkpt lat="46.19957537685604" lon="13.288521127685753"><ele>236.0</ele><time>2026-04-22T16:44:23.999Z</time></trkpt><trkpt lat="46.19969629372693" lon="13.288484467164656"><ele>235.5</ele><time>2026-04-22T16:44:24.999Z</time></trkpt><trkpt lat="46.19984536841218" lon="13.288480763944277"><ele>235.0</ele><time>2026-04-22T16:44:25.999Z</time></trkpt><trkpt lat="46.199989580241734" lon="13.28846588189782"><ele>234.5</ele><time>2026-04-22T16:44:26.999Z</time></trkpt><trkpt lat="46.20012728371293" lon="13.288409883703919"><ele>234.0</ele><time>2026-04-22T16:44:27.999Z</time></trkpt><trkpt lat="46.2002600298784" lon="13.288310629721138"><ele>234.0</ele><time>2026-04-22T16:44:28.999Z</time></trkpt><trkpt lat="46.20038786084021" lon="13.28816062753289"><ele>234.0</ele><time>2026-04-22T16:44:29.999Z</time></trkpt><trkpt lat="46.200503279031416" lon="13.287960650555483"><ele>234.0</ele><time>2026-04-22T16:44:30.999Z</time></trkpt><trkpt lat="46.20061017828115" lon="13.287724733758896"><ele>230.0</ele><time>2026-04-22T16:44:31.999Z</time></trkpt><trkpt lat="46.200707490754866" lon="13.287489880987819"><ele>226.0</ele><time>2026-04-22T16:44:32.999Z</time></trkpt><trkpt lat="46.20080907993553" lon="13.287261782855698"><ele>222.0</ele><time>2026-04-22T16:44:33.999Z</time></trkpt><trkpt lat="46.20091591055592" lon="13.28702234035688"><ele>220.33333333333331</ele><time>2026-04-22T16:44:34.999Z</time></trkpt><trkpt lat="46.20102175147366" lon="13.286775325597622"><ele>218.66666666666666</ele><time>2026-04-22T16:44:35.999Z</time></trkpt><trkpt lat="46.20112365979837" lon="13.28654506198197"><ele>217.0</ele><time>2026-04-22T16:44:37Z</time></trkpt><trkpt lat="46.20121254330008" lon="13.286349206496698"><ele>217.0</ele><time>2026-04-22T16:44:38Z</time></trkpt><trkpt lat="46.201291867844034" lon="13.286167171731671"><ele>217.0</ele><time>2026-04-22T16:44:39Z</time></trkpt><trkpt lat="46.20135786236626" lon="13.285987148379307"><ele>217.0</ele><time>2026-04-22T16:44:40Z</time></trkpt><trkpt lat="46.20139115538069" lon="13.285793708810871"><ele>217.0</ele><time>2026-04-22T16:44:41Z</time></trkpt><trkpt lat="46.20138882492615" lon="13.285562532753952"><ele>217.0</ele><time>2026-04-22T16:44:41.999Z</time></trkpt><trkpt lat="46.20136564169252" lon="13.285311338198257"><ele>217.0</ele><time>2026-04-22T16:44:42.999Z</time></trkpt><trkpt lat="46.20134338273833" lon="13.285064120617832"><ele>217.0</ele><time>2026-04-22T16:44:43.999Z</time></trkpt><trkpt lat="46.20131962931302" lon="13.28481002155824"><ele>217.0</ele><time>2026-04-22T16:44:44.999Z</time></trkpt><trkpt lat="46.20129762544078" lon="13.284542889002973"><ele>217.0</ele><time>2026-04-22T16:44:45.999Z</time></trkpt><trkpt lat="46.201275253476965" lon="13.284266962813897"><ele>217.0</ele><time>2026-04-22T16:44:46.999Z</time></trkpt><trkpt lat="46.20125449948104" lon="13.283987799819927"><ele>216.66666666666666</ele><time>2026-04-22T16:44:47.999Z</time></trkpt><trkpt lat="46.20123182551911" lon="13.283718706701992"><ele>216.33333333333331</ele><time>2026-04-22T16:44:48.999Z</time></trkpt><trkpt lat="46.20120893650785" lon="13.2834564078293"><ele>216.0</ele><time>2026-04-22T16:44:49.999Z</time></trkpt><trkpt lat="46.20118611034008" lon="13.283183731023154"><ele>214.33333333333331</ele><time>2026-04-22T16:44:50.999Z</time></trkpt><trkpt lat="46.20116281951275" lon="13.282900558118822"><ele>212.66666666666666</ele><time>2026-04-22T16:44:51.999Z</time></trkpt><trkpt lat="46.201139503849355" lon="13.282602729985825"><ele>211.0</ele><time>2026-04-22T16:44:52.999Z</time></trkpt><trkpt lat="46.20112100087127" lon="13.282288631438258"><ele>209.0</ele><time>2026-04-22T16:44:53.999Z</time></trkpt><trkpt lat="46.2011068840584" lon="13.281961813682871"><ele>207.0</ele><time>2026-04-22T16:44:54.999Z</time></trkpt><trkpt lat="46.201094296424834" lon="13.281627988152096"><ele>207.5</ele><time>2026-04-22T16:44:55.999Z</time></trkpt><trkpt lat="46.201083451857855" lon="13.281283896919291"><ele>208.0</ele><time>2026-04-22T16:44:56.999Z</time></trkpt><trkpt lat="46.2010715488353" lon="13.280952767538462"><ele>208.0</ele><time>2026-04-22T16:44:57.999Z</time></trkpt><trkpt lat="46.20105683034134" lon="13.28062937458315"><ele>208.0</ele><time>2026-04-22T16:44:58.999Z</time></trkpt><trkpt lat="46.20103814656092" lon="13.280316201793273"><ele>208.0</ele><time>2026-04-22T16:44:59.999Z</time></trkpt><trkpt lat="46.20102092978884" lon="13.280018159843381"><ele>208.33333333333331</ele><time>2026-04-22T16:45:00.999Z</time></trkpt><trkpt lat="46.20100412376133" lon="13.279738063718295"><ele>208.66666666666669</ele><time>2026-04-22T16:45:01.999Z</time></trkpt><trkpt lat="46.20098843712522" lon="13.279472640185531"><ele>209.0</ele><time>2026-04-22T16:45:02.999Z</time></trkpt><trkpt lat="46.20097730729862" lon="13.279216019652127"><ele>209.0</ele><time>2026-04-22T16:45:03.999Z</time></trkpt><trkpt lat="46.20096705132902" lon="13.27896742745746"><ele>209.0</ele><time>2026-04-22T16:45:04.999Z</time></trkpt><trkpt lat="46.20095508851982" lon="13.278726255654114"><ele>209.0</ele><time>2026-04-22T16:45:05.999Z</time></trkpt><trkpt lat="46.200940567578456" lon="13.27848566160424"><ele>210.33333333333334</ele><time>2026-04-22T16:45:06.999Z</time></trkpt><trkpt lat="46.200916528846044" lon="13.27823594254083"><ele>211.66666666666669</ele><time>2026-04-22T16:45:07.999Z</time></trkpt><trkpt lat="46.2008826544459" lon="13.27797855042832"><ele>213.0</ele><time>2026-04-22T16:45:08.999Z</time></trkpt><trkpt lat="46.20083544272844" lon="13.277718043589536"><ele>213.66666666666669</ele><time>2026-04-22T16:45:09.999Z</time></trkpt><trkpt lat="46.20078040315665" lon="13.277467335540376"><ele>214.33333333333334</ele><time>2026-04-22T16:45:10.999Z</time></trkpt><trkpt lat="46.20072473239702" lon="13.27722858269968"><ele>215.0</ele><time>2026-04-22T16:45:11.999Z</time></trkpt><trkpt lat="46.20067149689451" lon="13.277000376895487"><ele>213.66666666666669</ele><time>2026-04-22T16:45:12.999Z</time></trkpt><trkpt lat="46.20061771549944" lon="13.276769256753655"><ele>212.33333333333331</ele><time>2026-04-22T16:45:13.999Z</time></trkpt><trkpt lat="46.200566042677856" lon="13.276552233977618"><ele>211.0</ele><time>2026-04-22T16:45:14.999Z</time></trkpt><trkpt lat="46.2005198842102" lon="13.276357893086509"><ele>211.0</ele><time>2026-04-22T16:45:15.999Z</time></trkpt><trkpt lat="46.200474054309645" lon="13.27617183456348"><ele>211.0</ele><time>2026-04-22T16:45:16.999Z</time></trkpt><trkpt lat="46.20043512556663" lon="13.275991713311429"><ele>211.0</ele><time>2026-04-22T16:45:17.999Z</time></trkpt><trkpt lat="46.200413654210436" lon="13.275817690227148"><ele>211.0</ele><time>2026-04-22T16:45:18.999Z</time></trkpt><trkpt lat="46.20041310837687" lon="13.275643582748794"><ele>211.0</ele><time>2026-04-22T16:45:19.999Z</time></trkpt><trkpt lat="46.20043123574859" lon="13.275476024101547"><ele>211.0</ele><time>2026-04-22T16:45:20.999Z</time></trkpt><trkpt lat="46.200457556630305" lon="13.275334685739999"><ele>211.0</ele><time>2026-04-22T16:45:21.999Z</time></trkpt><trkpt lat="46.2004647027" lon="13.275207737252252"><ele>211.0</ele><time>2026-04-22T16:45:22.999Z</time></trkpt><trkpt lat="46.20044941360685" lon="13.275084972185212"><ele>211.0</ele><time>2026-04-22T16:45:23.999Z</time></trkpt><trkpt lat="46.200419113683225" lon="13.274966461352436"><ele>211.0</ele><time>2026-04-22T16:45:24.999Z</time></trkpt><trkpt lat="46.2003626149648" lon="13.274843776086474"><ele>211.0</ele><time>2026-04-22T16:45:25.999Z</time></trkpt><trkpt lat="46.200324935775726" lon="13.274693566893706"><ele>211.0</ele><time>2026-04-22T16:45:26.999Z</time></trkpt><trkpt lat="46.20031480606934" lon="13.27452423547925"><ele>211.0</ele><time>2026-04-22T16:45:27.999Z</time></trkpt><trkpt lat="46.20030689726556" lon="13.274343051648364"><ele>209.0</ele><time>2026-04-22T16:45:28.999Z</time></trkpt><trkpt lat="46.20029635268414" lon="13.274141497001985"><ele>207.0</ele><time>2026-04-22T16:45:29.999Z</time></trkpt><trkpt lat="46.20027823707437" lon="13.273911893905504"><ele>205.0</ele><time>2026-04-22T16:45:30.999Z</time></trkpt><trkpt lat="46.20026670483208" lon="13.273662335407906"><ele>203.33333333333331</ele><time>2026-04-22T16:45:31.999Z</time></trkpt><trkpt lat="46.20025537620746" lon="13.273392486694668"><ele>201.66666666666669</ele><time>2026-04-22T16:45:32.999Z</time></trkpt><trkpt lat="46.200239308977864" lon="13.27310852088146"><ele>200.0</ele><time>2026-04-22T16:45:33.999Z</time></trkpt><trkpt lat="46.200224066878214" lon="13.27281205635409"><ele>199.0</ele><time>2026-04-22T16:45:34.999Z</time></trkpt><trkpt lat="46.20021035620987" lon="13.272527160569501"><ele>198.0</ele><time>2026-04-22T16:45:35.999Z</time></trkpt><trkpt lat="46.200198104947525" lon="13.272257851742046"><ele>197.0</ele><time>2026-04-22T16:45:36.999Z</time></trkpt><trkpt lat="46.20018611268927" lon="13.271997875135376"><ele>197.0</ele><time>2026-04-22T16:45:37.999Z</time></trkpt><trkpt lat="46.200174174250435" lon="13.27175037555853"><ele>197.0</ele><time>2026-04-22T16:45:38.999Z</time></trkpt><trkpt lat="46.20016025811853" lon="13.271505889774005"><ele>197.0</ele><time>2026-04-22T16:45:39.999Z</time></trkpt><trkpt lat="46.200148030151794" lon="13.271263512526788"><ele>197.66666666666669</ele><time>2026-04-22T16:45:40.999Z</time></trkpt><trkpt lat="46.20013765206314" lon="13.271024852127958"><ele>198.33333333333331</ele><time>2026-04-22T16:45:41.999Z</time></trkpt><trkpt lat="46.200120655871146" lon="13.270789748940494"><ele>199.0</ele><time>2026-04-22T16:45:42.999Z</time></trkpt><trkpt lat="46.20009137571864" lon="13.270542997150443"><ele>199.66666666666666</ele><time>2026-04-22T16:45:43.999Z</time></trkpt><trkpt lat="46.200062886878314" lon="13.270292397740471"><ele>200.33333333333331</ele><time>2026-04-22T16:45:44.999Z</time></trkpt><trkpt lat="46.200039375113036" lon="13.270067083312918"><ele>201.0</ele><time>2026-04-22T16:45:45.999Z</time></trkpt><trkpt lat="46.20001664079652" lon="13.26984767394712"><ele>202.0</ele><time>2026-04-22T16:45:46.999Z</time></trkpt><trkpt lat="46.200005073833566" lon="13.269642739420835"><ele>203.0</ele><time>2026-04-22T16:45:47.999Z</time></trkpt><trkpt lat="46.200001250442725" lon="13.269427617479014"><ele>204.0</ele><time>2026-04-22T16:45:48.999Z</time></trkpt><trkpt lat="46.20000953590769" lon="13.269207069845098"><ele>205.0</ele><time>2026-04-22T16:45:49.999Z</time></trkpt><trkpt lat="46.20002402007393" lon="13.268997105328014"><ele>205.75</ele><time>2026-04-22T16:45:50.999Z</time></trkpt><trkpt lat="46.20003922577571" lon="13.268795130130663"><ele>206.5</ele><time>2026-04-22T16:45:51.999Z</time></trkpt><trkpt lat="46.200043961417926" lon="13.26859997592141"><ele>207.25</ele><time>2026-04-22T16:45:52.999Z</time></trkpt><trkpt lat="46.20003936479122" lon="13.268390599994008"><ele>208.0</ele><time>2026-04-22T16:45:53.999Z</time></trkpt><trkpt lat="46.200033660338576" lon="13.268175661277429"><ele>208.25</ele><time>2026-04-22T16:45:54.999Z</time></trkpt><trkpt lat="46.20002409786334" lon="13.26796653237231"><ele>208.5</ele><time>2026-04-22T16:45:55.999Z</time></trkpt><trkpt lat="46.200016354514055" lon="13.26777565637699"><ele>208.75</ele><time>2026-04-22T16:45:56.999Z</time></trkpt><trkpt lat="46.200010850111646" lon="13.267620696307837"><ele>209.0</ele><time>2026-04-22T16:45:57.999Z</time></trkpt><trkpt lat="46.20000703510929" lon="13.267479351940375"><ele>209.00000000000003</ele><time>2026-04-22T16:45:58.999Z</time></trkpt><trkpt lat="46.200009764093984" lon="13.267340510028458"><ele>209.0</ele><time>2026-04-22T16:45:59.999Z</time></trkpt><trkpt lat="46.20001848303472" lon="13.267203489496401"><ele>209.0</ele><time>2026-04-22T16:46:00.999Z</time></trkpt><trkpt lat="46.200024249764" lon="13.267081238270482"><ele>209.0</ele><time>2026-04-22T16:46:01.999Z</time></trkpt><trkpt lat="46.2000332811203" lon="13.266968788042922"><ele>209.00000000000003</ele><time>2026-04-22T16:46:02.999Z</time></trkpt><trkpt lat="46.20004944664572" lon="13.266860945635099"><ele>209.0</ele><time>2026-04-22T16:46:03.999Z</time></trkpt><trkpt lat="46.200068534757214" lon="13.266743635399223"><ele>209.00000000000003</ele><time>2026-04-22T16:46:04.999Z</time></trkpt><trkpt lat="46.200084494692284" lon="13.26661634263852"><ele>209.0</ele><time>2026-04-22T16:46:05.999Z</time></trkpt><trkpt lat="46.20010497436174" lon="13.266499636808621"><ele>209.0</ele><time>2026-04-22T16:46:06.999Z</time></trkpt><trkpt lat="46.2001255082702" lon="13.266396046774812"><ele>209.0</ele><time>2026-04-22T16:46:07.999Z</time></trkpt><trkpt lat="46.20014091671424" lon="13.266287038031146"><ele>209.00000000000003</ele><time>2026-04-22T16:46:08.999Z</time></trkpt><trkpt lat="46.20016219585003" lon="13.266176727579797"><ele>209.0</ele><time>2026-04-22T16:46:09.999Z</time></trkpt><trkpt lat="46.20018401362531" lon="13.26606557670817"><ele>209.0</ele><time>2026-04-22T16:46:10.999Z</time></trkpt><trkpt lat="46.20020391334585" lon="13.265945575361021"><ele>209.0</ele><time>2026-04-22T16:46:11.999Z</time></trkpt><trkpt lat="46.200230010846504" lon="13.265816829448276"><ele>209.0</ele><time>2026-04-22T16:46:12.999Z</time></trkpt><trkpt lat="46.20026354502758" lon="13.265687114568161"><ele>209.0</ele><time>2026-04-22T16:46:13.999Z</time></trkpt><trkpt lat="46.20029894521381" lon="13.265561491125526"><ele>209.0</ele><time>2026-04-22T16:46:14.999Z</time></trkpt><trkpt lat="46.20033904917351" lon="13.265440982260877"><ele>208.79999999999998</ele><time>2026-04-22T16:46:15.999Z</time></trkpt><trkpt lat="46.200391279542146" lon="13.26531306249348"><ele>208.6</ele><time>2026-04-22T16:46:16.999Z</time></trkpt><trkpt lat="46.20045237976395" lon="13.265184709790423"><ele>208.4</ele><time>2026-04-22T16:46:17.999Z</time></trkpt><trkpt lat="46.20050849191874" lon="13.26505422351549"><ele>208.2</ele><time>2026-04-22T16:46:18.999Z</time></trkpt><trkpt lat="46.200565830061095" lon="13.264942204444642"><ele>208.0</ele><time>2026-04-22T16:46:19.999Z</time></trkpt><trkpt lat="46.20060940621529" lon="13.264833503771655"><ele>207.83333333333331</ele><time>2026-04-22T16:46:20.999Z</time></trkpt><trkpt lat="46.20065306822899" lon="13.264733626932832"><ele>207.66666666666666</ele><time>2026-04-22T16:46:21.999Z</time></trkpt><trkpt lat="46.200700089941996" lon="13.264637237539542"><ele>207.5</ele><time>2026-04-22T16:46:22.999Z</time></trkpt><trkpt lat="46.20074105095817" lon="13.264548116044981"><ele>207.33333333333331</ele><time>2026-04-22T16:46:23.999Z</time></trkpt><trkpt lat="46.20080305994265" lon="13.264404394813253"><ele>207.16666666666666</ele><time>2026-04-22T16:46:25.999Z</time></trkpt><trkpt lat="46.20085074058897" lon="13.264308549257082"><ele>207.0</ele><time>2026-04-22T16:46:27.999Z</time></trkpt><trkpt lat="46.20089008327252" lon="13.26421738356925"><ele>207.0</ele><time>2026-04-22T16:46:31Z</time></trkpt><trkpt lat="46.2008921095422" lon="13.264102824474017"><ele>207.0</ele><time>2026-04-22T16:46:34Z</time></trkpt><trkpt lat="46.200734609970894" lon="13.264048421664212"><ele>207.0</ele><time>2026-04-22T16:46:36Z</time></trkpt><trkpt lat="46.20065293289226" lon="13.264037625156748"><ele>207.0</ele><time>2026-04-22T16:46:37Z</time></trkpt><trkpt lat="46.200544868474935" lon="13.264023506726833"><ele>207.0</ele><time>2026-04-22T16:46:38Z</time></trkpt><trkpt lat="46.20041310504046" lon="13.264008785938888"><ele>207.0</ele><time>2026-04-22T16:46:39Z</time></trkpt><trkpt lat="46.20027339458111" lon="13.263985570132473"><ele>207.0</ele><time>2026-04-22T16:46:40Z</time></trkpt><trkpt lat="46.20013069351651" lon="13.263973866245696"><ele>207.0</ele><time>2026-04-22T16:46:41Z</time></trkpt><trkpt lat="46.19999386059044" lon="13.263958386625358"><ele>207.0</ele><time>2026-04-22T16:46:42Z</time></trkpt><trkpt lat="46.19985933698932" lon="13.263943580132661"><ele>207.0</ele><time>2026-04-22T16:46:43Z</time></trkpt><trkpt lat="46.19972565965533" lon="13.263930941588562"><ele>207.0</ele><time>2026-04-22T16:46:44Z</time></trkpt><trkpt lat="46.19957843217687" lon="13.263925933985448"><ele>207.0</ele><time>2026-04-22T16:46:45Z</time></trkpt><trkpt lat="46.19939189247581" lon="13.263891437172445"><ele>207.0</ele><time>2026-04-22T16:46:46Z</time></trkpt><trkpt lat="46.19917260246029" lon="13.263888203074607"><ele>207.0</ele><time>2026-04-22T16:46:47Z</time></trkpt><trkpt lat="46.198940541696594" lon="13.263847944656463"><ele>206.33333333333331</ele><time>2026-04-22T16:46:48Z</time></trkpt><trkpt lat="46.19872895848862" lon="13.263798664654843"><ele>205.66666666666666</ele><time>2026-04-22T16:46:49Z</time></trkpt><trkpt lat="46.19854034722897" lon="13.26372473818203"><ele>205.0</ele><time>2026-04-22T16:46:50Z</time></trkpt><trkpt lat="46.198364265455886" lon="13.263639248450433"><ele>205.0</ele><time>2026-04-22T16:46:51Z</time></trkpt><trkpt lat="46.198205465480385" lon="13.263564179222273"><ele>205.0</ele><time>2026-04-22T16:46:52Z</time></trkpt><trkpt lat="46.198056531455805" lon="13.263503637354567"><ele>205.0</ele><time>2026-04-22T16:46:53Z</time></trkpt><trkpt lat="46.197920292131094" lon="13.263443911417475"><ele>205.0</ele><time>2026-04-22T16:46:54Z</time></trkpt><trkpt lat="46.197793260855256" lon="13.263390874419118"><ele>205.0</ele><time>2026-04-22T16:46:55Z</time></trkpt><trkpt lat="46.1976799001919" lon="13.26334627874072"><ele>205.0</ele><time>2026-04-22T16:46:56Z</time></trkpt><trkpt lat="46.197573739378186" lon="13.263299622105308"><ele>205.0</ele><time>2026-04-22T16:46:57Z</time></trkpt><trkpt lat="46.19747723783016" lon="13.263254991392767"><ele>205.0</ele><time>2026-04-22T16:46:58Z</time></trkpt><trkpt lat="46.19738753541082" lon="13.26321168566585"><ele>205.0</ele><time>2026-04-22T16:46:59Z</time></trkpt><trkpt lat="46.19731401868995" lon="13.26316546154546"><ele>205.0</ele><time>2026-04-22T16:47:00Z</time></trkpt><trkpt lat="46.19726370718079" lon="13.263105819016543"><ele>205.0</ele><time>2026-04-22T16:47:01Z</time></trkpt><trkpt lat="46.19717564218487" lon="13.263015874672915"><ele>205.0</ele><time>2026-04-22T16:47:03Z</time></trkpt><trkpt lat="46.197169489701764" lon="13.262839087957028"><ele>205.0</ele><time>2026-04-22T16:47:04Z</time></trkpt><trkpt lat="46.197125255081886" lon="13.262684824818077"><ele>205.0</ele><time>2026-04-22T16:47:05Z</time></trkpt><trkpt lat="46.19706140960603" lon="13.26246535642415"><ele>205.0</ele><time>2026-04-22T16:47:06Z</time></trkpt><trkpt lat="46.19699052267178" lon="13.262232171203308"><ele>204.66666666666666</ele><time>2026-04-22T16:47:06.999Z</time></trkpt><trkpt lat="46.19691308073908" lon="13.262015676193958"><ele>204.33333333333331</ele><time>2026-04-22T16:47:07.999Z</time></trkpt><trkpt lat="46.1968353152599" lon="13.261812385323138"><ele>204.0</ele><time>2026-04-22T16:47:08.999Z</time></trkpt><trkpt lat="46.19675475867442" lon="13.261626521555636"><ele>204.0</ele><time>2026-04-22T16:47:09.999Z</time></trkpt><trkpt lat="46.1966763831006" lon="13.261450669868857"><ele>204.0</ele><time>2026-04-22T16:47:10.999Z</time></trkpt><trkpt lat="46.196607698791084" lon="13.261281892152946"><ele>204.0</ele><time>2026-04-22T16:47:11.999Z</time></trkpt><trkpt lat="46.1965519547538" lon="13.261114483272877"><ele>204.0</ele><time>2026-04-22T16:47:12.999Z</time></trkpt><trkpt lat="46.19650583885812" lon="13.260938839669135"><ele>203.75</ele><time>2026-04-22T16:47:13.999Z</time></trkpt><trkpt lat="46.196469133512885" lon="13.260745552129205"><ele>203.5</ele><time>2026-04-22T16:47:14.999Z</time></trkpt><trkpt lat="46.196449833188" lon="13.260533380569385"><ele>203.25</ele><time>2026-04-22T16:47:15.999Z</time></trkpt><trkpt lat="46.19644440974823" lon="13.260310677076083"><ele>203.0</ele><time>2026-04-22T16:47:16.999Z</time></trkpt><trkpt lat="46.19644328611942" lon="13.260081761941992"><ele>203.0</ele><time>2026-04-22T16:47:17.999Z</time></trkpt><trkpt lat="46.19643662801588" lon="13.25985585259267"><ele>203.0</ele><time>2026-04-22T16:47:18.999Z</time></trkpt><trkpt lat="46.19643261725351" lon="13.259632604558364"><ele>203.0</ele><time>2026-04-22T16:47:19.999Z</time></trkpt><trkpt lat="46.196436787094434" lon="13.259416784691844"><ele>203.25</ele><time>2026-04-22T16:47:20.999Z</time></trkpt><trkpt lat="46.196443034163664" lon="13.25922090703838"><ele>203.5</ele><time>2026-04-22T16:47:21.999Z</time></trkpt><trkpt lat="46.19644295617706" lon="13.259049106947435"><ele>203.75</ele><time>2026-04-22T16:47:22.999Z</time></trkpt><trkpt lat="46.196427501483164" lon="13.258886289987645"><ele>204.0</ele><time>2026-04-22T16:47:23.999Z</time></trkpt><trkpt lat="46.196376244860545" lon="13.258712247007397"><ele>204.0</ele><time>2026-04-22T16:47:24.999Z</time></trkpt><trkpt lat="46.196283970634575" lon="13.258541676030184"><ele>204.0</ele><time>2026-04-22T16:47:25.999Z</time></trkpt><trkpt lat="46.1961812400067" lon="13.258379773107484"><ele>204.0</ele><time>2026-04-22T16:47:26.999Z</time></trkpt><trkpt lat="46.19610759564112" lon="13.258221115988842"><ele>204.0</ele><time>2026-04-22T16:47:27.999Z</time></trkpt><trkpt lat="46.19605414889979" lon="13.258053642019902"><ele>203.25</ele><time>2026-04-22T16:47:28.999Z</time></trkpt><trkpt lat="46.1960224767459" lon="13.257870344361741"><ele>202.5</ele><time>2026-04-22T16:47:29.999Z</time></trkpt><trkpt lat="46.19602266213855" lon="13.257664253471663"><ele>201.75</ele><time>2026-04-22T16:47:30.999Z</time></trkpt><trkpt lat="46.19604828580028" lon="13.257455051201363"><ele>201.0</ele><time>2026-04-22T16:47:31.999Z</time></trkpt><trkpt lat="46.19607551148981" lon="13.257258575165954"><ele>200.75</ele><time>2026-04-22T16:47:32.999Z</time></trkpt><trkpt lat="46.19607974964751" lon="13.2570657630235"><ele>200.5</ele><time>2026-04-22T16:47:33.999Z</time></trkpt><trkpt lat="46.19606237837235" lon="13.256855866443678"><ele>200.25</ele><time>2026-04-22T16:47:34.999Z</time></trkpt><trkpt lat="46.19602806613349" lon="13.256648238148257"><ele>200.0</ele><time>2026-04-22T16:47:35.999Z</time></trkpt><trkpt lat="46.196000330434444" lon="13.25645992865105"><ele>199.75</ele><time>2026-04-22T16:47:36.999Z</time></trkpt><trkpt lat="46.195972400750314" lon="13.256290241835865"><ele>199.5</ele><time>2026-04-22T16:47:37.999Z</time></trkpt><trkpt lat="46.19594080289424" lon="13.256121156183932"><ele>199.25</ele><time>2026-04-22T16:47:38.999Z</time></trkpt><trkpt lat="46.195896254589364" lon="13.25596131748014"><ele>199.0</ele><time>2026-04-22T16:47:39.999Z</time></trkpt><trkpt lat="46.195806748588566" lon="13.255811546575119"><ele>199.0</ele><time>2026-04-22T16:47:40.999Z</time></trkpt><trkpt lat="46.195674440827084" lon="13.255682260299155"><ele>199.0</ele><time>2026-04-22T16:47:41.999Z</time></trkpt><trkpt lat="46.19552879698528" lon="13.25556040100373"><ele>199.0</ele><time>2026-04-22T16:47:42.999Z</time></trkpt><trkpt lat="46.19539752175165" lon="13.255428189974094"><ele>197.66666666666666</ele><time>2026-04-22T16:47:43.999Z</time></trkpt><trkpt lat="46.19527406606709" lon="13.255248557553726"><ele>196.33333333333331</ele><time>2026-04-22T16:47:44.999Z</time></trkpt><trkpt lat="46.195174398378825" lon="13.255036963443688"><ele>195.0</ele><time>2026-04-22T16:47:45.999Z</time></trkpt><trkpt lat="46.195090967310875" lon="13.254781447088437"><ele>194.66666666666669</ele><time>2026-04-22T16:47:46.999Z</time></trkpt><trkpt lat="46.19501744806431" lon="13.254502239328263"><ele>194.33333333333334</ele><time>2026-04-22T16:47:47.999Z</time></trkpt><trkpt lat="46.19494585707593" lon="13.254246126833554"><ele>194.0</ele><time>2026-04-22T16:47:48.999Z</time></trkpt><trkpt lat="46.194875059374986" lon="13.253994274092463"><ele>194.0</ele><time>2026-04-22T16:47:49.999Z</time></trkpt><trkpt lat="46.19480962912044" lon="13.253742551629857"><ele>194.0</ele><time>2026-04-22T16:47:50.999Z</time></trkpt><trkpt lat="46.19474592416784" lon="13.253486593488024"><ele>194.0</ele><time>2026-04-22T16:47:51.999Z</time></trkpt><trkpt lat="46.19469152865246" lon="13.25322617127622"><ele>194.0</ele><time>2026-04-22T16:47:52.999Z</time></trkpt><trkpt lat="46.19465288426089" lon="13.252955144526886"><ele>194.0</ele><time>2026-04-22T16:47:53.999Z</time></trkpt><trkpt lat="46.19462946370766" lon="13.252676476725961"><ele>194.0</ele><time>2026-04-22T16:47:54.999Z</time></trkpt><trkpt lat="46.19461782261187" lon="13.252412429061264"><ele>193.33333333333334</ele><time>2026-04-22T16:47:55.999Z</time></trkpt><trkpt lat="46.19462174949625" lon="13.252156552090089"><ele>192.66666666666669</ele><time>2026-04-22T16:47:56.999Z</time></trkpt><trkpt lat="46.19464353923885" lon="13.251892765592569"><ele>192.0</ele><time>2026-04-22T16:47:57.999Z</time></trkpt><trkpt lat="46.19468222240062" lon="13.251628894147792"><ele>191.66666666666666</ele><time>2026-04-22T16:47:58.999Z</time></trkpt><trkpt lat="46.19473515981658" lon="13.251362498097375"><ele>191.33333333333331</ele><time>2026-04-22T16:47:59.999Z</time></trkpt><trkpt lat="46.19479908311159" lon="13.251087748725798"><ele>191.0</ele><time>2026-04-22T16:48:00.999Z</time></trkpt><trkpt lat="46.19487225916621" lon="13.250805677303648"><ele>191.33333333333331</ele><time>2026-04-22T16:48:01.999Z</time></trkpt><trkpt lat="46.19494934215742" lon="13.250514196433851"><ele>191.66666666666666</ele><time>2026-04-22T16:48:02.999Z</time></trkpt><trkpt lat="46.19502810331719" lon="13.250209411098428"><ele>192.0</ele><time>2026-04-22T16:48:03.999Z</time></trkpt><trkpt lat="46.19511188939488" lon="13.249890005846181"><ele>193.0</ele><time>2026-04-22T16:48:04.999Z</time></trkpt><trkpt lat="46.19519889095347" lon="13.249568867868467"><ele>194.0</ele><time>2026-04-22T16:48:05.999Z</time></trkpt><trkpt lat="46.19528307402121" lon="13.249244543441502"><ele>193.0</ele><time>2026-04-22T16:48:06.999Z</time></trkpt><trkpt lat="46.19536647890678" lon="13.2489203590587"><ele>192.0</ele><time>2026-04-22T16:48:07.999Z</time></trkpt><trkpt lat="46.19544669880528" lon="13.248606588825513"><ele>192.0</ele><time>2026-04-22T16:48:08.999Z</time></trkpt><trkpt lat="46.195523290504575" lon="13.248292252360407"><ele>192.0</ele><time>2026-04-22T16:48:09.999Z</time></trkpt><trkpt lat="46.19560676917254" lon="13.24796646547962"><ele>194.66666666666669</ele><time>2026-04-22T16:48:10.999Z</time></trkpt><trkpt lat="46.19569237708271" lon="13.247645056305144"><ele>197.33333333333334</ele><time>2026-04-22T16:48:11.999Z</time></trkpt><trkpt lat="46.19576756385727" lon="13.24736285524868"><ele>200.0</ele><time>2026-04-22T16:48:12.999Z</time></trkpt><trkpt lat="46.19583606843491" lon="13.247097686400377"><ele>200.0</ele><time>2026-04-22T16:48:13.999Z</time></trkpt><trkpt lat="46.19590279503355" lon="13.246841146678328"><ele>200.0</ele><time>2026-04-22T16:48:14.999Z</time></trkpt><trkpt lat="46.19596236148413" lon="13.246586157742582"><ele>200.0</ele><time>2026-04-22T16:48:15.999Z</time></trkpt><trkpt lat="46.19600598406997" lon="13.246314435512781"><ele>199.66666666666669</ele><time>2026-04-22T16:48:16.999Z</time></trkpt><trkpt lat="46.19602313244256" lon="13.246017353623202"><ele>199.33333333333331</ele><time>2026-04-22T16:48:17.999Z</time></trkpt><trkpt lat="46.1960237086722" lon="13.24571249663585"><ele>199.0</ele><time>2026-04-22T16:48:18.999Z</time></trkpt><trkpt lat="46.19601736220661" lon="13.24540558105604"><ele>198.0</ele><time>2026-04-22T16:48:19.999Z</time></trkpt><trkpt lat="46.196019724010945" lon="13.245097074350282"><ele>197.0</ele><time>2026-04-22T16:48:20.999Z</time></trkpt><trkpt lat="46.19601878999453" lon="13.24478167037424"><ele>196.0</ele><time>2026-04-22T16:48:21.999Z</time></trkpt><trkpt lat="46.196022904643776" lon="13.244455133648971"><ele>195.66666666666666</ele><time>2026-04-22T16:48:22.999Z</time></trkpt><trkpt lat="46.196033322342174" lon="13.244129038906603"><ele>195.33333333333331</ele><time>2026-04-22T16:48:23.999Z</time></trkpt><trkpt lat="46.1960497048957" lon="13.243818766408385"><ele>195.0</ele><time>2026-04-22T16:48:24.999Z</time></trkpt><trkpt lat="46.19606930630749" lon="13.24354009697834"><ele>195.0</ele><time>2026-04-22T16:48:25.999Z</time></trkpt><trkpt lat="46.19608892102994" lon="13.243264060855127"><ele>195.0</ele><time>2026-04-22T16:48:26.999Z</time></trkpt><trkpt lat="46.196096628187156" lon="13.242979666408061"><ele>195.0</ele><time>2026-04-22T16:48:27.999Z</time></trkpt><trkpt lat="46.19608533821232" lon="13.24269319337734"><ele>195.0</ele><time>2026-04-22T16:48:28.999Z</time></trkpt><trkpt lat="46.196059811885554" lon="13.24240922907795"><ele>195.0</ele><time>2026-04-22T16:48:29.999Z</time></trkpt><trkpt lat="46.19602858498303" lon="13.242133384463255"><ele>195.0</ele><time>2026-04-22T16:48:30.999Z</time></trkpt><trkpt lat="46.19599487633381" lon="13.241862958159084"><ele>195.0</ele><time>2026-04-22T16:48:31.999Z</time></trkpt><trkpt lat="46.19596219864175" lon="13.241584774866485"><ele>195.0</ele><time>2026-04-22T16:48:32.999Z</time></trkpt><trkpt lat="46.195930014300146" lon="13.241304199151406"><ele>195.0</ele><time>2026-04-22T16:48:33.999Z</time></trkpt><trkpt lat="46.19589318673038" lon="13.241014561325732"><ele>195.0</ele><time>2026-04-22T16:48:34.999Z</time></trkpt><trkpt lat="46.195853925494326" lon="13.240718325845176"><ele>195.0</ele><time>2026-04-22T16:48:36Z</time></trkpt><trkpt lat="46.195819820289984" lon="13.240429592274207"><ele>195.0</ele><time>2026-04-22T16:48:37Z</time></trkpt><trkpt lat="46.195788256302684" lon="13.240158003840541"><ele>195.0</ele><time>2026-04-22T16:48:38Z</time></trkpt><trkpt lat="46.19576010387464" lon="13.239904512481973"><ele>195.0</ele><time>2026-04-22T16:48:39Z</time></trkpt><trkpt lat="46.195734901677376" lon="13.239658933824867"><ele>195.0</ele><time>2026-04-22T16:48:40Z</time></trkpt><trkpt lat="46.195719478843166" lon="13.239412994342011"><ele>196.33333333333331</ele><time>2026-04-22T16:48:41Z</time></trkpt><trkpt lat="46.19571653763806" lon="13.239163814988599"><ele>197.66666666666666</ele><time>2026-04-22T16:48:42Z</time></trkpt><trkpt lat="46.195735505744096" lon="13.238910579985928"><ele>199.0</ele><time>2026-04-22T16:48:43Z</time></trkpt><trkpt lat="46.19576174039219" lon="13.238651073235504"><ele>199.66666666666666</ele><time>2026-04-22T16:48:44Z</time></trkpt><trkpt lat="46.19578197851214" lon="13.238383883008225"><ele>200.33333333333331</ele><time>2026-04-22T16:48:45Z</time></trkpt><trkpt lat="46.19580348580886" lon="13.238126631484215"><ele>201.0</ele><time>2026-04-22T16:48:46Z</time></trkpt><trkpt lat="46.19582667335393" lon="13.23787781850976"><ele>201.0</ele><time>2026-04-22T16:48:47Z</time></trkpt><trkpt lat="46.19584924402824" lon="13.237641713165937"><ele>201.0</ele><time>2026-04-22T16:48:48Z</time></trkpt><trkpt lat="46.195870023338735" lon="13.237429458053809"><ele>201.0</ele><time>2026-04-22T16:48:49Z</time></trkpt><trkpt lat="46.195901757577666" lon="13.237222729551933"><ele>200.0</ele><time>2026-04-22T16:48:50Z</time></trkpt><trkpt lat="46.195963856174714" lon="13.237018395504874"><ele>199.0</ele><time>2026-04-22T16:48:51Z</time></trkpt><trkpt lat="46.196074089680074" lon="13.236830704783422"><ele>198.0</ele><time>2026-04-22T16:48:52Z</time></trkpt><trkpt lat="46.19620425544155" lon="13.236628926292642"><ele>198.0</ele><time>2026-04-22T16:48:53Z</time></trkpt><trkpt lat="46.196334661640456" lon="13.23642077679121"><ele>198.0</ele><time>2026-04-22T16:48:54Z</time></trkpt><trkpt lat="46.196458659845156" lon="13.236216318824122"><ele>198.0</ele><time>2026-04-22T16:48:55Z</time></trkpt><trkpt lat="46.19658174208821" lon="13.236007378868251"><ele>198.0</ele><time>2026-04-22T16:48:56Z</time></trkpt><trkpt lat="46.19670953533412" lon="13.235801431212794"><ele>198.0</ele><time>2026-04-22T16:48:57Z</time></trkpt><trkpt lat="46.19684047133381" lon="13.235593786595826"><ele>198.0</ele><time>2026-04-22T16:48:58Z</time></trkpt><trkpt lat="46.19697406224837" lon="13.235389173101158"><ele>198.33333333333331</ele><time>2026-04-22T16:48:59Z</time></trkpt><trkpt lat="46.197107537904984" lon="13.23518238019144"><ele>198.66666666666666</ele><time>2026-04-22T16:49:00Z</time></trkpt><trkpt lat="46.19724052456595" lon="13.234978538008095"><ele>199.0</ele><time>2026-04-22T16:49:01Z</time></trkpt><trkpt lat="46.19737923517968" lon="13.234783313944165"><ele>200.0</ele><time>2026-04-22T16:49:02Z</time></trkpt><trkpt lat="46.197538955869895" lon="13.234603781076192"><ele>201.0</ele><time>2026-04-22T16:49:03Z</time></trkpt><trkpt lat="46.19771589518567" lon="13.234451723196505"><ele>202.0</ele><time>2026-04-22T16:49:04Z</time></trkpt><trkpt lat="46.197893647465854" lon="13.234312908070622"><ele>202.0</ele><time>2026-04-22T16:49:05Z</time></trkpt><trkpt lat="46.19805667288609" lon="13.234155622687423"><ele>202.0</ele><time>2026-04-22T16:49:06Z</time></trkpt><trkpt lat="46.198193407042446" lon="13.233968021080074"><ele>202.0</ele><time>2026-04-22T16:49:07Z</time></trkpt><trkpt lat="46.198308906189844" lon="13.233770841700625"><ele>202.66666666666666</ele><time>2026-04-22T16:49:08Z</time></trkpt><trkpt lat="46.1984135781694" lon="13.233587364877817"><ele>203.33333333333331</ele><time>2026-04-22T16:49:09Z</time></trkpt><trkpt lat="46.198512536359196" lon="13.233423049584355"><ele>204.0</ele><time>2026-04-22T16:49:10Z</time></trkpt><trkpt lat="46.198622728001986" lon="13.233274108745611"><ele>204.0</ele><time>2026-04-22T16:49:11Z</time></trkpt><trkpt lat="46.1987503816506" lon="13.233151770803213"><ele>204.0</ele><time>2026-04-22T16:49:12Z</time></trkpt><trkpt lat="46.19889561872452" lon="13.233055626549275"><ele>204.0</ele><time>2026-04-22T16:49:13Z</time></trkpt><trkpt lat="46.199055100719974" lon="13.23296492291934"><ele>203.33333333333331</ele><time>2026-04-22T16:49:14Z</time></trkpt><trkpt lat="46.19921246612028" lon="13.232875486947831"><ele>202.66666666666666</ele><time>2026-04-22T16:49:15Z</time></trkpt><trkpt lat="46.19936369152344" lon="13.232790146957786"><ele>202.0</ele><time>2026-04-22T16:49:16Z</time></trkpt><trkpt lat="46.199508795247944" lon="13.232701779471219"><ele>202.0</ele><time>2026-04-22T16:49:17Z</time></trkpt><trkpt lat="46.199648903616286" lon="13.232611691386932"><ele>202.0</ele><time>2026-04-22T16:49:18Z</time></trkpt><trkpt lat="46.19979160119635" lon="13.232514428008724"><ele>202.0</ele><time>2026-04-22T16:49:19Z</time></trkpt><trkpt lat="46.19993088618809" lon="13.23240788463324"><ele>202.5</ele><time>2026-04-22T16:49:19.999Z</time></trkpt><trkpt lat="46.2000617123105" lon="13.23229407217777"><ele>203.0</ele><time>2026-04-22T16:49:20.999Z</time></trkpt><trkpt lat="46.20017365071851" lon="13.232186931408753"><ele>203.5</ele><time>2026-04-22T16:49:21.999Z</time></trkpt><trkpt lat="46.20028537181751" lon="13.232075818488097"><ele>204.0</ele><time>2026-04-22T16:49:22.999Z</time></trkpt><trkpt lat="46.20040197925323" lon="13.231965008980334"><ele>204.0</ele><time>2026-04-22T16:49:23.999Z</time></trkpt><trkpt lat="46.20051953684384" lon="13.231853897875242"><ele>204.0</ele><time>2026-04-22T16:49:24.999Z</time></trkpt><trkpt lat="46.20063744825189" lon="13.23174121372415"><ele>204.0</ele><time>2026-04-22T16:49:25.999Z</time></trkpt><trkpt lat="46.200753781518294" lon="13.231633692136915"><ele>204.0</ele><time>2026-04-22T16:49:26.999Z</time></trkpt><trkpt lat="46.20086843615905" lon="13.231528006021751"><ele>204.0</ele><time>2026-04-22T16:49:27.999Z</time></trkpt><trkpt lat="46.200981020551126" lon="13.231419741453683"><ele>204.0</ele><time>2026-04-22T16:49:28.999Z</time></trkpt><trkpt lat="46.20109633497954" lon="13.231314874084122"><ele>204.0</ele><time>2026-04-22T16:49:29.999Z</time></trkpt><trkpt lat="46.20120927951217" lon="13.23120471969303"><ele>204.0</ele><time>2026-04-22T16:49:30.999Z</time></trkpt><trkpt lat="46.20132373014276" lon="13.231095685587109"><ele>204.0</ele><time>2026-04-22T16:49:31.999Z</time></trkpt><trkpt lat="46.20143974325486" lon="13.230987518938372"><ele>204.0</ele><time>2026-04-22T16:49:32.999Z</time></trkpt><trkpt lat="46.20155455951782" lon="13.230880863830665"><ele>204.0</ele><time>2026-04-22T16:49:33.999Z</time></trkpt><trkpt lat="46.201675115017565" lon="13.230781349754666"><ele>204.0</ele><time>2026-04-22T16:49:34.999Z</time></trkpt><trkpt lat="46.20180064943672" lon="13.230689367653337"><ele>204.0</ele><time>2026-04-22T16:49:35.999Z</time></trkpt><trkpt lat="46.20192882788156" lon="13.230600960774984"><ele>204.0</ele><time>2026-04-22T16:49:36.999Z</time></trkpt><trkpt lat="46.202058647099754" lon="13.23052318876062"><ele>204.0</ele><time>2026-04-22T16:49:37.999Z</time></trkpt><trkpt lat="46.20219541793166" lon="13.2304586227303"><ele>204.0</ele><time>2026-04-22T16:49:38.999Z</time></trkpt><trkpt lat="46.20232964302794" lon="13.230405490053954"><ele>204.79999999999998</ele><time>2026-04-22T16:49:39.999Z</time></trkpt><trkpt lat="46.20244643860777" lon="13.230360801112944"><ele>205.6</ele><time>2026-04-22T16:49:40.999Z</time></trkpt><trkpt lat="46.20255362444609" lon="13.230317227716421"><ele>206.4</ele><time>2026-04-22T16:49:41.999Z</time></trkpt><trkpt lat="46.20265371257327" lon="13.230276515164997"><ele>207.2</ele><time>2026-04-22T16:49:42.999Z</time></trkpt><trkpt lat="46.20276238062337" lon="13.230233751616128"><ele>208.0</ele><time>2026-04-22T16:49:43.999Z</time></trkpt><trkpt lat="46.20287384644451" lon="13.230186284612397"><ele>208.0</ele><time>2026-04-22T16:49:44.999Z</time></trkpt><trkpt lat="46.202976812091435" lon="13.230137369395669"><ele>208.0</ele><time>2026-04-22T16:49:45.999Z</time></trkpt><trkpt lat="46.20306875125421" lon="13.23008600556431"><ele>208.0</ele><time>2026-04-22T16:49:46.999Z</time></trkpt><trkpt lat="46.20314727243193" lon="13.230020347172024"><ele>208.0</ele><time>2026-04-22T16:49:47.999Z</time></trkpt><trkpt lat="46.20320437322349" lon="13.229933160540737"><ele>208.0</ele><time>2026-04-22T16:49:48.999Z</time></trkpt><trkpt lat="46.203247183836496" lon="13.229822013238088"><ele>207.0</ele><time>2026-04-22T16:49:49.999Z</time></trkpt><trkpt lat="46.20325949138173" lon="13.229682654601321"><ele>206.0</ele><time>2026-04-22T16:49:50.999Z</time></trkpt><trkpt lat="46.2032523914173" lon="13.229536605019039"><ele>205.0</ele><time>2026-04-22T16:49:51.999Z</time></trkpt><trkpt lat="46.20325755793522" lon="13.22938353428962"><ele>204.0</ele><time>2026-04-22T16:49:52.999Z</time></trkpt><trkpt lat="46.20326121568612" lon="13.229210464539051"><ele>203.0</ele><time>2026-04-22T16:49:53.999Z</time></trkpt><trkpt lat="46.203264449994826" lon="13.229036246600167"><ele>204.00000000000003</ele><time>2026-04-22T16:49:54.999Z</time></trkpt><trkpt lat="46.20326807520668" lon="13.228883614753089"><ele>205.0</ele><time>2026-04-22T16:49:55.999Z</time></trkpt><trkpt lat="46.20327222084318" lon="13.228752420227693"><ele>206.0</ele><time>2026-04-22T16:49:56.999Z</time></trkpt><trkpt lat="46.20327632486268" lon="13.228630551120137"><ele>207.0</ele><time>2026-04-22T16:49:57.999Z</time></trkpt><trkpt lat="46.20328398875278" lon="13.22851088043378"><ele>208.00000000000003</ele><time>2026-04-22T16:49:58.999Z</time></trkpt><trkpt lat="46.20330420935871" lon="13.22839966103888"><ele>209.0</ele><time>2026-04-22T16:49:59.999Z</time></trkpt><trkpt lat="46.20333995695673" lon="13.228307903191107"><ele>209.00000000000003</ele><time>2026-04-22T16:50:00.999Z</time></trkpt><trkpt lat="46.20339328012868" lon="13.228225451212909"><ele>209.0</ele><time>2026-04-22T16:50:01.999Z</time></trkpt><trkpt lat="46.20346119436538" lon="13.22815451231627"><ele>209.0</ele><time>2026-04-22T16:50:02.999Z</time></trkpt><trkpt lat="46.20354005335896" lon="13.22809689050089"><ele>209.0</ele><time>2026-04-22T16:50:03.999Z</time></trkpt><trkpt lat="46.20362483008427" lon="13.228041412334122"><ele>209.00000000000003</ele><time>2026-04-22T16:50:04.999Z</time></trkpt><trkpt lat="46.20371747553888" lon="13.227983664165723"><ele>209.0</ele><time>2026-04-22T16:50:05.999Z</time></trkpt><trkpt lat="46.20382066250064" lon="13.227924478826715"><ele>209.0</ele><time>2026-04-22T16:50:06.999Z</time></trkpt><trkpt lat="46.20393849058002" lon="13.227865912483415"><ele>209.0</ele><time>2026-04-22T16:50:07.999Z</time></trkpt><trkpt lat="46.20406463293039" lon="13.227801077878063"><ele>209.0</ele><time>2026-04-22T16:50:08.999Z</time></trkpt><trkpt lat="46.20420042940068" lon="13.227730177061979"><ele>209.0</ele><time>2026-04-22T16:50:09.999Z</time></trkpt><trkpt lat="46.20434452228678" lon="13.227655807318921"><ele>209.0</ele><time>2026-04-22T16:50:10.999Z</time></trkpt><trkpt lat="46.20449812737279" lon="13.227574641637021"><ele>209.0</ele><time>2026-04-22T16:50:11.999Z</time></trkpt><trkpt lat="46.20467178473982" lon="13.227474983121041"><ele>209.0</ele><time>2026-04-22T16:50:12.999Z</time></trkpt><trkpt lat="46.20487252982653" lon="13.227400846630953"><ele>210.66666666666669</ele><time>2026-04-22T16:50:13.999Z</time></trkpt><trkpt lat="46.20506953021153" lon="13.227278435744068"><ele>212.33333333333331</ele><time>2026-04-22T16:50:14.999Z</time></trkpt><trkpt lat="46.205266665816936" lon="13.227193113036893"><ele>214.0</ele><time>2026-04-22T16:50:15.999Z</time></trkpt><trkpt lat="46.20545721349919" lon="13.227105995770616"><ele>214.0</ele><time>2026-04-22T16:50:16.999Z</time></trkpt><trkpt lat="46.20563827842736" lon="13.227013375056377"><ele>214.0</ele><time>2026-04-22T16:50:17.999Z</time></trkpt><trkpt lat="46.2058112648426" lon="13.226923721071989"><ele>214.0</ele><time>2026-04-22T16:50:18.999Z</time></trkpt><trkpt lat="46.20597477250655" lon="13.226842595253942"><ele>214.33333333333331</ele><time>2026-04-22T16:50:19.999Z</time></trkpt><trkpt lat="46.20613407099345" lon="13.226766342447563"><ele>214.66666666666669</ele><time>2026-04-22T16:50:20.999Z</time></trkpt><trkpt lat="46.20629018969747" lon="13.226687687681116"><ele>215.0</ele><time>2026-04-22T16:50:21.999Z</time></trkpt><trkpt lat="46.206446583831074" lon="13.226609599728604"><ele>215.0</ele><time>2026-04-22T16:50:22.999Z</time></trkpt><trkpt lat="46.20661231360311" lon="13.226526365853479"><ele>215.0</ele><time>2026-04-22T16:50:23.999Z</time></trkpt><trkpt lat="46.20678747896318" lon="13.226440089887799"><ele>215.0</ele><time>2026-04-22T16:50:24.999Z</time></trkpt><trkpt lat="46.20696754746257" lon="13.22635065491605"><ele>215.0</ele><time>2026-04-22T16:50:25.999Z</time></trkpt><trkpt lat="46.20715203519617" lon="13.226256386988897"><ele>215.0</ele><time>2026-04-22T16:50:26.999Z</time></trkpt><trkpt lat="46.20733482878864" lon="13.226159508090896"><ele>215.0</ele><time>2026-04-22T16:50:27.999Z</time></trkpt><trkpt lat="46.20750918960158" lon="13.226065804724156"><ele>215.33333333333334</ele><time>2026-04-22T16:50:28.999Z</time></trkpt><trkpt lat="46.20767894149666" lon="13.22598066121573"><ele>215.66666666666669</ele><time>2026-04-22T16:50:29.999Z</time></trkpt><trkpt lat="46.207844210971736" lon="13.225892284400288"><ele>216.0</ele><time>2026-04-22T16:50:30.999Z</time></trkpt><trkpt lat="46.20800491400989" lon="13.225791330908296"><ele>216.0</ele><time>2026-04-22T16:50:31.999Z</time></trkpt><trkpt lat="46.20815637320959" lon="13.225676981450622"><ele>216.0</ele><time>2026-04-22T16:50:32.999Z</time></trkpt><trkpt lat="46.20829990425784" lon="13.225545673282866"><ele>216.0</ele><time>2026-04-22T16:50:33.999Z</time></trkpt><trkpt lat="46.20843631268396" lon="13.22539899718777"><ele>216.0</ele><time>2026-04-22T16:50:34.999Z</time></trkpt><trkpt lat="46.208568732371354" lon="13.225226257992643"><ele>216.0</ele><time>2026-04-22T16:50:35.999Z</time></trkpt><trkpt lat="46.20870031552885" lon="13.225030078473992"><ele>216.0</ele><time>2026-04-22T16:50:36.999Z</time></trkpt><trkpt lat="46.208830500619634" lon="13.224835267004977"><ele>216.0</ele><time>2026-04-22T16:50:37.999Z</time></trkpt><trkpt lat="46.20896071340001" lon="13.224645706016943"><ele>216.0</ele><time>2026-04-22T16:50:38.999Z</time></trkpt><trkpt lat="46.209091102285385" lon="13.224457518128812"><ele>216.0</ele><time>2026-04-22T16:50:39.999Z</time></trkpt><trkpt lat="46.20921810293493" lon="13.224268332780248"><ele>216.0</ele><time>2026-04-22T16:50:40.999Z</time></trkpt><trkpt lat="46.20934583911409" lon="13.224083387824482"><ele>216.0</ele><time>2026-04-22T16:50:42Z</time></trkpt><trkpt lat="46.20947011433644" lon="13.223900042082443"><ele>216.0</ele><time>2026-04-22T16:50:43Z</time></trkpt><trkpt lat="46.209585044579015" lon="13.223725126250054"><ele>216.0</ele><time>2026-04-22T16:50:44Z</time></trkpt><trkpt lat="46.20969984953094" lon="13.223555016960862"><ele>216.0</ele><time>2026-04-22T16:50:45Z</time></trkpt><trkpt lat="46.209814835339614" lon="13.22338775907212"><ele>216.0</ele><time>2026-04-22T16:50:46Z</time></trkpt><trkpt lat="46.20992785197861" lon="13.22321863347527"><ele>216.66666666666669</ele><time>2026-04-22T16:50:47Z</time></trkpt><trkpt lat="46.210041241898836" lon="13.223050656802569"><ele>217.33333333333334</ele><time>2026-04-22T16:50:48Z</time></trkpt><trkpt lat="46.21015614142925" lon="13.222887116372274"><ele>218.0</ele><time>2026-04-22T16:50:49Z</time></trkpt><trkpt lat="46.210274842838004" lon="13.222729775041142"><ele>218.0</ele><time>2026-04-22T16:50:50Z</time></trkpt><trkpt lat="46.210398511410624" lon="13.222588035141797"><ele>218.0</ele><time>2026-04-22T16:50:51Z</time></trkpt><trkpt lat="46.21052389875352" lon="13.222458502265695"><ele>218.0</ele><time>2026-04-22T16:50:52Z</time></trkpt><trkpt lat="46.21064910131228" lon="13.222342530420427"><ele>219.0</ele><time>2026-04-22T16:50:53Z</time></trkpt><trkpt lat="46.21076918555223" lon="13.222224858726566"><ele>220.0</ele><time>2026-04-22T16:50:54Z</time></trkpt><trkpt lat="46.210888034601474" lon="13.222110745076852"><ele>221.0</ele><time>2026-04-22T16:50:55Z</time></trkpt><trkpt lat="46.21100525860854" lon="13.22200055570807"><ele>222.0</ele><time>2026-04-22T16:50:56Z</time></trkpt><trkpt lat="46.2111226252301" lon="13.22189384285663"><ele>222.0</ele><time>2026-04-22T16:50:57Z</time></trkpt><trkpt lat="46.21123883702086" lon="13.22178545190042"><ele>222.0</ele><time>2026-04-22T16:50:58Z</time></trkpt><trkpt lat="46.211349785225934" lon="13.221688712842496"><ele>222.0</ele><time>2026-04-22T16:50:59Z</time></trkpt><trkpt lat="46.211447603113555" lon="13.221598844501745"><ele>222.0</ele><time>2026-04-22T16:51:00Z</time></trkpt><trkpt lat="46.21154078480743" lon="13.22151319002915"><ele>222.39999999999998</ele><time>2026-04-22T16:51:01Z</time></trkpt><trkpt lat="46.211637734938435" lon="13.221429045221083"><ele>222.79999999999998</ele><time>2026-04-22T16:51:02Z</time></trkpt><trkpt lat="46.2117311263825" lon="13.221344836717206"><ele>223.2</ele><time>2026-04-22T16:51:03Z</time></trkpt><trkpt lat="46.21182429606747" lon="13.221262721035188"><ele>223.6</ele><time>2026-04-22T16:51:04Z</time></trkpt><trkpt lat="46.21191491801156" lon="13.221179931245473"><ele>224.0</ele><time>2026-04-22T16:51:05Z</time></trkpt><trkpt lat="46.2120116368422" lon="13.221096509860645"><ele>224.0</ele><time>2026-04-22T16:51:06Z</time></trkpt><trkpt lat="46.21210983993394" lon="13.221010303220911"><ele>223.99999999999997</ele><time>2026-04-22T16:51:07Z</time></trkpt><trkpt lat="46.21220112946758" lon="13.220926881162054"><ele>223.99999999999997</ele><time>2026-04-22T16:51:08Z</time></trkpt><trkpt lat="46.21228213491882" lon="13.220848064823945"><ele>224.0</ele><time>2026-04-22T16:51:09Z</time></trkpt><trkpt lat="46.21235749422075" lon="13.220775204046802"><ele>224.0</ele><time>2026-04-22T16:51:10Z</time></trkpt><trkpt lat="46.21243085358329" lon="13.220701350543491"><ele>223.83333333333334</ele><time>2026-04-22T16:51:11Z</time></trkpt><trkpt lat="46.21250269963796" lon="13.220632935020642"><ele>223.66666666666669</ele><time>2026-04-22T16:51:12Z</time></trkpt><trkpt lat="46.212575680027825" lon="13.220570994887986"><ele>223.5</ele><time>2026-04-22T16:51:13Z</time></trkpt><trkpt lat="46.21264628891024" lon="13.220507284782231"><ele>223.33333333333331</ele><time>2026-04-22T16:51:14Z</time></trkpt><trkpt lat="46.21271207321616" lon="13.220451050176461"><ele>223.16666666666666</ele><time>2026-04-22T16:51:15Z</time></trkpt><trkpt lat="46.21277405280621" lon="13.220397969127589"><ele>223.0</ele><time>2026-04-22T16:51:16Z</time></trkpt><trkpt lat="46.2128364021414" lon="13.220341533891098"><ele>222.99999999999997</ele><time>2026-04-22T16:51:17Z</time></trkpt><trkpt lat="46.21289899336781" lon="13.220285805007745"><ele>223.0</ele><time>2026-04-22T16:51:18Z</time></trkpt><trkpt lat="46.21296660902118" lon="13.220228468552412"><ele>223.0</ele><time>2026-04-22T16:51:19Z</time></trkpt><trkpt lat="46.21304008015456" lon="13.220174514731104"><ele>223.0</ele><time>2026-04-22T16:51:20Z</time></trkpt><trkpt lat="46.2131182816712" lon="13.220122011332567"><ele>222.99999999999997</ele><time>2026-04-22T16:51:21Z</time></trkpt><trkpt lat="46.213187673538684" lon="13.220067522491238"><ele>223.0</ele><time>2026-04-22T16:51:22Z</time></trkpt><trkpt lat="46.21325449582421" lon="13.220018523831504"><ele>223.60000000000002</ele><time>2026-04-22T16:51:23Z</time></trkpt><trkpt lat="46.21332134289791" lon="13.219968818517177"><ele>224.20000000000002</ele><time>2026-04-22T16:51:24Z</time></trkpt><trkpt lat="46.213387071022794" lon="13.21992897005158"><ele>224.8</ele><time>2026-04-22T16:51:24.999Z</time></trkpt><trkpt lat="46.21349856299851" lon="13.21986239921715"><ele>225.4</ele><time>2026-04-22T16:51:26.999Z</time></trkpt><trkpt lat="46.21359593136867" lon="13.219823109954245"><ele>226.0</ele><time>2026-04-22T16:51:28.999Z</time></trkpt><trkpt lat="46.21371592417338" lon="13.219788001979737"><ele>226.0</ele><time>2026-04-22T16:51:30.999Z</time></trkpt><trkpt lat="46.21378219833592" lon="13.219781917296208"><ele>226.0</ele><time>2026-04-22T16:51:31.999Z</time></trkpt><trkpt lat="46.21385010524636" lon="13.219791723300771"><ele>226.0</ele><time>2026-04-22T16:51:32.999Z</time></trkpt><trkpt lat="46.213916234172" lon="13.21981372106148"><ele>226.0</ele><time>2026-04-22T16:51:33.999Z</time></trkpt><trkpt lat="46.21400616430403" lon="13.21986217560447"><ele>226.0</ele><time>2026-04-22T16:51:35.999Z</time></trkpt><trkpt lat="46.21407692910764" lon="13.219898795875999"><ele>226.0</ele><time>2026-04-22T16:51:37.999Z</time></trkpt><trkpt lat="46.214138749052886" lon="13.219931159103885"><ele>226.0</ele><time>2026-04-22T16:51:39.999Z</time></trkpt><trkpt lat="46.2142046627186" lon="13.219969350054278"><ele>226.16666666666666</ele><time>2026-04-22T16:51:41.999Z</time></trkpt><trkpt lat="46.21428076352301" lon="13.220001876709704"><ele>226.33333333333331</ele><time>2026-04-22T16:51:44.999Z</time></trkpt><trkpt lat="46.214362134141226" lon="13.220020129466594"><ele>226.5</ele><time>2026-04-22T16:51:47.999Z</time></trkpt><trkpt lat="46.21443440204716" lon="13.22000058427047"><ele>226.66666666666669</ele><time>2026-04-22T16:51:49.999Z</time></trkpt><trkpt lat="46.214508281765255" lon="13.219981309663229"><ele>226.83333333333334</ele><time>2026-04-22T16:51:51.999Z</time></trkpt><trkpt lat="46.21458339455955" lon="13.219956490858316"><ele>227.0</ele><time>2026-04-22T16:51:53.999Z</time></trkpt><trkpt lat="46.21467097826653" lon="13.219934483294553"><ele>227.0</ele><time>2026-04-22T16:51:55.999Z</time></trkpt><trkpt lat="46.214788433515025" lon="13.21987798833597"><ele>227.0</ele><time>2026-04-22T16:51:57.999Z</time></trkpt><trkpt lat="46.21487677531484" lon="13.219691028592512"><ele>227.0</ele><time>2026-04-22T16:51:59.999Z</time></trkpt><trkpt lat="46.214881983755056" lon="13.219583789738463"><ele>227.0</ele><time>2026-04-22T16:52:00.999Z</time></trkpt><trkpt lat="46.21488781995876" lon="13.21947133354992"><ele>227.0</ele><time>2026-04-22T16:52:03.999Z</time></trkpt><trkpt lat="46.21490512704163" lon="13.219354516302595"><ele>226.75</ele><time>2026-04-22T16:52:05.999Z</time></trkpt><trkpt lat="46.214906733043065" lon="13.219161858275555"><ele>226.5</ele><time>2026-04-22T16:52:07.999Z</time></trkpt><trkpt lat="46.214910661746025" lon="13.219030715665708"><ele>226.25</ele><time>2026-04-22T16:52:08.999Z</time></trkpt><trkpt lat="46.21491400288289" lon="13.218865427051242"><ele>226.0</ele><time>2026-04-22T16:52:09.999Z</time></trkpt><trkpt lat="46.214916696669086" lon="13.218672828795933"><ele>226.0</ele><time>2026-04-22T16:52:10.999Z</time></trkpt><trkpt lat="46.21492011972613" lon="13.218460128813419"><ele>226.0</ele><time>2026-04-22T16:52:11.999Z</time></trkpt><trkpt lat="46.214920155897104" lon="13.218235424614656"><ele>226.0</ele><time>2026-04-22T16:52:12.999Z</time></trkpt><trkpt lat="46.21491844652692" lon="13.217998693674485"><ele>225.33333333333331</ele><time>2026-04-22T16:52:13.999Z</time></trkpt><trkpt lat="46.21492516730049" lon="13.217750613780707"><ele>224.66666666666669</ele><time>2026-04-22T16:52:14.999Z</time></trkpt><trkpt lat="46.21493186775871" lon="13.217506171104938"><ele>224.0</ele><time>2026-04-22T16:52:15.999Z</time></trkpt><trkpt lat="46.21493778949802" lon="13.217300970542546"><ele>223.75</ele><time>2026-04-22T16:52:16.999Z</time></trkpt><trkpt lat="46.21494230260101" lon="13.217101683070405"><ele>223.5</ele><time>2026-04-22T16:52:17.999Z</time></trkpt><trkpt lat="46.21494992593242" lon="13.216905175302323"><ele>223.25</ele><time>2026-04-22T16:52:18.999Z</time></trkpt><trkpt lat="46.21495545856717" lon="13.21670696293356"><ele>223.0</ele><time>2026-04-22T16:52:19.999Z</time></trkpt><trkpt lat="46.21495956075833" lon="13.216506709747234"><ele>223.25</ele><time>2026-04-22T16:52:20.999Z</time></trkpt><trkpt lat="46.21496337723587" lon="13.216307865091366"><ele>223.5</ele><time>2026-04-22T16:52:21.999Z</time></trkpt><trkpt lat="46.21496997850377" lon="13.216108498557535"><ele>223.75</ele><time>2026-04-22T16:52:22.999Z</time></trkpt><trkpt lat="46.214976725227515" lon="13.21590709919325"><ele>224.0</ele><time>2026-04-22T16:52:23.999Z</time></trkpt><trkpt lat="46.21498181713068" lon="13.215702346658212"><ele>224.25</ele><time>2026-04-22T16:52:24.999Z</time></trkpt><trkpt lat="46.21498563574883" lon="13.21549196379591"><ele>224.5</ele><time>2026-04-22T16:52:25.999Z</time></trkpt><trkpt lat="46.21498923873936" lon="13.215278668861119"><ele>224.75</ele><time>2026-04-22T16:52:26.999Z</time></trkpt><trkpt lat="46.214997777589176" lon="13.215059013026757"><ele>225.0</ele><time>2026-04-22T16:52:27.999Z</time></trkpt><trkpt lat="46.21500221152316" lon="13.214844929005311"><ele>224.25</ele><time>2026-04-22T16:52:28.999Z</time></trkpt><trkpt lat="46.2150061217808" lon="13.214637022905315"><ele>223.5</ele><time>2026-04-22T16:52:29.999Z</time></trkpt><trkpt lat="46.21500898475302" lon="13.21444738288404"><ele>222.75</ele><time>2026-04-22T16:52:30.999Z</time></trkpt><trkpt lat="46.21501093626582" lon="13.214261807297301"><ele>222.0</ele><time>2026-04-22T16:52:31.999Z</time></trkpt><trkpt lat="46.215013685863184" lon="13.21408923404031"><ele>222.0</ele><time>2026-04-22T16:52:32.999Z</time></trkpt><trkpt lat="46.21501684614004" lon="13.21392419246666"><ele>222.0</ele><time>2026-04-22T16:52:33.999Z</time></trkpt><trkpt lat="46.21502006749743" lon="13.21376639823077"><ele>222.0</ele><time>2026-04-22T16:52:34.999Z</time></trkpt><trkpt lat="46.215024630469294" lon="13.213608235438338"><ele>222.0</ele><time>2026-04-22T16:52:35.999Z</time></trkpt><trkpt lat="46.21503001542395" lon="13.213450977614112"><ele>222.0</ele><time>2026-04-22T16:52:36.999Z</time></trkpt><trkpt lat="46.2150400650809" lon="13.213308075645285"><ele>222.0</ele><time>2026-04-22T16:52:37.999Z</time></trkpt><trkpt lat="46.21505147652381" lon="13.21317715237652"><ele>222.0</ele><time>2026-04-22T16:52:38.999Z</time></trkpt><trkpt lat="46.215064667607265" lon="13.213043344643324"><ele>222.0</ele><time>2026-04-22T16:52:39.999Z</time></trkpt><trkpt lat="46.21508573224247" lon="13.212903558963129"><ele>222.0</ele><time>2026-04-22T16:52:40.999Z</time></trkpt><trkpt lat="46.215107814546194" lon="13.212764445653306"><ele>222.0</ele><time>2026-04-22T16:52:41.999Z</time></trkpt><trkpt lat="46.21512877037135" lon="13.212626054585186"><ele>222.0</ele><time>2026-04-22T16:52:42.999Z</time></trkpt><trkpt lat="46.21515161754805" lon="13.212490549569672"><ele>222.0</ele><time>2026-04-22T16:52:43.999Z</time></trkpt><trkpt lat="46.21517612831889" lon="13.212358864091355"><ele>222.0</ele><time>2026-04-22T16:52:44.999Z</time></trkpt><trkpt lat="46.21520100900069" lon="13.21222955493991"><ele>222.0</ele><time>2026-04-22T16:52:45.999Z</time></trkpt><trkpt lat="46.215226204553446" lon="13.212100353300979"><ele>222.0</ele><time>2026-04-22T16:52:46.999Z</time></trkpt><trkpt lat="46.21523314458834" lon="13.211963906866899"><ele>222.0</ele><time>2026-04-22T16:52:48Z</time></trkpt><trkpt lat="46.21524676049714" lon="13.211828958403443"><ele>222.0</ele><time>2026-04-22T16:52:49Z</time></trkpt><trkpt lat="46.21525672597069" lon="13.211698976214764"><ele>222.0</ele><time>2026-04-22T16:52:50Z</time></trkpt><trkpt lat="46.215262242216994" lon="13.211564157921416"><ele>222.0</ele><time>2026-04-22T16:52:51Z</time></trkpt><trkpt lat="46.21527461617768" lon="13.211425381128148"><ele>222.0</ele><time>2026-04-22T16:52:52Z</time></trkpt><trkpt lat="46.21529476454697" lon="13.211284957937362"><ele>222.0</ele><time>2026-04-22T16:52:53Z</time></trkpt><trkpt lat="46.21531566966431" lon="13.211139471543419"><ele>222.0</ele><time>2026-04-22T16:52:54Z</time></trkpt><trkpt lat="46.21534108195785" lon="13.210995108667358"><ele>222.0</ele><time>2026-04-22T16:52:55Z</time></trkpt><trkpt lat="46.2153608993612" lon="13.210851336888839"><ele>222.0</ele><time>2026-04-22T16:52:56Z</time></trkpt><trkpt lat="46.21537283526714" lon="13.21071798107577"><ele>222.0</ele><time>2026-04-22T16:52:57Z</time></trkpt><trkpt lat="46.21538420704909" lon="13.210599798899091"><ele>221.66666666666666</ele><time>2026-04-22T16:52:58Z</time></trkpt><trkpt lat="46.21539244444275" lon="13.210484872543809"><ele>221.33333333333331</ele><time>2026-04-22T16:52:59Z</time></trkpt><trkpt lat="46.21539932672747" lon="13.210369887998882"><ele>221.0</ele><time>2026-04-22T16:53:00Z</time></trkpt><trkpt lat="46.21541069897967" lon="13.21025612725184"><ele>220.66666666666666</ele><time>2026-04-22T16:53:01Z</time></trkpt><trkpt lat="46.21541955145001" lon="13.210142526268813"><ele>220.33333333333331</ele><time>2026-04-22T16:53:02Z</time></trkpt><trkpt lat="46.21542484599803" lon="13.210025579450619"><ele>220.0</ele><time>2026-04-22T16:53:03Z</time></trkpt><trkpt lat="46.21542880795214" lon="13.209907132987283"><ele>219.66666666666666</ele><time>2026-04-22T16:53:04Z</time></trkpt><trkpt lat="46.215432803393135" lon="13.209791632790724"><ele>219.33333333333331</ele><time>2026-04-22T16:53:05Z</time></trkpt><trkpt lat="46.21543531760538" lon="13.209681124886043"><ele>219.0</ele><time>2026-04-22T16:53:06Z</time></trkpt><trkpt lat="46.21544123896545" lon="13.2095787961861"><ele>218.66666666666669</ele><time>2026-04-22T16:53:07Z</time></trkpt><trkpt lat="46.21545247542258" lon="13.209462629687241"><ele>218.33333333333334</ele><time>2026-04-22T16:53:08Z</time></trkpt><trkpt lat="46.21546968574771" lon="13.209347847687505"><ele>218.0</ele><time>2026-04-22T16:53:09Z</time></trkpt><trkpt lat="46.21549361088747" lon="13.209237249357349"><ele>218.00000000000003</ele><time>2026-04-22T16:53:10Z</time></trkpt><trkpt lat="46.21552503360851" lon="13.209129359271957"><ele>218.0</ele><time>2026-04-22T16:53:11Z</time></trkpt><trkpt lat="46.215561609343396" lon="13.209024245196023"><ele>218.0</ele><time>2026-04-22T16:53:12Z</time></trkpt><trkpt lat="46.215599268278375" lon="13.208918958641405"><ele>218.0</ele><time>2026-04-22T16:53:13Z</time></trkpt><trkpt lat="46.21563646238753" lon="13.208805830302952"><ele>218.00000000000003</ele><time>2026-04-22T16:53:14Z</time></trkpt><trkpt lat="46.21566820653469" lon="13.208683415858836"><ele>218.0</ele><time>2026-04-22T16:53:15Z</time></trkpt><trkpt lat="46.215691186281646" lon="13.208551105015168"><ele>218.0</ele><time>2026-04-22T16:53:16Z</time></trkpt><trkpt lat="46.215712603159936" lon="13.20841159721499"><ele>218.0</ele><time>2026-04-22T16:53:17Z</time></trkpt><trkpt lat="46.215732373604716" lon="13.208268650909217"><ele>218.0</ele><time>2026-04-22T16:53:18Z</time></trkpt><trkpt lat="46.21575031996225" lon="13.208124001390189"><ele>218.0</ele><time>2026-04-22T16:53:19Z</time></trkpt><trkpt lat="46.215773192096286" lon="13.207987730839507"><ele>218.0</ele><time>2026-04-22T16:53:20Z</time></trkpt><trkpt lat="46.215791351225775" lon="13.20786409623208"><ele>217.66666666666669</ele><time>2026-04-22T16:53:21Z</time></trkpt><trkpt lat="46.215808257238606" lon="13.207744424149954"><ele>217.33333333333334</ele><time>2026-04-22T16:53:22Z</time></trkpt><trkpt lat="46.21583046512766" lon="13.207627307441472"><ele>217.0</ele><time>2026-04-22T16:53:23Z</time></trkpt><trkpt lat="46.215852089685356" lon="13.20751179875954"><ele>216.66666666666669</ele><time>2026-04-22T16:53:24Z</time></trkpt><trkpt lat="46.21587458903253" lon="13.207390558368017"><ele>216.33333333333334</ele><time>2026-04-22T16:53:25Z</time></trkpt><trkpt lat="46.21589996692509" lon="13.207266084414735"><ele>216.0</ele><time>2026-04-22T16:53:26Z</time></trkpt><trkpt lat="46.21593172421638" lon="13.207141697942763"><ele>215.8</ele><time>2026-04-22T16:53:27Z</time></trkpt><trkpt lat="46.21596325020044" lon="13.207014873608783"><ele>215.60000000000002</ele><time>2026-04-22T16:53:28Z</time></trkpt><trkpt lat="46.21599490169938" lon="13.206891758250668"><ele>215.4</ele><time>2026-04-22T16:53:28.999Z</time></trkpt><trkpt lat="46.216025545211714" lon="13.206769133054662"><ele>215.2</ele><time>2026-04-22T16:53:29.999Z</time></trkpt><trkpt lat="46.21605889524485" lon="13.20664863699237"><ele>215.0</ele><time>2026-04-22T16:53:30.999Z</time></trkpt><trkpt lat="46.216097140971954" lon="13.206533922671555"><ele>215.2</ele><time>2026-04-22T16:53:31.999Z</time></trkpt><trkpt lat="46.21613250755594" lon="13.206416859504243"><ele>215.4</ele><time>2026-04-22T16:53:32.999Z</time></trkpt><trkpt lat="46.21616628933905" lon="13.20629860723995"><ele>215.60000000000002</ele><time>2026-04-22T16:53:33.999Z</time></trkpt><trkpt lat="46.216202529523045" lon="13.206182373236816"><ele>215.8</ele><time>2026-04-22T16:53:34.999Z</time></trkpt><trkpt lat="46.21623629564757" lon="13.206057249402429"><ele>216.0</ele><time>2026-04-22T16:53:35.999Z</time></trkpt><trkpt lat="46.21627134390353" lon="13.205923857929644"><ele>216.0</ele><time>2026-04-22T16:53:36.999Z</time></trkpt><trkpt lat="46.21631120568399" lon="13.20579179874275"><ele>216.00000000000003</ele><time>2026-04-22T16:53:37.999Z</time></trkpt><trkpt lat="46.21634587883495" lon="13.205650492830095"><ele>216.00000000000003</ele><time>2026-04-22T16:53:38.999Z</time></trkpt><trkpt lat="46.21637650421799" lon="13.205510809771688"><ele>216.0</ele><time>2026-04-22T16:53:39.999Z</time></trkpt><trkpt lat="46.2164018314805" lon="13.205367915571006"><ele>216.0</ele><time>2026-04-22T16:53:40.999Z</time></trkpt><trkpt lat="46.21642923471541" lon="13.205227516055807"><ele>216.0</ele><time>2026-04-22T16:53:41.999Z</time></trkpt><trkpt lat="46.2164564628363" lon="13.205092074802453"><ele>216.00000000000003</ele><time>2026-04-22T16:53:42.999Z</time></trkpt><trkpt lat="46.2164811953435" lon="13.204956769755325"><ele>216.00000000000003</ele><time>2026-04-22T16:53:43.999Z</time></trkpt><trkpt lat="46.216502435625436" lon="13.204821613980476"><ele>216.0</ele><time>2026-04-22T16:53:44.999Z</time></trkpt><trkpt lat="46.216524384395406" lon="13.20469030187932"><ele>216.0</ele><time>2026-04-22T16:53:45.999Z</time></trkpt><trkpt lat="46.216541355239286" lon="13.20456225152534"><ele>216.0</ele><time>2026-04-22T16:53:46.999Z</time></trkpt><trkpt lat="46.216557656431604" lon="13.204437300826026"><ele>216.0</ele><time>2026-04-22T16:53:47.999Z</time></trkpt><trkpt lat="46.21657225524292" lon="13.20431332776393"><ele>216.0</ele><time>2026-04-22T16:53:48.999Z</time></trkpt><trkpt lat="46.2165864219074" lon="13.204190476745476"><ele>216.0</ele><time>2026-04-22T16:53:49.999Z</time></trkpt><trkpt lat="46.2165991482299" lon="13.204063170241668"><ele>216.0</ele><time>2026-04-22T16:53:50.999Z</time></trkpt><trkpt lat="46.21661059713806" lon="13.203933386462168"><ele>216.0</ele><time>2026-04-22T16:53:51.999Z</time></trkpt><trkpt lat="46.216623945070964" lon="13.2038018119108"><ele>216.0</ele><time>2026-04-22T16:53:52.999Z</time></trkpt><trkpt lat="46.21663384177465" lon="13.203667205578547"><ele>216.00000000000003</ele><time>2026-04-22T16:53:53.999Z</time></trkpt><trkpt lat="46.216646065328284" lon="13.203531478764372"><ele>216.00000000000003</ele><time>2026-04-22T16:53:54.999Z</time></trkpt><trkpt lat="46.216657832164344" lon="13.203397903575238"><ele>216.0</ele><time>2026-04-22T16:53:55.999Z</time></trkpt><trkpt lat="46.21666588075055" lon="13.20326843578285"><ele>216.0</ele><time>2026-04-22T16:53:56.999Z</time></trkpt><trkpt lat="46.216676501108395" lon="13.203144172328694"><ele>216.16666666666666</ele><time>2026-04-22T16:53:57.999Z</time></trkpt><trkpt lat="46.216689250854955" lon="13.20302651363442"><ele>216.33333333333331</ele><time>2026-04-22T16:53:58.999Z</time></trkpt><trkpt lat="46.2166976690768" lon="13.202912745265131"><ele>216.5</ele><time>2026-04-22T16:53:59.999Z</time></trkpt><trkpt lat="46.21670601980273" lon="13.20280100087832"><ele>216.66666666666666</ele><time>2026-04-22T16:54:00.999Z</time></trkpt><trkpt lat="46.21672065524455" lon="13.202690217856908"><ele>216.83333333333331</ele><time>2026-04-22T16:54:01.999Z</time></trkpt><trkpt lat="46.216736138196524" lon="13.202580571461944"><ele>217.0</ele><time>2026-04-22T16:54:02.999Z</time></trkpt><trkpt lat="46.216781083259235" lon="13.20249086532463"><ele>217.0</ele><time>2026-04-22T16:54:03.999Z</time></trkpt><trkpt lat="46.21685357568215" lon="13.20243956420237"><ele>217.0</ele><time>2026-04-22T16:54:04.999Z</time></trkpt><trkpt lat="46.21693690722079" lon="13.202451678609027"><ele>217.0</ele><time>2026-04-22T16:54:05.999Z</time></trkpt><trkpt lat="46.217037971665306" lon="13.202487542941727"><ele>217.0</ele><time>2026-04-22T16:54:06.999Z</time></trkpt><trkpt lat="46.217159895816366" lon="13.202504235193725"><ele>217.0</ele><time>2026-04-22T16:54:07.999Z</time></trkpt><trkpt lat="46.21732282995764" lon="13.202527064891948"><ele>217.66666666666666</ele><time>2026-04-22T16:54:08.999Z</time></trkpt><trkpt lat="46.21749268129983" lon="13.202553186146613"><ele>218.33333333333331</ele><time>2026-04-22T16:54:09.999Z</time></trkpt><trkpt lat="46.217649902907716" lon="13.202556618145145"><ele>219.0</ele><time>2026-04-22T16:54:10.999Z</time></trkpt><trkpt lat="46.217809888083025" lon="13.202549801720076"><ele>219.0</ele><time>2026-04-22T16:54:11.999Z</time></trkpt><trkpt lat="46.2179846993276" lon="13.202528450827435"><ele>219.0</ele><time>2026-04-22T16:54:12.999Z</time></trkpt><trkpt lat="46.21817851917033" lon="13.202499450309865"><ele>219.0</ele><time>2026-04-22T16:54:13.999Z</time></trkpt><trkpt lat="46.218349936133" lon="13.202487317766389"><ele>219.25</ele><time>2026-04-22T16:54:14.999Z</time></trkpt><trkpt lat="46.218503854685835" lon="13.202468358108575"><ele>219.5</ele><time>2026-04-22T16:54:15.999Z</time></trkpt><trkpt lat="46.21865458382096" lon="13.202454354683034"><ele>219.75</ele><time>2026-04-22T16:54:16.999Z</time></trkpt><trkpt lat="46.218785312013466" lon="13.202442922296026"><ele>220.0</ele><time>2026-04-22T16:54:17.999Z</time></trkpt><trkpt lat="46.21891033801045" lon="13.202427847505069"><ele>221.0</ele><time>2026-04-22T16:54:18.999Z</time></trkpt><trkpt lat="46.21901957165268" lon="13.202412906238335"><ele>222.0</ele><time>2026-04-22T16:54:19.999Z</time></trkpt><trkpt lat="46.219110389878175" lon="13.20235738734681"><ele>223.0</ele><time>2026-04-22T16:54:20.999Z</time></trkpt><trkpt lat="46.21919121708812" lon="13.2022413997988"><ele>224.0</ele><time>2026-04-22T16:54:21.999Z</time></trkpt><trkpt lat="46.21926914121832" lon="13.202078546119102"><ele>224.0</ele><time>2026-04-22T16:54:22.999Z</time></trkpt><trkpt lat="46.21935083712616" lon="13.201940453497004"><ele>224.0</ele><time>2026-04-22T16:54:23.999Z</time></trkpt><trkpt lat="46.21942468574947" lon="13.201797371587011"><ele>224.0</ele><time>2026-04-22T16:54:24.999Z</time></trkpt><trkpt lat="46.21949831134101" lon="13.201579259349833"><ele>224.0</ele><time>2026-04-22T16:54:25.999Z</time></trkpt><trkpt lat="46.21956833116235" lon="13.20137235512708"><ele>223.66666666666669</ele><time>2026-04-22T16:54:26.999Z</time></trkpt><trkpt lat="46.21964348949946" lon="13.201194611939718"><ele>223.33333333333331</ele><time>2026-04-22T16:54:27.999Z</time></trkpt><trkpt lat="46.2197255193291" lon="13.20100541872189"><ele>223.0</ele><time>2026-04-22T16:54:28.999Z</time></trkpt><trkpt lat="46.219816530528945" lon="13.200803975921312"><ele>222.66666666666666</ele><time>2026-04-22T16:54:29.999Z</time></trkpt><trkpt lat="46.21991268738286" lon="13.20058724775667"><ele>222.33333333333331</ele><time>2026-04-22T16:54:30.999Z</time></trkpt><trkpt lat="46.22001281335231" lon="13.20035436625882"><ele>222.0</ele><time>2026-04-22T16:54:31.999Z</time></trkpt><trkpt lat="46.220112225677376" lon="13.200123862543698"><ele>222.0</ele><time>2026-04-22T16:54:32.999Z</time></trkpt><trkpt lat="46.220209188431426" lon="13.199906170173529"><ele>222.0</ele><time>2026-04-22T16:54:33.999Z</time></trkpt><trkpt lat="46.22030434395702" lon="13.199685950163484"><ele>222.0</ele><time>2026-04-22T16:54:34.999Z</time></trkpt><trkpt lat="46.22039788300635" lon="13.199468362750682"><ele>221.33333333333331</ele><time>2026-04-22T16:54:35.999Z</time></trkpt><trkpt lat="46.22049124867031" lon="13.199251538290472"><ele>220.66666666666666</ele><time>2026-04-22T16:54:36.999Z</time></trkpt><trkpt lat="46.220586117957474" lon="13.199027539646243"><ele>220.0</ele><time>2026-04-22T16:54:37.999Z</time></trkpt><trkpt lat="46.22067832500816" lon="13.19880857552309"><ele>220.0</ele><time>2026-04-22T16:54:38.999Z</time></trkpt><trkpt lat="46.22076834314781" lon="13.198602048049167"><ele>220.0</ele><time>2026-04-22T16:54:39.999Z</time></trkpt><trkpt lat="46.22086344035229" lon="13.198415210712058"><ele>220.0</ele><time>2026-04-22T16:54:40.999Z</time></trkpt><trkpt lat="46.22096656066103" lon="13.198243158470403"><ele>219.0</ele><time>2026-04-22T16:54:41.999Z</time></trkpt><trkpt lat="46.22106790024882" lon="13.198082231069458"><ele>218.0</ele><time>2026-04-22T16:54:42.999Z</time></trkpt><trkpt lat="46.22116535065225" lon="13.197921199139724"><ele>217.0</ele><time>2026-04-22T16:54:43.999Z</time></trkpt><trkpt lat="46.22125914021642" lon="13.197755700066313"><ele>216.0</ele><time>2026-04-22T16:54:44.999Z</time></trkpt><trkpt lat="46.22136031978984" lon="13.197570236561845"><ele>216.0</ele><time>2026-04-22T16:54:45.999Z</time></trkpt><trkpt lat="46.22144883240504" lon="13.197384674753252"><ele>216.0</ele><time>2026-04-22T16:54:46.999Z</time></trkpt><trkpt lat="46.22152171425133" lon="13.197216193941806"><ele>216.0</ele><time>2026-04-22T16:54:47.999Z</time></trkpt><trkpt lat="46.22158382163958" lon="13.197066924693816"><ele>216.0</ele><time>2026-04-22T16:54:48.999Z</time></trkpt><trkpt lat="46.22164392965525" lon="13.19692647482874"><ele>215.60000000000002</ele><time>2026-04-22T16:54:49.999Z</time></trkpt><trkpt lat="46.221699265908256" lon="13.196791389368595"><ele>215.20000000000002</ele><time>2026-04-22T16:54:50.999Z</time></trkpt><trkpt lat="46.22175218366829" lon="13.1966608929413"><ele>214.79999999999998</ele><time>2026-04-22T16:54:51.999Z</time></trkpt><trkpt lat="46.221799676181824" lon="13.196547493494085"><ele>214.39999999999998</ele><time>2026-04-22T16:54:52.999Z</time></trkpt><trkpt lat="46.221842125958695" lon="13.196438294164315"><ele>214.0</ele><time>2026-04-22T16:54:54Z</time></trkpt><trkpt lat="46.221882707906325" lon="13.196337451629232"><ele>213.0</ele><time>2026-04-22T16:54:55Z</time></trkpt><trkpt lat="46.22192881878842" lon="13.1962291701643"><ele>212.0</ele><time>2026-04-22T16:54:56Z</time></trkpt><trkpt lat="46.221987781767204" lon="13.196091459407985"><ele>211.0</ele><time>2026-04-22T16:54:57Z</time></trkpt><trkpt lat="46.22205410642421" lon="13.195933107050562"><ele>210.0</ele><time>2026-04-22T16:54:58Z</time></trkpt><trkpt lat="46.22212280965852" lon="13.195756133268441"><ele>209.5</ele><time>2026-04-22T16:54:59Z</time></trkpt><trkpt lat="46.22219678905528" lon="13.195576021136256"><ele>209.0</ele><time>2026-04-22T16:55:00Z</time></trkpt><trkpt lat="46.22226860258262" lon="13.195396874340107"><ele>208.5</ele><time>2026-04-22T16:55:01Z</time></trkpt><trkpt lat="46.22233273309445" lon="13.195215348303563"><ele>208.0</ele><time>2026-04-22T16:55:02Z</time></trkpt><trkpt lat="46.22240758805578" lon="13.195040221830387"><ele>208.0</ele><time>2026-04-22T16:55:03Z</time></trkpt><trkpt lat="46.22248034641353" lon="13.194867144198039"><ele>208.0</ele><time>2026-04-22T16:55:04Z</time></trkpt><trkpt lat="46.22254785608557" lon="13.194700578037057"><ele>208.0</ele><time>2026-04-22T16:55:05Z</time></trkpt><trkpt lat="46.22261125018635" lon="13.194547293895287"><ele>208.0</ele><time>2026-04-22T16:55:06Z</time></trkpt><trkpt lat="46.22267426069676" lon="13.194406323270615"><ele>207.60000000000002</ele><time>2026-04-22T16:55:07Z</time></trkpt><trkpt lat="46.22273637537458" lon="13.194273132901149"><ele>207.20000000000002</ele><time>2026-04-22T16:55:08Z</time></trkpt><trkpt lat="46.22279258466229" lon="13.194140627708341"><ele>206.8</ele><time>2026-04-22T16:55:09Z</time></trkpt><trkpt lat="46.222845763160315" lon="13.194012869134523"><ele>206.4</ele><time>2026-04-22T16:55:10Z</time></trkpt><trkpt lat="46.2229022841195" lon="13.193878443437088"><ele>206.0</ele><time>2026-04-22T16:55:11Z</time></trkpt><trkpt lat="46.22296317301448" lon="13.193740784026296"><ele>206.5</ele><time>2026-04-22T16:55:12Z</time></trkpt><trkpt lat="46.223027560619855" lon="13.193601552746777"><ele>207.0</ele><time>2026-04-22T16:55:13Z</time></trkpt><trkpt lat="46.223091914971576" lon="13.193456060867849"><ele>207.5</ele><time>2026-04-22T16:55:14Z</time></trkpt><trkpt lat="46.223161864033656" lon="13.193316580120893"><ele>208.0</ele><time>2026-04-22T16:55:15Z</time></trkpt><trkpt lat="46.22323249944005" lon="13.193173505463701"><ele>207.0</ele><time>2026-04-22T16:55:16Z</time></trkpt><trkpt lat="46.223301320035944" lon="13.193032717615738"><ele>206.0</ele><time>2026-04-22T16:55:17Z</time></trkpt><trkpt lat="46.2233714956813" lon="13.19289902779841"><ele>205.0</ele><time>2026-04-22T16:55:18Z</time></trkpt><trkpt lat="46.22344469355347" lon="13.19276005351043"><ele>204.0</ele><time>2026-04-22T16:55:19Z</time></trkpt><trkpt lat="46.22351441970785" lon="13.192620390123752"><ele>204.0</ele><time>2026-04-22T16:55:20Z</time></trkpt><trkpt lat="46.22358407438491" lon="13.192483192474802"><ele>204.0</ele><time>2026-04-22T16:55:21Z</time></trkpt><trkpt lat="46.22365282916265" lon="13.192344982044618"><ele>204.0</ele><time>2026-04-22T16:55:22Z</time></trkpt><trkpt lat="46.223719749461104" lon="13.192196064373658"><ele>204.0</ele><time>2026-04-22T16:55:23Z</time></trkpt><trkpt lat="46.22379215506085" lon="13.192061142365315"><ele>203.75</ele><time>2026-04-22T16:55:24Z</time></trkpt><trkpt lat="46.22386295172132" lon="13.19192346716684"><ele>203.5</ele><time>2026-04-22T16:55:25Z</time></trkpt><trkpt lat="46.223930618903886" lon="13.19177574077537"><ele>203.25</ele><time>2026-04-22T16:55:26Z</time></trkpt><trkpt lat="46.22400165806551" lon="13.191620348549018"><ele>203.0</ele><time>2026-04-22T16:55:27Z</time></trkpt><trkpt lat="46.224076157274844" lon="13.191456192580384"><ele>202.75</ele><time>2026-04-22T16:55:28Z</time></trkpt><trkpt lat="46.224160548292424" lon="13.191298739405292"><ele>202.5</ele><time>2026-04-22T16:55:29Z</time></trkpt><trkpt lat="46.22423762230973" lon="13.191140406158917"><ele>202.25</ele><time>2026-04-22T16:55:30Z</time></trkpt><trkpt lat="46.22431352095037" lon="13.19099192680847"><ele>202.0</ele><time>2026-04-22T16:55:31Z</time></trkpt><trkpt lat="46.22439845597593" lon="13.19086906392153"><ele>202.0</ele><time>2026-04-22T16:55:31.999Z</time></trkpt><trkpt lat="46.224496318376396" lon="13.190766395581498"><ele>202.0</ele><time>2026-04-22T16:55:32.999Z</time></trkpt><trkpt lat="46.22460194989687" lon="13.190676860512275"><ele>202.0</ele><time>2026-04-22T16:55:33.999Z</time></trkpt><trkpt lat="46.224713737553586" lon="13.19061111649414"><ele>202.0</ele><time>2026-04-22T16:55:34.999Z</time></trkpt><trkpt lat="46.22482939813498" lon="13.190547023625284"><ele>201.75</ele><time>2026-04-22T16:55:35.999Z</time></trkpt><trkpt lat="46.22494546257521" lon="13.190478746684258"><ele>201.5</ele><time>2026-04-22T16:55:36.999Z</time></trkpt><trkpt lat="46.2250664721535" lon="13.19041071350515"><ele>201.25</ele><time>2026-04-22T16:55:37.999Z</time></trkpt><trkpt lat="46.22519597313707" lon="13.190344634316082"><ele>201.0</ele><time>2026-04-22T16:55:38.999Z</time></trkpt><trkpt lat="46.22532216934434" lon="13.190276977667343"><ele>201.0</ele><time>2026-04-22T16:55:39.999Z</time></trkpt><trkpt lat="46.2254510620487" lon="13.190203700860089"><ele>201.0</ele><time>2026-04-22T16:55:40.999Z</time></trkpt><trkpt lat="46.225583060705404" lon="13.190131262308713"><ele>201.0</ele><time>2026-04-22T16:55:41.999Z</time></trkpt><trkpt lat="46.22571909927344" lon="13.190064592344298"><ele>201.0</ele><time>2026-04-22T16:55:42.999Z</time></trkpt><trkpt lat="46.225854960483545" lon="13.189990082568103"><ele>200.75</ele><time>2026-04-22T16:55:43.999Z</time></trkpt><trkpt lat="46.22598444394168" lon="13.18990798095775"><ele>200.5</ele><time>2026-04-22T16:55:44.999Z</time></trkpt><trkpt lat="46.22609882172021" lon="13.189831900754475"><ele>200.25</ele><time>2026-04-22T16:55:45.999Z</time></trkpt><trkpt lat="46.226194272764005" lon="13.189756529521816"><ele>200.0</ele><time>2026-04-22T16:55:46.999Z</time></trkpt><trkpt lat="46.22628048989957" lon="13.18968850492693"><ele>200.00000000000003</ele><time>2026-04-22T16:55:47.999Z</time></trkpt><trkpt lat="46.22635497172954" lon="13.189633584250407"><ele>200.0</ele><time>2026-04-22T16:55:48.999Z</time></trkpt><trkpt lat="46.22642422049926" lon="13.189573172420593"><ele>200.0</ele><time>2026-04-22T16:55:49.999Z</time></trkpt><trkpt lat="46.22649654398283" lon="13.189500666882877"><ele>200.0</ele><time>2026-04-22T16:55:50.999Z</time></trkpt><trkpt lat="46.22657832297823" lon="13.189429055812084"><ele>200.00000000000003</ele><time>2026-04-22T16:55:51.999Z</time></trkpt><trkpt lat="46.22666152550672" lon="13.18934667906559"><ele>200.0</ele><time>2026-04-22T16:55:52.999Z</time></trkpt><trkpt lat="46.22674692581395" lon="13.189263563047499"><ele>200.8</ele><time>2026-04-22T16:55:53.999Z</time></trkpt><trkpt lat="46.22682925482064" lon="13.189178615828126"><ele>201.6</ele><time>2026-04-22T16:55:54.999Z</time></trkpt><trkpt lat="46.22691058151666" lon="13.189095071253526"><ele>202.39999999999998</ele><time>2026-04-22T16:55:55.999Z</time></trkpt><trkpt lat="46.2270015407187" lon="13.189022604262487"><ele>203.2</ele><time>2026-04-22T16:55:56.999Z</time></trkpt><trkpt lat="46.22710006806059" lon="13.18896186243106"><ele>204.0</ele><time>2026-04-22T16:55:57.999Z</time></trkpt><trkpt lat="46.2272074020924" lon="13.18890177834631"><ele>204.39999999999998</ele><time>2026-04-22T16:55:58.999Z</time></trkpt><trkpt lat="46.22731398446587" lon="13.188839732014804"><ele>204.8</ele><time>2026-04-22T16:55:59.999Z</time></trkpt><trkpt lat="46.227407512796006" lon="13.188772730929433"><ele>205.2</ele><time>2026-04-22T16:56:00.999Z</time></trkpt><trkpt lat="46.22749026723263" lon="13.188688909496166"><ele>205.60000000000002</ele><time>2026-04-22T16:56:01.999Z</time></trkpt><trkpt lat="46.22756345682105" lon="13.18857685976685"><ele>206.0</ele><time>2026-04-22T16:56:02.999Z</time></trkpt><trkpt lat="46.22762516828484" lon="13.188458142197042"><ele>206.0</ele><time>2026-04-22T16:56:03.999Z</time></trkpt><trkpt lat="46.227690028540444" lon="13.188347061566638"><ele>206.0</ele><time>2026-04-22T16:56:04.999Z</time></trkpt><trkpt lat="46.22776071285522" lon="13.188236350754675"><ele>206.0</ele><time>2026-04-22T16:56:05.999Z</time></trkpt><trkpt lat="46.227846999797045" lon="13.188117888582275"><ele>206.0</ele><time>2026-04-22T16:56:06.999Z</time></trkpt><trkpt lat="46.227944930078266" lon="13.187997485612874"><ele>205.25</ele><time>2026-04-22T16:56:07.999Z</time></trkpt><trkpt lat="46.228048111093294" lon="13.187894602734964"><ele>204.5</ele><time>2026-04-22T16:56:08.999Z</time></trkpt><trkpt lat="46.228155517216294" lon="13.187792525569566"><ele>203.75</ele><time>2026-04-22T16:56:09.999Z</time></trkpt><trkpt lat="46.22825896967611" lon="13.18769832268042"><ele>203.0</ele><time>2026-04-22T16:56:10.999Z</time></trkpt><trkpt lat="46.22836133313644" lon="13.187594213785449"><ele>205.0</ele><time>2026-04-22T16:56:11.999Z</time></trkpt><trkpt lat="46.2284737432773" lon="13.187514042254294"><ele>207.0</ele><time>2026-04-22T16:56:12.999Z</time></trkpt><trkpt lat="46.22859073449221" lon="13.187438728416895"><ele>209.0</ele><time>2026-04-22T16:56:13.999Z</time></trkpt><trkpt lat="46.2287114569636" lon="13.187382741657613"><ele>211.0</ele><time>2026-04-22T16:56:14.999Z</time></trkpt><trkpt lat="46.228826353806895" lon="13.187349202998478"><ele>210.5</ele><time>2026-04-22T16:56:15.999Z</time></trkpt><trkpt lat="46.22894252760908" lon="13.187304889238357"><ele>210.0</ele><time>2026-04-22T16:56:16.999Z</time></trkpt><trkpt lat="46.22905483708925" lon="13.187265348145065"><ele>209.5</ele><time>2026-04-22T16:56:17.999Z</time></trkpt><trkpt lat="46.22916220040272" lon="13.18723349549719"><ele>209.0</ele><time>2026-04-22T16:56:18.999Z</time></trkpt><trkpt lat="46.229267721307906" lon="13.187226562733835"><ele>209.00000000000003</ele><time>2026-04-22T16:56:19.999Z</time></trkpt><trkpt lat="46.22936711100669" lon="13.18725764709415"><ele>209.0</ele><time>2026-04-22T16:56:20.999Z</time></trkpt><trkpt lat="46.22943025327186" lon="13.187299197466062"><ele>209.0</ele><time>2026-04-22T16:56:21.999Z</time></trkpt><trkpt lat="46.229535539169454" lon="13.18739219894176"><ele>209.0</ele><time>2026-04-22T16:56:23.999Z</time></trkpt><trkpt lat="46.22959816867831" lon="13.187443334944481"><ele>209.00000000000003</ele><time>2026-04-22T16:56:24.999Z</time></trkpt><trkpt lat="46.22967681533787" lon="13.187474115029067"><ele>209.0</ele><time>2026-04-22T16:56:25.999Z</time></trkpt><trkpt lat="46.22976797620764" lon="13.187449741670745"><ele>211.0</ele><time>2026-04-22T16:56:26.999Z</time></trkpt><trkpt lat="46.229860123920226" lon="13.187391200604564"><ele>213.0</ele><time>2026-04-22T16:56:27.999Z</time></trkpt><trkpt lat="46.22996639061499" lon="13.187357651883294"><ele>215.0</ele><time>2026-04-22T16:56:28.999Z</time></trkpt><trkpt lat="46.23008688160766" lon="13.187373239021657"><ele>217.0</ele><time>2026-04-22T16:56:29.999Z</time></trkpt><trkpt lat="46.230220886250486" lon="13.187420666675525"><ele>217.0</ele><time>2026-04-22T16:56:30.999Z</time></trkpt><trkpt lat="46.230348029700366" lon="13.187503877735693"><ele>217.0</ele><time>2026-04-22T16:56:31.999Z</time></trkpt><trkpt lat="46.230443341850844" lon="13.187580992946566"><ele>217.0</ele><time>2026-04-22T16:56:32.999Z</time></trkpt><trkpt lat="46.23051982217696" lon="13.187632525803524"><ele>217.0</ele><time>2026-04-22T16:56:33.999Z</time></trkpt><trkpt lat="46.2305988642498" lon="13.18763530600659"><ele>217.0</ele><time>2026-04-22T16:56:34.999Z</time></trkpt><trkpt lat="46.23066810131188" lon="13.187563243999119"><ele>217.0</ele><time>2026-04-22T16:56:35.999Z</time></trkpt><trkpt lat="46.23071994275795" lon="13.187438106027864"><ele>217.0</ele><time>2026-04-22T16:56:36.999Z</time></trkpt><trkpt lat="46.230744983210386" lon="13.187269925700116"><ele>217.0</ele><time>2026-04-22T16:56:37.999Z</time></trkpt><trkpt lat="46.23075322362484" lon="13.187074416249434"><ele>217.0</ele><time>2026-04-22T16:56:38.999Z</time></trkpt><trkpt lat="46.23077526238386" lon="13.186885622093222"><ele>215.5</ele><time>2026-04-22T16:56:39.999Z</time></trkpt><trkpt lat="46.23079582756605" lon="13.18670095388941"><ele>214.0</ele><time>2026-04-22T16:56:40.999Z</time></trkpt><trkpt lat="46.2308126129968" lon="13.186511221170928"><ele>212.5</ele><time>2026-04-22T16:56:41.999Z</time></trkpt><trkpt lat="46.2308325476897" lon="13.186323836738469"><ele>211.0</ele><time>2026-04-22T16:56:42.999Z</time></trkpt><trkpt lat="46.230853477064734" lon="13.186136809619292"><ele>210.0</ele><time>2026-04-22T16:56:43.999Z</time></trkpt><trkpt lat="46.23087422344031" lon="13.185945512747885"><ele>209.0</ele><time>2026-04-22T16:56:44.999Z</time></trkpt><trkpt lat="46.23089180483366" lon="13.185752751211963"><ele>208.0</ele><time>2026-04-22T16:56:45.999Z</time></trkpt><trkpt lat="46.23091200764049" lon="13.185561564096519"><ele>207.0</ele><time>2026-04-22T16:56:46.999Z</time></trkpt><trkpt lat="46.230931894040594" lon="13.185369592468266"><ele>206.75</ele><time>2026-04-22T16:56:47.999Z</time></trkpt><trkpt lat="46.23096211021923" lon="13.185183211583801"><ele>206.5</ele><time>2026-04-22T16:56:48.999Z</time></trkpt><trkpt lat="46.23102135172444" lon="13.185034370661777"><ele>206.25</ele><time>2026-04-22T16:56:49.999Z</time></trkpt><trkpt lat="46.23109265678934" lon="13.184894919980243"><ele>206.0</ele><time>2026-04-22T16:56:50.999Z</time></trkpt><trkpt lat="46.23118039065354" lon="13.184767349033264"><ele>205.75</ele><time>2026-04-22T16:56:51.999Z</time></trkpt><trkpt lat="46.23127127506639" lon="13.18463894182339"><ele>205.5</ele><time>2026-04-22T16:56:52.999Z</time></trkpt><trkpt lat="46.23136350854357" lon="13.184495542249902"><ele>205.25</ele><time>2026-04-22T16:56:53.999Z</time></trkpt><trkpt lat="46.23146091401904" lon="13.184351104696725"><ele>205.0</ele><time>2026-04-22T16:56:54.999Z</time></trkpt><trkpt lat="46.231557096201136" lon="13.184204151898644"><ele>205.75</ele><time>2026-04-22T16:56:55.999Z</time></trkpt><trkpt lat="46.23163691404446" lon="13.18404448494663"><ele>206.5</ele><time>2026-04-22T16:56:56.999Z</time></trkpt><trkpt lat="46.23169663696549" lon="13.18387131225691"><ele>207.25</ele><time>2026-04-22T16:56:57.999Z</time></trkpt><trkpt lat="46.231737073138206" lon="13.183692659530445"><ele>208.0</ele><time>2026-04-22T16:56:58.999Z</time></trkpt><trkpt lat="46.23176442509608" lon="13.18351208672416"><ele>208.0</ele><time>2026-04-22T16:57:00Z</time></trkpt><trkpt lat="46.23178085433131" lon="13.18332829338119"><ele>208.0</ele><time>2026-04-22T16:57:01Z</time></trkpt><trkpt lat="46.23179311354585" lon="13.183146197747664"><ele>208.0</ele><time>2026-04-22T16:57:02Z</time></trkpt><trkpt lat="46.23180812541784" lon="13.182962211567492"><ele>208.0</ele><time>2026-04-22T16:57:03Z</time></trkpt><trkpt lat="46.23182647819892" lon="13.182779794672713"><ele>208.0</ele><time>2026-04-22T16:57:04Z</time></trkpt><trkpt lat="46.23184692264267" lon="13.182586293187764"><ele>208.0</ele><time>2026-04-22T16:57:05Z</time></trkpt><trkpt lat="46.231858556608714" lon="13.18236411159525"><ele>208.0</ele><time>2026-04-22T16:57:06Z</time></trkpt><trkpt lat="46.23187588498191" lon="13.18211970991495"><ele>208.0</ele><time>2026-04-22T16:57:07Z</time></trkpt><trkpt lat="46.2318954023936" lon="13.181878298014011"><ele>208.0</ele><time>2026-04-22T16:57:08Z</time></trkpt><trkpt lat="46.23191619774683" lon="13.181650664180706"><ele>208.0</ele><time>2026-04-22T16:57:09Z</time></trkpt><trkpt lat="46.231937801816365" lon="13.181443538446603"><ele>207.75</ele><time>2026-04-22T16:57:10Z</time></trkpt><trkpt lat="46.23196201581028" lon="13.181248418626518"><ele>207.5</ele><time>2026-04-22T16:57:11Z</time></trkpt><trkpt lat="46.231987862525415" lon="13.18105887472995"><ele>207.25</ele><time>2026-04-22T16:57:12Z</time></trkpt><trkpt lat="46.23200529331993" lon="13.180873913851217"><ele>207.0</ele><time>2026-04-22T16:57:13Z</time></trkpt><trkpt lat="46.23200530558606" lon="13.18068307469787"><ele>207.33333333333331</ele><time>2026-04-22T16:57:14Z</time></trkpt><trkpt lat="46.231982573001915" lon="13.180495206351358"><ele>207.66666666666666</ele><time>2026-04-22T16:57:15Z</time></trkpt><trkpt lat="46.23191579153899" lon="13.180290278663707"><ele>208.0</ele><time>2026-04-22T16:57:16Z</time></trkpt><trkpt lat="46.23182438692951" lon="13.180075817764855"><ele>208.0</ele><time>2026-04-22T16:57:17Z</time></trkpt><trkpt lat="46.231739391673166" lon="13.17987059764703"><ele>208.0</ele><time>2026-04-22T16:57:18Z</time></trkpt><trkpt lat="46.2316684405912" lon="13.179695434838715"><ele>208.0</ele><time>2026-04-22T16:57:19Z</time></trkpt><trkpt lat="46.2316083322524" lon="13.179531098119591"><ele>208.0</ele><time>2026-04-22T16:57:20Z</time></trkpt><trkpt lat="46.23156348365344" lon="13.179370788192752"><ele>208.0</ele><time>2026-04-22T16:57:21Z</time></trkpt><trkpt lat="46.23153514996687" lon="13.179200419215508"><ele>208.0</ele><time>2026-04-22T16:57:22Z</time></trkpt><trkpt lat="46.2315248556982" lon="13.179025579121113"><ele>208.0</ele><time>2026-04-22T16:57:23Z</time></trkpt><trkpt lat="46.231516824973575" lon="13.178863677974606"><ele>208.0</ele><time>2026-04-22T16:57:24Z</time></trkpt><trkpt lat="46.23150348605914" lon="13.178716796151797"><ele>207.83333333333331</ele><time>2026-04-22T16:57:25Z</time></trkpt><trkpt lat="46.23149261754168" lon="13.178584609917971"><ele>207.66666666666666</ele><time>2026-04-22T16:57:26Z</time></trkpt><trkpt lat="46.23148458625856" lon="13.178455676240036"><ele>207.5</ele><time>2026-04-22T16:57:27Z</time></trkpt><trkpt lat="46.231475258907814" lon="13.178333354856552"><ele>207.33333333333331</ele><time>2026-04-22T16:57:28Z</time></trkpt><trkpt lat="46.23146902568565" lon="13.178219672026977"><ele>207.16666666666666</ele><time>2026-04-22T16:57:29Z</time></trkpt><trkpt lat="46.23146416432196" lon="13.178118646324725"><ele>207.0</ele><time>2026-04-22T16:57:30Z</time></trkpt><trkpt lat="46.231456631850136" lon="13.178026439213726"><ele>198.0</ele><time>2026-04-22T16:57:31Z</time></trkpt><trkpt lat="46.231444657895885" lon="13.1778561183527"><ele>198.0</ele><time>2026-04-22T16:57:33Z</time></trkpt><trkpt lat="46.23142586331069" lon="13.177750595452078"><ele>198.0</ele><time>2026-04-22T16:57:34.999Z</time></trkpt><trkpt lat="46.23138834044924" lon="13.177671667150973"><ele>198.0</ele><time>2026-04-22T16:57:37.999Z</time></trkpt></trkseg><trkseg><trkpt lat="46.2312927074929" lon="13.176960056818912"><ele>199.0</ele><time>2026-04-22T17:54:56.999Z</time></trkpt><trkpt lat="46.231231807252506" lon="13.176845744935276"><ele>199.0</ele><time>2026-04-22T17:54:58.999Z</time></trkpt><trkpt lat="46.231118306120685" lon="13.176846748507895"><ele>199.0</ele><time>2026-04-22T17:55:00.999Z</time></trkpt><trkpt lat="46.23106754851081" lon="13.176919160891828"><ele>199.0</ele><time>2026-04-22T17:55:01.999Z</time></trkpt><trkpt lat="46.23101890637909" lon="13.177014802166108"><ele>199.0</ele><time>2026-04-22T17:55:02.999Z</time></trkpt><trkpt lat="46.23096234726041" lon="13.17711359159568"><ele>199.0</ele><time>2026-04-22T17:55:03.999Z</time></trkpt><trkpt lat="46.23089389946904" lon="13.177223925121124"><ele>199.0</ele><time>2026-04-22T17:55:04.999Z</time></trkpt><trkpt lat="46.23082349907535" lon="13.177340602399171"><ele>199.0</ele><time>2026-04-22T17:55:05.999Z</time></trkpt><trkpt lat="46.23075876879957" lon="13.17744248126642"><ele>199.0</ele><time>2026-04-22T17:55:06.999Z</time></trkpt><trkpt lat="46.23069922436376" lon="13.177539225970914"><ele>199.0</ele><time>2026-04-22T17:55:07.999Z</time></trkpt><trkpt lat="46.23062669800836" lon="13.177662209069947"><ele>198.66666666666666</ele><time>2026-04-22T17:55:08.999Z</time></trkpt><trkpt lat="46.230530573846444" lon="13.177815025174446"><ele>198.33333333333331</ele><time>2026-04-22T17:55:10Z</time></trkpt><trkpt lat="46.23041157777656" lon="13.177996559543697"><ele>198.0</ele><time>2026-04-22T17:55:11Z</time></trkpt><trkpt lat="46.23029245441677" lon="13.178185066249197"><ele>198.0</ele><time>2026-04-22T17:55:12Z</time></trkpt><trkpt lat="46.23017219332841" lon="13.17834711384534"><ele>198.0</ele><time>2026-04-22T17:55:13Z</time></trkpt><trkpt lat="46.23005116489101" lon="13.17847072233485"><ele>198.0</ele><time>2026-04-22T17:55:14Z</time></trkpt><trkpt lat="46.22993282729049" lon="13.178552098542506"><ele>198.0</ele><time>2026-04-22T17:55:15Z</time></trkpt><trkpt lat="46.22982895544446" lon="13.178620042738038"><ele>197.8</ele><time>2026-04-22T17:55:16Z</time></trkpt><trkpt lat="46.22973949560811" lon="13.17867824039571"><ele>197.60000000000002</ele><time>2026-04-22T17:55:17Z</time></trkpt><trkpt lat="46.22965322243709" lon="13.17874090633755"><ele>197.39999999999998</ele><time>2026-04-22T17:55:18Z</time></trkpt><trkpt lat="46.229564358500014" lon="13.178805166795588"><ele>197.2</ele><time>2026-04-22T17:55:19Z</time></trkpt><trkpt lat="46.22948945479003" lon="13.17885903114551"><ele>197.0</ele><time>2026-04-22T17:55:20Z</time></trkpt><trkpt lat="46.229417001398446" lon="13.178910170001991"><ele>197.0</ele><time>2026-04-22T17:55:21Z</time></trkpt><trkpt lat="46.22932867725318" lon="13.178974860401885"><ele>197.0</ele><time>2026-04-22T17:55:22Z</time></trkpt><trkpt lat="46.22921373334526" lon="13.179031657430782"><ele>197.0</ele><time>2026-04-22T17:55:23Z</time></trkpt><trkpt lat="46.22908109194365" lon="13.17905519241036"><ele>197.0</ele><time>2026-04-22T17:55:24Z</time></trkpt><trkpt lat="46.22894052858595" lon="13.179031153216524"><ele>196.33333333333334</ele><time>2026-04-22T17:55:25Z</time></trkpt><trkpt lat="46.228796154142294" lon="13.178940696522272"><ele>195.66666666666669</ele><time>2026-04-22T17:55:26Z</time></trkpt><trkpt lat="46.228660775013154" lon="13.178812141326588"><ele>195.0</ele><time>2026-04-22T17:55:27Z</time></trkpt><trkpt lat="46.22854443045465" lon="13.178671248791803"><ele>195.0</ele><time>2026-04-22T17:55:28Z</time></trkpt><trkpt lat="46.228438057114744" lon="13.178562743352364"><ele>195.0</ele><time>2026-04-22T17:55:29Z</time></trkpt><trkpt lat="46.228342179174525" lon="13.178459013359937"><ele>195.0</ele><time>2026-04-22T17:55:30Z</time></trkpt><trkpt lat="46.228246218216675" lon="13.178352560852915"><ele>195.0</ele><time>2026-04-22T17:55:31Z</time></trkpt><trkpt lat="46.22814889368875" lon="13.178246760495465"><ele>194.4</ele><time>2026-04-22T17:55:32Z</time></trkpt><trkpt lat="46.228057185785744" lon="13.178147481672031"><ele>193.8</ele><time>2026-04-22T17:55:33Z</time></trkpt><trkpt lat="46.22798014442443" lon="13.178055449089152"><ele>193.2</ele><time>2026-04-22T17:55:34Z</time></trkpt><trkpt lat="46.22790600698151" lon="13.177973227323264"><ele>192.6</ele><time>2026-04-22T17:55:35Z</time></trkpt><trkpt lat="46.22784332233983" lon="13.177914620883783"><ele>192.0</ele><time>2026-04-22T17:55:36Z</time></trkpt><trkpt lat="46.2277502850735" lon="13.177874674697135"><ele>192.0</ele><time>2026-04-22T17:55:38Z</time></trkpt><trkpt lat="46.227667255826034" lon="13.177864789042397"><ele>192.0</ele><time>2026-04-22T17:55:40Z</time></trkpt><trkpt lat="46.22760712444507" lon="13.178000532185392"><ele>192.0</ele><time>2026-04-22T17:55:41Z</time></trkpt><trkpt lat="46.22758117224444" lon="13.17813243157995"><ele>192.0</ele><time>2026-04-22T17:55:42Z</time></trkpt><trkpt lat="46.22755303740325" lon="13.178286672711602"><ele>192.0</ele><time>2026-04-22T17:55:43Z</time></trkpt><trkpt lat="46.227514852943926" lon="13.178456919305578"><ele>192.0</ele><time>2026-04-22T17:55:44Z</time></trkpt><trkpt lat="46.227470827041344" lon="13.178611901942615"><ele>192.0</ele><time>2026-04-22T17:55:45Z</time></trkpt><trkpt lat="46.22741374250029" lon="13.178759858846066"><ele>192.0</ele><time>2026-04-22T17:55:46Z</time></trkpt><trkpt lat="46.2273375036428" lon="13.178914174595914"><ele>192.0</ele><time>2026-04-22T17:55:47Z</time></trkpt><trkpt lat="46.22723435724032" lon="13.179071634042272"><ele>192.33333333333331</ele><time>2026-04-22T17:55:48Z</time></trkpt><trkpt lat="46.22710750653019" lon="13.179216242005827"><ele>192.66666666666666</ele><time>2026-04-22T17:55:49Z</time></trkpt><trkpt lat="46.226967357973365" lon="13.17933794590215"><ele>193.0</ele><time>2026-04-22T17:55:50Z</time></trkpt><trkpt lat="46.22682573468722" lon="13.17941804033079"><ele>193.0</ele><time>2026-04-22T17:55:51Z</time></trkpt><trkpt lat="46.22668078140251" lon="13.179467748053913"><ele>193.0</ele><time>2026-04-22T17:55:52Z</time></trkpt><trkpt lat="46.22653708179403" lon="13.179489978447846"><ele>193.0</ele><time>2026-04-22T17:55:53Z</time></trkpt><trkpt lat="46.22640084226192" lon="13.179476814063518"><ele>193.0</ele><time>2026-04-22T17:55:54Z</time></trkpt><trkpt lat="46.22626467196886" lon="13.179439533243135"><ele>193.0</ele><time>2026-04-22T17:55:55Z</time></trkpt><trkpt lat="46.22612968551188" lon="13.179376440853783"><ele>193.0</ele><time>2026-04-22T17:55:56Z</time></trkpt><trkpt lat="46.21632616041085" lon="13.18158837102255"><ele>193.0</ele><time>2026-04-22T17:56:56.999Z</time></trkpt><trkpt lat="46.21612490550913" lon="13.18168909277783"><ele>193.0</ele><time>2026-04-22T17:56:57.999Z</time></trkpt><trkpt lat="46.215925928954206" lon="13.181783517401325"><ele>193.0</ele><time>2026-04-22T17:56:58.999Z</time></trkpt><trkpt lat="46.21571901334893" lon="13.181879193250087"><ele>192.33333333333331</ele><time>2026-04-22T17:56:59.999Z</time></trkpt><trkpt lat="46.21551566937922" lon="13.181980258352137"><ele>191.66666666666666</ele><time>2026-04-22T17:57:00.999Z</time></trkpt><trkpt lat="46.215315020223954" lon="13.182086777549413"><ele>191.0</ele><time>2026-04-22T17:57:01.999Z</time></trkpt><trkpt lat="46.215119868799064" lon="13.182195091545143"><ele>191.0</ele><time>2026-04-22T17:57:02.999Z</time></trkpt><trkpt lat="46.214927343690505" lon="13.182308110272057"><ele>191.0</ele><time>2026-04-22T17:57:03.999Z</time></trkpt><trkpt lat="46.214726983241476" lon="13.18242729099084"><ele>191.0</ele><time>2026-04-22T17:57:04.999Z</time></trkpt><trkpt lat="46.21452089859226" lon="13.182558968465843"><ele>192.5</ele><time>2026-04-22T17:57:05.999Z</time></trkpt><trkpt lat="46.21431206811446" lon="13.182701582050674"><ele>194.0</ele><time>2026-04-22T17:57:06.999Z</time></trkpt><trkpt lat="46.214095378571436" lon="13.182847577354416"><ele>195.0</ele><time>2026-04-22T17:57:07.999Z</time></trkpt><trkpt lat="46.21387219989532" lon="13.182996331856796"><ele>196.0</ele><time>2026-04-22T17:57:08.999Z</time></trkpt><trkpt lat="46.21364415725398" lon="13.183145986483046"><ele>198.5</ele><time>2026-04-22T17:57:09.999Z</time></trkpt><trkpt lat="46.21340501536245" lon="13.183281589082139"><ele>201.0</ele><time>2026-04-22T17:57:10.999Z</time></trkpt><trkpt lat="46.213164978211296" lon="13.183439386787857"><ele>198.0</ele><time>2026-04-22T17:57:11.999Z</time></trkpt><trkpt lat="46.21292965102596" lon="13.183620275527332"><ele>195.0</ele><time>2026-04-22T17:57:12.999Z</time></trkpt><trkpt lat="46.212683464798026" lon="13.18377205887774"><ele>195.0</ele><time>2026-04-22T17:57:13.999Z</time></trkpt><trkpt lat="46.21243326135775" lon="13.183926769667485"><ele>195.0</ele><time>2026-04-22T17:57:14.999Z</time></trkpt><trkpt lat="46.21218420670595" lon="13.184087626838227"><ele>194.0</ele><time>2026-04-22T17:57:16Z</time></trkpt><trkpt lat="46.21193728169335" lon="13.184248955448401"><ele>193.0</ele><time>2026-04-22T17:57:17Z</time></trkpt><trkpt lat="46.21169319960136" lon="13.184408245897167"><ele>192.5</ele><time>2026-04-22T17:57:18Z</time></trkpt><trkpt lat="46.21145637376542" lon="13.184562139571167"><ele>192.0</ele><time>2026-04-22T17:57:19Z</time></trkpt><trkpt lat="46.211223123866674" lon="13.184712374510704"><ele>192.5</ele><time>2026-04-22T17:57:20Z</time></trkpt><trkpt lat="46.21099786008253" lon="13.184860943909069"><ele>193.0</ele><time>2026-04-22T17:57:21Z</time></trkpt><trkpt lat="46.210776607170885" lon="13.185003920607597"><ele>193.5</ele><time>2026-04-22T17:57:22Z</time></trkpt><trkpt lat="46.21056106100823" lon="13.185141986825181"><ele>194.0</ele><time>2026-04-22T17:57:23Z</time></trkpt><trkpt lat="46.21035105940468" lon="13.185273557557942"><ele>194.0</ele><time>2026-04-22T17:57:24Z</time></trkpt><trkpt lat="46.210144977922766" lon="13.185405396582736"><ele>194.0</ele><time>2026-04-22T17:57:25Z</time></trkpt><trkpt lat="46.209942617157324" lon="13.185544064345144"><ele>194.0</ele><time>2026-04-22T17:57:26Z</time></trkpt><trkpt lat="46.20973811886841" lon="13.185680187520848"><ele>194.0</ele><time>2026-04-22T17:57:27Z</time></trkpt><trkpt lat="46.209533679018115" lon="13.185817338704497"><ele>194.0</ele><time>2026-04-22T17:57:28Z</time></trkpt><trkpt lat="46.20931988356129" lon="13.185959341312996"><ele>194.0</ele><time>2026-04-22T17:57:29Z</time></trkpt><trkpt lat="46.20910113908608" lon="13.18610297608413"><ele>194.0</ele><time>2026-04-22T17:57:30Z</time></trkpt><trkpt lat="46.20887453892842" lon="13.186252014138109"><ele>195.0</ele><time>2026-04-22T17:57:31Z</time></trkpt><trkpt lat="46.208643756994846" lon="13.186405698669171"><ele>196.0</ele><time>2026-04-22T17:57:32Z</time></trkpt><trkpt lat="46.20841511873881" lon="13.18655686210314"><ele>196.0</ele><time>2026-04-22T17:57:33Z</time></trkpt><trkpt lat="46.20818616389933" lon="13.186705735672994"><ele>196.0</ele><time>2026-04-22T17:57:34Z</time></trkpt><trkpt lat="46.20796044295331" lon="13.186854855103405"><ele>195.0</ele><time>2026-04-22T17:57:35Z</time></trkpt><trkpt lat="46.20773763787579" lon="13.187000334446555"><ele>194.0</ele><time>2026-04-22T17:57:36Z</time></trkpt><trkpt lat="46.207519481447676" lon="13.187145565714431"><ele>194.0</ele><time>2026-04-22T17:57:37Z</time></trkpt><trkpt lat="46.20730307874539" lon="13.187289148616593"><ele>194.0</ele><time>2026-04-22T17:57:38Z</time></trkpt><trkpt lat="46.20708480647547" lon="13.187429602122627"><ele>194.0</ele><time>2026-04-22T17:57:39Z</time></trkpt><trkpt lat="46.206867725053236" lon="13.187573782009009"><ele>194.0</ele><time>2026-04-22T17:57:40Z</time></trkpt><trkpt lat="46.20664882596418" lon="13.187719491401348"><ele>194.0</ele><time>2026-04-22T17:57:41Z</time></trkpt><trkpt lat="46.2064306504423" lon="13.187864290324242"><ele>194.0</ele><time>2026-04-22T17:57:42Z</time></trkpt><trkpt lat="46.20621493433518" lon="13.188008023054387"><ele>194.0</ele><time>2026-04-22T17:57:43Z</time></trkpt><trkpt lat="46.20599523384935" lon="13.188152734518528"><ele>194.0</ele><time>2026-04-22T17:57:44Z</time></trkpt><trkpt lat="46.2057714707657" lon="13.188299873131411"><ele>193.0</ele><time>2026-04-22T17:57:45Z</time></trkpt><trkpt lat="46.20554770763209" lon="13.188447317356012"><ele>192.0</ele><time>2026-04-22T17:57:46Z</time></trkpt><trkpt lat="46.20533429472414" lon="13.1885874362993"><ele>192.0</ele><time>2026-04-22T17:57:47Z</time></trkpt><trkpt lat="46.20512481904904" lon="13.18872687885809"><ele>192.0</ele><time>2026-04-22T17:57:48Z</time></trkpt><trkpt lat="46.20492513626405" lon="13.188859969148066"><ele>192.0</ele><time>2026-04-22T17:57:49Z</time></trkpt><trkpt lat="46.2047256584279" lon="13.188991144854558"><ele>192.0</ele><time>2026-04-22T17:57:50Z</time></trkpt><trkpt lat="46.20452705533643" lon="13.18912246762124"><ele>192.0</ele><time>2026-04-22T17:57:51Z</time></trkpt><trkpt lat="46.20432572382331" lon="13.189256010113771"><ele>192.0</ele><time>2026-04-22T17:57:52Z</time></trkpt><trkpt lat="46.204124730675844" lon="13.189390897950583"><ele>192.0</ele><time>2026-04-22T17:57:53Z</time></trkpt><trkpt lat="46.20392195164694" lon="13.189524498753052"><ele>192.0</ele><time>2026-04-22T17:57:54Z</time></trkpt><trkpt lat="46.203716711329974" lon="13.189660033227186"><ele>191.5</ele><time>2026-04-22T17:57:55Z</time></trkpt><trkpt lat="46.20350854458354" lon="13.189795811540687"><ele>191.0</ele><time>2026-04-22T17:57:56Z</time></trkpt><trkpt lat="46.193533218035945" lon="13.194671398147857"><ele>191.0</ele><time>2026-04-22T17:58:56.999Z</time></trkpt><trkpt lat="46.193411956479814" lon="13.194690992939053"><ele>191.0</ele><time>2026-04-22T17:58:58.999Z</time></trkpt><trkpt lat="46.1932892661471" lon="13.194685300677076"><ele>191.0</ele><time>2026-04-22T17:59:00.999Z</time></trkpt><trkpt lat="46.1932198230552" lon="13.194711783045591"><ele>191.0</ele><time>2026-04-22T17:59:01.999Z</time></trkpt><trkpt lat="46.19315193076721" lon="13.194770252296868"><ele>191.0</ele><time>2026-04-22T17:59:02.999Z</time></trkpt><trkpt lat="46.193090629486036" lon="13.194862110060395"><ele>191.5</ele><time>2026-04-22T17:59:03.999Z</time></trkpt><trkpt lat="46.19301781819727" lon="13.194958418987714"><ele>192.0</ele><time>2026-04-22T17:59:04.999Z</time></trkpt><trkpt lat="46.19292630992499" lon="13.195055222785104"><ele>192.5</ele><time>2026-04-22T17:59:05.999Z</time></trkpt><trkpt lat="46.19282151066306" lon="13.195158219732098"><ele>193.0</ele><time>2026-04-22T17:59:06.999Z</time></trkpt><trkpt lat="46.192713046736046" lon="13.195262246552552"><ele>193.0</ele><time>2026-04-22T17:59:07.999Z</time></trkpt><trkpt lat="46.192602364951235" lon="13.195364478340354"><ele>193.0</ele><time>2026-04-22T17:59:08.999Z</time></trkpt><trkpt lat="46.1924811452716" lon="13.195467403290372"><ele>193.0</ele><time>2026-04-22T17:59:09.999Z</time></trkpt><trkpt lat="46.19232953161014" lon="13.195555752038103"><ele>193.0</ele><time>2026-04-22T17:59:10.999Z</time></trkpt><trkpt lat="46.1921675062446" lon="13.19567817843505"><ele>192.33333333333331</ele><time>2026-04-22T17:59:11.999Z</time></trkpt><trkpt lat="46.19199343242932" lon="13.195807422911543"><ele>191.66666666666666</ele><time>2026-04-22T17:59:12.999Z</time></trkpt><trkpt lat="46.191807703591316" lon="13.19594582475871"><ele>191.0</ele><time>2026-04-22T17:59:13.999Z</time></trkpt><trkpt lat="46.19163899991714" lon="13.196101209848042"><ele>190.33333333333331</ele><time>2026-04-22T17:59:14.999Z</time></trkpt><trkpt lat="46.191487761758445" lon="13.1962104438501"><ele>189.66666666666666</ele><time>2026-04-22T17:59:15.999Z</time></trkpt><trkpt lat="46.19135387860519" lon="13.196312672311787"><ele>189.0</ele><time>2026-04-22T17:59:16.999Z</time></trkpt><trkpt lat="46.19123193815078" lon="13.196406073806713"><ele>189.0</ele><time>2026-04-22T17:59:17.999Z</time></trkpt><trkpt lat="46.19111665314452" lon="13.19649358634359"><ele>189.0</ele><time>2026-04-22T17:59:18.999Z</time></trkpt><trkpt lat="46.19101051429273" lon="13.196573405294183"><ele>189.0</ele><time>2026-04-22T17:59:19.999Z</time></trkpt><trkpt lat="46.19091270386264" lon="13.196651211399223"><ele>189.0</ele><time>2026-04-22T17:59:21Z</time></trkpt><trkpt lat="46.19081947896692" lon="13.196728433793858"><ele>188.83333333333334</ele><time>2026-04-22T17:59:22Z</time></trkpt><trkpt lat="46.19073714501953" lon="13.196797017689894"><ele>188.66666666666666</ele><time>2026-04-22T17:59:23Z</time></trkpt><trkpt lat="46.19067002648586" lon="13.196854385019206"><ele>188.5</ele><time>2026-04-22T17:59:24Z</time></trkpt><trkpt lat="46.190569244093275" lon="13.196940243102189"><ele>188.33333333333331</ele><time>2026-04-22T17:59:26Z</time></trkpt><trkpt lat="46.190501324262954" lon="13.196991419438438"><ele>188.16666666666666</ele><time>2026-04-22T17:59:28Z</time></trkpt><trkpt lat="46.19043523403158" lon="13.197037942454658"><ele>188.0</ele><time>2026-04-22T17:59:33Z</time></trkpt><trkpt lat="46.19037186937189" lon="13.197081611201849"><ele>188.0</ele><time>2026-04-22T17:59:36Z</time></trkpt><trkpt lat="46.19029558758245" lon="13.197135488676555"><ele>188.0</ele><time>2026-04-22T17:59:37Z</time></trkpt><trkpt lat="46.19019372986509" lon="13.197210788221552"><ele>188.0</ele><time>2026-04-22T17:59:38Z</time></trkpt><trkpt lat="46.190064482574606" lon="13.197309801677198"><ele>188.0</ele><time>2026-04-22T17:59:39Z</time></trkpt><trkpt lat="46.18987538214026" lon="13.197451630459263"><ele>188.0</ele><time>2026-04-22T17:59:40Z</time></trkpt><trkpt lat="46.189649337958144" lon="13.197625320956433"><ele>188.0</ele><time>2026-04-22T17:59:41Z</time></trkpt><trkpt lat="46.18943540768002" lon="13.197788793846845"><ele>188.0</ele><time>2026-04-22T17:59:42Z</time></trkpt><trkpt lat="46.18923000979175" lon="13.197946525521962"><ele>188.0</ele><time>2026-04-22T17:59:43Z</time></trkpt><trkpt lat="46.18903114878832" lon="13.198100760603838"><ele>186.5</ele><time>2026-04-22T17:59:44Z</time></trkpt><trkpt lat="46.18883597025736" lon="13.19825627438504"><ele>185.0</ele><time>2026-04-22T17:59:45Z</time></trkpt><trkpt lat="46.188639022286196" lon="13.198419583682783"><ele>185.0</ele><time>2026-04-22T17:59:46Z</time></trkpt><trkpt lat="46.18844254219306" lon="13.198589131680565"><ele>185.0</ele><time>2026-04-22T17:59:47Z</time></trkpt><trkpt lat="46.188241839894815" lon="13.198764170767806"><ele>184.5</ele><time>2026-04-22T17:59:48Z</time></trkpt><trkpt lat="46.18803727006518" lon="13.19894877558601"><ele>184.0</ele><time>2026-04-22T17:59:49Z</time></trkpt><trkpt lat="46.187832501900424" lon="13.199135954714547"><ele>185.0</ele><time>2026-04-22T17:59:50Z</time></trkpt><trkpt lat="46.18763186606018" lon="13.199311302930898"><ele>186.0</ele><time>2026-04-22T17:59:51Z</time></trkpt><trkpt lat="46.18743337021654" lon="13.19948147635143"><ele>185.0</ele><time>2026-04-22T17:59:52Z</time></trkpt><trkpt lat="46.18723371662604" lon="13.199637122305854"><ele>184.0</ele><time>2026-04-22T17:59:53Z</time></trkpt><trkpt lat="46.187032093304886" lon="13.199783740116006"><ele>184.66666666666669</ele><time>2026-04-22T17:59:54Z</time></trkpt><trkpt lat="46.18683237504754" lon="13.199918234185317"><ele>185.33333333333334</ele><time>2026-04-22T17:59:55Z</time></trkpt><trkpt lat="46.186636041491184" lon="13.200043187873439"><ele>186.0</ele><time>2026-04-22T17:59:56Z</time></trkpt><trkpt lat="46.176542534247716" lon="13.205175619453334"><ele>183.75</ele><time>2026-04-22T18:00:57Z</time></trkpt><trkpt lat="46.17646698951787" lon="13.205189834091502"><ele>181.5</ele><time>2026-04-22T18:01:16.999Z</time></trkpt><trkpt lat="46.176372461148226" lon="13.205210025852361"><ele>179.25</ele><time>2026-04-22T18:01:17.999Z</time></trkpt><trkpt lat="46.176253317824816" lon="13.205238588221901"><ele>177.0</ele><time>2026-04-22T18:01:18.999Z</time></trkpt><trkpt lat="46.176082961432826" lon="13.205275599521661"><ele>177.0</ele><time>2026-04-22T18:01:19.999Z</time></trkpt><trkpt lat="46.17586846979995" lon="13.205324288823387"><ele>177.0</ele><time>2026-04-22T18:01:20.999Z</time></trkpt><trkpt lat="46.17564355633918" lon="13.205369297456821"><ele>177.0</ele><time>2026-04-22T18:01:21.999Z</time></trkpt><trkpt lat="46.17540614965479" lon="13.2054148076486"><ele>176.5</ele><time>2026-04-22T18:01:22.999Z</time></trkpt><trkpt lat="46.17515964388124" lon="13.20546608909894"><ele>176.0</ele><time>2026-04-22T18:01:23.999Z</time></trkpt><trkpt lat="46.17490594688457" lon="13.205520631503399"><ele>175.0</ele><time>2026-04-22T18:01:24.999Z</time></trkpt><trkpt lat="46.17464674154697" lon="13.205575947265073"><ele>174.0</ele><time>2026-04-22T18:01:26Z</time></trkpt><trkpt lat="46.17438398933427" lon="13.205630672350447"><ele>174.5</ele><time>2026-04-22T18:01:27Z</time></trkpt><trkpt lat="46.174118936686526" lon="13.205686546236345"><ele>175.0</ele><time>2026-04-22T18:01:28Z</time></trkpt><trkpt lat="46.17385528997758" lon="13.205740960779332"><ele>175.0</ele><time>2026-04-22T18:01:29Z</time></trkpt><trkpt lat="46.17359332318001" lon="13.205797176638916"><ele>175.0</ele><time>2026-04-22T18:01:30Z</time></trkpt><trkpt lat="46.17333080811009" lon="13.20585331064979"><ele>174.0</ele><time>2026-04-22T18:01:31Z</time></trkpt><trkpt lat="46.17307038985423" lon="13.205907988556348"><ele>173.0</ele><time>2026-04-22T18:01:32Z</time></trkpt><trkpt lat="46.172818514902374" lon="13.20595918029389"><ele>173.0</ele><time>2026-04-22T18:01:33Z</time></trkpt><trkpt lat="46.17257338422676" lon="13.20600793515296"><ele>173.0</ele><time>2026-04-22T18:01:34Z</time></trkpt><trkpt lat="46.1723343017918" lon="13.206059595370148"><ele>174.0</ele><time>2026-04-22T18:01:35Z</time></trkpt><trkpt lat="46.17209861939838" lon="13.206109454925693"><ele>175.0</ele><time>2026-04-22T18:01:36Z</time></trkpt><trkpt lat="46.17186773961103" lon="13.206155888669512"><ele>175.0</ele><time>2026-04-22T18:01:37Z</time></trkpt><trkpt lat="46.17164151215958" lon="13.206202252589962"><ele>175.0</ele><time>2026-04-22T18:01:38Z</time></trkpt><trkpt lat="46.171419265609465" lon="13.206247100290964"><ele>174.66666666666669</ele><time>2026-04-22T18:01:39Z</time></trkpt><trkpt lat="46.171196871117935" lon="13.20629276386741"><ele>174.33333333333334</ele><time>2026-04-22T18:01:40Z</time></trkpt><trkpt lat="46.1709746222776" lon="13.20633941146763"><ele>174.0</ele><time>2026-04-22T18:01:41Z</time></trkpt><trkpt lat="46.170753107806966" lon="13.206386111815334"><ele>173.66666666666666</ele><time>2026-04-22T18:01:42Z</time></trkpt><trkpt lat="46.170532320309746" lon="13.206429569097676"><ele>173.33333333333331</ele><time>2026-04-22T18:01:43Z</time></trkpt><trkpt lat="46.17031472137323" lon="13.20647200227458"><ele>173.0</ele><time>2026-04-22T18:01:44Z</time></trkpt><trkpt lat="46.17009733521929" lon="13.206517343292703"><ele>173.66666666666666</ele><time>2026-04-22T18:01:45Z</time></trkpt><trkpt lat="46.1698789897248" lon="13.206564312691853"><ele>174.33333333333334</ele><time>2026-04-22T18:01:46Z</time></trkpt><trkpt lat="46.169661855506604" lon="13.206607934177153"><ele>175.0</ele><time>2026-04-22T18:01:47Z</time></trkpt><trkpt lat="46.16944521885295" lon="13.20665298616637"><ele>175.0</ele><time>2026-04-22T18:01:48Z</time></trkpt><trkpt lat="46.16922831876279" lon="13.206698707717862"><ele>175.0</ele><time>2026-04-22T18:01:49Z</time></trkpt><trkpt lat="46.169012080508516" lon="13.206748204724674"><ele>175.0</ele><time>2026-04-22T18:01:50Z</time></trkpt><trkpt lat="46.16879699689853" lon="13.206814997646351"><ele>175.33333333333334</ele><time>2026-04-22T18:01:51Z</time></trkpt><trkpt lat="46.1685866789394" lon="13.206899292747567"><ele>175.66666666666666</ele><time>2026-04-22T18:01:52Z</time></trkpt><trkpt lat="46.16838008511244" lon="13.207000387118622"><ele>176.0</ele><time>2026-04-22T18:01:53Z</time></trkpt><trkpt lat="46.16817713913325" lon="13.207120782111234"><ele>174.66666666666666</ele><time>2026-04-22T18:01:54Z</time></trkpt><trkpt lat="46.16798079014341" lon="13.207261378494305"><ele>173.33333333333334</ele><time>2026-04-22T18:01:55Z</time></trkpt><trkpt lat="46.16778749747566" lon="13.207411565702428"><ele>172.0</ele><time>2026-04-22T18:01:56Z</time></trkpt><trkpt lat="46.159465394578696" lon="13.211999396911414"><ele>178.0</ele><time>2026-04-22T18:02:57Z</time></trkpt><trkpt lat="46.15941631143229" lon="13.212163287737392"><ele>184.0</ele><time>2026-04-22T18:02:58Z</time></trkpt><trkpt lat="46.15937515715449" lon="13.21232528510107"><ele>190.0</ele><time>2026-04-22T18:02:59Z</time></trkpt><trkpt lat="46.15934058459497" lon="13.21247365652646"><ele>196.0</ele><time>2026-04-22T18:03:00Z</time></trkpt><trkpt lat="46.15931243361937" lon="13.212616050388782"><ele>196.0</ele><time>2026-04-22T18:03:01Z</time></trkpt><trkpt lat="46.15929210546511" lon="13.212754774732373"><ele>196.0</ele><time>2026-04-22T18:03:02Z</time></trkpt><trkpt lat="46.15927490744421" lon="13.21289810430699"><ele>196.0</ele><time>2026-04-22T18:03:03Z</time></trkpt><trkpt lat="46.15925487741584" lon="13.213044038377143"><ele>196.0</ele><time>2026-04-22T18:03:04Z</time></trkpt><trkpt lat="46.15923548753134" lon="13.213184010292427"><ele>196.0</ele><time>2026-04-22T18:03:05Z</time></trkpt><trkpt lat="46.1592180591092" lon="13.213309239029622"><ele>195.49999999999997</ele><time>2026-04-22T18:03:06Z</time></trkpt><trkpt lat="46.15920220824551" lon="13.21342964414787"><ele>195.0</ele><time>2026-04-22T18:03:07Z</time></trkpt><trkpt lat="46.15918551008664" lon="13.213547062000696"><ele>194.5</ele><time>2026-04-22T18:03:08Z</time></trkpt><trkpt lat="46.15916908338909" lon="13.213668943106265"><ele>194.0</ele><time>2026-04-22T18:03:08.999Z</time></trkpt><trkpt lat="46.159151212582984" lon="13.213796548697728"><ele>193.49999999999997</ele><time>2026-04-22T18:03:09.999Z</time></trkpt><trkpt lat="46.15913560622402" lon="13.213921337388706"><ele>193.0</ele><time>2026-04-22T18:03:10.999Z</time></trkpt><trkpt lat="46.15912066427418" lon="13.214033757054755"><ele>193.00000000000003</ele><time>2026-04-22T18:03:11.999Z</time></trkpt><trkpt lat="46.15910709162734" lon="13.214139462732753"><ele>193.0</ele><time>2026-04-22T18:03:12.999Z</time></trkpt><trkpt lat="46.15909478762011" lon="13.214238249587195"><ele>193.0</ele><time>2026-04-22T18:03:13.999Z</time></trkpt><trkpt lat="46.15908153243625" lon="13.214330056584922"><ele>193.0</ele><time>2026-04-22T18:03:14.999Z</time></trkpt><trkpt lat="46.159067867654194" lon="13.214427773824932"><ele>193.0</ele><time>2026-04-22T18:03:15.999Z</time></trkpt><trkpt lat="46.159052489044555" lon="13.214523515076072"><ele>193.00000000000003</ele><time>2026-04-22T18:03:16.999Z</time></trkpt><trkpt lat="46.15903808486542" lon="13.214620984288628"><ele>193.0</ele><time>2026-04-22T18:03:17.999Z</time></trkpt><trkpt lat="46.159014911225576" lon="13.214711948570883"><ele>192.83333333333331</ele><time>2026-04-22T18:03:18.999Z</time></trkpt><trkpt lat="46.158964531670456" lon="13.21486580646356"><ele>192.66666666666666</ele><time>2026-04-22T18:03:20.999Z</time></trkpt><trkpt lat="46.15890520435389" lon="13.214969523859816"><ele>192.5</ele><time>2026-04-22T18:03:22.999Z</time></trkpt><trkpt lat="46.158848842469446" lon="13.215053327431756"><ele>192.33333333333331</ele><time>2026-04-22T18:03:24.999Z</time></trkpt><trkpt lat="46.15882317322497" lon="13.215152087920465"><ele>192.16666666666666</ele><time>2026-04-22T18:03:26.999Z</time></trkpt><trkpt lat="46.158812825676705" lon="13.215254467208737"><ele>192.0</ele><time>2026-04-22T18:03:28.999Z</time></trkpt><trkpt lat="46.15879575703386" lon="13.215376313588452"><ele>192.0</ele><time>2026-04-22T18:03:31Z</time></trkpt><trkpt lat="46.158744947899976" lon="13.215511318008295"><ele>192.0</ele><time>2026-04-22T18:03:33Z</time></trkpt><trkpt lat="46.15868723311253" lon="13.215652752954126"><ele>192.0</ele><time>2026-04-22T18:03:35Z</time></trkpt><trkpt lat="46.15863348835726" lon="13.215766860314195"><ele>192.0</ele><time>2026-04-22T18:03:37Z</time></trkpt><trkpt lat="46.15857884817225" lon="13.215891136494838"><ele>192.0</ele><time>2026-04-22T18:03:39Z</time></trkpt><trkpt lat="46.158511319239274" lon="13.216049813346382"><ele>191.8</ele><time>2026-04-22T18:03:41Z</time></trkpt><trkpt lat="46.15847601186331" lon="13.21613955632118"><ele>191.6</ele><time>2026-04-22T18:03:42Z</time></trkpt><trkpt lat="46.15844266028453" lon="13.216217160781873"><ele>191.4</ele><time>2026-04-22T18:03:43Z</time></trkpt><trkpt lat="46.15838351037221" lon="13.216349672810656"><ele>191.20000000000002</ele><time>2026-04-22T18:03:45Z</time></trkpt><trkpt lat="46.15828424795687" lon="13.216452908244673"><ele>191.0</ele><time>2026-04-22T18:03:47Z</time></trkpt><trkpt lat="46.15820757785967" lon="13.216567677105276"><ele>190.16666666666666</ele><time>2026-04-22T18:03:49Z</time></trkpt><trkpt lat="46.15819920980075" lon="13.216665093593136"><ele>189.33333333333331</ele><time>2026-04-22T18:03:50Z</time></trkpt><trkpt lat="46.158195430830204" lon="13.216764573107557"><ele>188.5</ele><time>2026-04-22T18:03:51Z</time></trkpt><trkpt lat="46.15816978981793" lon="13.2168585179435"><ele>187.66666666666666</ele><time>2026-04-22T18:03:52Z</time></trkpt><trkpt lat="46.15812944341019" lon="13.216950509628886"><ele>186.83333333333334</ele><time>2026-04-22T18:03:53Z</time></trkpt><trkpt lat="46.1580794232875" lon="13.217044048420494"><ele>186.0</ele><time>2026-04-22T18:03:54Z</time></trkpt><trkpt lat="46.15802005249551" lon="13.217138224188277"><ele>186.0</ele><time>2026-04-22T18:03:55Z</time></trkpt><trkpt lat="46.157956969080956" lon="13.21723383479938"><ele>186.0</ele><time>2026-04-22T18:03:56Z</time></trkpt><trkpt lat="46.15180619666267" lon="13.219354398950893"><ele>181.5</ele><time>2026-04-22T18:04:57Z</time></trkpt><trkpt lat="46.15159257188353" lon="13.21938751720307"><ele>177.0</ele><time>2026-04-22T18:04:58Z</time></trkpt><trkpt lat="46.15133093184584" lon="13.21944804170191"><ele>176.5</ele><time>2026-04-22T18:04:59Z</time></trkpt><trkpt lat="46.15105453010686" lon="13.219511297394144"><ele>176.0</ele><time>2026-04-22T18:05:00Z</time></trkpt><trkpt lat="46.15079942522999" lon="13.219570282493338"><ele>175.5</ele><time>2026-04-22T18:05:01Z</time></trkpt><trkpt lat="46.15055123647186" lon="13.219621276908311"><ele>175.0</ele><time>2026-04-22T18:05:02Z</time></trkpt><trkpt lat="46.150318072010236" lon="13.21966975535225"><ele>175.0</ele><time>2026-04-22T18:05:03Z</time></trkpt><trkpt lat="46.15008990337887" lon="13.219719871175037"><ele>175.0</ele><time>2026-04-22T18:05:04Z</time></trkpt><trkpt lat="46.14985983049285" lon="13.219767205991083"><ele>174.5</ele><time>2026-04-22T18:05:05Z</time></trkpt><trkpt lat="46.149629361541564" lon="13.219814275426385"><ele>174.0</ele><time>2026-04-22T18:05:06Z</time></trkpt><trkpt lat="46.14939821234533" lon="13.219864637129321"><ele>173.5</ele><time>2026-04-22T18:05:06.999Z</time></trkpt><trkpt lat="46.14917016830067" lon="13.219912830202851"><ele>173.0</ele><time>2026-04-22T18:05:07.999Z</time></trkpt><trkpt lat="46.14894675667903" lon="13.21995819590429"><ele>173.0</ele><time>2026-04-22T18:05:08.999Z</time></trkpt><trkpt lat="46.14872636563804" lon="13.220006140640141"><ele>173.0</ele><time>2026-04-22T18:05:09.999Z</time></trkpt><trkpt lat="46.14851348837259" lon="13.220052417676651"><ele>173.0</ele><time>2026-04-22T18:05:10.999Z</time></trkpt><trkpt lat="46.148306224490476" lon="13.220097741251077"><ele>172.0</ele><time>2026-04-22T18:05:11.999Z</time></trkpt><trkpt lat="46.148104110971495" lon="13.22014236467823"><ele>171.0</ele><time>2026-04-22T18:05:12.999Z</time></trkpt><trkpt lat="46.147908033963745" lon="13.220180762557373"><ele>170.0</ele><time>2026-04-22T18:05:13.999Z</time></trkpt><trkpt lat="46.14771852965416" lon="13.22022115229065"><ele>170.0</ele><time>2026-04-22T18:05:14.999Z</time></trkpt><trkpt lat="46.14753366246507" lon="13.220259409243504"><ele>170.0</ele><time>2026-04-22T18:05:15.999Z</time></trkpt><trkpt lat="46.147347329412476" lon="13.220297095357536"><ele>170.0</ele><time>2026-04-22T18:05:16.999Z</time></trkpt><trkpt lat="46.147160745409884" lon="13.220335987879666"><ele>169.66666666666666</ele><time>2026-04-22T18:05:17.999Z</time></trkpt><trkpt lat="46.14697392240251" lon="13.220375691634624"><ele>169.33333333333334</ele><time>2026-04-22T18:05:18.999Z</time></trkpt><trkpt lat="46.14679318974905" lon="13.220416093927176"><ele>169.0</ele><time>2026-04-22T18:05:19.999Z</time></trkpt><trkpt lat="46.146616880691184" lon="13.220451913093633"><ele>169.33333333333334</ele><time>2026-04-22T18:05:20.999Z</time></trkpt><trkpt lat="46.14644482637805" lon="13.220486493672416"><ele>169.66666666666666</ele><time>2026-04-22T18:05:21.999Z</time></trkpt><trkpt lat="46.14627494117401" lon="13.22052128850321"><ele>170.0</ele><time>2026-04-22T18:05:22.999Z</time></trkpt><trkpt lat="46.14610704562269" lon="13.220557641838507"><ele>170.0</ele><time>2026-04-22T18:05:23.999Z</time></trkpt><trkpt lat="46.145943027687565" lon="13.220594935965483"><ele>170.0</ele><time>2026-04-22T18:05:24.999Z</time></trkpt><trkpt lat="46.14578153526072" lon="13.220632039897053"><ele>170.0</ele><time>2026-04-22T18:05:25.999Z</time></trkpt><trkpt lat="46.145622270230916" lon="13.220668269248687"><ele>169.75</ele><time>2026-04-22T18:05:26.999Z</time></trkpt><trkpt lat="46.14547726258699" lon="13.220696612799685"><ele>169.5</ele><time>2026-04-22T18:05:27.999Z</time></trkpt><trkpt lat="46.1453402062167" lon="13.220722904267811"><ele>169.25</ele><time>2026-04-22T18:05:28.999Z</time></trkpt><trkpt lat="46.14522282271025" lon="13.220747853310163"><ele>169.0</ele><time>2026-04-22T18:05:29.999Z</time></trkpt><trkpt lat="46.14510918254623" lon="13.220770073684196"><ele>169.0</ele><time>2026-04-22T18:05:30.999Z</time></trkpt><trkpt lat="46.14500412718553" lon="13.220787749704073"><ele>169.0</ele><time>2026-04-22T18:05:31.999Z</time></trkpt><trkpt lat="46.14490238789397" lon="13.220804492093544"><ele>169.0</ele><time>2026-04-22T18:05:32.999Z</time></trkpt><trkpt lat="46.14479744401431" lon="13.220814712032984"><ele>169.0</ele><time>2026-04-22T18:05:33.999Z</time></trkpt><trkpt lat="46.144696585820434" lon="13.220793528984153"><ele>169.0</ele><time>2026-04-22T18:05:34.999Z</time></trkpt><trkpt lat="46.1446072158743" lon="13.22074433377632"><ele>169.39999999999998</ele><time>2026-04-22T18:05:35.999Z</time></trkpt><trkpt lat="46.14451233593222" lon="13.220702056842025"><ele>169.8</ele><time>2026-04-22T18:05:37Z</time></trkpt><trkpt lat="46.14442029212549" lon="13.220700780766984"><ele>170.2</ele><time>2026-04-22T18:05:38Z</time></trkpt><trkpt lat="46.144331018564905" lon="13.220752313207457"><ele>170.60000000000002</ele><time>2026-04-22T18:05:39Z</time></trkpt><trkpt lat="46.14424208581961" lon="13.220827449735504"><ele>171.0</ele><time>2026-04-22T18:05:40Z</time></trkpt><trkpt lat="46.14414227761295" lon="13.220889855855376"><ele>171.75</ele><time>2026-04-22T18:05:41Z</time></trkpt><trkpt lat="46.14402616910615" lon="13.220943208344648"><ele>172.5</ele><time>2026-04-22T18:05:42Z</time></trkpt><trkpt lat="46.14389693924052" lon="13.22099405821223"><ele>173.25</ele><time>2026-04-22T18:05:43Z</time></trkpt><trkpt lat="46.14374924210427" lon="13.221006751443813"><ele>174.0</ele><time>2026-04-22T18:05:44Z</time></trkpt><trkpt lat="46.143605284289364" lon="13.221061339047107"><ele>174.0</ele><time>2026-04-22T18:05:45Z</time></trkpt><trkpt lat="46.14344820770053" lon="13.221097753726625"><ele>174.0</ele><time>2026-04-22T18:05:46Z</time></trkpt><trkpt lat="46.14328230330977" lon="13.221137225771827"><ele>174.0</ele><time>2026-04-22T18:05:47Z</time></trkpt><trkpt lat="46.143103492209505" lon="13.221176369319252"><ele>170.66666666666666</ele><time>2026-04-22T18:05:48Z</time></trkpt><trkpt lat="46.14291935974299" lon="13.221212831876029"><ele>167.33333333333331</ele><time>2026-04-22T18:05:49Z</time></trkpt><trkpt lat="46.14272683894132" lon="13.221248888663158"><ele>164.0</ele><time>2026-04-22T18:05:50Z</time></trkpt><trkpt lat="46.14253349816996" lon="13.221290053180521"><ele>163.66666666666666</ele><time>2026-04-22T18:05:51Z</time></trkpt><trkpt lat="46.14234207819831" lon="13.221334222394107"><ele>163.33333333333334</ele><time>2026-04-22T18:05:52Z</time></trkpt><trkpt lat="46.14215351977204" lon="13.221373545476132"><ele>163.0</ele><time>2026-04-22T18:05:53Z</time></trkpt><trkpt lat="46.14196957396663" lon="13.221412560697576"><ele>163.0</ele><time>2026-04-22T18:05:54Z</time></trkpt><trkpt lat="46.141789934185546" lon="13.221451149330612"><ele>163.0</ele><time>2026-04-22T18:05:55Z</time></trkpt><trkpt lat="46.14161615592896" lon="13.22148455328428"><ele>163.0</ele><time>2026-04-22T18:05:56Z</time></trkpt><trkpt lat="46.131075888879494" lon="13.223687040202536"><ele>160.33333333333334</ele><time>2026-04-22T18:06:57Z</time></trkpt><trkpt lat="46.130902561557946" lon="13.223728730633994"><ele>157.66666666666666</ele><time>2026-04-22T18:06:58Z</time></trkpt><trkpt lat="46.13073147419236" lon="13.223760910521984"><ele>155.0</ele><time>2026-04-22T18:06:59Z</time></trkpt><trkpt lat="46.13057020387544" lon="13.223790671283432"><ele>155.0</ele><time>2026-04-22T18:07:00Z</time></trkpt><trkpt lat="46.13042596709033" lon="13.223820419759448"><ele>155.0</ele><time>2026-04-22T18:07:01Z</time></trkpt><trkpt lat="46.130292513161876" lon="13.223849128127137"><ele>155.0</ele><time>2026-04-22T18:07:02Z</time></trkpt><trkpt lat="46.13015446581504" lon="13.223876485154571"><ele>155.0</ele><time>2026-04-22T18:07:03Z</time></trkpt><trkpt lat="46.13002000977719" lon="13.223902843146572"><ele>155.0</ele><time>2026-04-22T18:07:04Z</time></trkpt><trkpt lat="46.12989684736716" lon="13.223926910941264"><ele>155.0</ele><time>2026-04-22T18:07:05Z</time></trkpt><trkpt lat="46.12978370394414" lon="13.223943680283302"><ele>155.0</ele><time>2026-04-22T18:07:06Z</time></trkpt><trkpt lat="46.129669449132635" lon="13.22395027875973"><ele>155.0</ele><time>2026-04-22T18:07:07Z</time></trkpt><trkpt lat="46.129565967046176" lon="13.223929343671912"><ele>154.0</ele><time>2026-04-22T18:07:08Z</time></trkpt><trkpt lat="46.12946204059552" lon="13.223878122370662"><ele>153.0</ele><time>2026-04-22T18:07:09Z</time></trkpt><trkpt lat="46.12936705893757" lon="13.223852096149857"><ele>152.0</ele><time>2026-04-22T18:07:09.999Z</time></trkpt><trkpt lat="46.12926470954794" lon="13.223881219932364"><ele>151.0</ele><time>2026-04-22T18:07:10.999Z</time></trkpt><trkpt lat="46.12916935260372" lon="13.223963570977709"><ele>150.0</ele><time>2026-04-22T18:07:11.999Z</time></trkpt><trkpt lat="46.1290646649094" lon="13.224046522047155"><ele>150.25</ele><time>2026-04-22T18:07:12.999Z</time></trkpt><trkpt lat="46.128937348252684" lon="13.224105156101865"><ele>150.5</ele><time>2026-04-22T18:07:13.999Z</time></trkpt><trkpt lat="46.12879442903489" lon="13.224145857937646"><ele>150.75</ele><time>2026-04-22T18:07:14.999Z</time></trkpt><trkpt lat="46.128650711012625" lon="13.224179083444469"><ele>151.0</ele><time>2026-04-22T18:07:15.999Z</time></trkpt><trkpt lat="46.128506196847425" lon="13.2242087280698"><ele>151.0</ele><time>2026-04-22T18:07:16.999Z</time></trkpt><trkpt lat="46.12835871273314" lon="13.224240925783235"><ele>151.0</ele><time>2026-04-22T18:07:17.999Z</time></trkpt><trkpt lat="46.128203065890865" lon="13.224271670800961"><ele>151.0</ele><time>2026-04-22T18:07:18.999Z</time></trkpt><trkpt lat="46.128042614138" lon="13.224310576119436"><ele>151.33333333333334</ele><time>2026-04-22T18:07:19.999Z</time></trkpt><trkpt lat="46.12788053043517" lon="13.22434923834267"><ele>151.66666666666666</ele><time>2026-04-22T18:07:20.999Z</time></trkpt><trkpt lat="46.12771540369103" lon="13.224382803281747"><ele>152.0</ele><time>2026-04-22T18:07:21.999Z</time></trkpt><trkpt lat="46.12755395774773" lon="13.224413436214832"><ele>152.0</ele><time>2026-04-22T18:07:22.999Z</time></trkpt><trkpt lat="46.12739691399548" lon="13.224442865707141"><ele>152.0</ele><time>2026-04-22T18:07:23.999Z</time></trkpt><trkpt lat="46.12724103093724" lon="13.224470546086716"><ele>152.0</ele><time>2026-04-22T18:07:24.999Z</time></trkpt><trkpt lat="46.12708139584689" lon="13.224501014364112"><ele>151.66666666666666</ele><time>2026-04-22T18:07:25.999Z</time></trkpt><trkpt lat="46.12692342388672" lon="13.22453431063773"><ele>151.33333333333334</ele><time>2026-04-22T18:07:26.999Z</time></trkpt><trkpt lat="46.126768487304155" lon="13.224565635862756"><ele>151.0</ele><time>2026-04-22T18:07:27.999Z</time></trkpt><trkpt lat="46.12661292327088" lon="13.22459727341469"><ele>150.25</ele><time>2026-04-22T18:07:28.999Z</time></trkpt><trkpt lat="46.12646026825714" lon="13.224629475627374"><ele>149.5</ele><time>2026-04-22T18:07:29.999Z</time></trkpt><trkpt lat="46.12632260715338" lon="13.224657776482195"><ele>148.75</ele><time>2026-04-22T18:07:30.999Z</time></trkpt><trkpt lat="46.12620112177266" lon="13.224684654834457"><ele>148.0</ele><time>2026-04-22T18:07:31.999Z</time></trkpt><trkpt lat="46.12608458450758" lon="13.224705553735632"><ele>148.0</ele><time>2026-04-22T18:07:32.999Z</time></trkpt><trkpt lat="46.125969968567" lon="13.224723490842079"><ele>148.0</ele><time>2026-04-22T18:07:33.999Z</time></trkpt><trkpt lat="46.12586568423316" lon="13.22473042055188"><ele>148.0</ele><time>2026-04-22T18:07:34.999Z</time></trkpt><trkpt lat="46.12576636898484" lon="13.224725245232369"><ele>148.0</ele><time>2026-04-22T18:07:35.999Z</time></trkpt><trkpt lat="46.12566325683993" lon="13.22471765619357"><ele>148.0</ele><time>2026-04-22T18:07:36.999Z</time></trkpt><trkpt lat="46.12555712126997" lon="13.224724220955382"><ele>148.25</ele><time>2026-04-22T18:07:37.999Z</time></trkpt><trkpt lat="46.12545350447396" lon="13.224767757556608"><ele>148.5</ele><time>2026-04-22T18:07:38.999Z</time></trkpt><trkpt lat="46.12534568602406" lon="13.224825874685287"><ele>148.75</ele><time>2026-04-22T18:07:39.999Z</time></trkpt><trkpt lat="46.12522838808135" lon="13.224866666394359"><ele>149.0</ele><time>2026-04-22T18:07:40.999Z</time></trkpt><trkpt lat="46.12510564063081" lon="13.224889744727614"><ele>149.0</ele><time>2026-04-22T18:07:41.999Z</time></trkpt><trkpt lat="46.12496779345117" lon="13.224903298619555"><ele>149.0</ele><time>2026-04-22T18:07:43Z</time></trkpt><trkpt lat="46.12481516442475" lon="13.224921858888896"><ele>149.0</ele><time>2026-04-22T18:07:44Z</time></trkpt><trkpt lat="46.124660639343816" lon="13.224948313587756"><ele>149.0</ele><time>2026-04-22T18:07:45Z</time></trkpt><trkpt lat="46.124491562706964" lon="13.224980215008602"><ele>148.0</ele><time>2026-04-22T18:07:46Z</time></trkpt><trkpt lat="46.12430979301539" lon="13.225017899290538"><ele>147.0</ele><time>2026-04-22T18:07:47Z</time></trkpt><trkpt lat="46.12411096615217" lon="13.225059467858957"><ele>146.0</ele><time>2026-04-22T18:07:48Z</time></trkpt><trkpt lat="46.12389304889836" lon="13.225113650586739"><ele>146.0</ele><time>2026-04-22T18:07:49Z</time></trkpt><trkpt lat="46.1236617053292" lon="13.225095270126307"><ele>146.0</ele><time>2026-04-22T18:07:50Z</time></trkpt><trkpt lat="46.123437713700106" lon="13.225079214314734"><ele>145.66666666666666</ele><time>2026-04-22T18:07:51Z</time></trkpt><trkpt lat="46.12322070145265" lon="13.225047322989703"><ele>145.33333333333334</ele><time>2026-04-22T18:07:52Z</time></trkpt><trkpt lat="46.123009819007365" lon="13.225002364536527"><ele>145.0</ele><time>2026-04-22T18:07:53Z</time></trkpt><trkpt lat="46.122795251371684" lon="13.224934574385195"><ele>145.0</ele><time>2026-04-22T18:07:54Z</time></trkpt><trkpt lat="46.122574707647104" lon="13.224843135590048"><ele>145.0</ele><time>2026-04-22T18:07:55Z</time></trkpt><trkpt lat="46.12235178265357" lon="13.224732738592536"><ele>137.0</ele><time>2026-04-22T18:07:56Z</time></trkpt><trkpt lat="46.11182485583504" lon="13.211627619934646"><ele>136.0</ele><time>2026-04-22T18:08:57Z</time></trkpt><trkpt lat="46.11169256172692" lon="13.211311747700728"><ele>135.0</ele><time>2026-04-22T18:08:58Z</time></trkpt><trkpt lat="46.1115557097294" lon="13.210992944154793"><ele>134.5</ele><time>2026-04-22T18:08:59Z</time></trkpt><trkpt lat="46.11141694689883" lon="13.21066689711315"><ele>134.0</ele><time>2026-04-22T18:09:00Z</time></trkpt><trkpt lat="46.111284742074936" lon="13.210345997409956"><ele>134.0</ele><time>2026-04-22T18:09:01Z</time></trkpt><trkpt lat="46.11115787333377" lon="13.21003336569983"><ele>134.0</ele><time>2026-04-22T18:09:02Z</time></trkpt><trkpt lat="46.111033723182125" lon="13.209721670108069"><ele>132.5</ele><time>2026-04-22T18:09:03Z</time></trkpt><trkpt lat="46.11091468880735" lon="13.209417010954429"><ele>131.0</ele><time>2026-04-22T18:09:04Z</time></trkpt><trkpt lat="46.11079361829602" lon="13.209100800038074"><ele>130.5</ele><time>2026-04-22T18:09:05Z</time></trkpt><trkpt lat="46.11066526689641" lon="13.208784102450181"><ele>130.0</ele><time>2026-04-22T18:09:06Z</time></trkpt><trkpt lat="46.110534652869326" lon="13.20847253897458"><ele>130.0</ele><time>2026-04-22T18:09:07Z</time></trkpt><trkpt lat="46.11040666458227" lon="13.208160409310043"><ele>130.0</ele><time>2026-04-22T18:09:08Z</time></trkpt><trkpt lat="46.11028180833182" lon="13.207849450041605"><ele>130.5</ele><time>2026-04-22T18:09:09Z</time></trkpt><trkpt lat="46.110164933697" lon="13.207544008401905"><ele>131.0</ele><time>2026-04-22T18:09:10Z</time></trkpt><trkpt lat="46.11005502406443" lon="13.207233555708097"><ele>131.5</ele><time>2026-04-22T18:09:10.999Z</time></trkpt><trkpt lat="46.109946693796225" lon="13.206922775201557"><ele>132.0</ele><time>2026-04-22T18:09:11.999Z</time></trkpt><trkpt lat="46.10984000122362" lon="13.206609271112095"><ele>131.5</ele><time>2026-04-22T18:09:12.999Z</time></trkpt><trkpt lat="46.10973531136906" lon="13.206293789295817"><ele>131.0</ele><time>2026-04-22T18:09:13.999Z</time></trkpt><trkpt lat="46.10963137640499" lon="13.205981075214723"><ele>131.0</ele><time>2026-04-22T18:09:14.999Z</time></trkpt><trkpt lat="46.10952576280735" lon="13.20566588415597"><ele>131.0</ele><time>2026-04-22T18:09:15.999Z</time></trkpt><trkpt lat="46.10942057554364" lon="13.205353164008297"><ele>130.5</ele><time>2026-04-22T18:09:16.999Z</time></trkpt><trkpt lat="46.109318258976515" lon="13.205047977463568"><ele>130.0</ele><time>2026-04-22T18:09:17.999Z</time></trkpt><trkpt lat="46.10921374705252" lon="13.204744983812892"><ele>129.5</ele><time>2026-04-22T18:09:18.999Z</time></trkpt><trkpt lat="46.109107459311666" lon="13.204445364840113"><ele>129.0</ele><time>2026-04-22T18:09:19.999Z</time></trkpt><trkpt lat="46.10899595854563" lon="13.204150236563239"><ele>129.0</ele><time>2026-04-22T18:09:20.999Z</time></trkpt><trkpt lat="46.108878073897806" lon="13.203859662236738"><ele>129.0</ele><time>2026-04-22T18:09:21.999Z</time></trkpt><trkpt lat="46.10875495098657" lon="13.203571009148819"><ele>129.0</ele><time>2026-04-22T18:09:22.999Z</time></trkpt><trkpt lat="46.10863433067971" lon="13.203288513916684"><ele>129.0</ele><time>2026-04-22T18:09:23.999Z</time></trkpt><trkpt lat="46.108524902191284" lon="13.203016934454878"><ele>129.0</ele><time>2026-04-22T18:09:24.999Z</time></trkpt><trkpt lat="46.10841409150633" lon="13.202759242949655"><ele>129.0</ele><time>2026-04-22T18:09:25.999Z</time></trkpt><trkpt lat="46.10829321571811" lon="13.202511518717001"><ele>129.0</ele><time>2026-04-22T18:09:26.999Z</time></trkpt><trkpt lat="46.10814499888352" lon="13.202275214878709"><ele>129.0</ele><time>2026-04-22T18:09:27.999Z</time></trkpt><trkpt lat="46.107974103665136" lon="13.202072040727442"><ele>129.0</ele><time>2026-04-22T18:09:28.999Z</time></trkpt><trkpt lat="46.10778405747079" lon="13.20190482540432"><ele>129.0</ele><time>2026-04-22T18:09:29.999Z</time></trkpt><trkpt lat="46.10758122063702" lon="13.201762147664462"><ele>129.0</ele><time>2026-04-22T18:09:30.999Z</time></trkpt><trkpt lat="46.107370709835216" lon="13.201656301503526"><ele>128.5</ele><time>2026-04-22T18:09:31.999Z</time></trkpt><trkpt lat="46.107148821726106" lon="13.20158847985575"><ele>128.0</ele><time>2026-04-22T18:09:32.999Z</time></trkpt><trkpt lat="46.10691722191764" lon="13.201558762166421"><ele>128.0</ele><time>2026-04-22T18:09:33.999Z</time></trkpt><trkpt lat="46.10667990287108" lon="13.201574801488315"><ele>128.0</ele><time>2026-04-22T18:09:34.999Z</time></trkpt><trkpt lat="46.10644191241031" lon="13.20163176339774"><ele>127.5</ele><time>2026-04-22T18:09:35.999Z</time></trkpt><trkpt lat="46.106199990178474" lon="13.201686752123209"><ele>127.0</ele><time>2026-04-22T18:09:36.999Z</time></trkpt><trkpt lat="46.10595242174183" lon="13.20171299692824"><ele>127.5</ele><time>2026-04-22T18:09:37.999Z</time></trkpt><trkpt lat="46.10570813220004" lon="13.201711558145346"><ele>128.0</ele><time>2026-04-22T18:09:38.999Z</time></trkpt><trkpt lat="46.105463648591794" lon="13.201689961192272"><ele>128.0</ele><time>2026-04-22T18:09:39.999Z</time></trkpt><trkpt lat="46.10521765846821" lon="13.20164546204774"><ele>128.0</ele><time>2026-04-22T18:09:40.999Z</time></trkpt><trkpt lat="46.10496891341683" lon="13.201581198287228"><ele>127.5</ele><time>2026-04-22T18:09:41.999Z</time></trkpt><trkpt lat="46.10471703935937" lon="13.201492759594672"><ele>127.0</ele><time>2026-04-22T18:09:42.999Z</time></trkpt><trkpt lat="46.10445833692202" lon="13.201383410379973"><ele>127.0</ele><time>2026-04-22T18:09:43.999Z</time></trkpt><trkpt lat="46.10419643234032" lon="13.201258062184204"><ele>127.0</ele><time>2026-04-22T18:09:44.999Z</time></trkpt><trkpt lat="46.103934959146365" lon="13.201130306796891"><ele>126.5</ele><time>2026-04-22T18:09:45.999Z</time></trkpt><trkpt lat="46.103676959455235" lon="13.201006895763834"><ele>126.0</ele><time>2026-04-22T18:09:46.999Z</time></trkpt><trkpt lat="46.10342422384667" lon="13.200887315330418"><ele>125.0</ele><time>2026-04-22T18:09:47.999Z</time></trkpt><trkpt lat="46.10317452318838" lon="13.200767824883174"><ele>124.0</ele><time>2026-04-22T18:09:49Z</time></trkpt><trkpt lat="46.10292969179847" lon="13.200650762452637"><ele>123.5</ele><time>2026-04-22T18:09:50Z</time></trkpt><trkpt lat="46.10268657549995" lon="13.200536524673545"><ele>123.0</ele><time>2026-04-22T18:09:51Z</time></trkpt><trkpt lat="46.10244268224289" lon="13.200421256134735"><ele>123.0</ele><time>2026-04-22T18:09:52Z</time></trkpt><trkpt lat="46.10219606395895" lon="13.200303385385594"><ele>123.0</ele><time>2026-04-22T18:09:53Z</time></trkpt><trkpt lat="46.1019471586594" lon="13.200184539865933"><ele>123.0</ele><time>2026-04-22T18:09:54Z</time></trkpt><trkpt lat="46.10169644297057" lon="13.200062633607006"><ele>123.0</ele><time>2026-04-22T18:09:55Z</time></trkpt><trkpt lat="46.10144197759839" lon="13.199940420487565"><ele>113.0</ele><time>2026-04-22T18:09:56Z</time></trkpt><trkpt lat="46.08582808944512" lon="13.192474008744348"><ele>113.5</ele><time>2026-04-22T18:10:57Z</time></trkpt><trkpt lat="46.085566553796305" lon="13.192347537951644"><ele>114.0</ele><time>2026-04-22T18:10:58Z</time></trkpt><trkpt lat="46.08530998771256" lon="13.192224310952051"><ele>115.0</ele><time>2026-04-22T18:10:59Z</time></trkpt><trkpt lat="46.085056029190596" lon="13.192102252729121"><ele>116.0</ele><time>2026-04-22T18:11:00Z</time></trkpt><trkpt lat="46.084805887382565" lon="13.191981449448193"><ele>116.5</ele><time>2026-04-22T18:11:01Z</time></trkpt><trkpt lat="46.08455457423826" lon="13.191858549103944"><ele>117.0</ele><time>2026-04-22T18:11:02Z</time></trkpt><trkpt lat="46.08429649959369" lon="13.19173991277395"><ele>117.0</ele><time>2026-04-22T18:11:03Z</time></trkpt><trkpt lat="46.08403791692069" lon="13.191620655273908"><ele>117.0</ele><time>2026-04-22T18:11:04Z</time></trkpt><trkpt lat="46.08378166575679" lon="13.19150316558768"><ele>117.0</ele><time>2026-04-22T18:11:05Z</time></trkpt><trkpt lat="46.08352667309662" lon="13.19139261009443"><ele>117.0</ele><time>2026-04-22T18:11:06Z</time></trkpt><trkpt lat="46.08326444761255" lon="13.191300907030616"><ele>116.5</ele><time>2026-04-22T18:11:07Z</time></trkpt><trkpt lat="46.082993202629375" lon="13.191229243607086"><ele>116.0</ele><time>2026-04-22T18:11:08Z</time></trkpt><trkpt lat="46.08271904555786" lon="13.191174813656724"><ele>116.0</ele><time>2026-04-22T18:11:09Z</time></trkpt><trkpt lat="46.08243870914714" lon="13.191134783261296"><ele>116.0</ele><time>2026-04-22T18:11:10Z</time></trkpt><trkpt lat="46.08214918736458" lon="13.191106694710573"><ele>115.0</ele><time>2026-04-22T18:11:10.999Z</time></trkpt><trkpt lat="46.081849810745936" lon="13.191088508754229"><ele>114.0</ele><time>2026-04-22T18:11:11.999Z</time></trkpt><trkpt lat="46.08154731507706" lon="13.191072662719142"><ele>112.5</ele><time>2026-04-22T18:11:12.999Z</time></trkpt><trkpt lat="46.08123689233304" lon="13.19105965366861"><ele>111.0</ele><time>2026-04-22T18:11:13.999Z</time></trkpt><trkpt lat="46.08092271768349" lon="13.191068487859779"><ele>108.0</ele><time>2026-04-22T18:11:14.999Z</time></trkpt><trkpt lat="46.080609473870005" lon="13.191104221817113"><ele>105.0</ele><time>2026-04-22T18:11:15.999Z</time></trkpt><trkpt lat="46.080298183117385" lon="13.191167476186473"><ele>105.0</ele><time>2026-04-22T18:11:16.999Z</time></trkpt><trkpt lat="46.079994991476816" lon="13.191267346771697"><ele>105.0</ele><time>2026-04-22T18:11:17.999Z</time></trkpt><trkpt lat="46.07969392426457" lon="13.191397350572856"><ele>105.5</ele><time>2026-04-22T18:11:18.999Z</time></trkpt><trkpt lat="46.07940204808194" lon="13.191544185221018"><ele>106.0</ele><time>2026-04-22T18:11:19.999Z</time></trkpt><trkpt lat="46.07912593855093" lon="13.191702978271445"><ele>108.0</ele><time>2026-04-22T18:11:20.999Z</time></trkpt><trkpt lat="46.07886185687826" lon="13.191879567818521"><ele>110.0</ele><time>2026-04-22T18:11:21.999Z</time></trkpt><trkpt lat="46.07860241631951" lon="13.192079875765666"><ele>110.0</ele><time>2026-04-22T18:11:22.999Z</time></trkpt><trkpt lat="46.07835308280057" lon="13.192302178197432"><ele>110.0</ele><time>2026-04-22T18:11:23.999Z</time></trkpt><trkpt lat="46.078103849178135" lon="13.192541311933988"><ele>109.5</ele><time>2026-04-22T18:11:24.999Z</time></trkpt><trkpt lat="46.07784602639322" lon="13.192799025403081"><ele>109.0</ele><time>2026-04-22T18:11:25.999Z</time></trkpt><trkpt lat="46.077584008094476" lon="13.193057645590331"><ele>110.0</ele><time>2026-04-22T18:11:26.999Z</time></trkpt><trkpt lat="46.07732582128556" lon="13.193310065083597"><ele>111.0</ele><time>2026-04-22T18:11:27.999Z</time></trkpt><trkpt lat="46.07706916861457" lon="13.19355805336724"><ele>111.0</ele><time>2026-04-22T18:11:28.999Z</time></trkpt><trkpt lat="46.07681768964597" lon="13.193801714995178"><ele>111.0</ele><time>2026-04-22T18:11:29.999Z</time></trkpt><trkpt lat="46.07656386127272" lon="13.194045190477791"><ele>112.5</ele><time>2026-04-22T18:11:30.999Z</time></trkpt><trkpt lat="46.07630534235351" lon="13.194296150202703"><ele>114.0</ele><time>2026-04-22T18:11:31.999Z</time></trkpt><trkpt lat="46.0760425239772" lon="13.194546841138534"><ele>114.0</ele><time>2026-04-22T18:11:32.999Z</time></trkpt><trkpt lat="46.07577346706798" lon="13.194801200882903"><ele>114.0</ele><time>2026-04-22T18:11:33.999Z</time></trkpt><trkpt lat="46.07550784756573" lon="13.195050424360025"><ele>113.0</ele><time>2026-04-22T18:11:34.999Z</time></trkpt><trkpt lat="46.075253861656165" lon="13.195285426804595"><ele>112.0</ele><time>2026-04-22T18:11:35.999Z</time></trkpt><trkpt lat="46.07500291684008" lon="13.195495924761474"><ele>111.0</ele><time>2026-04-22T18:11:36.999Z</time></trkpt><trkpt lat="46.07474190276837" lon="13.195674130369982"><ele>110.0</ele><time>2026-04-22T18:11:37.999Z</time></trkpt><trkpt lat="46.07447135050183" lon="13.195839209406893"><ele>110.0</ele><time>2026-04-22T18:11:38.999Z</time></trkpt><trkpt lat="46.07419658921543" lon="13.195998588921112"><ele>110.0</ele><time>2026-04-22T18:11:39.999Z</time></trkpt><trkpt lat="46.07391418777763" lon="13.196144103055904"><ele>110.5</ele><time>2026-04-22T18:11:40.999Z</time></trkpt><trkpt lat="46.073625854570224" lon="13.196276020454329"><ele>111.0</ele><time>2026-04-22T18:11:41.999Z</time></trkpt><trkpt lat="46.073332112256466" lon="13.196393720127714"><ele>111.5</ele><time>2026-04-22T18:11:42.999Z</time></trkpt><trkpt lat="46.073031667288085" lon="13.196485828277243"><ele>112.0</ele><time>2026-04-22T18:11:43.999Z</time></trkpt><trkpt lat="46.07272574758908" lon="13.19655978687868"><ele>110.5</ele><time>2026-04-22T18:11:44.999Z</time></trkpt><trkpt lat="46.072416352599156" lon="13.196619692304841"><ele>109.0</ele><time>2026-04-22T18:11:45.999Z</time></trkpt><trkpt lat="46.07210495541996" lon="13.196669883878851"><ele>109.0</ele><time>2026-04-22T18:11:46.999Z</time></trkpt><trkpt lat="46.071792369844104" lon="13.1967177235646"><ele>109.0</ele><time>2026-04-22T18:11:47.999Z</time></trkpt><trkpt lat="46.0714758147165" lon="13.196764291207673"><ele>108.0</ele><time>2026-04-22T18:11:48.999Z</time></trkpt><trkpt lat="46.07115737524194" lon="13.196806943076341"><ele>107.0</ele><time>2026-04-22T18:11:49.999Z</time></trkpt><trkpt lat="46.07082719777756" lon="13.196858328999307"><ele>107.0</ele><time>2026-04-22T18:11:50.999Z</time></trkpt><trkpt lat="46.070478703773084" lon="13.196923405455262"><ele>107.0</ele><time>2026-04-22T18:11:51.999Z</time></trkpt><trkpt lat="46.070140225965275" lon="13.19697748969023"><ele>108.0</ele><time>2026-04-22T18:11:52.999Z</time></trkpt><trkpt lat="46.0698088601073" lon="13.197024325913368"><ele>109.0</ele><time>2026-04-22T18:11:53.999Z</time></trkpt><trkpt lat="46.06949108955613" lon="13.197065540609088"><ele>109.0</ele><time>2026-04-22T18:11:55Z</time></trkpt><trkpt lat="46.06918206197241" lon="13.197103829340199"><ele>109.0</ele><time>2026-04-22T18:11:56Z</time></trkpt><trkpt lat="46.05136883664913" lon="13.203682409839363"><ele>101.5</ele><time>2026-04-22T18:12:57Z</time></trkpt><trkpt lat="46.05110144972559" lon="13.203875453560752"><ele>94.0</ele><time>2026-04-22T18:12:58Z</time></trkpt><trkpt lat="46.050838611196696" lon="13.204062201602392"><ele>94.5</ele><time>2026-04-22T18:12:59Z</time></trkpt><trkpt lat="46.050579158447455" lon="13.204248506621546"><ele>95.0</ele><time>2026-04-22T18:13:00Z</time></trkpt><trkpt lat="46.05032430175328" lon="13.2044371496525"><ele>95.0</ele><time>2026-04-22T18:13:01Z</time></trkpt><trkpt lat="46.05006932155057" lon="13.204625832697555"><ele>95.0</ele><time>2026-04-22T18:13:02Z</time></trkpt><trkpt lat="46.049813536712634" lon="13.204813316646176"><ele>93.5</ele><time>2026-04-22T18:13:03Z</time></trkpt><trkpt lat="46.049562254018994" lon="13.204996917544824"><ele>92.0</ele><time>2026-04-22T18:13:04Z</time></trkpt><trkpt lat="46.04931649819285" lon="13.2051831111608"><ele>92.5</ele><time>2026-04-22T18:13:05Z</time></trkpt><trkpt lat="46.04907141679197" lon="13.205378458172435"><ele>93.0</ele><time>2026-04-22T18:13:06Z</time></trkpt><trkpt lat="46.04882919015668" lon="13.205576820352706"><ele>91.5</ele><time>2026-04-22T18:13:07Z</time></trkpt><trkpt lat="46.04859439720206" lon="13.20577809420525"><ele>90.0</ele><time>2026-04-22T18:13:08Z</time></trkpt><trkpt lat="46.0483659571615" lon="13.2059883066717"><ele>93.0</ele><time>2026-04-22T18:13:09Z</time></trkpt><trkpt lat="46.04814253829535" lon="13.206205476890693"><ele>96.0</ele><time>2026-04-22T18:13:10Z</time></trkpt><trkpt lat="46.04792551317563" lon="13.206436250019507"><ele>94.0</ele><time>2026-04-22T18:13:10.999Z</time></trkpt><trkpt lat="46.04771471337054" lon="13.206679090573891"><ele>92.0</ele><time>2026-04-22T18:13:11.999Z</time></trkpt><trkpt lat="46.04751215466673" lon="13.206922583796496"><ele>93.5</ele><time>2026-04-22T18:13:12.999Z</time></trkpt><trkpt lat="46.04731020432048" lon="13.207171326069588"><ele>95.0</ele><time>2026-04-22T18:13:13.999Z</time></trkpt><trkpt lat="46.04711200195172" lon="13.207417703211197"><ele>95.0</ele><time>2026-04-22T18:13:14.999Z</time></trkpt><trkpt lat="46.046915067980066" lon="13.207663793221974"><ele>95.0</ele><time>2026-04-22T18:13:15.999Z</time></trkpt><trkpt lat="46.04672932241294" lon="13.207918100353513"><ele>95.5</ele><time>2026-04-22T18:13:16.999Z</time></trkpt><trkpt lat="46.04654515896227" lon="13.208166465594589"><ele>96.0</ele><time>2026-04-22T18:13:17.999Z</time></trkpt><trkpt lat="46.046358625382084" lon="13.208406640797621"><ele>96.0</ele><time>2026-04-22T18:13:18.999Z</time></trkpt><trkpt lat="46.04616582465737" lon="13.208642152164687"><ele>96.0</ele><time>2026-04-22T18:13:19.999Z</time></trkpt><trkpt lat="46.04596748227204" lon="13.208868603728776"><ele>96.5</ele><time>2026-04-22T18:13:20.999Z</time></trkpt><trkpt lat="46.045759768454914" lon="13.209090017977411"><ele>97.0</ele><time>2026-04-22T18:13:21.999Z</time></trkpt><trkpt lat="46.04554301468479" lon="13.209308248470954"><ele>97.0</ele><time>2026-04-22T18:13:22.999Z</time></trkpt><trkpt lat="46.04531866984399" lon="13.209516007336667"><ele>97.0</ele><time>2026-04-22T18:13:23.999Z</time></trkpt><trkpt lat="46.04508569414656" lon="13.20971358138804"><ele>95.0</ele><time>2026-04-22T18:13:24.999Z</time></trkpt><trkpt lat="46.04484061711221" lon="13.209901426476328"><ele>93.0</ele><time>2026-04-22T18:13:25.999Z</time></trkpt><trkpt lat="46.044592043117575" lon="13.210081117414976"><ele>93.0</ele><time>2026-04-22T18:13:26.999Z</time></trkpt><trkpt lat="46.044340922818236" lon="13.210250281955584"><ele>93.0</ele><time>2026-04-22T18:13:27.999Z</time></trkpt><trkpt lat="46.04409019207803" lon="13.210408710049887"><ele>90.5</ele><time>2026-04-22T18:13:28.999Z</time></trkpt><trkpt lat="46.04383892239462" lon="13.210552545971444"><ele>88.0</ele><time>2026-04-22T18:13:29.999Z</time></trkpt><trkpt lat="46.043593262494056" lon="13.210685076484072"><ele>88.0</ele><time>2026-04-22T18:13:30.999Z</time></trkpt><trkpt lat="46.043346228782205" lon="13.210803960022872"><ele>88.0</ele><time>2026-04-22T18:13:31.999Z</time></trkpt><trkpt lat="46.043094768275154" lon="13.210897933254499"><ele>89.0</ele><time>2026-04-22T18:13:32.999Z</time></trkpt><trkpt lat="46.04284056319233" lon="13.210964888775168"><ele>90.0</ele><time>2026-04-22T18:13:33.999Z</time></trkpt><trkpt lat="46.042592182851344" lon="13.210992369020692"><ele>90.5</ele><time>2026-04-22T18:13:34.999Z</time></trkpt><trkpt lat="46.042342585425594" lon="13.210993250514187"><ele>91.0</ele><time>2026-04-22T18:13:35.999Z</time></trkpt><trkpt lat="46.0421005943497" lon="13.210954505051754"><ele>91.0</ele><time>2026-04-22T18:13:36.999Z</time></trkpt><trkpt lat="46.04186400287625" lon="13.210895005709776"><ele>91.0</ele><time>2026-04-22T18:13:37.999Z</time></trkpt><trkpt lat="46.04162663039621" lon="13.210823640594333"><ele>90.5</ele><time>2026-04-22T18:13:38.999Z</time></trkpt><trkpt lat="46.041392739680624" lon="13.210749550702316"><ele>90.0</ele><time>2026-04-22T18:13:39.999Z</time></trkpt><trkpt lat="46.04116019475277" lon="13.210683092925047"><ele>89.5</ele><time>2026-04-22T18:13:40.999Z</time></trkpt><trkpt lat="46.04092529555359" lon="13.210639710426376"><ele>89.0</ele><time>2026-04-22T18:13:41.999Z</time></trkpt><trkpt lat="46.04069000160055" lon="13.210617535404507"><ele>88.0</ele><time>2026-04-22T18:13:42.999Z</time></trkpt><trkpt lat="46.04045348367489" lon="13.210622735227501"><ele>87.0</ele><time>2026-04-22T18:13:43.999Z</time></trkpt><trkpt lat="46.0402223804439" lon="13.210669498842975"><ele>86.5</ele><time>2026-04-22T18:13:44.999Z</time></trkpt><trkpt lat="46.03999601424615" lon="13.210759642130972"><ele>86.0</ele><time>2026-04-22T18:13:45.999Z</time></trkpt><trkpt lat="46.039786607347224" lon="13.210885557947112"><ele>86.0</ele><time>2026-04-22T18:13:46.999Z</time></trkpt><trkpt lat="46.03959903421526" lon="13.211049968070473"><ele>86.0</ele><time>2026-04-22T18:13:47.999Z</time></trkpt><trkpt lat="46.039424321374746" lon="13.211246369545657"><ele>86.0</ele><time>2026-04-22T18:13:48.999Z</time></trkpt><trkpt lat="46.03925941070213" lon="13.21146887989246"><ele>86.0</ele><time>2026-04-22T18:13:49.999Z</time></trkpt><trkpt lat="46.03910167087733" lon="13.211712495808195"><ele>86.0</ele><time>2026-04-22T18:13:50.999Z</time></trkpt><trkpt lat="46.038943825870454" lon="13.211963388923474"><ele>86.0</ele><time>2026-04-22T18:13:51.999Z</time></trkpt><trkpt lat="46.03879109503964" lon="13.212213498811137"><ele>86.0</ele><time>2026-04-22T18:13:52.999Z</time></trkpt><trkpt lat="46.038638084699606" lon="13.21245314549619"><ele>87.33333333333334</ele><time>2026-04-22T18:13:53.999Z</time></trkpt><trkpt lat="46.03848663141835" lon="13.212678666838686"><ele>88.66666666666667</ele><time>2026-04-22T18:13:54.999Z</time></trkpt><trkpt lat="46.03833225347289" lon="13.21288597516946"><ele>90.0</ele><time>2026-04-22T18:13:55.999Z</time></trkpt><trkpt lat="46.022128040743596" lon="13.213785744109689"><ele>86.0</ele><time>2026-04-22T18:14:57Z</time></trkpt><trkpt lat="46.02189354320789" lon="13.21398693763699"><ele>82.0</ele><time>2026-04-22T18:14:58Z</time></trkpt><trkpt lat="46.02166488264193" lon="13.214182758703688"><ele>81.0</ele><time>2026-04-22T18:14:59Z</time></trkpt><trkpt lat="46.021440570054615" lon="13.214373990293769"><ele>80.0</ele><time>2026-04-22T18:15:00Z</time></trkpt><trkpt lat="46.021218297045934" lon="13.214564965596454"><ele>80.0</ele><time>2026-04-22T18:15:01Z</time></trkpt><trkpt lat="46.02099731482893" lon="13.214754363899303"><ele>80.0</ele><time>2026-04-22T18:15:02Z</time></trkpt><trkpt lat="46.02077601552365" lon="13.214943018221296"><ele>79.5</ele><time>2026-04-22T18:15:03Z</time></trkpt><trkpt lat="46.02055154038084" lon="13.215131711360495"><ele>79.0</ele><time>2026-04-22T18:15:04Z</time></trkpt><trkpt lat="46.0203284384076" lon="13.215319970297376"><ele>79.0</ele><time>2026-04-22T18:15:05Z</time></trkpt><trkpt lat="46.020103131239985" lon="13.215512284940997"><ele>79.0</ele><time>2026-04-22T18:15:06Z</time></trkpt><trkpt lat="46.01987728144243" lon="13.215706039241677"><ele>79.0</ele><time>2026-04-22T18:15:07Z</time></trkpt><trkpt lat="46.019653002804965" lon="13.215900722343427"><ele>79.0</ele><time>2026-04-22T18:15:08Z</time></trkpt><trkpt lat="46.019433094525056" lon="13.21609646868572"><ele>79.0</ele><time>2026-04-22T18:15:09Z</time></trkpt><trkpt lat="46.01921707730746" lon="13.216299912608864"><ele>79.0</ele><time>2026-04-22T18:15:10Z</time></trkpt><trkpt lat="46.01900535725983" lon="13.21651290380023"><ele>80.0</ele><time>2026-04-22T18:15:11Z</time></trkpt><trkpt lat="46.01879725903321" lon="13.216733940524923"><ele>81.0</ele><time>2026-04-22T18:15:12Z</time></trkpt><trkpt lat="46.01859622565396" lon="13.216970437812448"><ele>81.0</ele><time>2026-04-22T18:15:12.999Z</time></trkpt><trkpt lat="46.01840329704322" lon="13.21721377799488"><ele>81.0</ele><time>2026-04-22T18:15:13.999Z</time></trkpt><trkpt lat="46.018218789838755" lon="13.217474380584866"><ele>81.5</ele><time>2026-04-22T18:15:14.999Z</time></trkpt><trkpt lat="46.01805047401166" lon="13.217752139160995"><ele>82.0</ele><time>2026-04-22T18:15:15.999Z</time></trkpt><trkpt lat="46.017901396926554" lon="13.218055812239308"><ele>82.0</ele><time>2026-04-22T18:15:16.999Z</time></trkpt><trkpt lat="46.01776303726663" lon="13.218364313023375"><ele>82.0</ele><time>2026-04-22T18:15:17.999Z</time></trkpt><trkpt lat="46.01763185185013" lon="13.218669656675756"><ele>82.0</ele><time>2026-04-22T18:15:18.999Z</time></trkpt><trkpt lat="46.01750821730077" lon="13.218983182727065"><ele>82.0</ele><time>2026-04-22T18:15:19.999Z</time></trkpt><trkpt lat="46.0173990921421" lon="13.21930629032483"><ele>81.0</ele><time>2026-04-22T18:15:20.999Z</time></trkpt><trkpt lat="46.017301396737274" lon="13.219637779407039"><ele>80.0</ele><time>2026-04-22T18:15:21.999Z</time></trkpt><trkpt lat="46.01721285685309" lon="13.21997901804863"><ele>79.0</ele><time>2026-04-22T18:15:22.999Z</time></trkpt><trkpt lat="46.01712824159539" lon="13.220329640400983"><ele>78.0</ele><time>2026-04-22T18:15:23.999Z</time></trkpt><trkpt lat="46.01704533022323" lon="13.220682890612306"><ele>78.0</ele><time>2026-04-22T18:15:24.999Z</time></trkpt><trkpt lat="46.01696590478562" lon="13.221037280092043"><ele>78.0</ele><time>2026-04-22T18:15:25.999Z</time></trkpt><trkpt lat="46.016889457798264" lon="13.221394102759616"><ele>78.0</ele><time>2026-04-22T18:15:26.999Z</time></trkpt><trkpt lat="46.016812087580185" lon="13.221747315994048"><ele>78.0</ele><time>2026-04-22T18:15:27.999Z</time></trkpt><trkpt lat="46.01673382225928" lon="13.222096578173952"><ele>78.0</ele><time>2026-04-22T18:15:28.999Z</time></trkpt><trkpt lat="46.01665325179973" lon="13.22243741380968"><ele>78.0</ele><time>2026-04-22T18:15:29.999Z</time></trkpt><trkpt lat="46.01656687069776" lon="13.222759644067487"><ele>78.66666666666667</ele><time>2026-04-22T18:15:30.999Z</time></trkpt><trkpt lat="46.01647685135681" lon="13.223053871322827"><ele>79.33333333333334</ele><time>2026-04-22T18:15:31.999Z</time></trkpt><trkpt lat="46.01638303300213" lon="13.223332032611726"><ele>80.0</ele><time>2026-04-22T18:15:32.999Z</time></trkpt><trkpt lat="46.01627571843273" lon="13.223604188197239"><ele>80.0</ele><time>2026-04-22T18:15:33.999Z</time></trkpt><trkpt lat="46.01615275298574" lon="13.22386703430031"><ele>80.0</ele><time>2026-04-22T18:15:34.999Z</time></trkpt><trkpt lat="46.01602948107882" lon="13.22411131130691"><ele>80.0</ele><time>2026-04-22T18:15:35.999Z</time></trkpt><trkpt lat="46.015906448067604" lon="13.224342327242416"><ele>80.0</ele><time>2026-04-22T18:15:36.999Z</time></trkpt><trkpt lat="46.01577529354213" lon="13.224560104575815"><ele>80.0</ele><time>2026-04-22T18:15:37.999Z</time></trkpt><trkpt lat="46.01563950892742" lon="13.22476007199336"><ele>80.0</ele><time>2026-04-22T18:15:38.999Z</time></trkpt><trkpt lat="46.015498004871006" lon="13.224942264258466"><ele>80.0</ele><time>2026-04-22T18:15:39.999Z</time></trkpt><trkpt lat="46.015354963153385" lon="13.225106621676803"><ele>80.0</ele><time>2026-04-22T18:15:40.999Z</time></trkpt><trkpt lat="46.015208065132555" lon="13.225244807323937"><ele>80.0</ele><time>2026-04-22T18:15:41.999Z</time></trkpt><trkpt lat="46.01507059398402" lon="13.225357838940855"><ele>79.5</ele><time>2026-04-22T18:15:42.999Z</time></trkpt><trkpt lat="46.014940627218195" lon="13.22545685530599"><ele>79.0</ele><time>2026-04-22T18:15:43.999Z</time></trkpt><trkpt lat="46.01480693593442" lon="13.225538280650508"><ele>78.5</ele><time>2026-04-22T18:15:44.999Z</time></trkpt><trkpt lat="46.014672096819346" lon="13.225582015687303"><ele>78.0</ele><time>2026-04-22T18:15:45.999Z</time></trkpt><trkpt lat="46.01453715245457" lon="13.225579277241387"><ele>78.0</ele><time>2026-04-22T18:15:46.999Z</time></trkpt><trkpt lat="46.014410651215385" lon="13.225539590170314"><ele>78.0</ele><time>2026-04-22T18:15:47.999Z</time></trkpt><trkpt lat="46.01428541462157" lon="13.225447863925922"><ele>78.0</ele><time>2026-04-22T18:15:48.999Z</time></trkpt><trkpt lat="46.01417140727411" lon="13.225320464745865"><ele>78.0</ele><time>2026-04-22T18:15:49.999Z</time></trkpt><trkpt lat="46.014083175871164" lon="13.225150151676432"><ele>77.75</ele><time>2026-04-22T18:15:50.999Z</time></trkpt><trkpt lat="46.01402583792048" lon="13.224957546951995"><ele>77.5</ele><time>2026-04-22T18:15:51.999Z</time></trkpt><trkpt lat="46.0140077695214" lon="13.224748240636455"><ele>77.25</ele><time>2026-04-22T18:15:52.999Z</time></trkpt><trkpt lat="46.014025217956295" lon="13.22454982053256"><ele>77.0</ele><time>2026-04-22T18:15:53.999Z</time></trkpt><trkpt lat="46.01407281584438" lon="13.224360232168566"><ele>77.0</ele><time>2026-04-22T18:15:54.999Z</time></trkpt><trkpt lat="46.01414968954393" lon="13.224186462643164"><ele>77.0</ele><time>2026-04-22T18:15:55.999Z</time></trkpt><trkpt lat="46.016236739974204" lon="13.243376612742692"><ele>77.0</ele><time>2026-04-22T18:16:57Z</time></trkpt><trkpt lat="46.016153323651984" lon="13.2438256538892"><ele>77.0</ele><time>2026-04-22T18:16:58Z</time></trkpt><trkpt lat="46.01607109304977" lon="13.244277990715235"><ele>77.5</ele><time>2026-04-22T18:16:59Z</time></trkpt><trkpt lat="46.01599108894844" lon="13.244734527168788"><ele>78.0</ele><time>2026-04-22T18:17:00Z</time></trkpt><trkpt lat="46.01591486020984" lon="13.24519438431877"><ele>79.0</ele><time>2026-04-22T18:17:01Z</time></trkpt><trkpt lat="46.01583842874143" lon="13.24565542447755"><ele>80.0</ele><time>2026-04-22T18:17:02Z</time></trkpt><trkpt lat="46.01576452992509" lon="13.246117694872337"><ele>78.5</ele><time>2026-04-22T18:17:03Z</time></trkpt><trkpt lat="46.01569524669794" lon="13.246580896944215"><ele>77.0</ele><time>2026-04-22T18:17:04Z</time></trkpt><trkpt lat="46.01563026166203" lon="13.247046237489126"><ele>75.0</ele><time>2026-04-22T18:17:05Z</time></trkpt><trkpt lat="46.01557003660438" lon="13.24750880591361"><ele>73.0</ele><time>2026-04-22T18:17:06Z</time></trkpt><trkpt lat="46.015517780696484" lon="13.247973977717209"><ele>74.0</ele><time>2026-04-22T18:17:07Z</time></trkpt><trkpt lat="46.01547312722162" lon="13.248437062668522"><ele>75.0</ele><time>2026-04-22T18:17:08Z</time></trkpt><trkpt lat="46.01543688484266" lon="13.248903061912392"><ele>75.5</ele><time>2026-04-22T18:17:09Z</time></trkpt><trkpt lat="46.01540952057633" lon="13.249369106188974"><ele>76.0</ele><time>2026-04-22T18:17:10Z</time></trkpt><trkpt lat="46.015390205817134" lon="13.249836008476189"><ele>76.5</ele><time>2026-04-22T18:17:11Z</time></trkpt><trkpt lat="46.01538289975916" lon="13.250306854982645"><ele>77.0</ele><time>2026-04-22T18:17:12Z</time></trkpt><trkpt lat="46.01538293333531" lon="13.250780087157377"><ele>76.0</ele><time>2026-04-22T18:17:13Z</time></trkpt><trkpt lat="46.015389999698016" lon="13.251253499813016"><ele>75.0</ele><time>2026-04-22T18:17:14Z</time></trkpt><trkpt lat="46.01541019083848" lon="13.251726027559602"><ele>75.0</ele><time>2026-04-22T18:17:15Z</time></trkpt><trkpt lat="46.015438302315864" lon="13.252192936143079"><ele>75.0</ele><time>2026-04-22T18:17:15.999Z</time></trkpt><trkpt lat="46.01547216351433" lon="13.252661779863255"><ele>76.0</ele><time>2026-04-22T18:17:16.999Z</time></trkpt><trkpt lat="46.01551748753587" lon="13.25312713620167"><ele>77.0</ele><time>2026-04-22T18:17:17.999Z</time></trkpt><trkpt lat="46.015572295476275" lon="13.25359171401176"><ele>76.0</ele><time>2026-04-22T18:17:18.999Z</time></trkpt><trkpt lat="46.01563160294228" lon="13.25405198973498"><ele>75.0</ele><time>2026-04-22T18:17:19.999Z</time></trkpt><trkpt lat="46.01569732131305" lon="13.254512349721654"><ele>75.5</ele><time>2026-04-22T18:17:20.999Z</time></trkpt><trkpt lat="46.01577116901399" lon="13.254971991174502"><ele>76.0</ele><time>2026-04-22T18:17:21.999Z</time></trkpt><trkpt lat="46.015854212766776" lon="13.255426723496686"><ele>75.0</ele><time>2026-04-22T18:17:22.999Z</time></trkpt><trkpt lat="46.01594940768339" lon="13.255876120643538"><ele>74.0</ele><time>2026-04-22T18:17:23.999Z</time></trkpt><trkpt lat="46.016056671512935" lon="13.256318160186133"><ele>75.5</ele><time>2026-04-22T18:17:24.999Z</time></trkpt><trkpt lat="46.016171937076365" lon="13.25675207841587"><ele>77.0</ele><time>2026-04-22T18:17:25.999Z</time></trkpt><trkpt lat="46.01629147340219" lon="13.257176332349735"><ele>77.5</ele><time>2026-04-22T18:17:26.999Z</time></trkpt><trkpt lat="46.01641506681323" lon="13.25759155122567"><ele>78.0</ele><time>2026-04-22T18:17:27.999Z</time></trkpt><trkpt lat="46.016540853299006" lon="13.25800099343345"><ele>78.5</ele><time>2026-04-22T18:17:28.999Z</time></trkpt><trkpt lat="46.01667078162935" lon="13.258400093553814"><ele>79.0</ele><time>2026-04-22T18:17:29.999Z</time></trkpt><trkpt lat="46.01680051921239" lon="13.258784497461601"><ele>79.5</ele><time>2026-04-22T18:17:30.999Z</time></trkpt><trkpt lat="46.01692764584436" lon="13.259151478647906"><ele>80.0</ele><time>2026-04-22T18:17:31.999Z</time></trkpt><trkpt lat="46.0170500571426" lon="13.259505136379426"><ele>79.5</ele><time>2026-04-22T18:17:32.999Z</time></trkpt><trkpt lat="46.017172690702964" lon="13.259852045171543"><ele>79.0</ele><time>2026-04-22T18:17:33.999Z</time></trkpt><trkpt lat="46.01729446916634" lon="13.260184041750875"><ele>79.0</ele><time>2026-04-22T18:17:34.999Z</time></trkpt><trkpt lat="46.01741727900239" lon="13.2605139732456"><ele>79.0</ele><time>2026-04-22T18:17:35.999Z</time></trkpt><trkpt lat="46.01754110602908" lon="13.260846050921353"><ele>78.5</ele><time>2026-04-22T18:17:36.999Z</time></trkpt><trkpt lat="46.01766742959271" lon="13.26117748139193"><ele>78.0</ele><time>2026-04-22T18:17:37.999Z</time></trkpt><trkpt lat="46.01779577084776" lon="13.261510943983343"><ele>78.0</ele><time>2026-04-22T18:17:38.999Z</time></trkpt><trkpt lat="46.017924978735756" lon="13.261849413665205"><ele>78.0</ele><time>2026-04-22T18:17:39.999Z</time></trkpt><trkpt lat="46.01805871793087" lon="13.262194298820813"><ele>79.0</ele><time>2026-04-22T18:17:40.999Z</time></trkpt><trkpt lat="46.01819458479749" lon="13.262550689721254"><ele>80.0</ele><time>2026-04-22T18:17:41.999Z</time></trkpt><trkpt lat="46.01833092918047" lon="13.262915774018197"><ele>80.0</ele><time>2026-04-22T18:17:42.999Z</time></trkpt><trkpt lat="46.01847056513414" lon="13.263290339324548"><ele>80.0</ele><time>2026-04-22T18:17:43.999Z</time></trkpt><trkpt lat="46.01861356345246" lon="13.263677831005152"><ele>80.5</ele><time>2026-04-22T18:17:44.999Z</time></trkpt><trkpt lat="46.01875479440684" lon="13.264065675499614"><ele>81.0</ele><time>2026-04-22T18:17:45.999Z</time></trkpt><trkpt lat="46.01889007859453" lon="13.26445405018486"><ele>79.0</ele><time>2026-04-22T18:17:46.999Z</time></trkpt><trkpt lat="46.01901674489518" lon="13.264841352965632"><ele>77.0</ele><time>2026-04-22T18:17:47.999Z</time></trkpt><trkpt lat="46.01912631145072" lon="13.265217714077986"><ele>78.0</ele><time>2026-04-22T18:17:48.999Z</time></trkpt><trkpt lat="46.01921766958528" lon="13.265569695051768"><ele>79.0</ele><time>2026-04-22T18:17:49.999Z</time></trkpt><trkpt lat="46.01929743648608" lon="13.265888900982098"><ele>79.0</ele><time>2026-04-22T18:17:50.999Z</time></trkpt><trkpt lat="46.01936717799512" lon="13.266183476856956"><ele>79.0</ele><time>2026-04-22T18:17:51.999Z</time></trkpt><trkpt lat="46.01942399198163" lon="13.26644164990446"><ele>79.0</ele><time>2026-04-22T18:17:52.999Z</time></trkpt><trkpt lat="46.01947347380643" lon="13.266676823894317"><ele>80.0</ele><time>2026-04-22T18:17:53.999Z</time></trkpt><trkpt lat="46.019504513432274" lon="13.266875269399781"><ele>81.0</ele><time>2026-04-22T18:17:54.999Z</time></trkpt><trkpt lat="46.01949128526016" lon="13.267066878321886"><ele>82.0</ele><time>2026-04-22T18:17:55.999Z</time></trkpt><trkpt lat="46.01225750358554" lon="13.274926109794295"><ele>80.0</ele><time>2026-04-22T18:18:57Z</time></trkpt><trkpt lat="46.01207101039136" lon="13.275098261578748"><ele>78.0</ele><time>2026-04-22T18:18:58Z</time></trkpt><trkpt lat="46.01188268865964" lon="13.275273899760334"><ele>76.0</ele><time>2026-04-22T18:18:59Z</time></trkpt><trkpt lat="46.01169649101586" lon="13.275446707171975"><ele>76.0</ele><time>2026-04-22T18:19:00Z</time></trkpt><trkpt lat="46.01151847677148" lon="13.275614773091943"><ele>76.0</ele><time>2026-04-22T18:19:01Z</time></trkpt><trkpt lat="46.011346567265356" lon="13.275778907168721"><ele>76.0</ele><time>2026-04-22T18:19:02Z</time></trkpt><trkpt lat="46.011175843234355" lon="13.2759367473494"><ele>76.0</ele><time>2026-04-22T18:19:03Z</time></trkpt><trkpt lat="46.01100268804509" lon="13.276103304804774"><ele>76.0</ele><time>2026-04-22T18:19:04Z</time></trkpt><trkpt lat="46.01082753063921" lon="13.276275017521629"><ele>76.0</ele><time>2026-04-22T18:19:05Z</time></trkpt><trkpt lat="46.0106581145133" lon="13.276456169230787"><ele>75.33333333333333</ele><time>2026-04-22T18:19:06Z</time></trkpt><trkpt lat="46.01050215569166" lon="13.276654584747183"><ele>74.66666666666667</ele><time>2026-04-22T18:19:07Z</time></trkpt><trkpt lat="46.01035125398391" lon="13.276854671287653"><ele>74.0</ele><time>2026-04-22T18:19:08Z</time></trkpt><trkpt lat="46.010203195972785" lon="13.277043381621981"><ele>74.0</ele><time>2026-04-22T18:19:09Z</time></trkpt><trkpt lat="46.01003996452479" lon="13.27720117646589"><ele>74.0</ele><time>2026-04-22T18:19:10Z</time></trkpt><trkpt lat="46.00985960454987" lon="13.277335312428136"><ele>74.0</ele><time>2026-04-22T18:19:11Z</time></trkpt><trkpt lat="46.00968418148475" lon="13.277463269924429"><ele>74.66666666666667</ele><time>2026-04-22T18:19:12Z</time></trkpt><trkpt lat="46.009512739259755" lon="13.277572682769593"><ele>75.33333333333333</ele><time>2026-04-22T18:19:13Z</time></trkpt><trkpt lat="46.00934411510679" lon="13.277677701687601"><ele>76.0</ele><time>2026-04-22T18:19:14Z</time></trkpt><trkpt lat="46.00918157629565" lon="13.277776173521355"><ele>76.66666666666666</ele><time>2026-04-22T18:19:15Z</time></trkpt><trkpt lat="46.009030933721725" lon="13.277868212567025"><ele>77.33333333333333</ele><time>2026-04-22T18:19:16Z</time></trkpt><trkpt lat="46.008900488224576" lon="13.277952412189718"><ele>78.0</ele><time>2026-04-22T18:19:17Z</time></trkpt><trkpt lat="46.00875704245774" lon="13.278064612308576"><ele>77.33333333333333</ele><time>2026-04-22T18:19:18Z</time></trkpt><trkpt lat="46.00862302178031" lon="13.278226113996046"><ele>76.66666666666666</ele><time>2026-04-22T18:19:18.999Z</time></trkpt><trkpt lat="46.0085092609663" lon="13.278430619152171"><ele>76.0</ele><time>2026-04-22T18:19:19.999Z</time></trkpt><trkpt lat="46.0084300782627" lon="13.278683032323034"><ele>75.0</ele><time>2026-04-22T18:19:20.999Z</time></trkpt><trkpt lat="46.00838133924658" lon="13.278972759808477"><ele>74.0</ele><time>2026-04-22T18:19:21.999Z</time></trkpt><trkpt lat="46.00836649600457" lon="13.279268323510935"><ele>73.0</ele><time>2026-04-22T18:19:22.999Z</time></trkpt><trkpt lat="46.008342404192085" lon="13.27956776331901"><ele>73.0</ele><time>2026-04-22T18:19:23.999Z</time></trkpt><trkpt lat="46.00831107409513" lon="13.279910980952684"><ele>73.0</ele><time>2026-04-22T18:19:24.999Z</time></trkpt><trkpt lat="46.00824659030987" lon="13.280267047340335"><ele>73.0</ele><time>2026-04-22T18:19:25.999Z</time></trkpt><trkpt lat="46.008142838945346" lon="13.28064249109564"><ele>73.0</ele><time>2026-04-22T18:19:26.999Z</time></trkpt><trkpt lat="46.00799513593728" lon="13.28104120961192"><ele>73.5</ele><time>2026-04-22T18:19:27.999Z</time></trkpt><trkpt lat="46.00781437857619" lon="13.281470284145096"><ele>74.0</ele><time>2026-04-22T18:19:28.999Z</time></trkpt><trkpt lat="46.00763100997886" lon="13.281935275869742"><ele>72.5</ele><time>2026-04-22T18:19:29.999Z</time></trkpt><trkpt lat="46.007436943074744" lon="13.282398876856837"><ele>71.0</ele><time>2026-04-22T18:19:30.999Z</time></trkpt><trkpt lat="46.00725034619131" lon="13.28284327607968"><ele>71.0</ele><time>2026-04-22T18:19:31.999Z</time></trkpt><trkpt lat="46.00707287457547" lon="13.283261818707684"><ele>71.0</ele><time>2026-04-22T18:19:32.999Z</time></trkpt><trkpt lat="46.00691314544027" lon="13.283646959147049"><ele>70.5</ele><time>2026-04-22T18:19:33.999Z</time></trkpt><trkpt lat="46.00676626546688" lon="13.28400240022659"><ele>70.0</ele><time>2026-04-22T18:19:34.999Z</time></trkpt><trkpt lat="46.006618977330994" lon="13.284320283138982"><ele>70.0</ele><time>2026-04-22T18:19:35.999Z</time></trkpt><trkpt lat="46.006446120406544" lon="13.284628057724328"><ele>70.0</ele><time>2026-04-22T18:19:36.999Z</time></trkpt><trkpt lat="46.00622681892809" lon="13.28492195856457"><ele>70.0</ele><time>2026-04-22T18:19:37.999Z</time></trkpt><trkpt lat="46.00599118682498" lon="13.285233438295162"><ele>70.0</ele><time>2026-04-22T18:19:38.999Z</time></trkpt><trkpt lat="46.00574661652501" lon="13.285560223908824"><ele>70.0</ele><time>2026-04-22T18:19:39.999Z</time></trkpt><trkpt lat="46.005503115100936" lon="13.285886470992397"><ele>70.0</ele><time>2026-04-22T18:19:40.999Z</time></trkpt><trkpt lat="46.005268180462295" lon="13.286204317171178"><ele>70.0</ele><time>2026-04-22T18:19:41.999Z</time></trkpt><trkpt lat="46.00504356092508" lon="13.286513700785184"><ele>70.0</ele><time>2026-04-22T18:19:42.999Z</time></trkpt><trkpt lat="46.004827499420855" lon="13.286828724397315"><ele>69.0</ele><time>2026-04-22T18:19:43.999Z</time></trkpt><trkpt lat="46.004622196851635" lon="13.287153669510246"><ele>68.0</ele><time>2026-04-22T18:19:44.999Z</time></trkpt><trkpt lat="46.004425313679185" lon="13.287488272899077"><ele>68.0</ele><time>2026-04-22T18:19:45.999Z</time></trkpt><trkpt lat="46.0042300405089" lon="13.287824258029612"><ele>68.0</ele><time>2026-04-22T18:19:46.999Z</time></trkpt><trkpt lat="46.004033669191465" lon="13.288151344238162"><ele>68.5</ele><time>2026-04-22T18:19:47.999Z</time></trkpt><trkpt lat="46.00383754398214" lon="13.288472727436243"><ele>69.0</ele><time>2026-04-22T18:19:48.999Z</time></trkpt><trkpt lat="46.00364464307148" lon="13.288795287212428"><ele>68.0</ele><time>2026-04-22T18:19:49.999Z</time></trkpt><trkpt lat="46.003456926931015" lon="13.289117759632417"><ele>67.0</ele><time>2026-04-22T18:19:50.999Z</time></trkpt><trkpt lat="46.00327079765751" lon="13.289437704792395"><ele>67.0</ele><time>2026-04-22T18:19:51.999Z</time></trkpt><trkpt lat="46.00308702788523" lon="13.289755797532152"><ele>67.0</ele><time>2026-04-22T18:19:52.999Z</time></trkpt><trkpt lat="46.00290170866413" lon="13.290067217402624"><ele>67.0</ele><time>2026-04-22T18:19:53.999Z</time></trkpt><trkpt lat="46.002713330200464" lon="13.29036931785855"><ele>67.0</ele><time>2026-04-22T18:19:54.999Z</time></trkpt><trkpt lat="46.00251731110478" lon="13.290655140321038"><ele>69.0</ele><time>2026-04-22T18:19:55.999Z</time></trkpt><trkpt lat="45.99639140708653" lon="13.302698948794358"><ele>69.0</ele><time>2026-04-22T18:20:57Z</time></trkpt><trkpt lat="45.99628861295344" lon="13.302704267072798"><ele>69.0</ele><time>2026-04-22T18:20:58Z</time></trkpt><trkpt lat="45.99619680608949" lon="13.302714320172559"><ele>69.0</ele><time>2026-04-22T18:20:59Z</time></trkpt><trkpt lat="45.99611175721007" lon="13.302707080520047"><ele>69.0</ele><time>2026-04-22T18:21:00Z</time></trkpt><trkpt lat="45.9960409661972" lon="13.302689516127495"><ele>69.0</ele><time>2026-04-22T18:21:01Z</time></trkpt><trkpt lat="45.99597628550638" lon="13.302708388750002"><ele>69.0</ele><time>2026-04-22T18:21:02Z</time></trkpt><trkpt lat="45.99592463433934" lon="13.302784679279378"><ele>69.0</ele><time>2026-04-22T18:21:03Z</time></trkpt><trkpt lat="45.99590071617094" lon="13.302919201786068"><ele>69.0</ele><time>2026-04-22T18:21:04Z</time></trkpt><trkpt lat="45.99584767196434" lon="13.303071414446537"><ele>69.0</ele><time>2026-04-22T18:21:05Z</time></trkpt><trkpt lat="45.99579867271336" lon="13.303245416386414"><ele>69.0</ele><time>2026-04-22T18:21:06Z</time></trkpt><trkpt lat="45.99579172781965" lon="13.30343432257244"><ele>68.25</ele><time>2026-04-22T18:21:07Z</time></trkpt><trkpt lat="45.99579678459554" lon="13.303634782822018"><ele>67.5</ele><time>2026-04-22T18:21:08Z</time></trkpt><trkpt lat="45.99580113739601" lon="13.303835833482662"><ele>66.75</ele><time>2026-04-22T18:21:09Z</time></trkpt><trkpt lat="45.995806104536335" lon="13.304030006886611"><ele>66.0</ele><time>2026-04-22T18:21:10Z</time></trkpt><trkpt lat="45.99580986678234" lon="13.304219263086729"><ele>66.0</ele><time>2026-04-22T18:21:11Z</time></trkpt><trkpt lat="45.995806860514016" lon="13.304401200978893"><ele>66.0</ele><time>2026-04-22T18:21:12Z</time></trkpt><trkpt lat="45.99581503314925" lon="13.304570717396802"><ele>66.0</ele><time>2026-04-22T18:21:13Z</time></trkpt><trkpt lat="45.995818448602684" lon="13.304720767060239"><ele>66.0</ele><time>2026-04-22T18:21:14Z</time></trkpt><trkpt lat="45.99581913061569" lon="13.304851492106737"><ele>66.0</ele><time>2026-04-22T18:21:15Z</time></trkpt><trkpt lat="45.99582084444206" lon="13.304972569554705"><ele>66.2</ele><time>2026-04-22T18:21:16Z</time></trkpt><trkpt lat="45.995814892685345" lon="13.30508036338012"><ele>66.39999999999999</ele><time>2026-04-22T18:21:17Z</time></trkpt><trkpt lat="45.99578117322945" lon="13.305168946056146"><ele>66.6</ele><time>2026-04-22T18:21:18Z</time></trkpt><trkpt lat="45.995715925355285" lon="13.305223423567845"><ele>66.8</ele><time>2026-04-22T18:21:19Z</time></trkpt><trkpt lat="45.995612813611956" lon="13.305259884442117"><ele>67.0</ele><time>2026-04-22T18:21:20Z</time></trkpt><trkpt lat="45.99548959713869" lon="13.305300680756071"><ele>67.0</ele><time>2026-04-22T18:21:21Z</time></trkpt><trkpt lat="45.995351735611465" lon="13.305348115128293"><ele>67.0</ele><time>2026-04-22T18:21:22Z</time></trkpt><trkpt lat="45.99521049614646" lon="13.305394840741375"><ele>67.0</ele><time>2026-04-22T18:21:23Z</time></trkpt><trkpt lat="45.99508079435426" lon="13.305451709769015"><ele>67.0</ele><time>2026-04-22T18:21:23.999Z</time></trkpt><trkpt lat="45.994959787258765" lon="13.305524982452646"><ele>67.0</ele><time>2026-04-22T18:21:24.999Z</time></trkpt><trkpt lat="45.99485038148204" lon="13.305609733841113"><ele>67.0</ele><time>2026-04-22T18:21:25.999Z</time></trkpt><trkpt lat="45.9947449951431" lon="13.305695450565691"><ele>67.0</ele><time>2026-04-22T18:21:26.999Z</time></trkpt><trkpt lat="45.99464523557503" lon="13.305797276403176"><ele>67.0</ele><time>2026-04-22T18:21:27.999Z</time></trkpt><trkpt lat="45.99454182323981" lon="13.305896698957113"><ele>67.0</ele><time>2026-04-22T18:21:28.999Z</time></trkpt><trkpt lat="45.99443299977353" lon="13.3059861915891"><ele>67.0</ele><time>2026-04-22T18:21:29.999Z</time></trkpt><trkpt lat="45.994319719180545" lon="13.306065824085877"><ele>67.0</ele><time>2026-04-22T18:21:30.999Z</time></trkpt><trkpt lat="45.99419975365649" lon="13.306141406052605"><ele>67.0</ele><time>2026-04-22T18:21:31.999Z</time></trkpt><trkpt lat="45.994074924044966" lon="13.306218005637557"><ele>67.0</ele><time>2026-04-22T18:21:32.999Z</time></trkpt><trkpt lat="45.993944151344024" lon="13.306285584770311"><ele>67.0</ele><time>2026-04-22T18:21:33.999Z</time></trkpt><trkpt lat="45.99381989431066" lon="13.306349596658903"><ele>67.0</ele><time>2026-04-22T18:21:34.999Z</time></trkpt><trkpt lat="45.993705670937466" lon="13.306422727370181"><ele>67.0</ele><time>2026-04-22T18:21:35.999Z</time></trkpt><trkpt lat="45.993603226144444" lon="13.306517386478776"><ele>67.0</ele><time>2026-04-22T18:21:36.999Z</time></trkpt><trkpt lat="45.993508157205135" lon="13.306625074725147"><ele>67.0</ele><time>2026-04-22T18:21:37.999Z</time></trkpt><trkpt lat="45.99341061964025" lon="13.306735351068415"><ele>67.0</ele><time>2026-04-22T18:21:38.999Z</time></trkpt><trkpt lat="45.99330798861121" lon="13.306843582006849"><ele>67.0</ele><time>2026-04-22T18:21:39.999Z</time></trkpt><trkpt lat="45.993201815692814" lon="13.306956025766675"><ele>67.0</ele><time>2026-04-22T18:21:40.999Z</time></trkpt><trkpt lat="45.99309446028233" lon="13.307065367813006"><ele>67.0</ele><time>2026-04-22T18:21:41.999Z</time></trkpt><trkpt lat="45.992997273141086" lon="13.30715022675676"><ele>67.0</ele><time>2026-04-22T18:21:42.999Z</time></trkpt><trkpt lat="45.992905282341496" lon="13.307202919577508"><ele>67.0</ele><time>2026-04-22T18:21:43.999Z</time></trkpt><trkpt lat="45.99280202472815" lon="13.307219583981437"><ele>67.0</ele><time>2026-04-22T18:21:44.999Z</time></trkpt><trkpt lat="45.99267535452445" lon="13.307221016511935"><ele>67.0</ele><time>2026-04-22T18:21:45.999Z</time></trkpt><trkpt lat="45.99253756691605" lon="13.307212409693852"><ele>67.0</ele><time>2026-04-22T18:21:46.999Z</time></trkpt><trkpt lat="45.99240010711488" lon="13.307208734948759"><ele>67.0</ele><time>2026-04-22T18:21:47.999Z</time></trkpt><trkpt lat="45.992264855089246" lon="13.307205710523574"><ele>67.0</ele><time>2026-04-22T18:21:48.999Z</time></trkpt><trkpt lat="45.992119141952855" lon="13.307209849533967"><ele>66.75</ele><time>2026-04-22T18:21:49.999Z</time></trkpt><trkpt lat="45.991974394514585" lon="13.307226554146652"><ele>66.5</ele><time>2026-04-22T18:21:50.999Z</time></trkpt><trkpt lat="45.99183200360694" lon="13.307260044316278"><ele>66.25</ele><time>2026-04-22T18:21:51.999Z</time></trkpt><trkpt lat="45.99168771300681" lon="13.30731839377783"><ele>66.0</ele><time>2026-04-22T18:21:52.999Z</time></trkpt><trkpt lat="45.99153264102089" lon="13.307400958211469"><ele>65.33333333333333</ele><time>2026-04-22T18:21:53.999Z</time></trkpt><trkpt lat="45.99135579695441" lon="13.307552362641712"><ele>64.66666666666666</ele><time>2026-04-22T18:21:54.999Z</time></trkpt><trkpt lat="45.99116726303625" lon="13.307730465988728"><ele>64.0</ele><time>2026-04-22T18:21:55.999Z</time></trkpt><trkpt lat="45.97886088344565" lon="13.318011592873342"><ele>62.33333333333333</ele><time>2026-04-22T18:22:57Z</time></trkpt><trkpt lat="45.9786826357952" lon="13.318156547245074"><ele>60.66666666666667</ele><time>2026-04-22T18:22:58Z</time></trkpt><trkpt lat="45.97851413590232" lon="13.318323878082944"><ele>59.0</ele><time>2026-04-22T18:22:59Z</time></trkpt><trkpt lat="45.978345466182574" lon="13.318500331882127"><ele>59.0</ele><time>2026-04-22T18:23:00Z</time></trkpt><trkpt lat="45.97817310404777" lon="13.318676210971498"><ele>59.0</ele><time>2026-04-22T18:23:01Z</time></trkpt><trkpt lat="45.977997276488885" lon="13.318851683956266"><ele>59.0</ele><time>2026-04-22T18:23:02Z</time></trkpt><trkpt lat="45.977816441072974" lon="13.319020918285771"><ele>59.333333333333336</ele><time>2026-04-22T18:23:03Z</time></trkpt><trkpt lat="45.97763257337459" lon="13.31918288420494"><ele>59.66666666666667</ele><time>2026-04-22T18:23:04Z</time></trkpt><trkpt lat="45.97744989669137" lon="13.319338352098256"><ele>60.0</ele><time>2026-04-22T18:23:05Z</time></trkpt><trkpt lat="45.97726544144968" lon="13.319488920622318"><ele>59.33333333333333</ele><time>2026-04-22T18:23:06Z</time></trkpt><trkpt lat="45.977079585727644" lon="13.319631105463964"><ele>58.666666666666664</ele><time>2026-04-22T18:23:07Z</time></trkpt><trkpt lat="45.976891030275816" lon="13.319766797020174"><ele>58.0</ele><time>2026-04-22T18:23:08Z</time></trkpt><trkpt lat="45.97670408891526" lon="13.319898885459695"><ele>57.666666666666664</ele><time>2026-04-22T18:23:09Z</time></trkpt><trkpt lat="45.97652029093953" lon="13.32002314357175"><ele>57.33333333333333</ele><time>2026-04-22T18:23:10Z</time></trkpt><trkpt lat="45.9763492941354" lon="13.320138692649174"><ele>57.0</ele><time>2026-04-22T18:23:11Z</time></trkpt><trkpt lat="45.97618581401066" lon="13.320238031489348"><ele>57.0</ele><time>2026-04-22T18:23:12Z</time></trkpt><trkpt lat="45.97602300230097" lon="13.320328223330288"><ele>57.0</ele><time>2026-04-22T18:23:13Z</time></trkpt><trkpt lat="45.97585813211969" lon="13.320413083587237"><ele>57.0</ele><time>2026-04-22T18:23:14Z</time></trkpt><trkpt lat="45.97569838406037" lon="13.320497700397706"><ele>57.5</ele><time>2026-04-22T18:23:15Z</time></trkpt><trkpt lat="45.97554783598252" lon="13.320575855799042"><ele>58.0</ele><time>2026-04-22T18:23:16Z</time></trkpt><trkpt lat="45.97540754714725" lon="13.320649411362027"><ele>58.5</ele><time>2026-04-22T18:23:17Z</time></trkpt><trkpt lat="45.975282334589785" lon="13.320714837336192"><ele>59.0</ele><time>2026-04-22T18:23:18Z</time></trkpt><trkpt lat="45.9751747544277" lon="13.32077103476427"><ele>59.00000000000001</ele><time>2026-04-22T18:23:19Z</time></trkpt><trkpt lat="45.97508077033816" lon="13.320811821550343"><ele>59.0</ele><time>2026-04-22T18:23:20Z</time></trkpt><trkpt lat="45.9749985581025" lon="13.320824772739334"><ele>59.0</ele><time>2026-04-22T18:23:21Z</time></trkpt><trkpt lat="45.97492131897749" lon="13.320807702879158"><ele>59.0</ele><time>2026-04-22T18:23:22Z</time></trkpt><trkpt lat="45.97485205481823" lon="13.320794419002826"><ele>59.00000000000001</ele><time>2026-04-22T18:23:23Z</time></trkpt><trkpt lat="45.974785318983464" lon="13.320813375710616"><ele>59.0</ele><time>2026-04-22T18:23:24Z</time></trkpt><trkpt lat="45.974736193617595" lon="13.320895150929125"><ele>59.0</ele><time>2026-04-22T18:23:25Z</time></trkpt><trkpt lat="45.974697436221405" lon="13.32102265135493"><ele>59.00000000000001</ele><time>2026-04-22T18:23:26Z</time></trkpt><trkpt lat="45.974630339856525" lon="13.321165998649972"><ele>59.00000000000001</ele><time>2026-04-22T18:23:27Z</time></trkpt><trkpt lat="45.974579097101824" lon="13.32131064155296"><ele>59.0</ele><time>2026-04-22T18:23:27.999Z</time></trkpt><trkpt lat="45.974542782302834" lon="13.321461397112094"><ele>59.0</ele><time>2026-04-22T18:23:28.999Z</time></trkpt><trkpt lat="45.97452052964704" lon="13.321616841303676"><ele>58.833333333333336</ele><time>2026-04-22T18:23:29.999Z</time></trkpt><trkpt lat="45.97450473445869" lon="13.321755449324032"><ele>58.66666666666667</ele><time>2026-04-22T18:23:30.999Z</time></trkpt><trkpt lat="45.97448196597155" lon="13.321866036490423"><ele>58.5</ele><time>2026-04-22T18:23:31.999Z</time></trkpt><trkpt lat="45.974447876724966" lon="13.321950361636572"><ele>58.33333333333333</ele><time>2026-04-22T18:23:32.999Z</time></trkpt><trkpt lat="45.97435266188305" lon="13.321994188851686"><ele>58.166666666666664</ele><time>2026-04-22T18:23:34.999Z</time></trkpt><trkpt lat="45.97429629800042" lon="13.321935749227254"><ele>58.0</ele><time>2026-04-22T18:23:35.999Z</time></trkpt><trkpt lat="45.974232080754476" lon="13.321830703100257"><ele>57.75</ele><time>2026-04-22T18:23:36.999Z</time></trkpt><trkpt lat="45.974145389175796" lon="13.32171988648295"><ele>57.5</ele><time>2026-04-22T18:23:37.999Z</time></trkpt><trkpt lat="45.97405409208905" lon="13.32157090412305"><ele>57.25</ele><time>2026-04-22T18:23:38.999Z</time></trkpt><trkpt lat="45.97396043121753" lon="13.321381474517242"><ele>57.0</ele><time>2026-04-22T18:23:39.999Z</time></trkpt><trkpt lat="45.973856982069144" lon="13.321141941550117"><ele>57.0</ele><time>2026-04-22T18:23:40.999Z</time></trkpt><trkpt lat="45.97376534182306" lon="13.320900138401441"><ele>57.0</ele><time>2026-04-22T18:23:41.999Z</time></trkpt><trkpt lat="45.973691447619984" lon="13.320702873452635"><ele>57.0</ele><time>2026-04-22T18:23:42.999Z</time></trkpt><trkpt lat="45.973625863424566" lon="13.320536203957174"><ele>57.0</ele><time>2026-04-22T18:23:43.999Z</time></trkpt><trkpt lat="45.973569965429554" lon="13.320385674483521"><ele>57.0</ele><time>2026-04-22T18:23:44.999Z</time></trkpt><trkpt lat="45.9735120899906" lon="13.32026171639075"><ele>57.0</ele><time>2026-04-22T18:23:45.999Z</time></trkpt><trkpt lat="45.973425475267824" lon="13.320168465511037"><ele>57.0</ele><time>2026-04-22T18:23:46.999Z</time></trkpt><trkpt lat="45.97331654471656" lon="13.320124219838446"><ele>57.0</ele><time>2026-04-22T18:23:47.999Z</time></trkpt><trkpt lat="45.97318123064101" lon="13.32012990749112"><ele>56.66666666666667</ele><time>2026-04-22T18:23:48.999Z</time></trkpt><trkpt lat="45.97302921518251" lon="13.320114969506959"><ele>56.333333333333336</ele><time>2026-04-22T18:23:49.999Z</time></trkpt><trkpt lat="45.97286912794722" lon="13.320056377391882"><ele>56.0</ele><time>2026-04-22T18:23:50.999Z</time></trkpt><trkpt lat="45.972722464004754" lon="13.31999425561555"><ele>56.0</ele><time>2026-04-22T18:23:51.999Z</time></trkpt><trkpt lat="45.9725849294007" lon="13.319905830931475"><ele>56.0</ele><time>2026-04-22T18:23:52.999Z</time></trkpt><trkpt lat="45.972474331329856" lon="13.319777223812814"><ele>56.0</ele><time>2026-04-22T18:23:53.999Z</time></trkpt><trkpt lat="45.97237193318676" lon="13.319621301651349"><ele>56.0</ele><time>2026-04-22T18:23:54.999Z</time></trkpt><trkpt lat="45.972265637112315" lon="13.319469273724806"><ele>52.0</ele><time>2026-04-22T18:23:55.999Z</time></trkpt><trkpt lat="45.96459654468882" lon="13.313152200241957"><ele>52.0</ele><time>2026-04-22T18:24:57Z</time></trkpt><trkpt lat="45.96445888872166" lon="13.31308055308991"><ele>52.0</ele><time>2026-04-22T18:24:58Z</time></trkpt><trkpt lat="45.96434173402047" lon="13.313012498080456"><ele>52.0</ele><time>2026-04-22T18:24:59Z</time></trkpt><trkpt lat="45.96423454365592" lon="13.312913781228586"><ele>52.0</ele><time>2026-04-22T18:25:00Z</time></trkpt><trkpt lat="45.96413508731902" lon="13.312775029410886"><ele>52.0</ele><time>2026-04-22T18:25:01Z</time></trkpt><trkpt lat="45.96404898928744" lon="13.312606309944304"><ele>52.0</ele><time>2026-04-22T18:25:02Z</time></trkpt><trkpt lat="45.963971442794396" lon="13.312436085888763"><ele>52.0</ele><time>2026-04-22T18:25:03Z</time></trkpt><trkpt lat="45.963880499567985" lon="13.312293012077793"><ele>52.0</ele><time>2026-04-22T18:25:04Z</time></trkpt><trkpt lat="45.96376486917169" lon="13.312180609439416"><ele>52.0</ele><time>2026-04-22T18:25:05Z</time></trkpt><trkpt lat="45.9636335397034" lon="13.312109836515456"><ele>52.0</ele><time>2026-04-22T18:25:06Z</time></trkpt><trkpt lat="45.96352475263807" lon="13.312052104377189"><ele>52.0</ele><time>2026-04-22T18:25:07Z</time></trkpt><trkpt lat="45.96342260814814" lon="13.31199630565105"><ele>52.0</ele><time>2026-04-22T18:25:08Z</time></trkpt><trkpt lat="45.96333534365852" lon="13.311930828518056"><ele>52.25</ele><time>2026-04-22T18:25:09Z</time></trkpt><trkpt lat="45.96328076974488" lon="13.3117918328609"><ele>52.5</ele><time>2026-04-22T18:25:10Z</time></trkpt><trkpt lat="45.96323200541868" lon="13.311618991254843"><ele>52.75</ele><time>2026-04-22T18:25:11Z</time></trkpt><trkpt lat="45.963176755147884" lon="13.311440618619647"><ele>53.0</ele><time>2026-04-22T18:25:12Z</time></trkpt><trkpt lat="45.96312656254237" lon="13.311279472658397"><ele>52.5</ele><time>2026-04-22T18:25:13Z</time></trkpt><trkpt lat="45.96307568323507" lon="13.311129466729147"><ele>52.0</ele><time>2026-04-22T18:25:14Z</time></trkpt><trkpt lat="45.96301562802895" lon="13.310978371524067"><ele>51.5</ele><time>2026-04-22T18:25:15Z</time></trkpt><trkpt lat="45.96295227023241" lon="13.310829060633317"><ele>51.0</ele><time>2026-04-22T18:25:16Z</time></trkpt><trkpt lat="45.96288967421104" lon="13.310679977961343"><ele>51.199999999999996</ele><time>2026-04-22T18:25:17Z</time></trkpt><trkpt lat="45.9628265331081" lon="13.310534980891761"><ele>51.4</ele><time>2026-04-22T18:25:18Z</time></trkpt><trkpt lat="45.96276312248316" lon="13.310392974427849"><ele>51.6</ele><time>2026-04-22T18:25:19Z</time></trkpt><trkpt lat="45.962708149199194" lon="13.310258981117535"><ele>51.8</ele><time>2026-04-22T18:25:20Z</time></trkpt><trkpt lat="45.962658339834" lon="13.310137296844688"><ele>52.0</ele><time>2026-04-22T18:25:21Z</time></trkpt><trkpt lat="45.96261175988289" lon="13.310032560626974"><ele>52.0</ele><time>2026-04-22T18:25:22Z</time></trkpt><trkpt lat="45.962555992506886" lon="13.309938420366164"><ele>52.0</ele><time>2026-04-22T18:25:23Z</time></trkpt><trkpt lat="45.96248162711679" lon="13.30986643301756"><ele>52.0</ele><time>2026-04-22T18:25:24Z</time></trkpt><trkpt lat="45.96240066160112" lon="13.309800591916282"><ele>52.0</ele><time>2026-04-22T18:25:25Z</time></trkpt><trkpt lat="45.962302260946245" lon="13.309789755387365"><ele>52.0</ele><time>2026-04-22T18:25:26Z</time></trkpt><trkpt lat="45.96220613367468" lon="13.309834933438399"><ele>51.99999999999999</ele><time>2026-04-22T18:25:27Z</time></trkpt><trkpt lat="45.96212188497984" lon="13.309841390225861"><ele>52.0</ele><time>2026-04-22T18:25:27.999Z</time></trkpt><trkpt lat="45.962036649902586" lon="13.309829642988646"><ele>52.0</ele><time>2026-04-22T18:25:28.999Z</time></trkpt><trkpt lat="45.96195420624191" lon="13.309797823018554"><ele>52.0</ele><time>2026-04-22T18:25:29.999Z</time></trkpt><trkpt lat="45.96188206695189" lon="13.309740584476538"><ele>51.99999999999999</ele><time>2026-04-22T18:25:30.999Z</time></trkpt><trkpt lat="45.96181490545343" lon="13.309658245202206"><ele>52.0</ele><time>2026-04-22T18:25:31.999Z</time></trkpt><trkpt lat="45.96177663469674" lon="13.309533308835713"><ele>52.0</ele><time>2026-04-22T18:25:32.999Z</time></trkpt><trkpt lat="45.96172783770692" lon="13.309415783297375"><ele>52.0</ele><time>2026-04-22T18:25:33.999Z</time></trkpt><trkpt lat="45.96167189610616" lon="13.30928166000911"><ele>52.0</ele><time>2026-04-22T18:25:34.999Z</time></trkpt><trkpt lat="45.96160835416306" lon="13.30913139620721"><ele>52.0</ele><time>2026-04-22T18:25:35.999Z</time></trkpt><trkpt lat="45.96153202209148" lon="13.30894448893451"><ele>52.0</ele><time>2026-04-22T18:25:36.999Z</time></trkpt><trkpt lat="45.96145797448354" lon="13.30874720100931"><ele>52.0</ele><time>2026-04-22T18:25:37.999Z</time></trkpt><trkpt lat="45.961395044858236" lon="13.30857196705164"><ele>52.0</ele><time>2026-04-22T18:25:38.999Z</time></trkpt><trkpt lat="45.96132572190233" lon="13.308432335006493"><ele>52.0</ele><time>2026-04-22T18:25:39.999Z</time></trkpt><trkpt lat="45.96128100379192" lon="13.30831066813182"><ele>51.99999999999999</ele><time>2026-04-22T18:25:40.999Z</time></trkpt><trkpt lat="45.961254459941856" lon="13.308205602732336"><ele>52.0</ele><time>2026-04-22T18:25:41.999Z</time></trkpt><trkpt lat="45.96126421327311" lon="13.308103529222485"><ele>52.0</ele><time>2026-04-22T18:25:42.999Z</time></trkpt><trkpt lat="45.96131682328218" lon="13.308026044179115"><ele>52.0</ele><time>2026-04-22T18:25:43.999Z</time></trkpt><trkpt lat="45.96138842713272" lon="13.307979360363047"><ele>51.99999999999999</ele><time>2026-04-22T18:25:44.999Z</time></trkpt><trkpt lat="45.96143440679358" lon="13.307907643760894"><ele>52.0</ele><time>2026-04-22T18:25:45.999Z</time></trkpt><trkpt lat="45.96146412250405" lon="13.30780112487923"><ele>52.0</ele><time>2026-04-22T18:25:46.999Z</time></trkpt><trkpt lat="45.96140308739065" lon="13.3076488943264"><ele>52.0</ele><time>2026-04-22T18:25:47.999Z</time></trkpt><trkpt lat="45.961338605153074" lon="13.307486889209741"><ele>52.0</ele><time>2026-04-22T18:25:48.999Z</time></trkpt><trkpt lat="45.96127910912124" lon="13.307318141110038"><ele>52.0</ele><time>2026-04-22T18:25:49.999Z</time></trkpt><trkpt lat="45.96122882922086" lon="13.307171985104459"><ele>51.666666666666664</ele><time>2026-04-22T18:25:50.999Z</time></trkpt><trkpt lat="45.961186358044" lon="13.307050970140219"><ele>51.33333333333333</ele><time>2026-04-22T18:25:51.999Z</time></trkpt><trkpt lat="45.96114972000153" lon="13.306949796451487"><ele>51.0</ele><time>2026-04-22T18:25:52.999Z</time></trkpt><trkpt lat="45.96110156246216" lon="13.30688232829625"><ele>50.66666666666667</ele><time>2026-04-22T18:25:53.999Z</time></trkpt><trkpt lat="45.961033461797975" lon="13.306862547153182"><ele>50.333333333333336</ele><time>2026-04-22T18:25:54.999Z</time></trkpt><trkpt lat="45.96095740049801" lon="13.306907453383728"><ele>50.0</ele><time>2026-04-22T18:25:55.999Z</time></trkpt><trkpt lat="45.95020171747189" lon="13.30911858212507"><ele>49.2</ele><time>2026-04-22T18:26:57Z</time></trkpt><trkpt lat="45.950083496926794" lon="13.309159532678473"><ele>48.4</ele><time>2026-04-22T18:26:58Z</time></trkpt><trkpt lat="45.94998336171194" lon="13.309195948678978"><ele>47.599999999999994</ele><time>2026-04-22T18:26:59Z</time></trkpt><trkpt lat="45.94989795036045" lon="13.309232368850722"><ele>46.8</ele><time>2026-04-22T18:27:00Z</time></trkpt><trkpt lat="45.94983104627384" lon="13.309254687036212"><ele>46.0</ele><time>2026-04-22T18:27:01Z</time></trkpt><trkpt lat="45.949765382115146" lon="13.309274602062288"><ele>46.0</ele><time>2026-04-22T18:27:03Z</time></trkpt><trkpt lat="45.9497324686054" lon="13.309414237786603"><ele>46.0</ele><time>2026-04-22T18:27:08Z</time></trkpt><trkpt lat="45.94977694535778" lon="13.309526804215428"><ele>46.0</ele><time>2026-04-22T18:27:09Z</time></trkpt><trkpt lat="45.949835375456324" lon="13.309653672605343"><ele>46.0</ele><time>2026-04-22T18:27:10Z</time></trkpt><trkpt lat="45.949893345882074" lon="13.309805847320192"><ele>46.0</ele><time>2026-04-22T18:27:11Z</time></trkpt><trkpt lat="45.94994455062005" lon="13.309932944884716"><ele>46.0</ele><time>2026-04-22T18:27:12Z</time></trkpt><trkpt lat="45.94999807664474" lon="13.310033609009116"><ele>46.0</ele><time>2026-04-22T18:27:13Z</time></trkpt><trkpt lat="45.95004797112794" lon="13.310130365670833"><ele>46.0</ele><time>2026-04-22T18:27:14Z</time></trkpt><trkpt lat="45.950096765384245" lon="13.310225502441998"><ele>46.0</ele><time>2026-04-22T18:27:15Z</time></trkpt><trkpt lat="45.95014361448705" lon="13.310316353485886"><ele>46.0</ele><time>2026-04-22T18:27:16Z</time></trkpt><trkpt lat="45.95019338614009" lon="13.31041452975882"><ele>46.0</ele><time>2026-04-22T18:27:17Z</time></trkpt><trkpt lat="45.95026424657699" lon="13.310522091495796"><ele>46.0</ele><time>2026-04-22T18:27:18Z</time></trkpt><trkpt lat="45.95035030345787" lon="13.310654087267972"><ele>46.0</ele><time>2026-04-22T18:27:19Z</time></trkpt><trkpt lat="45.9504470079001" lon="13.310796713701396"><ele>46.0</ele><time>2026-04-22T18:27:20Z</time></trkpt><trkpt lat="45.95055198028996" lon="13.310949628825464"><ele>46.0</ele><time>2026-04-22T18:27:21Z</time></trkpt><trkpt lat="45.950670282115034" lon="13.31112636102011"><ele>46.0</ele><time>2026-04-22T18:27:22Z</time></trkpt><trkpt lat="45.95079860742234" lon="13.31131499110379"><ele>46.0</ele><time>2026-04-22T18:27:23Z</time></trkpt><trkpt lat="45.950932612227504" lon="13.311518612735526"><ele>46.0</ele><time>2026-04-22T18:27:24Z</time></trkpt><trkpt lat="45.95106807555335" lon="13.311732646799978"><ele>46.333333333333336</ele><time>2026-04-22T18:27:25Z</time></trkpt><trkpt lat="45.951200683274166" lon="13.311963947317375"><ele>46.666666666666664</ele><time>2026-04-22T18:27:26Z</time></trkpt><trkpt lat="45.951322817842055" lon="13.312202135480131"><ele>47.0</ele><time>2026-04-22T18:27:27Z</time></trkpt><trkpt lat="45.95144393473195" lon="13.312441949602128"><ele>47.0</ele><time>2026-04-22T18:27:28Z</time></trkpt><trkpt lat="45.95157069688377" lon="13.312684094042528"><ele>47.0</ele><time>2026-04-22T18:27:29Z</time></trkpt><trkpt lat="45.95169820543458" lon="13.312936157041197"><ele>47.0</ele><time>2026-04-22T18:27:30Z</time></trkpt><trkpt lat="45.951826110225255" lon="13.313192239324104"><ele>47.33333333333333</ele><time>2026-04-22T18:27:31Z</time></trkpt><trkpt lat="45.95194637325803" lon="13.313430698416019"><ele>47.666666666666664</ele><time>2026-04-22T18:27:32Z</time></trkpt><trkpt lat="45.952055278164885" lon="13.31364246500156"><ele>48.0</ele><time>2026-04-22T18:27:33Z</time></trkpt><trkpt lat="45.952155341941435" lon="13.313837382815114"><ele>48.33333333333333</ele><time>2026-04-22T18:27:34Z</time></trkpt><trkpt lat="45.952232690854245" lon="13.314018880531357"><ele>48.666666666666664</ele><time>2026-04-22T18:27:35Z</time></trkpt><trkpt lat="45.95229408083141" lon="13.3142212046427"><ele>49.0</ele><time>2026-04-22T18:27:35.999Z</time></trkpt><trkpt lat="45.952331740979616" lon="13.314445706891362"><ele>49.0</ele><time>2026-04-22T18:27:36.999Z</time></trkpt><trkpt lat="45.952345614777826" lon="13.314696766768437"><ele>49.0</ele><time>2026-04-22T18:27:37.999Z</time></trkpt><trkpt lat="45.95233032268115" lon="13.31497021471216"><ele>49.0</ele><time>2026-04-22T18:27:38.999Z</time></trkpt><trkpt lat="45.95229938470607" lon="13.315268743034471"><ele>47.666666666666664</ele><time>2026-04-22T18:27:39.999Z</time></trkpt><trkpt lat="45.95226818193093" lon="13.315584989360323"><ele>46.33333333333333</ele><time>2026-04-22T18:27:40.999Z</time></trkpt><trkpt lat="45.95224323465321" lon="13.315903043574357"><ele>45.0</ele><time>2026-04-22T18:27:41.999Z</time></trkpt><trkpt lat="45.95222203591277" lon="13.316210552827553"><ele>45.333333333333336</ele><time>2026-04-22T18:27:42.999Z</time></trkpt><trkpt lat="45.95221838125886" lon="13.3165129256027"><ele>45.66666666666667</ele><time>2026-04-22T18:27:43.999Z</time></trkpt><trkpt lat="45.95224275827244" lon="13.316807120633207"><ele>46.0</ele><time>2026-04-22T18:27:44.999Z</time></trkpt><trkpt lat="45.95229028065061" lon="13.317099934502403"><ele>46.0</ele><time>2026-04-22T18:27:45.999Z</time></trkpt><trkpt lat="45.952353090524106" lon="13.317387079999369"><ele>46.0</ele><time>2026-04-22T18:27:46.999Z</time></trkpt><trkpt lat="45.95242464819821" lon="13.317666769852583"><ele>46.0</ele><time>2026-04-22T18:27:47.999Z</time></trkpt><trkpt lat="45.952494143646625" lon="13.317946140446464"><ele>46.0</ele><time>2026-04-22T18:27:48.999Z</time></trkpt><trkpt lat="45.95255950672039" lon="13.318219584857188"><ele>46.0</ele><time>2026-04-22T18:27:49.999Z</time></trkpt><trkpt lat="45.95262444032053" lon="13.318485234868986"><ele>46.0</ele><time>2026-04-22T18:27:50.999Z</time></trkpt><trkpt lat="45.9526883910757" lon="13.318742777997214"><ele>46.333333333333336</ele><time>2026-04-22T18:27:51.999Z</time></trkpt><trkpt lat="45.95274853341729" lon="13.318991005897622"><ele>46.666666666666664</ele><time>2026-04-22T18:27:52.999Z</time></trkpt><trkpt lat="45.95280492240858" lon="13.319224351783788"><ele>47.0</ele><time>2026-04-22T18:27:53.999Z</time></trkpt><trkpt lat="45.952861384208795" lon="13.319446202823954"><ele>47.0</ele><time>2026-04-22T18:27:54.999Z</time></trkpt><trkpt lat="45.952914308285514" lon="13.319655679225484"><ele>47.0</ele><time>2026-04-22T18:27:55.999Z</time></trkpt><trkpt lat="45.95717759662522" lon="13.336186760736172"><ele>47.33333333333333</ele><time>2026-04-22T18:28:57Z</time></trkpt><trkpt lat="45.95721021492674" lon="13.336316590179141"><ele>47.666666666666664</ele><time>2026-04-22T18:29:00Z</time></trkpt><trkpt lat="45.9569984842197" lon="13.336475525835743"><ele>48.0</ele><time>2026-04-22T18:29:01Z</time></trkpt><trkpt lat="45.95683567481541" lon="13.336588962687898"><ele>47.5</ele><time>2026-04-22T18:29:02Z</time></trkpt><trkpt lat="45.95662676216503" lon="13.336742947325558"><ele>47.0</ele><time>2026-04-22T18:29:03Z</time></trkpt><trkpt lat="45.9563869236406" lon="13.336914116591435"><ele>47.0</ele><time>2026-04-22T18:29:04Z</time></trkpt><trkpt lat="45.95613822247618" lon="13.337082401908335"><ele>47.0</ele><time>2026-04-22T18:29:05Z</time></trkpt><trkpt lat="45.95589388692261" lon="13.337243714782542"><ele>47.0</ele><time>2026-04-22T18:29:06Z</time></trkpt><trkpt lat="45.955657279792966" lon="13.337404535718052"><ele>47.0</ele><time>2026-04-22T18:29:07Z</time></trkpt><trkpt lat="45.95542975396174" lon="13.337566709351195"><ele>47.0</ele><time>2026-04-22T18:29:08Z</time></trkpt><trkpt lat="45.955208314907864" lon="13.337720773408586"><ele>47.0</ele><time>2026-04-22T18:29:09Z</time></trkpt><trkpt lat="45.95499253813619" lon="13.337873288561388"><ele>46.5</ele><time>2026-04-22T18:29:10Z</time></trkpt><trkpt lat="45.954782709069335" lon="13.338021500249935"><ele>46.0</ele><time>2026-04-22T18:29:11Z</time></trkpt><trkpt lat="45.954580201685225" lon="13.33816279417158"><ele>45.66666666666667</ele><time>2026-04-22T18:29:12Z</time></trkpt><trkpt lat="45.95438380700946" lon="13.33829671985731"><ele>45.333333333333336</ele><time>2026-04-22T18:29:13Z</time></trkpt><trkpt lat="45.95419401638615" lon="13.338431365593854"><ele>45.0</ele><time>2026-04-22T18:29:14Z</time></trkpt><trkpt lat="45.95400778419403" lon="13.338561531288565"><ele>45.0</ele><time>2026-04-22T18:29:15Z</time></trkpt><trkpt lat="45.953824074122664" lon="13.338687601738354"><ele>45.0</ele><time>2026-04-22T18:29:16Z</time></trkpt><trkpt lat="45.95364127212635" lon="13.338813028981496"><ele>45.0</ele><time>2026-04-22T18:29:17Z</time></trkpt><trkpt lat="45.953461219768414" lon="13.338940669369013"><ele>45.666666666666664</ele><time>2026-04-22T18:29:18Z</time></trkpt><trkpt lat="45.95328240038682" lon="13.339067509766412"><ele>46.33333333333333</ele><time>2026-04-22T18:29:19Z</time></trkpt><trkpt lat="45.95310283966306" lon="13.339191488008673"><ele>47.0</ele><time>2026-04-22T18:29:20Z</time></trkpt><trkpt lat="45.952922407967385" lon="13.339314758590108"><ele>47.0</ele><time>2026-04-22T18:29:21Z</time></trkpt><trkpt lat="45.95274249776964" lon="13.339439293022885"><ele>47.0</ele><time>2026-04-22T18:29:22Z</time></trkpt><trkpt lat="45.95256244333213" lon="13.339565522121482"><ele>47.0</ele><time>2026-04-22T18:29:23Z</time></trkpt><trkpt lat="45.95238252120142" lon="13.33969050393578"><ele>46.666666666666664</ele><time>2026-04-22T18:29:24Z</time></trkpt><trkpt lat="45.95220266929543" lon="13.33981586393665"><ele>46.333333333333336</ele><time>2026-04-22T18:29:25Z</time></trkpt><trkpt lat="45.95202231313741" lon="13.339940350652812"><ele>46.0</ele><time>2026-04-22T18:29:26Z</time></trkpt><trkpt lat="45.95184282717773" lon="13.34006511315081"><ele>46.0</ele><time>2026-04-22T18:29:27Z</time></trkpt><trkpt lat="45.951665038905205" lon="13.34018864052055"><ele>46.0</ele><time>2026-04-22T18:29:28Z</time></trkpt><trkpt lat="45.95148797647124" lon="13.340311377247529"><ele>46.0</ele><time>2026-04-22T18:29:29Z</time></trkpt><trkpt lat="45.951313721547024" lon="13.340441072176466"><ele>46.0</ele><time>2026-04-22T18:29:30Z</time></trkpt><trkpt lat="45.95114226175052" lon="13.34057771838118"><ele>46.0</ele><time>2026-04-22T18:29:31Z</time></trkpt><trkpt lat="45.95097225411012" lon="13.340722680166007"><ele>46.0</ele><time>2026-04-22T18:29:32Z</time></trkpt><trkpt lat="45.95080613736745" lon="13.34087389903028"><ele>46.0</ele><time>2026-04-22T18:29:33Z</time></trkpt><trkpt lat="45.950643187995894" lon="13.341029616571598"><ele>46.0</ele><time>2026-04-22T18:29:34Z</time></trkpt><trkpt lat="45.950480921072746" lon="13.341194313334727"><ele>46.0</ele><time>2026-04-22T18:29:35Z</time></trkpt><trkpt lat="45.950320222368745" lon="13.341360739842571"><ele>46.333333333333336</ele><time>2026-04-22T18:29:36Z</time></trkpt><trkpt lat="45.950159479787494" lon="13.341528569722996"><ele>46.666666666666664</ele><time>2026-04-22T18:29:37Z</time></trkpt><trkpt lat="45.95000306228375" lon="13.341694264801685"><ele>47.0</ele><time>2026-04-22T18:29:38Z</time></trkpt><trkpt lat="45.94984723938742" lon="13.341859432684338"><ele>46.33333333333333</ele><time>2026-04-22T18:29:39Z</time></trkpt><trkpt lat="45.94969287811849" lon="13.342026646289371"><ele>45.666666666666664</ele><time>2026-04-22T18:29:39.999Z</time></trkpt><trkpt lat="45.94954275033628" lon="13.34220230666901"><ele>45.0</ele><time>2026-04-22T18:29:40.999Z</time></trkpt><trkpt lat="45.949394677339754" lon="13.342396638395897"><ele>45.0</ele><time>2026-04-22T18:29:41.999Z</time></trkpt><trkpt lat="45.94925159437672" lon="13.342607933320295"><ele>45.0</ele><time>2026-04-22T18:29:42.999Z</time></trkpt><trkpt lat="45.949116284653805" lon="13.342843901317275"><ele>45.0</ele><time>2026-04-22T18:29:43.999Z</time></trkpt><trkpt lat="45.948982297402715" lon="13.343102667931667"><ele>44.0</ele><time>2026-04-22T18:29:44.999Z</time></trkpt><trkpt lat="45.948841459248946" lon="13.343380067012479"><ele>43.0</ele><time>2026-04-22T18:29:45.999Z</time></trkpt><trkpt lat="45.94869257140845" lon="13.343665557148958"><ele>43.5</ele><time>2026-04-22T18:29:46.999Z</time></trkpt><trkpt lat="45.94853833037626" lon="13.343958466021698"><ele>44.0</ele><time>2026-04-22T18:29:47.999Z</time></trkpt><trkpt lat="45.948380933015066" lon="13.344257901075673"><ele>44.0</ele><time>2026-04-22T18:29:48.999Z</time></trkpt><trkpt lat="45.948220324183005" lon="13.344558535263923"><ele>44.0</ele><time>2026-04-22T18:29:49.999Z</time></trkpt><trkpt lat="45.94806512780509" lon="13.344853880145296"><ele>43.0</ele><time>2026-04-22T18:29:50.999Z</time></trkpt><trkpt lat="45.947920111753525" lon="13.345143565039276"><ele>42.0</ele><time>2026-04-22T18:29:51.999Z</time></trkpt><trkpt lat="45.94777972613709" lon="13.345423144651743"><ele>41.666666666666664</ele><time>2026-04-22T18:29:52.999Z</time></trkpt><trkpt lat="45.9476375605101" lon="13.345681872122634"><ele>41.33333333333333</ele><time>2026-04-22T18:29:53.999Z</time></trkpt><trkpt lat="45.94748933363156" lon="13.345911166179105"><ele>41.0</ele><time>2026-04-22T18:29:54.999Z</time></trkpt><trkpt lat="45.94731246656557" lon="13.346122198785277"><ele>38.0</ele><time>2026-04-22T18:29:55.999Z</time></trkpt><trkpt lat="45.937681931687386" lon="13.3616251298668"><ele>38.0</ele><time>2026-04-22T18:30:57Z</time></trkpt><trkpt lat="45.937612660117686" lon="13.361989138565471"><ele>38.0</ele><time>2026-04-22T18:30:58Z</time></trkpt><trkpt lat="45.93754329002077" lon="13.36234363278945"><ele>38.0</ele><time>2026-04-22T18:30:59Z</time></trkpt><trkpt lat="45.9374790991987" lon="13.362687556210783"><ele>38.0</ele><time>2026-04-22T18:31:00Z</time></trkpt><trkpt lat="45.93741825865096" lon="13.363002351651392"><ele>38.0</ele><time>2026-04-22T18:31:01Z</time></trkpt><trkpt lat="45.93736101084726" lon="13.36329165026413"><ele>38.0</ele><time>2026-04-22T18:31:02Z</time></trkpt><trkpt lat="45.937311868527885" lon="13.363561290682552"><ele>38.0</ele><time>2026-04-22T18:31:03Z</time></trkpt><trkpt lat="45.93725384442838" lon="13.36381748591772"><ele>39.0</ele><time>2026-04-22T18:31:04Z</time></trkpt><trkpt lat="45.93717818592364" lon="13.364054462349657"><ele>40.0</ele><time>2026-04-22T18:31:05Z</time></trkpt><trkpt lat="45.937074378497634" lon="13.364270279816411"><ele>41.0</ele><time>2026-04-22T18:31:06Z</time></trkpt><trkpt lat="45.93693412231724" lon="13.364465313005834"><ele>41.0</ele><time>2026-04-22T18:31:07Z</time></trkpt><trkpt lat="45.93676726437439" lon="13.364638962153105"><ele>41.0</ele><time>2026-04-22T18:31:08Z</time></trkpt><trkpt lat="45.936567974731794" lon="13.364761863494104"><ele>41.0</ele><time>2026-04-22T18:31:09Z</time></trkpt><trkpt lat="45.93633855387485" lon="13.364829103968782"><ele>39.5</ele><time>2026-04-22T18:31:10Z</time></trkpt><trkpt lat="45.93607684251443" lon="13.36486463662707"><ele>38.0</ele><time>2026-04-22T18:31:11Z</time></trkpt><trkpt lat="45.9357724895061" lon="13.364918026569711"><ele>37.5</ele><time>2026-04-22T18:31:12Z</time></trkpt><trkpt lat="45.93541165647702" lon="13.364984646414905"><ele>37.0</ele><time>2026-04-22T18:31:13Z</time></trkpt><trkpt lat="45.93502466648109" lon="13.365055037826268"><ele>37.0</ele><time>2026-04-22T18:31:14Z</time></trkpt><trkpt lat="45.93466734615734" lon="13.365119455224699"><ele>37.0</ele><time>2026-04-22T18:31:15Z</time></trkpt><trkpt lat="45.934330138104244" lon="13.36517714307835"><ele>37.0</ele><time>2026-04-22T18:31:16Z</time></trkpt><trkpt lat="45.93400838085445" lon="13.365231832010414"><ele>37.0</ele><time>2026-04-22T18:31:17Z</time></trkpt><trkpt lat="45.93370287403355" lon="13.365287380451276"><ele>37.0</ele><time>2026-04-22T18:31:18Z</time></trkpt><trkpt lat="45.93340953269613" lon="13.365340828988709"><ele>37.0</ele><time>2026-04-22T18:31:19Z</time></trkpt><trkpt lat="45.93312502780496" lon="13.365390108310397"><ele>36.0</ele><time>2026-04-22T18:31:20Z</time></trkpt><trkpt lat="45.93285385265875" lon="13.365435676457224"><ele>35.0</ele><time>2026-04-22T18:31:21Z</time></trkpt><trkpt lat="45.932592602840494" lon="13.365480818649328"><ele>36.0</ele><time>2026-04-22T18:31:22Z</time></trkpt><trkpt lat="45.93234493003116" lon="13.36553197526599"><ele>37.0</ele><time>2026-04-22T18:31:23Z</time></trkpt><trkpt lat="45.93210927886518" lon="13.3656034379955"><ele>37.0</ele><time>2026-04-22T18:31:24Z</time></trkpt><trkpt lat="45.931881113708364" lon="13.365692188844351"><ele>37.0</ele><time>2026-04-22T18:31:25Z</time></trkpt><trkpt lat="45.93165528937837" lon="13.365797017468308"><ele>36.0</ele><time>2026-04-22T18:31:26Z</time></trkpt><trkpt lat="45.93142858185233" lon="13.365899150983287"><ele>35.0</ele><time>2026-04-22T18:31:27Z</time></trkpt><trkpt lat="45.93120205306936" lon="13.365996305935207"><ele>35.0</ele><time>2026-04-22T18:31:28Z</time></trkpt><trkpt lat="45.930976339039326" lon="13.366094901004447"><ele>35.0</ele><time>2026-04-22T18:31:29Z</time></trkpt><trkpt lat="45.93075228388571" lon="13.366193225428379"><ele>35.0</ele><time>2026-04-22T18:31:30Z</time></trkpt><trkpt lat="45.93052830011648" lon="13.366289915946943"><ele>35.0</ele><time>2026-04-22T18:31:31Z</time></trkpt><trkpt lat="45.930306154410296" lon="13.366386122021767"><ele>35.0</ele><time>2026-04-22T18:31:32Z</time></trkpt><trkpt lat="45.930084963210255" lon="13.36648419096579"><ele>35.0</ele><time>2026-04-22T18:31:33Z</time></trkpt><trkpt lat="45.929865741258595" lon="13.366581381947656"><ele>35.0</ele><time>2026-04-22T18:31:34Z</time></trkpt><trkpt lat="45.92964745353402" lon="13.36667849342739"><ele>35.0</ele><time>2026-04-22T18:31:35Z</time></trkpt><trkpt lat="45.92942922587332" lon="13.366773849942021"><ele>34.5</ele><time>2026-04-22T18:31:36Z</time></trkpt><trkpt lat="45.92921278866482" lon="13.366869258499596"><ele>34.0</ele><time>2026-04-22T18:31:37Z</time></trkpt><trkpt lat="45.928997081054334" lon="13.366965974230231"><ele>34.0</ele><time>2026-04-22T18:31:38Z</time></trkpt><trkpt lat="45.92878290791387" lon="13.367061519608932"><ele>34.0</ele><time>2026-04-22T18:31:39Z</time></trkpt><trkpt lat="45.92856997555132" lon="13.367158272281571"><ele>34.0</ele><time>2026-04-22T18:31:40Z</time></trkpt><trkpt lat="45.92835927992778" lon="13.367257628438368"><ele>34.0</ele><time>2026-04-22T18:31:41Z</time></trkpt><trkpt lat="45.92815596998603" lon="13.367367247185877"><ele>34.0</ele><time>2026-04-22T18:31:42Z</time></trkpt><trkpt lat="45.927960309754305" lon="13.367489452174166"><ele>34.0</ele><time>2026-04-22T18:31:43Z</time></trkpt><trkpt lat="45.92777201509603" lon="13.367626315192169"><ele>34.0</ele><time>2026-04-22T18:31:44Z</time></trkpt><trkpt lat="45.9275926204439" lon="13.367776706231504"><ele>34.0</ele><time>2026-04-22T18:31:44.999Z</time></trkpt><trkpt lat="45.92741959122852" lon="13.36793357721375"><ele>34.0</ele><time>2026-04-22T18:31:45.999Z</time></trkpt><trkpt lat="45.92724918731165" lon="13.368091569989184"><ele>34.0</ele><time>2026-04-22T18:31:46.999Z</time></trkpt><trkpt lat="45.92708047649631" lon="13.36825455163954"><ele>34.0</ele><time>2026-04-22T18:31:47.999Z</time></trkpt><trkpt lat="45.92690779243999" lon="13.368417599748444"><ele>34.0</ele><time>2026-04-22T18:31:48.999Z</time></trkpt><trkpt lat="45.92673361411371" lon="13.368579901624448"><ele>34.0</ele><time>2026-04-22T18:31:49.999Z</time></trkpt><trkpt lat="45.92655928021397" lon="13.36874165061589"><ele>34.0</ele><time>2026-04-22T18:31:50.999Z</time></trkpt><trkpt lat="45.9263865705666" lon="13.368901337882324"><ele>34.0</ele><time>2026-04-22T18:31:51.999Z</time></trkpt><trkpt lat="45.92621493186439" lon="13.369062040059584"><ele>34.0</ele><time>2026-04-22T18:31:52.999Z</time></trkpt><trkpt lat="45.92604111628277" lon="13.369222137004618"><ele>34.0</ele><time>2026-04-22T18:31:53.999Z</time></trkpt><trkpt lat="45.92586630519814" lon="13.369379736541683"><ele>34.0</ele><time>2026-04-22T18:31:54.999Z</time></trkpt><trkpt lat="45.92568861384579" lon="13.36953568351398"><ele>34.0</ele><time>2026-04-22T18:31:55.999Z</time></trkpt><trkpt lat="45.91572439107391" lon="13.376182563489598"><ele>34.0</ele><time>2026-04-22T18:32:57Z</time></trkpt><trkpt lat="45.91553999172968" lon="13.376205223555484"><ele>34.0</ele><time>2026-04-22T18:32:58Z</time></trkpt><trkpt lat="45.91535793520822" lon="13.376233693505817"><ele>34.0</ele><time>2026-04-22T18:32:59Z</time></trkpt><trkpt lat="45.91517714915684" lon="13.37626232168807"><ele>33.333333333333336</ele><time>2026-04-22T18:33:00Z</time></trkpt><trkpt lat="45.91500123362994" lon="13.37629335107903"><ele>32.666666666666664</ele><time>2026-04-22T18:33:01Z</time></trkpt><trkpt lat="45.91482527738019" lon="13.376321697354605"><ele>32.0</ele><time>2026-04-22T18:33:02Z</time></trkpt><trkpt lat="45.91464916041914" lon="13.376353026235334"><ele>32.33333333333333</ele><time>2026-04-22T18:33:03Z</time></trkpt><trkpt lat="45.91447101896001" lon="13.376380702665655"><ele>32.666666666666664</ele><time>2026-04-22T18:33:04Z</time></trkpt><trkpt lat="45.91429456405038" lon="13.376417362406874"><ele>33.0</ele><time>2026-04-22T18:33:05Z</time></trkpt><trkpt lat="45.91412228416304" lon="13.376466671429386"><ele>33.0</ele><time>2026-04-22T18:33:06Z</time></trkpt><trkpt lat="45.913954985424574" lon="13.376534980400741"><ele>33.0</ele><time>2026-04-22T18:33:07Z</time></trkpt><trkpt lat="45.91379173844434" lon="13.376612916287305"><ele>33.0</ele><time>2026-04-22T18:33:08Z</time></trkpt><trkpt lat="45.91362228868391" lon="13.376683465416393"><ele>33.0</ele><time>2026-04-22T18:33:09Z</time></trkpt><trkpt lat="45.91345640202938" lon="13.376739701411267"><ele>33.0</ele><time>2026-04-22T18:33:10Z</time></trkpt><trkpt lat="45.91328927913719" lon="13.376788434372914"><ele>33.0</ele><time>2026-04-22T18:33:11Z</time></trkpt><trkpt lat="45.91313272498864" lon="13.376856473275893"><ele>33.0</ele><time>2026-04-22T18:33:12Z</time></trkpt><trkpt lat="45.91298154365366" lon="13.376959702171137"><ele>33.0</ele><time>2026-04-22T18:33:13Z</time></trkpt><trkpt lat="45.91283473838031" lon="13.377098366139903"><ele>33.0</ele><time>2026-04-22T18:33:14Z</time></trkpt><trkpt lat="45.912684086845296" lon="13.377254802704218"><ele>32.666666666666664</ele><time>2026-04-22T18:33:15Z</time></trkpt><trkpt lat="45.9125263854448" lon="13.377419261111902"><ele>32.33333333333333</ele><time>2026-04-22T18:33:16Z</time></trkpt><trkpt lat="45.91236095131835" lon="13.377588805344411"><ele>32.0</ele><time>2026-04-22T18:33:17Z</time></trkpt><trkpt lat="45.912192413536225" lon="13.377762723659343"><ele>32.0</ele><time>2026-04-22T18:33:18Z</time></trkpt><trkpt lat="45.91202228936342" lon="13.377936529669428"><ele>32.0</ele><time>2026-04-22T18:33:19Z</time></trkpt><trkpt lat="45.91185583139155" lon="13.378107547566895"><ele>32.0</ele><time>2026-04-22T18:33:20Z</time></trkpt><trkpt lat="45.91168918811633" lon="13.378263185639437"><ele>31.666666666666664</ele><time>2026-04-22T18:33:21Z</time></trkpt><trkpt lat="45.91151688590662" lon="13.378396728118327"><ele>31.333333333333336</ele><time>2026-04-22T18:33:22Z</time></trkpt><trkpt lat="45.911330332324354" lon="13.378507413003206"><ele>31.0</ele><time>2026-04-22T18:33:23Z</time></trkpt><trkpt lat="45.91113471680274" lon="13.378599994246459"><ele>31.0</ele><time>2026-04-22T18:33:24Z</time></trkpt><trkpt lat="45.91092074995161" lon="13.378661229151394"><ele>31.0</ele><time>2026-04-22T18:33:25Z</time></trkpt><trkpt lat="45.91069014893208" lon="13.378683331413564"><ele>31.0</ele><time>2026-04-22T18:33:26Z</time></trkpt><trkpt lat="45.910443594245095" lon="13.378680608645846"><ele>30.5</ele><time>2026-04-22T18:33:27Z</time></trkpt><trkpt lat="45.91018412014208" lon="13.378656621310629"><ele>30.0</ele><time>2026-04-22T18:33:28Z</time></trkpt><trkpt lat="45.9099189672127" lon="13.378636381955266"><ele>29.0</ele><time>2026-04-22T18:33:29Z</time></trkpt><trkpt lat="45.909654925453786" lon="13.378632168564037"><ele>28.0</ele><time>2026-04-22T18:33:30Z</time></trkpt><trkpt lat="45.90939021574134" lon="13.378641732416646"><ele>28.5</ele><time>2026-04-22T18:33:31Z</time></trkpt><trkpt lat="45.90912508537971" lon="13.37866247847402"><ele>29.0</ele><time>2026-04-22T18:33:32Z</time></trkpt><trkpt lat="45.90886423004878" lon="13.37869273034107"><ele>29.0</ele><time>2026-04-22T18:33:33Z</time></trkpt><trkpt lat="45.90860644311556" lon="13.378732878583238"><ele>29.0</ele><time>2026-04-22T18:33:34Z</time></trkpt><trkpt lat="45.90835321500202" lon="13.378784781236686"><ele>29.0</ele><time>2026-04-22T18:33:35Z</time></trkpt><trkpt lat="45.908101799969536" lon="13.378849601501045"><ele>29.0</ele><time>2026-04-22T18:33:36Z</time></trkpt><trkpt lat="45.90785643395454" lon="13.37893093961552"><ele>29.0</ele><time>2026-04-22T18:33:37Z</time></trkpt><trkpt lat="45.90761176398189" lon="13.379025542214235"><ele>29.0</ele><time>2026-04-22T18:33:38Z</time></trkpt><trkpt lat="45.90734493328483" lon="13.379132479274567"><ele>29.0</ele><time>2026-04-22T18:33:39Z</time></trkpt><trkpt lat="45.90709106967105" lon="13.379230449232837"><ele>29.0</ele><time>2026-04-22T18:33:40Z</time></trkpt><trkpt lat="45.90683732986326" lon="13.379307154400596"><ele>29.0</ele><time>2026-04-22T18:33:41Z</time></trkpt><trkpt lat="45.90658270521862" lon="13.379359058742084"><ele>29.0</ele><time>2026-04-22T18:33:42Z</time></trkpt><trkpt lat="45.90632912352733" lon="13.37938847017268"><ele>29.0</ele><time>2026-04-22T18:33:43Z</time></trkpt><trkpt lat="45.906073586025755" lon="13.379418048838287"><ele>29.0</ele><time>2026-04-22T18:33:44Z</time></trkpt><trkpt lat="45.90581901575582" lon="13.379449468830998"><ele>28.5</ele><time>2026-04-22T18:33:45Z</time></trkpt><trkpt lat="45.90556473066683" lon="13.37947763878418"><ele>28.0</ele><time>2026-04-22T18:33:46Z</time></trkpt><trkpt lat="45.905311134315184" lon="13.379507347464935"><ele>27.0</ele><time>2026-04-22T18:33:47Z</time></trkpt><trkpt lat="45.905058480007675" lon="13.379541337395388"><ele>26.0</ele><time>2026-04-22T18:33:48Z</time></trkpt><trkpt lat="45.90480590864297" lon="13.379575840940005"><ele>26.0</ele><time>2026-04-22T18:33:49Z</time></trkpt><trkpt lat="45.90455357940146" lon="13.37961483380165"><ele>26.0</ele><time>2026-04-22T18:33:50Z</time></trkpt><trkpt lat="45.90430264681563" lon="13.37965961829299"><ele>26.5</ele><time>2026-04-22T18:33:51Z</time></trkpt><trkpt lat="45.90405238806202" lon="13.379713461021554"><ele>27.0</ele><time>2026-04-22T18:33:51.999Z</time></trkpt><trkpt lat="45.90380355324453" lon="13.379771237522469"><ele>27.0</ele><time>2026-04-22T18:33:52.999Z</time></trkpt><trkpt lat="45.903554539414465" lon="13.37982773746421"><ele>27.0</ele><time>2026-04-22T18:33:53.999Z</time></trkpt><trkpt lat="45.90330669625798" lon="13.37988353889482"><ele>27.0</ele><time>2026-04-22T18:33:54.999Z</time></trkpt><trkpt lat="45.90305887405734" lon="13.379935652598046"><ele>27.0</ele><time>2026-04-22T18:33:55.999Z</time></trkpt><trkpt lat="45.896153161455345" lon="13.381271564586037"><ele>26.0</ele><time>2026-04-22T18:34:56.999Z</time></trkpt></trkseg></trk></gpx>